<?xml version="1.0" encoding="UTF-8" standalone="no" ?>
<gpx xmlns="http://www.topografix.com/GPX/1/1" xmlns:xsi="http://www.w3.org/2001/XMLSchema-instance" xsi:schemaLocation="http://www.topografix.com/GPX/1/1 http://www.topografix.com/GPX/1/1/gpx.xsd" version="1.1" creator="VisuGPX - https://www.visugpx.com">
  <metadata>
    <name>Arbignieu - St Pierre </name>
    <desc><![CDATA[Retour du centre Equestre par les Reys.
]]></desc>
  </metadata>
  <trk>
    <name><![CDATA[Arbignieu - St Pierre _1]]></name>
    <trkseg>
      <trkpt lat="45.73208" lon="5.64906">
        <ele>289</ele>
        <time>2017-04-24T10:22:06Z</time>
      </trkpt>
      <trkpt lat="45.73205" lon="5.64907">
        <ele>289</ele>
        <time>2017-04-24T10:22:06Z</time>
      </trkpt>
      <trkpt lat="45.732" lon="5.64907">
        <ele>289</ele>
        <time>2017-04-24T10:22:06Z</time>
      </trkpt>
      <trkpt lat="45.73196" lon="5.64908">
        <ele>289</ele>
        <time>2017-04-24T10:22:06Z</time>
      </trkpt>
      <trkpt lat="45.7319" lon="5.64908">
        <ele>289</ele>
        <time>2017-04-24T10:22:22Z</time>
      </trkpt>
      <trkpt lat="45.73187" lon="5.64909">
        <ele>289</ele>
        <time>2017-04-24T10:22:22Z</time>
      </trkpt>
      <trkpt lat="45.73183" lon="5.64908">
        <ele>289</ele>
        <time>2017-04-24T10:22:22Z</time>
      </trkpt>
      <trkpt lat="45.73179" lon="5.64907">
        <ele>289</ele>
        <time>2017-04-24T10:22:22Z</time>
      </trkpt>
      <trkpt lat="45.73175" lon="5.64906">
        <ele>289</ele>
        <time>2017-04-24T10:22:46Z</time>
      </trkpt>
      <trkpt lat="45.73173" lon="5.64906">
        <ele>289</ele>
        <time>2017-04-24T10:22:46Z</time>
      </trkpt>
      <trkpt lat="45.7317" lon="5.64907">
        <ele>289</ele>
        <time>2017-04-24T10:22:46Z</time>
      </trkpt>
      <trkpt lat="45.73168" lon="5.64908">
        <ele>289</ele>
        <time>2017-04-24T10:22:46Z</time>
      </trkpt>
      <trkpt lat="45.73164" lon="5.6491">
        <ele>289</ele>
        <time>2017-04-24T10:22:46Z</time>
      </trkpt>
      <trkpt lat="45.7316" lon="5.64911">
        <ele>289</ele>
        <time>2017-04-24T10:23:06Z</time>
      </trkpt>
      <trkpt lat="45.73158" lon="5.64912">
        <ele>289</ele>
        <time>2017-04-24T10:23:06Z</time>
      </trkpt>
      <trkpt lat="45.73154" lon="5.64912">
        <ele>289</ele>
        <time>2017-04-24T10:23:06Z</time>
      </trkpt>
      <trkpt lat="45.73153" lon="5.6491">
        <ele>289</ele>
        <time>2017-04-24T10:23:06Z</time>
      </trkpt>
      <trkpt lat="45.7315" lon="5.64907">
        <ele>289</ele>
        <time>2017-04-24T10:23:06Z</time>
      </trkpt>
      <trkpt lat="45.73144" lon="5.64913">
        <ele>289</ele>
        <time>2017-04-24T10:31:30Z</time>
      </trkpt>
      <trkpt lat="45.7314" lon="5.64911">
        <ele>289</ele>
        <time>2017-04-24T10:31:30Z</time>
      </trkpt>
      <trkpt lat="45.73138" lon="5.6491">
        <ele>289</ele>
        <time>2017-04-24T10:31:30Z</time>
      </trkpt>
      <trkpt lat="45.73135" lon="5.64909">
        <ele>289</ele>
        <time>2017-04-24T10:31:30Z</time>
      </trkpt>
      <trkpt lat="45.73132" lon="5.6491">
        <ele>289</ele>
        <time>2017-04-24T10:31:30Z</time>
      </trkpt>
      <trkpt lat="45.73129" lon="5.64912">
        <ele>289</ele>
        <time>2017-04-24T10:31:58Z</time>
      </trkpt>
      <trkpt lat="45.73127" lon="5.64911">
        <ele>289</ele>
        <time>2017-04-24T10:31:58Z</time>
      </trkpt>
      <trkpt lat="45.73125" lon="5.64908">
        <ele>289</ele>
        <time>2017-04-24T10:31:58Z</time>
      </trkpt>
      <trkpt lat="45.73122" lon="5.64906">
        <ele>289</ele>
        <time>2017-04-24T10:31:58Z</time>
      </trkpt>
      <trkpt lat="45.73118" lon="5.64904">
        <ele>289</ele>
        <time>2017-04-24T10:31:58Z</time>
      </trkpt>
      <trkpt lat="45.73116" lon="5.64901">
        <ele>289</ele>
        <time>2017-04-24T10:32:18Z</time>
      </trkpt>
      <trkpt lat="45.73116" lon="5.649">
        <ele>289</ele>
        <time>2017-04-24T10:32:18Z</time>
      </trkpt>
      <trkpt lat="45.73114" lon="5.649">
        <ele>289</ele>
        <time>2017-04-24T10:32:18Z</time>
      </trkpt>
      <trkpt lat="45.73112" lon="5.649">
        <ele>289</ele>
        <time>2017-04-24T10:32:18Z</time>
      </trkpt>
      <trkpt lat="45.73107" lon="5.64899">
        <ele>289</ele>
        <time>2017-04-24T10:32:18Z</time>
      </trkpt>
      <trkpt lat="45.731" lon="5.64898">
        <ele>289</ele>
        <time>2017-04-24T10:32:58Z</time>
      </trkpt>
      <trkpt lat="45.73099" lon="5.64896">
        <ele>289</ele>
        <time>2017-04-24T10:32:58Z</time>
      </trkpt>
      <trkpt lat="45.73098" lon="5.64896">
        <ele>289</ele>
        <time>2017-04-24T10:32:58Z</time>
      </trkpt>
      <trkpt lat="45.73096" lon="5.64896">
        <ele>289</ele>
        <time>2017-04-24T10:32:58Z</time>
      </trkpt>
      <trkpt lat="45.73091" lon="5.64894">
        <ele>289</ele>
        <time>2017-04-24T10:32:58Z</time>
      </trkpt>
      <trkpt lat="45.73087" lon="5.64893">
        <ele>289</ele>
        <time>2017-04-24T10:33:14Z</time>
      </trkpt>
      <trkpt lat="45.73082" lon="5.64892">
        <ele>289</ele>
        <time>2017-04-24T10:33:14Z</time>
      </trkpt>
      <trkpt lat="45.73078" lon="5.64893">
        <ele>289</ele>
        <time>2017-04-24T10:33:14Z</time>
      </trkpt>
      <trkpt lat="45.73074" lon="5.64893">
        <ele>289</ele>
        <time>2017-04-24T10:33:14Z</time>
      </trkpt>
      <trkpt lat="45.73067" lon="5.64894">
        <ele>289</ele>
        <time>2017-04-24T10:33:30Z</time>
      </trkpt>
      <trkpt lat="45.73061" lon="5.64898">
        <ele>289</ele>
        <time>2017-04-24T10:33:30Z</time>
      </trkpt>
      <trkpt lat="45.73056" lon="5.64901">
        <ele>289</ele>
        <time>2017-04-24T10:33:30Z</time>
      </trkpt>
      <trkpt lat="45.73051" lon="5.64902">
        <ele>289</ele>
        <time>2017-04-24T10:33:30Z</time>
      </trkpt>
      <trkpt lat="45.73046" lon="5.64903">
        <ele>289</ele>
        <time>2017-04-24T10:33:46Z</time>
      </trkpt>
      <trkpt lat="45.7304" lon="5.64903">
        <ele>289</ele>
        <time>2017-04-24T10:33:46Z</time>
      </trkpt>
      <trkpt lat="45.73037" lon="5.64903">
        <ele>289</ele>
        <time>2017-04-24T10:33:46Z</time>
      </trkpt>
      <trkpt lat="45.73032" lon="5.64901">
        <ele>289</ele>
        <time>2017-04-24T10:33:46Z</time>
      </trkpt>
      <trkpt lat="45.73026" lon="5.64899">
        <ele>289</ele>
        <time>2017-04-24T10:34:02Z</time>
      </trkpt>
      <trkpt lat="45.73021" lon="5.64898">
        <ele>289</ele>
        <time>2017-04-24T10:34:02Z</time>
      </trkpt>
      <trkpt lat="45.73014" lon="5.64894">
        <ele>289</ele>
        <time>2017-04-24T10:34:02Z</time>
      </trkpt>
      <trkpt lat="45.73011" lon="5.64894">
        <ele>289</ele>
        <time>2017-04-24T10:34:02Z</time>
      </trkpt>
      <trkpt lat="45.73007" lon="5.64892">
        <ele>289</ele>
        <time>2017-04-24T10:34:18Z</time>
      </trkpt>
      <trkpt lat="45.73003" lon="5.6489">
        <ele>289</ele>
        <time>2017-04-24T10:34:18Z</time>
      </trkpt>
      <trkpt lat="45.72999" lon="5.64888">
        <ele>289</ele>
        <time>2017-04-24T10:34:18Z</time>
      </trkpt>
      <trkpt lat="45.72997" lon="5.64886">
        <ele>289</ele>
        <time>2017-04-24T10:34:18Z</time>
      </trkpt>
      <trkpt lat="45.72989" lon="5.6488">
        <ele>289</ele>
        <time>2017-04-24T10:34:50Z</time>
      </trkpt>
      <trkpt lat="45.72987" lon="5.6488">
        <ele>289</ele>
        <time>2017-04-24T10:34:50Z</time>
      </trkpt>
      <trkpt lat="45.72984" lon="5.64878">
        <ele>289</ele>
        <time>2017-04-24T10:34:50Z</time>
      </trkpt>
      <trkpt lat="45.72981" lon="5.64876">
        <ele>289</ele>
        <time>2017-04-24T10:34:50Z</time>
      </trkpt>
      <trkpt lat="45.72978" lon="5.64873">
        <ele>288</ele>
        <time>2017-04-24T10:34:50Z</time>
      </trkpt>
      <trkpt lat="45.72975" lon="5.64873">
        <ele>288</ele>
        <time>2017-04-24T10:35:06Z</time>
      </trkpt>
      <trkpt lat="45.72969" lon="5.64874">
        <ele>288</ele>
        <time>2017-04-24T10:35:06Z</time>
      </trkpt>
      <trkpt lat="45.72967" lon="5.64876">
        <ele>289</ele>
        <time>2017-04-24T10:35:06Z</time>
      </trkpt>
      <trkpt lat="45.72964" lon="5.64875">
        <ele>289</ele>
        <time>2017-04-24T10:35:06Z</time>
      </trkpt>
      <trkpt lat="45.7296" lon="5.64876">
        <ele>289</ele>
        <time>2017-04-24T10:35:30Z</time>
      </trkpt>
      <trkpt lat="45.72959" lon="5.64876">
        <ele>289</ele>
        <time>2017-04-24T10:35:30Z</time>
      </trkpt>
      <trkpt lat="45.72958" lon="5.64875">
        <ele>283</ele>
        <time>2017-04-24T10:35:30Z</time>
      </trkpt>
      <trkpt lat="45.72954" lon="5.64873">
        <ele>283</ele>
        <time>2017-04-24T10:35:30Z</time>
      </trkpt>
      <trkpt lat="45.72948" lon="5.64872">
        <ele>283</ele>
        <time>2017-04-24T10:35:30Z</time>
      </trkpt>
      <trkpt lat="45.72944" lon="5.64873">
        <ele>283</ele>
        <time>2017-04-24T10:35:46Z</time>
      </trkpt>
      <trkpt lat="45.72936" lon="5.64875">
        <ele>283</ele>
        <time>2017-04-24T10:35:46Z</time>
      </trkpt>
      <trkpt lat="45.72931" lon="5.64875">
        <ele>283</ele>
        <time>2017-04-24T10:35:46Z</time>
      </trkpt>
      <trkpt lat="45.72925" lon="5.64875">
        <ele>283</ele>
        <time>2017-04-24T10:35:46Z</time>
      </trkpt>
      <trkpt lat="45.72921" lon="5.64875">
        <ele>283</ele>
        <time>2017-04-24T10:36:02Z</time>
      </trkpt>
      <trkpt lat="45.72916" lon="5.64875">
        <ele>283</ele>
        <time>2017-04-24T10:36:02Z</time>
      </trkpt>
      <trkpt lat="45.72912" lon="5.64877">
        <ele>283</ele>
        <time>2017-04-24T10:36:02Z</time>
      </trkpt>
      <trkpt lat="45.72907" lon="5.64877">
        <ele>283</ele>
        <time>2017-04-24T10:36:02Z</time>
      </trkpt>
      <trkpt lat="45.72905" lon="5.64877">
        <ele>283</ele>
        <time>2017-04-24T10:36:18Z</time>
      </trkpt>
      <trkpt lat="45.72901" lon="5.64877">
        <ele>283</ele>
        <time>2017-04-24T10:36:18Z</time>
      </trkpt>
      <trkpt lat="45.72897" lon="5.64877">
        <ele>283</ele>
        <time>2017-04-24T10:36:18Z</time>
      </trkpt>
      <trkpt lat="45.72892" lon="5.64877">
        <ele>283</ele>
        <time>2017-04-24T10:36:18Z</time>
      </trkpt>
      <trkpt lat="45.72887" lon="5.64877">
        <ele>283</ele>
        <time>2017-04-24T10:36:34Z</time>
      </trkpt>
      <trkpt lat="45.72882" lon="5.64877">
        <ele>283</ele>
        <time>2017-04-24T10:36:34Z</time>
      </trkpt>
      <trkpt lat="45.72877" lon="5.64879">
        <ele>283</ele>
        <time>2017-04-24T10:36:34Z</time>
      </trkpt>
      <trkpt lat="45.7287" lon="5.64879">
        <ele>280</ele>
        <time>2017-04-24T10:36:34Z</time>
      </trkpt>
      <trkpt lat="45.72867" lon="5.64879">
        <ele>280</ele>
        <time>2017-04-24T10:36:50Z</time>
      </trkpt>
      <trkpt lat="45.72861" lon="5.64878">
        <ele>280</ele>
        <time>2017-04-24T10:36:50Z</time>
      </trkpt>
      <trkpt lat="45.72857" lon="5.64874">
        <ele>281</ele>
        <time>2017-04-24T10:36:50Z</time>
      </trkpt>
      <trkpt lat="45.72855" lon="5.64864">
        <ele>281</ele>
        <time>2017-04-24T10:36:50Z</time>
      </trkpt>
      <trkpt lat="45.72855" lon="5.6486">
        <ele>281</ele>
        <time>2017-04-24T10:37:06Z</time>
      </trkpt>
      <trkpt lat="45.72854" lon="5.64857">
        <ele>281</ele>
        <time>2017-04-24T10:37:06Z</time>
      </trkpt>
      <trkpt lat="45.72855" lon="5.64852">
        <ele>281</ele>
        <time>2017-04-24T10:37:06Z</time>
      </trkpt>
      <trkpt lat="45.72854" lon="5.64842">
        <ele>281</ele>
        <time>2017-04-24T10:37:06Z</time>
      </trkpt>
      <trkpt lat="45.72854" lon="5.6483">
        <ele>281</ele>
        <time>2017-04-24T10:37:22Z</time>
      </trkpt>
      <trkpt lat="45.72855" lon="5.64825">
        <ele>281</ele>
        <time>2017-04-24T10:37:22Z</time>
      </trkpt>
      <trkpt lat="45.72856" lon="5.64819">
        <ele>281</ele>
        <time>2017-04-24T10:37:22Z</time>
      </trkpt>
      <trkpt lat="45.72857" lon="5.6481">
        <ele>281</ele>
        <time>2017-04-24T10:37:22Z</time>
      </trkpt>
      <trkpt lat="45.72859" lon="5.64805">
        <ele>281</ele>
        <time>2017-04-24T10:37:38Z</time>
      </trkpt>
      <trkpt lat="45.72861" lon="5.64799">
        <ele>281</ele>
        <time>2017-04-24T10:37:38Z</time>
      </trkpt>
      <trkpt lat="45.72864" lon="5.64794">
        <ele>281</ele>
        <time>2017-04-24T10:37:38Z</time>
      </trkpt>
      <trkpt lat="45.72869" lon="5.6479">
        <ele>283</ele>
        <time>2017-04-24T10:37:38Z</time>
      </trkpt>
      <trkpt lat="45.72872" lon="5.64787">
        <ele>283</ele>
        <time>2017-04-24T10:37:54Z</time>
      </trkpt>
      <trkpt lat="45.72876" lon="5.64783">
        <ele>283</ele>
        <time>2017-04-24T10:37:54Z</time>
      </trkpt>
      <trkpt lat="45.7288" lon="5.64778">
        <ele>283</ele>
        <time>2017-04-24T10:37:54Z</time>
      </trkpt>
      <trkpt lat="45.72885" lon="5.64774">
        <ele>283</ele>
        <time>2017-04-24T10:37:54Z</time>
      </trkpt>
      <trkpt lat="45.72889" lon="5.64772">
        <ele>283</ele>
        <time>2017-04-24T10:38:10Z</time>
      </trkpt>
      <trkpt lat="45.72895" lon="5.64769">
        <ele>283</ele>
        <time>2017-04-24T10:38:10Z</time>
      </trkpt>
      <trkpt lat="45.72897" lon="5.64766">
        <ele>283</ele>
        <time>2017-04-24T10:38:10Z</time>
      </trkpt>
      <trkpt lat="45.72901" lon="5.64759">
        <ele>283</ele>
        <time>2017-04-24T10:38:10Z</time>
      </trkpt>
      <trkpt lat="45.72901" lon="5.64756">
        <ele>283</ele>
        <time>2017-04-24T10:38:26Z</time>
      </trkpt>
      <trkpt lat="45.72899" lon="5.6475">
        <ele>283</ele>
        <time>2017-04-24T10:38:26Z</time>
      </trkpt>
      <trkpt lat="45.72897" lon="5.64743">
        <ele>283</ele>
        <time>2017-04-24T10:38:26Z</time>
      </trkpt>
      <trkpt lat="45.72895" lon="5.64734">
        <ele>283</ele>
        <time>2017-04-24T10:38:26Z</time>
      </trkpt>
      <trkpt lat="45.72894" lon="5.64727">
        <ele>283</ele>
        <time>2017-04-24T10:39:02Z</time>
      </trkpt>
      <trkpt lat="45.72893" lon="5.64727">
        <ele>283</ele>
        <time>2017-04-24T10:39:02Z</time>
      </trkpt>
      <trkpt lat="45.72893" lon="5.64727">
        <ele>283</ele>
        <time>2017-04-24T10:39:02Z</time>
      </trkpt>
      <trkpt lat="45.72892" lon="5.64724">
        <ele>283</ele>
        <time>2017-04-24T10:39:02Z</time>
      </trkpt>
      <trkpt lat="45.7289" lon="5.64718">
        <ele>283</ele>
        <time>2017-04-24T10:39:02Z</time>
      </trkpt>
      <trkpt lat="45.72894" lon="5.64716">
        <ele>283</ele>
        <time>2017-04-24T10:39:54Z</time>
      </trkpt>
      <trkpt lat="45.72892" lon="5.64711">
        <ele>283</ele>
        <time>2017-04-24T10:39:54Z</time>
      </trkpt>
      <trkpt lat="45.72892" lon="5.64706">
        <ele>288</ele>
        <time>2017-04-24T10:39:54Z</time>
      </trkpt>
      <trkpt lat="45.72892" lon="5.64701">
        <ele>288</ele>
        <time>2017-04-24T10:39:54Z</time>
      </trkpt>
      <trkpt lat="45.7289" lon="5.64698">
        <ele>288</ele>
        <time>2017-04-24T10:39:54Z</time>
      </trkpt>
      <trkpt lat="45.72894" lon="5.64691">
        <ele>288</ele>
        <time>2017-04-24T10:40:54Z</time>
      </trkpt>
      <trkpt lat="45.72895" lon="5.64691">
        <ele>288</ele>
        <time>2017-04-24T10:40:54Z</time>
      </trkpt>
      <trkpt lat="45.72896" lon="5.64692">
        <ele>288</ele>
        <time>2017-04-24T10:40:54Z</time>
      </trkpt>
      <trkpt lat="45.72897" lon="5.64692">
        <ele>288</ele>
        <time>2017-04-24T10:40:54Z</time>
      </trkpt>
      <trkpt lat="45.72897" lon="5.64691">
        <ele>288</ele>
        <time>2017-04-24T10:40:54Z</time>
      </trkpt>
      <trkpt lat="45.72899" lon="5.64691">
        <ele>288</ele>
        <time>2017-04-24T10:41:38Z</time>
      </trkpt>
      <trkpt lat="45.72899" lon="5.64691">
        <ele>288</ele>
        <time>2017-04-24T10:41:38Z</time>
      </trkpt>
      <trkpt lat="45.72902" lon="5.64691">
        <ele>288</ele>
        <time>2017-04-24T10:41:38Z</time>
      </trkpt>
      <trkpt lat="45.72906" lon="5.64687">
        <ele>288</ele>
        <time>2017-04-24T10:41:38Z</time>
      </trkpt>
      <trkpt lat="45.72909" lon="5.64682">
        <ele>288</ele>
        <time>2017-04-24T10:41:38Z</time>
      </trkpt>
      <trkpt lat="45.7291" lon="5.64678">
        <ele>288</ele>
        <time>2017-04-24T10:41:54Z</time>
      </trkpt>
      <trkpt lat="45.72909" lon="5.64671">
        <ele>288</ele>
        <time>2017-04-24T10:41:54Z</time>
      </trkpt>
      <trkpt lat="45.72907" lon="5.64663">
        <ele>288</ele>
        <time>2017-04-24T10:41:54Z</time>
      </trkpt>
      <trkpt lat="45.72906" lon="5.6465">
        <ele>288</ele>
        <time>2017-04-24T10:41:54Z</time>
      </trkpt>
      <trkpt lat="45.72906" lon="5.64643">
        <ele>288</ele>
        <time>2017-04-24T10:42:10Z</time>
      </trkpt>
      <trkpt lat="45.72906" lon="5.64638">
        <ele>288</ele>
        <time>2017-04-24T10:42:10Z</time>
      </trkpt>
      <trkpt lat="45.72906" lon="5.64629">
        <ele>288</ele>
        <time>2017-04-24T10:42:10Z</time>
      </trkpt>
      <trkpt lat="45.72908" lon="5.64617">
        <ele>296</ele>
        <time>2017-04-24T10:42:10Z</time>
      </trkpt>
      <trkpt lat="45.72909" lon="5.64609">
        <ele>296</ele>
        <time>2017-04-24T10:42:26Z</time>
      </trkpt>
      <trkpt lat="45.7291" lon="5.64595">
        <ele>296</ele>
        <time>2017-04-24T10:42:26Z</time>
      </trkpt>
      <trkpt lat="45.72909" lon="5.64587">
        <ele>296</ele>
        <time>2017-04-24T10:42:26Z</time>
      </trkpt>
      <trkpt lat="45.72908" lon="5.64578">
        <ele>296</ele>
        <time>2017-04-24T10:42:26Z</time>
      </trkpt>
      <trkpt lat="45.72907" lon="5.64574">
        <ele>296</ele>
        <time>2017-04-24T10:42:42Z</time>
      </trkpt>
      <trkpt lat="45.72906" lon="5.64566">
        <ele>296</ele>
        <time>2017-04-24T10:42:42Z</time>
      </trkpt>
      <trkpt lat="45.72903" lon="5.64564">
        <ele>296</ele>
        <time>2017-04-24T10:42:42Z</time>
      </trkpt>
      <trkpt lat="45.72901" lon="5.64555">
        <ele>296</ele>
        <time>2017-04-24T10:42:42Z</time>
      </trkpt>
      <trkpt lat="45.72899" lon="5.64549">
        <ele>296</ele>
        <time>2017-04-24T10:42:58Z</time>
      </trkpt>
      <trkpt lat="45.72897" lon="5.64545">
        <ele>296</ele>
        <time>2017-04-24T10:42:58Z</time>
      </trkpt>
      <trkpt lat="45.72899" lon="5.6454">
        <ele>303</ele>
        <time>2017-04-24T10:42:58Z</time>
      </trkpt>
      <trkpt lat="45.72897" lon="5.64528">
        <ele>303</ele>
        <time>2017-04-24T10:42:58Z</time>
      </trkpt>
      <trkpt lat="45.72896" lon="5.64522">
        <ele>303</ele>
        <time>2017-04-24T10:43:14Z</time>
      </trkpt>
      <trkpt lat="45.72896" lon="5.64518">
        <ele>303</ele>
        <time>2017-04-24T10:43:14Z</time>
      </trkpt>
      <trkpt lat="45.72896" lon="5.64511">
        <ele>303</ele>
        <time>2017-04-24T10:43:14Z</time>
      </trkpt>
      <trkpt lat="45.72897" lon="5.64503">
        <ele>303</ele>
        <time>2017-04-24T10:43:14Z</time>
      </trkpt>
      <trkpt lat="45.72899" lon="5.64498">
        <ele>303</ele>
        <time>2017-04-24T10:43:30Z</time>
      </trkpt>
      <trkpt lat="45.72901" lon="5.64493">
        <ele>303</ele>
        <time>2017-04-24T10:43:30Z</time>
      </trkpt>
      <trkpt lat="45.72905" lon="5.64486">
        <ele>303</ele>
        <time>2017-04-24T10:43:30Z</time>
      </trkpt>
      <trkpt lat="45.72907" lon="5.64479">
        <ele>303</ele>
        <time>2017-04-24T10:43:30Z</time>
      </trkpt>
      <trkpt lat="45.72909" lon="5.64473">
        <ele>303</ele>
        <time>2017-04-24T10:43:46Z</time>
      </trkpt>
      <trkpt lat="45.72912" lon="5.64464">
        <ele>303</ele>
        <time>2017-04-24T10:43:46Z</time>
      </trkpt>
      <trkpt lat="45.72914" lon="5.64458">
        <ele>308</ele>
        <time>2017-04-24T10:43:46Z</time>
      </trkpt>
      <trkpt lat="45.72916" lon="5.64448">
        <ele>308</ele>
        <time>2017-04-24T10:43:46Z</time>
      </trkpt>
      <trkpt lat="45.72916" lon="5.64438">
        <ele>308</ele>
        <time>2017-04-24T10:44:02Z</time>
      </trkpt>
      <trkpt lat="45.72918" lon="5.64431">
        <ele>308</ele>
        <time>2017-04-24T10:44:02Z</time>
      </trkpt>
      <trkpt lat="45.72917" lon="5.64422">
        <ele>308</ele>
        <time>2017-04-24T10:44:02Z</time>
      </trkpt>
      <trkpt lat="45.72914" lon="5.64415">
        <ele>308</ele>
        <time>2017-04-24T10:44:02Z</time>
      </trkpt>
      <trkpt lat="45.72912" lon="5.64407">
        <ele>308</ele>
        <time>2017-04-24T10:44:18Z</time>
      </trkpt>
      <trkpt lat="45.72905" lon="5.64401">
        <ele>308</ele>
        <time>2017-04-24T10:44:18Z</time>
      </trkpt>
      <trkpt lat="45.729" lon="5.64396">
        <ele>308</ele>
        <time>2017-04-24T10:44:18Z</time>
      </trkpt>
      <trkpt lat="45.72899" lon="5.64389">
        <ele>308</ele>
        <time>2017-04-24T10:44:18Z</time>
      </trkpt>
      <trkpt lat="45.72895" lon="5.64386">
        <ele>308</ele>
        <time>2017-04-24T10:44:34Z</time>
      </trkpt>
      <trkpt lat="45.72889" lon="5.64384">
        <ele>308</ele>
        <time>2017-04-24T10:44:34Z</time>
      </trkpt>
      <trkpt lat="45.72882" lon="5.64382">
        <ele>308</ele>
        <time>2017-04-24T10:44:34Z</time>
      </trkpt>
      <trkpt lat="45.72876" lon="5.6438">
        <ele>308</ele>
        <time>2017-04-24T10:44:34Z</time>
      </trkpt>
      <trkpt lat="45.72872" lon="5.64378">
        <ele>297</ele>
        <time>2017-04-24T10:44:50Z</time>
      </trkpt>
      <trkpt lat="45.72867" lon="5.64375">
        <ele>306</ele>
        <time>2017-04-24T10:44:50Z</time>
      </trkpt>
      <trkpt lat="45.7286" lon="5.64369">
        <ele>306</ele>
        <time>2017-04-24T10:44:50Z</time>
      </trkpt>
      <trkpt lat="45.72857" lon="5.64364">
        <ele>306</ele>
        <time>2017-04-24T10:44:50Z</time>
      </trkpt>
      <trkpt lat="45.72855" lon="5.64361">
        <ele>306</ele>
        <time>2017-04-24T10:45:06Z</time>
      </trkpt>
      <trkpt lat="45.72852" lon="5.64354">
        <ele>306</ele>
        <time>2017-04-24T10:45:06Z</time>
      </trkpt>
      <trkpt lat="45.72849" lon="5.64342">
        <ele>306</ele>
        <time>2017-04-24T10:45:06Z</time>
      </trkpt>
      <trkpt lat="45.72846" lon="5.64334">
        <ele>306</ele>
        <time>2017-04-24T10:45:06Z</time>
      </trkpt>
      <trkpt lat="45.72844" lon="5.64328">
        <ele>306</ele>
        <time>2017-04-24T10:45:22Z</time>
      </trkpt>
      <trkpt lat="45.72844" lon="5.64324">
        <ele>306</ele>
        <time>2017-04-24T10:45:22Z</time>
      </trkpt>
      <trkpt lat="45.72844" lon="5.64318">
        <ele>306</ele>
        <time>2017-04-24T10:45:22Z</time>
      </trkpt>
      <trkpt lat="45.72846" lon="5.64315">
        <ele>306</ele>
        <time>2017-04-24T10:45:22Z</time>
      </trkpt>
      <trkpt lat="45.72848" lon="5.64311">
        <ele>306</ele>
        <time>2017-04-24T10:45:38Z</time>
      </trkpt>
      <trkpt lat="45.72851" lon="5.64306">
        <ele>306</ele>
        <time>2017-04-24T10:45:38Z</time>
      </trkpt>
      <trkpt lat="45.72853" lon="5.64298">
        <ele>306</ele>
        <time>2017-04-24T10:45:38Z</time>
      </trkpt>
      <trkpt lat="45.72852" lon="5.64288">
        <ele>314</ele>
        <time>2017-04-24T10:45:38Z</time>
      </trkpt>
      <trkpt lat="45.72851" lon="5.64278">
        <ele>314</ele>
        <time>2017-04-24T10:45:54Z</time>
      </trkpt>
      <trkpt lat="45.72853" lon="5.6427">
        <ele>314</ele>
        <time>2017-04-24T10:45:54Z</time>
      </trkpt>
      <trkpt lat="45.72856" lon="5.64261">
        <ele>314</ele>
        <time>2017-04-24T10:45:54Z</time>
      </trkpt>
      <trkpt lat="45.7286" lon="5.64256">
        <ele>314</ele>
        <time>2017-04-24T10:45:54Z</time>
      </trkpt>
      <trkpt lat="45.72863" lon="5.64251">
        <ele>314</ele>
        <time>2017-04-24T10:46:10Z</time>
      </trkpt>
      <trkpt lat="45.72866" lon="5.64247">
        <ele>314</ele>
        <time>2017-04-24T10:46:10Z</time>
      </trkpt>
      <trkpt lat="45.72868" lon="5.64242">
        <ele>314</ele>
        <time>2017-04-24T10:46:10Z</time>
      </trkpt>
      <trkpt lat="45.72872" lon="5.64248">
        <ele>314</ele>
        <time>2017-04-24T10:46:10Z</time>
      </trkpt>
      <trkpt lat="45.72871" lon="5.64256">
        <ele>314</ele>
        <time>2017-04-24T10:46:26Z</time>
      </trkpt>
      <trkpt lat="45.7287" lon="5.64261">
        <ele>314</ele>
        <time>2017-04-24T10:46:26Z</time>
      </trkpt>
      <trkpt lat="45.7287" lon="5.64268">
        <ele>314</ele>
        <time>2017-04-24T10:46:26Z</time>
      </trkpt>
      <trkpt lat="45.72871" lon="5.64277">
        <ele>314</ele>
        <time>2017-04-24T10:46:26Z</time>
      </trkpt>
      <trkpt lat="45.72872" lon="5.64282">
        <ele>314</ele>
        <time>2017-04-24T10:46:42Z</time>
      </trkpt>
      <trkpt lat="45.72874" lon="5.64292">
        <ele>306</ele>
        <time>2017-04-24T10:46:42Z</time>
      </trkpt>
      <trkpt lat="45.72877" lon="5.64296">
        <ele>322</ele>
        <time>2017-04-24T10:46:42Z</time>
      </trkpt>
      <trkpt lat="45.72882" lon="5.64296">
        <ele>322</ele>
        <time>2017-04-24T10:46:42Z</time>
      </trkpt>
      <trkpt lat="45.72886" lon="5.64294">
        <ele>322</ele>
        <time>2017-04-24T10:46:58Z</time>
      </trkpt>
      <trkpt lat="45.72888" lon="5.64291">
        <ele>330</ele>
        <time>2017-04-24T10:46:58Z</time>
      </trkpt>
      <trkpt lat="45.72892" lon="5.64284">
        <ele>330</ele>
        <time>2017-04-24T10:46:58Z</time>
      </trkpt>
      <trkpt lat="45.72896" lon="5.6428">
        <ele>330</ele>
        <time>2017-04-24T10:46:58Z</time>
      </trkpt>
      <trkpt lat="45.72897" lon="5.64276">
        <ele>330</ele>
        <time>2017-04-24T10:47:14Z</time>
      </trkpt>
      <trkpt lat="45.729" lon="5.64272">
        <ele>330</ele>
        <time>2017-04-24T10:47:14Z</time>
      </trkpt>
      <trkpt lat="45.72901" lon="5.64263">
        <ele>330</ele>
        <time>2017-04-24T10:47:14Z</time>
      </trkpt>
      <trkpt lat="45.72904" lon="5.64254">
        <ele>330</ele>
        <time>2017-04-24T10:47:14Z</time>
      </trkpt>
      <trkpt lat="45.72906" lon="5.64249">
        <ele>330</ele>
        <time>2017-04-24T10:47:30Z</time>
      </trkpt>
      <trkpt lat="45.72908" lon="5.64242">
        <ele>330</ele>
        <time>2017-04-24T10:47:30Z</time>
      </trkpt>
      <trkpt lat="45.7291" lon="5.64232">
        <ele>330</ele>
        <time>2017-04-24T10:47:30Z</time>
      </trkpt>
      <trkpt lat="45.72913" lon="5.64222">
        <ele>330</ele>
        <time>2017-04-24T10:47:30Z</time>
      </trkpt>
      <trkpt lat="45.72914" lon="5.64217">
        <ele>330</ele>
        <time>2017-04-24T10:47:46Z</time>
      </trkpt>
      <trkpt lat="45.72915" lon="5.64209">
        <ele>330</ele>
        <time>2017-04-24T10:47:46Z</time>
      </trkpt>
      <trkpt lat="45.72916" lon="5.64206">
        <ele>339</ele>
        <time>2017-04-24T10:47:46Z</time>
      </trkpt>
      <trkpt lat="45.72917" lon="5.64199">
        <ele>339</ele>
        <time>2017-04-24T10:47:46Z</time>
      </trkpt>
      <trkpt lat="45.72921" lon="5.64193">
        <ele>339</ele>
        <time>2017-04-24T10:48:02Z</time>
      </trkpt>
      <trkpt lat="45.72923" lon="5.64191">
        <ele>339</ele>
        <time>2017-04-24T10:48:02Z</time>
      </trkpt>
      <trkpt lat="45.72927" lon="5.64187">
        <ele>339</ele>
        <time>2017-04-24T10:48:02Z</time>
      </trkpt>
      <trkpt lat="45.72931" lon="5.64184">
        <ele>339</ele>
        <time>2017-04-24T10:48:02Z</time>
      </trkpt>
      <trkpt lat="45.72937" lon="5.64179">
        <ele>339</ele>
        <time>2017-04-24T10:48:18Z</time>
      </trkpt>
      <trkpt lat="45.72941" lon="5.64178">
        <ele>339</ele>
        <time>2017-04-24T10:48:18Z</time>
      </trkpt>
      <trkpt lat="45.72947" lon="5.64179">
        <ele>339</ele>
        <time>2017-04-24T10:48:18Z</time>
      </trkpt>
      <trkpt lat="45.72951" lon="5.64179">
        <ele>339</ele>
        <time>2017-04-24T10:48:18Z</time>
      </trkpt>
      <trkpt lat="45.72953" lon="5.6418">
        <ele>339</ele>
        <time>2017-04-24T10:48:34Z</time>
      </trkpt>
      <trkpt lat="45.72957" lon="5.64181">
        <ele>339</ele>
        <time>2017-04-24T10:48:34Z</time>
      </trkpt>
      <trkpt lat="45.72959" lon="5.64181">
        <ele>346</ele>
        <time>2017-04-24T10:48:34Z</time>
      </trkpt>
      <trkpt lat="45.72963" lon="5.6418">
        <ele>346</ele>
        <time>2017-04-24T10:48:34Z</time>
      </trkpt>
      <trkpt lat="45.72968" lon="5.64176">
        <ele>346</ele>
        <time>2017-04-24T10:48:50Z</time>
      </trkpt>
      <trkpt lat="45.72969" lon="5.64172">
        <ele>346</ele>
        <time>2017-04-24T10:48:50Z</time>
      </trkpt>
      <trkpt lat="45.72969" lon="5.64167">
        <ele>346</ele>
        <time>2017-04-24T10:48:50Z</time>
      </trkpt>
      <trkpt lat="45.72968" lon="5.64161">
        <ele>346</ele>
        <time>2017-04-24T10:48:50Z</time>
      </trkpt>
      <trkpt lat="45.72967" lon="5.64155">
        <ele>346</ele>
        <time>2017-04-24T10:49:06Z</time>
      </trkpt>
      <trkpt lat="45.72967" lon="5.64148">
        <ele>346</ele>
        <time>2017-04-24T10:49:06Z</time>
      </trkpt>
      <trkpt lat="45.72967" lon="5.64142">
        <ele>346</ele>
        <time>2017-04-24T10:49:06Z</time>
      </trkpt>
      <trkpt lat="45.72962" lon="5.64138">
        <ele>346</ele>
        <time>2017-04-24T10:49:06Z</time>
      </trkpt>
      <trkpt lat="45.72958" lon="5.64133">
        <ele>339</ele>
        <time>2017-04-24T10:49:22Z</time>
      </trkpt>
      <trkpt lat="45.72955" lon="5.6413">
        <ele>339</ele>
        <time>2017-04-24T10:49:22Z</time>
      </trkpt>
      <trkpt lat="45.7295" lon="5.64126">
        <ele>339</ele>
        <time>2017-04-24T10:49:22Z</time>
      </trkpt>
      <trkpt lat="45.72944" lon="5.64121">
        <ele>350</ele>
        <time>2017-04-24T10:49:22Z</time>
      </trkpt>
      <trkpt lat="45.72938" lon="5.64114">
        <ele>350</ele>
        <time>2017-04-24T10:49:38Z</time>
      </trkpt>
      <trkpt lat="45.72935" lon="5.64108">
        <ele>350</ele>
        <time>2017-04-24T10:49:38Z</time>
      </trkpt>
      <trkpt lat="45.7293" lon="5.64099">
        <ele>350</ele>
        <time>2017-04-24T10:49:38Z</time>
      </trkpt>
      <trkpt lat="45.72927" lon="5.64094">
        <ele>350</ele>
        <time>2017-04-24T10:49:38Z</time>
      </trkpt>
      <trkpt lat="45.72924" lon="5.64088">
        <ele>350</ele>
        <time>2017-04-24T10:49:54Z</time>
      </trkpt>
      <trkpt lat="45.7292" lon="5.64084">
        <ele>350</ele>
        <time>2017-04-24T10:49:54Z</time>
      </trkpt>
      <trkpt lat="45.72913" lon="5.64076">
        <ele>350</ele>
        <time>2017-04-24T10:49:54Z</time>
      </trkpt>
      <trkpt lat="45.72904" lon="5.64074">
        <ele>350</ele>
        <time>2017-04-24T10:49:54Z</time>
      </trkpt>
      <trkpt lat="45.72902" lon="5.64073">
        <ele>350</ele>
        <time>2017-04-24T10:50:10Z</time>
      </trkpt>
      <trkpt lat="45.72898" lon="5.6407">
        <ele>350</ele>
        <time>2017-04-24T10:50:10Z</time>
      </trkpt>
      <trkpt lat="45.72892" lon="5.64068">
        <ele>350</ele>
        <time>2017-04-24T10:50:10Z</time>
      </trkpt>
      <trkpt lat="45.72886" lon="5.64066">
        <ele>350</ele>
        <time>2017-04-24T10:50:10Z</time>
      </trkpt>
      <trkpt lat="45.72879" lon="5.64063">
        <ele>350</ele>
        <time>2017-04-24T10:50:26Z</time>
      </trkpt>
      <trkpt lat="45.72875" lon="5.64061">
        <ele>350</ele>
        <time>2017-04-24T10:50:26Z</time>
      </trkpt>
      <trkpt lat="45.72871" lon="5.64056">
        <ele>340</ele>
        <time>2017-04-24T10:50:26Z</time>
      </trkpt>
      <trkpt lat="45.72867" lon="5.64052">
        <ele>340</ele>
        <time>2017-04-24T10:50:26Z</time>
      </trkpt>
      <trkpt lat="45.72863" lon="5.64043">
        <ele>340</ele>
        <time>2017-04-24T10:50:42Z</time>
      </trkpt>
      <trkpt lat="45.72862" lon="5.64041">
        <ele>353</ele>
        <time>2017-04-24T10:50:42Z</time>
      </trkpt>
      <trkpt lat="45.7286" lon="5.64036">
        <ele>353</ele>
        <time>2017-04-24T10:50:42Z</time>
      </trkpt>
      <trkpt lat="45.72857" lon="5.64029">
        <ele>353</ele>
        <time>2017-04-24T10:50:42Z</time>
      </trkpt>
      <trkpt lat="45.72856" lon="5.64017">
        <ele>353</ele>
        <time>2017-04-24T10:50:58Z</time>
      </trkpt>
      <trkpt lat="45.72856" lon="5.6401">
        <ele>353</ele>
        <time>2017-04-24T10:50:58Z</time>
      </trkpt>
      <trkpt lat="45.72856" lon="5.64003">
        <ele>353</ele>
        <time>2017-04-24T10:50:58Z</time>
      </trkpt>
      <trkpt lat="45.72856" lon="5.63995">
        <ele>353</ele>
        <time>2017-04-24T10:50:58Z</time>
      </trkpt>
      <trkpt lat="45.72857" lon="5.63987">
        <ele>353</ele>
        <time>2017-04-24T10:51:14Z</time>
      </trkpt>
      <trkpt lat="45.72856" lon="5.63976">
        <ele>353</ele>
        <time>2017-04-24T10:51:14Z</time>
      </trkpt>
      <trkpt lat="45.72856" lon="5.63964">
        <ele>353</ele>
        <time>2017-04-24T10:51:14Z</time>
      </trkpt>
      <trkpt lat="45.72856" lon="5.63956">
        <ele>359</ele>
        <time>2017-04-24T10:51:14Z</time>
      </trkpt>
      <trkpt lat="45.72856" lon="5.63946">
        <ele>359</ele>
        <time>2017-04-24T10:51:30Z</time>
      </trkpt>
      <trkpt lat="45.72856" lon="5.6394">
        <ele>359</ele>
        <time>2017-04-24T10:51:30Z</time>
      </trkpt>
      <trkpt lat="45.72854" lon="5.63928">
        <ele>359</ele>
        <time>2017-04-24T10:51:30Z</time>
      </trkpt>
      <trkpt lat="45.72854" lon="5.63918">
        <ele>359</ele>
        <time>2017-04-24T10:51:30Z</time>
      </trkpt>
      <trkpt lat="45.72852" lon="5.63907">
        <ele>359</ele>
        <time>2017-04-24T10:51:46Z</time>
      </trkpt>
      <trkpt lat="45.72852" lon="5.63902">
        <ele>359</ele>
        <time>2017-04-24T10:51:46Z</time>
      </trkpt>
      <trkpt lat="45.72849" lon="5.63895">
        <ele>359</ele>
        <time>2017-04-24T10:51:46Z</time>
      </trkpt>
      <trkpt lat="45.72846" lon="5.63887">
        <ele>359</ele>
        <time>2017-04-24T10:51:46Z</time>
      </trkpt>
      <trkpt lat="45.72842" lon="5.63876">
        <ele>359</ele>
        <time>2017-04-24T10:52:02Z</time>
      </trkpt>
      <trkpt lat="45.7284" lon="5.6387">
        <ele>362</ele>
        <time>2017-04-24T10:52:02Z</time>
      </trkpt>
      <trkpt lat="45.72838" lon="5.63864">
        <ele>362</ele>
        <time>2017-04-24T10:52:02Z</time>
      </trkpt>
      <trkpt lat="45.72837" lon="5.63858">
        <ele>362</ele>
        <time>2017-04-24T10:52:02Z</time>
      </trkpt>
      <trkpt lat="45.72837" lon="5.63851">
        <ele>362</ele>
        <time>2017-04-24T10:52:18Z</time>
      </trkpt>
      <trkpt lat="45.72837" lon="5.63844">
        <ele>362</ele>
        <time>2017-04-24T10:52:18Z</time>
      </trkpt>
      <trkpt lat="45.72839" lon="5.63836">
        <ele>362</ele>
        <time>2017-04-24T10:52:18Z</time>
      </trkpt>
      <trkpt lat="45.72842" lon="5.63828">
        <ele>362</ele>
        <time>2017-04-24T10:52:18Z</time>
      </trkpt>
      <trkpt lat="45.72845" lon="5.6382">
        <ele>362</ele>
        <time>2017-04-24T10:52:34Z</time>
      </trkpt>
      <trkpt lat="45.72847" lon="5.63817">
        <ele>362</ele>
        <time>2017-04-24T10:52:34Z</time>
      </trkpt>
      <trkpt lat="45.7285" lon="5.63816">
        <ele>362</ele>
        <time>2017-04-24T10:52:34Z</time>
      </trkpt>
      <trkpt lat="45.72853" lon="5.6381">
        <ele>362</ele>
        <time>2017-04-24T10:52:34Z</time>
      </trkpt>
      <trkpt lat="45.72855" lon="5.63803">
        <ele>362</ele>
        <time>2017-04-24T10:52:50Z</time>
      </trkpt>
      <trkpt lat="45.72858" lon="5.63796">
        <ele>362</ele>
        <time>2017-04-24T10:52:50Z</time>
      </trkpt>
      <trkpt lat="45.72863" lon="5.63782">
        <ele>360</ele>
        <time>2017-04-24T10:52:50Z</time>
      </trkpt>
      <trkpt lat="45.72865" lon="5.6377">
        <ele>360</ele>
        <time>2017-04-24T10:52:50Z</time>
      </trkpt>
      <trkpt lat="45.72869" lon="5.63759">
        <ele>360</ele>
        <time>2017-04-24T10:53:06Z</time>
      </trkpt>
      <trkpt lat="45.72869" lon="5.6375">
        <ele>360</ele>
        <time>2017-04-24T10:53:06Z</time>
      </trkpt>
      <trkpt lat="45.72869" lon="5.6374">
        <ele>360</ele>
        <time>2017-04-24T10:53:06Z</time>
      </trkpt>
      <trkpt lat="45.72868" lon="5.63735">
        <ele>360</ele>
        <time>2017-04-24T10:53:06Z</time>
      </trkpt>
      <trkpt lat="45.7287" lon="5.63734">
        <ele>360</ele>
        <time>2017-04-24T10:53:22Z</time>
      </trkpt>
      <trkpt lat="45.72873" lon="5.6373">
        <ele>360</ele>
        <time>2017-04-24T10:53:22Z</time>
      </trkpt>
      <trkpt lat="45.72875" lon="5.63721">
        <ele>360</ele>
        <time>2017-04-24T10:53:22Z</time>
      </trkpt>
      <trkpt lat="45.72876" lon="5.63714">
        <ele>361</ele>
        <time>2017-04-24T10:53:22Z</time>
      </trkpt>
      <trkpt lat="45.72876" lon="5.63704">
        <ele>363</ele>
        <time>2017-04-24T10:53:38Z</time>
      </trkpt>
      <trkpt lat="45.72876" lon="5.63695">
        <ele>363</ele>
        <time>2017-04-24T10:53:38Z</time>
      </trkpt>
      <trkpt lat="45.72875" lon="5.63684">
        <ele>360</ele>
        <time>2017-04-24T10:53:38Z</time>
      </trkpt>
      <trkpt lat="45.72873" lon="5.63673">
        <ele>360</ele>
        <time>2017-04-24T10:53:38Z</time>
      </trkpt>
      <trkpt lat="45.72871" lon="5.63664">
        <ele>360</ele>
        <time>2017-04-24T10:53:54Z</time>
      </trkpt>
      <trkpt lat="45.72869" lon="5.63655">
        <ele>360</ele>
        <time>2017-04-24T10:53:54Z</time>
      </trkpt>
      <trkpt lat="45.72867" lon="5.63646">
        <ele>360</ele>
        <time>2017-04-24T10:53:54Z</time>
      </trkpt>
      <trkpt lat="45.72866" lon="5.63638">
        <ele>360</ele>
        <time>2017-04-24T10:53:54Z</time>
      </trkpt>
      <trkpt lat="45.72865" lon="5.6363">
        <ele>360</ele>
        <time>2017-04-24T10:54:10Z</time>
      </trkpt>
      <trkpt lat="45.72862" lon="5.63619">
        <ele>364</ele>
        <time>2017-04-24T10:54:10Z</time>
      </trkpt>
      <trkpt lat="45.72859" lon="5.63611">
        <ele>364</ele>
        <time>2017-04-24T10:54:10Z</time>
      </trkpt>
      <trkpt lat="45.72858" lon="5.63606">
        <ele>364</ele>
        <time>2017-04-24T10:54:10Z</time>
      </trkpt>
      <trkpt lat="45.72856" lon="5.63601">
        <ele>364</ele>
        <time>2017-04-24T10:54:26Z</time>
      </trkpt>
      <trkpt lat="45.72851" lon="5.63599">
        <ele>364</ele>
        <time>2017-04-24T10:54:26Z</time>
      </trkpt>
      <trkpt lat="45.72847" lon="5.63596">
        <ele>364</ele>
        <time>2017-04-24T10:54:26Z</time>
      </trkpt>
      <trkpt lat="45.72845" lon="5.63592">
        <ele>364</ele>
        <time>2017-04-24T10:54:26Z</time>
      </trkpt>
      <trkpt lat="45.72841" lon="5.63585">
        <ele>364</ele>
        <time>2017-04-24T10:54:42Z</time>
      </trkpt>
      <trkpt lat="45.72839" lon="5.63583">
        <ele>364</ele>
        <time>2017-04-24T10:54:42Z</time>
      </trkpt>
      <trkpt lat="45.72837" lon="5.63577">
        <ele>364</ele>
        <time>2017-04-24T10:54:42Z</time>
      </trkpt>
      <trkpt lat="45.72836" lon="5.6357">
        <ele>364</ele>
        <time>2017-04-24T10:54:42Z</time>
      </trkpt>
      <trkpt lat="45.72832" lon="5.63563">
        <ele>364</ele>
        <time>2017-04-24T10:54:58Z</time>
      </trkpt>
      <trkpt lat="45.72827" lon="5.63557">
        <ele>364</ele>
        <time>2017-04-24T10:54:58Z</time>
      </trkpt>
      <trkpt lat="45.72824" lon="5.63551">
        <ele>364</ele>
        <time>2017-04-24T10:54:58Z</time>
      </trkpt>
      <trkpt lat="45.72821" lon="5.63543">
        <ele>364</ele>
        <time>2017-04-24T10:54:58Z</time>
      </trkpt>
      <trkpt lat="45.72814" lon="5.63535">
        <ele>369</ele>
        <time>2017-04-24T10:55:14Z</time>
      </trkpt>
      <trkpt lat="45.7281" lon="5.6353">
        <ele>369</ele>
        <time>2017-04-24T10:55:14Z</time>
      </trkpt>
      <trkpt lat="45.72805" lon="5.63527">
        <ele>369</ele>
        <time>2017-04-24T10:55:14Z</time>
      </trkpt>
      <trkpt lat="45.72802" lon="5.63523">
        <ele>369</ele>
        <time>2017-04-24T10:55:14Z</time>
      </trkpt>
      <trkpt lat="45.72797" lon="5.63516">
        <ele>369</ele>
        <time>2017-04-24T10:55:30Z</time>
      </trkpt>
      <trkpt lat="45.72794" lon="5.63512">
        <ele>369</ele>
        <time>2017-04-24T10:55:30Z</time>
      </trkpt>
      <trkpt lat="45.7279" lon="5.63507">
        <ele>364</ele>
        <time>2017-04-24T10:55:30Z</time>
      </trkpt>
      <trkpt lat="45.72783" lon="5.63504">
        <ele>364</ele>
        <time>2017-04-24T10:55:30Z</time>
      </trkpt>
      <trkpt lat="45.72775" lon="5.63504">
        <ele>364</ele>
        <time>2017-04-24T10:55:46Z</time>
      </trkpt>
      <trkpt lat="45.72769" lon="5.63502">
        <ele>364</ele>
        <time>2017-04-24T10:55:46Z</time>
      </trkpt>
      <trkpt lat="45.72764" lon="5.63501">
        <ele>364</ele>
        <time>2017-04-24T10:55:46Z</time>
      </trkpt>
      <trkpt lat="45.7276" lon="5.63499">
        <ele>364</ele>
        <time>2017-04-24T10:55:46Z</time>
      </trkpt>
      <trkpt lat="45.72754" lon="5.63496">
        <ele>364</ele>
        <time>2017-04-24T10:56:02Z</time>
      </trkpt>
      <trkpt lat="45.72749" lon="5.63494">
        <ele>364</ele>
        <time>2017-04-24T10:56:02Z</time>
      </trkpt>
      <trkpt lat="45.72742" lon="5.63496">
        <ele>364</ele>
        <time>2017-04-24T10:56:02Z</time>
      </trkpt>
      <trkpt lat="45.72734" lon="5.63498">
        <ele>364</ele>
        <time>2017-04-24T10:56:02Z</time>
      </trkpt>
      <trkpt lat="45.7273" lon="5.63496">
        <ele>364</ele>
        <time>2017-04-24T10:56:18Z</time>
      </trkpt>
      <trkpt lat="45.72721" lon="5.63499">
        <ele>364</ele>
        <time>2017-04-24T10:56:18Z</time>
      </trkpt>
      <trkpt lat="45.72715" lon="5.63502">
        <ele>364</ele>
        <time>2017-04-24T10:56:18Z</time>
      </trkpt>
      <trkpt lat="45.72708" lon="5.63502">
        <ele>359</ele>
        <time>2017-04-24T10:56:18Z</time>
      </trkpt>
      <trkpt lat="45.72704" lon="5.63502">
        <ele>359</ele>
        <time>2017-04-24T10:56:34Z</time>
      </trkpt>
      <trkpt lat="45.72698" lon="5.63502">
        <ele>359</ele>
        <time>2017-04-24T10:56:34Z</time>
      </trkpt>
      <trkpt lat="45.72692" lon="5.63506">
        <ele>359</ele>
        <time>2017-04-24T10:56:34Z</time>
      </trkpt>
      <trkpt lat="45.72681" lon="5.63505">
        <ele>359</ele>
        <time>2017-04-24T10:56:34Z</time>
      </trkpt>
      <trkpt lat="45.72674" lon="5.63499">
        <ele>359</ele>
        <time>2017-04-24T10:56:50Z</time>
      </trkpt>
      <trkpt lat="45.72669" lon="5.63496">
        <ele>359</ele>
        <time>2017-04-24T10:56:50Z</time>
      </trkpt>
      <trkpt lat="45.72667" lon="5.63497">
        <ele>359</ele>
        <time>2017-04-24T10:56:50Z</time>
      </trkpt>
      <trkpt lat="45.72662" lon="5.635">
        <ele>359</ele>
        <time>2017-04-24T10:56:50Z</time>
      </trkpt>
      <trkpt lat="45.72658" lon="5.63498">
        <ele>359</ele>
        <time>2017-04-24T10:57:06Z</time>
      </trkpt>
      <trkpt lat="45.72653" lon="5.63497">
        <ele>359</ele>
        <time>2017-04-24T10:57:06Z</time>
      </trkpt>
      <trkpt lat="45.72647" lon="5.63495">
        <ele>359</ele>
        <time>2017-04-24T10:57:06Z</time>
      </trkpt>
      <trkpt lat="45.72646" lon="5.63483">
        <ele>359</ele>
        <time>2017-04-24T10:57:06Z</time>
      </trkpt>
      <trkpt lat="45.7264" lon="5.63473">
        <ele>359</ele>
        <time>2017-04-24T10:57:22Z</time>
      </trkpt>
      <trkpt lat="45.72633" lon="5.63478">
        <ele>359</ele>
        <time>2017-04-24T10:57:22Z</time>
      </trkpt>
      <trkpt lat="45.72627" lon="5.63484">
        <ele>359</ele>
        <time>2017-04-24T10:57:22Z</time>
      </trkpt>
      <trkpt lat="45.72624" lon="5.6348">
        <ele>357</ele>
        <time>2017-04-24T10:57:22Z</time>
      </trkpt>
      <trkpt lat="45.72621" lon="5.63479">
        <ele>357</ele>
        <time>2017-04-24T10:57:38Z</time>
      </trkpt>
      <trkpt lat="45.72616" lon="5.63482">
        <ele>357</ele>
        <time>2017-04-24T10:57:38Z</time>
      </trkpt>
      <trkpt lat="45.72611" lon="5.63485">
        <ele>357</ele>
        <time>2017-04-24T10:57:38Z</time>
      </trkpt>
      <trkpt lat="45.72606" lon="5.63489">
        <ele>357</ele>
        <time>2017-04-24T10:57:38Z</time>
      </trkpt>
      <trkpt lat="45.72603" lon="5.63491">
        <ele>357</ele>
        <time>2017-04-24T10:57:54Z</time>
      </trkpt>
      <trkpt lat="45.72594" lon="5.635">
        <ele>357</ele>
        <time>2017-04-24T10:57:54Z</time>
      </trkpt>
      <trkpt lat="45.72588" lon="5.63503">
        <ele>357</ele>
        <time>2017-04-24T10:57:54Z</time>
      </trkpt>
      <trkpt lat="45.72583" lon="5.63503">
        <ele>357</ele>
        <time>2017-04-24T10:57:54Z</time>
      </trkpt>
      <trkpt lat="45.72576" lon="5.63506">
        <ele>357</ele>
        <time>2017-04-24T10:58:10Z</time>
      </trkpt>
      <trkpt lat="45.72572" lon="5.6351">
        <ele>357</ele>
        <time>2017-04-24T10:58:10Z</time>
      </trkpt>
      <trkpt lat="45.72563" lon="5.63514">
        <ele>357</ele>
        <time>2017-04-24T10:58:10Z</time>
      </trkpt>
      <trkpt lat="45.72559" lon="5.63516">
        <ele>357</ele>
        <time>2017-04-24T10:58:10Z</time>
      </trkpt>
      <trkpt lat="45.72552" lon="5.63518">
        <ele>357</ele>
        <time>2017-04-24T10:58:26Z</time>
      </trkpt>
      <trkpt lat="45.72546" lon="5.63516">
        <ele>357</ele>
        <time>2017-04-24T10:58:26Z</time>
      </trkpt>
      <trkpt lat="45.7254" lon="5.63517">
        <ele>360</ele>
        <time>2017-04-24T10:58:26Z</time>
      </trkpt>
      <trkpt lat="45.72533" lon="5.63518">
        <ele>360</ele>
        <time>2017-04-24T10:58:26Z</time>
      </trkpt>
      <trkpt lat="45.72527" lon="5.63519">
        <ele>360</ele>
        <time>2017-04-24T10:58:42Z</time>
      </trkpt>
      <trkpt lat="45.72523" lon="5.63519">
        <ele>360</ele>
        <time>2017-04-24T10:58:42Z</time>
      </trkpt>
      <trkpt lat="45.72519" lon="5.63517">
        <ele>360</ele>
        <time>2017-04-24T10:58:42Z</time>
      </trkpt>
      <trkpt lat="45.72516" lon="5.63516">
        <ele>360</ele>
        <time>2017-04-24T10:58:42Z</time>
      </trkpt>
      <trkpt lat="45.72512" lon="5.63515">
        <ele>360</ele>
        <time>2017-04-24T10:58:58Z</time>
      </trkpt>
      <trkpt lat="45.72509" lon="5.63515">
        <ele>360</ele>
        <time>2017-04-24T10:58:58Z</time>
      </trkpt>
      <trkpt lat="45.72505" lon="5.63515">
        <ele>360</ele>
        <time>2017-04-24T10:58:58Z</time>
      </trkpt>
      <trkpt lat="45.72501" lon="5.63516">
        <ele>360</ele>
        <time>2017-04-24T10:58:58Z</time>
      </trkpt>
      <trkpt lat="45.72495" lon="5.6352">
        <ele>360</ele>
        <time>2017-04-24T10:59:14Z</time>
      </trkpt>
      <trkpt lat="45.7249" lon="5.6352">
        <ele>360</ele>
        <time>2017-04-24T10:59:14Z</time>
      </trkpt>
      <trkpt lat="45.72481" lon="5.63522">
        <ele>360</ele>
        <time>2017-04-24T10:59:14Z</time>
      </trkpt>
      <trkpt lat="45.72475" lon="5.63526">
        <ele>360</ele>
        <time>2017-04-24T10:59:14Z</time>
      </trkpt>
      <trkpt lat="45.72472" lon="5.63526">
        <ele>360</ele>
        <time>2017-04-24T10:59:30Z</time>
      </trkpt>
      <trkpt lat="45.72467" lon="5.63529">
        <ele>360</ele>
        <time>2017-04-24T10:59:30Z</time>
      </trkpt>
      <trkpt lat="45.72462" lon="5.63532">
        <ele>360</ele>
        <time>2017-04-24T10:59:30Z</time>
      </trkpt>
      <trkpt lat="45.72457" lon="5.63533">
        <ele>355</ele>
        <time>2017-04-24T10:59:30Z</time>
      </trkpt>
      <trkpt lat="45.72451" lon="5.63531">
        <ele>355</ele>
        <time>2017-04-24T10:59:46Z</time>
      </trkpt>
      <trkpt lat="45.72447" lon="5.63531">
        <ele>355</ele>
        <time>2017-04-24T10:59:46Z</time>
      </trkpt>
      <trkpt lat="45.7244" lon="5.63534">
        <ele>355</ele>
        <time>2017-04-24T10:59:46Z</time>
      </trkpt>
      <trkpt lat="45.72429" lon="5.63537">
        <ele>355</ele>
        <time>2017-04-24T10:59:46Z</time>
      </trkpt>
      <trkpt lat="45.72421" lon="5.63539">
        <ele>355</ele>
        <time>2017-04-24T11:00:02Z</time>
      </trkpt>
      <trkpt lat="45.72415" lon="5.6353">
        <ele>355</ele>
        <time>2017-04-24T11:00:02Z</time>
      </trkpt>
      <trkpt lat="45.72406" lon="5.63532">
        <ele>355</ele>
        <time>2017-04-24T11:00:02Z</time>
      </trkpt>
      <trkpt lat="45.72401" lon="5.6354">
        <ele>355</ele>
        <time>2017-04-24T11:00:02Z</time>
      </trkpt>
      <trkpt lat="45.72396" lon="5.63544">
        <ele>369</ele>
        <time>2017-04-24T11:00:18Z</time>
      </trkpt>
      <trkpt lat="45.72389" lon="5.63549">
        <ele>369</ele>
        <time>2017-04-24T11:00:18Z</time>
      </trkpt>
      <trkpt lat="45.72384" lon="5.63546">
        <ele>369</ele>
        <time>2017-04-24T11:00:18Z</time>
      </trkpt>
      <trkpt lat="45.72377" lon="5.63545">
        <ele>369</ele>
        <time>2017-04-24T11:00:18Z</time>
      </trkpt>
      <trkpt lat="45.72366" lon="5.63544">
        <ele>365</ele>
        <time>2017-04-24T11:00:34Z</time>
      </trkpt>
      <trkpt lat="45.72363" lon="5.63543">
        <ele>365</ele>
        <time>2017-04-24T11:00:34Z</time>
      </trkpt>
      <trkpt lat="45.72353" lon="5.63541">
        <ele>353</ele>
        <time>2017-04-24T11:00:34Z</time>
      </trkpt>
      <trkpt lat="45.72345" lon="5.63541">
        <ele>353</ele>
        <time>2017-04-24T11:00:34Z</time>
      </trkpt>
      <trkpt lat="45.72343" lon="5.6354">
        <ele>353</ele>
        <time>2017-04-24T11:00:50Z</time>
      </trkpt>
      <trkpt lat="45.72337" lon="5.63543">
        <ele>365</ele>
        <time>2017-04-24T11:00:50Z</time>
      </trkpt>
      <trkpt lat="45.72332" lon="5.63549">
        <ele>365</ele>
        <time>2017-04-24T11:00:50Z</time>
      </trkpt>
      <trkpt lat="45.72329" lon="5.63548">
        <ele>365</ele>
        <time>2017-04-24T11:00:50Z</time>
      </trkpt>
      <trkpt lat="45.72321" lon="5.63552">
        <ele>365</ele>
        <time>2017-04-24T11:01:06Z</time>
      </trkpt>
      <trkpt lat="45.72318" lon="5.63556">
        <ele>365</ele>
        <time>2017-04-24T11:01:06Z</time>
      </trkpt>
      <trkpt lat="45.72313" lon="5.63559">
        <ele>365</ele>
        <time>2017-04-24T11:01:06Z</time>
      </trkpt>
      <trkpt lat="45.72308" lon="5.63563">
        <ele>365</ele>
        <time>2017-04-24T11:01:06Z</time>
      </trkpt>
      <trkpt lat="45.72304" lon="5.63565">
        <ele>365</ele>
        <time>2017-04-24T11:01:22Z</time>
      </trkpt>
      <trkpt lat="45.72302" lon="5.63566">
        <ele>365</ele>
        <time>2017-04-24T11:01:22Z</time>
      </trkpt>
      <trkpt lat="45.723" lon="5.63569">
        <ele>365</ele>
        <time>2017-04-24T11:01:22Z</time>
      </trkpt>
      <trkpt lat="45.72296" lon="5.63572">
        <ele>365</ele>
        <time>2017-04-24T11:01:22Z</time>
      </trkpt>
      <trkpt lat="45.72291" lon="5.63573">
        <ele>362</ele>
        <time>2017-04-24T11:01:38Z</time>
      </trkpt>
      <trkpt lat="45.72285" lon="5.63581">
        <ele>362</ele>
        <time>2017-04-24T11:01:38Z</time>
      </trkpt>
      <trkpt lat="45.72281" lon="5.63587">
        <ele>362</ele>
        <time>2017-04-24T11:01:38Z</time>
      </trkpt>
      <trkpt lat="45.7228" lon="5.63588">
        <ele>362</ele>
        <time>2017-04-24T11:01:38Z</time>
      </trkpt>
      <trkpt lat="45.72279" lon="5.63589">
        <ele>362</ele>
        <time>2017-04-24T11:01:54Z</time>
      </trkpt>
      <trkpt lat="45.72278" lon="5.6359">
        <ele>362</ele>
        <time>2017-04-24T11:01:54Z</time>
      </trkpt>
      <trkpt lat="45.72277" lon="5.63595">
        <ele>362</ele>
        <time>2017-04-24T11:01:54Z</time>
      </trkpt>
      <trkpt lat="45.72275" lon="5.63602">
        <ele>362</ele>
        <time>2017-04-24T11:01:54Z</time>
      </trkpt>
      <trkpt lat="45.72267" lon="5.63619">
        <ele>362</ele>
        <time>2017-04-24T11:02:10Z</time>
      </trkpt>
      <trkpt lat="45.72264" lon="5.63625">
        <ele>365</ele>
        <time>2017-04-24T11:02:10Z</time>
      </trkpt>
      <trkpt lat="45.72262" lon="5.6363">
        <ele>365</ele>
        <time>2017-04-24T11:02:10Z</time>
      </trkpt>
      <trkpt lat="45.72259" lon="5.63635">
        <ele>365</ele>
        <time>2017-04-24T11:02:10Z</time>
      </trkpt>
      <trkpt lat="45.7225" lon="5.63647">
        <ele>365</ele>
        <time>2017-04-24T11:02:26Z</time>
      </trkpt>
      <trkpt lat="45.72247" lon="5.6365">
        <ele>365</ele>
        <time>2017-04-24T11:02:26Z</time>
      </trkpt>
      <trkpt lat="45.72241" lon="5.63658">
        <ele>365</ele>
        <time>2017-04-24T11:02:26Z</time>
      </trkpt>
      <trkpt lat="45.72238" lon="5.63661">
        <ele>365</ele>
        <time>2017-04-24T11:02:26Z</time>
      </trkpt>
      <trkpt lat="45.72236" lon="5.63665">
        <ele>365</ele>
        <time>2017-04-24T11:02:42Z</time>
      </trkpt>
      <trkpt lat="45.72235" lon="5.63666">
        <ele>365</ele>
        <time>2017-04-24T11:02:42Z</time>
      </trkpt>
      <trkpt lat="45.72233" lon="5.63673">
        <ele>365</ele>
        <time>2017-04-24T11:02:42Z</time>
      </trkpt>
      <trkpt lat="45.7223" lon="5.63681">
        <ele>365</ele>
        <time>2017-04-24T11:02:42Z</time>
      </trkpt>
      <trkpt lat="45.72223" lon="5.63692">
        <ele>365</ele>
        <time>2017-04-24T11:02:58Z</time>
      </trkpt>
      <trkpt lat="45.72217" lon="5.63697">
        <ele>365</ele>
        <time>2017-04-24T11:02:58Z</time>
      </trkpt>
      <trkpt lat="45.72205" lon="5.63703">
        <ele>364</ele>
        <time>2017-04-24T11:02:58Z</time>
      </trkpt>
      <trkpt lat="45.72196" lon="5.63706">
        <ele>364</ele>
        <time>2017-04-24T11:02:58Z</time>
      </trkpt>
      <trkpt lat="45.7218" lon="5.63713">
        <ele>364</ele>
        <time>2017-04-24T11:03:14Z</time>
      </trkpt>
      <trkpt lat="45.72168" lon="5.6372">
        <ele>364</ele>
        <time>2017-04-24T11:03:14Z</time>
      </trkpt>
      <trkpt lat="45.7215" lon="5.63728">
        <ele>364</ele>
        <time>2017-04-24T11:03:14Z</time>
      </trkpt>
      <trkpt lat="45.72141" lon="5.63733">
        <ele>364</ele>
        <time>2017-04-24T11:03:14Z</time>
      </trkpt>
      <trkpt lat="45.72125" lon="5.63745">
        <ele>364</ele>
        <time>2017-04-24T11:03:30Z</time>
      </trkpt>
      <trkpt lat="45.7211" lon="5.63757">
        <ele>362</ele>
        <time>2017-04-24T11:03:30Z</time>
      </trkpt>
      <trkpt lat="45.72098" lon="5.63767">
        <ele>362</ele>
        <time>2017-04-24T11:03:30Z</time>
      </trkpt>
      <trkpt lat="45.72092" lon="5.63773">
        <ele>362</ele>
        <time>2017-04-24T11:03:30Z</time>
      </trkpt>
      <trkpt lat="45.7208" lon="5.6378">
        <ele>362</ele>
        <time>2017-04-24T11:03:46Z</time>
      </trkpt>
      <trkpt lat="45.72074" lon="5.63784">
        <ele>362</ele>
        <time>2017-04-24T11:03:46Z</time>
      </trkpt>
      <trkpt lat="45.72062" lon="5.63792">
        <ele>366</ele>
        <time>2017-04-24T11:03:46Z</time>
      </trkpt>
      <trkpt lat="45.72054" lon="5.63798">
        <ele>366</ele>
        <time>2017-04-24T11:03:46Z</time>
      </trkpt>
      <trkpt lat="45.72039" lon="5.63808">
        <ele>364</ele>
        <time>2017-04-24T11:04:02Z</time>
      </trkpt>
      <trkpt lat="45.72029" lon="5.63817">
        <ele>364</ele>
        <time>2017-04-24T11:04:02Z</time>
      </trkpt>
      <trkpt lat="45.72014" lon="5.63832">
        <ele>364</ele>
        <time>2017-04-24T11:04:02Z</time>
      </trkpt>
      <trkpt lat="45.72002" lon="5.63849">
        <ele>364</ele>
        <time>2017-04-24T11:04:02Z</time>
      </trkpt>
      <trkpt lat="45.71997" lon="5.63852">
        <ele>364</ele>
        <time>2017-04-24T11:04:18Z</time>
      </trkpt>
      <trkpt lat="45.71995" lon="5.63851">
        <ele>364</ele>
        <time>2017-04-24T11:04:18Z</time>
      </trkpt>
      <trkpt lat="45.71988" lon="5.63853">
        <ele>364</ele>
        <time>2017-04-24T11:04:18Z</time>
      </trkpt>
      <trkpt lat="45.7198" lon="5.63854">
        <ele>364</ele>
        <time>2017-04-24T11:04:18Z</time>
      </trkpt>
      <trkpt lat="45.71972" lon="5.63859">
        <ele>364</ele>
        <time>2017-04-24T11:04:34Z</time>
      </trkpt>
      <trkpt lat="45.71966" lon="5.63861">
        <ele>364</ele>
        <time>2017-04-24T11:04:34Z</time>
      </trkpt>
      <trkpt lat="45.71954" lon="5.63862">
        <ele>363</ele>
        <time>2017-04-24T11:04:34Z</time>
      </trkpt>
      <trkpt lat="45.71945" lon="5.63865">
        <ele>363</ele>
        <time>2017-04-24T11:04:34Z</time>
      </trkpt>
      <trkpt lat="45.71929" lon="5.6387">
        <ele>363</ele>
        <time>2017-04-24T11:04:50Z</time>
      </trkpt>
      <trkpt lat="45.7192" lon="5.63878">
        <ele>373</ele>
        <time>2017-04-24T11:04:50Z</time>
      </trkpt>
      <trkpt lat="45.71903" lon="5.63884">
        <ele>373</ele>
        <time>2017-04-24T11:04:50Z</time>
      </trkpt>
      <trkpt lat="45.71895" lon="5.63889">
        <ele>373</ele>
        <time>2017-04-24T11:04:50Z</time>
      </trkpt>
      <trkpt lat="45.71883" lon="5.63894">
        <ele>373</ele>
        <time>2017-04-24T11:05:06Z</time>
      </trkpt>
      <trkpt lat="45.71876" lon="5.63893">
        <ele>373</ele>
        <time>2017-04-24T11:05:06Z</time>
      </trkpt>
      <trkpt lat="45.71867" lon="5.63887">
        <ele>366</ele>
        <time>2017-04-24T11:05:06Z</time>
      </trkpt>
      <trkpt lat="45.71864" lon="5.63886">
        <ele>366</ele>
        <time>2017-04-24T11:05:06Z</time>
      </trkpt>
      <trkpt lat="45.71858" lon="5.63883">
        <ele>366</ele>
        <time>2017-04-24T11:05:22Z</time>
      </trkpt>
      <trkpt lat="45.71848" lon="5.63889">
        <ele>366</ele>
        <time>2017-04-24T11:05:22Z</time>
      </trkpt>
      <trkpt lat="45.71843" lon="5.63895">
        <ele>366</ele>
        <time>2017-04-24T11:05:22Z</time>
      </trkpt>
      <trkpt lat="45.71837" lon="5.63901">
        <ele>366</ele>
        <time>2017-04-24T11:05:22Z</time>
      </trkpt>
      <trkpt lat="45.71832" lon="5.63909">
        <ele>366</ele>
        <time>2017-04-24T11:05:38Z</time>
      </trkpt>
      <trkpt lat="45.71828" lon="5.63917">
        <ele>366</ele>
        <time>2017-04-24T11:05:38Z</time>
      </trkpt>
      <trkpt lat="45.71823" lon="5.63923">
        <ele>366</ele>
        <time>2017-04-24T11:05:38Z</time>
      </trkpt>
      <trkpt lat="45.71819" lon="5.63927">
        <ele>366</ele>
        <time>2017-04-24T11:05:38Z</time>
      </trkpt>
      <trkpt lat="45.71817" lon="5.63934">
        <ele>366</ele>
        <time>2017-04-24T11:05:54Z</time>
      </trkpt>
      <trkpt lat="45.71816" lon="5.63935">
        <ele>366</ele>
        <time>2017-04-24T11:05:54Z</time>
      </trkpt>
      <trkpt lat="45.71812" lon="5.6394">
        <ele>366</ele>
        <time>2017-04-24T11:05:54Z</time>
      </trkpt>
      <trkpt lat="45.71809" lon="5.63947">
        <ele>366</ele>
        <time>2017-04-24T11:05:54Z</time>
      </trkpt>
      <trkpt lat="45.71806" lon="5.63959">
        <ele>374</ele>
        <time>2017-04-24T11:06:10Z</time>
      </trkpt>
      <trkpt lat="45.71804" lon="5.63967">
        <ele>374</ele>
        <time>2017-04-24T11:06:10Z</time>
      </trkpt>
      <trkpt lat="45.71798" lon="5.63975">
        <ele>374</ele>
        <time>2017-04-24T11:06:10Z</time>
      </trkpt>
      <trkpt lat="45.71798" lon="5.63979">
        <ele>374</ele>
        <time>2017-04-24T11:06:10Z</time>
      </trkpt>
      <trkpt lat="45.71797" lon="5.63985">
        <ele>374</ele>
        <time>2017-04-24T11:06:26Z</time>
      </trkpt>
      <trkpt lat="45.71796" lon="5.6399">
        <ele>374</ele>
        <time>2017-04-24T11:06:26Z</time>
      </trkpt>
      <trkpt lat="45.71791" lon="5.64">
        <ele>358</ele>
        <time>2017-04-24T11:06:26Z</time>
      </trkpt>
      <trkpt lat="45.7179" lon="5.64002">
        <ele>358</ele>
        <time>2017-04-24T11:06:26Z</time>
      </trkpt>
      <trkpt lat="45.71789" lon="5.64008">
        <ele>358</ele>
        <time>2017-04-24T11:06:42Z</time>
      </trkpt>
      <trkpt lat="45.71787" lon="5.64012">
        <ele>358</ele>
        <time>2017-04-24T11:06:42Z</time>
      </trkpt>
      <trkpt lat="45.71785" lon="5.64021">
        <ele>358</ele>
        <time>2017-04-24T11:06:42Z</time>
      </trkpt>
      <trkpt lat="45.71784" lon="5.64027">
        <ele>358</ele>
        <time>2017-04-24T11:06:42Z</time>
      </trkpt>
      <trkpt lat="45.71783" lon="5.64038">
        <ele>358</ele>
        <time>2017-04-24T11:06:58Z</time>
      </trkpt>
      <trkpt lat="45.71782" lon="5.64045">
        <ele>359</ele>
        <time>2017-04-24T11:06:58Z</time>
      </trkpt>
      <trkpt lat="45.71779" lon="5.64055">
        <ele>359</ele>
        <time>2017-04-24T11:06:58Z</time>
      </trkpt>
      <trkpt lat="45.71777" lon="5.64063">
        <ele>359</ele>
        <time>2017-04-24T11:06:58Z</time>
      </trkpt>
      <trkpt lat="45.71775" lon="5.64073">
        <ele>359</ele>
        <time>2017-04-24T11:07:14Z</time>
      </trkpt>
      <trkpt lat="45.71773" lon="5.64078">
        <ele>359</ele>
        <time>2017-04-24T11:07:14Z</time>
      </trkpt>
      <trkpt lat="45.7177" lon="5.64084">
        <ele>359</ele>
        <time>2017-04-24T11:07:14Z</time>
      </trkpt>
      <trkpt lat="45.71768" lon="5.64088">
        <ele>359</ele>
        <time>2017-04-24T11:07:14Z</time>
      </trkpt>
      <trkpt lat="45.71764" lon="5.64096">
        <ele>359</ele>
        <time>2017-04-24T11:07:30Z</time>
      </trkpt>
      <trkpt lat="45.71761" lon="5.64102">
        <ele>359</ele>
        <time>2017-04-24T11:07:30Z</time>
      </trkpt>
      <trkpt lat="45.71758" lon="5.64111">
        <ele>359</ele>
        <time>2017-04-24T11:07:30Z</time>
      </trkpt>
      <trkpt lat="45.71757" lon="5.64117">
        <ele>359</ele>
        <time>2017-04-24T11:07:30Z</time>
      </trkpt>
      <trkpt lat="45.71753" lon="5.64127">
        <ele>360</ele>
        <time>2017-04-24T11:07:46Z</time>
      </trkpt>
      <trkpt lat="45.71749" lon="5.64137">
        <ele>360</ele>
        <time>2017-04-24T11:07:46Z</time>
      </trkpt>
      <trkpt lat="45.71747" lon="5.64141">
        <ele>360</ele>
        <time>2017-04-24T11:07:46Z</time>
      </trkpt>
      <trkpt lat="45.71745" lon="5.64146">
        <ele>360</ele>
        <time>2017-04-24T11:07:46Z</time>
      </trkpt>
      <trkpt lat="45.71741" lon="5.64154">
        <ele>360</ele>
        <time>2017-04-24T11:08:02Z</time>
      </trkpt>
      <trkpt lat="45.71736" lon="5.64165">
        <ele>360</ele>
        <time>2017-04-24T11:08:02Z</time>
      </trkpt>
      <trkpt lat="45.71728" lon="5.64181">
        <ele>360</ele>
        <time>2017-04-24T11:08:02Z</time>
      </trkpt>
      <trkpt lat="45.71722" lon="5.64193">
        <ele>360</ele>
        <time>2017-04-24T11:08:02Z</time>
      </trkpt>
      <trkpt lat="45.71716" lon="5.64199">
        <ele>360</ele>
        <time>2017-04-24T11:08:18Z</time>
      </trkpt>
      <trkpt lat="45.71709" lon="5.64205">
        <ele>360</ele>
        <time>2017-04-24T11:08:18Z</time>
      </trkpt>
      <trkpt lat="45.71703" lon="5.64209">
        <ele>352</ele>
        <time>2017-04-24T11:08:18Z</time>
      </trkpt>
      <trkpt lat="45.71695" lon="5.64214">
        <ele>352</ele>
        <time>2017-04-24T11:08:18Z</time>
      </trkpt>
      <trkpt lat="45.71689" lon="5.64218">
        <ele>352</ele>
        <time>2017-04-24T11:08:34Z</time>
      </trkpt>
      <trkpt lat="45.7168" lon="5.64223">
        <ele>352</ele>
        <time>2017-04-24T11:08:34Z</time>
      </trkpt>
      <trkpt lat="45.71675" lon="5.64224">
        <ele>352</ele>
        <time>2017-04-24T11:08:34Z</time>
      </trkpt>
      <trkpt lat="45.71667" lon="5.64226">
        <ele>352</ele>
        <time>2017-04-24T11:08:34Z</time>
      </trkpt>
      <trkpt lat="45.71662" lon="5.64226">
        <ele>352</ele>
        <time>2017-04-24T11:08:50Z</time>
      </trkpt>
      <trkpt lat="45.71656" lon="5.64227">
        <ele>352</ele>
        <time>2017-04-24T11:08:50Z</time>
      </trkpt>
      <trkpt lat="45.71649" lon="5.6423">
        <ele>352</ele>
        <time>2017-04-24T11:08:50Z</time>
      </trkpt>
      <trkpt lat="45.71643" lon="5.64229">
        <ele>352</ele>
        <time>2017-04-24T11:08:50Z</time>
      </trkpt>
      <trkpt lat="45.71639" lon="5.64229">
        <ele>352</ele>
        <time>2017-04-24T11:09:06Z</time>
      </trkpt>
      <trkpt lat="45.71636" lon="5.64228">
        <ele>352</ele>
        <time>2017-04-24T11:09:06Z</time>
      </trkpt>
      <trkpt lat="45.71631" lon="5.64227">
        <ele>352</ele>
        <time>2017-04-24T11:09:06Z</time>
      </trkpt>
      <trkpt lat="45.71622" lon="5.64228">
        <ele>344</ele>
        <time>2017-04-24T11:09:06Z</time>
      </trkpt>
      <trkpt lat="45.71615" lon="5.64227">
        <ele>344</ele>
        <time>2017-04-24T11:09:22Z</time>
      </trkpt>
      <trkpt lat="45.7161" lon="5.64227">
        <ele>344</ele>
        <time>2017-04-24T11:09:22Z</time>
      </trkpt>
      <trkpt lat="45.71595" lon="5.64218">
        <ele>344</ele>
        <time>2017-04-24T11:09:22Z</time>
      </trkpt>
      <trkpt lat="45.71587" lon="5.6423">
        <ele>344</ele>
        <time>2017-04-24T11:09:22Z</time>
      </trkpt>
      <trkpt lat="45.71583" lon="5.6423">
        <ele>344</ele>
        <time>2017-04-24T11:09:38Z</time>
      </trkpt>
      <trkpt lat="45.71582" lon="5.64225">
        <ele>344</ele>
        <time>2017-04-24T11:09:38Z</time>
      </trkpt>
      <trkpt lat="45.71575" lon="5.64223">
        <ele>344</ele>
        <time>2017-04-24T11:09:38Z</time>
      </trkpt>
      <trkpt lat="45.71572" lon="5.64216">
        <ele>344</ele>
        <time>2017-04-24T11:09:38Z</time>
      </trkpt>
      <trkpt lat="45.71573" lon="5.64212">
        <ele>344</ele>
        <time>2017-04-24T11:09:54Z</time>
      </trkpt>
      <trkpt lat="45.71572" lon="5.64209">
        <ele>344</ele>
        <time>2017-04-24T11:09:54Z</time>
      </trkpt>
      <trkpt lat="45.71569" lon="5.64211">
        <ele>344</ele>
        <time>2017-04-24T11:09:54Z</time>
      </trkpt>
      <trkpt lat="45.71563" lon="5.6421">
        <ele>344</ele>
        <time>2017-04-24T11:09:54Z</time>
      </trkpt>
      <trkpt lat="45.71555" lon="5.64208">
        <ele>350</ele>
        <time>2017-04-24T11:10:10Z</time>
      </trkpt>
      <trkpt lat="45.71547" lon="5.64207">
        <ele>350</ele>
        <time>2017-04-24T11:10:10Z</time>
      </trkpt>
      <trkpt lat="45.7154" lon="5.64206">
        <ele>347</ele>
        <time>2017-04-24T11:10:10Z</time>
      </trkpt>
      <trkpt lat="45.71531" lon="5.64203">
        <ele>347</ele>
        <time>2017-04-24T11:10:10Z</time>
      </trkpt>
      <trkpt lat="45.71526" lon="5.64199">
        <ele>347</ele>
        <time>2017-04-24T11:10:26Z</time>
      </trkpt>
      <trkpt lat="45.7152" lon="5.64196">
        <ele>347</ele>
        <time>2017-04-24T11:10:26Z</time>
      </trkpt>
      <trkpt lat="45.71515" lon="5.64193">
        <ele>347</ele>
        <time>2017-04-24T11:10:26Z</time>
      </trkpt>
      <trkpt lat="45.7151" lon="5.64189">
        <ele>347</ele>
        <time>2017-04-24T11:10:26Z</time>
      </trkpt>
      <trkpt lat="45.71502" lon="5.64187">
        <ele>347</ele>
        <time>2017-04-24T11:10:42Z</time>
      </trkpt>
      <trkpt lat="45.71498" lon="5.64187">
        <ele>347</ele>
        <time>2017-04-24T11:10:42Z</time>
      </trkpt>
      <trkpt lat="45.71493" lon="5.64188">
        <ele>347</ele>
        <time>2017-04-24T11:10:42Z</time>
      </trkpt>
      <trkpt lat="45.71486" lon="5.6419">
        <ele>347</ele>
        <time>2017-04-24T11:10:42Z</time>
      </trkpt>
      <trkpt lat="45.71482" lon="5.64192">
        <ele>347</ele>
        <time>2017-04-24T11:10:58Z</time>
      </trkpt>
      <trkpt lat="45.71474" lon="5.64195">
        <ele>347</ele>
        <time>2017-04-24T11:10:58Z</time>
      </trkpt>
      <trkpt lat="45.71467" lon="5.64197">
        <ele>347</ele>
        <time>2017-04-24T11:10:58Z</time>
      </trkpt>
      <trkpt lat="45.71458" lon="5.642">
        <ele>350</ele>
        <time>2017-04-24T11:10:58Z</time>
      </trkpt>
      <trkpt lat="45.71453" lon="5.642">
        <ele>350</ele>
        <time>2017-04-24T11:11:14Z</time>
      </trkpt>
      <trkpt lat="45.71446" lon="5.64202">
        <ele>350</ele>
        <time>2017-04-24T11:11:14Z</time>
      </trkpt>
      <trkpt lat="45.71439" lon="5.64203">
        <ele>350</ele>
        <time>2017-04-24T11:11:14Z</time>
      </trkpt>
      <trkpt lat="45.7143" lon="5.64205">
        <ele>350</ele>
        <time>2017-04-24T11:11:14Z</time>
      </trkpt>
      <trkpt lat="45.71423" lon="5.64205">
        <ele>350</ele>
        <time>2017-04-24T11:11:30Z</time>
      </trkpt>
      <trkpt lat="45.71418" lon="5.64205">
        <ele>350</ele>
        <time>2017-04-24T11:11:30Z</time>
      </trkpt>
      <trkpt lat="45.71412" lon="5.64205">
        <ele>350</ele>
        <time>2017-04-24T11:11:30Z</time>
      </trkpt>
      <trkpt lat="45.71406" lon="5.64203">
        <ele>350</ele>
        <time>2017-04-24T11:11:30Z</time>
      </trkpt>
      <trkpt lat="45.714" lon="5.64203">
        <ele>350</ele>
        <time>2017-04-24T11:11:46Z</time>
      </trkpt>
      <trkpt lat="45.71396" lon="5.64201">
        <ele>350</ele>
        <time>2017-04-24T11:11:46Z</time>
      </trkpt>
      <trkpt lat="45.7139" lon="5.642">
        <ele>350</ele>
        <time>2017-04-24T11:11:46Z</time>
      </trkpt>
      <trkpt lat="45.71383" lon="5.64195">
        <ele>350</ele>
        <time>2017-04-24T11:11:46Z</time>
      </trkpt>
      <trkpt lat="45.71376" lon="5.64192">
        <ele>350</ele>
        <time>2017-04-24T11:12:02Z</time>
      </trkpt>
      <trkpt lat="45.71371" lon="5.64196">
        <ele>353</ele>
        <time>2017-04-24T11:12:02Z</time>
      </trkpt>
      <trkpt lat="45.71363" lon="5.64204">
        <ele>353</ele>
        <time>2017-04-24T11:12:02Z</time>
      </trkpt>
      <trkpt lat="45.71355" lon="5.64208">
        <ele>353</ele>
        <time>2017-04-24T11:12:02Z</time>
      </trkpt>
      <trkpt lat="45.71352" lon="5.64206">
        <ele>353</ele>
        <time>2017-04-24T11:12:18Z</time>
      </trkpt>
      <trkpt lat="45.71348" lon="5.64203">
        <ele>353</ele>
        <time>2017-04-24T11:12:18Z</time>
      </trkpt>
      <trkpt lat="45.71343" lon="5.64201">
        <ele>353</ele>
        <time>2017-04-24T11:12:18Z</time>
      </trkpt>
      <trkpt lat="45.71337" lon="5.64204">
        <ele>353</ele>
        <time>2017-04-24T11:12:18Z</time>
      </trkpt>
      <trkpt lat="45.71332" lon="5.64206">
        <ele>353</ele>
        <time>2017-04-24T11:12:34Z</time>
      </trkpt>
      <trkpt lat="45.71328" lon="5.64206">
        <ele>353</ele>
        <time>2017-04-24T11:12:34Z</time>
      </trkpt>
      <trkpt lat="45.71323" lon="5.64205">
        <ele>353</ele>
        <time>2017-04-24T11:12:34Z</time>
      </trkpt>
      <trkpt lat="45.71316" lon="5.64205">
        <ele>353</ele>
        <time>2017-04-24T11:12:34Z</time>
      </trkpt>
      <trkpt lat="45.71311" lon="5.64208">
        <ele>343</ele>
        <time>2017-04-24T11:12:50Z</time>
      </trkpt>
      <trkpt lat="45.71302" lon="5.64211">
        <ele>343</ele>
        <time>2017-04-24T11:12:50Z</time>
      </trkpt>
      <trkpt lat="45.71295" lon="5.6421">
        <ele>343</ele>
        <time>2017-04-24T11:12:50Z</time>
      </trkpt>
      <trkpt lat="45.71292" lon="5.6421">
        <ele>343</ele>
        <time>2017-04-24T11:12:50Z</time>
      </trkpt>
      <trkpt lat="45.71287" lon="5.64213">
        <ele>342</ele>
        <time>2017-04-24T11:13:06Z</time>
      </trkpt>
      <trkpt lat="45.71283" lon="5.64214">
        <ele>342</ele>
        <time>2017-04-24T11:13:06Z</time>
      </trkpt>
      <trkpt lat="45.71278" lon="5.64216">
        <ele>342</ele>
        <time>2017-04-24T11:13:06Z</time>
      </trkpt>
      <trkpt lat="45.71273" lon="5.64215">
        <ele>342</ele>
        <time>2017-04-24T11:13:06Z</time>
      </trkpt>
      <trkpt lat="45.71268" lon="5.64215">
        <ele>342</ele>
        <time>2017-04-24T11:13:22Z</time>
      </trkpt>
      <trkpt lat="45.71262" lon="5.64215">
        <ele>342</ele>
        <time>2017-04-24T11:13:22Z</time>
      </trkpt>
      <trkpt lat="45.71259" lon="5.64213">
        <ele>342</ele>
        <time>2017-04-24T11:13:22Z</time>
      </trkpt>
      <trkpt lat="45.71254" lon="5.64206">
        <ele>346</ele>
        <time>2017-04-24T11:13:22Z</time>
      </trkpt>
      <trkpt lat="45.71248" lon="5.64197">
        <ele>346</ele>
        <time>2017-04-24T11:13:38Z</time>
      </trkpt>
      <trkpt lat="45.7124" lon="5.6419">
        <ele>346</ele>
        <time>2017-04-24T11:13:38Z</time>
      </trkpt>
      <trkpt lat="45.71231" lon="5.64187">
        <ele>346</ele>
        <time>2017-04-24T11:13:38Z</time>
      </trkpt>
      <trkpt lat="45.71222" lon="5.64192">
        <ele>346</ele>
        <time>2017-04-24T11:13:38Z</time>
      </trkpt>
      <trkpt lat="45.71217" lon="5.64196">
        <ele>346</ele>
        <time>2017-04-24T11:13:54Z</time>
      </trkpt>
      <trkpt lat="45.71214" lon="5.64198">
        <ele>346</ele>
        <time>2017-04-24T11:13:54Z</time>
      </trkpt>
      <trkpt lat="45.7121" lon="5.64196">
        <ele>346</ele>
        <time>2017-04-24T11:13:54Z</time>
      </trkpt>
      <trkpt lat="45.71207" lon="5.64195">
        <ele>350</ele>
        <time>2017-04-24T11:13:54Z</time>
      </trkpt>
      <trkpt lat="45.71206" lon="5.6419">
        <ele>350</ele>
        <time>2017-04-24T11:14:10Z</time>
      </trkpt>
      <trkpt lat="45.71205" lon="5.64184">
        <ele>350</ele>
        <time>2017-04-24T11:14:10Z</time>
      </trkpt>
      <trkpt lat="45.71204" lon="5.64176">
        <ele>350</ele>
        <time>2017-04-24T11:14:10Z</time>
      </trkpt>
      <trkpt lat="45.712" lon="5.64172">
        <ele>350</ele>
        <time>2017-04-24T11:14:10Z</time>
      </trkpt>
      <trkpt lat="45.71196" lon="5.64165">
        <ele>350</ele>
        <time>2017-04-24T11:14:26Z</time>
      </trkpt>
      <trkpt lat="45.71192" lon="5.64158">
        <ele>350</ele>
        <time>2017-04-24T11:14:26Z</time>
      </trkpt>
      <trkpt lat="45.71187" lon="5.64154">
        <ele>350</ele>
        <time>2017-04-24T11:14:26Z</time>
      </trkpt>
      <trkpt lat="45.71182" lon="5.64154">
        <ele>350</ele>
        <time>2017-04-24T11:14:26Z</time>
      </trkpt>
      <trkpt lat="45.71177" lon="5.64157">
        <ele>350</ele>
        <time>2017-04-24T11:14:42Z</time>
      </trkpt>
      <trkpt lat="45.71173" lon="5.64162">
        <ele>350</ele>
        <time>2017-04-24T11:14:42Z</time>
      </trkpt>
      <trkpt lat="45.71169" lon="5.64163">
        <ele>350</ele>
        <time>2017-04-24T11:14:42Z</time>
      </trkpt>
      <trkpt lat="45.71165" lon="5.64168">
        <ele>350</ele>
        <time>2017-04-24T11:14:42Z</time>
      </trkpt>
      <trkpt lat="45.71158" lon="5.64173">
        <ele>350</ele>
        <time>2017-04-24T11:14:58Z</time>
      </trkpt>
      <trkpt lat="45.71148" lon="5.64178">
        <ele>350</ele>
        <time>2017-04-24T11:14:58Z</time>
      </trkpt>
      <trkpt lat="45.7114" lon="5.64187">
        <ele>350</ele>
        <time>2017-04-24T11:14:58Z</time>
      </trkpt>
      <trkpt lat="45.71127" lon="5.64197">
        <ele>350</ele>
        <time>2017-04-24T11:14:58Z</time>
      </trkpt>
      <trkpt lat="45.71118" lon="5.64203">
        <ele>359</ele>
        <time>2017-04-24T11:15:14Z</time>
      </trkpt>
      <trkpt lat="45.71114" lon="5.64211">
        <ele>353</ele>
        <time>2017-04-24T11:15:14Z</time>
      </trkpt>
      <trkpt lat="45.71104" lon="5.6422">
        <ele>353</ele>
        <time>2017-04-24T11:15:14Z</time>
      </trkpt>
      <trkpt lat="45.71094" lon="5.64234">
        <ele>353</ele>
        <time>2017-04-24T11:15:14Z</time>
      </trkpt>
      <trkpt lat="45.71089" lon="5.6424">
        <ele>353</ele>
        <time>2017-04-24T11:15:30Z</time>
      </trkpt>
      <trkpt lat="45.71088" lon="5.64247">
        <ele>353</ele>
        <time>2017-04-24T11:15:30Z</time>
      </trkpt>
      <trkpt lat="45.71086" lon="5.64256">
        <ele>353</ele>
        <time>2017-04-24T11:15:30Z</time>
      </trkpt>
      <trkpt lat="45.71081" lon="5.64273">
        <ele>353</ele>
        <time>2017-04-24T11:15:30Z</time>
      </trkpt>
      <trkpt lat="45.71078" lon="5.64289">
        <ele>353</ele>
        <time>2017-04-24T11:15:54Z</time>
      </trkpt>
      <trkpt lat="45.71077" lon="5.6429">
        <ele>353</ele>
        <time>2017-04-24T11:15:54Z</time>
      </trkpt>
      <trkpt lat="45.71077" lon="5.64291">
        <ele>353</ele>
        <time>2017-04-24T11:15:54Z</time>
      </trkpt>
      <trkpt lat="45.71076" lon="5.64292">
        <ele>346</ele>
        <time>2017-04-24T11:15:54Z</time>
      </trkpt>
      <trkpt lat="45.71075" lon="5.64294">
        <ele>346</ele>
        <time>2017-04-24T11:15:54Z</time>
      </trkpt>
      <trkpt lat="45.71077" lon="5.64302">
        <ele>346</ele>
        <time>2017-04-24T11:16:10Z</time>
      </trkpt>
      <trkpt lat="45.71078" lon="5.64318">
        <ele>346</ele>
        <time>2017-04-24T11:16:10Z</time>
      </trkpt>
      <trkpt lat="45.71073" lon="5.64324">
        <ele>346</ele>
        <time>2017-04-24T11:16:10Z</time>
      </trkpt>
      <trkpt lat="45.71064" lon="5.6433">
        <ele>346</ele>
        <time>2017-04-24T11:16:10Z</time>
      </trkpt>
      <trkpt lat="45.71057" lon="5.64332">
        <ele>346</ele>
        <time>2017-04-24T11:16:30Z</time>
      </trkpt>
      <trkpt lat="45.71052" lon="5.64336">
        <ele>346</ele>
        <time>2017-04-24T11:16:30Z</time>
      </trkpt>
      <trkpt lat="45.71052" lon="5.64337">
        <ele>346</ele>
        <time>2017-04-24T11:16:30Z</time>
      </trkpt>
      <trkpt lat="45.7105" lon="5.64338">
        <ele>346</ele>
        <time>2017-04-24T11:16:30Z</time>
      </trkpt>
      <trkpt lat="45.71036" lon="5.64341">
        <ele>361</ele>
        <time>2017-04-24T11:16:30Z</time>
      </trkpt>
      <trkpt lat="45.71015" lon="5.64339">
        <ele>361</ele>
        <time>2017-04-24T11:16:46Z</time>
      </trkpt>
      <trkpt lat="45.70993" lon="5.6434">
        <ele>361</ele>
        <time>2017-04-24T11:16:46Z</time>
      </trkpt>
      <trkpt lat="45.70973" lon="5.64345">
        <ele>361</ele>
        <time>2017-04-24T11:16:46Z</time>
      </trkpt>
      <trkpt lat="45.70959" lon="5.64351">
        <ele>361</ele>
        <time>2017-04-24T11:16:46Z</time>
      </trkpt>
      <trkpt lat="45.70948" lon="5.6436">
        <ele>371</ele>
        <time>2017-04-24T11:17:02Z</time>
      </trkpt>
      <trkpt lat="45.70942" lon="5.6437">
        <ele>371</ele>
        <time>2017-04-24T11:17:02Z</time>
      </trkpt>
      <trkpt lat="45.70938" lon="5.64379">
        <ele>355</ele>
        <time>2017-04-24T11:17:02Z</time>
      </trkpt>
      <trkpt lat="45.70931" lon="5.64379">
        <ele>355</ele>
        <time>2017-04-24T11:17:02Z</time>
      </trkpt>
      <trkpt lat="45.70923" lon="5.64382">
        <ele>355</ele>
        <time>2017-04-24T11:17:18Z</time>
      </trkpt>
      <trkpt lat="45.70918" lon="5.64385">
        <ele>355</ele>
        <time>2017-04-24T11:17:18Z</time>
      </trkpt>
      <trkpt lat="45.70914" lon="5.64388">
        <ele>355</ele>
        <time>2017-04-24T11:17:18Z</time>
      </trkpt>
      <trkpt lat="45.70913" lon="5.64389">
        <ele>355</ele>
        <time>2017-04-24T11:17:18Z</time>
      </trkpt>
      <trkpt lat="45.70913" lon="5.64389">
        <ele>355</ele>
        <time>2017-04-24T11:17:38Z</time>
      </trkpt>
      <trkpt lat="45.70912" lon="5.6439">
        <ele>355</ele>
        <time>2017-04-24T11:17:38Z</time>
      </trkpt>
      <trkpt lat="45.70912" lon="5.6439">
        <ele>355</ele>
        <time>2017-04-24T11:17:38Z</time>
      </trkpt>
      <trkpt lat="45.70909" lon="5.6439">
        <ele>355</ele>
        <time>2017-04-24T11:17:38Z</time>
      </trkpt>
      <trkpt lat="45.70903" lon="5.64393">
        <ele>355</ele>
        <time>2017-04-24T11:17:38Z</time>
      </trkpt>
      <trkpt lat="45.70899" lon="5.64397">
        <ele>355</ele>
        <time>2017-04-24T11:17:54Z</time>
      </trkpt>
      <trkpt lat="45.70894" lon="5.64403">
        <ele>355</ele>
        <time>2017-04-24T11:17:54Z</time>
      </trkpt>
      <trkpt lat="45.70891" lon="5.64409">
        <ele>355</ele>
        <time>2017-04-24T11:17:54Z</time>
      </trkpt>
      <trkpt lat="45.7089" lon="5.64416">
        <ele>355</ele>
        <time>2017-04-24T11:17:54Z</time>
      </trkpt>
      <trkpt lat="45.70891" lon="5.64419">
        <ele>355</ele>
        <time>2017-04-24T11:18:10Z</time>
      </trkpt>
      <trkpt lat="45.7089" lon="5.64425">
        <ele>355</ele>
        <time>2017-04-24T11:18:10Z</time>
      </trkpt>
      <trkpt lat="45.70889" lon="5.64431">
        <ele>355</ele>
        <time>2017-04-24T11:18:10Z</time>
      </trkpt>
      <trkpt lat="45.70894" lon="5.64436">
        <ele>355</ele>
        <time>2017-04-24T11:18:10Z</time>
      </trkpt>
      <trkpt lat="45.70896" lon="5.64442">
        <ele>355</ele>
        <time>2017-04-24T11:18:26Z</time>
      </trkpt>
      <trkpt lat="45.70896" lon="5.6445">
        <ele>355</ele>
        <time>2017-04-24T11:18:26Z</time>
      </trkpt>
      <trkpt lat="45.70899" lon="5.64456">
        <ele>355</ele>
        <time>2017-04-24T11:18:26Z</time>
      </trkpt>
      <trkpt lat="45.70904" lon="5.64461">
        <ele>339</ele>
        <time>2017-04-24T11:18:26Z</time>
      </trkpt>
      <trkpt lat="45.70907" lon="5.64466">
        <ele>339</ele>
        <time>2017-04-24T11:18:42Z</time>
      </trkpt>
      <trkpt lat="45.70912" lon="5.64472">
        <ele>339</ele>
        <time>2017-04-24T11:18:42Z</time>
      </trkpt>
      <trkpt lat="45.70916" lon="5.64477">
        <ele>339</ele>
        <time>2017-04-24T11:18:42Z</time>
      </trkpt>
      <trkpt lat="45.70921" lon="5.64482">
        <ele>339</ele>
        <time>2017-04-24T11:18:42Z</time>
      </trkpt>
      <trkpt lat="45.70925" lon="5.64485">
        <ele>339</ele>
        <time>2017-04-24T11:18:58Z</time>
      </trkpt>
      <trkpt lat="45.7093" lon="5.64489">
        <ele>339</ele>
        <time>2017-04-24T11:18:58Z</time>
      </trkpt>
      <trkpt lat="45.70935" lon="5.64492">
        <ele>339</ele>
        <time>2017-04-24T11:18:58Z</time>
      </trkpt>
      <trkpt lat="45.7094" lon="5.64497">
        <ele>339</ele>
        <time>2017-04-24T11:18:58Z</time>
      </trkpt>
      <trkpt lat="45.70946" lon="5.64501">
        <ele>339</ele>
        <time>2017-04-24T11:19:14Z</time>
      </trkpt>
      <trkpt lat="45.70952" lon="5.64506">
        <ele>339</ele>
        <time>2017-04-24T11:19:14Z</time>
      </trkpt>
      <trkpt lat="45.70954" lon="5.64513">
        <ele>339</ele>
        <time>2017-04-24T11:19:14Z</time>
      </trkpt>
      <trkpt lat="45.70959" lon="5.64519">
        <ele>340</ele>
        <time>2017-04-24T11:19:14Z</time>
      </trkpt>
      <trkpt lat="45.70967" lon="5.64528">
        <ele>340</ele>
        <time>2017-04-24T11:19:30Z</time>
      </trkpt>
      <trkpt lat="45.7097" lon="5.64531">
        <ele>340</ele>
        <time>2017-04-24T11:19:30Z</time>
      </trkpt>
      <trkpt lat="45.70973" lon="5.64534">
        <ele>340</ele>
        <time>2017-04-24T11:19:30Z</time>
      </trkpt>
      <trkpt lat="45.70976" lon="5.64538">
        <ele>340</ele>
        <time>2017-04-24T11:19:30Z</time>
      </trkpt>
      <trkpt lat="45.70987" lon="5.64545">
        <ele>315</ele>
        <time>2017-04-24T11:20:22Z</time>
      </trkpt>
      <trkpt lat="45.70987" lon="5.64545">
        <ele>315</ele>
        <time>2017-04-24T11:20:22Z</time>
      </trkpt>
      <trkpt lat="45.70987" lon="5.64545">
        <ele>315</ele>
        <time>2017-04-24T11:20:22Z</time>
      </trkpt>
      <trkpt lat="45.70987" lon="5.64545">
        <ele>315</ele>
        <time>2017-04-24T11:20:22Z</time>
      </trkpt>
      <trkpt lat="45.70992" lon="5.64552">
        <ele>315</ele>
        <time>2017-04-24T11:20:22Z</time>
      </trkpt>
      <trkpt lat="45.70994" lon="5.64555">
        <ele>315</ele>
        <time>2017-04-24T11:20:38Z</time>
      </trkpt>
      <trkpt lat="45.70996" lon="5.64558">
        <ele>315</ele>
        <time>2017-04-24T11:20:38Z</time>
      </trkpt>
      <trkpt lat="45.70998" lon="5.64561">
        <ele>315</ele>
        <time>2017-04-24T11:20:38Z</time>
      </trkpt>
      <trkpt lat="45.71001" lon="5.64563">
        <ele>315</ele>
        <time>2017-04-24T11:20:38Z</time>
      </trkpt>
      <trkpt lat="45.71" lon="5.64569">
        <ele>315</ele>
        <time>2017-04-24T11:20:54Z</time>
      </trkpt>
      <trkpt lat="45.70999" lon="5.64576">
        <ele>315</ele>
        <time>2017-04-24T11:20:54Z</time>
      </trkpt>
      <trkpt lat="45.71" lon="5.64581">
        <ele>315</ele>
        <time>2017-04-24T11:20:54Z</time>
      </trkpt>
      <trkpt lat="45.71" lon="5.64581">
        <ele>315</ele>
        <time>2017-04-24T11:20:54Z</time>
      </trkpt>
      <trkpt lat="45.70999" lon="5.64583">
        <ele>315</ele>
        <time>2017-04-24T11:21:10Z</time>
      </trkpt>
      <trkpt lat="45.70994" lon="5.64583">
        <ele>315</ele>
        <time>2017-04-24T11:21:10Z</time>
      </trkpt>
      <trkpt lat="45.70992" lon="5.64584">
        <ele>315</ele>
        <time>2017-04-24T11:21:10Z</time>
      </trkpt>
      <trkpt lat="45.70989" lon="5.64586">
        <ele>315</ele>
        <time>2017-04-24T11:21:10Z</time>
      </trkpt>
      <trkpt lat="45.70987" lon="5.64588">
        <ele>315</ele>
        <time>2017-04-24T11:21:30Z</time>
      </trkpt>
      <trkpt lat="45.70985" lon="5.64589">
        <ele>315</ele>
        <time>2017-04-24T11:21:30Z</time>
      </trkpt>
      <trkpt lat="45.70981" lon="5.64592">
        <ele>315</ele>
        <time>2017-04-24T11:21:30Z</time>
      </trkpt>
      <trkpt lat="45.7098" lon="5.64593">
        <ele>315</ele>
        <time>2017-04-24T11:21:30Z</time>
      </trkpt>
      <trkpt lat="45.70976" lon="5.64594">
        <ele>315</ele>
        <time>2017-04-24T11:21:30Z</time>
      </trkpt>
      <trkpt lat="45.70972" lon="5.64593">
        <ele>315</ele>
        <time>2017-04-24T11:21:46Z</time>
      </trkpt>
      <trkpt lat="45.70967" lon="5.64594">
        <ele>315</ele>
        <time>2017-04-24T11:21:46Z</time>
      </trkpt>
      <trkpt lat="45.70963" lon="5.64597">
        <ele>315</ele>
        <time>2017-04-24T11:21:46Z</time>
      </trkpt>
      <trkpt lat="45.70962" lon="5.64597">
        <ele>315</ele>
        <time>2017-04-24T11:21:46Z</time>
      </trkpt>
      <trkpt lat="45.7096" lon="5.64598">
        <ele>315</ele>
        <time>2017-04-24T11:22:02Z</time>
      </trkpt>
      <trkpt lat="45.70958" lon="5.646">
        <ele>318</ele>
        <time>2017-04-24T11:22:02Z</time>
      </trkpt>
      <trkpt lat="45.70955" lon="5.64601">
        <ele>318</ele>
        <time>2017-04-24T11:22:02Z</time>
      </trkpt>
      <trkpt lat="45.7095" lon="5.64605">
        <ele>318</ele>
        <time>2017-04-24T11:22:02Z</time>
      </trkpt>
      <trkpt lat="45.70948" lon="5.64607">
        <ele>318</ele>
        <time>2017-04-24T11:22:18Z</time>
      </trkpt>
      <trkpt lat="45.70947" lon="5.64613">
        <ele>318</ele>
        <time>2017-04-24T11:22:18Z</time>
      </trkpt>
      <trkpt lat="45.70946" lon="5.64617">
        <ele>318</ele>
        <time>2017-04-24T11:22:18Z</time>
      </trkpt>
      <trkpt lat="45.70945" lon="5.6462">
        <ele>318</ele>
        <time>2017-04-24T11:22:18Z</time>
      </trkpt>
      <trkpt lat="45.70946" lon="5.64622">
        <ele>318</ele>
        <time>2017-04-24T11:22:38Z</time>
      </trkpt>
      <trkpt lat="45.70947" lon="5.64625">
        <ele>298</ele>
        <time>2017-04-24T11:22:38Z</time>
      </trkpt>
      <trkpt lat="45.70946" lon="5.64629">
        <ele>298</ele>
        <time>2017-04-24T11:22:38Z</time>
      </trkpt>
      <trkpt lat="45.70945" lon="5.64632">
        <ele>298</ele>
        <time>2017-04-24T11:22:38Z</time>
      </trkpt>
      <trkpt lat="45.70942" lon="5.64635">
        <ele>298</ele>
        <time>2017-04-24T11:22:38Z</time>
      </trkpt>
      <trkpt lat="45.70938" lon="5.64642">
        <ele>298</ele>
        <time>2017-04-24T11:22:54Z</time>
      </trkpt>
      <trkpt lat="45.70937" lon="5.64647">
        <ele>298</ele>
        <time>2017-04-24T11:22:54Z</time>
      </trkpt>
      <trkpt lat="45.70936" lon="5.64651">
        <ele>298</ele>
        <time>2017-04-24T11:22:54Z</time>
      </trkpt>
      <trkpt lat="45.70936" lon="5.64655">
        <ele>298</ele>
        <time>2017-04-24T11:22:54Z</time>
      </trkpt>
      <trkpt lat="45.70935" lon="5.64664">
        <ele>298</ele>
        <time>2017-04-24T11:24:02Z</time>
      </trkpt>
      <trkpt lat="45.70933" lon="5.64666">
        <ele>298</ele>
        <time>2017-04-24T11:24:02Z</time>
      </trkpt>
      <trkpt lat="45.70933" lon="5.64668">
        <ele>298</ele>
        <time>2017-04-24T11:24:02Z</time>
      </trkpt>
      <trkpt lat="45.70934" lon="5.64669">
        <ele>298</ele>
        <time>2017-04-24T11:24:02Z</time>
      </trkpt>
      <trkpt lat="45.70935" lon="5.6467">
        <ele>298</ele>
        <time>2017-04-24T11:24:02Z</time>
      </trkpt>
      <trkpt lat="45.70935" lon="5.6467">
        <ele>298</ele>
        <time>2017-04-24T11:24:30Z</time>
      </trkpt>
      <trkpt lat="45.70934" lon="5.64672">
        <ele>298</ele>
        <time>2017-04-24T11:24:30Z</time>
      </trkpt>
      <trkpt lat="45.70931" lon="5.64675">
        <ele>298</ele>
        <time>2017-04-24T11:24:30Z</time>
      </trkpt>
      <trkpt lat="45.70928" lon="5.64677">
        <ele>298</ele>
        <time>2017-04-24T11:24:30Z</time>
      </trkpt>
      <trkpt lat="45.70924" lon="5.64679">
        <ele>298</ele>
        <time>2017-04-24T11:24:30Z</time>
      </trkpt>
      <trkpt lat="45.7092" lon="5.64684">
        <ele>298</ele>
        <time>2017-04-24T11:24:46Z</time>
      </trkpt>
      <trkpt lat="45.70916" lon="5.64685">
        <ele>298</ele>
        <time>2017-04-24T11:24:46Z</time>
      </trkpt>
      <trkpt lat="45.70914" lon="5.64687">
        <ele>298</ele>
        <time>2017-04-24T11:24:46Z</time>
      </trkpt>
      <trkpt lat="45.70912" lon="5.64689">
        <ele>298</ele>
        <time>2017-04-24T11:24:46Z</time>
      </trkpt>
      <trkpt lat="45.7091" lon="5.64694">
        <ele>298</ele>
        <time>2017-04-24T11:25:02Z</time>
      </trkpt>
      <trkpt lat="45.70907" lon="5.64694">
        <ele>298</ele>
        <time>2017-04-24T11:25:02Z</time>
      </trkpt>
      <trkpt lat="45.70903" lon="5.64697">
        <ele>298</ele>
        <time>2017-04-24T11:25:02Z</time>
      </trkpt>
      <trkpt lat="45.709" lon="5.64703">
        <ele>298</ele>
        <time>2017-04-24T11:25:02Z</time>
      </trkpt>
      <trkpt lat="45.70898" lon="5.64709">
        <ele>283</ele>
        <time>2017-04-24T11:25:18Z</time>
      </trkpt>
      <trkpt lat="45.70895" lon="5.64714">
        <ele>283</ele>
        <time>2017-04-24T11:25:18Z</time>
      </trkpt>
      <trkpt lat="45.70892" lon="5.64717">
        <ele>283</ele>
        <time>2017-04-24T11:25:18Z</time>
      </trkpt>
      <trkpt lat="45.70889" lon="5.64719">
        <ele>283</ele>
        <time>2017-04-24T11:25:18Z</time>
      </trkpt>
      <trkpt lat="45.70885" lon="5.64721">
        <ele>283</ele>
        <time>2017-04-24T11:25:34Z</time>
      </trkpt>
      <trkpt lat="45.7088" lon="5.64725">
        <ele>283</ele>
        <time>2017-04-24T11:25:34Z</time>
      </trkpt>
      <trkpt lat="45.70878" lon="5.64726">
        <ele>283</ele>
        <time>2017-04-24T11:25:34Z</time>
      </trkpt>
      <trkpt lat="45.70874" lon="5.6473">
        <ele>301</ele>
        <time>2017-04-24T11:25:34Z</time>
      </trkpt>
      <trkpt lat="45.70871" lon="5.64735">
        <ele>301</ele>
        <time>2017-04-24T11:25:50Z</time>
      </trkpt>
      <trkpt lat="45.70869" lon="5.64738">
        <ele>301</ele>
        <time>2017-04-24T11:25:50Z</time>
      </trkpt>
      <trkpt lat="45.70867" lon="5.64745">
        <ele>301</ele>
        <time>2017-04-24T11:25:50Z</time>
      </trkpt>
      <trkpt lat="45.70863" lon="5.64751">
        <ele>301</ele>
        <time>2017-04-24T11:25:50Z</time>
      </trkpt>
      <trkpt lat="45.70861" lon="5.6476">
        <ele>301</ele>
        <time>2017-04-24T11:26:06Z</time>
      </trkpt>
      <trkpt lat="45.7086" lon="5.64766">
        <ele>301</ele>
        <time>2017-04-24T11:26:06Z</time>
      </trkpt>
      <trkpt lat="45.7086" lon="5.64775">
        <ele>301</ele>
        <time>2017-04-24T11:26:06Z</time>
      </trkpt>
      <trkpt lat="45.70861" lon="5.64782">
        <ele>301</ele>
        <time>2017-04-24T11:26:06Z</time>
      </trkpt>
      <trkpt lat="45.70863" lon="5.64791">
        <ele>301</ele>
        <time>2017-04-24T11:26:22Z</time>
      </trkpt>
      <trkpt lat="45.70864" lon="5.64797">
        <ele>291</ele>
        <time>2017-04-24T11:26:22Z</time>
      </trkpt>
      <trkpt lat="45.70867" lon="5.64807">
        <ele>291</ele>
        <time>2017-04-24T11:26:22Z</time>
      </trkpt>
      <trkpt lat="45.70867" lon="5.64812">
        <ele>291</ele>
        <time>2017-04-24T11:26:22Z</time>
      </trkpt>
      <trkpt lat="45.70868" lon="5.6482">
        <ele>291</ele>
        <time>2017-04-24T11:26:38Z</time>
      </trkpt>
      <trkpt lat="45.7087" lon="5.64824">
        <ele>291</ele>
        <time>2017-04-24T11:26:38Z</time>
      </trkpt>
      <trkpt lat="45.70873" lon="5.64831">
        <ele>291</ele>
        <time>2017-04-24T11:26:38Z</time>
      </trkpt>
      <trkpt lat="45.70875" lon="5.64837">
        <ele>273</ele>
        <time>2017-04-24T11:26:38Z</time>
      </trkpt>
      <trkpt lat="45.7088" lon="5.64846">
        <ele>273</ele>
        <time>2017-04-24T11:26:54Z</time>
      </trkpt>
      <trkpt lat="45.70882" lon="5.6485">
        <ele>273</ele>
        <time>2017-04-24T11:26:54Z</time>
      </trkpt>
      <trkpt lat="45.70886" lon="5.64855">
        <ele>273</ele>
        <time>2017-04-24T11:26:54Z</time>
      </trkpt>
      <trkpt lat="45.7089" lon="5.64862">
        <ele>273</ele>
        <time>2017-04-24T11:26:54Z</time>
      </trkpt>
      <trkpt lat="45.70893" lon="5.64865">
        <ele>273</ele>
        <time>2017-04-24T11:27:10Z</time>
      </trkpt>
      <trkpt lat="45.70896" lon="5.64871">
        <ele>273</ele>
        <time>2017-04-24T11:27:10Z</time>
      </trkpt>
      <trkpt lat="45.709" lon="5.6488">
        <ele>264</ele>
        <time>2017-04-24T11:27:10Z</time>
      </trkpt>
      <trkpt lat="45.709" lon="5.64886">
        <ele>264</ele>
        <time>2017-04-24T11:27:10Z</time>
      </trkpt>
      <trkpt lat="45.70903" lon="5.6489">
        <ele>264</ele>
        <time>2017-04-24T11:27:26Z</time>
      </trkpt>
      <trkpt lat="45.70909" lon="5.64897">
        <ele>264</ele>
        <time>2017-04-24T11:27:26Z</time>
      </trkpt>
      <trkpt lat="45.70911" lon="5.64902">
        <ele>264</ele>
        <time>2017-04-24T11:27:26Z</time>
      </trkpt>
      <trkpt lat="45.70915" lon="5.64907">
        <ele>264</ele>
        <time>2017-04-24T11:27:26Z</time>
      </trkpt>
      <trkpt lat="45.70918" lon="5.64912">
        <ele>264</ele>
        <time>2017-04-24T11:27:42Z</time>
      </trkpt>
      <trkpt lat="45.70922" lon="5.64921">
        <ele>264</ele>
        <time>2017-04-24T11:27:42Z</time>
      </trkpt>
      <trkpt lat="45.70924" lon="5.64926">
        <ele>264</ele>
        <time>2017-04-24T11:27:42Z</time>
      </trkpt>
      <trkpt lat="45.70927" lon="5.64935">
        <ele>264</ele>
        <time>2017-04-24T11:27:42Z</time>
      </trkpt>
      <trkpt lat="45.70929" lon="5.64943">
        <ele>264</ele>
        <time>2017-04-24T11:27:58Z</time>
      </trkpt>
      <trkpt lat="45.70931" lon="5.64951">
        <ele>264</ele>
        <time>2017-04-24T11:27:58Z</time>
      </trkpt>
      <trkpt lat="45.70933" lon="5.64959">
        <ele>256</ele>
        <time>2017-04-24T11:27:58Z</time>
      </trkpt>
      <trkpt lat="45.70935" lon="5.64967">
        <ele>256</ele>
        <time>2017-04-24T11:27:58Z</time>
      </trkpt>
      <trkpt lat="45.70938" lon="5.64974">
        <ele>256</ele>
        <time>2017-04-24T11:28:14Z</time>
      </trkpt>
      <trkpt lat="45.7094" lon="5.64983">
        <ele>256</ele>
        <time>2017-04-24T11:28:14Z</time>
      </trkpt>
      <trkpt lat="45.70942" lon="5.64988">
        <ele>256</ele>
        <time>2017-04-24T11:28:14Z</time>
      </trkpt>
      <trkpt lat="45.70946" lon="5.64995">
        <ele>256</ele>
        <time>2017-04-24T11:28:14Z</time>
      </trkpt>
      <trkpt lat="45.70948" lon="5.64999">
        <ele>256</ele>
        <time>2017-04-24T11:28:38Z</time>
      </trkpt>
      <trkpt lat="45.70949" lon="5.64999">
        <ele>256</ele>
        <time>2017-04-24T11:28:38Z</time>
      </trkpt>
      <trkpt lat="45.70949" lon="5.65">
        <ele>256</ele>
        <time>2017-04-24T11:28:38Z</time>
      </trkpt>
      <trkpt lat="45.70951" lon="5.65005">
        <ele>256</ele>
        <time>2017-04-24T11:28:38Z</time>
      </trkpt>
      <trkpt lat="45.70955" lon="5.65013">
        <ele>256</ele>
        <time>2017-04-24T11:28:38Z</time>
      </trkpt>
      <trkpt lat="45.70957" lon="5.65018">
        <ele>256</ele>
        <time>2017-04-24T11:28:54Z</time>
      </trkpt>
      <trkpt lat="45.7096" lon="5.65025">
        <ele>252</ele>
        <time>2017-04-24T11:28:54Z</time>
      </trkpt>
      <trkpt lat="45.70964" lon="5.65033">
        <ele>252</ele>
        <time>2017-04-24T11:28:54Z</time>
      </trkpt>
      <trkpt lat="45.70966" lon="5.65037">
        <ele>252</ele>
        <time>2017-04-24T11:28:54Z</time>
      </trkpt>
      <trkpt lat="45.70969" lon="5.65044">
        <ele>247</ele>
        <time>2017-04-24T11:29:10Z</time>
      </trkpt>
      <trkpt lat="45.70972" lon="5.6505">
        <ele>247</ele>
        <time>2017-04-24T11:29:10Z</time>
      </trkpt>
      <trkpt lat="45.70976" lon="5.65058">
        <ele>247</ele>
        <time>2017-04-24T11:29:10Z</time>
      </trkpt>
      <trkpt lat="45.70979" lon="5.65063">
        <ele>247</ele>
        <time>2017-04-24T11:29:10Z</time>
      </trkpt>
      <trkpt lat="45.70982" lon="5.6507">
        <ele>247</ele>
        <time>2017-04-24T11:29:26Z</time>
      </trkpt>
      <trkpt lat="45.70985" lon="5.65076">
        <ele>247</ele>
        <time>2017-04-24T11:29:26Z</time>
      </trkpt>
      <trkpt lat="45.70989" lon="5.65085">
        <ele>247</ele>
        <time>2017-04-24T11:29:26Z</time>
      </trkpt>
      <trkpt lat="45.7099" lon="5.6509">
        <ele>247</ele>
        <time>2017-04-24T11:29:26Z</time>
      </trkpt>
      <trkpt lat="45.70992" lon="5.65093">
        <ele>247</ele>
        <time>2017-04-24T11:29:42Z</time>
      </trkpt>
      <trkpt lat="45.70994" lon="5.65098">
        <ele>247</ele>
        <time>2017-04-24T11:29:42Z</time>
      </trkpt>
      <trkpt lat="45.70992" lon="5.65106">
        <ele>247</ele>
        <time>2017-04-24T11:29:42Z</time>
      </trkpt>
      <trkpt lat="45.70989" lon="5.6511">
        <ele>247</ele>
        <time>2017-04-24T11:29:42Z</time>
      </trkpt>
      <trkpt lat="45.70986" lon="5.65114">
        <ele>247</ele>
        <time>2017-04-24T11:29:58Z</time>
      </trkpt>
      <trkpt lat="45.70983" lon="5.65116">
        <ele>247</ele>
        <time>2017-04-24T11:29:58Z</time>
      </trkpt>
      <trkpt lat="45.70981" lon="5.65119">
        <ele>247</ele>
        <time>2017-04-24T11:29:58Z</time>
      </trkpt>
      <trkpt lat="45.70978" lon="5.65123">
        <ele>247</ele>
        <time>2017-04-24T11:29:58Z</time>
      </trkpt>
      <trkpt lat="45.70975" lon="5.65126">
        <ele>248</ele>
        <time>2017-04-24T11:30:14Z</time>
      </trkpt>
      <trkpt lat="45.70974" lon="5.65127">
        <ele>248</ele>
        <time>2017-04-24T11:30:14Z</time>
      </trkpt>
      <trkpt lat="45.7097" lon="5.65131">
        <ele>248</ele>
        <time>2017-04-24T11:30:14Z</time>
      </trkpt>
      <trkpt lat="45.70967" lon="5.65134">
        <ele>248</ele>
        <time>2017-04-24T11:30:14Z</time>
      </trkpt>
      <trkpt lat="45.70962" lon="5.65139">
        <ele>248</ele>
        <time>2017-04-24T11:30:30Z</time>
      </trkpt>
      <trkpt lat="45.70956" lon="5.65144">
        <ele>249</ele>
        <time>2017-04-24T11:30:30Z</time>
      </trkpt>
      <trkpt lat="45.7095" lon="5.65149">
        <ele>249</ele>
        <time>2017-04-24T11:30:30Z</time>
      </trkpt>
      <trkpt lat="45.70946" lon="5.65153">
        <ele>249</ele>
        <time>2017-04-24T11:30:30Z</time>
      </trkpt>
      <trkpt lat="45.70942" lon="5.65154">
        <ele>249</ele>
        <time>2017-04-24T11:30:46Z</time>
      </trkpt>
      <trkpt lat="45.70938" lon="5.65158">
        <ele>249</ele>
        <time>2017-04-24T11:30:46Z</time>
      </trkpt>
      <trkpt lat="45.70933" lon="5.65162">
        <ele>249</ele>
        <time>2017-04-24T11:30:46Z</time>
      </trkpt>
      <trkpt lat="45.70928" lon="5.65167">
        <ele>249</ele>
        <time>2017-04-24T11:30:46Z</time>
      </trkpt>
      <trkpt lat="45.70923" lon="5.65171">
        <ele>249</ele>
        <time>2017-04-24T11:31:02Z</time>
      </trkpt>
      <trkpt lat="45.70918" lon="5.65175">
        <ele>249</ele>
        <time>2017-04-24T11:31:02Z</time>
      </trkpt>
      <trkpt lat="45.70913" lon="5.65179">
        <ele>249</ele>
        <time>2017-04-24T11:31:02Z</time>
      </trkpt>
      <trkpt lat="45.70907" lon="5.65182">
        <ele>249</ele>
        <time>2017-04-24T11:31:02Z</time>
      </trkpt>
      <trkpt lat="45.70901" lon="5.65185">
        <ele>249</ele>
        <time>2017-04-24T11:31:18Z</time>
      </trkpt>
      <trkpt lat="45.70895" lon="5.65188">
        <ele>249</ele>
        <time>2017-04-24T11:31:18Z</time>
      </trkpt>
      <trkpt lat="45.70887" lon="5.65191">
        <ele>249</ele>
        <time>2017-04-24T11:31:18Z</time>
      </trkpt>
      <trkpt lat="45.70884" lon="5.65192">
        <ele>249</ele>
        <time>2017-04-24T11:31:18Z</time>
      </trkpt>
      <trkpt lat="45.70879" lon="5.65194">
        <ele>249</ele>
        <time>2017-04-24T11:31:34Z</time>
      </trkpt>
      <trkpt lat="45.70873" lon="5.65196">
        <ele>252</ele>
        <time>2017-04-24T11:31:34Z</time>
      </trkpt>
      <trkpt lat="45.70867" lon="5.65199">
        <ele>252</ele>
        <time>2017-04-24T11:31:34Z</time>
      </trkpt>
      <trkpt lat="45.70861" lon="5.65202">
        <ele>252</ele>
        <time>2017-04-24T11:31:34Z</time>
      </trkpt>
      <trkpt lat="45.70857" lon="5.65205">
        <ele>252</ele>
        <time>2017-04-24T11:31:50Z</time>
      </trkpt>
      <trkpt lat="45.70852" lon="5.65211">
        <ele>249</ele>
        <time>2017-04-24T11:31:50Z</time>
      </trkpt>
      <trkpt lat="45.70848" lon="5.65216">
        <ele>249</ele>
        <time>2017-04-24T11:31:50Z</time>
      </trkpt>
      <trkpt lat="45.70845" lon="5.65223">
        <ele>249</ele>
        <time>2017-04-24T11:31:50Z</time>
      </trkpt>
      <trkpt lat="45.70843" lon="5.65228">
        <ele>249</ele>
        <time>2017-04-24T11:32:06Z</time>
      </trkpt>
      <trkpt lat="45.70842" lon="5.65232">
        <ele>249</ele>
        <time>2017-04-24T11:32:06Z</time>
      </trkpt>
      <trkpt lat="45.70841" lon="5.65237">
        <ele>249</ele>
        <time>2017-04-24T11:32:06Z</time>
      </trkpt>
      <trkpt lat="45.70839" lon="5.65244">
        <ele>249</ele>
        <time>2017-04-24T11:32:06Z</time>
      </trkpt>
      <trkpt lat="45.70837" lon="5.65248">
        <ele>249</ele>
        <time>2017-04-24T11:32:22Z</time>
      </trkpt>
      <trkpt lat="45.70832" lon="5.65256">
        <ele>249</ele>
        <time>2017-04-24T11:32:22Z</time>
      </trkpt>
      <trkpt lat="45.70828" lon="5.65261">
        <ele>249</ele>
        <time>2017-04-24T11:32:22Z</time>
      </trkpt>
      <trkpt lat="45.70823" lon="5.65267">
        <ele>249</ele>
        <time>2017-04-24T11:32:22Z</time>
      </trkpt>
      <trkpt lat="45.70817" lon="5.65272">
        <ele>249</ele>
        <time>2017-04-24T11:32:38Z</time>
      </trkpt>
      <trkpt lat="45.70813" lon="5.65274">
        <ele>249</ele>
        <time>2017-04-24T11:32:38Z</time>
      </trkpt>
      <trkpt lat="45.70807" lon="5.65276">
        <ele>249</ele>
        <time>2017-04-24T11:32:38Z</time>
      </trkpt>
      <trkpt lat="45.70804" lon="5.65277">
        <ele>249</ele>
        <time>2017-04-24T11:32:38Z</time>
      </trkpt>
      <trkpt lat="45.70797" lon="5.65281">
        <ele>249</ele>
        <time>2017-04-24T11:32:54Z</time>
      </trkpt>
      <trkpt lat="45.70793" lon="5.65283">
        <ele>249</ele>
        <time>2017-04-24T11:32:54Z</time>
      </trkpt>
      <trkpt lat="45.70784" lon="5.65285">
        <ele>256</ele>
        <time>2017-04-24T11:32:54Z</time>
      </trkpt>
      <trkpt lat="45.70778" lon="5.65288">
        <ele>256</ele>
        <time>2017-04-24T11:32:54Z</time>
      </trkpt>
      <trkpt lat="45.70773" lon="5.65293">
        <ele>244</ele>
        <time>2017-04-24T11:33:10Z</time>
      </trkpt>
      <trkpt lat="45.70771" lon="5.65299">
        <ele>244</ele>
        <time>2017-04-24T11:33:10Z</time>
      </trkpt>
      <trkpt lat="45.70768" lon="5.65306">
        <ele>244</ele>
        <time>2017-04-24T11:33:10Z</time>
      </trkpt>
      <trkpt lat="45.70766" lon="5.65311">
        <ele>244</ele>
        <time>2017-04-24T11:33:10Z</time>
      </trkpt>
      <trkpt lat="45.70764" lon="5.65317">
        <ele>244</ele>
        <time>2017-04-24T11:33:26Z</time>
      </trkpt>
      <trkpt lat="45.70762" lon="5.65326">
        <ele>244</ele>
        <time>2017-04-24T11:33:26Z</time>
      </trkpt>
      <trkpt lat="45.70761" lon="5.65331">
        <ele>244</ele>
        <time>2017-04-24T11:33:26Z</time>
      </trkpt>
      <trkpt lat="45.7076" lon="5.65337">
        <ele>244</ele>
        <time>2017-04-24T11:33:26Z</time>
      </trkpt>
      <trkpt lat="45.7076" lon="5.65344">
        <ele>244</ele>
        <time>2017-04-24T11:33:42Z</time>
      </trkpt>
      <trkpt lat="45.7076" lon="5.65354">
        <ele>244</ele>
        <time>2017-04-24T11:33:42Z</time>
      </trkpt>
      <trkpt lat="45.70761" lon="5.65363">
        <ele>244</ele>
        <time>2017-04-24T11:33:42Z</time>
      </trkpt>
      <trkpt lat="45.70761" lon="5.65369">
        <ele>244</ele>
        <time>2017-04-24T11:33:42Z</time>
      </trkpt>
      <trkpt lat="45.7076" lon="5.65378">
        <ele>240</ele>
        <time>2017-04-24T11:33:58Z</time>
      </trkpt>
      <trkpt lat="45.70755" lon="5.65382">
        <ele>240</ele>
        <time>2017-04-24T11:33:58Z</time>
      </trkpt>
      <trkpt lat="45.70748" lon="5.65383">
        <ele>240</ele>
        <time>2017-04-24T11:33:58Z</time>
      </trkpt>
      <trkpt lat="45.70743" lon="5.65385">
        <ele>240</ele>
        <time>2017-04-24T11:33:58Z</time>
      </trkpt>
      <trkpt lat="45.70739" lon="5.65388">
        <ele>240</ele>
        <time>2017-04-24T11:34:14Z</time>
      </trkpt>
      <trkpt lat="45.70735" lon="5.65392">
        <ele>240</ele>
        <time>2017-04-24T11:34:14Z</time>
      </trkpt>
      <trkpt lat="45.70729" lon="5.65395">
        <ele>240</ele>
        <time>2017-04-24T11:34:14Z</time>
      </trkpt>
      <trkpt lat="45.70725" lon="5.65397">
        <ele>240</ele>
        <time>2017-04-24T11:34:14Z</time>
      </trkpt>
      <trkpt lat="45.70723" lon="5.654">
        <ele>240</ele>
        <time>2017-04-24T11:34:30Z</time>
      </trkpt>
      <trkpt lat="45.70723" lon="5.65408">
        <ele>240</ele>
        <time>2017-04-24T11:34:30Z</time>
      </trkpt>
      <trkpt lat="45.70722" lon="5.65417">
        <ele>240</ele>
        <time>2017-04-24T11:34:30Z</time>
      </trkpt>
      <trkpt lat="45.70722" lon="5.65425">
        <ele>240</ele>
        <time>2017-04-24T11:34:30Z</time>
      </trkpt>
      <trkpt lat="45.70722" lon="5.65433">
        <ele>240</ele>
        <time>2017-04-24T11:34:46Z</time>
      </trkpt>
      <trkpt lat="45.70722" lon="5.65439">
        <ele>240</ele>
        <time>2017-04-24T11:34:46Z</time>
      </trkpt>
      <trkpt lat="45.70721" lon="5.65449">
        <ele>240</ele>
        <time>2017-04-24T11:34:46Z</time>
      </trkpt>
      <trkpt lat="45.7072" lon="5.65457">
        <ele>240</ele>
        <time>2017-04-24T11:34:46Z</time>
      </trkpt>
      <trkpt lat="45.70718" lon="5.65466">
        <ele>238</ele>
        <time>2017-04-24T11:35:02Z</time>
      </trkpt>
      <trkpt lat="45.70718" lon="5.65473">
        <ele>238</ele>
        <time>2017-04-24T11:35:02Z</time>
      </trkpt>
      <trkpt lat="45.70717" lon="5.65483">
        <ele>238</ele>
        <time>2017-04-24T11:35:02Z</time>
      </trkpt>
      <trkpt lat="45.70716" lon="5.65491">
        <ele>238</ele>
        <time>2017-04-24T11:35:02Z</time>
      </trkpt>
      <trkpt lat="45.70716" lon="5.65498">
        <ele>238</ele>
        <time>2017-04-24T11:35:18Z</time>
      </trkpt>
      <trkpt lat="45.70718" lon="5.65504">
        <ele>238</ele>
        <time>2017-04-24T11:35:18Z</time>
      </trkpt>
      <trkpt lat="45.70722" lon="5.65508">
        <ele>238</ele>
        <time>2017-04-24T11:35:18Z</time>
      </trkpt>
      <trkpt lat="45.70725" lon="5.65511">
        <ele>238</ele>
        <time>2017-04-24T11:35:18Z</time>
      </trkpt>
      <trkpt lat="45.70731" lon="5.65516">
        <ele>238</ele>
        <time>2017-04-24T11:35:34Z</time>
      </trkpt>
      <trkpt lat="45.70736" lon="5.65521">
        <ele>238</ele>
        <time>2017-04-24T11:35:34Z</time>
      </trkpt>
      <trkpt lat="45.7074" lon="5.65524">
        <ele>238</ele>
        <time>2017-04-24T11:35:34Z</time>
      </trkpt>
      <trkpt lat="45.70746" lon="5.65526">
        <ele>238</ele>
        <time>2017-04-24T11:35:34Z</time>
      </trkpt>
      <trkpt lat="45.70749" lon="5.65529">
        <ele>238</ele>
        <time>2017-04-24T11:36:34Z</time>
      </trkpt>
      <trkpt lat="45.70749" lon="5.65529">
        <ele>238</ele>
        <time>2017-04-24T11:36:34Z</time>
      </trkpt>
      <trkpt lat="45.70753" lon="5.6553">
        <ele>238</ele>
        <time>2017-04-24T11:36:34Z</time>
      </trkpt>
      <trkpt lat="45.70757" lon="5.65529">
        <ele>238</ele>
        <time>2017-04-24T11:36:34Z</time>
      </trkpt>
      <trkpt lat="45.7076" lon="5.65529">
        <ele>238</ele>
        <time>2017-04-24T11:36:34Z</time>
      </trkpt>
      <trkpt lat="45.70765" lon="5.65526">
        <ele>238</ele>
        <time>2017-04-24T11:36:50Z</time>
      </trkpt>
      <trkpt lat="45.70771" lon="5.65525">
        <ele>238</ele>
        <time>2017-04-24T11:36:50Z</time>
      </trkpt>
      <trkpt lat="45.70774" lon="5.65525">
        <ele>238</ele>
        <time>2017-04-24T11:36:50Z</time>
      </trkpt>
      <trkpt lat="45.70776" lon="5.65526">
        <ele>238</ele>
        <time>2017-04-24T11:36:50Z</time>
      </trkpt>
      <trkpt lat="45.70773" lon="5.65525">
        <ele>238</ele>
        <time>2017-04-24T11:40:18Z</time>
      </trkpt>
      <trkpt lat="45.70771" lon="5.65528">
        <ele>238</ele>
        <time>2017-04-24T11:40:18Z</time>
      </trkpt>
      <trkpt lat="45.70766" lon="5.65533">
        <ele>238</ele>
        <time>2017-04-24T11:40:18Z</time>
      </trkpt>
      <trkpt lat="45.70763" lon="5.65533">
        <ele>238</ele>
        <time>2017-04-24T11:40:18Z</time>
      </trkpt>
      <trkpt lat="45.70759" lon="5.65533">
        <ele>238</ele>
        <time>2017-04-24T11:40:18Z</time>
      </trkpt>
      <trkpt lat="45.70756" lon="5.6554">
        <ele>238</ele>
        <time>2017-04-24T11:41:06Z</time>
      </trkpt>
      <trkpt lat="45.70755" lon="5.6554">
        <ele>238</ele>
        <time>2017-04-24T11:41:06Z</time>
      </trkpt>
      <trkpt lat="45.70753" lon="5.6554">
        <ele>238</ele>
        <time>2017-04-24T11:41:06Z</time>
      </trkpt>
      <trkpt lat="45.70751" lon="5.65541">
        <ele>238</ele>
        <time>2017-04-24T11:41:06Z</time>
      </trkpt>
      <trkpt lat="45.70746" lon="5.65544">
        <ele>235</ele>
        <time>2017-04-24T11:41:06Z</time>
      </trkpt>
      <trkpt lat="45.7074" lon="5.65549">
        <ele>235</ele>
        <time>2017-04-24T11:41:26Z</time>
      </trkpt>
      <trkpt lat="45.70735" lon="5.65553">
        <ele>235</ele>
        <time>2017-04-24T11:41:26Z</time>
      </trkpt>
      <trkpt lat="45.70733" lon="5.65553">
        <ele>235</ele>
        <time>2017-04-24T11:41:26Z</time>
      </trkpt>
      <trkpt lat="45.70732" lon="5.65554">
        <ele>235</ele>
        <time>2017-04-24T11:41:26Z</time>
      </trkpt>
      <trkpt lat="45.70728" lon="5.65558">
        <ele>235</ele>
        <time>2017-04-24T11:41:26Z</time>
      </trkpt>
      <trkpt lat="45.70724" lon="5.65564">
        <ele>235</ele>
        <time>2017-04-24T11:41:42Z</time>
      </trkpt>
      <trkpt lat="45.70717" lon="5.65572">
        <ele>235</ele>
        <time>2017-04-24T11:41:42Z</time>
      </trkpt>
      <trkpt lat="45.70712" lon="5.6558">
        <ele>235</ele>
        <time>2017-04-24T11:41:42Z</time>
      </trkpt>
      <trkpt lat="45.70709" lon="5.65591">
        <ele>235</ele>
        <time>2017-04-24T11:41:42Z</time>
      </trkpt>
      <trkpt lat="45.70704" lon="5.656">
        <ele>236</ele>
        <time>2017-04-24T11:41:58Z</time>
      </trkpt>
      <trkpt lat="45.70701" lon="5.65607">
        <ele>236</ele>
        <time>2017-04-24T11:41:58Z</time>
      </trkpt>
      <trkpt lat="45.70696" lon="5.65616">
        <ele>236</ele>
        <time>2017-04-24T11:41:58Z</time>
      </trkpt>
      <trkpt lat="45.7069" lon="5.65623">
        <ele>236</ele>
        <time>2017-04-24T11:41:58Z</time>
      </trkpt>
      <trkpt lat="45.70684" lon="5.65627">
        <ele>229</ele>
        <time>2017-04-24T11:42:14Z</time>
      </trkpt>
      <trkpt lat="45.70677" lon="5.65633">
        <ele>229</ele>
        <time>2017-04-24T11:42:14Z</time>
      </trkpt>
      <trkpt lat="45.70671" lon="5.65638">
        <ele>229</ele>
        <time>2017-04-24T11:42:14Z</time>
      </trkpt>
      <trkpt lat="45.70664" lon="5.65644">
        <ele>229</ele>
        <time>2017-04-24T11:42:14Z</time>
      </trkpt>
      <trkpt lat="45.70659" lon="5.65648">
        <ele>229</ele>
        <time>2017-04-24T11:42:30Z</time>
      </trkpt>
      <trkpt lat="45.70654" lon="5.6565">
        <ele>229</ele>
        <time>2017-04-24T11:42:30Z</time>
      </trkpt>
      <trkpt lat="45.7065" lon="5.65652">
        <ele>229</ele>
        <time>2017-04-24T11:42:30Z</time>
      </trkpt>
      <trkpt lat="45.70645" lon="5.65657">
        <ele>229</ele>
        <time>2017-04-24T11:42:30Z</time>
      </trkpt>
      <trkpt lat="45.70638" lon="5.6566">
        <ele>229</ele>
        <time>2017-04-24T11:42:46Z</time>
      </trkpt>
      <trkpt lat="45.7063" lon="5.65663">
        <ele>229</ele>
        <time>2017-04-24T11:42:46Z</time>
      </trkpt>
      <trkpt lat="45.70624" lon="5.65665">
        <ele>231</ele>
        <time>2017-04-24T11:42:46Z</time>
      </trkpt>
      <trkpt lat="45.70619" lon="5.6567">
        <ele>231</ele>
        <time>2017-04-24T11:42:46Z</time>
      </trkpt>
      <trkpt lat="45.70613" lon="5.65674">
        <ele>231</ele>
        <time>2017-04-24T11:43:02Z</time>
      </trkpt>
      <trkpt lat="45.70608" lon="5.65679">
        <ele>231</ele>
        <time>2017-04-24T11:43:02Z</time>
      </trkpt>
      <trkpt lat="45.70601" lon="5.65685">
        <ele>231</ele>
        <time>2017-04-24T11:43:02Z</time>
      </trkpt>
      <trkpt lat="45.70598" lon="5.6569">
        <ele>231</ele>
        <time>2017-04-24T11:43:02Z</time>
      </trkpt>
      <trkpt lat="45.70593" lon="5.65696">
        <ele>231</ele>
        <time>2017-04-24T11:43:18Z</time>
      </trkpt>
      <trkpt lat="45.70588" lon="5.65702">
        <ele>231</ele>
        <time>2017-04-24T11:43:18Z</time>
      </trkpt>
      <trkpt lat="45.70584" lon="5.65708">
        <ele>231</ele>
        <time>2017-04-24T11:43:18Z</time>
      </trkpt>
      <trkpt lat="45.7058" lon="5.65717">
        <ele>226</ele>
        <time>2017-04-24T11:43:18Z</time>
      </trkpt>
      <trkpt lat="45.70577" lon="5.65724">
        <ele>226</ele>
        <time>2017-04-24T11:43:34Z</time>
      </trkpt>
      <trkpt lat="45.70573" lon="5.65733">
        <ele>226</ele>
        <time>2017-04-24T11:43:34Z</time>
      </trkpt>
      <trkpt lat="45.70571" lon="5.65743">
        <ele>226</ele>
        <time>2017-04-24T11:43:34Z</time>
      </trkpt>
      <trkpt lat="45.70568" lon="5.65753">
        <ele>226</ele>
        <time>2017-04-24T11:43:34Z</time>
      </trkpt>
      <trkpt lat="45.70565" lon="5.65762">
        <ele>226</ele>
        <time>2017-04-24T11:43:50Z</time>
      </trkpt>
      <trkpt lat="45.70563" lon="5.65771">
        <ele>226</ele>
        <time>2017-04-24T11:43:50Z</time>
      </trkpt>
      <trkpt lat="45.70559" lon="5.6578">
        <ele>226</ele>
        <time>2017-04-24T11:43:50Z</time>
      </trkpt>
      <trkpt lat="45.70554" lon="5.65791">
        <ele>226</ele>
        <time>2017-04-24T11:43:50Z</time>
      </trkpt>
      <trkpt lat="45.70551" lon="5.65798">
        <ele>225</ele>
        <time>2017-04-24T11:44:06Z</time>
      </trkpt>
      <trkpt lat="45.70547" lon="5.65808">
        <ele>225</ele>
        <time>2017-04-24T11:44:06Z</time>
      </trkpt>
      <trkpt lat="45.70543" lon="5.65817">
        <ele>225</ele>
        <time>2017-04-24T11:44:06Z</time>
      </trkpt>
      <trkpt lat="45.70538" lon="5.65826">
        <ele>229</ele>
        <time>2017-04-24T11:44:06Z</time>
      </trkpt>
      <trkpt lat="45.70534" lon="5.65833">
        <ele>229</ele>
        <time>2017-04-24T11:44:22Z</time>
      </trkpt>
      <trkpt lat="45.70529" lon="5.65838">
        <ele>229</ele>
        <time>2017-04-24T11:44:22Z</time>
      </trkpt>
      <trkpt lat="45.70515" lon="5.65847">
        <ele>229</ele>
        <time>2017-04-24T11:44:22Z</time>
      </trkpt>
      <trkpt lat="45.70503" lon="5.65851">
        <ele>229</ele>
        <time>2017-04-24T11:44:22Z</time>
      </trkpt>
      <trkpt lat="45.70492" lon="5.65854">
        <ele>229</ele>
        <time>2017-04-24T11:44:38Z</time>
      </trkpt>
      <trkpt lat="45.70479" lon="5.65855">
        <ele>229</ele>
        <time>2017-04-24T11:44:38Z</time>
      </trkpt>
      <trkpt lat="45.70469" lon="5.65856">
        <ele>229</ele>
        <time>2017-04-24T11:44:38Z</time>
      </trkpt>
      <trkpt lat="45.70456" lon="5.65859">
        <ele>231</ele>
        <time>2017-04-24T11:44:38Z</time>
      </trkpt>
      <trkpt lat="45.70441" lon="5.65862">
        <ele>231</ele>
        <time>2017-04-24T11:44:54Z</time>
      </trkpt>
      <trkpt lat="45.70424" lon="5.65867">
        <ele>231</ele>
        <time>2017-04-24T11:44:54Z</time>
      </trkpt>
      <trkpt lat="45.70408" lon="5.65872">
        <ele>231</ele>
        <time>2017-04-24T11:44:54Z</time>
      </trkpt>
      <trkpt lat="45.70391" lon="5.65883">
        <ele>224</ele>
        <time>2017-04-24T11:44:54Z</time>
      </trkpt>
      <trkpt lat="45.70382" lon="5.65895">
        <ele>224</ele>
        <time>2017-04-24T11:45:10Z</time>
      </trkpt>
      <trkpt lat="45.70371" lon="5.65914">
        <ele>228</ele>
        <time>2017-04-24T11:45:10Z</time>
      </trkpt>
      <trkpt lat="45.70359" lon="5.65932">
        <ele>228</ele>
        <time>2017-04-24T11:45:10Z</time>
      </trkpt>
      <trkpt lat="45.70342" lon="5.6596">
        <ele>226</ele>
        <time>2017-04-24T11:45:10Z</time>
      </trkpt>
      <trkpt lat="45.70332" lon="5.65977">
        <ele>226</ele>
        <time>2017-04-24T11:45:26Z</time>
      </trkpt>
      <trkpt lat="45.7032" lon="5.65992">
        <ele>226</ele>
        <time>2017-04-24T11:45:26Z</time>
      </trkpt>
      <trkpt lat="45.70308" lon="5.66007">
        <ele>226</ele>
        <time>2017-04-24T11:45:26Z</time>
      </trkpt>
      <trkpt lat="45.70291" lon="5.66022">
        <ele>228</ele>
        <time>2017-04-24T11:45:26Z</time>
      </trkpt>
      <trkpt lat="45.70273" lon="5.66038">
        <ele>228</ele>
        <time>2017-04-24T11:45:42Z</time>
      </trkpt>
      <trkpt lat="45.70256" lon="5.66055">
        <ele>226</ele>
        <time>2017-04-24T11:45:42Z</time>
      </trkpt>
      <trkpt lat="45.70239" lon="5.66074">
        <ele>226</ele>
        <time>2017-04-24T11:45:42Z</time>
      </trkpt>
      <trkpt lat="45.70219" lon="5.66085">
        <ele>226</ele>
        <time>2017-04-24T11:45:42Z</time>
      </trkpt>
      <trkpt lat="45.70202" lon="5.66101">
        <ele>225</ele>
        <time>2017-04-24T11:45:58Z</time>
      </trkpt>
      <trkpt lat="45.70184" lon="5.6612">
        <ele>225</ele>
        <time>2017-04-24T11:45:58Z</time>
      </trkpt>
      <trkpt lat="45.70162" lon="5.66135">
        <ele>226</ele>
        <time>2017-04-24T11:45:58Z</time>
      </trkpt>
      <trkpt lat="45.70144" lon="5.66157">
        <ele>226</ele>
        <time>2017-04-24T11:45:58Z</time>
      </trkpt>
      <trkpt lat="45.70125" lon="5.66174">
        <ele>227</ele>
        <time>2017-04-24T11:46:14Z</time>
      </trkpt>
      <trkpt lat="45.70104" lon="5.66192">
        <ele>227</ele>
        <time>2017-04-24T11:46:14Z</time>
      </trkpt>
      <trkpt lat="45.70087" lon="5.66213">
        <ele>225</ele>
        <time>2017-04-24T11:46:14Z</time>
      </trkpt>
      <trkpt lat="45.70064" lon="5.66236">
        <ele>225</ele>
        <time>2017-04-24T11:46:14Z</time>
      </trkpt>
      <trkpt lat="45.70047" lon="5.66259">
        <ele>225</ele>
        <time>2017-04-24T11:46:30Z</time>
      </trkpt>
      <trkpt lat="45.70037" lon="5.66274">
        <ele>231</ele>
        <time>2017-04-24T11:46:30Z</time>
      </trkpt>
      <trkpt lat="45.70028" lon="5.66285">
        <ele>231</ele>
        <time>2017-04-24T11:46:30Z</time>
      </trkpt>
      <trkpt lat="45.70021" lon="5.66291">
        <ele>231</ele>
        <time>2017-04-24T11:46:30Z</time>
      </trkpt>
      <trkpt lat="45.70017" lon="5.66297">
        <ele>226</ele>
        <time>2017-04-24T11:46:46Z</time>
      </trkpt>
      <trkpt lat="45.70012" lon="5.66303">
        <ele>226</ele>
        <time>2017-04-24T11:46:46Z</time>
      </trkpt>
      <trkpt lat="45.70008" lon="5.66308">
        <ele>226</ele>
        <time>2017-04-24T11:46:46Z</time>
      </trkpt>
      <trkpt lat="45.70004" lon="5.66315">
        <ele>226</ele>
        <time>2017-04-24T11:46:46Z</time>
      </trkpt>
      <trkpt lat="45.69999" lon="5.66325">
        <ele>226</ele>
        <time>2017-04-24T11:47:02Z</time>
      </trkpt>
      <trkpt lat="45.69996" lon="5.66334">
        <ele>226</ele>
        <time>2017-04-24T11:47:02Z</time>
      </trkpt>
      <trkpt lat="45.69993" lon="5.66338">
        <ele>226</ele>
        <time>2017-04-24T11:47:02Z</time>
      </trkpt>
      <trkpt lat="45.69987" lon="5.66347">
        <ele>226</ele>
        <time>2017-04-24T11:47:02Z</time>
      </trkpt>
      <trkpt lat="45.69984" lon="5.66353">
        <ele>226</ele>
        <time>2017-04-24T11:47:18Z</time>
      </trkpt>
      <trkpt lat="45.69979" lon="5.66359">
        <ele>226</ele>
        <time>2017-04-24T11:47:18Z</time>
      </trkpt>
      <trkpt lat="45.69975" lon="5.66365">
        <ele>226</ele>
        <time>2017-04-24T11:47:18Z</time>
      </trkpt>
      <trkpt lat="45.69968" lon="5.66372">
        <ele>226</ele>
        <time>2017-04-24T11:47:18Z</time>
      </trkpt>
      <trkpt lat="45.69965" lon="5.66377">
        <ele>223</ele>
        <time>2017-04-24T11:47:34Z</time>
      </trkpt>
      <trkpt lat="45.69961" lon="5.66388">
        <ele>223</ele>
        <time>2017-04-24T11:47:34Z</time>
      </trkpt>
      <trkpt lat="45.69965" lon="5.66408">
        <ele>223</ele>
        <time>2017-04-24T11:47:34Z</time>
      </trkpt>
      <trkpt lat="45.69987" lon="5.66449">
        <ele>223</ele>
        <time>2017-04-24T11:47:34Z</time>
      </trkpt>
      <trkpt lat="45.70002" lon="5.66479">
        <ele>224</ele>
        <time>2017-04-24T11:47:50Z</time>
      </trkpt>
      <trkpt lat="45.70016" lon="5.66507">
        <ele>224</ele>
        <time>2017-04-24T11:47:50Z</time>
      </trkpt>
      <trkpt lat="45.70036" lon="5.66547">
        <ele>225</ele>
        <time>2017-04-24T11:47:50Z</time>
      </trkpt>
      <trkpt lat="45.70054" lon="5.66585">
        <ele>229</ele>
        <time>2017-04-24T11:47:50Z</time>
      </trkpt>
      <trkpt lat="45.70073" lon="5.6663">
        <ele>229</ele>
        <time>2017-04-24T11:48:06Z</time>
      </trkpt>
      <trkpt lat="45.70083" lon="5.66654">
        <ele>229</ele>
        <time>2017-04-24T11:48:06Z</time>
      </trkpt>
      <trkpt lat="45.70095" lon="5.66681">
        <ele>229</ele>
        <time>2017-04-24T11:48:06Z</time>
      </trkpt>
      <trkpt lat="45.70103" lon="5.66703">
        <ele>229</ele>
        <time>2017-04-24T11:48:06Z</time>
      </trkpt>
      <trkpt lat="45.70104" lon="5.66712">
        <ele>230</ele>
        <time>2017-04-24T11:48:22Z</time>
      </trkpt>
      <trkpt lat="45.70101" lon="5.66719">
        <ele>230</ele>
        <time>2017-04-24T11:48:22Z</time>
      </trkpt>
      <trkpt lat="45.70094" lon="5.66722">
        <ele>230</ele>
        <time>2017-04-24T11:48:22Z</time>
      </trkpt>
      <trkpt lat="45.70088" lon="5.66726">
        <ele>230</ele>
        <time>2017-04-24T11:48:22Z</time>
      </trkpt>
      <trkpt lat="45.70084" lon="5.6673">
        <ele>230</ele>
        <time>2017-04-24T11:48:38Z</time>
      </trkpt>
      <trkpt lat="45.70081" lon="5.66734">
        <ele>230</ele>
        <time>2017-04-24T11:48:38Z</time>
      </trkpt>
      <trkpt lat="45.70077" lon="5.66738">
        <ele>230</ele>
        <time>2017-04-24T11:48:38Z</time>
      </trkpt>
      <trkpt lat="45.70072" lon="5.66745">
        <ele>230</ele>
        <time>2017-04-24T11:48:38Z</time>
      </trkpt>
      <trkpt lat="45.70068" lon="5.66751">
        <ele>230</ele>
        <time>2017-04-24T11:48:54Z</time>
      </trkpt>
      <trkpt lat="45.70064" lon="5.66755">
        <ele>230</ele>
        <time>2017-04-24T11:48:54Z</time>
      </trkpt>
      <trkpt lat="45.70059" lon="5.66762">
        <ele>230</ele>
        <time>2017-04-24T11:48:54Z</time>
      </trkpt>
      <trkpt lat="45.70055" lon="5.66769">
        <ele>230</ele>
        <time>2017-04-24T11:48:54Z</time>
      </trkpt>
      <trkpt lat="45.70049" lon="5.66777">
        <ele>230</ele>
        <time>2017-04-24T11:49:10Z</time>
      </trkpt>
      <trkpt lat="45.70045" lon="5.66781">
        <ele>230</ele>
        <time>2017-04-24T11:49:10Z</time>
      </trkpt>
      <trkpt lat="45.70041" lon="5.66786">
        <ele>228</ele>
        <time>2017-04-24T11:49:10Z</time>
      </trkpt>
      <trkpt lat="45.70035" lon="5.66792">
        <ele>229</ele>
        <time>2017-04-24T11:49:10Z</time>
      </trkpt>
      <trkpt lat="45.70029" lon="5.668">
        <ele>229</ele>
        <time>2017-04-24T11:49:26Z</time>
      </trkpt>
      <trkpt lat="45.70023" lon="5.66808">
        <ele>229</ele>
        <time>2017-04-24T11:49:26Z</time>
      </trkpt>
      <trkpt lat="45.7002" lon="5.66812">
        <ele>229</ele>
        <time>2017-04-24T11:49:26Z</time>
      </trkpt>
      <trkpt lat="45.70017" lon="5.66818">
        <ele>229</ele>
        <time>2017-04-24T11:49:26Z</time>
      </trkpt>
      <trkpt lat="45.70012" lon="5.66824">
        <ele>229</ele>
        <time>2017-04-24T11:49:42Z</time>
      </trkpt>
      <trkpt lat="45.70008" lon="5.66831">
        <ele>229</ele>
        <time>2017-04-24T11:49:42Z</time>
      </trkpt>
      <trkpt lat="45.70005" lon="5.66837">
        <ele>229</ele>
        <time>2017-04-24T11:49:42Z</time>
      </trkpt>
      <trkpt lat="45.70001" lon="5.66841">
        <ele>229</ele>
        <time>2017-04-24T11:49:42Z</time>
      </trkpt>
      <trkpt lat="45.69996" lon="5.66845">
        <ele>229</ele>
        <time>2017-04-24T11:49:58Z</time>
      </trkpt>
      <trkpt lat="45.69991" lon="5.66849">
        <ele>229</ele>
        <time>2017-04-24T11:49:58Z</time>
      </trkpt>
      <trkpt lat="45.69987" lon="5.66853">
        <ele>229</ele>
        <time>2017-04-24T11:49:58Z</time>
      </trkpt>
      <trkpt lat="45.69984" lon="5.66856">
        <ele>229</ele>
        <time>2017-04-24T11:49:58Z</time>
      </trkpt>
      <trkpt lat="45.69983" lon="5.66859">
        <ele>229</ele>
        <time>2017-04-24T11:50:54Z</time>
      </trkpt>
      <trkpt lat="45.69983" lon="5.66859">
        <ele>229</ele>
        <time>2017-04-24T11:50:54Z</time>
      </trkpt>
      <trkpt lat="45.69981" lon="5.66859">
        <ele>229</ele>
        <time>2017-04-24T11:50:54Z</time>
      </trkpt>
      <trkpt lat="45.6998" lon="5.66862">
        <ele>229</ele>
        <time>2017-04-24T11:50:54Z</time>
      </trkpt>
      <trkpt lat="45.69974" lon="5.66868">
        <ele>229</ele>
        <time>2017-04-24T11:50:54Z</time>
      </trkpt>
      <trkpt lat="45.69972" lon="5.66871">
        <ele>229</ele>
        <time>2017-04-24T11:51:10Z</time>
      </trkpt>
      <trkpt lat="45.69969" lon="5.66876">
        <ele>226</ele>
        <time>2017-04-24T11:51:10Z</time>
      </trkpt>
      <trkpt lat="45.69966" lon="5.66881">
        <ele>226</ele>
        <time>2017-04-24T11:51:10Z</time>
      </trkpt>
      <trkpt lat="45.69961" lon="5.66889">
        <ele>226</ele>
        <time>2017-04-24T11:51:10Z</time>
      </trkpt>
      <trkpt lat="45.69957" lon="5.66899">
        <ele>227</ele>
        <time>2017-04-24T11:51:26Z</time>
      </trkpt>
      <trkpt lat="45.69953" lon="5.66904">
        <ele>227</ele>
        <time>2017-04-24T11:51:26Z</time>
      </trkpt>
      <trkpt lat="45.69944" lon="5.66912">
        <ele>227</ele>
        <time>2017-04-24T11:51:26Z</time>
      </trkpt>
      <trkpt lat="45.69939" lon="5.66916">
        <ele>227</ele>
        <time>2017-04-24T11:51:26Z</time>
      </trkpt>
      <trkpt lat="45.69934" lon="5.66923">
        <ele>227</ele>
        <time>2017-04-24T11:51:42Z</time>
      </trkpt>
      <trkpt lat="45.69928" lon="5.66932">
        <ele>227</ele>
        <time>2017-04-24T11:51:42Z</time>
      </trkpt>
      <trkpt lat="45.69924" lon="5.66938">
        <ele>227</ele>
        <time>2017-04-24T11:51:42Z</time>
      </trkpt>
      <trkpt lat="45.69919" lon="5.66945">
        <ele>227</ele>
        <time>2017-04-24T11:51:42Z</time>
      </trkpt>
      <trkpt lat="45.69911" lon="5.66952">
        <ele>227</ele>
        <time>2017-04-24T11:51:58Z</time>
      </trkpt>
      <trkpt lat="45.69905" lon="5.66957">
        <ele>227</ele>
        <time>2017-04-24T11:51:58Z</time>
      </trkpt>
      <trkpt lat="45.699" lon="5.6696">
        <ele>226</ele>
        <time>2017-04-24T11:51:58Z</time>
      </trkpt>
      <trkpt lat="45.69894" lon="5.66964">
        <ele>226</ele>
        <time>2017-04-24T11:51:58Z</time>
      </trkpt>
      <trkpt lat="45.69888" lon="5.66966">
        <ele>226</ele>
        <time>2017-04-24T11:52:14Z</time>
      </trkpt>
      <trkpt lat="45.69881" lon="5.66969">
        <ele>226</ele>
        <time>2017-04-24T11:52:14Z</time>
      </trkpt>
      <trkpt lat="45.69873" lon="5.66971">
        <ele>226</ele>
        <time>2017-04-24T11:52:14Z</time>
      </trkpt>
      <trkpt lat="45.69869" lon="5.66973">
        <ele>226</ele>
        <time>2017-04-24T11:52:14Z</time>
      </trkpt>
      <trkpt lat="45.69861" lon="5.66975">
        <ele>226</ele>
        <time>2017-04-24T11:52:30Z</time>
      </trkpt>
      <trkpt lat="45.69857" lon="5.66975">
        <ele>226</ele>
        <time>2017-04-24T11:52:30Z</time>
      </trkpt>
      <trkpt lat="45.69849" lon="5.66976">
        <ele>226</ele>
        <time>2017-04-24T11:52:30Z</time>
      </trkpt>
      <trkpt lat="45.69843" lon="5.66977">
        <ele>226</ele>
        <time>2017-04-24T11:52:30Z</time>
      </trkpt>
      <trkpt lat="45.69836" lon="5.66978">
        <ele>226</ele>
        <time>2017-04-24T11:52:46Z</time>
      </trkpt>
      <trkpt lat="45.6983" lon="5.66978">
        <ele>226</ele>
        <time>2017-04-24T11:52:46Z</time>
      </trkpt>
      <trkpt lat="45.69824" lon="5.66977">
        <ele>226</ele>
        <time>2017-04-24T11:52:46Z</time>
      </trkpt>
      <trkpt lat="45.69818" lon="5.66978">
        <ele>226</ele>
        <time>2017-04-24T11:52:46Z</time>
      </trkpt>
      <trkpt lat="45.69811" lon="5.66978">
        <ele>226</ele>
        <time>2017-04-24T11:53:02Z</time>
      </trkpt>
      <trkpt lat="45.69805" lon="5.66976">
        <ele>226</ele>
        <time>2017-04-24T11:53:02Z</time>
      </trkpt>
      <trkpt lat="45.69798" lon="5.66974">
        <ele>226</ele>
        <time>2017-04-24T11:53:02Z</time>
      </trkpt>
      <trkpt lat="45.69794" lon="5.66973">
        <ele>226</ele>
        <time>2017-04-24T11:53:02Z</time>
      </trkpt>
      <trkpt lat="45.69787" lon="5.66971">
        <ele>224</ele>
        <time>2017-04-24T11:53:18Z</time>
      </trkpt>
      <trkpt lat="45.69779" lon="5.66969">
        <ele>224</ele>
        <time>2017-04-24T11:53:18Z</time>
      </trkpt>
      <trkpt lat="45.69772" lon="5.66967">
        <ele>224</ele>
        <time>2017-04-24T11:53:18Z</time>
      </trkpt>
      <trkpt lat="45.69766" lon="5.66965">
        <ele>224</ele>
        <time>2017-04-24T11:53:18Z</time>
      </trkpt>
      <trkpt lat="45.6976" lon="5.66964">
        <ele>224</ele>
        <time>2017-04-24T11:53:34Z</time>
      </trkpt>
      <trkpt lat="45.69755" lon="5.66963">
        <ele>224</ele>
        <time>2017-04-24T11:53:34Z</time>
      </trkpt>
      <trkpt lat="45.69748" lon="5.66961">
        <ele>224</ele>
        <time>2017-04-24T11:53:34Z</time>
      </trkpt>
      <trkpt lat="45.69739" lon="5.66959">
        <ele>224</ele>
        <time>2017-04-24T11:53:34Z</time>
      </trkpt>
      <trkpt lat="45.69734" lon="5.66956">
        <ele>223</ele>
        <time>2017-04-24T11:53:50Z</time>
      </trkpt>
      <trkpt lat="45.69729" lon="5.66953">
        <ele>223</ele>
        <time>2017-04-24T11:53:50Z</time>
      </trkpt>
      <trkpt lat="45.69723" lon="5.66951">
        <ele>223</ele>
        <time>2017-04-24T11:53:50Z</time>
      </trkpt>
      <trkpt lat="45.69717" lon="5.66948">
        <ele>223</ele>
        <time>2017-04-24T11:53:50Z</time>
      </trkpt>
      <trkpt lat="45.69712" lon="5.66946">
        <ele>223</ele>
        <time>2017-04-24T11:54:06Z</time>
      </trkpt>
      <trkpt lat="45.69707" lon="5.66944">
        <ele>222</ele>
        <time>2017-04-24T11:54:06Z</time>
      </trkpt>
      <trkpt lat="45.69701" lon="5.66941">
        <ele>222</ele>
        <time>2017-04-24T11:54:06Z</time>
      </trkpt>
      <trkpt lat="45.69696" lon="5.66944">
        <ele>222</ele>
        <time>2017-04-24T11:54:06Z</time>
      </trkpt>
      <trkpt lat="45.69691" lon="5.66954">
        <ele>222</ele>
        <time>2017-04-24T11:54:22Z</time>
      </trkpt>
      <trkpt lat="45.69689" lon="5.6696">
        <ele>224</ele>
        <time>2017-04-24T11:54:22Z</time>
      </trkpt>
      <trkpt lat="45.69687" lon="5.66968">
        <ele>224</ele>
        <time>2017-04-24T11:54:22Z</time>
      </trkpt>
      <trkpt lat="45.69685" lon="5.66978">
        <ele>224</ele>
        <time>2017-04-24T11:54:22Z</time>
      </trkpt>
      <trkpt lat="45.69683" lon="5.66986">
        <ele>224</ele>
        <time>2017-04-24T11:54:38Z</time>
      </trkpt>
      <trkpt lat="45.6968" lon="5.66995">
        <ele>224</ele>
        <time>2017-04-24T11:54:38Z</time>
      </trkpt>
      <trkpt lat="45.69678" lon="5.67003">
        <ele>224</ele>
        <time>2017-04-24T11:54:38Z</time>
      </trkpt>
      <trkpt lat="45.69675" lon="5.67016">
        <ele>224</ele>
        <time>2017-04-24T11:54:38Z</time>
      </trkpt>
      <trkpt lat="45.69672" lon="5.67023">
        <ele>224</ele>
        <time>2017-04-24T11:54:54Z</time>
      </trkpt>
      <trkpt lat="45.69671" lon="5.67031">
        <ele>224</ele>
        <time>2017-04-24T11:54:54Z</time>
      </trkpt>
      <trkpt lat="45.69667" lon="5.67041">
        <ele>224</ele>
        <time>2017-04-24T11:54:54Z</time>
      </trkpt>
      <trkpt lat="45.69665" lon="5.6705">
        <ele>224</ele>
        <time>2017-04-24T11:54:54Z</time>
      </trkpt>
      <trkpt lat="45.69662" lon="5.67057">
        <ele>224</ele>
        <time>2017-04-24T11:55:10Z</time>
      </trkpt>
      <trkpt lat="45.6966" lon="5.67068">
        <ele>224</ele>
        <time>2017-04-24T11:55:10Z</time>
      </trkpt>
      <trkpt lat="45.69658" lon="5.67078">
        <ele>224</ele>
        <time>2017-04-24T11:55:10Z</time>
      </trkpt>
      <trkpt lat="45.69656" lon="5.67088">
        <ele>224</ele>
        <time>2017-04-24T11:55:10Z</time>
      </trkpt>
      <trkpt lat="45.69654" lon="5.67098">
        <ele>224</ele>
        <time>2017-04-24T11:55:26Z</time>
      </trkpt>
      <trkpt lat="45.69653" lon="5.67106">
        <ele>224</ele>
        <time>2017-04-24T11:55:26Z</time>
      </trkpt>
      <trkpt lat="45.69654" lon="5.67117">
        <ele>224</ele>
        <time>2017-04-24T11:55:26Z</time>
      </trkpt>
      <trkpt lat="45.69651" lon="5.67127">
        <ele>225</ele>
        <time>2017-04-24T11:55:26Z</time>
      </trkpt>
      <trkpt lat="45.69649" lon="5.67135">
        <ele>225</ele>
        <time>2017-04-24T11:55:42Z</time>
      </trkpt>
      <trkpt lat="45.69648" lon="5.67143">
        <ele>225</ele>
        <time>2017-04-24T11:55:42Z</time>
      </trkpt>
      <trkpt lat="45.69647" lon="5.67152">
        <ele>225</ele>
        <time>2017-04-24T11:55:42Z</time>
      </trkpt>
      <trkpt lat="45.69645" lon="5.67158">
        <ele>225</ele>
        <time>2017-04-24T11:55:42Z</time>
      </trkpt>
      <trkpt lat="45.69642" lon="5.67169">
        <ele>225</ele>
        <time>2017-04-24T11:55:58Z</time>
      </trkpt>
      <trkpt lat="45.6964" lon="5.67179">
        <ele>225</ele>
        <time>2017-04-24T11:55:58Z</time>
      </trkpt>
      <trkpt lat="45.69639" lon="5.67187">
        <ele>225</ele>
        <time>2017-04-24T11:55:58Z</time>
      </trkpt>
      <trkpt lat="45.69638" lon="5.67199">
        <ele>225</ele>
        <time>2017-04-24T11:55:58Z</time>
      </trkpt>
      <trkpt lat="45.69637" lon="5.6721">
        <ele>224</ele>
        <time>2017-04-24T11:56:14Z</time>
      </trkpt>
      <trkpt lat="45.69636" lon="5.67217">
        <ele>224</ele>
        <time>2017-04-24T11:56:14Z</time>
      </trkpt>
      <trkpt lat="45.69636" lon="5.67227">
        <ele>224</ele>
        <time>2017-04-24T11:56:14Z</time>
      </trkpt>
      <trkpt lat="45.69636" lon="5.67236">
        <ele>224</ele>
        <time>2017-04-24T11:56:14Z</time>
      </trkpt>
      <trkpt lat="45.69635" lon="5.67246">
        <ele>224</ele>
        <time>2017-04-24T11:56:30Z</time>
      </trkpt>
      <trkpt lat="45.69635" lon="5.67252">
        <ele>224</ele>
        <time>2017-04-24T11:56:30Z</time>
      </trkpt>
      <trkpt lat="45.69634" lon="5.67261">
        <ele>224</ele>
        <time>2017-04-24T11:56:30Z</time>
      </trkpt>
      <trkpt lat="45.69634" lon="5.67272">
        <ele>224</ele>
        <time>2017-04-24T11:56:30Z</time>
      </trkpt>
      <trkpt lat="45.69634" lon="5.67283">
        <ele>224</ele>
        <time>2017-04-24T11:56:46Z</time>
      </trkpt>
      <trkpt lat="45.69634" lon="5.67292">
        <ele>222</ele>
        <time>2017-04-24T11:56:46Z</time>
      </trkpt>
      <trkpt lat="45.69633" lon="5.67301">
        <ele>222</ele>
        <time>2017-04-24T11:56:46Z</time>
      </trkpt>
      <trkpt lat="45.69632" lon="5.67312">
        <ele>222</ele>
        <time>2017-04-24T11:56:46Z</time>
      </trkpt>
      <trkpt lat="45.69632" lon="5.67319">
        <ele>222</ele>
        <time>2017-04-24T11:57:02Z</time>
      </trkpt>
      <trkpt lat="45.69631" lon="5.67329">
        <ele>222</ele>
        <time>2017-04-24T11:57:02Z</time>
      </trkpt>
      <trkpt lat="45.6963" lon="5.67338">
        <ele>222</ele>
        <time>2017-04-24T11:57:02Z</time>
      </trkpt>
      <trkpt lat="45.6963" lon="5.67348">
        <ele>222</ele>
        <time>2017-04-24T11:57:02Z</time>
      </trkpt>
      <trkpt lat="45.6963" lon="5.67361">
        <ele>222</ele>
        <time>2017-04-24T11:57:18Z</time>
      </trkpt>
      <trkpt lat="45.69631" lon="5.6737">
        <ele>222</ele>
        <time>2017-04-24T11:57:18Z</time>
      </trkpt>
      <trkpt lat="45.6963" lon="5.67379">
        <ele>219</ele>
        <time>2017-04-24T11:57:18Z</time>
      </trkpt>
      <trkpt lat="45.6963" lon="5.67385">
        <ele>219</ele>
        <time>2017-04-24T11:57:18Z</time>
      </trkpt>
      <trkpt lat="45.6963" lon="5.67395">
        <ele>219</ele>
        <time>2017-04-24T11:57:34Z</time>
      </trkpt>
      <trkpt lat="45.6963" lon="5.67406">
        <ele>219</ele>
        <time>2017-04-24T11:57:34Z</time>
      </trkpt>
      <trkpt lat="45.6963" lon="5.67416">
        <ele>219</ele>
        <time>2017-04-24T11:57:34Z</time>
      </trkpt>
      <trkpt lat="45.6963" lon="5.67424">
        <ele>219</ele>
        <time>2017-04-24T11:57:34Z</time>
      </trkpt>
      <trkpt lat="45.6963" lon="5.67433">
        <ele>219</ele>
        <time>2017-04-24T11:57:50Z</time>
      </trkpt>
      <trkpt lat="45.6963" lon="5.67444">
        <ele>219</ele>
        <time>2017-04-24T11:57:50Z</time>
      </trkpt>
      <trkpt lat="45.69629" lon="5.67452">
        <ele>219</ele>
        <time>2017-04-24T11:57:50Z</time>
      </trkpt>
      <trkpt lat="45.69629" lon="5.67462">
        <ele>220</ele>
        <time>2017-04-24T11:57:50Z</time>
      </trkpt>
      <trkpt lat="45.69629" lon="5.67471">
        <ele>220</ele>
        <time>2017-04-24T11:58:06Z</time>
      </trkpt>
      <trkpt lat="45.6963" lon="5.67481">
        <ele>220</ele>
        <time>2017-04-24T11:58:06Z</time>
      </trkpt>
      <trkpt lat="45.6963" lon="5.67491">
        <ele>220</ele>
        <time>2017-04-24T11:58:06Z</time>
      </trkpt>
      <trkpt lat="45.6963" lon="5.67497">
        <ele>220</ele>
        <time>2017-04-24T11:58:06Z</time>
      </trkpt>
      <trkpt lat="45.69631" lon="5.67509">
        <ele>220</ele>
        <time>2017-04-24T11:58:22Z</time>
      </trkpt>
      <trkpt lat="45.69631" lon="5.67517">
        <ele>220</ele>
        <time>2017-04-24T11:58:22Z</time>
      </trkpt>
      <trkpt lat="45.69632" lon="5.67526">
        <ele>220</ele>
        <time>2017-04-24T11:58:22Z</time>
      </trkpt>
      <trkpt lat="45.69633" lon="5.67533">
        <ele>220</ele>
        <time>2017-04-24T11:58:22Z</time>
      </trkpt>
      <trkpt lat="45.69634" lon="5.67541">
        <ele>220</ele>
        <time>2017-04-24T11:58:38Z</time>
      </trkpt>
      <trkpt lat="45.69635" lon="5.67551">
        <ele>222</ele>
        <time>2017-04-24T11:58:38Z</time>
      </trkpt>
      <trkpt lat="45.69636" lon="5.6756">
        <ele>222</ele>
        <time>2017-04-24T11:58:38Z</time>
      </trkpt>
      <trkpt lat="45.69637" lon="5.67569">
        <ele>222</ele>
        <time>2017-04-24T11:58:38Z</time>
      </trkpt>
      <trkpt lat="45.69638" lon="5.67575">
        <ele>222</ele>
        <time>2017-04-24T11:58:54Z</time>
      </trkpt>
      <trkpt lat="45.69638" lon="5.67584">
        <ele>222</ele>
        <time>2017-04-24T11:58:54Z</time>
      </trkpt>
      <trkpt lat="45.69638" lon="5.6759">
        <ele>222</ele>
        <time>2017-04-24T11:58:54Z</time>
      </trkpt>
      <trkpt lat="45.69638" lon="5.67597">
        <ele>222</ele>
        <time>2017-04-24T11:58:54Z</time>
      </trkpt>
      <trkpt lat="45.6964" lon="5.67602">
        <ele>222</ele>
        <time>2017-04-24T11:59:14Z</time>
      </trkpt>
      <trkpt lat="45.69642" lon="5.67603">
        <ele>222</ele>
        <time>2017-04-24T11:59:14Z</time>
      </trkpt>
      <trkpt lat="45.69642" lon="5.67604">
        <ele>222</ele>
        <time>2017-04-24T11:59:14Z</time>
      </trkpt>
      <trkpt lat="45.69643" lon="5.67607">
        <ele>222</ele>
        <time>2017-04-24T11:59:14Z</time>
      </trkpt>
      <trkpt lat="45.69648" lon="5.67617">
        <ele>222</ele>
        <time>2017-04-24T11:59:14Z</time>
      </trkpt>
      <trkpt lat="45.69652" lon="5.67626">
        <ele>222</ele>
        <time>2017-04-24T11:59:30Z</time>
      </trkpt>
      <trkpt lat="45.69658" lon="5.67634">
        <ele>222</ele>
        <time>2017-04-24T11:59:30Z</time>
      </trkpt>
      <trkpt lat="45.69662" lon="5.67645">
        <ele>222</ele>
        <time>2017-04-24T11:59:30Z</time>
      </trkpt>
      <trkpt lat="45.69665" lon="5.67659">
        <ele>222</ele>
        <time>2017-04-24T11:59:30Z</time>
      </trkpt>
      <trkpt lat="45.69668" lon="5.67669">
        <ele>222</ele>
        <time>2017-04-24T11:59:46Z</time>
      </trkpt>
      <trkpt lat="45.69669" lon="5.67679">
        <ele>222</ele>
        <time>2017-04-24T11:59:46Z</time>
      </trkpt>
      <trkpt lat="45.6967" lon="5.67688">
        <ele>222</ele>
        <time>2017-04-24T11:59:46Z</time>
      </trkpt>
      <trkpt lat="45.69672" lon="5.67698">
        <ele>222</ele>
        <time>2017-04-24T11:59:46Z</time>
      </trkpt>
      <trkpt lat="45.69672" lon="5.67708">
        <ele>222</ele>
        <time>2017-04-24T12:00:02Z</time>
      </trkpt>
      <trkpt lat="45.69673" lon="5.67714">
        <ele>222</ele>
        <time>2017-04-24T12:00:02Z</time>
      </trkpt>
      <trkpt lat="45.69674" lon="5.67725">
        <ele>222</ele>
        <time>2017-04-24T12:00:02Z</time>
      </trkpt>
      <trkpt lat="45.69675" lon="5.67734">
        <ele>222</ele>
        <time>2017-04-24T12:00:02Z</time>
      </trkpt>
      <trkpt lat="45.69676" lon="5.67741">
        <ele>222</ele>
        <time>2017-04-24T12:00:18Z</time>
      </trkpt>
      <trkpt lat="45.69678" lon="5.67753">
        <ele>222</ele>
        <time>2017-04-24T12:00:18Z</time>
      </trkpt>
      <trkpt lat="45.69678" lon="5.6776">
        <ele>222</ele>
        <time>2017-04-24T12:00:18Z</time>
      </trkpt>
      <trkpt lat="45.69677" lon="5.6777">
        <ele>222</ele>
        <time>2017-04-24T12:00:18Z</time>
      </trkpt>
      <trkpt lat="45.6968" lon="5.67779">
        <ele>222</ele>
        <time>2017-04-24T12:00:34Z</time>
      </trkpt>
      <trkpt lat="45.69681" lon="5.67788">
        <ele>222</ele>
        <time>2017-04-24T12:00:34Z</time>
      </trkpt>
      <trkpt lat="45.6968" lon="5.678">
        <ele>223</ele>
        <time>2017-04-24T12:00:34Z</time>
      </trkpt>
      <trkpt lat="45.69681" lon="5.67808">
        <ele>223</ele>
        <time>2017-04-24T12:00:34Z</time>
      </trkpt>
      <trkpt lat="45.69683" lon="5.67818">
        <ele>223</ele>
        <time>2017-04-24T12:00:50Z</time>
      </trkpt>
      <trkpt lat="45.69684" lon="5.67825">
        <ele>223</ele>
        <time>2017-04-24T12:00:50Z</time>
      </trkpt>
      <trkpt lat="45.69685" lon="5.67834">
        <ele>223</ele>
        <time>2017-04-24T12:00:50Z</time>
      </trkpt>
      <trkpt lat="45.69687" lon="5.67842">
        <ele>223</ele>
        <time>2017-04-24T12:00:50Z</time>
      </trkpt>
      <trkpt lat="45.69685" lon="5.67849">
        <ele>223</ele>
        <time>2017-04-24T12:01:06Z</time>
      </trkpt>
      <trkpt lat="45.69681" lon="5.67851">
        <ele>223</ele>
        <time>2017-04-24T12:01:06Z</time>
      </trkpt>
      <trkpt lat="45.69674" lon="5.67852">
        <ele>223</ele>
        <time>2017-04-24T12:01:06Z</time>
      </trkpt>
      <trkpt lat="45.69669" lon="5.67852">
        <ele>223</ele>
        <time>2017-04-24T12:01:06Z</time>
      </trkpt>
      <trkpt lat="45.69664" lon="5.67852">
        <ele>223</ele>
        <time>2017-04-24T12:01:22Z</time>
      </trkpt>
      <trkpt lat="45.69656" lon="5.67854">
        <ele>223</ele>
        <time>2017-04-24T12:01:22Z</time>
      </trkpt>
      <trkpt lat="45.69651" lon="5.67854">
        <ele>223</ele>
        <time>2017-04-24T12:01:22Z</time>
      </trkpt>
      <trkpt lat="45.69645" lon="5.67855">
        <ele>223</ele>
        <time>2017-04-24T12:01:22Z</time>
      </trkpt>
      <trkpt lat="45.69639" lon="5.67856">
        <ele>223</ele>
        <time>2017-04-24T12:01:38Z</time>
      </trkpt>
      <trkpt lat="45.69632" lon="5.67858">
        <ele>223</ele>
        <time>2017-04-24T12:01:38Z</time>
      </trkpt>
      <trkpt lat="45.69627" lon="5.67859">
        <ele>223</ele>
        <time>2017-04-24T12:01:38Z</time>
      </trkpt>
      <trkpt lat="45.69618" lon="5.67861">
        <ele>220</ele>
        <time>2017-04-24T12:01:38Z</time>
      </trkpt>
      <trkpt lat="45.69611" lon="5.67862">
        <ele>220</ele>
        <time>2017-04-24T12:01:54Z</time>
      </trkpt>
      <trkpt lat="45.69606" lon="5.67864">
        <ele>220</ele>
        <time>2017-04-24T12:01:54Z</time>
      </trkpt>
      <trkpt lat="45.69598" lon="5.67865">
        <ele>220</ele>
        <time>2017-04-24T12:01:54Z</time>
      </trkpt>
      <trkpt lat="45.69586" lon="5.67866">
        <ele>220</ele>
        <time>2017-04-24T12:01:54Z</time>
      </trkpt>
      <trkpt lat="45.69568" lon="5.67866">
        <ele>220</ele>
        <time>2017-04-24T12:02:10Z</time>
      </trkpt>
      <trkpt lat="45.69549" lon="5.67864">
        <ele>220</ele>
        <time>2017-04-24T12:02:10Z</time>
      </trkpt>
      <trkpt lat="45.69533" lon="5.67862">
        <ele>220</ele>
        <time>2017-04-24T12:02:10Z</time>
      </trkpt>
      <trkpt lat="45.69505" lon="5.67864">
        <ele>220</ele>
        <time>2017-04-24T12:02:10Z</time>
      </trkpt>
      <trkpt lat="45.69487" lon="5.67864">
        <ele>220</ele>
        <time>2017-04-24T12:02:26Z</time>
      </trkpt>
      <trkpt lat="45.69471" lon="5.67862">
        <ele>220</ele>
        <time>2017-04-24T12:02:26Z</time>
      </trkpt>
      <trkpt lat="45.69445" lon="5.67863">
        <ele>221</ele>
        <time>2017-04-24T12:02:26Z</time>
      </trkpt>
      <trkpt lat="45.69431" lon="5.67861">
        <ele>221</ele>
        <time>2017-04-24T12:02:26Z</time>
      </trkpt>
      <trkpt lat="45.69412" lon="5.67862">
        <ele>221</ele>
        <time>2017-04-24T12:02:42Z</time>
      </trkpt>
      <trkpt lat="45.69389" lon="5.67863">
        <ele>221</ele>
        <time>2017-04-24T12:02:42Z</time>
      </trkpt>
      <trkpt lat="45.69373" lon="5.67866">
        <ele>222</ele>
        <time>2017-04-24T12:02:42Z</time>
      </trkpt>
      <trkpt lat="45.69355" lon="5.67865">
        <ele>222</ele>
        <time>2017-04-24T12:02:42Z</time>
      </trkpt>
      <trkpt lat="45.69342" lon="5.67867">
        <ele>222</ele>
        <time>2017-04-24T12:02:58Z</time>
      </trkpt>
      <trkpt lat="45.69335" lon="5.67865">
        <ele>222</ele>
        <time>2017-04-24T12:02:58Z</time>
      </trkpt>
      <trkpt lat="45.69331" lon="5.67865">
        <ele>222</ele>
        <time>2017-04-24T12:02:58Z</time>
      </trkpt>
      <trkpt lat="45.69325" lon="5.67864">
        <ele>222</ele>
        <time>2017-04-24T12:02:58Z</time>
      </trkpt>
      <trkpt lat="45.69319" lon="5.67862">
        <ele>222</ele>
        <time>2017-04-24T12:03:14Z</time>
      </trkpt>
      <trkpt lat="45.69311" lon="5.6786">
        <ele>222</ele>
        <time>2017-04-24T12:03:14Z</time>
      </trkpt>
      <trkpt lat="45.69306" lon="5.67859">
        <ele>222</ele>
        <time>2017-04-24T12:03:14Z</time>
      </trkpt>
      <trkpt lat="45.69299" lon="5.67855">
        <ele>222</ele>
        <time>2017-04-24T12:03:14Z</time>
      </trkpt>
      <trkpt lat="45.69294" lon="5.67854">
        <ele>222</ele>
        <time>2017-04-24T12:03:30Z</time>
      </trkpt>
      <trkpt lat="45.69287" lon="5.67853">
        <ele>223</ele>
        <time>2017-04-24T12:03:30Z</time>
      </trkpt>
      <trkpt lat="45.6928" lon="5.6785">
        <ele>223</ele>
        <time>2017-04-24T12:03:30Z</time>
      </trkpt>
      <trkpt lat="45.69275" lon="5.67843">
        <ele>223</ele>
        <time>2017-04-24T12:03:30Z</time>
      </trkpt>
      <trkpt lat="45.69274" lon="5.67834">
        <ele>223</ele>
        <time>2017-04-24T12:03:46Z</time>
      </trkpt>
      <trkpt lat="45.69272" lon="5.67825">
        <ele>223</ele>
        <time>2017-04-24T12:03:46Z</time>
      </trkpt>
      <trkpt lat="45.69269" lon="5.67814">
        <ele>223</ele>
        <time>2017-04-24T12:03:46Z</time>
      </trkpt>
      <trkpt lat="45.69266" lon="5.67808">
        <ele>223</ele>
        <time>2017-04-24T12:03:46Z</time>
      </trkpt>
      <trkpt lat="45.69262" lon="5.67798">
        <ele>223</ele>
        <time>2017-04-24T12:04:02Z</time>
      </trkpt>
      <trkpt lat="45.69258" lon="5.6779">
        <ele>224</ele>
        <time>2017-04-24T12:04:02Z</time>
      </trkpt>
      <trkpt lat="45.69253" lon="5.67785">
        <ele>224</ele>
        <time>2017-04-24T12:04:02Z</time>
      </trkpt>
      <trkpt lat="45.69249" lon="5.6778">
        <ele>224</ele>
        <time>2017-04-24T12:04:02Z</time>
      </trkpt>
      <trkpt lat="45.69246" lon="5.67778">
        <ele>224</ele>
        <time>2017-04-24T12:04:18Z</time>
      </trkpt>
      <trkpt lat="45.69238" lon="5.67772">
        <ele>224</ele>
        <time>2017-04-24T12:04:18Z</time>
      </trkpt>
      <trkpt lat="45.69234" lon="5.6777">
        <ele>224</ele>
        <time>2017-04-24T12:04:18Z</time>
      </trkpt>
      <trkpt lat="45.69227" lon="5.67768">
        <ele>224</ele>
        <time>2017-04-24T12:04:18Z</time>
      </trkpt>
      <trkpt lat="45.69221" lon="5.67762">
        <ele>224</ele>
        <time>2017-04-24T12:04:34Z</time>
      </trkpt>
      <trkpt lat="45.69216" lon="5.67757">
        <ele>224</ele>
        <time>2017-04-24T12:04:34Z</time>
      </trkpt>
      <trkpt lat="45.6921" lon="5.67754">
        <ele>224</ele>
        <time>2017-04-24T12:04:34Z</time>
      </trkpt>
      <trkpt lat="45.69204" lon="5.67751">
        <ele>229</ele>
        <time>2017-04-24T12:04:34Z</time>
      </trkpt>
      <trkpt lat="45.69198" lon="5.6775">
        <ele>229</ele>
        <time>2017-04-24T12:04:50Z</time>
      </trkpt>
      <trkpt lat="45.69192" lon="5.67752">
        <ele>229</ele>
        <time>2017-04-24T12:04:50Z</time>
      </trkpt>
      <trkpt lat="45.69185" lon="5.67754">
        <ele>229</ele>
        <time>2017-04-24T12:04:50Z</time>
      </trkpt>
      <trkpt lat="45.69178" lon="5.67758">
        <ele>229</ele>
        <time>2017-04-24T12:04:50Z</time>
      </trkpt>
      <trkpt lat="45.69173" lon="5.6776">
        <ele>229</ele>
        <time>2017-04-24T12:05:06Z</time>
      </trkpt>
      <trkpt lat="45.69167" lon="5.67763">
        <ele>229</ele>
        <time>2017-04-24T12:05:06Z</time>
      </trkpt>
      <trkpt lat="45.69158" lon="5.67768">
        <ele>229</ele>
        <time>2017-04-24T12:05:06Z</time>
      </trkpt>
      <trkpt lat="45.6915" lon="5.6777">
        <ele>229</ele>
        <time>2017-04-24T12:05:06Z</time>
      </trkpt>
      <trkpt lat="45.69146" lon="5.67771">
        <ele>229</ele>
        <time>2017-04-24T12:05:22Z</time>
      </trkpt>
      <trkpt lat="45.69138" lon="5.67775">
        <ele>229</ele>
        <time>2017-04-24T12:05:22Z</time>
      </trkpt>
      <trkpt lat="45.69134" lon="5.67777">
        <ele>229</ele>
        <time>2017-04-24T12:05:22Z</time>
      </trkpt>
      <trkpt lat="45.69127" lon="5.67781">
        <ele>229</ele>
        <time>2017-04-24T12:05:22Z</time>
      </trkpt>
      <trkpt lat="45.6912" lon="5.67785">
        <ele>231</ele>
        <time>2017-04-24T12:05:38Z</time>
      </trkpt>
      <trkpt lat="45.69114" lon="5.67788">
        <ele>231</ele>
        <time>2017-04-24T12:05:38Z</time>
      </trkpt>
      <trkpt lat="45.69108" lon="5.67792">
        <ele>231</ele>
        <time>2017-04-24T12:05:38Z</time>
      </trkpt>
      <trkpt lat="45.69103" lon="5.67797">
        <ele>231</ele>
        <time>2017-04-24T12:05:38Z</time>
      </trkpt>
      <trkpt lat="45.69097" lon="5.67798">
        <ele>231</ele>
        <time>2017-04-24T12:05:54Z</time>
      </trkpt>
      <trkpt lat="45.69091" lon="5.67801">
        <ele>231</ele>
        <time>2017-04-24T12:05:54Z</time>
      </trkpt>
      <trkpt lat="45.69085" lon="5.67804">
        <ele>231</ele>
        <time>2017-04-24T12:05:54Z</time>
      </trkpt>
      <trkpt lat="45.69079" lon="5.67808">
        <ele>231</ele>
        <time>2017-04-24T12:05:54Z</time>
      </trkpt>
      <trkpt lat="45.69071" lon="5.67808">
        <ele>231</ele>
        <time>2017-04-24T12:06:10Z</time>
      </trkpt>
      <trkpt lat="45.69066" lon="5.67805">
        <ele>231</ele>
        <time>2017-04-24T12:06:10Z</time>
      </trkpt>
      <trkpt lat="45.6906" lon="5.678">
        <ele>231</ele>
        <time>2017-04-24T12:06:10Z</time>
      </trkpt>
      <trkpt lat="45.69054" lon="5.67796">
        <ele>231</ele>
        <time>2017-04-24T12:06:10Z</time>
      </trkpt>
      <trkpt lat="45.69049" lon="5.67792">
        <ele>231</ele>
        <time>2017-04-24T12:06:26Z</time>
      </trkpt>
      <trkpt lat="45.69043" lon="5.67788">
        <ele>231</ele>
        <time>2017-04-24T12:06:26Z</time>
      </trkpt>
      <trkpt lat="45.69036" lon="5.67783">
        <ele>234</ele>
        <time>2017-04-24T12:06:26Z</time>
      </trkpt>
      <trkpt lat="45.69033" lon="5.67781">
        <ele>234</ele>
        <time>2017-04-24T12:06:26Z</time>
      </trkpt>
      <trkpt lat="45.69035" lon="5.67781">
        <ele>234</ele>
        <time>2017-04-24T12:06:50Z</time>
      </trkpt>
      <trkpt lat="45.69032" lon="5.6778">
        <ele>234</ele>
        <time>2017-04-24T12:06:50Z</time>
      </trkpt>
      <trkpt lat="45.69031" lon="5.6778">
        <ele>234</ele>
        <time>2017-04-24T12:06:50Z</time>
      </trkpt>
      <trkpt lat="45.69028" lon="5.67777">
        <ele>234</ele>
        <time>2017-04-24T12:06:50Z</time>
      </trkpt>
      <trkpt lat="45.69021" lon="5.67772">
        <ele>234</ele>
        <time>2017-04-24T12:06:50Z</time>
      </trkpt>
      <trkpt lat="45.69016" lon="5.67767">
        <ele>234</ele>
        <time>2017-04-24T12:07:06Z</time>
      </trkpt>
      <trkpt lat="45.69012" lon="5.67764">
        <ele>234</ele>
        <time>2017-04-24T12:07:06Z</time>
      </trkpt>
      <trkpt lat="45.69005" lon="5.67761">
        <ele>234</ele>
        <time>2017-04-24T12:07:06Z</time>
      </trkpt>
      <trkpt lat="45.69002" lon="5.67759">
        <ele>234</ele>
        <time>2017-04-24T12:07:06Z</time>
      </trkpt>
      <trkpt lat="45.68997" lon="5.67754">
        <ele>234</ele>
        <time>2017-04-24T12:07:22Z</time>
      </trkpt>
      <trkpt lat="45.68991" lon="5.6775">
        <ele>234</ele>
        <time>2017-04-24T12:07:22Z</time>
      </trkpt>
      <trkpt lat="45.68986" lon="5.67745">
        <ele>234</ele>
        <time>2017-04-24T12:07:22Z</time>
      </trkpt>
      <trkpt lat="45.68981" lon="5.67744">
        <ele>234</ele>
        <time>2017-04-24T12:07:22Z</time>
      </trkpt>
      <trkpt lat="45.68974" lon="5.67752">
        <ele>234</ele>
        <time>2017-04-24T12:07:38Z</time>
      </trkpt>
      <trkpt lat="45.68967" lon="5.67758">
        <ele>234</ele>
        <time>2017-04-24T12:07:38Z</time>
      </trkpt>
      <trkpt lat="45.68961" lon="5.67763">
        <ele>234</ele>
        <time>2017-04-24T12:07:38Z</time>
      </trkpt>
      <trkpt lat="45.68956" lon="5.67767">
        <ele>237</ele>
        <time>2017-04-24T12:07:38Z</time>
      </trkpt>
      <trkpt lat="45.68952" lon="5.6777">
        <ele>237</ele>
        <time>2017-04-24T12:07:54Z</time>
      </trkpt>
      <trkpt lat="45.68948" lon="5.67769">
        <ele>237</ele>
        <time>2017-04-24T12:07:54Z</time>
      </trkpt>
      <trkpt lat="45.68945" lon="5.67771">
        <ele>237</ele>
        <time>2017-04-24T12:07:54Z</time>
      </trkpt>
      <trkpt lat="45.68939" lon="5.67777">
        <ele>237</ele>
        <time>2017-04-24T12:07:54Z</time>
      </trkpt>
      <trkpt lat="45.68934" lon="5.67781">
        <ele>237</ele>
        <time>2017-04-24T12:08:10Z</time>
      </trkpt>
      <trkpt lat="45.6893" lon="5.67786">
        <ele>237</ele>
        <time>2017-04-24T12:08:10Z</time>
      </trkpt>
      <trkpt lat="45.68922" lon="5.67794">
        <ele>235</ele>
        <time>2017-04-24T12:08:10Z</time>
      </trkpt>
      <trkpt lat="45.68914" lon="5.67798">
        <ele>235</ele>
        <time>2017-04-24T12:08:10Z</time>
      </trkpt>
      <trkpt lat="45.68909" lon="5.67802">
        <ele>235</ele>
        <time>2017-04-24T12:08:26Z</time>
      </trkpt>
      <trkpt lat="45.68902" lon="5.6781">
        <ele>235</ele>
        <time>2017-04-24T12:08:26Z</time>
      </trkpt>
      <trkpt lat="45.68896" lon="5.67815">
        <ele>235</ele>
        <time>2017-04-24T12:08:26Z</time>
      </trkpt>
      <trkpt lat="45.68892" lon="5.67819">
        <ele>235</ele>
        <time>2017-04-24T12:08:26Z</time>
      </trkpt>
      <trkpt lat="45.68888" lon="5.67825">
        <ele>235</ele>
        <time>2017-04-24T12:08:42Z</time>
      </trkpt>
      <trkpt lat="45.68884" lon="5.6783">
        <ele>235</ele>
        <time>2017-04-24T12:08:42Z</time>
      </trkpt>
      <trkpt lat="45.68876" lon="5.67837">
        <ele>235</ele>
        <time>2017-04-24T12:08:42Z</time>
      </trkpt>
      <trkpt lat="45.68872" lon="5.67842">
        <ele>236</ele>
        <time>2017-04-24T12:08:42Z</time>
      </trkpt>
      <trkpt lat="45.68865" lon="5.67848">
        <ele>236</ele>
        <time>2017-04-24T12:08:58Z</time>
      </trkpt>
      <trkpt lat="45.6886" lon="5.67854">
        <ele>236</ele>
        <time>2017-04-24T12:08:58Z</time>
      </trkpt>
      <trkpt lat="45.68856" lon="5.67858">
        <ele>236</ele>
        <time>2017-04-24T12:08:58Z</time>
      </trkpt>
      <trkpt lat="45.68852" lon="5.67861">
        <ele>236</ele>
        <time>2017-04-24T12:08:58Z</time>
      </trkpt>
      <trkpt lat="45.68843" lon="5.67869">
        <ele>236</ele>
        <time>2017-04-24T12:09:14Z</time>
      </trkpt>
      <trkpt lat="45.68838" lon="5.67873">
        <ele>236</ele>
        <time>2017-04-24T12:09:14Z</time>
      </trkpt>
      <trkpt lat="45.68832" lon="5.67877">
        <ele>237</ele>
        <time>2017-04-24T12:09:14Z</time>
      </trkpt>
      <trkpt lat="45.68829" lon="5.6788">
        <ele>237</ele>
        <time>2017-04-24T12:09:14Z</time>
      </trkpt>
      <trkpt lat="45.68824" lon="5.67888">
        <ele>237</ele>
        <time>2017-04-24T12:09:30Z</time>
      </trkpt>
      <trkpt lat="45.6882" lon="5.67894">
        <ele>237</ele>
        <time>2017-04-24T12:09:30Z</time>
      </trkpt>
      <trkpt lat="45.68814" lon="5.67899">
        <ele>237</ele>
        <time>2017-04-24T12:09:30Z</time>
      </trkpt>
      <trkpt lat="45.68807" lon="5.67906">
        <ele>237</ele>
        <time>2017-04-24T12:09:30Z</time>
      </trkpt>
      <trkpt lat="45.68803" lon="5.67911">
        <ele>237</ele>
        <time>2017-04-24T12:09:46Z</time>
      </trkpt>
      <trkpt lat="45.68796" lon="5.67917">
        <ele>237</ele>
        <time>2017-04-24T12:09:46Z</time>
      </trkpt>
      <trkpt lat="45.68791" lon="5.67921">
        <ele>235</ele>
        <time>2017-04-24T12:09:46Z</time>
      </trkpt>
      <trkpt lat="45.68786" lon="5.67927">
        <ele>235</ele>
        <time>2017-04-24T12:09:46Z</time>
      </trkpt>
      <trkpt lat="45.68781" lon="5.67932">
        <ele>235</ele>
        <time>2017-04-24T12:10:02Z</time>
      </trkpt>
      <trkpt lat="45.68776" lon="5.67937">
        <ele>235</ele>
        <time>2017-04-24T12:10:02Z</time>
      </trkpt>
      <trkpt lat="45.68769" lon="5.67944">
        <ele>235</ele>
        <time>2017-04-24T12:10:02Z</time>
      </trkpt>
      <trkpt lat="45.68765" lon="5.67949">
        <ele>235</ele>
        <time>2017-04-24T12:10:02Z</time>
      </trkpt>
      <trkpt lat="45.68761" lon="5.67955">
        <ele>235</ele>
        <time>2017-04-24T12:10:18Z</time>
      </trkpt>
      <trkpt lat="45.68755" lon="5.67961">
        <ele>234</ele>
        <time>2017-04-24T12:10:18Z</time>
      </trkpt>
      <trkpt lat="45.68747" lon="5.67967">
        <ele>234</ele>
        <time>2017-04-24T12:10:18Z</time>
      </trkpt>
      <trkpt lat="45.68743" lon="5.67972">
        <ele>234</ele>
        <time>2017-04-24T12:10:18Z</time>
      </trkpt>
      <trkpt lat="45.68737" lon="5.67977">
        <ele>234</ele>
        <time>2017-04-24T12:10:34Z</time>
      </trkpt>
      <trkpt lat="45.68731" lon="5.67981">
        <ele>234</ele>
        <time>2017-04-24T12:10:34Z</time>
      </trkpt>
      <trkpt lat="45.68723" lon="5.67988">
        <ele>234</ele>
        <time>2017-04-24T12:10:34Z</time>
      </trkpt>
      <trkpt lat="45.68719" lon="5.67992">
        <ele>234</ele>
        <time>2017-04-24T12:10:34Z</time>
      </trkpt>
      <trkpt lat="45.68712" lon="5.67997">
        <ele>234</ele>
        <time>2017-04-24T12:10:50Z</time>
      </trkpt>
      <trkpt lat="45.68706" lon="5.68001">
        <ele>234</ele>
        <time>2017-04-24T12:10:50Z</time>
      </trkpt>
      <trkpt lat="45.68699" lon="5.68005">
        <ele>234</ele>
        <time>2017-04-24T12:10:50Z</time>
      </trkpt>
      <trkpt lat="45.68694" lon="5.6801">
        <ele>234</ele>
        <time>2017-04-24T12:10:50Z</time>
      </trkpt>
      <trkpt lat="45.68688" lon="5.68015">
        <ele>234</ele>
        <time>2017-04-24T12:11:06Z</time>
      </trkpt>
      <trkpt lat="45.68682" lon="5.68022">
        <ele>234</ele>
        <time>2017-04-24T12:11:06Z</time>
      </trkpt>
      <trkpt lat="45.68674" lon="5.68028">
        <ele>234</ele>
        <time>2017-04-24T12:11:06Z</time>
      </trkpt>
      <trkpt lat="45.6867" lon="5.68034">
        <ele>234</ele>
        <time>2017-04-24T12:11:06Z</time>
      </trkpt>
      <trkpt lat="45.68667" lon="5.68039">
        <ele>234</ele>
        <time>2017-04-24T12:11:22Z</time>
      </trkpt>
      <trkpt lat="45.68662" lon="5.68045">
        <ele>234</ele>
        <time>2017-04-24T12:11:22Z</time>
      </trkpt>
      <trkpt lat="45.68656" lon="5.6805">
        <ele>234</ele>
        <time>2017-04-24T12:11:22Z</time>
      </trkpt>
      <trkpt lat="45.68651" lon="5.68056">
        <ele>234</ele>
        <time>2017-04-24T12:11:22Z</time>
      </trkpt>
      <trkpt lat="45.68647" lon="5.68063">
        <ele>234</ele>
        <time>2017-04-24T12:11:38Z</time>
      </trkpt>
      <trkpt lat="45.68642" lon="5.68068">
        <ele>234</ele>
        <time>2017-04-24T12:11:38Z</time>
      </trkpt>
      <trkpt lat="45.68635" lon="5.68074">
        <ele>234</ele>
        <time>2017-04-24T12:11:38Z</time>
      </trkpt>
      <trkpt lat="45.68632" lon="5.68077">
        <ele>234</ele>
        <time>2017-04-24T12:11:38Z</time>
      </trkpt>
      <trkpt lat="45.68626" lon="5.68083">
        <ele>234</ele>
        <time>2017-04-24T12:11:54Z</time>
      </trkpt>
      <trkpt lat="45.68621" lon="5.68089">
        <ele>233</ele>
        <time>2017-04-24T12:11:54Z</time>
      </trkpt>
      <trkpt lat="45.68615" lon="5.68098">
        <ele>233</ele>
        <time>2017-04-24T12:11:54Z</time>
      </trkpt>
      <trkpt lat="45.68611" lon="5.68103">
        <ele>233</ele>
        <time>2017-04-24T12:11:54Z</time>
      </trkpt>
      <trkpt lat="45.68605" lon="5.68107">
        <ele>233</ele>
        <time>2017-04-24T12:12:10Z</time>
      </trkpt>
      <trkpt lat="45.68599" lon="5.68112">
        <ele>233</ele>
        <time>2017-04-24T12:12:10Z</time>
      </trkpt>
      <trkpt lat="45.68592" lon="5.6812">
        <ele>233</ele>
        <time>2017-04-24T12:12:10Z</time>
      </trkpt>
      <trkpt lat="45.68589" lon="5.68125">
        <ele>233</ele>
        <time>2017-04-24T12:12:10Z</time>
      </trkpt>
      <trkpt lat="45.68585" lon="5.68132">
        <ele>233</ele>
        <time>2017-04-24T12:12:26Z</time>
      </trkpt>
      <trkpt lat="45.6858" lon="5.68138">
        <ele>233</ele>
        <time>2017-04-24T12:12:26Z</time>
      </trkpt>
      <trkpt lat="45.68574" lon="5.68146">
        <ele>233</ele>
        <time>2017-04-24T12:12:26Z</time>
      </trkpt>
      <trkpt lat="45.6857" lon="5.6815">
        <ele>233</ele>
        <time>2017-04-24T12:12:26Z</time>
      </trkpt>
      <trkpt lat="45.68564" lon="5.68155">
        <ele>233</ele>
        <time>2017-04-24T12:12:42Z</time>
      </trkpt>
      <trkpt lat="45.68558" lon="5.68161">
        <ele>233</ele>
        <time>2017-04-24T12:12:42Z</time>
      </trkpt>
      <trkpt lat="45.68552" lon="5.68169">
        <ele>233</ele>
        <time>2017-04-24T12:12:42Z</time>
      </trkpt>
      <trkpt lat="45.68549" lon="5.68174">
        <ele>233</ele>
        <time>2017-04-24T12:12:42Z</time>
      </trkpt>
      <trkpt lat="45.68543" lon="5.68183">
        <ele>233</ele>
        <time>2017-04-24T12:12:58Z</time>
      </trkpt>
      <trkpt lat="45.68537" lon="5.68191">
        <ele>233</ele>
        <time>2017-04-24T12:12:58Z</time>
      </trkpt>
      <trkpt lat="45.68533" lon="5.68196">
        <ele>233</ele>
        <time>2017-04-24T12:12:58Z</time>
      </trkpt>
      <trkpt lat="45.68528" lon="5.68203">
        <ele>233</ele>
        <time>2017-04-24T12:12:58Z</time>
      </trkpt>
      <trkpt lat="45.68523" lon="5.68209">
        <ele>233</ele>
        <time>2017-04-24T12:13:14Z</time>
      </trkpt>
      <trkpt lat="45.68518" lon="5.68212">
        <ele>233</ele>
        <time>2017-04-24T12:13:14Z</time>
      </trkpt>
      <trkpt lat="45.68513" lon="5.68215">
        <ele>233</ele>
        <time>2017-04-24T12:13:14Z</time>
      </trkpt>
      <trkpt lat="45.68508" lon="5.6822">
        <ele>233</ele>
        <time>2017-04-24T12:13:14Z</time>
      </trkpt>
      <trkpt lat="45.68503" lon="5.68225">
        <ele>233</ele>
        <time>2017-04-24T12:13:30Z</time>
      </trkpt>
      <trkpt lat="45.68498" lon="5.68234">
        <ele>233</ele>
        <time>2017-04-24T12:13:30Z</time>
      </trkpt>
      <trkpt lat="45.68494" lon="5.68241">
        <ele>233</ele>
        <time>2017-04-24T12:13:30Z</time>
      </trkpt>
      <trkpt lat="45.68489" lon="5.68248">
        <ele>233</ele>
        <time>2017-04-24T12:13:30Z</time>
      </trkpt>
      <trkpt lat="45.68484" lon="5.68256">
        <ele>233</ele>
        <time>2017-04-24T12:13:46Z</time>
      </trkpt>
      <trkpt lat="45.68478" lon="5.68265">
        <ele>233</ele>
        <time>2017-04-24T12:13:46Z</time>
      </trkpt>
      <trkpt lat="45.68474" lon="5.68271">
        <ele>233</ele>
        <time>2017-04-24T12:13:46Z</time>
      </trkpt>
      <trkpt lat="45.68469" lon="5.68277">
        <ele>233</ele>
        <time>2017-04-24T12:13:46Z</time>
      </trkpt>
      <trkpt lat="45.68464" lon="5.68281">
        <ele>233</ele>
        <time>2017-04-24T12:14:02Z</time>
      </trkpt>
      <trkpt lat="45.68458" lon="5.68284">
        <ele>233</ele>
        <time>2017-04-24T12:14:02Z</time>
      </trkpt>
      <trkpt lat="45.68453" lon="5.68287">
        <ele>232</ele>
        <time>2017-04-24T12:14:02Z</time>
      </trkpt>
      <trkpt lat="45.68446" lon="5.68288">
        <ele>232</ele>
        <time>2017-04-24T12:14:02Z</time>
      </trkpt>
      <trkpt lat="45.68441" lon="5.68283">
        <ele>232</ele>
        <time>2017-04-24T12:14:18Z</time>
      </trkpt>
      <trkpt lat="45.6844" lon="5.68269">
        <ele>232</ele>
        <time>2017-04-24T12:14:18Z</time>
      </trkpt>
      <trkpt lat="45.6844" lon="5.68263">
        <ele>232</ele>
        <time>2017-04-24T12:14:18Z</time>
      </trkpt>
      <trkpt lat="45.68438" lon="5.68249">
        <ele>232</ele>
        <time>2017-04-24T12:14:18Z</time>
      </trkpt>
      <trkpt lat="45.68436" lon="5.6823">
        <ele>232</ele>
        <time>2017-04-24T12:14:34Z</time>
      </trkpt>
      <trkpt lat="45.68435" lon="5.68221">
        <ele>232</ele>
        <time>2017-04-24T12:14:34Z</time>
      </trkpt>
      <trkpt lat="45.68432" lon="5.68204">
        <ele>233</ele>
        <time>2017-04-24T12:14:34Z</time>
      </trkpt>
      <trkpt lat="45.68429" lon="5.68177">
        <ele>233</ele>
        <time>2017-04-24T12:14:34Z</time>
      </trkpt>
      <trkpt lat="45.68425" lon="5.68151">
        <ele>233</ele>
        <time>2017-04-24T12:14:50Z</time>
      </trkpt>
      <trkpt lat="45.68422" lon="5.68116">
        <ele>235</ele>
        <time>2017-04-24T12:14:50Z</time>
      </trkpt>
      <trkpt lat="45.68422" lon="5.68094">
        <ele>235</ele>
        <time>2017-04-24T12:14:50Z</time>
      </trkpt>
      <trkpt lat="45.68417" lon="5.68069">
        <ele>235</ele>
        <time>2017-04-24T12:14:50Z</time>
      </trkpt>
      <trkpt lat="45.68414" lon="5.68054">
        <ele>235</ele>
        <time>2017-04-24T12:15:06Z</time>
      </trkpt>
      <trkpt lat="45.68412" lon="5.68039">
        <ele>236</ele>
        <time>2017-04-24T12:15:06Z</time>
      </trkpt>
      <trkpt lat="45.68408" lon="5.6801">
        <ele>236</ele>
        <time>2017-04-24T12:15:06Z</time>
      </trkpt>
      <trkpt lat="45.68407" lon="5.67992">
        <ele>236</ele>
        <time>2017-04-24T12:15:06Z</time>
      </trkpt>
      <trkpt lat="45.68403" lon="5.67964">
        <ele>236</ele>
        <time>2017-04-24T12:15:22Z</time>
      </trkpt>
      <trkpt lat="45.68402" lon="5.67936">
        <ele>238</ele>
        <time>2017-04-24T12:15:22Z</time>
      </trkpt>
      <trkpt lat="45.68399" lon="5.67906">
        <ele>238</ele>
        <time>2017-04-24T12:15:22Z</time>
      </trkpt>
      <trkpt lat="45.68394" lon="5.67889">
        <ele>238</ele>
        <time>2017-04-24T12:15:22Z</time>
      </trkpt>
      <trkpt lat="45.68392" lon="5.67877">
        <ele>238</ele>
        <time>2017-04-24T12:15:38Z</time>
      </trkpt>
      <trkpt lat="45.68391" lon="5.67864">
        <ele>240</ele>
        <time>2017-04-24T12:15:38Z</time>
      </trkpt>
      <trkpt lat="45.6839" lon="5.67857">
        <ele>240</ele>
        <time>2017-04-24T12:15:38Z</time>
      </trkpt>
      <trkpt lat="45.68388" lon="5.67848">
        <ele>240</ele>
        <time>2017-04-24T12:15:38Z</time>
      </trkpt>
      <trkpt lat="45.68386" lon="5.6784">
        <ele>240</ele>
        <time>2017-04-24T12:15:54Z</time>
      </trkpt>
      <trkpt lat="45.68386" lon="5.67831">
        <ele>240</ele>
        <time>2017-04-24T12:15:54Z</time>
      </trkpt>
      <trkpt lat="45.68385" lon="5.67821">
        <ele>240</ele>
        <time>2017-04-24T12:15:54Z</time>
      </trkpt>
      <trkpt lat="45.68384" lon="5.67812">
        <ele>240</ele>
        <time>2017-04-24T12:15:54Z</time>
      </trkpt>
      <trkpt lat="45.68383" lon="5.67803">
        <ele>240</ele>
        <time>2017-04-24T12:16:10Z</time>
      </trkpt>
      <trkpt lat="45.68385" lon="5.67793">
        <ele>240</ele>
        <time>2017-04-24T12:16:10Z</time>
      </trkpt>
      <trkpt lat="45.68386" lon="5.67787">
        <ele>242</ele>
        <time>2017-04-24T12:16:10Z</time>
      </trkpt>
      <trkpt lat="45.68386" lon="5.67778">
        <ele>242</ele>
        <time>2017-04-24T12:16:10Z</time>
      </trkpt>
      <trkpt lat="45.68385" lon="5.67767">
        <ele>242</ele>
        <time>2017-04-24T12:16:26Z</time>
      </trkpt>
      <trkpt lat="45.68392" lon="5.67755">
        <ele>242</ele>
        <time>2017-04-24T12:16:26Z</time>
      </trkpt>
      <trkpt lat="45.68388" lon="5.67748">
        <ele>242</ele>
        <time>2017-04-24T12:16:26Z</time>
      </trkpt>
      <trkpt lat="45.6838" lon="5.67742">
        <ele>242</ele>
        <time>2017-04-24T12:16:26Z</time>
      </trkpt>
      <trkpt lat="45.68374" lon="5.67736">
        <ele>243</ele>
        <time>2017-04-24T12:16:42Z</time>
      </trkpt>
      <trkpt lat="45.68365" lon="5.67733">
        <ele>243</ele>
        <time>2017-04-24T12:16:42Z</time>
      </trkpt>
      <trkpt lat="45.68358" lon="5.67734">
        <ele>243</ele>
        <time>2017-04-24T12:16:42Z</time>
      </trkpt>
      <trkpt lat="45.68353" lon="5.67735">
        <ele>243</ele>
        <time>2017-04-24T12:16:42Z</time>
      </trkpt>
      <trkpt lat="45.68345" lon="5.67736">
        <ele>243</ele>
        <time>2017-04-24T12:16:58Z</time>
      </trkpt>
      <trkpt lat="45.68336" lon="5.67737">
        <ele>243</ele>
        <time>2017-04-24T12:16:58Z</time>
      </trkpt>
      <trkpt lat="45.68331" lon="5.67736">
        <ele>243</ele>
        <time>2017-04-24T12:16:58Z</time>
      </trkpt>
      <trkpt lat="45.68325" lon="5.67738">
        <ele>243</ele>
        <time>2017-04-24T12:16:58Z</time>
      </trkpt>
      <trkpt lat="45.68318" lon="5.67739">
        <ele>243</ele>
        <time>2017-04-24T12:17:14Z</time>
      </trkpt>
      <trkpt lat="45.68311" lon="5.67739">
        <ele>243</ele>
        <time>2017-04-24T12:17:14Z</time>
      </trkpt>
      <trkpt lat="45.68305" lon="5.67739">
        <ele>243</ele>
        <time>2017-04-24T12:17:14Z</time>
      </trkpt>
      <trkpt lat="45.68298" lon="5.67739">
        <ele>243</ele>
        <time>2017-04-24T12:17:14Z</time>
      </trkpt>
      <trkpt lat="45.6829" lon="5.6774">
        <ele>242</ele>
        <time>2017-04-24T12:17:30Z</time>
      </trkpt>
      <trkpt lat="45.68283" lon="5.67742">
        <ele>242</ele>
        <time>2017-04-24T12:17:30Z</time>
      </trkpt>
      <trkpt lat="45.68275" lon="5.67743">
        <ele>242</ele>
        <time>2017-04-24T12:17:30Z</time>
      </trkpt>
      <trkpt lat="45.6827" lon="5.67743">
        <ele>242</ele>
        <time>2017-04-24T12:17:30Z</time>
      </trkpt>
      <trkpt lat="45.68264" lon="5.67745">
        <ele>242</ele>
        <time>2017-04-24T12:17:46Z</time>
      </trkpt>
      <trkpt lat="45.68258" lon="5.67745">
        <ele>242</ele>
        <time>2017-04-24T12:17:46Z</time>
      </trkpt>
      <trkpt lat="45.68249" lon="5.67744">
        <ele>242</ele>
        <time>2017-04-24T12:17:46Z</time>
      </trkpt>
      <trkpt lat="45.68244" lon="5.67745">
        <ele>242</ele>
        <time>2017-04-24T12:17:46Z</time>
      </trkpt>
      <trkpt lat="45.68238" lon="5.67745">
        <ele>242</ele>
        <time>2017-04-24T12:18:02Z</time>
      </trkpt>
      <trkpt lat="45.68231" lon="5.67746">
        <ele>242</ele>
        <time>2017-04-24T12:18:02Z</time>
      </trkpt>
      <trkpt lat="45.68222" lon="5.67746">
        <ele>242</ele>
        <time>2017-04-24T12:18:02Z</time>
      </trkpt>
      <trkpt lat="45.68218" lon="5.67747">
        <ele>242</ele>
        <time>2017-04-24T12:18:02Z</time>
      </trkpt>
      <trkpt lat="45.68211" lon="5.67749">
        <ele>242</ele>
        <time>2017-04-24T12:18:18Z</time>
      </trkpt>
      <trkpt lat="45.68204" lon="5.6775">
        <ele>241</ele>
        <time>2017-04-24T12:18:18Z</time>
      </trkpt>
      <trkpt lat="45.68195" lon="5.6775">
        <ele>241</ele>
        <time>2017-04-24T12:18:18Z</time>
      </trkpt>
      <trkpt lat="45.68191" lon="5.67751">
        <ele>241</ele>
        <time>2017-04-24T12:18:18Z</time>
      </trkpt>
      <trkpt lat="45.68185" lon="5.67753">
        <ele>241</ele>
        <time>2017-04-24T12:18:34Z</time>
      </trkpt>
      <trkpt lat="45.68181" lon="5.6776">
        <ele>241</ele>
        <time>2017-04-24T12:18:34Z</time>
      </trkpt>
      <trkpt lat="45.6818" lon="5.67772">
        <ele>241</ele>
        <time>2017-04-24T12:18:34Z</time>
      </trkpt>
      <trkpt lat="45.6818" lon="5.67778">
        <ele>241</ele>
        <time>2017-04-24T12:18:34Z</time>
      </trkpt>
      <trkpt lat="45.68177" lon="5.67786">
        <ele>241</ele>
        <time>2017-04-24T12:18:50Z</time>
      </trkpt>
      <trkpt lat="45.68173" lon="5.67792">
        <ele>241</ele>
        <time>2017-04-24T12:18:50Z</time>
      </trkpt>
      <trkpt lat="45.68166" lon="5.67797">
        <ele>243</ele>
        <time>2017-04-24T12:18:50Z</time>
      </trkpt>
      <trkpt lat="45.6816" lon="5.67801">
        <ele>243</ele>
        <time>2017-04-24T12:18:50Z</time>
      </trkpt>
      <trkpt lat="45.68156" lon="5.67805">
        <ele>243</ele>
        <time>2017-04-24T12:19:06Z</time>
      </trkpt>
      <trkpt lat="45.68149" lon="5.67809">
        <ele>243</ele>
        <time>2017-04-24T12:19:06Z</time>
      </trkpt>
      <trkpt lat="45.68143" lon="5.67813">
        <ele>243</ele>
        <time>2017-04-24T12:19:06Z</time>
      </trkpt>
      <trkpt lat="45.68136" lon="5.67818">
        <ele>243</ele>
        <time>2017-04-24T12:19:06Z</time>
      </trkpt>
      <trkpt lat="45.6813" lon="5.67823">
        <ele>243</ele>
        <time>2017-04-24T12:19:22Z</time>
      </trkpt>
      <trkpt lat="45.68125" lon="5.67826">
        <ele>243</ele>
        <time>2017-04-24T12:19:22Z</time>
      </trkpt>
      <trkpt lat="45.68118" lon="5.67832">
        <ele>238</ele>
        <time>2017-04-24T12:19:22Z</time>
      </trkpt>
      <trkpt lat="45.68114" lon="5.67836">
        <ele>238</ele>
        <time>2017-04-24T12:19:22Z</time>
      </trkpt>
      <trkpt lat="45.68107" lon="5.67841">
        <ele>238</ele>
        <time>2017-04-24T12:19:38Z</time>
      </trkpt>
      <trkpt lat="45.68102" lon="5.67846">
        <ele>238</ele>
        <time>2017-04-24T12:19:38Z</time>
      </trkpt>
      <trkpt lat="45.68096" lon="5.67851">
        <ele>238</ele>
        <time>2017-04-24T12:19:38Z</time>
      </trkpt>
      <trkpt lat="45.68089" lon="5.67855">
        <ele>238</ele>
        <time>2017-04-24T12:19:38Z</time>
      </trkpt>
      <trkpt lat="45.68085" lon="5.67858">
        <ele>238</ele>
        <time>2017-04-24T12:19:54Z</time>
      </trkpt>
      <trkpt lat="45.68079" lon="5.67861">
        <ele>238</ele>
        <time>2017-04-24T12:19:54Z</time>
      </trkpt>
      <trkpt lat="45.68074" lon="5.67864">
        <ele>238</ele>
        <time>2017-04-24T12:19:54Z</time>
      </trkpt>
      <trkpt lat="45.6807" lon="5.67867">
        <ele>238</ele>
        <time>2017-04-24T12:19:54Z</time>
      </trkpt>
      <trkpt lat="45.68064" lon="5.67871">
        <ele>238</ele>
        <time>2017-04-24T12:20:10Z</time>
      </trkpt>
      <trkpt lat="45.68059" lon="5.67876">
        <ele>240</ele>
        <time>2017-04-24T12:20:10Z</time>
      </trkpt>
      <trkpt lat="45.68054" lon="5.67879">
        <ele>240</ele>
        <time>2017-04-24T12:20:10Z</time>
      </trkpt>
      <trkpt lat="45.68049" lon="5.67883">
        <ele>240</ele>
        <time>2017-04-24T12:20:10Z</time>
      </trkpt>
      <trkpt lat="45.68043" lon="5.67887">
        <ele>240</ele>
        <time>2017-04-24T12:20:26Z</time>
      </trkpt>
      <trkpt lat="45.68039" lon="5.6789">
        <ele>235</ele>
        <time>2017-04-24T12:20:26Z</time>
      </trkpt>
      <trkpt lat="45.68035" lon="5.67891">
        <ele>235</ele>
        <time>2017-04-24T12:20:26Z</time>
      </trkpt>
      <trkpt lat="45.68029" lon="5.67894">
        <ele>235</ele>
        <time>2017-04-24T12:20:26Z</time>
      </trkpt>
      <trkpt lat="45.68025" lon="5.679">
        <ele>235</ele>
        <time>2017-04-24T12:20:42Z</time>
      </trkpt>
      <trkpt lat="45.6802" lon="5.67904">
        <ele>235</ele>
        <time>2017-04-24T12:20:42Z</time>
      </trkpt>
      <trkpt lat="45.68015" lon="5.67907">
        <ele>235</ele>
        <time>2017-04-24T12:20:42Z</time>
      </trkpt>
      <trkpt lat="45.68009" lon="5.67913">
        <ele>235</ele>
        <time>2017-04-24T12:20:42Z</time>
      </trkpt>
      <trkpt lat="45.68004" lon="5.67918">
        <ele>235</ele>
        <time>2017-04-24T12:20:58Z</time>
      </trkpt>
      <trkpt lat="45.67998" lon="5.67923">
        <ele>235</ele>
        <time>2017-04-24T12:20:58Z</time>
      </trkpt>
      <trkpt lat="45.67992" lon="5.67927">
        <ele>235</ele>
        <time>2017-04-24T12:20:58Z</time>
      </trkpt>
      <trkpt lat="45.67988" lon="5.67932">
        <ele>235</ele>
        <time>2017-04-24T12:20:58Z</time>
      </trkpt>
      <trkpt lat="45.67982" lon="5.6794">
        <ele>235</ele>
        <time>2017-04-24T12:21:14Z</time>
      </trkpt>
      <trkpt lat="45.67976" lon="5.67942">
        <ele>235</ele>
        <time>2017-04-24T12:21:14Z</time>
      </trkpt>
      <trkpt lat="45.67972" lon="5.67945">
        <ele>235</ele>
        <time>2017-04-24T12:21:14Z</time>
      </trkpt>
      <trkpt lat="45.67971" lon="5.67947">
        <ele>235</ele>
        <time>2017-04-24T12:21:14Z</time>
      </trkpt>
      <trkpt lat="45.67967" lon="5.6795">
        <ele>235</ele>
        <time>2017-04-24T12:21:30Z</time>
      </trkpt>
      <trkpt lat="45.67962" lon="5.67953">
        <ele>235</ele>
        <time>2017-04-24T12:21:30Z</time>
      </trkpt>
      <trkpt lat="45.67952" lon="5.67959">
        <ele>230</ele>
        <time>2017-04-24T12:21:30Z</time>
      </trkpt>
      <trkpt lat="45.67946" lon="5.67964">
        <ele>230</ele>
        <time>2017-04-24T12:21:30Z</time>
      </trkpt>
      <trkpt lat="45.6794" lon="5.67969">
        <ele>230</ele>
        <time>2017-04-24T12:21:46Z</time>
      </trkpt>
      <trkpt lat="45.67935" lon="5.67973">
        <ele>230</ele>
        <time>2017-04-24T12:21:46Z</time>
      </trkpt>
      <trkpt lat="45.67929" lon="5.67976">
        <ele>230</ele>
        <time>2017-04-24T12:21:46Z</time>
      </trkpt>
      <trkpt lat="45.67927" lon="5.67978">
        <ele>230</ele>
        <time>2017-04-24T12:21:46Z</time>
      </trkpt>
      <trkpt lat="45.67927" lon="5.67977">
        <ele>230</ele>
        <time>2017-04-24T12:22:06Z</time>
      </trkpt>
      <trkpt lat="45.67927" lon="5.67977">
        <ele>230</ele>
        <time>2017-04-24T12:22:06Z</time>
      </trkpt>
      <trkpt lat="45.67926" lon="5.67978">
        <ele>230</ele>
        <time>2017-04-24T12:22:06Z</time>
      </trkpt>
      <trkpt lat="45.67921" lon="5.67984">
        <ele>230</ele>
        <time>2017-04-24T12:22:06Z</time>
      </trkpt>
      <trkpt lat="45.67917" lon="5.67987">
        <ele>230</ele>
        <time>2017-04-24T12:22:06Z</time>
      </trkpt>
      <trkpt lat="45.67911" lon="5.67993">
        <ele>230</ele>
        <time>2017-04-24T12:22:22Z</time>
      </trkpt>
      <trkpt lat="45.67907" lon="5.67999">
        <ele>230</ele>
        <time>2017-04-24T12:22:22Z</time>
      </trkpt>
      <trkpt lat="45.67902" lon="5.68004">
        <ele>230</ele>
        <time>2017-04-24T12:22:22Z</time>
      </trkpt>
      <trkpt lat="45.67898" lon="5.68009">
        <ele>230</ele>
        <time>2017-04-24T12:22:22Z</time>
      </trkpt>
      <trkpt lat="45.67894" lon="5.68015">
        <ele>230</ele>
        <time>2017-04-24T12:22:38Z</time>
      </trkpt>
      <trkpt lat="45.67887" lon="5.68022">
        <ele>230</ele>
        <time>2017-04-24T12:22:38Z</time>
      </trkpt>
      <trkpt lat="45.67882" lon="5.68028">
        <ele>230</ele>
        <time>2017-04-24T12:22:38Z</time>
      </trkpt>
      <trkpt lat="45.67877" lon="5.68033">
        <ele>230</ele>
        <time>2017-04-24T12:22:38Z</time>
      </trkpt>
      <trkpt lat="45.67871" lon="5.68039">
        <ele>227</ele>
        <time>2017-04-24T12:22:54Z</time>
      </trkpt>
      <trkpt lat="45.67867" lon="5.68045">
        <ele>224</ele>
        <time>2017-04-24T12:22:54Z</time>
      </trkpt>
      <trkpt lat="45.67861" lon="5.68051">
        <ele>224</ele>
        <time>2017-04-24T12:22:54Z</time>
      </trkpt>
      <trkpt lat="45.67853" lon="5.68052">
        <ele>224</ele>
        <time>2017-04-24T12:22:54Z</time>
      </trkpt>
      <trkpt lat="45.67848" lon="5.68046">
        <ele>224</ele>
        <time>2017-04-24T12:23:10Z</time>
      </trkpt>
      <trkpt lat="45.67839" lon="5.68026">
        <ele>227</ele>
        <time>2017-04-24T12:23:10Z</time>
      </trkpt>
      <trkpt lat="45.67832" lon="5.68015">
        <ele>227</ele>
        <time>2017-04-24T12:23:10Z</time>
      </trkpt>
      <trkpt lat="45.67819" lon="5.68">
        <ele>227</ele>
        <time>2017-04-24T12:23:10Z</time>
      </trkpt>
      <trkpt lat="45.67812" lon="5.67991">
        <ele>227</ele>
        <time>2017-04-24T12:23:26Z</time>
      </trkpt>
      <trkpt lat="45.67808" lon="5.67985">
        <ele>227</ele>
        <time>2017-04-24T12:23:26Z</time>
      </trkpt>
      <trkpt lat="45.67802" lon="5.6798">
        <ele>227</ele>
        <time>2017-04-24T12:23:26Z</time>
      </trkpt>
      <trkpt lat="45.67799" lon="5.67975">
        <ele>227</ele>
        <time>2017-04-24T12:23:26Z</time>
      </trkpt>
      <trkpt lat="45.67795" lon="5.67968">
        <ele>227</ele>
        <time>2017-04-24T12:23:42Z</time>
      </trkpt>
      <trkpt lat="45.6779" lon="5.67964">
        <ele>224</ele>
        <time>2017-04-24T12:23:42Z</time>
      </trkpt>
      <trkpt lat="45.67782" lon="5.67962">
        <ele>224</ele>
        <time>2017-04-24T12:23:42Z</time>
      </trkpt>
      <trkpt lat="45.67777" lon="5.67961">
        <ele>224</ele>
        <time>2017-04-24T12:23:42Z</time>
      </trkpt>
      <trkpt lat="45.67772" lon="5.67955">
        <ele>228</ele>
        <time>2017-04-24T12:23:58Z</time>
      </trkpt>
      <trkpt lat="45.67766" lon="5.67948">
        <ele>228</ele>
        <time>2017-04-24T12:23:58Z</time>
      </trkpt>
      <trkpt lat="45.67759" lon="5.67943">
        <ele>228</ele>
        <time>2017-04-24T12:23:58Z</time>
      </trkpt>
      <trkpt lat="45.67755" lon="5.67941">
        <ele>228</ele>
        <time>2017-04-24T12:23:58Z</time>
      </trkpt>
      <trkpt lat="45.67746" lon="5.67941">
        <ele>228</ele>
        <time>2017-04-24T12:24:14Z</time>
      </trkpt>
      <trkpt lat="45.67741" lon="5.6794">
        <ele>228</ele>
        <time>2017-04-24T12:24:14Z</time>
      </trkpt>
      <trkpt lat="45.67734" lon="5.6794">
        <ele>228</ele>
        <time>2017-04-24T12:24:14Z</time>
      </trkpt>
      <trkpt lat="45.67729" lon="5.6794">
        <ele>228</ele>
        <time>2017-04-24T12:24:14Z</time>
      </trkpt>
      <trkpt lat="45.67723" lon="5.67947">
        <ele>228</ele>
        <time>2017-04-24T12:24:30Z</time>
      </trkpt>
      <trkpt lat="45.6772" lon="5.67954">
        <ele>228</ele>
        <time>2017-04-24T12:24:30Z</time>
      </trkpt>
      <trkpt lat="45.67717" lon="5.67959">
        <ele>224</ele>
        <time>2017-04-24T12:24:30Z</time>
      </trkpt>
      <trkpt lat="45.67709" lon="5.67961">
        <ele>224</ele>
        <time>2017-04-24T12:24:30Z</time>
      </trkpt>
      <trkpt lat="45.67702" lon="5.67959">
        <ele>223</ele>
        <time>2017-04-24T12:24:46Z</time>
      </trkpt>
      <trkpt lat="45.67697" lon="5.67958">
        <ele>223</ele>
        <time>2017-04-24T12:24:46Z</time>
      </trkpt>
      <trkpt lat="45.6769" lon="5.67956">
        <ele>227</ele>
        <time>2017-04-24T12:24:46Z</time>
      </trkpt>
      <trkpt lat="45.67684" lon="5.67954">
        <ele>227</ele>
        <time>2017-04-24T12:24:46Z</time>
      </trkpt>
      <trkpt lat="45.67676" lon="5.67953">
        <ele>227</ele>
        <time>2017-04-24T12:25:02Z</time>
      </trkpt>
      <trkpt lat="45.6767" lon="5.67951">
        <ele>227</ele>
        <time>2017-04-24T12:25:02Z</time>
      </trkpt>
      <trkpt lat="45.67664" lon="5.6795">
        <ele>227</ele>
        <time>2017-04-24T12:25:02Z</time>
      </trkpt>
      <trkpt lat="45.67659" lon="5.67948">
        <ele>227</ele>
        <time>2017-04-24T12:25:02Z</time>
      </trkpt>
      <trkpt lat="45.67653" lon="5.67946">
        <ele>227</ele>
        <time>2017-04-24T12:25:18Z</time>
      </trkpt>
      <trkpt lat="45.67648" lon="5.67945">
        <ele>227</ele>
        <time>2017-04-24T12:25:18Z</time>
      </trkpt>
      <trkpt lat="45.6764" lon="5.67941">
        <ele>227</ele>
        <time>2017-04-24T12:25:18Z</time>
      </trkpt>
      <trkpt lat="45.67634" lon="5.67938">
        <ele>227</ele>
        <time>2017-04-24T12:25:18Z</time>
      </trkpt>
      <trkpt lat="45.67628" lon="5.67936">
        <ele>227</ele>
        <time>2017-04-24T12:25:34Z</time>
      </trkpt>
      <trkpt lat="45.67622" lon="5.67936">
        <ele>227</ele>
        <time>2017-04-24T12:25:34Z</time>
      </trkpt>
      <trkpt lat="45.67615" lon="5.67936">
        <ele>227</ele>
        <time>2017-04-24T12:25:34Z</time>
      </trkpt>
      <trkpt lat="45.67607" lon="5.67938">
        <ele>227</ele>
        <time>2017-04-24T12:25:34Z</time>
      </trkpt>
      <trkpt lat="45.67598" lon="5.67939">
        <ele>227</ele>
        <time>2017-04-24T12:25:50Z</time>
      </trkpt>
      <trkpt lat="45.67595" lon="5.67939">
        <ele>227</ele>
        <time>2017-04-24T12:25:50Z</time>
      </trkpt>
      <trkpt lat="45.67589" lon="5.67939">
        <ele>227</ele>
        <time>2017-04-24T12:25:50Z</time>
      </trkpt>
      <trkpt lat="45.67583" lon="5.67939">
        <ele>227</ele>
        <time>2017-04-24T12:25:50Z</time>
      </trkpt>
      <trkpt lat="45.6758" lon="5.67939">
        <ele>227</ele>
        <time>2017-04-24T12:26:06Z</time>
      </trkpt>
      <trkpt lat="45.67573" lon="5.67941">
        <ele>227</ele>
        <time>2017-04-24T12:26:06Z</time>
      </trkpt>
      <trkpt lat="45.67568" lon="5.67942">
        <ele>227</ele>
        <time>2017-04-24T12:26:06Z</time>
      </trkpt>
      <trkpt lat="45.67563" lon="5.67943">
        <ele>227</ele>
        <time>2017-04-24T12:26:06Z</time>
      </trkpt>
      <trkpt lat="45.67558" lon="5.67942">
        <ele>227</ele>
        <time>2017-04-24T12:26:22Z</time>
      </trkpt>
      <trkpt lat="45.67552" lon="5.67945">
        <ele>227</ele>
        <time>2017-04-24T12:26:22Z</time>
      </trkpt>
      <trkpt lat="45.67547" lon="5.67946">
        <ele>227</ele>
        <time>2017-04-24T12:26:22Z</time>
      </trkpt>
      <trkpt lat="45.67542" lon="5.67946">
        <ele>227</ele>
        <time>2017-04-24T12:26:22Z</time>
      </trkpt>
      <trkpt lat="45.67539" lon="5.67945">
        <ele>228</ele>
        <time>2017-04-24T12:26:38Z</time>
      </trkpt>
      <trkpt lat="45.67533" lon="5.67944">
        <ele>228</ele>
        <time>2017-04-24T12:26:38Z</time>
      </trkpt>
      <trkpt lat="45.67527" lon="5.67945">
        <ele>228</ele>
        <time>2017-04-24T12:26:38Z</time>
      </trkpt>
      <trkpt lat="45.6752" lon="5.67948">
        <ele>228</ele>
        <time>2017-04-24T12:26:38Z</time>
      </trkpt>
      <trkpt lat="45.67514" lon="5.67949">
        <ele>228</ele>
        <time>2017-04-24T12:26:54Z</time>
      </trkpt>
      <trkpt lat="45.67509" lon="5.67946">
        <ele>228</ele>
        <time>2017-04-24T12:26:54Z</time>
      </trkpt>
      <trkpt lat="45.67506" lon="5.6794">
        <ele>228</ele>
        <time>2017-04-24T12:26:54Z</time>
      </trkpt>
      <trkpt lat="45.67503" lon="5.67933">
        <ele>228</ele>
        <time>2017-04-24T12:26:54Z</time>
      </trkpt>
      <trkpt lat="45.67501" lon="5.67929">
        <ele>228</ele>
        <time>2017-04-24T12:27:10Z</time>
      </trkpt>
      <trkpt lat="45.67499" lon="5.67922">
        <ele>228</ele>
        <time>2017-04-24T12:27:10Z</time>
      </trkpt>
      <trkpt lat="45.67496" lon="5.67915">
        <ele>228</ele>
        <time>2017-04-24T12:27:10Z</time>
      </trkpt>
      <trkpt lat="45.67492" lon="5.67906">
        <ele>228</ele>
        <time>2017-04-24T12:27:10Z</time>
      </trkpt>
      <trkpt lat="45.67487" lon="5.67901">
        <ele>228</ele>
        <time>2017-04-24T12:27:26Z</time>
      </trkpt>
      <trkpt lat="45.67484" lon="5.67896">
        <ele>228</ele>
        <time>2017-04-24T12:27:26Z</time>
      </trkpt>
      <trkpt lat="45.67481" lon="5.6789">
        <ele>228</ele>
        <time>2017-04-24T12:27:26Z</time>
      </trkpt>
      <trkpt lat="45.67481" lon="5.67886">
        <ele>228</ele>
        <time>2017-04-24T12:27:26Z</time>
      </trkpt>
      <trkpt lat="45.67482" lon="5.67889">
        <ele>228</ele>
        <time>2017-04-24T12:30:22Z</time>
      </trkpt>
      <trkpt lat="45.67483" lon="5.67889">
        <ele>228</ele>
        <time>2017-04-24T12:30:22Z</time>
      </trkpt>
      <trkpt lat="45.67485" lon="5.6789">
        <ele>228</ele>
        <time>2017-04-24T12:30:22Z</time>
      </trkpt>
      <trkpt lat="45.67489" lon="5.67892">
        <ele>228</ele>
        <time>2017-04-24T12:30:22Z</time>
      </trkpt>
      <trkpt lat="45.67493" lon="5.67899">
        <ele>228</ele>
        <time>2017-04-24T12:30:22Z</time>
      </trkpt>
      <trkpt lat="45.67496" lon="5.67907">
        <ele>228</ele>
        <time>2017-04-24T12:30:38Z</time>
      </trkpt>
      <trkpt lat="45.67498" lon="5.67915">
        <ele>228</ele>
        <time>2017-04-24T12:30:38Z</time>
      </trkpt>
      <trkpt lat="45.67501" lon="5.67921">
        <ele>228</ele>
        <time>2017-04-24T12:30:38Z</time>
      </trkpt>
      <trkpt lat="45.67506" lon="5.67932">
        <ele>228</ele>
        <time>2017-04-24T12:30:38Z</time>
      </trkpt>
      <trkpt lat="45.67509" lon="5.67939">
        <ele>228</ele>
        <time>2017-04-24T12:30:54Z</time>
      </trkpt>
      <trkpt lat="45.67513" lon="5.67943">
        <ele>228</ele>
        <time>2017-04-24T12:30:54Z</time>
      </trkpt>
      <trkpt lat="45.67518" lon="5.67946">
        <ele>228</ele>
        <time>2017-04-24T12:30:54Z</time>
      </trkpt>
      <trkpt lat="45.67522" lon="5.67952">
        <ele>228</ele>
        <time>2017-04-24T12:30:54Z</time>
      </trkpt>
      <trkpt lat="45.67522" lon="5.67959">
        <ele>225</ele>
        <time>2017-04-24T12:31:14Z</time>
      </trkpt>
      <trkpt lat="45.67523" lon="5.67962">
        <ele>225</ele>
        <time>2017-04-24T12:31:14Z</time>
      </trkpt>
      <trkpt lat="45.67523" lon="5.67964">
        <ele>225</ele>
        <time>2017-04-24T12:31:14Z</time>
      </trkpt>
      <trkpt lat="45.67519" lon="5.67968">
        <ele>225</ele>
        <time>2017-04-24T12:31:14Z</time>
      </trkpt>
      <trkpt lat="45.67516" lon="5.67971">
        <ele>225</ele>
        <time>2017-04-24T12:31:14Z</time>
      </trkpt>
      <trkpt lat="45.67513" lon="5.67971">
        <ele>225</ele>
        <time>2017-04-24T12:31:30Z</time>
      </trkpt>
      <trkpt lat="45.6751" lon="5.6797">
        <ele>225</ele>
        <time>2017-04-24T12:31:30Z</time>
      </trkpt>
      <trkpt lat="45.67508" lon="5.6797">
        <ele>225</ele>
        <time>2017-04-24T12:31:30Z</time>
      </trkpt>
      <trkpt lat="45.67501" lon="5.67968">
        <ele>225</ele>
        <time>2017-04-24T12:31:30Z</time>
      </trkpt>
      <trkpt lat="45.67492" lon="5.67961">
        <ele>225</ele>
        <time>2017-04-24T14:23:06Z</time>
      </trkpt>
      <trkpt lat="45.67492" lon="5.67959">
        <ele>225</ele>
        <time>2017-04-24T14:23:06Z</time>
      </trkpt>
      <trkpt lat="45.67492" lon="5.67959">
        <ele>225</ele>
        <time>2017-04-24T14:23:06Z</time>
      </trkpt>
      <trkpt lat="45.67491" lon="5.67959">
        <ele>225</ele>
        <time>2017-04-24T14:23:06Z</time>
      </trkpt>
      <trkpt lat="45.67487" lon="5.67958">
        <ele>225</ele>
        <time>2017-04-24T14:23:06Z</time>
      </trkpt>
      <trkpt lat="45.67481" lon="5.67955">
        <ele>228</ele>
        <time>2017-04-24T14:23:58Z</time>
      </trkpt>
      <trkpt lat="45.67478" lon="5.67956">
        <ele>228</ele>
        <time>2017-04-24T14:23:58Z</time>
      </trkpt>
      <trkpt lat="45.67473" lon="5.67958">
        <ele>228</ele>
        <time>2017-04-24T14:23:58Z</time>
      </trkpt>
      <trkpt lat="45.67467" lon="5.67959">
        <ele>225</ele>
        <time>2017-04-24T14:23:58Z</time>
      </trkpt>
      <trkpt lat="45.67462" lon="5.67962">
        <ele>225</ele>
        <time>2017-04-24T14:23:58Z</time>
      </trkpt>
      <trkpt lat="45.67457" lon="5.67966">
        <ele>225</ele>
        <time>2017-04-24T14:24:14Z</time>
      </trkpt>
      <trkpt lat="45.67452" lon="5.67967">
        <ele>225</ele>
        <time>2017-04-24T14:24:14Z</time>
      </trkpt>
      <trkpt lat="45.67446" lon="5.6797">
        <ele>225</ele>
        <time>2017-04-24T14:24:14Z</time>
      </trkpt>
      <trkpt lat="45.67441" lon="5.67971">
        <ele>225</ele>
        <time>2017-04-24T14:24:14Z</time>
      </trkpt>
      <trkpt lat="45.67435" lon="5.67972">
        <ele>225</ele>
        <time>2017-04-24T14:24:30Z</time>
      </trkpt>
      <trkpt lat="45.6743" lon="5.67973">
        <ele>225</ele>
        <time>2017-04-24T14:24:30Z</time>
      </trkpt>
      <trkpt lat="45.67426" lon="5.67972">
        <ele>225</ele>
        <time>2017-04-24T14:24:30Z</time>
      </trkpt>
      <trkpt lat="45.67422" lon="5.67975">
        <ele>225</ele>
        <time>2017-04-24T14:24:30Z</time>
      </trkpt>
      <trkpt lat="45.67417" lon="5.67978">
        <ele>225</ele>
        <time>2017-04-24T14:24:46Z</time>
      </trkpt>
      <trkpt lat="45.67414" lon="5.67977">
        <ele>225</ele>
        <time>2017-04-24T14:24:46Z</time>
      </trkpt>
      <trkpt lat="45.67408" lon="5.67977">
        <ele>225</ele>
        <time>2017-04-24T14:24:46Z</time>
      </trkpt>
      <trkpt lat="45.67402" lon="5.67977">
        <ele>225</ele>
        <time>2017-04-24T14:24:46Z</time>
      </trkpt>
      <trkpt lat="45.67398" lon="5.67971">
        <ele>225</ele>
        <time>2017-04-24T14:25:02Z</time>
      </trkpt>
      <trkpt lat="45.67393" lon="5.67973">
        <ele>225</ele>
        <time>2017-04-24T14:25:02Z</time>
      </trkpt>
      <trkpt lat="45.67388" lon="5.67976">
        <ele>225</ele>
        <time>2017-04-24T14:25:02Z</time>
      </trkpt>
      <trkpt lat="45.67384" lon="5.67977">
        <ele>225</ele>
        <time>2017-04-24T14:25:02Z</time>
      </trkpt>
      <trkpt lat="45.67384" lon="5.67979">
        <ele>225</ele>
        <time>2017-04-24T14:25:18Z</time>
      </trkpt>
      <trkpt lat="45.67376" lon="5.6798">
        <ele>225</ele>
        <time>2017-04-24T14:25:18Z</time>
      </trkpt>
      <trkpt lat="45.6737" lon="5.67984">
        <ele>224</ele>
        <time>2017-04-24T14:25:18Z</time>
      </trkpt>
      <trkpt lat="45.67364" lon="5.6799">
        <ele>224</ele>
        <time>2017-04-24T14:25:18Z</time>
      </trkpt>
      <trkpt lat="45.67359" lon="5.67998">
        <ele>224</ele>
        <time>2017-04-24T14:25:34Z</time>
      </trkpt>
      <trkpt lat="45.67357" lon="5.68007">
        <ele>224</ele>
        <time>2017-04-24T14:25:34Z</time>
      </trkpt>
      <trkpt lat="45.67358" lon="5.68012">
        <ele>224</ele>
        <time>2017-04-24T14:25:34Z</time>
      </trkpt>
      <trkpt lat="45.67359" lon="5.68019">
        <ele>224</ele>
        <time>2017-04-24T14:25:34Z</time>
      </trkpt>
      <trkpt lat="45.6736" lon="5.68026">
        <ele>224</ele>
        <time>2017-04-24T14:25:50Z</time>
      </trkpt>
      <trkpt lat="45.67359" lon="5.68033">
        <ele>224</ele>
        <time>2017-04-24T14:25:50Z</time>
      </trkpt>
      <trkpt lat="45.67359" lon="5.68038">
        <ele>224</ele>
        <time>2017-04-24T14:25:50Z</time>
      </trkpt>
      <trkpt lat="45.67361" lon="5.68042">
        <ele>220</ele>
        <time>2017-04-24T14:25:50Z</time>
      </trkpt>
      <trkpt lat="45.67363" lon="5.68046">
        <ele>220</ele>
        <time>2017-04-24T14:26:06Z</time>
      </trkpt>
      <trkpt lat="45.67366" lon="5.68051">
        <ele>220</ele>
        <time>2017-04-24T14:26:06Z</time>
      </trkpt>
      <trkpt lat="45.67368" lon="5.68059">
        <ele>220</ele>
        <time>2017-04-24T14:26:06Z</time>
      </trkpt>
      <trkpt lat="45.6737" lon="5.68066">
        <ele>220</ele>
        <time>2017-04-24T14:26:06Z</time>
      </trkpt>
      <trkpt lat="45.67371" lon="5.68073">
        <ele>220</ele>
        <time>2017-04-24T14:26:22Z</time>
      </trkpt>
      <trkpt lat="45.67371" lon="5.68082">
        <ele>220</ele>
        <time>2017-04-24T14:26:22Z</time>
      </trkpt>
      <trkpt lat="45.67369" lon="5.68089">
        <ele>220</ele>
        <time>2017-04-24T14:26:22Z</time>
      </trkpt>
      <trkpt lat="45.67369" lon="5.68095">
        <ele>220</ele>
        <time>2017-04-24T14:26:22Z</time>
      </trkpt>
      <trkpt lat="45.67367" lon="5.68103">
        <ele>220</ele>
        <time>2017-04-24T14:26:58Z</time>
      </trkpt>
      <trkpt lat="45.67366" lon="5.68107">
        <ele>220</ele>
        <time>2017-04-24T14:26:58Z</time>
      </trkpt>
      <trkpt lat="45.67366" lon="5.68108">
        <ele>220</ele>
        <time>2017-04-24T14:26:58Z</time>
      </trkpt>
      <trkpt lat="45.67366" lon="5.68108">
        <ele>220</ele>
        <time>2017-04-24T14:26:58Z</time>
      </trkpt>
      <trkpt lat="45.67366" lon="5.68108">
        <ele>220</ele>
        <time>2017-04-24T14:26:58Z</time>
      </trkpt>
      <trkpt lat="45.67366" lon="5.68109">
        <ele>220</ele>
        <time>2017-04-24T14:27:30Z</time>
      </trkpt>
      <trkpt lat="45.67366" lon="5.68109">
        <ele>220</ele>
        <time>2017-04-24T14:27:30Z</time>
      </trkpt>
      <trkpt lat="45.67365" lon="5.68112">
        <ele>220</ele>
        <time>2017-04-24T14:27:30Z</time>
      </trkpt>
      <trkpt lat="45.67365" lon="5.68115">
        <ele>220</ele>
        <time>2017-04-24T14:27:30Z</time>
      </trkpt>
      <trkpt lat="45.67365" lon="5.68122">
        <ele>220</ele>
        <time>2017-04-24T14:27:30Z</time>
      </trkpt>
      <trkpt lat="45.67365" lon="5.6813">
        <ele>219</ele>
        <time>2017-04-24T14:27:46Z</time>
      </trkpt>
      <trkpt lat="45.67364" lon="5.68139">
        <ele>219</ele>
        <time>2017-04-24T14:27:46Z</time>
      </trkpt>
      <trkpt lat="45.67364" lon="5.68148">
        <ele>219</ele>
        <time>2017-04-24T14:27:46Z</time>
      </trkpt>
      <trkpt lat="45.67363" lon="5.68157">
        <ele>219</ele>
        <time>2017-04-24T14:27:46Z</time>
      </trkpt>
      <trkpt lat="45.6736" lon="5.68164">
        <ele>219</ele>
        <time>2017-04-24T14:28:02Z</time>
      </trkpt>
      <trkpt lat="45.67359" lon="5.68172">
        <ele>219</ele>
        <time>2017-04-24T14:28:02Z</time>
      </trkpt>
      <trkpt lat="45.67357" lon="5.6818">
        <ele>219</ele>
        <time>2017-04-24T14:28:02Z</time>
      </trkpt>
      <trkpt lat="45.67361" lon="5.68187">
        <ele>219</ele>
        <time>2017-04-24T14:28:02Z</time>
      </trkpt>
      <trkpt lat="45.67363" lon="5.68192">
        <ele>219</ele>
        <time>2017-04-24T14:28:18Z</time>
      </trkpt>
      <trkpt lat="45.67365" lon="5.68201">
        <ele>219</ele>
        <time>2017-04-24T14:28:18Z</time>
      </trkpt>
      <trkpt lat="45.67367" lon="5.68211">
        <ele>217</ele>
        <time>2017-04-24T14:28:18Z</time>
      </trkpt>
      <trkpt lat="45.67371" lon="5.68222">
        <ele>217</ele>
        <time>2017-04-24T14:28:18Z</time>
      </trkpt>
      <trkpt lat="45.67373" lon="5.68233">
        <ele>217</ele>
        <time>2017-04-24T14:28:34Z</time>
      </trkpt>
      <trkpt lat="45.67373" lon="5.68243">
        <ele>217</ele>
        <time>2017-04-24T14:28:34Z</time>
      </trkpt>
      <trkpt lat="45.67373" lon="5.68252">
        <ele>217</ele>
        <time>2017-04-24T14:28:34Z</time>
      </trkpt>
      <trkpt lat="45.67373" lon="5.68261">
        <ele>217</ele>
        <time>2017-04-24T14:28:34Z</time>
      </trkpt>
      <trkpt lat="45.67374" lon="5.68274">
        <ele>217</ele>
        <time>2017-04-24T14:28:50Z</time>
      </trkpt>
      <trkpt lat="45.67375" lon="5.68292">
        <ele>215</ele>
        <time>2017-04-24T14:28:50Z</time>
      </trkpt>
      <trkpt lat="45.67377" lon="5.68319">
        <ele>217</ele>
        <time>2017-04-24T14:28:50Z</time>
      </trkpt>
      <trkpt lat="45.67378" lon="5.68346">
        <ele>217</ele>
        <time>2017-04-24T14:28:50Z</time>
      </trkpt>
      <trkpt lat="45.67378" lon="5.68375">
        <ele>215</ele>
        <time>2017-04-24T14:29:06Z</time>
      </trkpt>
      <trkpt lat="45.67375" lon="5.68404">
        <ele>215</ele>
        <time>2017-04-24T14:29:06Z</time>
      </trkpt>
      <trkpt lat="45.67374" lon="5.68438">
        <ele>215</ele>
        <time>2017-04-24T14:29:06Z</time>
      </trkpt>
      <trkpt lat="45.67371" lon="5.68472">
        <ele>215</ele>
        <time>2017-04-24T14:29:06Z</time>
      </trkpt>
      <trkpt lat="45.67367" lon="5.68505">
        <ele>215</ele>
        <time>2017-04-24T14:29:22Z</time>
      </trkpt>
      <trkpt lat="45.67366" lon="5.68536">
        <ele>215</ele>
        <time>2017-04-24T14:29:22Z</time>
      </trkpt>
      <trkpt lat="45.67361" lon="5.68564">
        <ele>216</ele>
        <time>2017-04-24T14:29:22Z</time>
      </trkpt>
      <trkpt lat="45.67359" lon="5.68595">
        <ele>216</ele>
        <time>2017-04-24T14:29:22Z</time>
      </trkpt>
      <trkpt lat="45.67356" lon="5.68627">
        <ele>216</ele>
        <time>2017-04-24T14:29:38Z</time>
      </trkpt>
      <trkpt lat="45.67353" lon="5.68654">
        <ele>216</ele>
        <time>2017-04-24T14:29:38Z</time>
      </trkpt>
      <trkpt lat="45.67353" lon="5.68671">
        <ele>216</ele>
        <time>2017-04-24T14:29:38Z</time>
      </trkpt>
      <trkpt lat="45.67353" lon="5.68678">
        <ele>216</ele>
        <time>2017-04-24T14:29:38Z</time>
      </trkpt>
      <trkpt lat="45.67353" lon="5.68686">
        <ele>216</ele>
        <time>2017-04-24T14:29:54Z</time>
      </trkpt>
      <trkpt lat="45.67354" lon="5.68695">
        <ele>216</ele>
        <time>2017-04-24T14:29:54Z</time>
      </trkpt>
      <trkpt lat="45.67353" lon="5.68705">
        <ele>216</ele>
        <time>2017-04-24T14:29:54Z</time>
      </trkpt>
      <trkpt lat="45.67354" lon="5.68715">
        <ele>215</ele>
        <time>2017-04-24T14:29:54Z</time>
      </trkpt>
      <trkpt lat="45.67354" lon="5.68726">
        <ele>215</ele>
        <time>2017-04-24T14:30:10Z</time>
      </trkpt>
      <trkpt lat="45.67355" lon="5.68736">
        <ele>215</ele>
        <time>2017-04-24T14:30:10Z</time>
      </trkpt>
      <trkpt lat="45.67357" lon="5.68745">
        <ele>215</ele>
        <time>2017-04-24T14:30:10Z</time>
      </trkpt>
      <trkpt lat="45.67358" lon="5.68754">
        <ele>215</ele>
        <time>2017-04-24T14:30:10Z</time>
      </trkpt>
      <trkpt lat="45.67357" lon="5.68765">
        <ele>215</ele>
        <time>2017-04-24T14:30:26Z</time>
      </trkpt>
      <trkpt lat="45.67356" lon="5.68775">
        <ele>215</ele>
        <time>2017-04-24T14:30:26Z</time>
      </trkpt>
      <trkpt lat="45.67354" lon="5.68784">
        <ele>215</ele>
        <time>2017-04-24T14:30:26Z</time>
      </trkpt>
      <trkpt lat="45.67354" lon="5.68794">
        <ele>215</ele>
        <time>2017-04-24T14:30:26Z</time>
      </trkpt>
      <trkpt lat="45.67353" lon="5.68803">
        <ele>215</ele>
        <time>2017-04-24T14:30:42Z</time>
      </trkpt>
      <trkpt lat="45.67353" lon="5.68814">
        <ele>215</ele>
        <time>2017-04-24T14:30:42Z</time>
      </trkpt>
      <trkpt lat="45.67352" lon="5.68824">
        <ele>215</ele>
        <time>2017-04-24T14:30:42Z</time>
      </trkpt>
      <trkpt lat="45.67351" lon="5.68834">
        <ele>215</ele>
        <time>2017-04-24T14:30:42Z</time>
      </trkpt>
      <trkpt lat="45.6735" lon="5.6885">
        <ele>215</ele>
        <time>2017-04-24T14:30:58Z</time>
      </trkpt>
      <trkpt lat="45.67348" lon="5.68875">
        <ele>215</ele>
        <time>2017-04-24T14:30:58Z</time>
      </trkpt>
      <trkpt lat="45.67345" lon="5.68906">
        <ele>215</ele>
        <time>2017-04-24T14:30:58Z</time>
      </trkpt>
      <trkpt lat="45.67342" lon="5.68938">
        <ele>215</ele>
        <time>2017-04-24T14:30:58Z</time>
      </trkpt>
      <trkpt lat="45.67339" lon="5.6897">
        <ele>216</ele>
        <time>2017-04-24T14:31:14Z</time>
      </trkpt>
      <trkpt lat="45.67336" lon="5.69005">
        <ele>216</ele>
        <time>2017-04-24T14:31:14Z</time>
      </trkpt>
      <trkpt lat="45.67333" lon="5.69041">
        <ele>216</ele>
        <time>2017-04-24T14:31:14Z</time>
      </trkpt>
      <trkpt lat="45.67334" lon="5.6907">
        <ele>216</ele>
        <time>2017-04-24T14:31:14Z</time>
      </trkpt>
      <trkpt lat="45.67332" lon="5.69093">
        <ele>216</ele>
        <time>2017-04-24T14:31:30Z</time>
      </trkpt>
      <trkpt lat="45.67331" lon="5.69104">
        <ele>216</ele>
        <time>2017-04-24T14:31:30Z</time>
      </trkpt>
      <trkpt lat="45.6733" lon="5.69115">
        <ele>216</ele>
        <time>2017-04-24T14:31:30Z</time>
      </trkpt>
      <trkpt lat="45.6733" lon="5.69126">
        <ele>216</ele>
        <time>2017-04-24T14:31:30Z</time>
      </trkpt>
      <trkpt lat="45.6733" lon="5.69137">
        <ele>216</ele>
        <time>2017-04-24T14:31:46Z</time>
      </trkpt>
      <trkpt lat="45.6733" lon="5.69146">
        <ele>216</ele>
        <time>2017-04-24T14:31:46Z</time>
      </trkpt>
      <trkpt lat="45.67329" lon="5.69154">
        <ele>216</ele>
        <time>2017-04-24T14:31:46Z</time>
      </trkpt>
      <trkpt lat="45.67328" lon="5.69162">
        <ele>216</ele>
        <time>2017-04-24T14:31:46Z</time>
      </trkpt>
      <trkpt lat="45.67327" lon="5.69165">
        <ele>216</ele>
        <time>2017-04-24T14:32:02Z</time>
      </trkpt>
      <trkpt lat="45.67325" lon="5.69167">
        <ele>216</ele>
        <time>2017-04-24T14:32:02Z</time>
      </trkpt>
      <trkpt lat="45.67317" lon="5.69166">
        <ele>216</ele>
        <time>2017-04-24T14:32:02Z</time>
      </trkpt>
      <trkpt lat="45.67312" lon="5.69162">
        <ele>216</ele>
        <time>2017-04-24T14:32:02Z</time>
      </trkpt>
      <trkpt lat="45.67306" lon="5.69158">
        <ele>216</ele>
        <time>2017-04-24T14:32:18Z</time>
      </trkpt>
      <trkpt lat="45.67301" lon="5.69153">
        <ele>216</ele>
        <time>2017-04-24T14:32:18Z</time>
      </trkpt>
      <trkpt lat="45.67296" lon="5.69149">
        <ele>216</ele>
        <time>2017-04-24T14:32:18Z</time>
      </trkpt>
      <trkpt lat="45.6729" lon="5.69145">
        <ele>217</ele>
        <time>2017-04-24T14:32:18Z</time>
      </trkpt>
      <trkpt lat="45.67285" lon="5.6914">
        <ele>217</ele>
        <time>2017-04-24T14:32:34Z</time>
      </trkpt>
      <trkpt lat="45.67279" lon="5.69136">
        <ele>217</ele>
        <time>2017-04-24T14:32:34Z</time>
      </trkpt>
      <trkpt lat="45.67275" lon="5.69131">
        <ele>217</ele>
        <time>2017-04-24T14:32:34Z</time>
      </trkpt>
      <trkpt lat="45.6727" lon="5.69128">
        <ele>217</ele>
        <time>2017-04-24T14:32:34Z</time>
      </trkpt>
      <trkpt lat="45.67266" lon="5.69123">
        <ele>217</ele>
        <time>2017-04-24T14:32:50Z</time>
      </trkpt>
      <trkpt lat="45.6726" lon="5.69118">
        <ele>217</ele>
        <time>2017-04-24T14:32:50Z</time>
      </trkpt>
      <trkpt lat="45.67255" lon="5.69113">
        <ele>217</ele>
        <time>2017-04-24T14:32:50Z</time>
      </trkpt>
      <trkpt lat="45.67248" lon="5.69109">
        <ele>217</ele>
        <time>2017-04-24T14:32:50Z</time>
      </trkpt>
      <trkpt lat="45.67243" lon="5.69104">
        <ele>217</ele>
        <time>2017-04-24T14:33:06Z</time>
      </trkpt>
      <trkpt lat="45.67237" lon="5.69101">
        <ele>217</ele>
        <time>2017-04-24T14:33:06Z</time>
      </trkpt>
      <trkpt lat="45.67231" lon="5.69096">
        <ele>217</ele>
        <time>2017-04-24T14:33:06Z</time>
      </trkpt>
      <trkpt lat="45.67227" lon="5.69092">
        <ele>217</ele>
        <time>2017-04-24T14:33:06Z</time>
      </trkpt>
      <trkpt lat="45.67222" lon="5.69088">
        <ele>217</ele>
        <time>2017-04-24T14:33:22Z</time>
      </trkpt>
      <trkpt lat="45.67216" lon="5.69084">
        <ele>217</ele>
        <time>2017-04-24T14:33:22Z</time>
      </trkpt>
      <trkpt lat="45.6721" lon="5.69078">
        <ele>217</ele>
        <time>2017-04-24T14:33:22Z</time>
      </trkpt>
      <trkpt lat="45.67205" lon="5.69073">
        <ele>218</ele>
        <time>2017-04-24T14:33:22Z</time>
      </trkpt>
      <trkpt lat="45.672" lon="5.69068">
        <ele>218</ele>
        <time>2017-04-24T14:33:38Z</time>
      </trkpt>
      <trkpt lat="45.67194" lon="5.69063">
        <ele>218</ele>
        <time>2017-04-24T14:33:38Z</time>
      </trkpt>
      <trkpt lat="45.67189" lon="5.69058">
        <ele>218</ele>
        <time>2017-04-24T14:33:38Z</time>
      </trkpt>
      <trkpt lat="45.67186" lon="5.69052">
        <ele>218</ele>
        <time>2017-04-24T14:33:38Z</time>
      </trkpt>
      <trkpt lat="45.67181" lon="5.69046">
        <ele>218</ele>
        <time>2017-04-24T14:33:54Z</time>
      </trkpt>
      <trkpt lat="45.67176" lon="5.69042">
        <ele>217</ele>
        <time>2017-04-24T14:33:54Z</time>
      </trkpt>
      <trkpt lat="45.67172" lon="5.69036">
        <ele>217</ele>
        <time>2017-04-24T14:33:54Z</time>
      </trkpt>
      <trkpt lat="45.67168" lon="5.69031">
        <ele>217</ele>
        <time>2017-04-24T14:33:54Z</time>
      </trkpt>
      <trkpt lat="45.67164" lon="5.69026">
        <ele>217</ele>
        <time>2017-04-24T14:34:10Z</time>
      </trkpt>
      <trkpt lat="45.6716" lon="5.6902">
        <ele>217</ele>
        <time>2017-04-24T14:34:10Z</time>
      </trkpt>
      <trkpt lat="45.67156" lon="5.69014">
        <ele>217</ele>
        <time>2017-04-24T14:34:10Z</time>
      </trkpt>
      <trkpt lat="45.67152" lon="5.69007">
        <ele>217</ele>
        <time>2017-04-24T14:34:10Z</time>
      </trkpt>
      <trkpt lat="45.67149" lon="5.68997">
        <ele>217</ele>
        <time>2017-04-24T14:34:26Z</time>
      </trkpt>
      <trkpt lat="45.67149" lon="5.68983">
        <ele>217</ele>
        <time>2017-04-24T14:34:26Z</time>
      </trkpt>
      <trkpt lat="45.67144" lon="5.68977">
        <ele>217</ele>
        <time>2017-04-24T14:34:26Z</time>
      </trkpt>
      <trkpt lat="45.67138" lon="5.68972">
        <ele>217</ele>
        <time>2017-04-24T14:34:26Z</time>
      </trkpt>
      <trkpt lat="45.67132" lon="5.68968">
        <ele>217</ele>
        <time>2017-04-24T14:34:42Z</time>
      </trkpt>
      <trkpt lat="45.67129" lon="5.68965">
        <ele>217</ele>
        <time>2017-04-24T14:34:42Z</time>
      </trkpt>
      <trkpt lat="45.67124" lon="5.68957">
        <ele>217</ele>
        <time>2017-04-24T14:34:42Z</time>
      </trkpt>
      <trkpt lat="45.6712" lon="5.6895">
        <ele>217</ele>
        <time>2017-04-24T14:34:42Z</time>
      </trkpt>
      <trkpt lat="45.67115" lon="5.68944">
        <ele>217</ele>
        <time>2017-04-24T14:34:58Z</time>
      </trkpt>
      <trkpt lat="45.6711" lon="5.68938">
        <ele>217</ele>
        <time>2017-04-24T14:34:58Z</time>
      </trkpt>
      <trkpt lat="45.67107" lon="5.68931">
        <ele>217</ele>
        <time>2017-04-24T14:34:58Z</time>
      </trkpt>
      <trkpt lat="45.67103" lon="5.68922">
        <ele>217</ele>
        <time>2017-04-24T14:34:58Z</time>
      </trkpt>
      <trkpt lat="45.671" lon="5.68913">
        <ele>217</ele>
        <time>2017-04-24T14:35:14Z</time>
      </trkpt>
      <trkpt lat="45.67096" lon="5.68906">
        <ele>217</ele>
        <time>2017-04-24T14:35:14Z</time>
      </trkpt>
      <trkpt lat="45.67092" lon="5.68898">
        <ele>217</ele>
        <time>2017-04-24T14:35:14Z</time>
      </trkpt>
      <trkpt lat="45.67089" lon="5.6889">
        <ele>217</ele>
        <time>2017-04-24T14:35:14Z</time>
      </trkpt>
      <trkpt lat="45.67085" lon="5.68883">
        <ele>217</ele>
        <time>2017-04-24T14:35:30Z</time>
      </trkpt>
      <trkpt lat="45.67081" lon="5.68876">
        <ele>217</ele>
        <time>2017-04-24T14:35:30Z</time>
      </trkpt>
      <trkpt lat="45.67077" lon="5.68868">
        <ele>216</ele>
        <time>2017-04-24T14:35:30Z</time>
      </trkpt>
      <trkpt lat="45.67074" lon="5.68861">
        <ele>216</ele>
        <time>2017-04-24T14:35:30Z</time>
      </trkpt>
      <trkpt lat="45.6707" lon="5.68853">
        <ele>216</ele>
        <time>2017-04-24T14:35:46Z</time>
      </trkpt>
      <trkpt lat="45.67066" lon="5.68845">
        <ele>216</ele>
        <time>2017-04-24T14:35:46Z</time>
      </trkpt>
      <trkpt lat="45.67062" lon="5.68838">
        <ele>216</ele>
        <time>2017-04-24T14:35:46Z</time>
      </trkpt>
      <trkpt lat="45.67057" lon="5.6883">
        <ele>216</ele>
        <time>2017-04-24T14:35:46Z</time>
      </trkpt>
      <trkpt lat="45.67053" lon="5.68822">
        <ele>216</ele>
        <time>2017-04-24T14:36:02Z</time>
      </trkpt>
      <trkpt lat="45.67049" lon="5.68816">
        <ele>216</ele>
        <time>2017-04-24T14:36:02Z</time>
      </trkpt>
      <trkpt lat="45.67045" lon="5.68809">
        <ele>216</ele>
        <time>2017-04-24T14:36:02Z</time>
      </trkpt>
      <trkpt lat="45.67042" lon="5.68801">
        <ele>216</ele>
        <time>2017-04-24T14:36:02Z</time>
      </trkpt>
      <trkpt lat="45.6704" lon="5.68793">
        <ele>214</ele>
        <time>2017-04-24T14:36:18Z</time>
      </trkpt>
      <trkpt lat="45.67036" lon="5.68786">
        <ele>217</ele>
        <time>2017-04-24T14:36:18Z</time>
      </trkpt>
      <trkpt lat="45.67032" lon="5.68779">
        <ele>217</ele>
        <time>2017-04-24T14:36:18Z</time>
      </trkpt>
      <trkpt lat="45.67027" lon="5.68773">
        <ele>217</ele>
        <time>2017-04-24T14:36:18Z</time>
      </trkpt>
      <trkpt lat="45.67023" lon="5.68767">
        <ele>217</ele>
        <time>2017-04-24T14:36:34Z</time>
      </trkpt>
      <trkpt lat="45.67019" lon="5.68761">
        <ele>217</ele>
        <time>2017-04-24T14:36:34Z</time>
      </trkpt>
      <trkpt lat="45.67016" lon="5.68755">
        <ele>217</ele>
        <time>2017-04-24T14:36:34Z</time>
      </trkpt>
      <trkpt lat="45.67012" lon="5.68749">
        <ele>217</ele>
        <time>2017-04-24T14:36:34Z</time>
      </trkpt>
      <trkpt lat="45.67008" lon="5.68743">
        <ele>217</ele>
        <time>2017-04-24T14:36:50Z</time>
      </trkpt>
      <trkpt lat="45.67004" lon="5.68736">
        <ele>217</ele>
        <time>2017-04-24T14:36:50Z</time>
      </trkpt>
      <trkpt lat="45.67001" lon="5.68729">
        <ele>217</ele>
        <time>2017-04-24T14:36:50Z</time>
      </trkpt>
      <trkpt lat="45.66997" lon="5.68723">
        <ele>217</ele>
        <time>2017-04-24T14:36:50Z</time>
      </trkpt>
      <trkpt lat="45.66993" lon="5.68716">
        <ele>217</ele>
        <time>2017-04-24T14:37:06Z</time>
      </trkpt>
      <trkpt lat="45.66989" lon="5.68709">
        <ele>217</ele>
        <time>2017-04-24T14:37:06Z</time>
      </trkpt>
      <trkpt lat="45.66985" lon="5.68701">
        <ele>216</ele>
        <time>2017-04-24T14:37:06Z</time>
      </trkpt>
      <trkpt lat="45.66981" lon="5.68693">
        <ele>216</ele>
        <time>2017-04-24T14:37:06Z</time>
      </trkpt>
      <trkpt lat="45.66978" lon="5.68686">
        <ele>216</ele>
        <time>2017-04-24T14:37:22Z</time>
      </trkpt>
      <trkpt lat="45.66975" lon="5.68679">
        <ele>216</ele>
        <time>2017-04-24T14:37:22Z</time>
      </trkpt>
      <trkpt lat="45.66972" lon="5.68671">
        <ele>216</ele>
        <time>2017-04-24T14:37:22Z</time>
      </trkpt>
      <trkpt lat="45.66968" lon="5.68665">
        <ele>216</ele>
        <time>2017-04-24T14:37:22Z</time>
      </trkpt>
      <trkpt lat="45.66965" lon="5.68659">
        <ele>216</ele>
        <time>2017-04-24T14:37:38Z</time>
      </trkpt>
      <trkpt lat="45.66961" lon="5.68652">
        <ele>216</ele>
        <time>2017-04-24T14:37:38Z</time>
      </trkpt>
      <trkpt lat="45.66958" lon="5.68644">
        <ele>219</ele>
        <time>2017-04-24T14:37:38Z</time>
      </trkpt>
      <trkpt lat="45.66955" lon="5.68637">
        <ele>219</ele>
        <time>2017-04-24T14:37:38Z</time>
      </trkpt>
      <trkpt lat="45.66952" lon="5.68633">
        <ele>219</ele>
        <time>2017-04-24T14:37:54Z</time>
      </trkpt>
      <trkpt lat="45.66949" lon="5.6864">
        <ele>219</ele>
        <time>2017-04-24T14:37:54Z</time>
      </trkpt>
      <trkpt lat="45.66943" lon="5.6863">
        <ele>219</ele>
        <time>2017-04-24T14:37:54Z</time>
      </trkpt>
      <trkpt lat="45.6694" lon="5.68618">
        <ele>217</ele>
        <time>2017-04-24T14:37:54Z</time>
      </trkpt>
      <trkpt lat="45.66937" lon="5.6861">
        <ele>217</ele>
        <time>2017-04-24T14:38:10Z</time>
      </trkpt>
      <trkpt lat="45.66938" lon="5.68603">
        <ele>217</ele>
        <time>2017-04-24T14:38:10Z</time>
      </trkpt>
      <trkpt lat="45.66931" lon="5.68585">
        <ele>217</ele>
        <time>2017-04-24T14:38:10Z</time>
      </trkpt>
      <trkpt lat="45.66925" lon="5.68575">
        <ele>217</ele>
        <time>2017-04-24T14:38:10Z</time>
      </trkpt>
      <trkpt lat="45.66921" lon="5.68571">
        <ele>217</ele>
        <time>2017-04-24T14:38:26Z</time>
      </trkpt>
      <trkpt lat="45.66917" lon="5.68566">
        <ele>217</ele>
        <time>2017-04-24T14:38:26Z</time>
      </trkpt>
      <trkpt lat="45.66913" lon="5.68563">
        <ele>217</ele>
        <time>2017-04-24T14:38:26Z</time>
      </trkpt>
      <trkpt lat="45.6691" lon="5.68555">
        <ele>217</ele>
        <time>2017-04-24T14:38:26Z</time>
      </trkpt>
      <trkpt lat="45.66907" lon="5.68549">
        <ele>217</ele>
        <time>2017-04-24T14:38:42Z</time>
      </trkpt>
      <trkpt lat="45.66904" lon="5.6854">
        <ele>215</ele>
        <time>2017-04-24T14:38:42Z</time>
      </trkpt>
      <trkpt lat="45.66901" lon="5.68532">
        <ele>215</ele>
        <time>2017-04-24T14:38:42Z</time>
      </trkpt>
      <trkpt lat="45.66897" lon="5.68525">
        <ele>215</ele>
        <time>2017-04-24T14:38:42Z</time>
      </trkpt>
      <trkpt lat="45.66896" lon="5.68516">
        <ele>215</ele>
        <time>2017-04-24T14:38:58Z</time>
      </trkpt>
      <trkpt lat="45.66893" lon="5.68508">
        <ele>215</ele>
        <time>2017-04-24T14:38:58Z</time>
      </trkpt>
      <trkpt lat="45.66891" lon="5.685">
        <ele>215</ele>
        <time>2017-04-24T14:38:58Z</time>
      </trkpt>
      <trkpt lat="45.66886" lon="5.68492">
        <ele>215</ele>
        <time>2017-04-24T14:38:58Z</time>
      </trkpt>
      <trkpt lat="45.66883" lon="5.68483">
        <ele>215</ele>
        <time>2017-04-24T14:39:14Z</time>
      </trkpt>
      <trkpt lat="45.6688" lon="5.68476">
        <ele>215</ele>
        <time>2017-04-24T14:39:14Z</time>
      </trkpt>
      <trkpt lat="45.66878" lon="5.68467">
        <ele>215</ele>
        <time>2017-04-24T14:39:14Z</time>
      </trkpt>
      <trkpt lat="45.66877" lon="5.6846">
        <ele>215</ele>
        <time>2017-04-24T14:39:14Z</time>
      </trkpt>
      <trkpt lat="45.66875" lon="5.68453">
        <ele>218</ele>
        <time>2017-04-24T14:39:30Z</time>
      </trkpt>
      <trkpt lat="45.66872" lon="5.68446">
        <ele>218</ele>
        <time>2017-04-24T14:39:30Z</time>
      </trkpt>
      <trkpt lat="45.66869" lon="5.68439">
        <ele>218</ele>
        <time>2017-04-24T14:39:30Z</time>
      </trkpt>
      <trkpt lat="45.66865" lon="5.68434">
        <ele>218</ele>
        <time>2017-04-24T14:39:30Z</time>
      </trkpt>
      <trkpt lat="45.6686" lon="5.68429">
        <ele>218</ele>
        <time>2017-04-24T14:39:46Z</time>
      </trkpt>
      <trkpt lat="45.66854" lon="5.6843">
        <ele>218</ele>
        <time>2017-04-24T14:39:46Z</time>
      </trkpt>
      <trkpt lat="45.66848" lon="5.6843">
        <ele>218</ele>
        <time>2017-04-24T14:39:46Z</time>
      </trkpt>
      <trkpt lat="45.66843" lon="5.68424">
        <ele>218</ele>
        <time>2017-04-24T14:39:46Z</time>
      </trkpt>
      <trkpt lat="45.66837" lon="5.68417">
        <ele>218</ele>
        <time>2017-04-24T14:40:02Z</time>
      </trkpt>
      <trkpt lat="45.66831" lon="5.68407">
        <ele>218</ele>
        <time>2017-04-24T14:40:02Z</time>
      </trkpt>
      <trkpt lat="45.66828" lon="5.68397">
        <ele>218</ele>
        <time>2017-04-24T14:40:02Z</time>
      </trkpt>
      <trkpt lat="45.66825" lon="5.68391">
        <ele>218</ele>
        <time>2017-04-24T14:40:02Z</time>
      </trkpt>
      <trkpt lat="45.66821" lon="5.68384">
        <ele>218</ele>
        <time>2017-04-24T14:40:18Z</time>
      </trkpt>
      <trkpt lat="45.66816" lon="5.68378">
        <ele>218</ele>
        <time>2017-04-24T14:40:18Z</time>
      </trkpt>
      <trkpt lat="45.66812" lon="5.6837">
        <ele>219</ele>
        <time>2017-04-24T14:40:18Z</time>
      </trkpt>
      <trkpt lat="45.66811" lon="5.68361">
        <ele>219</ele>
        <time>2017-04-24T14:40:18Z</time>
      </trkpt>
      <trkpt lat="45.6681" lon="5.68351">
        <ele>219</ele>
        <time>2017-04-24T14:40:34Z</time>
      </trkpt>
      <trkpt lat="45.66809" lon="5.68342">
        <ele>219</ele>
        <time>2017-04-24T14:40:34Z</time>
      </trkpt>
      <trkpt lat="45.6681" lon="5.68333">
        <ele>219</ele>
        <time>2017-04-24T14:40:34Z</time>
      </trkpt>
      <trkpt lat="45.66811" lon="5.68325">
        <ele>219</ele>
        <time>2017-04-24T14:40:34Z</time>
      </trkpt>
      <trkpt lat="45.66811" lon="5.68317">
        <ele>219</ele>
        <time>2017-04-24T14:40:50Z</time>
      </trkpt>
      <trkpt lat="45.66811" lon="5.68307">
        <ele>219</ele>
        <time>2017-04-24T14:40:50Z</time>
      </trkpt>
      <trkpt lat="45.66811" lon="5.68296">
        <ele>219</ele>
        <time>2017-04-24T14:40:50Z</time>
      </trkpt>
      <trkpt lat="45.66811" lon="5.68285">
        <ele>221</ele>
        <time>2017-04-24T14:40:50Z</time>
      </trkpt>
      <trkpt lat="45.66812" lon="5.68275">
        <ele>221</ele>
        <time>2017-04-24T14:41:06Z</time>
      </trkpt>
      <trkpt lat="45.66813" lon="5.68264">
        <ele>221</ele>
        <time>2017-04-24T14:41:06Z</time>
      </trkpt>
      <trkpt lat="45.66812" lon="5.68255">
        <ele>221</ele>
        <time>2017-04-24T14:41:06Z</time>
      </trkpt>
      <trkpt lat="45.66813" lon="5.68249">
        <ele>221</ele>
        <time>2017-04-24T14:41:06Z</time>
      </trkpt>
      <trkpt lat="45.66814" lon="5.68243">
        <ele>221</ele>
        <time>2017-04-24T14:41:22Z</time>
      </trkpt>
      <trkpt lat="45.66813" lon="5.68234">
        <ele>221</ele>
        <time>2017-04-24T14:41:22Z</time>
      </trkpt>
      <trkpt lat="45.66811" lon="5.68225">
        <ele>221</ele>
        <time>2017-04-24T14:41:22Z</time>
      </trkpt>
      <trkpt lat="45.66809" lon="5.68218">
        <ele>221</ele>
        <time>2017-04-24T14:41:22Z</time>
      </trkpt>
      <trkpt lat="45.66808" lon="5.68211">
        <ele>221</ele>
        <time>2017-04-24T14:41:38Z</time>
      </trkpt>
      <trkpt lat="45.66808" lon="5.68207">
        <ele>223</ele>
        <time>2017-04-24T14:41:38Z</time>
      </trkpt>
      <trkpt lat="45.66807" lon="5.68201">
        <ele>223</ele>
        <time>2017-04-24T14:41:38Z</time>
      </trkpt>
      <trkpt lat="45.66803" lon="5.68194">
        <ele>223</ele>
        <time>2017-04-24T14:41:38Z</time>
      </trkpt>
      <trkpt lat="45.66802" lon="5.68177">
        <ele>223</ele>
        <time>2017-04-24T14:42:06Z</time>
      </trkpt>
      <trkpt lat="45.66802" lon="5.68177">
        <ele>223</ele>
        <time>2017-04-24T14:42:06Z</time>
      </trkpt>
      <trkpt lat="45.66802" lon="5.68176">
        <ele>223</ele>
        <time>2017-04-24T14:42:06Z</time>
      </trkpt>
      <trkpt lat="45.66803" lon="5.68174">
        <ele>223</ele>
        <time>2017-04-24T14:42:06Z</time>
      </trkpt>
      <trkpt lat="45.66807" lon="5.68167">
        <ele>223</ele>
        <time>2017-04-24T14:42:06Z</time>
      </trkpt>
      <trkpt lat="45.66808" lon="5.68159">
        <ele>223</ele>
        <time>2017-04-24T14:42:22Z</time>
      </trkpt>
      <trkpt lat="45.66805" lon="5.68151">
        <ele>223</ele>
        <time>2017-04-24T14:42:22Z</time>
      </trkpt>
      <trkpt lat="45.66799" lon="5.68145">
        <ele>223</ele>
        <time>2017-04-24T14:42:22Z</time>
      </trkpt>
      <trkpt lat="45.66791" lon="5.68147">
        <ele>227</ele>
        <time>2017-04-24T14:42:22Z</time>
      </trkpt>
      <trkpt lat="45.66784" lon="5.68151">
        <ele>227</ele>
        <time>2017-04-24T14:42:38Z</time>
      </trkpt>
      <trkpt lat="45.66777" lon="5.68153">
        <ele>227</ele>
        <time>2017-04-24T14:42:38Z</time>
      </trkpt>
      <trkpt lat="45.66769" lon="5.68155">
        <ele>227</ele>
        <time>2017-04-24T14:42:38Z</time>
      </trkpt>
      <trkpt lat="45.66761" lon="5.68159">
        <ele>227</ele>
        <time>2017-04-24T14:42:38Z</time>
      </trkpt>
      <trkpt lat="45.66754" lon="5.68162">
        <ele>227</ele>
        <time>2017-04-24T14:42:54Z</time>
      </trkpt>
      <trkpt lat="45.66748" lon="5.68165">
        <ele>227</ele>
        <time>2017-04-24T14:42:54Z</time>
      </trkpt>
      <trkpt lat="45.66741" lon="5.68169">
        <ele>227</ele>
        <time>2017-04-24T14:42:54Z</time>
      </trkpt>
      <trkpt lat="45.66735" lon="5.68171">
        <ele>227</ele>
        <time>2017-04-24T14:42:54Z</time>
      </trkpt>
      <trkpt lat="45.66729" lon="5.68174">
        <ele>227</ele>
        <time>2017-04-24T14:43:10Z</time>
      </trkpt>
      <trkpt lat="45.66724" lon="5.68178">
        <ele>227</ele>
        <time>2017-04-24T14:43:10Z</time>
      </trkpt>
      <trkpt lat="45.66719" lon="5.68178">
        <ele>227</ele>
        <time>2017-04-24T14:43:10Z</time>
      </trkpt>
      <trkpt lat="45.66714" lon="5.6818">
        <ele>227</ele>
        <time>2017-04-24T14:43:10Z</time>
      </trkpt>
      <trkpt lat="45.66709" lon="5.68183">
        <ele>227</ele>
        <time>2017-04-24T14:43:26Z</time>
      </trkpt>
      <trkpt lat="45.66703" lon="5.68185">
        <ele>243</ele>
        <time>2017-04-24T14:43:26Z</time>
      </trkpt>
      <trkpt lat="45.66697" lon="5.68187">
        <ele>243</ele>
        <time>2017-04-24T14:43:26Z</time>
      </trkpt>
      <trkpt lat="45.66691" lon="5.6819">
        <ele>243</ele>
        <time>2017-04-24T14:43:26Z</time>
      </trkpt>
      <trkpt lat="45.66685" lon="5.68193">
        <ele>243</ele>
        <time>2017-04-24T14:43:42Z</time>
      </trkpt>
      <trkpt lat="45.66678" lon="5.68196">
        <ele>243</ele>
        <time>2017-04-24T14:43:42Z</time>
      </trkpt>
      <trkpt lat="45.66671" lon="5.68199">
        <ele>243</ele>
        <time>2017-04-24T14:43:42Z</time>
      </trkpt>
      <trkpt lat="45.66665" lon="5.68203">
        <ele>243</ele>
        <time>2017-04-24T14:43:42Z</time>
      </trkpt>
      <trkpt lat="45.66658" lon="5.68206">
        <ele>243</ele>
        <time>2017-04-24T14:43:58Z</time>
      </trkpt>
      <trkpt lat="45.66651" lon="5.68209">
        <ele>222</ele>
        <time>2017-04-24T14:43:58Z</time>
      </trkpt>
      <trkpt lat="45.66644" lon="5.68212">
        <ele>222</ele>
        <time>2017-04-24T14:43:58Z</time>
      </trkpt>
      <trkpt lat="45.66637" lon="5.68216">
        <ele>222</ele>
        <time>2017-04-24T14:43:58Z</time>
      </trkpt>
      <trkpt lat="45.6663" lon="5.68219">
        <ele>222</ele>
        <time>2017-04-24T14:44:14Z</time>
      </trkpt>
      <trkpt lat="45.66623" lon="5.68223">
        <ele>221</ele>
        <time>2017-04-24T14:44:14Z</time>
      </trkpt>
      <trkpt lat="45.66617" lon="5.68229">
        <ele>221</ele>
        <time>2017-04-24T14:44:14Z</time>
      </trkpt>
      <trkpt lat="45.66611" lon="5.68234">
        <ele>221</ele>
        <time>2017-04-24T14:44:14Z</time>
      </trkpt>
      <trkpt lat="45.66604" lon="5.68236">
        <ele>221</ele>
        <time>2017-04-24T14:44:30Z</time>
      </trkpt>
      <trkpt lat="45.66598" lon="5.68237">
        <ele>221</ele>
        <time>2017-04-24T14:44:30Z</time>
      </trkpt>
      <trkpt lat="45.66592" lon="5.68241">
        <ele>221</ele>
        <time>2017-04-24T14:44:30Z</time>
      </trkpt>
      <trkpt lat="45.66585" lon="5.68242">
        <ele>221</ele>
        <time>2017-04-24T14:44:30Z</time>
      </trkpt>
      <trkpt lat="45.66579" lon="5.68239">
        <ele>221</ele>
        <time>2017-04-24T14:44:46Z</time>
      </trkpt>
      <trkpt lat="45.66573" lon="5.68242">
        <ele>221</ele>
        <time>2017-04-24T14:44:46Z</time>
      </trkpt>
      <trkpt lat="45.66567" lon="5.68243">
        <ele>221</ele>
        <time>2017-04-24T14:44:46Z</time>
      </trkpt>
      <trkpt lat="45.66561" lon="5.68242">
        <ele>221</ele>
        <time>2017-04-24T14:44:46Z</time>
      </trkpt>
      <trkpt lat="45.66555" lon="5.6824">
        <ele>221</ele>
        <time>2017-04-24T14:45:02Z</time>
      </trkpt>
      <trkpt lat="45.6655" lon="5.68239">
        <ele>221</ele>
        <time>2017-04-24T14:45:02Z</time>
      </trkpt>
      <trkpt lat="45.66544" lon="5.68239">
        <ele>221</ele>
        <time>2017-04-24T14:45:02Z</time>
      </trkpt>
      <trkpt lat="45.66537" lon="5.68243">
        <ele>217</ele>
        <time>2017-04-24T14:45:02Z</time>
      </trkpt>
      <trkpt lat="45.66531" lon="5.68247">
        <ele>217</ele>
        <time>2017-04-24T14:45:18Z</time>
      </trkpt>
      <trkpt lat="45.66526" lon="5.68252">
        <ele>217</ele>
        <time>2017-04-24T14:45:18Z</time>
      </trkpt>
      <trkpt lat="45.6652" lon="5.68255">
        <ele>217</ele>
        <time>2017-04-24T14:45:18Z</time>
      </trkpt>
      <trkpt lat="45.66514" lon="5.68254">
        <ele>217</ele>
        <time>2017-04-24T14:45:18Z</time>
      </trkpt>
      <trkpt lat="45.66508" lon="5.68253">
        <ele>217</ele>
        <time>2017-04-24T14:45:34Z</time>
      </trkpt>
      <trkpt lat="45.66502" lon="5.68253">
        <ele>217</ele>
        <time>2017-04-24T14:45:34Z</time>
      </trkpt>
      <trkpt lat="45.66495" lon="5.68252">
        <ele>217</ele>
        <time>2017-04-24T14:45:34Z</time>
      </trkpt>
      <trkpt lat="45.66489" lon="5.68251">
        <ele>217</ele>
        <time>2017-04-24T14:45:34Z</time>
      </trkpt>
      <trkpt lat="45.66484" lon="5.68253">
        <ele>217</ele>
        <time>2017-04-24T14:45:50Z</time>
      </trkpt>
      <trkpt lat="45.66476" lon="5.68258">
        <ele>217</ele>
        <time>2017-04-24T14:45:50Z</time>
      </trkpt>
      <trkpt lat="45.6647" lon="5.68258">
        <ele>217</ele>
        <time>2017-04-24T14:45:50Z</time>
      </trkpt>
      <trkpt lat="45.66463" lon="5.68258">
        <ele>217</ele>
        <time>2017-04-24T14:45:50Z</time>
      </trkpt>
      <trkpt lat="45.66457" lon="5.68258">
        <ele>216</ele>
        <time>2017-04-24T14:46:06Z</time>
      </trkpt>
      <trkpt lat="45.66451" lon="5.68257">
        <ele>216</ele>
        <time>2017-04-24T14:46:06Z</time>
      </trkpt>
      <trkpt lat="45.66445" lon="5.68255">
        <ele>216</ele>
        <time>2017-04-24T14:46:06Z</time>
      </trkpt>
      <trkpt lat="45.66439" lon="5.68256">
        <ele>216</ele>
        <time>2017-04-24T14:46:06Z</time>
      </trkpt>
      <trkpt lat="45.66432" lon="5.68258">
        <ele>216</ele>
        <time>2017-04-24T14:46:22Z</time>
      </trkpt>
      <trkpt lat="45.66426" lon="5.68256">
        <ele>216</ele>
        <time>2017-04-24T14:46:22Z</time>
      </trkpt>
      <trkpt lat="45.66419" lon="5.68254">
        <ele>216</ele>
        <time>2017-04-24T14:46:22Z</time>
      </trkpt>
      <trkpt lat="45.66413" lon="5.68252">
        <ele>216</ele>
        <time>2017-04-24T14:46:22Z</time>
      </trkpt>
      <trkpt lat="45.66407" lon="5.68252">
        <ele>216</ele>
        <time>2017-04-24T14:46:38Z</time>
      </trkpt>
      <trkpt lat="45.664" lon="5.6825">
        <ele>216</ele>
        <time>2017-04-24T14:46:38Z</time>
      </trkpt>
      <trkpt lat="45.66392" lon="5.68251">
        <ele>216</ele>
        <time>2017-04-24T14:46:38Z</time>
      </trkpt>
      <trkpt lat="45.66385" lon="5.68249">
        <ele>216</ele>
        <time>2017-04-24T14:46:38Z</time>
      </trkpt>
      <trkpt lat="45.66378" lon="5.68248">
        <ele>216</ele>
        <time>2017-04-24T14:46:54Z</time>
      </trkpt>
      <trkpt lat="45.66373" lon="5.68246">
        <ele>216</ele>
        <time>2017-04-24T14:46:54Z</time>
      </trkpt>
      <trkpt lat="45.66366" lon="5.68248">
        <ele>216</ele>
        <time>2017-04-24T14:46:54Z</time>
      </trkpt>
      <trkpt lat="45.66356" lon="5.68251">
        <ele>216</ele>
        <time>2017-04-24T14:46:54Z</time>
      </trkpt>
      <trkpt lat="45.66348" lon="5.68251">
        <ele>216</ele>
        <time>2017-04-24T14:47:10Z</time>
      </trkpt>
      <trkpt lat="45.66342" lon="5.68248">
        <ele>216</ele>
        <time>2017-04-24T14:47:10Z</time>
      </trkpt>
      <trkpt lat="45.66336" lon="5.68245">
        <ele>216</ele>
        <time>2017-04-24T14:47:10Z</time>
      </trkpt>
      <trkpt lat="45.6633" lon="5.68244">
        <ele>216</ele>
        <time>2017-04-24T14:47:10Z</time>
      </trkpt>
      <trkpt lat="45.66324" lon="5.68244">
        <ele>216</ele>
        <time>2017-04-24T14:47:26Z</time>
      </trkpt>
      <trkpt lat="45.66319" lon="5.68246">
        <ele>216</ele>
        <time>2017-04-24T14:47:26Z</time>
      </trkpt>
      <trkpt lat="45.66315" lon="5.68244">
        <ele>216</ele>
        <time>2017-04-24T14:47:26Z</time>
      </trkpt>
      <trkpt lat="45.6631" lon="5.68242">
        <ele>216</ele>
        <time>2017-04-24T14:47:26Z</time>
      </trkpt>
      <trkpt lat="45.66307" lon="5.68242">
        <ele>216</ele>
        <time>2017-04-24T14:47:42Z</time>
      </trkpt>
      <trkpt lat="45.66305" lon="5.6824">
        <ele>216</ele>
        <time>2017-04-24T14:47:42Z</time>
      </trkpt>
      <trkpt lat="45.663" lon="5.68241">
        <ele>216</ele>
        <time>2017-04-24T14:47:42Z</time>
      </trkpt>
      <trkpt lat="45.66293" lon="5.68239">
        <ele>216</ele>
        <time>2017-04-24T14:47:42Z</time>
      </trkpt>
      <trkpt lat="45.66287" lon="5.6824">
        <ele>216</ele>
        <time>2017-04-24T14:47:58Z</time>
      </trkpt>
      <trkpt lat="45.66279" lon="5.68245">
        <ele>216</ele>
        <time>2017-04-24T14:47:58Z</time>
      </trkpt>
      <trkpt lat="45.66272" lon="5.68246">
        <ele>216</ele>
        <time>2017-04-24T14:47:58Z</time>
      </trkpt>
      <trkpt lat="45.66265" lon="5.68249">
        <ele>216</ele>
        <time>2017-04-24T14:47:58Z</time>
      </trkpt>
      <trkpt lat="45.66258" lon="5.6825">
        <ele>216</ele>
        <time>2017-04-24T14:48:14Z</time>
      </trkpt>
      <trkpt lat="45.66253" lon="5.68253">
        <ele>216</ele>
        <time>2017-04-24T14:48:14Z</time>
      </trkpt>
      <trkpt lat="45.66247" lon="5.68254">
        <ele>216</ele>
        <time>2017-04-24T14:48:14Z</time>
      </trkpt>
      <trkpt lat="45.6624" lon="5.68251">
        <ele>216</ele>
        <time>2017-04-24T14:48:14Z</time>
      </trkpt>
      <trkpt lat="45.66234" lon="5.68248">
        <ele>216</ele>
        <time>2017-04-24T14:48:30Z</time>
      </trkpt>
      <trkpt lat="45.66229" lon="5.68249">
        <ele>216</ele>
        <time>2017-04-24T14:48:30Z</time>
      </trkpt>
      <trkpt lat="45.66224" lon="5.68248">
        <ele>216</ele>
        <time>2017-04-24T14:48:30Z</time>
      </trkpt>
      <trkpt lat="45.66219" lon="5.68246">
        <ele>216</ele>
        <time>2017-04-24T14:48:30Z</time>
      </trkpt>
      <trkpt lat="45.66213" lon="5.68248">
        <ele>216</ele>
        <time>2017-04-24T14:48:46Z</time>
      </trkpt>
      <trkpt lat="45.66207" lon="5.68248">
        <ele>219</ele>
        <time>2017-04-24T14:48:46Z</time>
      </trkpt>
      <trkpt lat="45.66201" lon="5.68249">
        <ele>219</ele>
        <time>2017-04-24T14:48:46Z</time>
      </trkpt>
      <trkpt lat="45.66195" lon="5.68249">
        <ele>219</ele>
        <time>2017-04-24T14:48:46Z</time>
      </trkpt>
      <trkpt lat="45.66189" lon="5.6825">
        <ele>219</ele>
        <time>2017-04-24T14:49:02Z</time>
      </trkpt>
      <trkpt lat="45.66183" lon="5.68251">
        <ele>219</ele>
        <time>2017-04-24T14:49:02Z</time>
      </trkpt>
      <trkpt lat="45.66178" lon="5.68252">
        <ele>219</ele>
        <time>2017-04-24T14:49:02Z</time>
      </trkpt>
      <trkpt lat="45.66171" lon="5.68253">
        <ele>219</ele>
        <time>2017-04-24T14:49:02Z</time>
      </trkpt>
      <trkpt lat="45.66166" lon="5.68254">
        <ele>219</ele>
        <time>2017-04-24T14:49:18Z</time>
      </trkpt>
      <trkpt lat="45.66162" lon="5.68257">
        <ele>219</ele>
        <time>2017-04-24T14:49:18Z</time>
      </trkpt>
      <trkpt lat="45.66158" lon="5.68261">
        <ele>219</ele>
        <time>2017-04-24T14:49:18Z</time>
      </trkpt>
      <trkpt lat="45.66154" lon="5.68265">
        <ele>219</ele>
        <time>2017-04-24T14:49:18Z</time>
      </trkpt>
      <trkpt lat="45.66147" lon="5.68265">
        <ele>219</ele>
        <time>2017-04-24T14:49:34Z</time>
      </trkpt>
      <trkpt lat="45.66141" lon="5.68265">
        <ele>219</ele>
        <time>2017-04-24T14:49:34Z</time>
      </trkpt>
      <trkpt lat="45.66135" lon="5.68266">
        <ele>219</ele>
        <time>2017-04-24T14:49:34Z</time>
      </trkpt>
      <trkpt lat="45.6613" lon="5.68268">
        <ele>219</ele>
        <time>2017-04-24T14:49:34Z</time>
      </trkpt>
      <trkpt lat="45.66124" lon="5.68271">
        <ele>228</ele>
        <time>2017-04-24T14:49:50Z</time>
      </trkpt>
      <trkpt lat="45.66118" lon="5.68276">
        <ele>228</ele>
        <time>2017-04-24T14:49:50Z</time>
      </trkpt>
      <trkpt lat="45.66112" lon="5.6828">
        <ele>228</ele>
        <time>2017-04-24T14:49:50Z</time>
      </trkpt>
      <trkpt lat="45.66105" lon="5.68281">
        <ele>228</ele>
        <time>2017-04-24T14:49:50Z</time>
      </trkpt>
      <trkpt lat="45.66099" lon="5.68286">
        <ele>228</ele>
        <time>2017-04-24T14:50:06Z</time>
      </trkpt>
      <trkpt lat="45.66092" lon="5.6829">
        <ele>228</ele>
        <time>2017-04-24T14:50:06Z</time>
      </trkpt>
      <trkpt lat="45.66085" lon="5.68293">
        <ele>214</ele>
        <time>2017-04-24T14:50:06Z</time>
      </trkpt>
      <trkpt lat="45.66078" lon="5.68291">
        <ele>228</ele>
        <time>2017-04-24T14:50:06Z</time>
      </trkpt>
      <trkpt lat="45.66072" lon="5.68292">
        <ele>228</ele>
        <time>2017-04-24T14:50:22Z</time>
      </trkpt>
      <trkpt lat="45.66067" lon="5.68291">
        <ele>228</ele>
        <time>2017-04-24T14:50:22Z</time>
      </trkpt>
      <trkpt lat="45.66061" lon="5.68292">
        <ele>214</ele>
        <time>2017-04-24T14:50:22Z</time>
      </trkpt>
      <trkpt lat="45.66055" lon="5.68292">
        <ele>228</ele>
        <time>2017-04-24T14:50:22Z</time>
      </trkpt>
      <trkpt lat="45.66049" lon="5.68288">
        <ele>228</ele>
        <time>2017-04-24T14:50:38Z</time>
      </trkpt>
      <trkpt lat="45.66043" lon="5.68288">
        <ele>228</ele>
        <time>2017-04-24T14:50:38Z</time>
      </trkpt>
      <trkpt lat="45.66036" lon="5.68288">
        <ele>247</ele>
        <time>2017-04-24T14:50:38Z</time>
      </trkpt>
      <trkpt lat="45.6603" lon="5.6829">
        <ele>247</ele>
        <time>2017-04-24T14:50:38Z</time>
      </trkpt>
      <trkpt lat="45.66023" lon="5.68295">
        <ele>216</ele>
        <time>2017-04-24T14:50:54Z</time>
      </trkpt>
      <trkpt lat="45.66015" lon="5.68302">
        <ele>216</ele>
        <time>2017-04-24T14:50:54Z</time>
      </trkpt>
      <trkpt lat="45.66008" lon="5.68303">
        <ele>216</ele>
        <time>2017-04-24T14:50:54Z</time>
      </trkpt>
      <trkpt lat="45.66002" lon="5.68303">
        <ele>216</ele>
        <time>2017-04-24T14:50:54Z</time>
      </trkpt>
      <trkpt lat="45.65997" lon="5.68302">
        <ele>216</ele>
        <time>2017-04-24T14:51:10Z</time>
      </trkpt>
      <trkpt lat="45.65991" lon="5.68304">
        <ele>216</ele>
        <time>2017-04-24T14:51:10Z</time>
      </trkpt>
      <trkpt lat="45.65985" lon="5.68303">
        <ele>216</ele>
        <time>2017-04-24T14:51:10Z</time>
      </trkpt>
      <trkpt lat="45.6598" lon="5.68303">
        <ele>216</ele>
        <time>2017-04-24T14:51:10Z</time>
      </trkpt>
      <trkpt lat="45.65975" lon="5.68304">
        <ele>216</ele>
        <time>2017-04-24T14:51:26Z</time>
      </trkpt>
      <trkpt lat="45.65968" lon="5.68304">
        <ele>216</ele>
        <time>2017-04-24T14:51:26Z</time>
      </trkpt>
      <trkpt lat="45.65961" lon="5.68305">
        <ele>216</ele>
        <time>2017-04-24T14:51:26Z</time>
      </trkpt>
      <trkpt lat="45.65955" lon="5.68305">
        <ele>221</ele>
        <time>2017-04-24T14:51:26Z</time>
      </trkpt>
      <trkpt lat="45.65948" lon="5.68306">
        <ele>221</ele>
        <time>2017-04-24T14:51:42Z</time>
      </trkpt>
      <trkpt lat="45.65942" lon="5.68309">
        <ele>221</ele>
        <time>2017-04-24T14:51:42Z</time>
      </trkpt>
      <trkpt lat="45.65937" lon="5.68312">
        <ele>221</ele>
        <time>2017-04-24T14:51:42Z</time>
      </trkpt>
      <trkpt lat="45.65932" lon="5.68316">
        <ele>221</ele>
        <time>2017-04-24T14:51:42Z</time>
      </trkpt>
      <trkpt lat="45.65926" lon="5.68321">
        <ele>221</ele>
        <time>2017-04-24T14:51:58Z</time>
      </trkpt>
      <trkpt lat="45.6592" lon="5.68326">
        <ele>221</ele>
        <time>2017-04-24T14:51:58Z</time>
      </trkpt>
      <trkpt lat="45.65914" lon="5.68329">
        <ele>221</ele>
        <time>2017-04-24T14:51:58Z</time>
      </trkpt>
      <trkpt lat="45.65908" lon="5.68331">
        <ele>221</ele>
        <time>2017-04-24T14:51:58Z</time>
      </trkpt>
      <trkpt lat="45.65902" lon="5.6833">
        <ele>221</ele>
        <time>2017-04-24T14:52:14Z</time>
      </trkpt>
      <trkpt lat="45.65896" lon="5.68323">
        <ele>221</ele>
        <time>2017-04-24T14:52:14Z</time>
      </trkpt>
      <trkpt lat="45.6589" lon="5.6832">
        <ele>221</ele>
        <time>2017-04-24T14:52:14Z</time>
      </trkpt>
      <trkpt lat="45.65884" lon="5.68321">
        <ele>221</ele>
        <time>2017-04-24T14:52:14Z</time>
      </trkpt>
      <trkpt lat="45.65878" lon="5.68324">
        <ele>221</ele>
        <time>2017-04-24T14:52:30Z</time>
      </trkpt>
      <trkpt lat="45.65872" lon="5.68325">
        <ele>228</ele>
        <time>2017-04-24T14:52:30Z</time>
      </trkpt>
      <trkpt lat="45.65867" lon="5.68325">
        <ele>228</ele>
        <time>2017-04-24T14:52:30Z</time>
      </trkpt>
      <trkpt lat="45.65862" lon="5.68325">
        <ele>228</ele>
        <time>2017-04-24T14:52:30Z</time>
      </trkpt>
      <trkpt lat="45.65856" lon="5.68325">
        <ele>228</ele>
        <time>2017-04-24T14:52:46Z</time>
      </trkpt>
      <trkpt lat="45.6585" lon="5.68322">
        <ele>228</ele>
        <time>2017-04-24T14:52:46Z</time>
      </trkpt>
      <trkpt lat="45.65844" lon="5.68322">
        <ele>228</ele>
        <time>2017-04-24T14:52:46Z</time>
      </trkpt>
      <trkpt lat="45.65838" lon="5.68325">
        <ele>228</ele>
        <time>2017-04-24T14:52:46Z</time>
      </trkpt>
      <trkpt lat="45.65832" lon="5.68325">
        <ele>228</ele>
        <time>2017-04-24T14:53:02Z</time>
      </trkpt>
      <trkpt lat="45.65826" lon="5.68321">
        <ele>228</ele>
        <time>2017-04-24T14:53:02Z</time>
      </trkpt>
      <trkpt lat="45.65819" lon="5.68325">
        <ele>228</ele>
        <time>2017-04-24T14:53:02Z</time>
      </trkpt>
      <trkpt lat="45.65812" lon="5.68331">
        <ele>228</ele>
        <time>2017-04-24T14:53:02Z</time>
      </trkpt>
      <trkpt lat="45.65806" lon="5.68336">
        <ele>228</ele>
        <time>2017-04-24T14:53:18Z</time>
      </trkpt>
      <trkpt lat="45.65799" lon="5.6834">
        <ele>228</ele>
        <time>2017-04-24T14:53:18Z</time>
      </trkpt>
      <trkpt lat="45.65792" lon="5.68342">
        <ele>228</ele>
        <time>2017-04-24T14:53:18Z</time>
      </trkpt>
      <trkpt lat="45.65786" lon="5.68345">
        <ele>242</ele>
        <time>2017-04-24T14:53:18Z</time>
      </trkpt>
      <trkpt lat="45.6578" lon="5.68348">
        <ele>242</ele>
        <time>2017-04-24T14:53:34Z</time>
      </trkpt>
      <trkpt lat="45.65774" lon="5.68349">
        <ele>242</ele>
        <time>2017-04-24T14:53:34Z</time>
      </trkpt>
      <trkpt lat="45.65768" lon="5.68348">
        <ele>242</ele>
        <time>2017-04-24T14:53:34Z</time>
      </trkpt>
      <trkpt lat="45.65762" lon="5.68351">
        <ele>242</ele>
        <time>2017-04-24T14:53:34Z</time>
      </trkpt>
      <trkpt lat="45.65755" lon="5.6835">
        <ele>242</ele>
        <time>2017-04-24T14:53:50Z</time>
      </trkpt>
      <trkpt lat="45.6575" lon="5.68352">
        <ele>242</ele>
        <time>2017-04-24T14:53:50Z</time>
      </trkpt>
      <trkpt lat="45.65747" lon="5.68361">
        <ele>242</ele>
        <time>2017-04-24T14:53:50Z</time>
      </trkpt>
      <trkpt lat="45.65742" lon="5.68366">
        <ele>242</ele>
        <time>2017-04-24T14:53:50Z</time>
      </trkpt>
      <trkpt lat="45.65737" lon="5.68368">
        <ele>242</ele>
        <time>2017-04-24T14:54:06Z</time>
      </trkpt>
      <trkpt lat="45.65732" lon="5.68369">
        <ele>242</ele>
        <time>2017-04-24T14:54:06Z</time>
      </trkpt>
      <trkpt lat="45.65726" lon="5.68374">
        <ele>242</ele>
        <time>2017-04-24T14:54:06Z</time>
      </trkpt>
      <trkpt lat="45.6572" lon="5.68377">
        <ele>215</ele>
        <time>2017-04-24T14:54:06Z</time>
      </trkpt>
      <trkpt lat="45.65714" lon="5.68379">
        <ele>215</ele>
        <time>2017-04-24T14:54:22Z</time>
      </trkpt>
      <trkpt lat="45.65708" lon="5.68382">
        <ele>215</ele>
        <time>2017-04-24T14:54:22Z</time>
      </trkpt>
      <trkpt lat="45.65704" lon="5.68385">
        <ele>220</ele>
        <time>2017-04-24T14:54:22Z</time>
      </trkpt>
      <trkpt lat="45.65699" lon="5.68391">
        <ele>220</ele>
        <time>2017-04-24T14:54:22Z</time>
      </trkpt>
      <trkpt lat="45.657" lon="5.6839">
        <ele>220</ele>
        <time>2017-04-24T14:54:42Z</time>
      </trkpt>
      <trkpt lat="45.657" lon="5.68391">
        <ele>220</ele>
        <time>2017-04-24T14:54:42Z</time>
      </trkpt>
      <trkpt lat="45.65699" lon="5.6839">
        <ele>220</ele>
        <time>2017-04-24T14:54:42Z</time>
      </trkpt>
      <trkpt lat="45.65698" lon="5.6839">
        <ele>220</ele>
        <time>2017-04-24T14:54:42Z</time>
      </trkpt>
      <trkpt lat="45.65691" lon="5.68391">
        <ele>220</ele>
        <time>2017-04-24T14:54:42Z</time>
      </trkpt>
      <trkpt lat="45.65685" lon="5.68394">
        <ele>220</ele>
        <time>2017-04-24T14:54:58Z</time>
      </trkpt>
      <trkpt lat="45.65679" lon="5.68395">
        <ele>220</ele>
        <time>2017-04-24T14:54:58Z</time>
      </trkpt>
      <trkpt lat="45.65673" lon="5.68396">
        <ele>220</ele>
        <time>2017-04-24T14:54:58Z</time>
      </trkpt>
      <trkpt lat="45.65668" lon="5.68398">
        <ele>220</ele>
        <time>2017-04-24T14:54:58Z</time>
      </trkpt>
      <trkpt lat="45.65663" lon="5.684">
        <ele>220</ele>
        <time>2017-04-24T14:55:14Z</time>
      </trkpt>
      <trkpt lat="45.65658" lon="5.68404">
        <ele>220</ele>
        <time>2017-04-24T14:55:14Z</time>
      </trkpt>
      <trkpt lat="45.65652" lon="5.68406">
        <ele>220</ele>
        <time>2017-04-24T14:55:14Z</time>
      </trkpt>
      <trkpt lat="45.65646" lon="5.68408">
        <ele>220</ele>
        <time>2017-04-24T14:55:14Z</time>
      </trkpt>
      <trkpt lat="45.65635" lon="5.68405">
        <ele>220</ele>
        <time>2017-04-24T14:55:54Z</time>
      </trkpt>
      <trkpt lat="45.65634" lon="5.68404">
        <ele>220</ele>
        <time>2017-04-24T14:55:54Z</time>
      </trkpt>
      <trkpt lat="45.65634" lon="5.68404">
        <ele>220</ele>
        <time>2017-04-24T14:55:54Z</time>
      </trkpt>
      <trkpt lat="45.65632" lon="5.68405">
        <ele>220</ele>
        <time>2017-04-24T14:55:54Z</time>
      </trkpt>
      <trkpt lat="45.65626" lon="5.68404">
        <ele>220</ele>
        <time>2017-04-24T14:55:54Z</time>
      </trkpt>
      <trkpt lat="45.65619" lon="5.68404">
        <ele>226</ele>
        <time>2017-04-24T14:56:10Z</time>
      </trkpt>
      <trkpt lat="45.65612" lon="5.68407">
        <ele>226</ele>
        <time>2017-04-24T14:56:10Z</time>
      </trkpt>
      <trkpt lat="45.65607" lon="5.68404">
        <ele>226</ele>
        <time>2017-04-24T14:56:10Z</time>
      </trkpt>
      <trkpt lat="45.656" lon="5.68405">
        <ele>226</ele>
        <time>2017-04-24T14:56:10Z</time>
      </trkpt>
      <trkpt lat="45.65592" lon="5.68406">
        <ele>226</ele>
        <time>2017-04-24T14:56:26Z</time>
      </trkpt>
      <trkpt lat="45.65586" lon="5.6841">
        <ele>226</ele>
        <time>2017-04-24T14:56:26Z</time>
      </trkpt>
      <trkpt lat="45.65581" lon="5.68411">
        <ele>226</ele>
        <time>2017-04-24T14:56:26Z</time>
      </trkpt>
      <trkpt lat="45.6558" lon="5.68413">
        <ele>226</ele>
        <time>2017-04-24T14:56:26Z</time>
      </trkpt>
      <trkpt lat="45.65574" lon="5.68417">
        <ele>226</ele>
        <time>2017-04-24T14:56:42Z</time>
      </trkpt>
      <trkpt lat="45.65567" lon="5.6842">
        <ele>226</ele>
        <time>2017-04-24T14:56:42Z</time>
      </trkpt>
      <trkpt lat="45.65561" lon="5.68421">
        <ele>226</ele>
        <time>2017-04-24T14:56:42Z</time>
      </trkpt>
      <trkpt lat="45.65558" lon="5.68422">
        <ele>226</ele>
        <time>2017-04-24T14:56:42Z</time>
      </trkpt>
      <trkpt lat="45.6556" lon="5.68421">
        <ele>226</ele>
        <time>2017-04-24T14:56:58Z</time>
      </trkpt>
      <trkpt lat="45.65559" lon="5.68421">
        <ele>226</ele>
        <time>2017-04-24T14:56:58Z</time>
      </trkpt>
      <trkpt lat="45.65553" lon="5.68422">
        <ele>226</ele>
        <time>2017-04-24T14:56:58Z</time>
      </trkpt>
      <trkpt lat="45.65546" lon="5.68422">
        <ele>226</ele>
        <time>2017-04-24T14:56:58Z</time>
      </trkpt>
      <trkpt lat="45.65541" lon="5.6842">
        <ele>231</ele>
        <time>2017-04-24T14:57:14Z</time>
      </trkpt>
      <trkpt lat="45.65535" lon="5.6842">
        <ele>231</ele>
        <time>2017-04-24T14:57:14Z</time>
      </trkpt>
      <trkpt lat="45.65529" lon="5.6842">
        <ele>231</ele>
        <time>2017-04-24T14:57:14Z</time>
      </trkpt>
      <trkpt lat="45.65523" lon="5.68419">
        <ele>231</ele>
        <time>2017-04-24T14:57:14Z</time>
      </trkpt>
      <trkpt lat="45.65521" lon="5.68419">
        <ele>231</ele>
        <time>2017-04-24T14:57:30Z</time>
      </trkpt>
      <trkpt lat="45.65516" lon="5.68421">
        <ele>231</ele>
        <time>2017-04-24T14:57:30Z</time>
      </trkpt>
      <trkpt lat="45.6551" lon="5.68424">
        <ele>231</ele>
        <time>2017-04-24T14:57:30Z</time>
      </trkpt>
      <trkpt lat="45.65504" lon="5.68426">
        <ele>231</ele>
        <time>2017-04-24T14:57:30Z</time>
      </trkpt>
      <trkpt lat="45.65503" lon="5.68427">
        <ele>231</ele>
        <time>2017-04-24T14:57:46Z</time>
      </trkpt>
      <trkpt lat="45.65502" lon="5.68428">
        <ele>231</ele>
        <time>2017-04-24T14:57:46Z</time>
      </trkpt>
      <trkpt lat="45.65495" lon="5.68427">
        <ele>231</ele>
        <time>2017-04-24T14:57:46Z</time>
      </trkpt>
      <trkpt lat="45.65491" lon="5.68429">
        <ele>231</ele>
        <time>2017-04-24T14:57:46Z</time>
      </trkpt>
      <trkpt lat="45.6549" lon="5.68431">
        <ele>231</ele>
        <time>2017-04-24T14:58:14Z</time>
      </trkpt>
      <trkpt lat="45.6549" lon="5.68431">
        <ele>231</ele>
        <time>2017-04-24T14:58:14Z</time>
      </trkpt>
      <trkpt lat="45.6549" lon="5.68431">
        <ele>231</ele>
        <time>2017-04-24T14:58:14Z</time>
      </trkpt>
      <trkpt lat="45.65484" lon="5.68432">
        <ele>231</ele>
        <time>2017-04-24T14:58:14Z</time>
      </trkpt>
      <trkpt lat="45.65477" lon="5.68434">
        <ele>231</ele>
        <time>2017-04-24T14:58:14Z</time>
      </trkpt>
      <trkpt lat="45.6547" lon="5.68437">
        <ele>231</ele>
        <time>2017-04-24T14:58:30Z</time>
      </trkpt>
      <trkpt lat="45.65465" lon="5.68439">
        <ele>231</ele>
        <time>2017-04-24T14:58:30Z</time>
      </trkpt>
      <trkpt lat="45.65458" lon="5.68438">
        <ele>231</ele>
        <time>2017-04-24T14:58:30Z</time>
      </trkpt>
      <trkpt lat="45.65453" lon="5.68439">
        <ele>232</ele>
        <time>2017-04-24T14:58:30Z</time>
      </trkpt>
      <trkpt lat="45.65448" lon="5.68441">
        <ele>232</ele>
        <time>2017-04-24T14:58:46Z</time>
      </trkpt>
      <trkpt lat="45.65443" lon="5.6844">
        <ele>232</ele>
        <time>2017-04-24T14:58:46Z</time>
      </trkpt>
      <trkpt lat="45.65439" lon="5.68437">
        <ele>232</ele>
        <time>2017-04-24T14:58:46Z</time>
      </trkpt>
      <trkpt lat="45.65436" lon="5.68437">
        <ele>232</ele>
        <time>2017-04-24T14:58:46Z</time>
      </trkpt>
      <trkpt lat="45.65432" lon="5.68436">
        <ele>232</ele>
        <time>2017-04-24T14:59:02Z</time>
      </trkpt>
      <trkpt lat="45.65428" lon="5.68432">
        <ele>232</ele>
        <time>2017-04-24T14:59:02Z</time>
      </trkpt>
      <trkpt lat="45.65422" lon="5.68428">
        <ele>232</ele>
        <time>2017-04-24T14:59:02Z</time>
      </trkpt>
      <trkpt lat="45.65412" lon="5.68425">
        <ele>232</ele>
        <time>2017-04-24T14:59:02Z</time>
      </trkpt>
      <trkpt lat="45.65405" lon="5.68425">
        <ele>232</ele>
        <time>2017-04-24T14:59:18Z</time>
      </trkpt>
      <trkpt lat="45.65401" lon="5.68426">
        <ele>232</ele>
        <time>2017-04-24T14:59:18Z</time>
      </trkpt>
      <trkpt lat="45.65395" lon="5.68425">
        <ele>232</ele>
        <time>2017-04-24T14:59:18Z</time>
      </trkpt>
      <trkpt lat="45.65388" lon="5.68424">
        <ele>232</ele>
        <time>2017-04-24T14:59:18Z</time>
      </trkpt>
      <trkpt lat="45.65382" lon="5.68424">
        <ele>232</ele>
        <time>2017-04-24T14:59:34Z</time>
      </trkpt>
      <trkpt lat="45.65378" lon="5.68422">
        <ele>232</ele>
        <time>2017-04-24T14:59:34Z</time>
      </trkpt>
      <trkpt lat="45.65372" lon="5.68417">
        <ele>226</ele>
        <time>2017-04-24T14:59:34Z</time>
      </trkpt>
      <trkpt lat="45.65368" lon="5.68411">
        <ele>226</ele>
        <time>2017-04-24T14:59:34Z</time>
      </trkpt>
      <trkpt lat="45.65367" lon="5.68409">
        <ele>226</ele>
        <time>2017-04-24T14:59:58Z</time>
      </trkpt>
      <trkpt lat="45.65367" lon="5.68409">
        <ele>226</ele>
        <time>2017-04-24T14:59:58Z</time>
      </trkpt>
      <trkpt lat="45.65366" lon="5.68409">
        <ele>226</ele>
        <time>2017-04-24T14:59:58Z</time>
      </trkpt>
      <trkpt lat="45.65365" lon="5.68408">
        <ele>226</ele>
        <time>2017-04-24T14:59:58Z</time>
      </trkpt>
      <trkpt lat="45.65359" lon="5.68405">
        <ele>226</ele>
        <time>2017-04-24T14:59:58Z</time>
      </trkpt>
      <trkpt lat="45.65351" lon="5.68402">
        <ele>226</ele>
        <time>2017-04-24T15:00:14Z</time>
      </trkpt>
      <trkpt lat="45.65344" lon="5.68399">
        <ele>226</ele>
        <time>2017-04-24T15:00:14Z</time>
      </trkpt>
      <trkpt lat="45.65338" lon="5.68396">
        <ele>226</ele>
        <time>2017-04-24T15:00:14Z</time>
      </trkpt>
      <trkpt lat="45.65331" lon="5.68391">
        <ele>226</ele>
        <time>2017-04-24T15:00:14Z</time>
      </trkpt>
      <trkpt lat="45.65326" lon="5.68386">
        <ele>226</ele>
        <time>2017-04-24T15:00:30Z</time>
      </trkpt>
      <trkpt lat="45.65323" lon="5.68381">
        <ele>226</ele>
        <time>2017-04-24T15:00:30Z</time>
      </trkpt>
      <trkpt lat="45.65319" lon="5.68377">
        <ele>226</ele>
        <time>2017-04-24T15:00:30Z</time>
      </trkpt>
      <trkpt lat="45.65313" lon="5.6837">
        <ele>246</ele>
        <time>2017-04-24T15:00:30Z</time>
      </trkpt>
      <trkpt lat="45.65306" lon="5.68365">
        <ele>246</ele>
        <time>2017-04-24T15:00:46Z</time>
      </trkpt>
      <trkpt lat="45.65299" lon="5.68361">
        <ele>246</ele>
        <time>2017-04-24T15:00:46Z</time>
      </trkpt>
      <trkpt lat="45.65293" lon="5.68357">
        <ele>246</ele>
        <time>2017-04-24T15:00:46Z</time>
      </trkpt>
      <trkpt lat="45.65286" lon="5.68352">
        <ele>223</ele>
        <time>2017-04-24T15:00:46Z</time>
      </trkpt>
      <trkpt lat="45.65279" lon="5.68347">
        <ele>223</ele>
        <time>2017-04-24T15:01:02Z</time>
      </trkpt>
      <trkpt lat="45.65273" lon="5.68341">
        <ele>223</ele>
        <time>2017-04-24T15:01:02Z</time>
      </trkpt>
      <trkpt lat="45.65267" lon="5.68336">
        <ele>223</ele>
        <time>2017-04-24T15:01:02Z</time>
      </trkpt>
      <trkpt lat="45.65262" lon="5.68331">
        <ele>223</ele>
        <time>2017-04-24T15:01:02Z</time>
      </trkpt>
      <trkpt lat="45.65257" lon="5.68325">
        <ele>223</ele>
        <time>2017-04-24T15:01:18Z</time>
      </trkpt>
      <trkpt lat="45.65253" lon="5.68319">
        <ele>223</ele>
        <time>2017-04-24T15:01:18Z</time>
      </trkpt>
      <trkpt lat="45.65248" lon="5.68314">
        <ele>223</ele>
        <time>2017-04-24T15:01:18Z</time>
      </trkpt>
      <trkpt lat="45.65244" lon="5.68309">
        <ele>223</ele>
        <time>2017-04-24T15:01:18Z</time>
      </trkpt>
      <trkpt lat="45.6524" lon="5.68304">
        <ele>223</ele>
        <time>2017-04-24T15:01:34Z</time>
      </trkpt>
      <trkpt lat="45.65236" lon="5.68299">
        <ele>223</ele>
        <time>2017-04-24T15:01:34Z</time>
      </trkpt>
      <trkpt lat="45.65233" lon="5.68298">
        <ele>223</ele>
        <time>2017-04-24T15:01:34Z</time>
      </trkpt>
      <trkpt lat="45.65232" lon="5.68295">
        <ele>223</ele>
        <time>2017-04-24T15:01:34Z</time>
      </trkpt>
      <trkpt lat="45.65227" lon="5.68289">
        <ele>229</ele>
        <time>2017-04-24T15:01:50Z</time>
      </trkpt>
      <trkpt lat="45.65221" lon="5.68282">
        <ele>229</ele>
        <time>2017-04-24T15:01:50Z</time>
      </trkpt>
      <trkpt lat="45.65216" lon="5.68275">
        <ele>229</ele>
        <time>2017-04-24T15:01:50Z</time>
      </trkpt>
      <trkpt lat="45.65213" lon="5.68267">
        <ele>229</ele>
        <time>2017-04-24T15:01:50Z</time>
      </trkpt>
      <trkpt lat="45.65211" lon="5.68261">
        <ele>229</ele>
        <time>2017-04-24T15:02:06Z</time>
      </trkpt>
      <trkpt lat="45.65206" lon="5.68255">
        <ele>219</ele>
        <time>2017-04-24T15:02:06Z</time>
      </trkpt>
      <trkpt lat="45.65202" lon="5.68248">
        <ele>219</ele>
        <time>2017-04-24T15:02:06Z</time>
      </trkpt>
      <trkpt lat="45.65198" lon="5.68241">
        <ele>219</ele>
        <time>2017-04-24T15:02:06Z</time>
      </trkpt>
      <trkpt lat="45.65194" lon="5.68234">
        <ele>219</ele>
        <time>2017-04-24T15:02:22Z</time>
      </trkpt>
      <trkpt lat="45.65191" lon="5.68227">
        <ele>219</ele>
        <time>2017-04-24T15:02:22Z</time>
      </trkpt>
      <trkpt lat="45.65191" lon="5.68219">
        <ele>219</ele>
        <time>2017-04-24T15:02:22Z</time>
      </trkpt>
      <trkpt lat="45.65193" lon="5.68209">
        <ele>219</ele>
        <time>2017-04-24T15:02:22Z</time>
      </trkpt>
      <trkpt lat="45.65197" lon="5.68201">
        <ele>220</ele>
        <time>2017-04-24T15:02:38Z</time>
      </trkpt>
      <trkpt lat="45.65197" lon="5.68195">
        <ele>220</ele>
        <time>2017-04-24T15:02:38Z</time>
      </trkpt>
      <trkpt lat="45.65196" lon="5.68189">
        <ele>220</ele>
        <time>2017-04-24T15:02:38Z</time>
      </trkpt>
      <trkpt lat="45.65189" lon="5.68188">
        <ele>220</ele>
        <time>2017-04-24T15:02:38Z</time>
      </trkpt>
      <trkpt lat="45.65182" lon="5.68182">
        <ele>220</ele>
        <time>2017-04-24T15:02:54Z</time>
      </trkpt>
      <trkpt lat="45.65177" lon="5.68175">
        <ele>220</ele>
        <time>2017-04-24T15:02:54Z</time>
      </trkpt>
      <trkpt lat="45.65173" lon="5.68169">
        <ele>220</ele>
        <time>2017-04-24T15:02:54Z</time>
      </trkpt>
      <trkpt lat="45.6517" lon="5.68165">
        <ele>220</ele>
        <time>2017-04-24T15:02:54Z</time>
      </trkpt>
      <trkpt lat="45.65169" lon="5.68158">
        <ele>220</ele>
        <time>2017-04-24T15:03:10Z</time>
      </trkpt>
      <trkpt lat="45.65165" lon="5.68151">
        <ele>220</ele>
        <time>2017-04-24T15:03:10Z</time>
      </trkpt>
      <trkpt lat="45.65163" lon="5.68139">
        <ele>220</ele>
        <time>2017-04-24T15:03:10Z</time>
      </trkpt>
      <trkpt lat="45.65163" lon="5.68118">
        <ele>223</ele>
        <time>2017-04-24T15:03:10Z</time>
      </trkpt>
      <trkpt lat="45.65157" lon="5.68092">
        <ele>223</ele>
        <time>2017-04-24T15:03:26Z</time>
      </trkpt>
      <trkpt lat="45.65149" lon="5.68071">
        <ele>223</ele>
        <time>2017-04-24T15:03:26Z</time>
      </trkpt>
      <trkpt lat="45.65141" lon="5.68054">
        <ele>223</ele>
        <time>2017-04-24T15:03:26Z</time>
      </trkpt>
      <trkpt lat="45.65132" lon="5.68035">
        <ele>228</ele>
        <time>2017-04-24T15:03:26Z</time>
      </trkpt>
      <trkpt lat="45.65126" lon="5.68013">
        <ele>228</ele>
        <time>2017-04-24T15:03:42Z</time>
      </trkpt>
      <trkpt lat="45.65122" lon="5.67992">
        <ele>220</ele>
        <time>2017-04-24T15:03:42Z</time>
      </trkpt>
      <trkpt lat="45.65119" lon="5.67974">
        <ele>220</ele>
        <time>2017-04-24T15:03:42Z</time>
      </trkpt>
      <trkpt lat="45.65117" lon="5.67954">
        <ele>220</ele>
        <time>2017-04-24T15:03:42Z</time>
      </trkpt>
      <trkpt lat="45.65112" lon="5.67931">
        <ele>220</ele>
        <time>2017-04-24T15:03:58Z</time>
      </trkpt>
      <trkpt lat="45.65106" lon="5.6791">
        <ele>220</ele>
        <time>2017-04-24T15:03:58Z</time>
      </trkpt>
      <trkpt lat="45.65101" lon="5.67886">
        <ele>220</ele>
        <time>2017-04-24T15:03:58Z</time>
      </trkpt>
      <trkpt lat="45.65091" lon="5.6786">
        <ele>220</ele>
        <time>2017-04-24T15:03:58Z</time>
      </trkpt>
      <trkpt lat="45.6509" lon="5.67845">
        <ele>220</ele>
        <time>2017-04-24T15:04:14Z</time>
      </trkpt>
      <trkpt lat="45.65089" lon="5.67838">
        <ele>220</ele>
        <time>2017-04-24T15:04:14Z</time>
      </trkpt>
      <trkpt lat="45.65088" lon="5.67833">
        <ele>220</ele>
        <time>2017-04-24T15:04:14Z</time>
      </trkpt>
      <trkpt lat="45.65086" lon="5.67826">
        <ele>220</ele>
        <time>2017-04-24T15:04:14Z</time>
      </trkpt>
      <trkpt lat="45.65084" lon="5.67819">
        <ele>220</ele>
        <time>2017-04-24T15:04:30Z</time>
      </trkpt>
      <trkpt lat="45.65083" lon="5.67812">
        <ele>220</ele>
        <time>2017-04-24T15:04:30Z</time>
      </trkpt>
      <trkpt lat="45.6508" lon="5.67805">
        <ele>220</ele>
        <time>2017-04-24T15:04:30Z</time>
      </trkpt>
      <trkpt lat="45.65078" lon="5.67799">
        <ele>220</ele>
        <time>2017-04-24T15:04:30Z</time>
      </trkpt>
      <trkpt lat="45.65076" lon="5.67794">
        <ele>220</ele>
        <time>2017-04-24T15:04:46Z</time>
      </trkpt>
      <trkpt lat="45.65074" lon="5.67787">
        <ele>221</ele>
        <time>2017-04-24T15:04:46Z</time>
      </trkpt>
      <trkpt lat="45.65072" lon="5.67778">
        <ele>221</ele>
        <time>2017-04-24T15:04:46Z</time>
      </trkpt>
      <trkpt lat="45.6507" lon="5.6777">
        <ele>221</ele>
        <time>2017-04-24T15:04:46Z</time>
      </trkpt>
      <trkpt lat="45.65068" lon="5.67763">
        <ele>221</ele>
        <time>2017-04-24T15:05:02Z</time>
      </trkpt>
      <trkpt lat="45.65065" lon="5.67756">
        <ele>221</ele>
        <time>2017-04-24T15:05:02Z</time>
      </trkpt>
      <trkpt lat="45.65062" lon="5.67748">
        <ele>221</ele>
        <time>2017-04-24T15:05:02Z</time>
      </trkpt>
      <trkpt lat="45.65061" lon="5.67741">
        <ele>221</ele>
        <time>2017-04-24T15:05:02Z</time>
      </trkpt>
      <trkpt lat="45.65058" lon="5.67734">
        <ele>221</ele>
        <time>2017-04-24T15:05:18Z</time>
      </trkpt>
      <trkpt lat="45.65057" lon="5.67726">
        <ele>221</ele>
        <time>2017-04-24T15:05:18Z</time>
      </trkpt>
      <trkpt lat="45.65056" lon="5.67719">
        <ele>221</ele>
        <time>2017-04-24T15:05:18Z</time>
      </trkpt>
      <trkpt lat="45.65054" lon="5.67715">
        <ele>221</ele>
        <time>2017-04-24T15:05:18Z</time>
      </trkpt>
      <trkpt lat="45.65051" lon="5.67709">
        <ele>221</ele>
        <time>2017-04-24T15:05:34Z</time>
      </trkpt>
      <trkpt lat="45.65048" lon="5.67701">
        <ele>231</ele>
        <time>2017-04-24T15:05:34Z</time>
      </trkpt>
      <trkpt lat="45.65043" lon="5.67688">
        <ele>231</ele>
        <time>2017-04-24T15:05:34Z</time>
      </trkpt>
      <trkpt lat="45.6504" lon="5.67679">
        <ele>235</ele>
        <time>2017-04-24T15:05:34Z</time>
      </trkpt>
      <trkpt lat="45.65037" lon="5.67674">
        <ele>235</ele>
        <time>2017-04-24T15:05:50Z</time>
      </trkpt>
      <trkpt lat="45.65034" lon="5.67668">
        <ele>235</ele>
        <time>2017-04-24T15:05:50Z</time>
      </trkpt>
      <trkpt lat="45.6503" lon="5.67661">
        <ele>235</ele>
        <time>2017-04-24T15:05:50Z</time>
      </trkpt>
      <trkpt lat="45.6503" lon="5.67653">
        <ele>235</ele>
        <time>2017-04-24T15:05:50Z</time>
      </trkpt>
      <trkpt lat="45.65027" lon="5.67647">
        <ele>235</ele>
        <time>2017-04-24T15:06:06Z</time>
      </trkpt>
      <trkpt lat="45.65023" lon="5.67639">
        <ele>235</ele>
        <time>2017-04-24T15:06:06Z</time>
      </trkpt>
      <trkpt lat="45.65019" lon="5.6763">
        <ele>235</ele>
        <time>2017-04-24T15:06:06Z</time>
      </trkpt>
      <trkpt lat="45.65016" lon="5.6762">
        <ele>239</ele>
        <time>2017-04-24T15:06:06Z</time>
      </trkpt>
      <trkpt lat="45.65011" lon="5.67614">
        <ele>239</ele>
        <time>2017-04-24T15:06:22Z</time>
      </trkpt>
      <trkpt lat="45.65005" lon="5.67608">
        <ele>239</ele>
        <time>2017-04-24T15:06:22Z</time>
      </trkpt>
      <trkpt lat="45.65004" lon="5.67601">
        <ele>239</ele>
        <time>2017-04-24T15:06:22Z</time>
      </trkpt>
      <trkpt lat="45.65" lon="5.67594">
        <ele>239</ele>
        <time>2017-04-24T15:06:22Z</time>
      </trkpt>
      <trkpt lat="45.64996" lon="5.67588">
        <ele>239</ele>
        <time>2017-04-24T15:06:38Z</time>
      </trkpt>
      <trkpt lat="45.64992" lon="5.67584">
        <ele>239</ele>
        <time>2017-04-24T15:06:38Z</time>
      </trkpt>
      <trkpt lat="45.64985" lon="5.67577">
        <ele>239</ele>
        <time>2017-04-24T15:06:38Z</time>
      </trkpt>
      <trkpt lat="45.64978" lon="5.67572">
        <ele>239</ele>
        <time>2017-04-24T15:06:38Z</time>
      </trkpt>
      <trkpt lat="45.64973" lon="5.67565">
        <ele>239</ele>
        <time>2017-04-24T15:06:54Z</time>
      </trkpt>
      <trkpt lat="45.6497" lon="5.67559">
        <ele>239</ele>
        <time>2017-04-24T15:06:54Z</time>
      </trkpt>
      <trkpt lat="45.64965" lon="5.67551">
        <ele>239</ele>
        <time>2017-04-24T15:06:54Z</time>
      </trkpt>
      <trkpt lat="45.64961" lon="5.67544">
        <ele>239</ele>
        <time>2017-04-24T15:06:54Z</time>
      </trkpt>
      <trkpt lat="45.64954" lon="5.67537">
        <ele>240</ele>
        <time>2017-04-24T15:07:10Z</time>
      </trkpt>
      <trkpt lat="45.64947" lon="5.6753">
        <ele>240</ele>
        <time>2017-04-24T15:07:10Z</time>
      </trkpt>
      <trkpt lat="45.64943" lon="5.67525">
        <ele>240</ele>
        <time>2017-04-24T15:07:10Z</time>
      </trkpt>
      <trkpt lat="45.64938" lon="5.67523">
        <ele>240</ele>
        <time>2017-04-24T15:07:10Z</time>
      </trkpt>
      <trkpt lat="45.64933" lon="5.67521">
        <ele>240</ele>
        <time>2017-04-24T15:07:26Z</time>
      </trkpt>
      <trkpt lat="45.64928" lon="5.67519">
        <ele>240</ele>
        <time>2017-04-24T15:07:26Z</time>
      </trkpt>
      <trkpt lat="45.64923" lon="5.67515">
        <ele>240</ele>
        <time>2017-04-24T15:07:26Z</time>
      </trkpt>
      <trkpt lat="45.64917" lon="5.67513">
        <ele>240</ele>
        <time>2017-04-24T15:07:26Z</time>
      </trkpt>
      <trkpt lat="45.64911" lon="5.67509">
        <ele>240</ele>
        <time>2017-04-24T15:07:42Z</time>
      </trkpt>
      <trkpt lat="45.64903" lon="5.67504">
        <ele>240</ele>
        <time>2017-04-24T15:07:42Z</time>
      </trkpt>
      <trkpt lat="45.64895" lon="5.67502">
        <ele>240</ele>
        <time>2017-04-24T15:07:42Z</time>
      </trkpt>
      <trkpt lat="45.6489" lon="5.67501">
        <ele>240</ele>
        <time>2017-04-24T15:07:42Z</time>
      </trkpt>
      <trkpt lat="45.64885" lon="5.67497">
        <ele>240</ele>
        <time>2017-04-24T15:07:58Z</time>
      </trkpt>
      <trkpt lat="45.6488" lon="5.67494">
        <ele>240</ele>
        <time>2017-04-24T15:07:58Z</time>
      </trkpt>
      <trkpt lat="45.64871" lon="5.6749">
        <ele>240</ele>
        <time>2017-04-24T15:07:58Z</time>
      </trkpt>
      <trkpt lat="45.64863" lon="5.67484">
        <ele>240</ele>
        <time>2017-04-24T15:07:58Z</time>
      </trkpt>
      <trkpt lat="45.64856" lon="5.67481">
        <ele>240</ele>
        <time>2017-04-24T15:08:14Z</time>
      </trkpt>
      <trkpt lat="45.64849" lon="5.67477">
        <ele>240</ele>
        <time>2017-04-24T15:08:14Z</time>
      </trkpt>
      <trkpt lat="45.64842" lon="5.67473">
        <ele>240</ele>
        <time>2017-04-24T15:08:14Z</time>
      </trkpt>
      <trkpt lat="45.64834" lon="5.67471">
        <ele>240</ele>
        <time>2017-04-24T15:08:14Z</time>
      </trkpt>
      <trkpt lat="45.64827" lon="5.67471">
        <ele>240</ele>
        <time>2017-04-24T15:08:30Z</time>
      </trkpt>
      <trkpt lat="45.64823" lon="5.6747">
        <ele>240</ele>
        <time>2017-04-24T15:08:30Z</time>
      </trkpt>
      <trkpt lat="45.6482" lon="5.67468">
        <ele>240</ele>
        <time>2017-04-24T15:08:30Z</time>
      </trkpt>
      <trkpt lat="45.64817" lon="5.67464">
        <ele>240</ele>
        <time>2017-04-24T15:08:30Z</time>
      </trkpt>
      <trkpt lat="45.6481" lon="5.67462">
        <ele>240</ele>
        <time>2017-04-24T15:08:46Z</time>
      </trkpt>
      <trkpt lat="45.64803" lon="5.67459">
        <ele>240</ele>
        <time>2017-04-24T15:08:46Z</time>
      </trkpt>
      <trkpt lat="45.64796" lon="5.67454">
        <ele>241</ele>
        <time>2017-04-24T15:08:46Z</time>
      </trkpt>
      <trkpt lat="45.64789" lon="5.67449">
        <ele>241</ele>
        <time>2017-04-24T15:08:46Z</time>
      </trkpt>
      <trkpt lat="45.64783" lon="5.67444">
        <ele>241</ele>
        <time>2017-04-24T15:09:02Z</time>
      </trkpt>
      <trkpt lat="45.64781" lon="5.67442">
        <ele>241</ele>
        <time>2017-04-24T15:09:02Z</time>
      </trkpt>
      <trkpt lat="45.64775" lon="5.67439">
        <ele>241</ele>
        <time>2017-04-24T15:09:02Z</time>
      </trkpt>
      <trkpt lat="45.64769" lon="5.67438">
        <ele>241</ele>
        <time>2017-04-24T15:09:02Z</time>
      </trkpt>
      <trkpt lat="45.64761" lon="5.67433">
        <ele>241</ele>
        <time>2017-04-24T15:09:18Z</time>
      </trkpt>
      <trkpt lat="45.64752" lon="5.67429">
        <ele>241</ele>
        <time>2017-04-24T15:09:18Z</time>
      </trkpt>
      <trkpt lat="45.64743" lon="5.67425">
        <ele>241</ele>
        <time>2017-04-24T15:09:18Z</time>
      </trkpt>
      <trkpt lat="45.64736" lon="5.67421">
        <ele>241</ele>
        <time>2017-04-24T15:09:18Z</time>
      </trkpt>
      <trkpt lat="45.6473" lon="5.67419">
        <ele>241</ele>
        <time>2017-04-24T15:09:34Z</time>
      </trkpt>
      <trkpt lat="45.64723" lon="5.67417">
        <ele>241</ele>
        <time>2017-04-24T15:09:34Z</time>
      </trkpt>
      <trkpt lat="45.64718" lon="5.67412">
        <ele>241</ele>
        <time>2017-04-24T15:09:34Z</time>
      </trkpt>
      <trkpt lat="45.64713" lon="5.67408">
        <ele>241</ele>
        <time>2017-04-24T15:09:34Z</time>
      </trkpt>
      <trkpt lat="45.64707" lon="5.67401">
        <ele>240</ele>
        <time>2017-04-24T15:09:50Z</time>
      </trkpt>
      <trkpt lat="45.64701" lon="5.67394">
        <ele>240</ele>
        <time>2017-04-24T15:09:50Z</time>
      </trkpt>
      <trkpt lat="45.64694" lon="5.6739">
        <ele>240</ele>
        <time>2017-04-24T15:09:50Z</time>
      </trkpt>
      <trkpt lat="45.64691" lon="5.67391">
        <ele>240</ele>
        <time>2017-04-24T15:09:50Z</time>
      </trkpt>
      <trkpt lat="45.64688" lon="5.67391">
        <ele>240</ele>
        <time>2017-04-24T15:10:06Z</time>
      </trkpt>
      <trkpt lat="45.64681" lon="5.6739">
        <ele>240</ele>
        <time>2017-04-24T15:10:06Z</time>
      </trkpt>
      <trkpt lat="45.64673" lon="5.67387">
        <ele>240</ele>
        <time>2017-04-24T15:10:06Z</time>
      </trkpt>
      <trkpt lat="45.64666" lon="5.67384">
        <ele>240</ele>
        <time>2017-04-24T15:10:06Z</time>
      </trkpt>
      <trkpt lat="45.64661" lon="5.67383">
        <ele>240</ele>
        <time>2017-04-24T15:10:22Z</time>
      </trkpt>
      <trkpt lat="45.64655" lon="5.6738">
        <ele>240</ele>
        <time>2017-04-24T15:10:22Z</time>
      </trkpt>
      <trkpt lat="45.64648" lon="5.67377">
        <ele>240</ele>
        <time>2017-04-24T15:10:22Z</time>
      </trkpt>
      <trkpt lat="45.64641" lon="5.6738">
        <ele>240</ele>
        <time>2017-04-24T15:10:22Z</time>
      </trkpt>
      <trkpt lat="45.64637" lon="5.67376">
        <ele>240</ele>
        <time>2017-04-24T15:10:38Z</time>
      </trkpt>
      <trkpt lat="45.64632" lon="5.67372">
        <ele>252</ele>
        <time>2017-04-24T15:10:38Z</time>
      </trkpt>
      <trkpt lat="45.64625" lon="5.6737">
        <ele>252</ele>
        <time>2017-04-24T15:10:38Z</time>
      </trkpt>
      <trkpt lat="45.6462" lon="5.67367">
        <ele>242</ele>
        <time>2017-04-24T15:10:38Z</time>
      </trkpt>
      <trkpt lat="45.64615" lon="5.67365">
        <ele>242</ele>
        <time>2017-04-24T15:10:54Z</time>
      </trkpt>
      <trkpt lat="45.6461" lon="5.6736">
        <ele>242</ele>
        <time>2017-04-24T15:10:54Z</time>
      </trkpt>
      <trkpt lat="45.64603" lon="5.67357">
        <ele>242</ele>
        <time>2017-04-24T15:10:54Z</time>
      </trkpt>
      <trkpt lat="45.64596" lon="5.67355">
        <ele>242</ele>
        <time>2017-04-24T15:10:54Z</time>
      </trkpt>
      <trkpt lat="45.6459" lon="5.67354">
        <ele>242</ele>
        <time>2017-04-24T15:11:10Z</time>
      </trkpt>
      <trkpt lat="45.64584" lon="5.67351">
        <ele>242</ele>
        <time>2017-04-24T15:11:10Z</time>
      </trkpt>
      <trkpt lat="45.64577" lon="5.67349">
        <ele>242</ele>
        <time>2017-04-24T15:11:10Z</time>
      </trkpt>
      <trkpt lat="45.6457" lon="5.67345">
        <ele>242</ele>
        <time>2017-04-24T15:11:10Z</time>
      </trkpt>
      <trkpt lat="45.64561" lon="5.6734">
        <ele>242</ele>
        <time>2017-04-24T15:11:26Z</time>
      </trkpt>
      <trkpt lat="45.64555" lon="5.67335">
        <ele>242</ele>
        <time>2017-04-24T15:11:26Z</time>
      </trkpt>
      <trkpt lat="45.64551" lon="5.67331">
        <ele>242</ele>
        <time>2017-04-24T15:11:26Z</time>
      </trkpt>
      <trkpt lat="45.64546" lon="5.67327">
        <ele>242</ele>
        <time>2017-04-24T15:11:26Z</time>
      </trkpt>
      <trkpt lat="45.6454" lon="5.67323">
        <ele>240</ele>
        <time>2017-04-24T15:11:42Z</time>
      </trkpt>
      <trkpt lat="45.64534" lon="5.67321">
        <ele>240</ele>
        <time>2017-04-24T15:11:42Z</time>
      </trkpt>
      <trkpt lat="45.64528" lon="5.67319">
        <ele>240</ele>
        <time>2017-04-24T15:11:42Z</time>
      </trkpt>
      <trkpt lat="45.64523" lon="5.67318">
        <ele>240</ele>
        <time>2017-04-24T15:11:42Z</time>
      </trkpt>
      <trkpt lat="45.64517" lon="5.67317">
        <ele>240</ele>
        <time>2017-04-24T15:11:58Z</time>
      </trkpt>
      <trkpt lat="45.64511" lon="5.67315">
        <ele>240</ele>
        <time>2017-04-24T15:11:58Z</time>
      </trkpt>
      <trkpt lat="45.64506" lon="5.67312">
        <ele>240</ele>
        <time>2017-04-24T15:11:58Z</time>
      </trkpt>
      <trkpt lat="45.645" lon="5.67309">
        <ele>240</ele>
        <time>2017-04-24T15:11:58Z</time>
      </trkpt>
      <trkpt lat="45.64485" lon="5.67302">
        <ele>240</ele>
        <time>2017-04-24T15:12:14Z</time>
      </trkpt>
      <trkpt lat="45.64469" lon="5.67293">
        <ele>240</ele>
        <time>2017-04-24T15:12:14Z</time>
      </trkpt>
      <trkpt lat="45.6445" lon="5.67284">
        <ele>239</ele>
        <time>2017-04-24T15:12:14Z</time>
      </trkpt>
      <trkpt lat="45.64429" lon="5.6727">
        <ele>239</ele>
        <time>2017-04-24T15:12:14Z</time>
      </trkpt>
      <trkpt lat="45.6441" lon="5.67261">
        <ele>239</ele>
        <time>2017-04-24T15:12:30Z</time>
      </trkpt>
      <trkpt lat="45.64394" lon="5.67249">
        <ele>239</ele>
        <time>2017-04-24T15:12:30Z</time>
      </trkpt>
      <trkpt lat="45.64377" lon="5.67241">
        <ele>239</ele>
        <time>2017-04-24T15:12:30Z</time>
      </trkpt>
      <trkpt lat="45.64361" lon="5.67226">
        <ele>236</ele>
        <time>2017-04-24T15:12:30Z</time>
      </trkpt>
      <trkpt lat="45.64344" lon="5.6722">
        <ele>236</ele>
        <time>2017-04-24T15:12:46Z</time>
      </trkpt>
      <trkpt lat="45.64329" lon="5.67215">
        <ele>236</ele>
        <time>2017-04-24T15:12:46Z</time>
      </trkpt>
      <trkpt lat="45.64321" lon="5.67212">
        <ele>236</ele>
        <time>2017-04-24T15:12:46Z</time>
      </trkpt>
      <trkpt lat="45.64316" lon="5.67209">
        <ele>236</ele>
        <time>2017-04-24T15:12:46Z</time>
      </trkpt>
      <trkpt lat="45.64309" lon="5.67206">
        <ele>238</ele>
        <time>2017-04-24T15:13:02Z</time>
      </trkpt>
      <trkpt lat="45.64303" lon="5.67202">
        <ele>238</ele>
        <time>2017-04-24T15:13:02Z</time>
      </trkpt>
      <trkpt lat="45.64297" lon="5.67198">
        <ele>238</ele>
        <time>2017-04-24T15:13:02Z</time>
      </trkpt>
      <trkpt lat="45.64291" lon="5.67194">
        <ele>236</ele>
        <time>2017-04-24T15:13:02Z</time>
      </trkpt>
      <trkpt lat="45.64286" lon="5.6719">
        <ele>236</ele>
        <time>2017-04-24T15:13:18Z</time>
      </trkpt>
      <trkpt lat="45.64281" lon="5.67187">
        <ele>236</ele>
        <time>2017-04-24T15:13:18Z</time>
      </trkpt>
      <trkpt lat="45.64275" lon="5.67185">
        <ele>236</ele>
        <time>2017-04-24T15:13:18Z</time>
      </trkpt>
      <trkpt lat="45.64269" lon="5.67182">
        <ele>236</ele>
        <time>2017-04-24T15:13:18Z</time>
      </trkpt>
      <trkpt lat="45.64264" lon="5.67178">
        <ele>236</ele>
        <time>2017-04-24T15:13:34Z</time>
      </trkpt>
      <trkpt lat="45.64259" lon="5.67173">
        <ele>236</ele>
        <time>2017-04-24T15:13:34Z</time>
      </trkpt>
      <trkpt lat="45.64254" lon="5.67168">
        <ele>236</ele>
        <time>2017-04-24T15:13:34Z</time>
      </trkpt>
      <trkpt lat="45.6425" lon="5.67164">
        <ele>236</ele>
        <time>2017-04-24T15:13:34Z</time>
      </trkpt>
      <trkpt lat="45.64246" lon="5.67159">
        <ele>236</ele>
        <time>2017-04-24T15:13:50Z</time>
      </trkpt>
      <trkpt lat="45.64241" lon="5.67154">
        <ele>236</ele>
        <time>2017-04-24T15:13:50Z</time>
      </trkpt>
      <trkpt lat="45.64236" lon="5.67147">
        <ele>236</ele>
        <time>2017-04-24T15:13:50Z</time>
      </trkpt>
      <trkpt lat="45.64231" lon="5.67142">
        <ele>236</ele>
        <time>2017-04-24T15:13:50Z</time>
      </trkpt>
      <trkpt lat="45.64227" lon="5.67139">
        <ele>236</ele>
        <time>2017-04-24T15:14:06Z</time>
      </trkpt>
      <trkpt lat="45.64221" lon="5.6713">
        <ele>236</ele>
        <time>2017-04-24T15:14:06Z</time>
      </trkpt>
      <trkpt lat="45.64214" lon="5.6712">
        <ele>238</ele>
        <time>2017-04-24T15:14:06Z</time>
      </trkpt>
      <trkpt lat="45.64211" lon="5.67115">
        <ele>238</ele>
        <time>2017-04-24T15:14:06Z</time>
      </trkpt>
      <trkpt lat="45.64209" lon="5.6711">
        <ele>238</ele>
        <time>2017-04-24T15:14:22Z</time>
      </trkpt>
      <trkpt lat="45.64205" lon="5.67105">
        <ele>230</ele>
        <time>2017-04-24T15:14:22Z</time>
      </trkpt>
      <trkpt lat="45.64202" lon="5.67098">
        <ele>230</ele>
        <time>2017-04-24T15:14:22Z</time>
      </trkpt>
      <trkpt lat="45.64197" lon="5.6709">
        <ele>230</ele>
        <time>2017-04-24T15:14:22Z</time>
      </trkpt>
      <trkpt lat="45.64192" lon="5.67083">
        <ele>230</ele>
        <time>2017-04-24T15:14:38Z</time>
      </trkpt>
      <trkpt lat="45.64187" lon="5.67077">
        <ele>230</ele>
        <time>2017-04-24T15:14:38Z</time>
      </trkpt>
      <trkpt lat="45.64181" lon="5.67068">
        <ele>230</ele>
        <time>2017-04-24T15:14:38Z</time>
      </trkpt>
      <trkpt lat="45.64173" lon="5.67066">
        <ele>230</ele>
        <time>2017-04-24T15:14:38Z</time>
      </trkpt>
      <trkpt lat="45.64169" lon="5.67061">
        <ele>230</ele>
        <time>2017-04-24T15:14:54Z</time>
      </trkpt>
      <trkpt lat="45.64166" lon="5.67051">
        <ele>230</ele>
        <time>2017-04-24T15:14:54Z</time>
      </trkpt>
      <trkpt lat="45.64162" lon="5.67043">
        <ele>230</ele>
        <time>2017-04-24T15:14:54Z</time>
      </trkpt>
      <trkpt lat="45.64154" lon="5.67038">
        <ele>233</ele>
        <time>2017-04-24T15:14:54Z</time>
      </trkpt>
      <trkpt lat="45.64147" lon="5.67033">
        <ele>233</ele>
        <time>2017-04-24T15:15:10Z</time>
      </trkpt>
      <trkpt lat="45.64144" lon="5.67024">
        <ele>233</ele>
        <time>2017-04-24T15:15:10Z</time>
      </trkpt>
      <trkpt lat="45.64138" lon="5.67018">
        <ele>233</ele>
        <time>2017-04-24T15:15:10Z</time>
      </trkpt>
      <trkpt lat="45.64134" lon="5.67008">
        <ele>233</ele>
        <time>2017-04-24T15:15:10Z</time>
      </trkpt>
      <trkpt lat="45.64135" lon="5.67">
        <ele>233</ele>
        <time>2017-04-24T15:15:30Z</time>
      </trkpt>
      <trkpt lat="45.64137" lon="5.66999">
        <ele>233</ele>
        <time>2017-04-24T15:15:30Z</time>
      </trkpt>
      <trkpt lat="45.64137" lon="5.66998">
        <ele>233</ele>
        <time>2017-04-24T15:15:30Z</time>
      </trkpt>
      <trkpt lat="45.64137" lon="5.66993">
        <ele>233</ele>
        <time>2017-04-24T15:15:30Z</time>
      </trkpt>
      <trkpt lat="45.64133" lon="5.66987">
        <ele>233</ele>
        <time>2017-04-24T15:15:30Z</time>
      </trkpt>
      <trkpt lat="45.64131" lon="5.66978">
        <ele>233</ele>
        <time>2017-04-24T15:15:46Z</time>
      </trkpt>
      <trkpt lat="45.6413" lon="5.6697">
        <ele>233</ele>
        <time>2017-04-24T15:15:46Z</time>
      </trkpt>
      <trkpt lat="45.64127" lon="5.66962">
        <ele>233</ele>
        <time>2017-04-24T15:15:46Z</time>
      </trkpt>
      <trkpt lat="45.64125" lon="5.66953">
        <ele>222</ele>
        <time>2017-04-24T15:15:46Z</time>
      </trkpt>
      <trkpt lat="45.64122" lon="5.66945">
        <ele>222</ele>
        <time>2017-04-24T15:16:02Z</time>
      </trkpt>
      <trkpt lat="45.64121" lon="5.66935">
        <ele>222</ele>
        <time>2017-04-24T15:16:02Z</time>
      </trkpt>
      <trkpt lat="45.64121" lon="5.66925">
        <ele>222</ele>
        <time>2017-04-24T15:16:02Z</time>
      </trkpt>
      <trkpt lat="45.64121" lon="5.66915">
        <ele>222</ele>
        <time>2017-04-24T15:16:02Z</time>
      </trkpt>
      <trkpt lat="45.64121" lon="5.66905">
        <ele>222</ele>
        <time>2017-04-24T15:16:18Z</time>
      </trkpt>
      <trkpt lat="45.6412" lon="5.66896">
        <ele>222</ele>
        <time>2017-04-24T15:16:18Z</time>
      </trkpt>
      <trkpt lat="45.64118" lon="5.66888">
        <ele>222</ele>
        <time>2017-04-24T15:16:18Z</time>
      </trkpt>
      <trkpt lat="45.64119" lon="5.66882">
        <ele>222</ele>
        <time>2017-04-24T15:16:18Z</time>
      </trkpt>
      <trkpt lat="45.64119" lon="5.66877">
        <ele>222</ele>
        <time>2017-04-24T15:16:34Z</time>
      </trkpt>
      <trkpt lat="45.64118" lon="5.66871">
        <ele>225</ele>
        <time>2017-04-24T15:16:34Z</time>
      </trkpt>
      <trkpt lat="45.64113" lon="5.66856">
        <ele>225</ele>
        <time>2017-04-24T15:16:34Z</time>
      </trkpt>
      <trkpt lat="45.64106" lon="5.66836">
        <ele>225</ele>
        <time>2017-04-24T15:16:34Z</time>
      </trkpt>
      <trkpt lat="45.64101" lon="5.66818">
        <ele>225</ele>
        <time>2017-04-24T15:16:50Z</time>
      </trkpt>
      <trkpt lat="45.64095" lon="5.668">
        <ele>225</ele>
        <time>2017-04-24T15:16:50Z</time>
      </trkpt>
      <trkpt lat="45.64089" lon="5.66776">
        <ele>227</ele>
        <time>2017-04-24T15:16:50Z</time>
      </trkpt>
      <trkpt lat="45.64085" lon="5.66756">
        <ele>227</ele>
        <time>2017-04-24T15:16:50Z</time>
      </trkpt>
      <trkpt lat="45.64081" lon="5.66734">
        <ele>227</ele>
        <time>2017-04-24T15:17:06Z</time>
      </trkpt>
      <trkpt lat="45.64075" lon="5.667">
        <ele>229</ele>
        <time>2017-04-24T15:17:06Z</time>
      </trkpt>
      <trkpt lat="45.6407" lon="5.66673">
        <ele>229</ele>
        <time>2017-04-24T15:17:06Z</time>
      </trkpt>
      <trkpt lat="45.64063" lon="5.66637">
        <ele>229</ele>
        <time>2017-04-24T15:17:06Z</time>
      </trkpt>
      <trkpt lat="45.64053" lon="5.66604">
        <ele>231</ele>
        <time>2017-04-24T15:17:22Z</time>
      </trkpt>
      <trkpt lat="45.64042" lon="5.6656">
        <ele>231</ele>
        <time>2017-04-24T15:17:22Z</time>
      </trkpt>
      <trkpt lat="45.64039" lon="5.66539">
        <ele>220</ele>
        <time>2017-04-24T15:17:22Z</time>
      </trkpt>
      <trkpt lat="45.64035" lon="5.66517">
        <ele>220</ele>
        <time>2017-04-24T15:17:22Z</time>
      </trkpt>
      <trkpt lat="45.6403" lon="5.66497">
        <ele>220</ele>
        <time>2017-04-24T15:17:38Z</time>
      </trkpt>
      <trkpt lat="45.64029" lon="5.66487">
        <ele>220</ele>
        <time>2017-04-24T15:17:38Z</time>
      </trkpt>
      <trkpt lat="45.64029" lon="5.6648">
        <ele>220</ele>
        <time>2017-04-24T15:17:38Z</time>
      </trkpt>
      <trkpt lat="45.64026" lon="5.66473">
        <ele>220</ele>
        <time>2017-04-24T15:17:38Z</time>
      </trkpt>
      <trkpt lat="45.64026" lon="5.66465">
        <ele>220</ele>
        <time>2017-04-24T15:17:54Z</time>
      </trkpt>
      <trkpt lat="45.64024" lon="5.66456">
        <ele>222</ele>
        <time>2017-04-24T15:17:54Z</time>
      </trkpt>
      <trkpt lat="45.64023" lon="5.66448">
        <ele>222</ele>
        <time>2017-04-24T15:17:54Z</time>
      </trkpt>
      <trkpt lat="45.64021" lon="5.66439">
        <ele>222</ele>
        <time>2017-04-24T15:17:54Z</time>
      </trkpt>
      <trkpt lat="45.6402" lon="5.66429">
        <ele>222</ele>
        <time>2017-04-24T15:18:10Z</time>
      </trkpt>
      <trkpt lat="45.64018" lon="5.66419">
        <ele>222</ele>
        <time>2017-04-24T15:18:10Z</time>
      </trkpt>
      <trkpt lat="45.64015" lon="5.66409">
        <ele>222</ele>
        <time>2017-04-24T15:18:10Z</time>
      </trkpt>
      <trkpt lat="45.64014" lon="5.66398">
        <ele>222</ele>
        <time>2017-04-24T15:18:10Z</time>
      </trkpt>
      <trkpt lat="45.64013" lon="5.66388">
        <ele>222</ele>
        <time>2017-04-24T15:18:26Z</time>
      </trkpt>
      <trkpt lat="45.64013" lon="5.66378">
        <ele>222</ele>
        <time>2017-04-24T15:18:26Z</time>
      </trkpt>
      <trkpt lat="45.64012" lon="5.66368">
        <ele>222</ele>
        <time>2017-04-24T15:18:26Z</time>
      </trkpt>
      <trkpt lat="45.64012" lon="5.66358">
        <ele>222</ele>
        <time>2017-04-24T15:18:26Z</time>
      </trkpt>
      <trkpt lat="45.64011" lon="5.66352">
        <ele>222</ele>
        <time>2017-04-24T15:18:42Z</time>
      </trkpt>
      <trkpt lat="45.6401" lon="5.66345">
        <ele>222</ele>
        <time>2017-04-24T15:18:42Z</time>
      </trkpt>
      <trkpt lat="45.6401" lon="5.66335">
        <ele>222</ele>
        <time>2017-04-24T15:18:42Z</time>
      </trkpt>
      <trkpt lat="45.64011" lon="5.66325">
        <ele>222</ele>
        <time>2017-04-24T15:18:42Z</time>
      </trkpt>
      <trkpt lat="45.64012" lon="5.66316">
        <ele>222</ele>
        <time>2017-04-24T15:18:58Z</time>
      </trkpt>
      <trkpt lat="45.64014" lon="5.66308">
        <ele>222</ele>
        <time>2017-04-24T15:18:58Z</time>
      </trkpt>
      <trkpt lat="45.64016" lon="5.66299">
        <ele>222</ele>
        <time>2017-04-24T15:18:58Z</time>
      </trkpt>
      <trkpt lat="45.64017" lon="5.66289">
        <ele>220</ele>
        <time>2017-04-24T15:18:58Z</time>
      </trkpt>
      <trkpt lat="45.64018" lon="5.66277">
        <ele>220</ele>
        <time>2017-04-24T15:19:14Z</time>
      </trkpt>
      <trkpt lat="45.64017" lon="5.66266">
        <ele>220</ele>
        <time>2017-04-24T15:19:14Z</time>
      </trkpt>
      <trkpt lat="45.64019" lon="5.66256">
        <ele>220</ele>
        <time>2017-04-24T15:19:14Z</time>
      </trkpt>
      <trkpt lat="45.64021" lon="5.66247">
        <ele>220</ele>
        <time>2017-04-24T15:19:14Z</time>
      </trkpt>
      <trkpt lat="45.64023" lon="5.66238">
        <ele>220</ele>
        <time>2017-04-24T15:19:30Z</time>
      </trkpt>
      <trkpt lat="45.64025" lon="5.6623">
        <ele>220</ele>
        <time>2017-04-24T15:19:30Z</time>
      </trkpt>
      <trkpt lat="45.64027" lon="5.66221">
        <ele>220</ele>
        <time>2017-04-24T15:19:30Z</time>
      </trkpt>
      <trkpt lat="45.64026" lon="5.66213">
        <ele>220</ele>
        <time>2017-04-24T15:19:30Z</time>
      </trkpt>
      <trkpt lat="45.64022" lon="5.66205">
        <ele>218</ele>
        <time>2017-04-24T15:19:46Z</time>
      </trkpt>
      <trkpt lat="45.6402" lon="5.66197">
        <ele>218</ele>
        <time>2017-04-24T15:19:46Z</time>
      </trkpt>
      <trkpt lat="45.64019" lon="5.66188">
        <ele>218</ele>
        <time>2017-04-24T15:19:46Z</time>
      </trkpt>
      <trkpt lat="45.64019" lon="5.66178">
        <ele>218</ele>
        <time>2017-04-24T15:19:46Z</time>
      </trkpt>
      <trkpt lat="45.64018" lon="5.66167">
        <ele>218</ele>
        <time>2017-04-24T15:20:02Z</time>
      </trkpt>
      <trkpt lat="45.64017" lon="5.66158">
        <ele>218</ele>
        <time>2017-04-24T15:20:02Z</time>
      </trkpt>
      <trkpt lat="45.64015" lon="5.6615">
        <ele>218</ele>
        <time>2017-04-24T15:20:02Z</time>
      </trkpt>
      <trkpt lat="45.64012" lon="5.66147">
        <ele>218</ele>
        <time>2017-04-24T15:20:02Z</time>
      </trkpt>
      <trkpt lat="45.6401" lon="5.66148">
        <ele>218</ele>
        <time>2017-04-24T15:20:18Z</time>
      </trkpt>
      <trkpt lat="45.64005" lon="5.66148">
        <ele>218</ele>
        <time>2017-04-24T15:20:18Z</time>
      </trkpt>
      <trkpt lat="45.63999" lon="5.6615">
        <ele>218</ele>
        <time>2017-04-24T15:20:18Z</time>
      </trkpt>
      <trkpt lat="45.63994" lon="5.66149">
        <ele>218</ele>
        <time>2017-04-24T15:20:18Z</time>
      </trkpt>
      <trkpt lat="45.63995" lon="5.66139">
        <ele>218</ele>
        <time>2017-04-24T15:20:34Z</time>
      </trkpt>
      <trkpt lat="45.63996" lon="5.66128">
        <ele>218</ele>
        <time>2017-04-24T15:20:34Z</time>
      </trkpt>
      <trkpt lat="45.63996" lon="5.66118">
        <ele>216</ele>
        <time>2017-04-24T15:20:34Z</time>
      </trkpt>
      <trkpt lat="45.63996" lon="5.66108">
        <ele>216</ele>
        <time>2017-04-24T15:20:34Z</time>
      </trkpt>
      <trkpt lat="45.63997" lon="5.66099">
        <ele>216</ele>
        <time>2017-04-24T15:20:50Z</time>
      </trkpt>
      <trkpt lat="45.63997" lon="5.6609">
        <ele>216</ele>
        <time>2017-04-24T15:20:50Z</time>
      </trkpt>
      <trkpt lat="45.63996" lon="5.66081">
        <ele>216</ele>
        <time>2017-04-24T15:20:50Z</time>
      </trkpt>
      <trkpt lat="45.63995" lon="5.66072">
        <ele>216</ele>
        <time>2017-04-24T15:20:50Z</time>
      </trkpt>
      <trkpt lat="45.63995" lon="5.66062">
        <ele>216</ele>
        <time>2017-04-24T15:21:06Z</time>
      </trkpt>
      <trkpt lat="45.63996" lon="5.66052">
        <ele>216</ele>
        <time>2017-04-24T15:21:06Z</time>
      </trkpt>
      <trkpt lat="45.63995" lon="5.66043">
        <ele>216</ele>
        <time>2017-04-24T15:21:06Z</time>
      </trkpt>
      <trkpt lat="45.63994" lon="5.66034">
        <ele>216</ele>
        <time>2017-04-24T15:21:06Z</time>
      </trkpt>
      <trkpt lat="45.63994" lon="5.66025">
        <ele>216</ele>
        <time>2017-04-24T15:21:22Z</time>
      </trkpt>
      <trkpt lat="45.63994" lon="5.66015">
        <ele>216</ele>
        <time>2017-04-24T15:21:22Z</time>
      </trkpt>
      <trkpt lat="45.63994" lon="5.66006">
        <ele>216</ele>
        <time>2017-04-24T15:21:22Z</time>
      </trkpt>
      <trkpt lat="45.63994" lon="5.65995">
        <ele>216</ele>
        <time>2017-04-24T15:21:22Z</time>
      </trkpt>
      <trkpt lat="45.63993" lon="5.65985">
        <ele>216</ele>
        <time>2017-04-24T15:21:38Z</time>
      </trkpt>
      <trkpt lat="45.63992" lon="5.65976">
        <ele>216</ele>
        <time>2017-04-24T15:21:38Z</time>
      </trkpt>
      <trkpt lat="45.6399" lon="5.65966">
        <ele>216</ele>
        <time>2017-04-24T15:21:38Z</time>
      </trkpt>
      <trkpt lat="45.63989" lon="5.65956">
        <ele>215</ele>
        <time>2017-04-24T15:21:38Z</time>
      </trkpt>
      <trkpt lat="45.63989" lon="5.65945">
        <ele>215</ele>
        <time>2017-04-24T15:21:54Z</time>
      </trkpt>
      <trkpt lat="45.63988" lon="5.65935">
        <ele>215</ele>
        <time>2017-04-24T15:21:54Z</time>
      </trkpt>
      <trkpt lat="45.63987" lon="5.65926">
        <ele>215</ele>
        <time>2017-04-24T15:21:54Z</time>
      </trkpt>
      <trkpt lat="45.63986" lon="5.65917">
        <ele>215</ele>
        <time>2017-04-24T15:21:54Z</time>
      </trkpt>
      <trkpt lat="45.63985" lon="5.65908">
        <ele>215</ele>
        <time>2017-04-24T15:22:10Z</time>
      </trkpt>
      <trkpt lat="45.63985" lon="5.65899">
        <ele>215</ele>
        <time>2017-04-24T15:22:10Z</time>
      </trkpt>
      <trkpt lat="45.63985" lon="5.6589">
        <ele>215</ele>
        <time>2017-04-24T15:22:10Z</time>
      </trkpt>
      <trkpt lat="45.63986" lon="5.65881">
        <ele>215</ele>
        <time>2017-04-24T15:22:10Z</time>
      </trkpt>
      <trkpt lat="45.63987" lon="5.65872">
        <ele>215</ele>
        <time>2017-04-24T15:22:26Z</time>
      </trkpt>
      <trkpt lat="45.63988" lon="5.65864">
        <ele>215</ele>
        <time>2017-04-24T15:22:26Z</time>
      </trkpt>
      <trkpt lat="45.63987" lon="5.65854">
        <ele>215</ele>
        <time>2017-04-24T15:22:26Z</time>
      </trkpt>
      <trkpt lat="45.63986" lon="5.65846">
        <ele>215</ele>
        <time>2017-04-24T15:22:26Z</time>
      </trkpt>
      <trkpt lat="45.63986" lon="5.65837">
        <ele>215</ele>
        <time>2017-04-24T15:22:42Z</time>
      </trkpt>
      <trkpt lat="45.63985" lon="5.65827">
        <ele>215</ele>
        <time>2017-04-24T15:22:42Z</time>
      </trkpt>
      <trkpt lat="45.63983" lon="5.65818">
        <ele>215</ele>
        <time>2017-04-24T15:22:42Z</time>
      </trkpt>
      <trkpt lat="45.63982" lon="5.65807">
        <ele>215</ele>
        <time>2017-04-24T15:22:42Z</time>
      </trkpt>
      <trkpt lat="45.63979" lon="5.6579">
        <ele>216</ele>
        <time>2017-04-24T15:23:10Z</time>
      </trkpt>
      <trkpt lat="45.63979" lon="5.6579">
        <ele>216</ele>
        <time>2017-04-24T15:23:10Z</time>
      </trkpt>
      <trkpt lat="45.63979" lon="5.65789">
        <ele>216</ele>
        <time>2017-04-24T15:23:10Z</time>
      </trkpt>
      <trkpt lat="45.63979" lon="5.65789">
        <ele>216</ele>
        <time>2017-04-24T15:23:10Z</time>
      </trkpt>
      <trkpt lat="45.63978" lon="5.65783">
        <ele>216</ele>
        <time>2017-04-24T15:23:10Z</time>
      </trkpt>
      <trkpt lat="45.63976" lon="5.65773">
        <ele>216</ele>
        <time>2017-04-24T15:23:26Z</time>
      </trkpt>
      <trkpt lat="45.63974" lon="5.65763">
        <ele>216</ele>
        <time>2017-04-24T15:23:26Z</time>
      </trkpt>
      <trkpt lat="45.63973" lon="5.65754">
        <ele>216</ele>
        <time>2017-04-24T15:23:26Z</time>
      </trkpt>
      <trkpt lat="45.63972" lon="5.65744">
        <ele>216</ele>
        <time>2017-04-24T15:23:26Z</time>
      </trkpt>
      <trkpt lat="45.63971" lon="5.65734">
        <ele>216</ele>
        <time>2017-04-24T15:23:42Z</time>
      </trkpt>
      <trkpt lat="45.63969" lon="5.65725">
        <ele>216</ele>
        <time>2017-04-24T15:23:42Z</time>
      </trkpt>
      <trkpt lat="45.63967" lon="5.65717">
        <ele>216</ele>
        <time>2017-04-24T15:23:42Z</time>
      </trkpt>
      <trkpt lat="45.63965" lon="5.65708">
        <ele>216</ele>
        <time>2017-04-24T15:23:42Z</time>
      </trkpt>
      <trkpt lat="45.63963" lon="5.657">
        <ele>216</ele>
        <time>2017-04-24T15:23:58Z</time>
      </trkpt>
      <trkpt lat="45.63963" lon="5.65691">
        <ele>216</ele>
        <time>2017-04-24T15:23:58Z</time>
      </trkpt>
      <trkpt lat="45.63963" lon="5.65683">
        <ele>216</ele>
        <time>2017-04-24T15:23:58Z</time>
      </trkpt>
      <trkpt lat="45.63961" lon="5.65676">
        <ele>216</ele>
        <time>2017-04-24T15:23:58Z</time>
      </trkpt>
      <trkpt lat="45.63958" lon="5.65668">
        <ele>216</ele>
        <time>2017-04-24T15:24:14Z</time>
      </trkpt>
      <trkpt lat="45.63956" lon="5.65659">
        <ele>214</ele>
        <time>2017-04-24T15:24:14Z</time>
      </trkpt>
      <trkpt lat="45.63955" lon="5.65651">
        <ele>214</ele>
        <time>2017-04-24T15:24:14Z</time>
      </trkpt>
      <trkpt lat="45.63954" lon="5.65644">
        <ele>214</ele>
        <time>2017-04-24T15:24:14Z</time>
      </trkpt>
      <trkpt lat="45.6395" lon="5.65634">
        <ele>214</ele>
        <time>2017-04-24T15:24:30Z</time>
      </trkpt>
      <trkpt lat="45.63948" lon="5.65624">
        <ele>215</ele>
        <time>2017-04-24T15:24:30Z</time>
      </trkpt>
      <trkpt lat="45.63947" lon="5.65613">
        <ele>215</ele>
        <time>2017-04-24T15:24:30Z</time>
      </trkpt>
      <trkpt lat="45.63945" lon="5.65603">
        <ele>215</ele>
        <time>2017-04-24T15:24:30Z</time>
      </trkpt>
      <trkpt lat="45.63944" lon="5.65594">
        <ele>215</ele>
        <time>2017-04-24T15:24:46Z</time>
      </trkpt>
      <trkpt lat="45.63942" lon="5.65585">
        <ele>215</ele>
        <time>2017-04-24T15:24:46Z</time>
      </trkpt>
      <trkpt lat="45.63941" lon="5.65577">
        <ele>215</ele>
        <time>2017-04-24T15:24:46Z</time>
      </trkpt>
      <trkpt lat="45.6394" lon="5.65568">
        <ele>215</ele>
        <time>2017-04-24T15:24:46Z</time>
      </trkpt>
      <trkpt lat="45.63939" lon="5.65561">
        <ele>215</ele>
        <time>2017-04-24T15:25:02Z</time>
      </trkpt>
      <trkpt lat="45.63938" lon="5.65553">
        <ele>215</ele>
        <time>2017-04-24T15:25:02Z</time>
      </trkpt>
      <trkpt lat="45.63936" lon="5.65544">
        <ele>215</ele>
        <time>2017-04-24T15:25:02Z</time>
      </trkpt>
      <trkpt lat="45.63935" lon="5.65536">
        <ele>215</ele>
        <time>2017-04-24T15:25:02Z</time>
      </trkpt>
      <trkpt lat="45.63933" lon="5.65527">
        <ele>215</ele>
        <time>2017-04-24T15:25:18Z</time>
      </trkpt>
      <trkpt lat="45.63931" lon="5.65518">
        <ele>215</ele>
        <time>2017-04-24T15:25:18Z</time>
      </trkpt>
      <trkpt lat="45.6393" lon="5.6551">
        <ele>215</ele>
        <time>2017-04-24T15:25:18Z</time>
      </trkpt>
      <trkpt lat="45.63929" lon="5.65501">
        <ele>215</ele>
        <time>2017-04-24T15:25:18Z</time>
      </trkpt>
      <trkpt lat="45.63928" lon="5.65493">
        <ele>215</ele>
        <time>2017-04-24T15:25:34Z</time>
      </trkpt>
      <trkpt lat="45.63926" lon="5.65484">
        <ele>215</ele>
        <time>2017-04-24T15:25:34Z</time>
      </trkpt>
      <trkpt lat="45.63925" lon="5.65476">
        <ele>215</ele>
        <time>2017-04-24T15:25:34Z</time>
      </trkpt>
      <trkpt lat="45.63923" lon="5.65468">
        <ele>215</ele>
        <time>2017-04-24T15:25:34Z</time>
      </trkpt>
      <trkpt lat="45.63922" lon="5.65461">
        <ele>215</ele>
        <time>2017-04-24T15:25:50Z</time>
      </trkpt>
      <trkpt lat="45.63922" lon="5.65453">
        <ele>216</ele>
        <time>2017-04-24T15:25:50Z</time>
      </trkpt>
      <trkpt lat="45.63921" lon="5.65445">
        <ele>216</ele>
        <time>2017-04-24T15:25:50Z</time>
      </trkpt>
      <trkpt lat="45.63919" lon="5.65436">
        <ele>216</ele>
        <time>2017-04-24T15:25:50Z</time>
      </trkpt>
      <trkpt lat="45.63917" lon="5.65424">
        <ele>216</ele>
        <time>2017-04-24T15:26:06Z</time>
      </trkpt>
      <trkpt lat="45.63915" lon="5.65416">
        <ele>216</ele>
        <time>2017-04-24T15:26:06Z</time>
      </trkpt>
      <trkpt lat="45.63914" lon="5.65409">
        <ele>216</ele>
        <time>2017-04-24T15:26:06Z</time>
      </trkpt>
      <trkpt lat="45.63913" lon="5.654">
        <ele>216</ele>
        <time>2017-04-24T15:26:06Z</time>
      </trkpt>
      <trkpt lat="45.63913" lon="5.65388">
        <ele>216</ele>
        <time>2017-04-24T15:26:22Z</time>
      </trkpt>
      <trkpt lat="45.63913" lon="5.65378">
        <ele>216</ele>
        <time>2017-04-24T15:26:22Z</time>
      </trkpt>
      <trkpt lat="45.63911" lon="5.65369">
        <ele>216</ele>
        <time>2017-04-24T15:26:22Z</time>
      </trkpt>
      <trkpt lat="45.63911" lon="5.6536">
        <ele>216</ele>
        <time>2017-04-24T15:26:22Z</time>
      </trkpt>
      <trkpt lat="45.63911" lon="5.65353">
        <ele>216</ele>
        <time>2017-04-24T15:26:38Z</time>
      </trkpt>
      <trkpt lat="45.63911" lon="5.65346">
        <ele>216</ele>
        <time>2017-04-24T15:26:38Z</time>
      </trkpt>
      <trkpt lat="45.6391" lon="5.65334">
        <ele>216</ele>
        <time>2017-04-24T15:26:38Z</time>
      </trkpt>
      <trkpt lat="45.63908" lon="5.65327">
        <ele>216</ele>
        <time>2017-04-24T15:26:38Z</time>
      </trkpt>
      <trkpt lat="45.63906" lon="5.65318">
        <ele>216</ele>
        <time>2017-04-24T15:26:54Z</time>
      </trkpt>
      <trkpt lat="45.63911" lon="5.65306">
        <ele>216</ele>
        <time>2017-04-24T15:26:54Z</time>
      </trkpt>
      <trkpt lat="45.63916" lon="5.65296">
        <ele>216</ele>
        <time>2017-04-24T15:26:54Z</time>
      </trkpt>
      <trkpt lat="45.63915" lon="5.65288">
        <ele>217</ele>
        <time>2017-04-24T15:26:54Z</time>
      </trkpt>
      <trkpt lat="45.63914" lon="5.6528">
        <ele>217</ele>
        <time>2017-04-24T15:27:10Z</time>
      </trkpt>
      <trkpt lat="45.63914" lon="5.6527">
        <ele>217</ele>
        <time>2017-04-24T15:27:10Z</time>
      </trkpt>
      <trkpt lat="45.63914" lon="5.6526">
        <ele>217</ele>
        <time>2017-04-24T15:27:10Z</time>
      </trkpt>
      <trkpt lat="45.63913" lon="5.65251">
        <ele>217</ele>
        <time>2017-04-24T15:27:10Z</time>
      </trkpt>
      <trkpt lat="45.63913" lon="5.65243">
        <ele>217</ele>
        <time>2017-04-24T15:27:26Z</time>
      </trkpt>
      <trkpt lat="45.63912" lon="5.65235">
        <ele>217</ele>
        <time>2017-04-24T15:27:26Z</time>
      </trkpt>
      <trkpt lat="45.63912" lon="5.65227">
        <ele>217</ele>
        <time>2017-04-24T15:27:26Z</time>
      </trkpt>
      <trkpt lat="45.63913" lon="5.65221">
        <ele>217</ele>
        <time>2017-04-24T15:27:26Z</time>
      </trkpt>
      <trkpt lat="45.63913" lon="5.65213">
        <ele>217</ele>
        <time>2017-04-24T15:27:42Z</time>
      </trkpt>
      <trkpt lat="45.63914" lon="5.65203">
        <ele>217</ele>
        <time>2017-04-24T15:27:42Z</time>
      </trkpt>
      <trkpt lat="45.63915" lon="5.65196">
        <ele>217</ele>
        <time>2017-04-24T15:27:42Z</time>
      </trkpt>
      <trkpt lat="45.63916" lon="5.65188">
        <ele>217</ele>
        <time>2017-04-24T15:27:42Z</time>
      </trkpt>
      <trkpt lat="45.63916" lon="5.65181">
        <ele>217</ele>
        <time>2017-04-24T15:27:58Z</time>
      </trkpt>
      <trkpt lat="45.63914" lon="5.65172">
        <ele>217</ele>
        <time>2017-04-24T15:27:58Z</time>
      </trkpt>
      <trkpt lat="45.63914" lon="5.65162">
        <ele>217</ele>
        <time>2017-04-24T15:27:58Z</time>
      </trkpt>
      <trkpt lat="45.63914" lon="5.65152">
        <ele>217</ele>
        <time>2017-04-24T15:27:58Z</time>
      </trkpt>
      <trkpt lat="45.63912" lon="5.65143">
        <ele>217</ele>
        <time>2017-04-24T15:28:14Z</time>
      </trkpt>
      <trkpt lat="45.6391" lon="5.65135">
        <ele>217</ele>
        <time>2017-04-24T15:28:14Z</time>
      </trkpt>
      <trkpt lat="45.63906" lon="5.65128">
        <ele>217</ele>
        <time>2017-04-24T15:28:14Z</time>
      </trkpt>
      <trkpt lat="45.63899" lon="5.65125">
        <ele>217</ele>
        <time>2017-04-24T15:28:14Z</time>
      </trkpt>
      <trkpt lat="45.63893" lon="5.65125">
        <ele>217</ele>
        <time>2017-04-24T15:28:30Z</time>
      </trkpt>
      <trkpt lat="45.63889" lon="5.65131">
        <ele>217</ele>
        <time>2017-04-24T15:28:30Z</time>
      </trkpt>
      <trkpt lat="45.63882" lon="5.65138">
        <ele>217</ele>
        <time>2017-04-24T15:28:30Z</time>
      </trkpt>
      <trkpt lat="45.63875" lon="5.65137">
        <ele>217</ele>
        <time>2017-04-24T15:28:30Z</time>
      </trkpt>
      <trkpt lat="45.63872" lon="5.65128">
        <ele>215</ele>
        <time>2017-04-24T15:28:46Z</time>
      </trkpt>
      <trkpt lat="45.6387" lon="5.65119">
        <ele>216</ele>
        <time>2017-04-24T15:28:46Z</time>
      </trkpt>
      <trkpt lat="45.63871" lon="5.65109">
        <ele>216</ele>
        <time>2017-04-24T15:28:46Z</time>
      </trkpt>
      <trkpt lat="45.63871" lon="5.65101">
        <ele>216</ele>
        <time>2017-04-24T15:28:46Z</time>
      </trkpt>
      <trkpt lat="45.63872" lon="5.65092">
        <ele>216</ele>
        <time>2017-04-24T15:29:02Z</time>
      </trkpt>
      <trkpt lat="45.63873" lon="5.65083">
        <ele>216</ele>
        <time>2017-04-24T15:29:02Z</time>
      </trkpt>
      <trkpt lat="45.63874" lon="5.65074">
        <ele>216</ele>
        <time>2017-04-24T15:29:02Z</time>
      </trkpt>
      <trkpt lat="45.63873" lon="5.65064">
        <ele>216</ele>
        <time>2017-04-24T15:29:02Z</time>
      </trkpt>
      <trkpt lat="45.63873" lon="5.65054">
        <ele>216</ele>
        <time>2017-04-24T15:29:18Z</time>
      </trkpt>
      <trkpt lat="45.63874" lon="5.65044">
        <ele>216</ele>
        <time>2017-04-24T15:29:18Z</time>
      </trkpt>
      <trkpt lat="45.63875" lon="5.65035">
        <ele>217</ele>
        <time>2017-04-24T15:29:18Z</time>
      </trkpt>
      <trkpt lat="45.63875" lon="5.65025">
        <ele>217</ele>
        <time>2017-04-24T15:29:18Z</time>
      </trkpt>
      <trkpt lat="45.63875" lon="5.65016">
        <ele>217</ele>
        <time>2017-04-24T15:29:34Z</time>
      </trkpt>
      <trkpt lat="45.63875" lon="5.65007">
        <ele>217</ele>
        <time>2017-04-24T15:29:34Z</time>
      </trkpt>
      <trkpt lat="45.63875" lon="5.64998">
        <ele>217</ele>
        <time>2017-04-24T15:29:34Z</time>
      </trkpt>
      <trkpt lat="45.63875" lon="5.6499">
        <ele>218</ele>
        <time>2017-04-24T15:29:34Z</time>
      </trkpt>
      <trkpt lat="45.63874" lon="5.64981">
        <ele>217</ele>
        <time>2017-04-24T15:29:50Z</time>
      </trkpt>
      <trkpt lat="45.63874" lon="5.64972">
        <ele>217</ele>
        <time>2017-04-24T15:29:50Z</time>
      </trkpt>
      <trkpt lat="45.63873" lon="5.64964">
        <ele>217</ele>
        <time>2017-04-24T15:29:50Z</time>
      </trkpt>
      <trkpt lat="45.63871" lon="5.64955">
        <ele>217</ele>
        <time>2017-04-24T15:29:50Z</time>
      </trkpt>
      <trkpt lat="45.63871" lon="5.64945">
        <ele>217</ele>
        <time>2017-04-24T15:30:06Z</time>
      </trkpt>
      <trkpt lat="45.63872" lon="5.64936">
        <ele>217</ele>
        <time>2017-04-24T15:30:06Z</time>
      </trkpt>
      <trkpt lat="45.63872" lon="5.64927">
        <ele>217</ele>
        <time>2017-04-24T15:30:06Z</time>
      </trkpt>
      <trkpt lat="45.63872" lon="5.64917">
        <ele>217</ele>
        <time>2017-04-24T15:30:06Z</time>
      </trkpt>
      <trkpt lat="45.63873" lon="5.64909">
        <ele>217</ele>
        <time>2017-04-24T15:30:22Z</time>
      </trkpt>
      <trkpt lat="45.63874" lon="5.64902">
        <ele>217</ele>
        <time>2017-04-24T15:30:22Z</time>
      </trkpt>
      <trkpt lat="45.63874" lon="5.64893">
        <ele>217</ele>
        <time>2017-04-24T15:30:22Z</time>
      </trkpt>
      <trkpt lat="45.63876" lon="5.64886">
        <ele>218</ele>
        <time>2017-04-24T15:30:22Z</time>
      </trkpt>
      <trkpt lat="45.63878" lon="5.64878">
        <ele>218</ele>
        <time>2017-04-24T15:30:38Z</time>
      </trkpt>
      <trkpt lat="45.6388" lon="5.6487">
        <ele>219</ele>
        <time>2017-04-24T15:30:38Z</time>
      </trkpt>
      <trkpt lat="45.63883" lon="5.6486">
        <ele>219</ele>
        <time>2017-04-24T15:30:38Z</time>
      </trkpt>
      <trkpt lat="45.63885" lon="5.64852">
        <ele>219</ele>
        <time>2017-04-24T15:30:38Z</time>
      </trkpt>
      <trkpt lat="45.63889" lon="5.64841">
        <ele>219</ele>
        <time>2017-04-24T15:30:54Z</time>
      </trkpt>
      <trkpt lat="45.63893" lon="5.64836">
        <ele>219</ele>
        <time>2017-04-24T15:30:54Z</time>
      </trkpt>
      <trkpt lat="45.63898" lon="5.6483">
        <ele>219</ele>
        <time>2017-04-24T15:30:54Z</time>
      </trkpt>
      <trkpt lat="45.63904" lon="5.64826">
        <ele>219</ele>
        <time>2017-04-24T15:30:54Z</time>
      </trkpt>
      <trkpt lat="45.63911" lon="5.64828">
        <ele>219</ele>
        <time>2017-04-24T15:31:10Z</time>
      </trkpt>
      <trkpt lat="45.63917" lon="5.64825">
        <ele>219</ele>
        <time>2017-04-24T15:31:10Z</time>
      </trkpt>
      <trkpt lat="45.63923" lon="5.6482">
        <ele>219</ele>
        <time>2017-04-24T15:31:10Z</time>
      </trkpt>
      <trkpt lat="45.6393" lon="5.64818">
        <ele>219</ele>
        <time>2017-04-24T15:31:10Z</time>
      </trkpt>
      <trkpt lat="45.63936" lon="5.64814">
        <ele>219</ele>
        <time>2017-04-24T15:31:26Z</time>
      </trkpt>
      <trkpt lat="45.63942" lon="5.64811">
        <ele>219</ele>
        <time>2017-04-24T15:31:26Z</time>
      </trkpt>
      <trkpt lat="45.63947" lon="5.64804">
        <ele>219</ele>
        <time>2017-04-24T15:31:26Z</time>
      </trkpt>
      <trkpt lat="45.63953" lon="5.64802">
        <ele>219</ele>
        <time>2017-04-24T15:31:26Z</time>
      </trkpt>
      <trkpt lat="45.63958" lon="5.648">
        <ele>219</ele>
        <time>2017-04-24T15:31:42Z</time>
      </trkpt>
      <trkpt lat="45.63963" lon="5.64798">
        <ele>225</ele>
        <time>2017-04-24T15:31:42Z</time>
      </trkpt>
      <trkpt lat="45.63967" lon="5.64793">
        <ele>225</ele>
        <time>2017-04-24T15:31:42Z</time>
      </trkpt>
      <trkpt lat="45.63971" lon="5.64788">
        <ele>231</ele>
        <time>2017-04-24T15:31:42Z</time>
      </trkpt>
      <trkpt lat="45.63977" lon="5.64781">
        <ele>231</ele>
        <time>2017-04-24T15:31:58Z</time>
      </trkpt>
      <trkpt lat="45.6398" lon="5.64773">
        <ele>231</ele>
        <time>2017-04-24T15:31:58Z</time>
      </trkpt>
      <trkpt lat="45.63983" lon="5.64765">
        <ele>231</ele>
        <time>2017-04-24T15:31:58Z</time>
      </trkpt>
      <trkpt lat="45.63984" lon="5.64756">
        <ele>231</ele>
        <time>2017-04-24T15:31:58Z</time>
      </trkpt>
      <trkpt lat="45.63984" lon="5.64747">
        <ele>231</ele>
        <time>2017-04-24T15:32:14Z</time>
      </trkpt>
      <trkpt lat="45.63984" lon="5.64738">
        <ele>231</ele>
        <time>2017-04-24T15:32:14Z</time>
      </trkpt>
      <trkpt lat="45.63984" lon="5.6473">
        <ele>231</ele>
        <time>2017-04-24T15:32:14Z</time>
      </trkpt>
      <trkpt lat="45.63985" lon="5.64722">
        <ele>231</ele>
        <time>2017-04-24T15:32:14Z</time>
      </trkpt>
      <trkpt lat="45.63985" lon="5.64715">
        <ele>231</ele>
        <time>2017-04-24T15:32:30Z</time>
      </trkpt>
      <trkpt lat="45.63985" lon="5.64707">
        <ele>239</ele>
        <time>2017-04-24T15:32:30Z</time>
      </trkpt>
      <trkpt lat="45.63984" lon="5.64699">
        <ele>239</ele>
        <time>2017-04-24T15:32:30Z</time>
      </trkpt>
      <trkpt lat="45.63985" lon="5.6469">
        <ele>239</ele>
        <time>2017-04-24T15:32:30Z</time>
      </trkpt>
      <trkpt lat="45.63987" lon="5.64683">
        <ele>239</ele>
        <time>2017-04-24T15:32:46Z</time>
      </trkpt>
      <trkpt lat="45.63989" lon="5.64676">
        <ele>239</ele>
        <time>2017-04-24T15:32:46Z</time>
      </trkpt>
      <trkpt lat="45.63988" lon="5.64667">
        <ele>239</ele>
        <time>2017-04-24T15:32:46Z</time>
      </trkpt>
      <trkpt lat="45.63988" lon="5.64657">
        <ele>239</ele>
        <time>2017-04-24T15:32:46Z</time>
      </trkpt>
      <trkpt lat="45.63987" lon="5.64646">
        <ele>239</ele>
        <time>2017-04-24T15:33:02Z</time>
      </trkpt>
      <trkpt lat="45.63986" lon="5.64637">
        <ele>239</ele>
        <time>2017-04-24T15:33:02Z</time>
      </trkpt>
      <trkpt lat="45.63985" lon="5.64628">
        <ele>239</ele>
        <time>2017-04-24T15:33:02Z</time>
      </trkpt>
      <trkpt lat="45.63984" lon="5.64619">
        <ele>235</ele>
        <time>2017-04-24T15:33:02Z</time>
      </trkpt>
      <trkpt lat="45.63984" lon="5.6461">
        <ele>235</ele>
        <time>2017-04-24T15:33:18Z</time>
      </trkpt>
      <trkpt lat="45.63984" lon="5.646">
        <ele>235</ele>
        <time>2017-04-24T15:33:18Z</time>
      </trkpt>
      <trkpt lat="45.63985" lon="5.64592">
        <ele>235</ele>
        <time>2017-04-24T15:33:18Z</time>
      </trkpt>
      <trkpt lat="45.63985" lon="5.64584">
        <ele>235</ele>
        <time>2017-04-24T15:33:18Z</time>
      </trkpt>
      <trkpt lat="45.63986" lon="5.64575">
        <ele>235</ele>
        <time>2017-04-24T15:33:34Z</time>
      </trkpt>
      <trkpt lat="45.63987" lon="5.64567">
        <ele>235</ele>
        <time>2017-04-24T15:33:34Z</time>
      </trkpt>
      <trkpt lat="45.63989" lon="5.64559">
        <ele>235</ele>
        <time>2017-04-24T15:33:34Z</time>
      </trkpt>
      <trkpt lat="45.63991" lon="5.6455">
        <ele>235</ele>
        <time>2017-04-24T15:33:34Z</time>
      </trkpt>
      <trkpt lat="45.63992" lon="5.64541">
        <ele>227</ele>
        <time>2017-04-24T15:33:50Z</time>
      </trkpt>
      <trkpt lat="45.63993" lon="5.64532">
        <ele>227</ele>
        <time>2017-04-24T15:33:50Z</time>
      </trkpt>
      <trkpt lat="45.63993" lon="5.64523">
        <ele>227</ele>
        <time>2017-04-24T15:33:50Z</time>
      </trkpt>
      <trkpt lat="45.63994" lon="5.64514">
        <ele>227</ele>
        <time>2017-04-24T15:33:50Z</time>
      </trkpt>
      <trkpt lat="45.63995" lon="5.64506">
        <ele>227</ele>
        <time>2017-04-24T15:34:06Z</time>
      </trkpt>
      <trkpt lat="45.63997" lon="5.64497">
        <ele>227</ele>
        <time>2017-04-24T15:34:06Z</time>
      </trkpt>
      <trkpt lat="45.63999" lon="5.64488">
        <ele>227</ele>
        <time>2017-04-24T15:34:06Z</time>
      </trkpt>
      <trkpt lat="45.64002" lon="5.6448">
        <ele>227</ele>
        <time>2017-04-24T15:34:06Z</time>
      </trkpt>
      <trkpt lat="45.64006" lon="5.64473">
        <ele>227</ele>
        <time>2017-04-24T15:34:22Z</time>
      </trkpt>
      <trkpt lat="45.64008" lon="5.64465">
        <ele>227</ele>
        <time>2017-04-24T15:34:22Z</time>
      </trkpt>
      <trkpt lat="45.64009" lon="5.64457">
        <ele>223</ele>
        <time>2017-04-24T15:34:22Z</time>
      </trkpt>
      <trkpt lat="45.64012" lon="5.64449">
        <ele>223</ele>
        <time>2017-04-24T15:34:22Z</time>
      </trkpt>
      <trkpt lat="45.64022" lon="5.64437">
        <ele>223</ele>
        <time>2017-04-24T15:34:54Z</time>
      </trkpt>
      <trkpt lat="45.64022" lon="5.64438">
        <ele>223</ele>
        <time>2017-04-24T15:34:54Z</time>
      </trkpt>
      <trkpt lat="45.64023" lon="5.64437">
        <ele>223</ele>
        <time>2017-04-24T15:34:54Z</time>
      </trkpt>
      <trkpt lat="45.64023" lon="5.64436">
        <ele>223</ele>
        <time>2017-04-24T15:34:54Z</time>
      </trkpt>
      <trkpt lat="45.64024" lon="5.64436">
        <ele>223</ele>
        <time>2017-04-24T15:34:54Z</time>
      </trkpt>
      <trkpt lat="45.6403" lon="5.64434">
        <ele>223</ele>
        <time>2017-04-24T15:35:54Z</time>
      </trkpt>
      <trkpt lat="45.6403" lon="5.64434">
        <ele>223</ele>
        <time>2017-04-24T15:35:54Z</time>
      </trkpt>
      <trkpt lat="45.6403" lon="5.64434">
        <ele>223</ele>
        <time>2017-04-24T15:35:54Z</time>
      </trkpt>
      <trkpt lat="45.64036" lon="5.64433">
        <ele>223</ele>
        <time>2017-04-24T15:35:54Z</time>
      </trkpt>
      <trkpt lat="45.64042" lon="5.64435">
        <ele>235</ele>
        <time>2017-04-24T15:35:54Z</time>
      </trkpt>
      <trkpt lat="45.64048" lon="5.64432">
        <ele>235</ele>
        <time>2017-04-24T15:36:10Z</time>
      </trkpt>
      <trkpt lat="45.64052" lon="5.64417">
        <ele>235</ele>
        <time>2017-04-24T15:36:10Z</time>
      </trkpt>
      <trkpt lat="45.64055" lon="5.64402">
        <ele>235</ele>
        <time>2017-04-24T15:36:10Z</time>
      </trkpt>
      <trkpt lat="45.64055" lon="5.64387">
        <ele>235</ele>
        <time>2017-04-24T15:36:10Z</time>
      </trkpt>
      <trkpt lat="45.64054" lon="5.64376">
        <ele>235</ele>
        <time>2017-04-24T15:36:26Z</time>
      </trkpt>
      <trkpt lat="45.64052" lon="5.64365">
        <ele>232</ele>
        <time>2017-04-24T15:36:26Z</time>
      </trkpt>
      <trkpt lat="45.64048" lon="5.64352">
        <ele>232</ele>
        <time>2017-04-24T15:36:26Z</time>
      </trkpt>
      <trkpt lat="45.64043" lon="5.64343">
        <ele>232</ele>
        <time>2017-04-24T15:36:26Z</time>
      </trkpt>
      <trkpt lat="45.64037" lon="5.64333">
        <ele>221</ele>
        <time>2017-04-24T15:36:42Z</time>
      </trkpt>
      <trkpt lat="45.64029" lon="5.64325">
        <ele>221</ele>
        <time>2017-04-24T15:36:42Z</time>
      </trkpt>
      <trkpt lat="45.64019" lon="5.64316">
        <ele>221</ele>
        <time>2017-04-24T15:36:42Z</time>
      </trkpt>
      <trkpt lat="45.64009" lon="5.64308">
        <ele>221</ele>
        <time>2017-04-24T15:36:42Z</time>
      </trkpt>
      <trkpt lat="45.64" lon="5.64302">
        <ele>221</ele>
        <time>2017-04-24T15:36:58Z</time>
      </trkpt>
      <trkpt lat="45.63998" lon="5.64301">
        <ele>221</ele>
        <time>2017-04-24T15:36:58Z</time>
      </trkpt>
      <trkpt lat="45.63993" lon="5.64297">
        <ele>221</ele>
        <time>2017-04-24T15:36:58Z</time>
      </trkpt>
      <trkpt lat="45.63985" lon="5.64292">
        <ele>221</ele>
        <time>2017-04-24T15:36:58Z</time>
      </trkpt>
      <trkpt lat="45.63978" lon="5.64288">
        <ele>219</ele>
        <time>2017-04-24T15:37:14Z</time>
      </trkpt>
      <trkpt lat="45.63972" lon="5.64283">
        <ele>219</ele>
        <time>2017-04-24T15:37:14Z</time>
      </trkpt>
      <trkpt lat="45.63968" lon="5.64279">
        <ele>219</ele>
        <time>2017-04-24T15:37:14Z</time>
      </trkpt>
      <trkpt lat="45.63963" lon="5.64275">
        <ele>219</ele>
        <time>2017-04-24T15:37:14Z</time>
      </trkpt>
      <trkpt lat="45.63958" lon="5.6427">
        <ele>218</ele>
        <time>2017-04-24T15:37:30Z</time>
      </trkpt>
      <trkpt lat="45.63953" lon="5.64265">
        <ele>218</ele>
        <time>2017-04-24T15:37:30Z</time>
      </trkpt>
      <trkpt lat="45.63947" lon="5.64262">
        <ele>218</ele>
        <time>2017-04-24T15:37:30Z</time>
      </trkpt>
      <trkpt lat="45.63941" lon="5.64258">
        <ele>218</ele>
        <time>2017-04-24T15:37:30Z</time>
      </trkpt>
      <trkpt lat="45.63935" lon="5.64254">
        <ele>218</ele>
        <time>2017-04-24T15:37:46Z</time>
      </trkpt>
      <trkpt lat="45.63929" lon="5.6425">
        <ele>218</ele>
        <time>2017-04-24T15:37:46Z</time>
      </trkpt>
      <trkpt lat="45.63923" lon="5.64246">
        <ele>218</ele>
        <time>2017-04-24T15:37:46Z</time>
      </trkpt>
      <trkpt lat="45.63917" lon="5.64242">
        <ele>218</ele>
        <time>2017-04-24T15:37:46Z</time>
      </trkpt>
      <trkpt lat="45.6391" lon="5.64236">
        <ele>218</ele>
        <time>2017-04-24T15:38:02Z</time>
      </trkpt>
      <trkpt lat="45.63902" lon="5.6423">
        <ele>218</ele>
        <time>2017-04-24T15:38:02Z</time>
      </trkpt>
      <trkpt lat="45.63896" lon="5.64226">
        <ele>218</ele>
        <time>2017-04-24T15:38:02Z</time>
      </trkpt>
      <trkpt lat="45.63887" lon="5.64221">
        <ele>218</ele>
        <time>2017-04-24T15:38:02Z</time>
      </trkpt>
      <trkpt lat="45.63878" lon="5.64216">
        <ele>218</ele>
        <time>2017-04-24T15:38:18Z</time>
      </trkpt>
      <trkpt lat="45.6387" lon="5.64212">
        <ele>220</ele>
        <time>2017-04-24T15:38:18Z</time>
      </trkpt>
      <trkpt lat="45.63862" lon="5.64208">
        <ele>220</ele>
        <time>2017-04-24T15:38:18Z</time>
      </trkpt>
      <trkpt lat="45.63856" lon="5.64205">
        <ele>220</ele>
        <time>2017-04-24T15:38:18Z</time>
      </trkpt>
      <trkpt lat="45.63847" lon="5.64199">
        <ele>220</ele>
        <time>2017-04-24T15:38:34Z</time>
      </trkpt>
      <trkpt lat="45.63838" lon="5.64192">
        <ele>220</ele>
        <time>2017-04-24T15:38:34Z</time>
      </trkpt>
      <trkpt lat="45.63829" lon="5.64185">
        <ele>220</ele>
        <time>2017-04-24T15:38:34Z</time>
      </trkpt>
      <trkpt lat="45.63818" lon="5.64179">
        <ele>220</ele>
        <time>2017-04-24T15:38:34Z</time>
      </trkpt>
      <trkpt lat="45.63808" lon="5.64172">
        <ele>220</ele>
        <time>2017-04-24T15:38:50Z</time>
      </trkpt>
      <trkpt lat="45.63801" lon="5.64166">
        <ele>220</ele>
        <time>2017-04-24T15:38:50Z</time>
      </trkpt>
      <trkpt lat="45.63795" lon="5.64162">
        <ele>220</ele>
        <time>2017-04-24T15:38:50Z</time>
      </trkpt>
      <trkpt lat="45.63789" lon="5.64158">
        <ele>221</ele>
        <time>2017-04-24T15:38:50Z</time>
      </trkpt>
      <trkpt lat="45.63783" lon="5.64155">
        <ele>221</ele>
        <time>2017-04-24T15:39:06Z</time>
      </trkpt>
      <trkpt lat="45.63777" lon="5.64151">
        <ele>221</ele>
        <time>2017-04-24T15:39:06Z</time>
      </trkpt>
      <trkpt lat="45.63771" lon="5.64146">
        <ele>221</ele>
        <time>2017-04-24T15:39:06Z</time>
      </trkpt>
      <trkpt lat="45.63767" lon="5.64146">
        <ele>221</ele>
        <time>2017-04-24T15:39:06Z</time>
      </trkpt>
      <trkpt lat="45.63764" lon="5.6415">
        <ele>221</ele>
        <time>2017-04-24T15:39:22Z</time>
      </trkpt>
      <trkpt lat="45.63763" lon="5.6415">
        <ele>221</ele>
        <time>2017-04-24T15:39:22Z</time>
      </trkpt>
      <trkpt lat="45.63758" lon="5.6415">
        <ele>221</ele>
        <time>2017-04-24T15:39:22Z</time>
      </trkpt>
      <trkpt lat="45.63752" lon="5.64153">
        <ele>221</ele>
        <time>2017-04-24T15:39:22Z</time>
      </trkpt>
      <trkpt lat="45.63747" lon="5.64158">
        <ele>221</ele>
        <time>2017-04-24T15:39:38Z</time>
      </trkpt>
      <trkpt lat="45.63742" lon="5.64162">
        <ele>221</ele>
        <time>2017-04-24T15:39:38Z</time>
      </trkpt>
      <trkpt lat="45.63736" lon="5.64163">
        <ele>221</ele>
        <time>2017-04-24T15:39:38Z</time>
      </trkpt>
      <trkpt lat="45.63731" lon="5.64163">
        <ele>221</ele>
        <time>2017-04-24T15:39:38Z</time>
      </trkpt>
      <trkpt lat="45.63725" lon="5.64164">
        <ele>221</ele>
        <time>2017-04-24T15:39:54Z</time>
      </trkpt>
      <trkpt lat="45.6372" lon="5.6416">
        <ele>221</ele>
        <time>2017-04-24T15:39:54Z</time>
      </trkpt>
      <trkpt lat="45.63715" lon="5.64156">
        <ele>221</ele>
        <time>2017-04-24T15:39:54Z</time>
      </trkpt>
      <trkpt lat="45.63711" lon="5.6415">
        <ele>221</ele>
        <time>2017-04-24T15:39:54Z</time>
      </trkpt>
      <trkpt lat="45.63707" lon="5.64148">
        <ele>220</ele>
        <time>2017-04-24T15:40:10Z</time>
      </trkpt>
      <trkpt lat="45.63702" lon="5.64144">
        <ele>220</ele>
        <time>2017-04-24T15:40:10Z</time>
      </trkpt>
      <trkpt lat="45.63698" lon="5.64138">
        <ele>220</ele>
        <time>2017-04-24T15:40:10Z</time>
      </trkpt>
      <trkpt lat="45.63692" lon="5.64134">
        <ele>220</ele>
        <time>2017-04-24T15:40:10Z</time>
      </trkpt>
      <trkpt lat="45.63686" lon="5.6413">
        <ele>220</ele>
        <time>2017-04-24T15:40:26Z</time>
      </trkpt>
      <trkpt lat="45.6368" lon="5.64127">
        <ele>220</ele>
        <time>2017-04-24T15:40:26Z</time>
      </trkpt>
      <trkpt lat="45.63675" lon="5.64124">
        <ele>221</ele>
        <time>2017-04-24T15:40:26Z</time>
      </trkpt>
      <trkpt lat="45.63671" lon="5.64121">
        <ele>221</ele>
        <time>2017-04-24T15:40:26Z</time>
      </trkpt>
      <trkpt lat="45.63666" lon="5.64119">
        <ele>221</ele>
        <time>2017-04-24T15:40:42Z</time>
      </trkpt>
      <trkpt lat="45.63661" lon="5.64116">
        <ele>221</ele>
        <time>2017-04-24T15:40:42Z</time>
      </trkpt>
      <trkpt lat="45.63657" lon="5.64116">
        <ele>221</ele>
        <time>2017-04-24T15:40:42Z</time>
      </trkpt>
      <trkpt lat="45.63656" lon="5.64117">
        <ele>221</ele>
        <time>2017-04-24T15:40:42Z</time>
      </trkpt>
      <trkpt lat="45.63653" lon="5.64115">
        <ele>221</ele>
        <time>2017-04-24T15:40:58Z</time>
      </trkpt>
      <trkpt lat="45.63651" lon="5.64109">
        <ele>221</ele>
        <time>2017-04-24T15:40:58Z</time>
      </trkpt>
      <trkpt lat="45.63646" lon="5.64106">
        <ele>221</ele>
        <time>2017-04-24T15:40:58Z</time>
      </trkpt>
      <trkpt lat="45.63641" lon="5.64106">
        <ele>221</ele>
        <time>2017-04-24T15:40:58Z</time>
      </trkpt>
      <trkpt lat="45.63643" lon="5.64105">
        <ele>221</ele>
        <time>2017-04-24T15:42:34Z</time>
      </trkpt>
      <trkpt lat="45.63641" lon="5.64106">
        <ele>221</ele>
        <time>2017-04-24T15:42:34Z</time>
      </trkpt>
      <trkpt lat="45.63636" lon="5.64105">
        <ele>221</ele>
        <time>2017-04-24T15:42:34Z</time>
      </trkpt>
      <trkpt lat="45.6363" lon="5.64105">
        <ele>221</ele>
        <time>2017-04-24T15:42:34Z</time>
      </trkpt>
      <trkpt lat="45.63624" lon="5.64106">
        <ele>220</ele>
        <time>2017-04-24T15:42:34Z</time>
      </trkpt>
      <trkpt lat="45.63618" lon="5.64106">
        <ele>220</ele>
        <time>2017-04-24T15:42:50Z</time>
      </trkpt>
      <trkpt lat="45.63612" lon="5.64107">
        <ele>220</ele>
        <time>2017-04-24T15:42:50Z</time>
      </trkpt>
      <trkpt lat="45.63607" lon="5.64106">
        <ele>220</ele>
        <time>2017-04-24T15:42:50Z</time>
      </trkpt>
      <trkpt lat="45.63602" lon="5.64105">
        <ele>220</ele>
        <time>2017-04-24T15:42:50Z</time>
      </trkpt>
      <trkpt lat="45.63601" lon="5.64104">
        <ele>220</ele>
        <time>2017-04-24T15:43:14Z</time>
      </trkpt>
      <trkpt lat="45.636" lon="5.64104">
        <ele>220</ele>
        <time>2017-04-24T15:43:14Z</time>
      </trkpt>
      <trkpt lat="45.63597" lon="5.64108">
        <ele>220</ele>
        <time>2017-04-24T15:43:14Z</time>
      </trkpt>
      <trkpt lat="45.63594" lon="5.64112">
        <ele>220</ele>
        <time>2017-04-24T15:43:14Z</time>
      </trkpt>
      <trkpt lat="45.63593" lon="5.64112">
        <ele>220</ele>
        <time>2017-04-24T15:43:14Z</time>
      </trkpt>
      <trkpt lat="45.63592" lon="5.64112">
        <ele>220</ele>
        <time>2017-04-24T15:43:38Z</time>
      </trkpt>
      <trkpt lat="45.63591" lon="5.64112">
        <ele>220</ele>
        <time>2017-04-24T15:43:38Z</time>
      </trkpt>
      <trkpt lat="45.63591" lon="5.64114">
        <ele>220</ele>
        <time>2017-04-24T15:43:38Z</time>
      </trkpt>
      <trkpt lat="45.63588" lon="5.6412">
        <ele>220</ele>
        <time>2017-04-24T15:43:38Z</time>
      </trkpt>
      <trkpt lat="45.63586" lon="5.64129">
        <ele>220</ele>
        <time>2017-04-24T15:43:38Z</time>
      </trkpt>
      <trkpt lat="45.63583" lon="5.6414">
        <ele>220</ele>
        <time>2017-04-24T15:45:18Z</time>
      </trkpt>
      <trkpt lat="45.63583" lon="5.6414">
        <ele>220</ele>
        <time>2017-04-24T15:45:18Z</time>
      </trkpt>
      <trkpt lat="45.63581" lon="5.64139">
        <ele>220</ele>
        <time>2017-04-24T15:45:18Z</time>
      </trkpt>
      <trkpt lat="45.63578" lon="5.64138">
        <ele>220</ele>
        <time>2017-04-24T15:45:18Z</time>
      </trkpt>
      <trkpt lat="45.63573" lon="5.64139">
        <ele>220</ele>
        <time>2017-04-24T15:45:18Z</time>
      </trkpt>
      <trkpt lat="45.63569" lon="5.6414">
        <ele>220</ele>
        <time>2017-04-24T15:45:34Z</time>
      </trkpt>
      <trkpt lat="45.63564" lon="5.64141">
        <ele>220</ele>
        <time>2017-04-24T15:45:34Z</time>
      </trkpt>
      <trkpt lat="45.6356" lon="5.64144">
        <ele>220</ele>
        <time>2017-04-24T15:45:34Z</time>
      </trkpt>
      <trkpt lat="45.63559" lon="5.64144">
        <ele>220</ele>
        <time>2017-04-24T15:45:34Z</time>
      </trkpt>
      <trkpt lat="45.63555" lon="5.64144">
        <ele>220</ele>
        <time>2017-04-24T15:46:22Z</time>
      </trkpt>
      <trkpt lat="45.63553" lon="5.64146">
        <ele>220</ele>
        <time>2017-04-24T15:46:22Z</time>
      </trkpt>
      <trkpt lat="45.6355" lon="5.64148">
        <ele>220</ele>
        <time>2017-04-24T15:46:22Z</time>
      </trkpt>
      <trkpt lat="45.63545" lon="5.6415">
        <ele>220</ele>
        <time>2017-04-24T15:46:22Z</time>
      </trkpt>
      <trkpt lat="45.6354" lon="5.64152">
        <ele>220</ele>
        <time>2017-04-24T15:46:22Z</time>
      </trkpt>
      <trkpt lat="45.63536" lon="5.64153">
        <ele>220</ele>
        <time>2017-04-24T15:46:38Z</time>
      </trkpt>
      <trkpt lat="45.63534" lon="5.64157">
        <ele>220</ele>
        <time>2017-04-24T15:46:38Z</time>
      </trkpt>
      <trkpt lat="45.6353" lon="5.6416">
        <ele>220</ele>
        <time>2017-04-24T15:46:38Z</time>
      </trkpt>
      <trkpt lat="45.63526" lon="5.64163">
        <ele>220</ele>
        <time>2017-04-24T15:46:38Z</time>
      </trkpt>
      <trkpt lat="45.63524" lon="5.64163">
        <ele>220</ele>
        <time>2017-04-24T15:46:54Z</time>
      </trkpt>
      <trkpt lat="45.63521" lon="5.64164">
        <ele>220</ele>
        <time>2017-04-24T15:46:54Z</time>
      </trkpt>
      <trkpt lat="45.63516" lon="5.64166">
        <ele>220</ele>
        <time>2017-04-24T15:46:54Z</time>
      </trkpt>
      <trkpt lat="45.63512" lon="5.64163">
        <ele>220</ele>
        <time>2017-04-24T15:46:54Z</time>
      </trkpt>
      <trkpt lat="45.63507" lon="5.64163">
        <ele>220</ele>
        <time>2017-04-24T15:47:10Z</time>
      </trkpt>
      <trkpt lat="45.63504" lon="5.64167">
        <ele>220</ele>
        <time>2017-04-24T15:47:10Z</time>
      </trkpt>
      <trkpt lat="45.63501" lon="5.64171">
        <ele>220</ele>
        <time>2017-04-24T15:47:10Z</time>
      </trkpt>
      <trkpt lat="45.63496" lon="5.64175">
        <ele>220</ele>
        <time>2017-04-24T15:47:10Z</time>
      </trkpt>
      <trkpt lat="45.63491" lon="5.64176">
        <ele>220</ele>
        <time>2017-04-24T15:47:26Z</time>
      </trkpt>
      <trkpt lat="45.63487" lon="5.64177">
        <ele>220</ele>
        <time>2017-04-24T15:47:26Z</time>
      </trkpt>
      <trkpt lat="45.63483" lon="5.64184">
        <ele>220</ele>
        <time>2017-04-24T15:47:26Z</time>
      </trkpt>
      <trkpt lat="45.63479" lon="5.64192">
        <ele>220</ele>
        <time>2017-04-24T15:47:26Z</time>
      </trkpt>
      <trkpt lat="45.63475" lon="5.64201">
        <ele>220</ele>
        <time>2017-04-24T15:47:42Z</time>
      </trkpt>
      <trkpt lat="45.63472" lon="5.64209">
        <ele>219</ele>
        <time>2017-04-24T15:47:42Z</time>
      </trkpt>
      <trkpt lat="45.6347" lon="5.64217">
        <ele>219</ele>
        <time>2017-04-24T15:47:42Z</time>
      </trkpt>
      <trkpt lat="45.63467" lon="5.64226">
        <ele>219</ele>
        <time>2017-04-24T15:47:42Z</time>
      </trkpt>
      <trkpt lat="45.63464" lon="5.64233">
        <ele>219</ele>
        <time>2017-04-24T15:47:58Z</time>
      </trkpt>
      <trkpt lat="45.63462" lon="5.64242">
        <ele>219</ele>
        <time>2017-04-24T15:47:58Z</time>
      </trkpt>
      <trkpt lat="45.6346" lon="5.64252">
        <ele>219</ele>
        <time>2017-04-24T15:47:58Z</time>
      </trkpt>
      <trkpt lat="45.63459" lon="5.64261">
        <ele>219</ele>
        <time>2017-04-24T15:47:58Z</time>
      </trkpt>
      <trkpt lat="45.63458" lon="5.64269">
        <ele>219</ele>
        <time>2017-04-24T15:48:14Z</time>
      </trkpt>
      <trkpt lat="45.63456" lon="5.64277">
        <ele>219</ele>
        <time>2017-04-24T15:48:14Z</time>
      </trkpt>
      <trkpt lat="45.63454" lon="5.64284">
        <ele>219</ele>
        <time>2017-04-24T15:48:14Z</time>
      </trkpt>
      <trkpt lat="45.63452" lon="5.64291">
        <ele>219</ele>
        <time>2017-04-24T15:48:14Z</time>
      </trkpt>
      <trkpt lat="45.6345" lon="5.64298">
        <ele>218</ele>
        <time>2017-04-24T15:48:30Z</time>
      </trkpt>
      <trkpt lat="45.63449" lon="5.64306">
        <ele>218</ele>
        <time>2017-04-24T15:48:30Z</time>
      </trkpt>
      <trkpt lat="45.6345" lon="5.64315">
        <ele>218</ele>
        <time>2017-04-24T15:48:30Z</time>
      </trkpt>
      <trkpt lat="45.6345" lon="5.64324">
        <ele>218</ele>
        <time>2017-04-24T15:48:30Z</time>
      </trkpt>
      <trkpt lat="45.63449" lon="5.64332">
        <ele>218</ele>
        <time>2017-04-24T15:48:46Z</time>
      </trkpt>
      <trkpt lat="45.63447" lon="5.6434">
        <ele>218</ele>
        <time>2017-04-24T15:48:46Z</time>
      </trkpt>
      <trkpt lat="45.63447" lon="5.64349">
        <ele>218</ele>
        <time>2017-04-24T15:48:46Z</time>
      </trkpt>
      <trkpt lat="45.63446" lon="5.64357">
        <ele>218</ele>
        <time>2017-04-24T15:48:46Z</time>
      </trkpt>
      <trkpt lat="45.63446" lon="5.64366">
        <ele>218</ele>
        <time>2017-04-24T15:49:06Z</time>
      </trkpt>
      <trkpt lat="45.63445" lon="5.64366">
        <ele>218</ele>
        <time>2017-04-24T15:49:06Z</time>
      </trkpt>
      <trkpt lat="45.63444" lon="5.64367">
        <ele>218</ele>
        <time>2017-04-24T15:49:06Z</time>
      </trkpt>
      <trkpt lat="45.63443" lon="5.64376">
        <ele>217</ele>
        <time>2017-04-24T15:49:06Z</time>
      </trkpt>
      <trkpt lat="45.63441" lon="5.64387">
        <ele>217</ele>
        <time>2017-04-24T15:49:06Z</time>
      </trkpt>
      <trkpt lat="45.63438" lon="5.64396">
        <ele>217</ele>
        <time>2017-04-24T15:49:22Z</time>
      </trkpt>
      <trkpt lat="45.63435" lon="5.64405">
        <ele>217</ele>
        <time>2017-04-24T15:49:22Z</time>
      </trkpt>
      <trkpt lat="45.63431" lon="5.64413">
        <ele>217</ele>
        <time>2017-04-24T15:49:22Z</time>
      </trkpt>
      <trkpt lat="45.63428" lon="5.64421">
        <ele>217</ele>
        <time>2017-04-24T15:49:22Z</time>
      </trkpt>
      <trkpt lat="45.63427" lon="5.64429">
        <ele>217</ele>
        <time>2017-04-24T15:49:38Z</time>
      </trkpt>
      <trkpt lat="45.63425" lon="5.64436">
        <ele>217</ele>
        <time>2017-04-24T15:49:38Z</time>
      </trkpt>
      <trkpt lat="45.63424" lon="5.64444">
        <ele>217</ele>
        <time>2017-04-24T15:49:38Z</time>
      </trkpt>
      <trkpt lat="45.63422" lon="5.64452">
        <ele>217</ele>
        <time>2017-04-24T15:49:38Z</time>
      </trkpt>
      <trkpt lat="45.63419" lon="5.6446">
        <ele>216</ele>
        <time>2017-04-24T15:49:54Z</time>
      </trkpt>
      <trkpt lat="45.63415" lon="5.64467">
        <ele>216</ele>
        <time>2017-04-24T15:49:54Z</time>
      </trkpt>
      <trkpt lat="45.63412" lon="5.64474">
        <ele>216</ele>
        <time>2017-04-24T15:49:54Z</time>
      </trkpt>
      <trkpt lat="45.63409" lon="5.64482">
        <ele>216</ele>
        <time>2017-04-24T15:49:54Z</time>
      </trkpt>
      <trkpt lat="45.63406" lon="5.6449">
        <ele>216</ele>
        <time>2017-04-24T15:50:10Z</time>
      </trkpt>
      <trkpt lat="45.63404" lon="5.64499">
        <ele>216</ele>
        <time>2017-04-24T15:50:10Z</time>
      </trkpt>
      <trkpt lat="45.63401" lon="5.64508">
        <ele>216</ele>
        <time>2017-04-24T15:50:10Z</time>
      </trkpt>
      <trkpt lat="45.63398" lon="5.64515">
        <ele>216</ele>
        <time>2017-04-24T15:50:10Z</time>
      </trkpt>
      <trkpt lat="45.63396" lon="5.64522">
        <ele>216</ele>
        <time>2017-04-24T15:50:26Z</time>
      </trkpt>
      <trkpt lat="45.63395" lon="5.64529">
        <ele>216</ele>
        <time>2017-04-24T15:50:26Z</time>
      </trkpt>
      <trkpt lat="45.63394" lon="5.64538">
        <ele>216</ele>
        <time>2017-04-24T15:50:26Z</time>
      </trkpt>
      <trkpt lat="45.63393" lon="5.64547">
        <ele>215</ele>
        <time>2017-04-24T15:50:26Z</time>
      </trkpt>
      <trkpt lat="45.63392" lon="5.64556">
        <ele>215</ele>
        <time>2017-04-24T15:50:42Z</time>
      </trkpt>
      <trkpt lat="45.63392" lon="5.64565">
        <ele>215</ele>
        <time>2017-04-24T15:50:42Z</time>
      </trkpt>
      <trkpt lat="45.63393" lon="5.64573">
        <ele>215</ele>
        <time>2017-04-24T15:50:42Z</time>
      </trkpt>
      <trkpt lat="45.63393" lon="5.64581">
        <ele>215</ele>
        <time>2017-04-24T15:50:42Z</time>
      </trkpt>
      <trkpt lat="45.63394" lon="5.64588">
        <ele>215</ele>
        <time>2017-04-24T15:50:58Z</time>
      </trkpt>
      <trkpt lat="45.63394" lon="5.64596">
        <ele>215</ele>
        <time>2017-04-24T15:50:58Z</time>
      </trkpt>
      <trkpt lat="45.63394" lon="5.64604">
        <ele>215</ele>
        <time>2017-04-24T15:50:58Z</time>
      </trkpt>
      <trkpt lat="45.63395" lon="5.64613">
        <ele>215</ele>
        <time>2017-04-24T15:50:58Z</time>
      </trkpt>
      <trkpt lat="45.63396" lon="5.64622">
        <ele>215</ele>
        <time>2017-04-24T15:51:14Z</time>
      </trkpt>
      <trkpt lat="45.63396" lon="5.64631">
        <ele>214</ele>
        <time>2017-04-24T15:51:14Z</time>
      </trkpt>
      <trkpt lat="45.63397" lon="5.6464">
        <ele>214</ele>
        <time>2017-04-24T15:51:14Z</time>
      </trkpt>
      <trkpt lat="45.63397" lon="5.64648">
        <ele>214</ele>
        <time>2017-04-24T15:51:14Z</time>
      </trkpt>
      <trkpt lat="45.634" lon="5.64656">
        <ele>214</ele>
        <time>2017-04-24T15:51:30Z</time>
      </trkpt>
      <trkpt lat="45.63402" lon="5.64663">
        <ele>214</ele>
        <time>2017-04-24T15:51:30Z</time>
      </trkpt>
      <trkpt lat="45.63405" lon="5.6467">
        <ele>214</ele>
        <time>2017-04-24T15:51:30Z</time>
      </trkpt>
      <trkpt lat="45.63405" lon="5.64677">
        <ele>214</ele>
        <time>2017-04-24T15:51:30Z</time>
      </trkpt>
      <trkpt lat="45.63403" lon="5.64684">
        <ele>214</ele>
        <time>2017-04-24T15:51:46Z</time>
      </trkpt>
      <trkpt lat="45.63403" lon="5.64693">
        <ele>214</ele>
        <time>2017-04-24T15:51:46Z</time>
      </trkpt>
      <trkpt lat="45.63404" lon="5.64701">
        <ele>214</ele>
        <time>2017-04-24T15:51:46Z</time>
      </trkpt>
      <trkpt lat="45.63405" lon="5.6471">
        <ele>211</ele>
        <time>2017-04-24T15:51:46Z</time>
      </trkpt>
      <trkpt lat="45.63405" lon="5.64719">
        <ele>211</ele>
        <time>2017-04-24T15:52:02Z</time>
      </trkpt>
      <trkpt lat="45.63403" lon="5.64729">
        <ele>211</ele>
        <time>2017-04-24T15:52:02Z</time>
      </trkpt>
      <trkpt lat="45.63403" lon="5.64738">
        <ele>211</ele>
        <time>2017-04-24T15:52:02Z</time>
      </trkpt>
      <trkpt lat="45.63404" lon="5.64746">
        <ele>211</ele>
        <time>2017-04-24T15:52:02Z</time>
      </trkpt>
      <trkpt lat="45.63405" lon="5.64753">
        <ele>211</ele>
        <time>2017-04-24T15:52:18Z</time>
      </trkpt>
      <trkpt lat="45.63404" lon="5.64762">
        <ele>211</ele>
        <time>2017-04-24T15:52:18Z</time>
      </trkpt>
      <trkpt lat="45.63404" lon="5.6477">
        <ele>211</ele>
        <time>2017-04-24T15:52:18Z</time>
      </trkpt>
      <trkpt lat="45.63408" lon="5.64778">
        <ele>211</ele>
        <time>2017-04-24T15:52:18Z</time>
      </trkpt>
      <trkpt lat="45.63413" lon="5.64784">
        <ele>211</ele>
        <time>2017-04-24T15:52:34Z</time>
      </trkpt>
      <trkpt lat="45.63419" lon="5.64789">
        <ele>211</ele>
        <time>2017-04-24T15:52:34Z</time>
      </trkpt>
      <trkpt lat="45.63426" lon="5.64792">
        <ele>211</ele>
        <time>2017-04-24T15:52:34Z</time>
      </trkpt>
      <trkpt lat="45.6344" lon="5.64804">
        <ele>211</ele>
        <time>2017-04-24T15:52:34Z</time>
      </trkpt>
      <trkpt lat="45.63452" lon="5.64822">
        <ele>211</ele>
        <time>2017-04-24T15:52:50Z</time>
      </trkpt>
      <trkpt lat="45.63463" lon="5.64847">
        <ele>213</ele>
        <time>2017-04-24T15:52:50Z</time>
      </trkpt>
      <trkpt lat="45.63475" lon="5.64871">
        <ele>213</ele>
        <time>2017-04-24T15:52:50Z</time>
      </trkpt>
      <trkpt lat="45.63492" lon="5.64889">
        <ele>212</ele>
        <time>2017-04-24T15:52:50Z</time>
      </trkpt>
      <trkpt lat="45.63512" lon="5.64908">
        <ele>212</ele>
        <time>2017-04-24T15:53:06Z</time>
      </trkpt>
      <trkpt lat="45.63523" lon="5.6492">
        <ele>212</ele>
        <time>2017-04-24T15:53:06Z</time>
      </trkpt>
      <trkpt lat="45.63527" lon="5.64922">
        <ele>212</ele>
        <time>2017-04-24T15:53:06Z</time>
      </trkpt>
      <trkpt lat="45.63532" lon="5.64927">
        <ele>212</ele>
        <time>2017-04-24T15:53:06Z</time>
      </trkpt>
      <trkpt lat="45.63538" lon="5.64929">
        <ele>212</ele>
        <time>2017-04-24T15:53:22Z</time>
      </trkpt>
      <trkpt lat="45.63544" lon="5.64928">
        <ele>213</ele>
        <time>2017-04-24T15:53:22Z</time>
      </trkpt>
      <trkpt lat="45.6355" lon="5.64929">
        <ele>213</ele>
        <time>2017-04-24T15:53:22Z</time>
      </trkpt>
      <trkpt lat="45.63556" lon="5.64933">
        <ele>213</ele>
        <time>2017-04-24T15:53:22Z</time>
      </trkpt>
      <trkpt lat="45.63563" lon="5.64939">
        <ele>213</ele>
        <time>2017-04-24T15:53:50Z</time>
      </trkpt>
      <trkpt lat="45.63564" lon="5.6494">
        <ele>213</ele>
        <time>2017-04-24T15:53:50Z</time>
      </trkpt>
      <trkpt lat="45.63566" lon="5.64941">
        <ele>213</ele>
        <time>2017-04-24T15:53:50Z</time>
      </trkpt>
      <trkpt lat="45.63572" lon="5.64945">
        <ele>213</ele>
        <time>2017-04-24T15:53:50Z</time>
      </trkpt>
      <trkpt lat="45.63577" lon="5.6495">
        <ele>213</ele>
        <time>2017-04-24T15:53:50Z</time>
      </trkpt>
      <trkpt lat="45.63582" lon="5.64956">
        <ele>213</ele>
        <time>2017-04-24T15:54:06Z</time>
      </trkpt>
      <trkpt lat="45.63585" lon="5.64961">
        <ele>213</ele>
        <time>2017-04-24T15:54:06Z</time>
      </trkpt>
      <trkpt lat="45.6359" lon="5.64967">
        <ele>213</ele>
        <time>2017-04-24T15:54:06Z</time>
      </trkpt>
      <trkpt lat="45.63594" lon="5.64974">
        <ele>213</ele>
        <time>2017-04-24T15:54:06Z</time>
      </trkpt>
      <trkpt lat="45.63598" lon="5.6498">
        <ele>213</ele>
        <time>2017-04-24T15:54:22Z</time>
      </trkpt>
      <trkpt lat="45.63603" lon="5.64987">
        <ele>213</ele>
        <time>2017-04-24T15:54:22Z</time>
      </trkpt>
      <trkpt lat="45.63607" lon="5.64993">
        <ele>213</ele>
        <time>2017-04-24T15:54:22Z</time>
      </trkpt>
      <trkpt lat="45.6361" lon="5.65001">
        <ele>213</ele>
        <time>2017-04-24T15:54:22Z</time>
      </trkpt>
      <trkpt lat="45.63613" lon="5.65007">
        <ele>213</ele>
        <time>2017-04-24T15:54:38Z</time>
      </trkpt>
      <trkpt lat="45.63615" lon="5.65015">
        <ele>213</ele>
        <time>2017-04-24T15:54:38Z</time>
      </trkpt>
      <trkpt lat="45.63619" lon="5.65021">
        <ele>213</ele>
        <time>2017-04-24T15:54:38Z</time>
      </trkpt>
      <trkpt lat="45.63623" lon="5.65026">
        <ele>213</ele>
        <time>2017-04-24T15:54:38Z</time>
      </trkpt>
      <trkpt lat="45.63625" lon="5.65028">
        <ele>214</ele>
        <time>2017-04-24T15:55:10Z</time>
      </trkpt>
      <trkpt lat="45.63625" lon="5.65028">
        <ele>214</ele>
        <time>2017-04-24T15:55:10Z</time>
      </trkpt>
      <trkpt lat="45.63625" lon="5.65028">
        <ele>214</ele>
        <time>2017-04-24T15:55:10Z</time>
      </trkpt>
      <trkpt lat="45.63628" lon="5.65035">
        <ele>214</ele>
        <time>2017-04-24T15:55:10Z</time>
      </trkpt>
      <trkpt lat="45.63633" lon="5.65044">
        <ele>213</ele>
        <time>2017-04-24T15:55:10Z</time>
      </trkpt>
      <trkpt lat="45.63636" lon="5.65053">
        <ele>213</ele>
        <time>2017-04-24T15:55:26Z</time>
      </trkpt>
      <trkpt lat="45.63637" lon="5.65062">
        <ele>213</ele>
        <time>2017-04-24T15:55:26Z</time>
      </trkpt>
      <trkpt lat="45.63635" lon="5.65072">
        <ele>213</ele>
        <time>2017-04-24T15:55:26Z</time>
      </trkpt>
      <trkpt lat="45.63636" lon="5.65082">
        <ele>213</ele>
        <time>2017-04-24T15:55:26Z</time>
      </trkpt>
      <trkpt lat="45.63641" lon="5.65089">
        <ele>213</ele>
        <time>2017-04-24T15:55:42Z</time>
      </trkpt>
      <trkpt lat="45.63644" lon="5.65096">
        <ele>213</ele>
        <time>2017-04-24T15:55:42Z</time>
      </trkpt>
      <trkpt lat="45.63646" lon="5.65102">
        <ele>213</ele>
        <time>2017-04-24T15:55:42Z</time>
      </trkpt>
      <trkpt lat="45.6365" lon="5.65109">
        <ele>213</ele>
        <time>2017-04-24T15:55:42Z</time>
      </trkpt>
      <trkpt lat="45.63655" lon="5.65116">
        <ele>213</ele>
        <time>2017-04-24T15:55:58Z</time>
      </trkpt>
      <trkpt lat="45.63659" lon="5.65124">
        <ele>213</ele>
        <time>2017-04-24T15:55:58Z</time>
      </trkpt>
      <trkpt lat="45.63664" lon="5.65129">
        <ele>212</ele>
        <time>2017-04-24T15:55:58Z</time>
      </trkpt>
      <trkpt lat="45.63669" lon="5.65135">
        <ele>212</ele>
        <time>2017-04-24T15:55:58Z</time>
      </trkpt>
      <trkpt lat="45.63684" lon="5.65141">
        <ele>212</ele>
        <time>2017-04-24T15:56:30Z</time>
      </trkpt>
      <trkpt lat="45.63686" lon="5.65141">
        <ele>212</ele>
        <time>2017-04-24T15:56:30Z</time>
      </trkpt>
      <trkpt lat="45.63691" lon="5.65139">
        <ele>212</ele>
        <time>2017-04-24T15:56:30Z</time>
      </trkpt>
      <trkpt lat="45.63694" lon="5.65139">
        <ele>212</ele>
        <time>2017-04-24T15:56:30Z</time>
      </trkpt>
      <trkpt lat="45.63698" lon="5.65141">
        <ele>212</ele>
        <time>2017-04-24T15:56:30Z</time>
      </trkpt>
      <trkpt lat="45.63702" lon="5.65146">
        <ele>212</ele>
        <time>2017-04-24T15:56:46Z</time>
      </trkpt>
      <trkpt lat="45.63708" lon="5.65149">
        <ele>212</ele>
        <time>2017-04-24T15:56:46Z</time>
      </trkpt>
      <trkpt lat="45.63713" lon="5.65153">
        <ele>213</ele>
        <time>2017-04-24T15:56:46Z</time>
      </trkpt>
      <trkpt lat="45.63717" lon="5.65163">
        <ele>213</ele>
        <time>2017-04-24T15:56:46Z</time>
      </trkpt>
      <trkpt lat="45.63719" lon="5.65173">
        <ele>213</ele>
        <time>2017-04-24T15:57:02Z</time>
      </trkpt>
      <trkpt lat="45.63721" lon="5.65182">
        <ele>213</ele>
        <time>2017-04-24T15:57:02Z</time>
      </trkpt>
      <trkpt lat="45.63723" lon="5.65191">
        <ele>213</ele>
        <time>2017-04-24T15:57:02Z</time>
      </trkpt>
      <trkpt lat="45.63726" lon="5.65199">
        <ele>213</ele>
        <time>2017-04-24T15:57:02Z</time>
      </trkpt>
      <trkpt lat="45.63728" lon="5.65208">
        <ele>213</ele>
        <time>2017-04-24T15:57:18Z</time>
      </trkpt>
      <trkpt lat="45.63731" lon="5.65216">
        <ele>213</ele>
        <time>2017-04-24T15:57:18Z</time>
      </trkpt>
      <trkpt lat="45.63732" lon="5.65225">
        <ele>213</ele>
        <time>2017-04-24T15:57:18Z</time>
      </trkpt>
      <trkpt lat="45.63733" lon="5.65234">
        <ele>213</ele>
        <time>2017-04-24T15:57:18Z</time>
      </trkpt>
      <trkpt lat="45.63735" lon="5.65242">
        <ele>213</ele>
        <time>2017-04-24T15:57:34Z</time>
      </trkpt>
      <trkpt lat="45.63735" lon="5.6525">
        <ele>213</ele>
        <time>2017-04-24T15:57:34Z</time>
      </trkpt>
      <trkpt lat="45.63736" lon="5.65259">
        <ele>213</ele>
        <time>2017-04-24T15:57:34Z</time>
      </trkpt>
      <trkpt lat="45.63737" lon="5.65267">
        <ele>213</ele>
        <time>2017-04-24T15:57:34Z</time>
      </trkpt>
      <trkpt lat="45.63737" lon="5.65276">
        <ele>213</ele>
        <time>2017-04-24T15:57:50Z</time>
      </trkpt>
      <trkpt lat="45.63736" lon="5.65285">
        <ele>213</ele>
        <time>2017-04-24T15:57:50Z</time>
      </trkpt>
      <trkpt lat="45.63733" lon="5.65294">
        <ele>212</ele>
        <time>2017-04-24T15:57:50Z</time>
      </trkpt>
      <trkpt lat="45.6373" lon="5.65302">
        <ele>212</ele>
        <time>2017-04-24T15:57:50Z</time>
      </trkpt>
      <trkpt lat="45.63727" lon="5.65311">
        <ele>212</ele>
        <time>2017-04-24T15:58:06Z</time>
      </trkpt>
      <trkpt lat="45.63723" lon="5.6532">
        <ele>212</ele>
        <time>2017-04-24T15:58:06Z</time>
      </trkpt>
      <trkpt lat="45.63718" lon="5.65327">
        <ele>212</ele>
        <time>2017-04-24T15:58:06Z</time>
      </trkpt>
      <trkpt lat="45.63713" lon="5.65334">
        <ele>212</ele>
        <time>2017-04-24T15:58:06Z</time>
      </trkpt>
      <trkpt lat="45.63708" lon="5.65339">
        <ele>211</ele>
        <time>2017-04-24T15:58:22Z</time>
      </trkpt>
      <trkpt lat="45.63702" lon="5.65343">
        <ele>211</ele>
        <time>2017-04-24T15:58:22Z</time>
      </trkpt>
      <trkpt lat="45.63696" lon="5.65346">
        <ele>211</ele>
        <time>2017-04-24T15:58:22Z</time>
      </trkpt>
      <trkpt lat="45.6369" lon="5.65348">
        <ele>211</ele>
        <time>2017-04-24T15:58:22Z</time>
      </trkpt>
      <trkpt lat="45.63685" lon="5.65348">
        <ele>211</ele>
        <time>2017-04-24T15:58:38Z</time>
      </trkpt>
      <trkpt lat="45.63679" lon="5.65348">
        <ele>211</ele>
        <time>2017-04-24T15:58:38Z</time>
      </trkpt>
      <trkpt lat="45.63673" lon="5.65348">
        <ele>211</ele>
        <time>2017-04-24T15:58:38Z</time>
      </trkpt>
      <trkpt lat="45.63667" lon="5.6535">
        <ele>211</ele>
        <time>2017-04-24T15:58:38Z</time>
      </trkpt>
      <trkpt lat="45.63661" lon="5.65351">
        <ele>211</ele>
        <time>2017-04-24T15:58:54Z</time>
      </trkpt>
      <trkpt lat="45.63655" lon="5.65353">
        <ele>211</ele>
        <time>2017-04-24T15:58:54Z</time>
      </trkpt>
      <trkpt lat="45.63648" lon="5.65355">
        <ele>211</ele>
        <time>2017-04-24T15:58:54Z</time>
      </trkpt>
      <trkpt lat="45.63642" lon="5.65356">
        <ele>211</ele>
        <time>2017-04-24T15:58:54Z</time>
      </trkpt>
      <trkpt lat="45.63636" lon="5.65355">
        <ele>211</ele>
        <time>2017-04-24T15:59:10Z</time>
      </trkpt>
      <trkpt lat="45.63631" lon="5.65356">
        <ele>211</ele>
        <time>2017-04-24T15:59:10Z</time>
      </trkpt>
      <trkpt lat="45.63625" lon="5.65358">
        <ele>211</ele>
        <time>2017-04-24T15:59:10Z</time>
      </trkpt>
      <trkpt lat="45.63619" lon="5.65364">
        <ele>211</ele>
        <time>2017-04-24T15:59:10Z</time>
      </trkpt>
      <trkpt lat="45.63615" lon="5.65372">
        <ele>211</ele>
        <time>2017-04-24T15:59:26Z</time>
      </trkpt>
      <trkpt lat="45.6361" lon="5.65379">
        <ele>211</ele>
        <time>2017-04-24T15:59:26Z</time>
      </trkpt>
      <trkpt lat="45.63606" lon="5.65385">
        <ele>211</ele>
        <time>2017-04-24T15:59:26Z</time>
      </trkpt>
      <trkpt lat="45.63604" lon="5.65389">
        <ele>211</ele>
        <time>2017-04-24T15:59:26Z</time>
      </trkpt>
      <trkpt lat="45.63604" lon="5.65388">
        <ele>211</ele>
        <time>2017-04-24T15:59:42Z</time>
      </trkpt>
      <trkpt lat="45.63603" lon="5.65388">
        <ele>211</ele>
        <time>2017-04-24T15:59:42Z</time>
      </trkpt>
      <trkpt lat="45.63598" lon="5.65395">
        <ele>211</ele>
        <time>2017-04-24T15:59:42Z</time>
      </trkpt>
      <trkpt lat="45.63594" lon="5.654">
        <ele>211</ele>
        <time>2017-04-24T15:59:42Z</time>
      </trkpt>
      <trkpt lat="45.6359" lon="5.65407">
        <ele>211</ele>
        <time>2017-04-24T15:59:58Z</time>
      </trkpt>
      <trkpt lat="45.63586" lon="5.65414">
        <ele>211</ele>
        <time>2017-04-24T15:59:58Z</time>
      </trkpt>
      <trkpt lat="45.63583" lon="5.6542">
        <ele>211</ele>
        <time>2017-04-24T15:59:58Z</time>
      </trkpt>
      <trkpt lat="45.63579" lon="5.65426">
        <ele>211</ele>
        <time>2017-04-24T15:59:58Z</time>
      </trkpt>
      <trkpt lat="45.63574" lon="5.65432">
        <ele>211</ele>
        <time>2017-04-24T16:00:14Z</time>
      </trkpt>
      <trkpt lat="45.6357" lon="5.65438">
        <ele>211</ele>
        <time>2017-04-24T16:00:14Z</time>
      </trkpt>
      <trkpt lat="45.63566" lon="5.65444">
        <ele>211</ele>
        <time>2017-04-24T16:00:14Z</time>
      </trkpt>
      <trkpt lat="45.63561" lon="5.6545">
        <ele>211</ele>
        <time>2017-04-24T16:00:14Z</time>
      </trkpt>
      <trkpt lat="45.63557" lon="5.65456">
        <ele>211</ele>
        <time>2017-04-24T16:00:30Z</time>
      </trkpt>
      <trkpt lat="45.63553" lon="5.65463">
        <ele>211</ele>
        <time>2017-04-24T16:00:30Z</time>
      </trkpt>
      <trkpt lat="45.63549" lon="5.65467">
        <ele>211</ele>
        <time>2017-04-24T16:00:30Z</time>
      </trkpt>
      <trkpt lat="45.63545" lon="5.65473">
        <ele>211</ele>
        <time>2017-04-24T16:00:30Z</time>
      </trkpt>
      <trkpt lat="45.63542" lon="5.65479">
        <ele>211</ele>
        <time>2017-04-24T16:00:46Z</time>
      </trkpt>
      <trkpt lat="45.63541" lon="5.65487">
        <ele>211</ele>
        <time>2017-04-24T16:00:46Z</time>
      </trkpt>
      <trkpt lat="45.63542" lon="5.65491">
        <ele>211</ele>
        <time>2017-04-24T16:00:46Z</time>
      </trkpt>
      <trkpt lat="45.63545" lon="5.65493">
        <ele>211</ele>
        <time>2017-04-24T16:00:46Z</time>
      </trkpt>
      <trkpt lat="45.63545" lon="5.65492">
        <ele>211</ele>
        <time>2017-04-24T16:01:30Z</time>
      </trkpt>
      <trkpt lat="45.63545" lon="5.65494">
        <ele>211</ele>
        <time>2017-04-24T16:01:30Z</time>
      </trkpt>
      <trkpt lat="45.63547" lon="5.65497">
        <ele>211</ele>
        <time>2017-04-24T16:01:30Z</time>
      </trkpt>
      <trkpt lat="45.63546" lon="5.65502">
        <ele>211</ele>
        <time>2017-04-24T16:01:30Z</time>
      </trkpt>
      <trkpt lat="45.63545" lon="5.65509">
        <ele>211</ele>
        <time>2017-04-24T16:01:30Z</time>
      </trkpt>
      <trkpt lat="45.63541" lon="5.65515">
        <ele>211</ele>
        <time>2017-04-24T16:01:46Z</time>
      </trkpt>
      <trkpt lat="45.63535" lon="5.65523">
        <ele>211</ele>
        <time>2017-04-24T16:01:46Z</time>
      </trkpt>
      <trkpt lat="45.63529" lon="5.6553">
        <ele>211</ele>
        <time>2017-04-24T16:01:46Z</time>
      </trkpt>
      <trkpt lat="45.63524" lon="5.65537">
        <ele>211</ele>
        <time>2017-04-24T16:01:46Z</time>
      </trkpt>
      <trkpt lat="45.63518" lon="5.65539">
        <ele>211</ele>
        <time>2017-04-24T16:02:02Z</time>
      </trkpt>
      <trkpt lat="45.63514" lon="5.65546">
        <ele>211</ele>
        <time>2017-04-24T16:02:02Z</time>
      </trkpt>
      <trkpt lat="45.63509" lon="5.65552">
        <ele>211</ele>
        <time>2017-04-24T16:02:02Z</time>
      </trkpt>
      <trkpt lat="45.63503" lon="5.65554">
        <ele>211</ele>
        <time>2017-04-24T16:02:02Z</time>
      </trkpt>
      <trkpt lat="45.63498" lon="5.65559">
        <ele>211</ele>
        <time>2017-04-24T16:02:18Z</time>
      </trkpt>
      <trkpt lat="45.63493" lon="5.65562">
        <ele>211</ele>
        <time>2017-04-24T16:02:18Z</time>
      </trkpt>
      <trkpt lat="45.6349" lon="5.65567">
        <ele>211</ele>
        <time>2017-04-24T16:02:18Z</time>
      </trkpt>
      <trkpt lat="45.63487" lon="5.65573">
        <ele>211</ele>
        <time>2017-04-24T16:02:18Z</time>
      </trkpt>
      <trkpt lat="45.63483" lon="5.65581">
        <ele>211</ele>
        <time>2017-04-24T16:02:34Z</time>
      </trkpt>
      <trkpt lat="45.63481" lon="5.65587">
        <ele>211</ele>
        <time>2017-04-24T16:02:34Z</time>
      </trkpt>
      <trkpt lat="45.63479" lon="5.65595">
        <ele>211</ele>
        <time>2017-04-24T16:02:34Z</time>
      </trkpt>
      <trkpt lat="45.63479" lon="5.65604">
        <ele>211</ele>
        <time>2017-04-24T16:02:34Z</time>
      </trkpt>
      <trkpt lat="45.63481" lon="5.65612">
        <ele>211</ele>
        <time>2017-04-24T16:02:50Z</time>
      </trkpt>
      <trkpt lat="45.63485" lon="5.65619">
        <ele>211</ele>
        <time>2017-04-24T16:02:50Z</time>
      </trkpt>
      <trkpt lat="45.63488" lon="5.65624">
        <ele>211</ele>
        <time>2017-04-24T16:02:50Z</time>
      </trkpt>
      <trkpt lat="45.63493" lon="5.65627">
        <ele>211</ele>
        <time>2017-04-24T16:02:50Z</time>
      </trkpt>
      <trkpt lat="45.63499" lon="5.65629">
        <ele>211</ele>
        <time>2017-04-24T16:03:06Z</time>
      </trkpt>
      <trkpt lat="45.63504" lon="5.65632">
        <ele>211</ele>
        <time>2017-04-24T16:03:06Z</time>
      </trkpt>
      <trkpt lat="45.63509" lon="5.65635">
        <ele>211</ele>
        <time>2017-04-24T16:03:06Z</time>
      </trkpt>
      <trkpt lat="45.63515" lon="5.65638">
        <ele>211</ele>
        <time>2017-04-24T16:03:06Z</time>
      </trkpt>
      <trkpt lat="45.63521" lon="5.65642">
        <ele>211</ele>
        <time>2017-04-24T16:03:22Z</time>
      </trkpt>
      <trkpt lat="45.63526" lon="5.65645">
        <ele>211</ele>
        <time>2017-04-24T16:03:22Z</time>
      </trkpt>
      <trkpt lat="45.63531" lon="5.65647">
        <ele>211</ele>
        <time>2017-04-24T16:03:22Z</time>
      </trkpt>
      <trkpt lat="45.63544" lon="5.65657">
        <ele>211</ele>
        <time>2017-04-24T16:03:22Z</time>
      </trkpt>
      <trkpt lat="45.63563" lon="5.65672">
        <ele>211</ele>
        <time>2017-04-24T16:03:38Z</time>
      </trkpt>
      <trkpt lat="45.63581" lon="5.65693">
        <ele>211</ele>
        <time>2017-04-24T16:03:38Z</time>
      </trkpt>
      <trkpt lat="45.63594" lon="5.65711">
        <ele>211</ele>
        <time>2017-04-24T16:03:38Z</time>
      </trkpt>
      <trkpt lat="45.63604" lon="5.65727">
        <ele>211</ele>
        <time>2017-04-24T16:03:38Z</time>
      </trkpt>
      <trkpt lat="45.63607" lon="5.65736">
        <ele>211</ele>
        <time>2017-04-24T16:03:54Z</time>
      </trkpt>
      <trkpt lat="45.6361" lon="5.65744">
        <ele>211</ele>
        <time>2017-04-24T16:03:54Z</time>
      </trkpt>
      <trkpt lat="45.63615" lon="5.65751">
        <ele>211</ele>
        <time>2017-04-24T16:03:54Z</time>
      </trkpt>
      <trkpt lat="45.63618" lon="5.65758">
        <ele>211</ele>
        <time>2017-04-24T16:03:54Z</time>
      </trkpt>
      <trkpt lat="45.63621" lon="5.65765">
        <ele>211</ele>
        <time>2017-04-24T16:04:10Z</time>
      </trkpt>
      <trkpt lat="45.63625" lon="5.65772">
        <ele>211</ele>
        <time>2017-04-24T16:04:10Z</time>
      </trkpt>
      <trkpt lat="45.63629" lon="5.65779">
        <ele>211</ele>
        <time>2017-04-24T16:04:10Z</time>
      </trkpt>
      <trkpt lat="45.63632" lon="5.65787">
        <ele>211</ele>
        <time>2017-04-24T16:04:10Z</time>
      </trkpt>
      <trkpt lat="45.63635" lon="5.65795">
        <ele>211</ele>
        <time>2017-04-24T16:04:26Z</time>
      </trkpt>
      <trkpt lat="45.63639" lon="5.65802">
        <ele>211</ele>
        <time>2017-04-24T16:04:26Z</time>
      </trkpt>
      <trkpt lat="45.63643" lon="5.6581">
        <ele>211</ele>
        <time>2017-04-24T16:04:26Z</time>
      </trkpt>
      <trkpt lat="45.63647" lon="5.65816">
        <ele>211</ele>
        <time>2017-04-24T16:04:26Z</time>
      </trkpt>
      <trkpt lat="45.63651" lon="5.65823">
        <ele>211</ele>
        <time>2017-04-24T16:04:42Z</time>
      </trkpt>
      <trkpt lat="45.63655" lon="5.6583">
        <ele>211</ele>
        <time>2017-04-24T16:04:42Z</time>
      </trkpt>
      <trkpt lat="45.63657" lon="5.65837">
        <ele>211</ele>
        <time>2017-04-24T16:04:42Z</time>
      </trkpt>
      <trkpt lat="45.63662" lon="5.65845">
        <ele>211</ele>
        <time>2017-04-24T16:04:42Z</time>
      </trkpt>
      <trkpt lat="45.63665" lon="5.65853">
        <ele>211</ele>
        <time>2017-04-24T16:04:58Z</time>
      </trkpt>
      <trkpt lat="45.63665" lon="5.65862">
        <ele>211</ele>
        <time>2017-04-24T16:04:58Z</time>
      </trkpt>
      <trkpt lat="45.63667" lon="5.6587">
        <ele>211</ele>
        <time>2017-04-24T16:04:58Z</time>
      </trkpt>
      <trkpt lat="45.63669" lon="5.65878">
        <ele>211</ele>
        <time>2017-04-24T16:04:58Z</time>
      </trkpt>
      <trkpt lat="45.63671" lon="5.65887">
        <ele>211</ele>
        <time>2017-04-24T16:05:14Z</time>
      </trkpt>
      <trkpt lat="45.63672" lon="5.65896">
        <ele>211</ele>
        <time>2017-04-24T16:05:14Z</time>
      </trkpt>
      <trkpt lat="45.63676" lon="5.65905">
        <ele>211</ele>
        <time>2017-04-24T16:05:14Z</time>
      </trkpt>
      <trkpt lat="45.63677" lon="5.65914">
        <ele>211</ele>
        <time>2017-04-24T16:05:14Z</time>
      </trkpt>
      <trkpt lat="45.63679" lon="5.65923">
        <ele>211</ele>
        <time>2017-04-24T16:05:30Z</time>
      </trkpt>
      <trkpt lat="45.63681" lon="5.65933">
        <ele>211</ele>
        <time>2017-04-24T16:05:30Z</time>
      </trkpt>
      <trkpt lat="45.63683" lon="5.65941">
        <ele>211</ele>
        <time>2017-04-24T16:05:30Z</time>
      </trkpt>
      <trkpt lat="45.63685" lon="5.6595">
        <ele>211</ele>
        <time>2017-04-24T16:05:30Z</time>
      </trkpt>
      <trkpt lat="45.63686" lon="5.6596">
        <ele>211</ele>
        <time>2017-04-24T16:05:46Z</time>
      </trkpt>
      <trkpt lat="45.63688" lon="5.6597">
        <ele>211</ele>
        <time>2017-04-24T16:05:46Z</time>
      </trkpt>
      <trkpt lat="45.63689" lon="5.65979">
        <ele>211</ele>
        <time>2017-04-24T16:05:46Z</time>
      </trkpt>
      <trkpt lat="45.63688" lon="5.65987">
        <ele>211</ele>
        <time>2017-04-24T16:05:46Z</time>
      </trkpt>
      <trkpt lat="45.63689" lon="5.65996">
        <ele>211</ele>
        <time>2017-04-24T16:06:02Z</time>
      </trkpt>
      <trkpt lat="45.63689" lon="5.66004">
        <ele>211</ele>
        <time>2017-04-24T16:06:02Z</time>
      </trkpt>
      <trkpt lat="45.63689" lon="5.66013">
        <ele>211</ele>
        <time>2017-04-24T16:06:02Z</time>
      </trkpt>
      <trkpt lat="45.63689" lon="5.66023">
        <ele>211</ele>
        <time>2017-04-24T16:06:02Z</time>
      </trkpt>
      <trkpt lat="45.6369" lon="5.66032">
        <ele>211</ele>
        <time>2017-04-24T16:06:18Z</time>
      </trkpt>
      <trkpt lat="45.63691" lon="5.66042">
        <ele>211</ele>
        <time>2017-04-24T16:06:18Z</time>
      </trkpt>
      <trkpt lat="45.63692" lon="5.6605">
        <ele>211</ele>
        <time>2017-04-24T16:06:18Z</time>
      </trkpt>
      <trkpt lat="45.63692" lon="5.66059">
        <ele>211</ele>
        <time>2017-04-24T16:06:18Z</time>
      </trkpt>
      <trkpt lat="45.6369" lon="5.66068">
        <ele>211</ele>
        <time>2017-04-24T16:06:34Z</time>
      </trkpt>
      <trkpt lat="45.63687" lon="5.66077">
        <ele>211</ele>
        <time>2017-04-24T16:06:34Z</time>
      </trkpt>
      <trkpt lat="45.63687" lon="5.66087">
        <ele>211</ele>
        <time>2017-04-24T16:06:34Z</time>
      </trkpt>
      <trkpt lat="45.63688" lon="5.66094">
        <ele>211</ele>
        <time>2017-04-24T16:06:34Z</time>
      </trkpt>
      <trkpt lat="45.63688" lon="5.66102">
        <ele>211</ele>
        <time>2017-04-24T16:06:50Z</time>
      </trkpt>
      <trkpt lat="45.63688" lon="5.66111">
        <ele>211</ele>
        <time>2017-04-24T16:06:50Z</time>
      </trkpt>
      <trkpt lat="45.63688" lon="5.66119">
        <ele>211</ele>
        <time>2017-04-24T16:06:50Z</time>
      </trkpt>
      <trkpt lat="45.63687" lon="5.66127">
        <ele>211</ele>
        <time>2017-04-24T16:06:50Z</time>
      </trkpt>
      <trkpt lat="45.63688" lon="5.66136">
        <ele>211</ele>
        <time>2017-04-24T16:07:06Z</time>
      </trkpt>
      <trkpt lat="45.63688" lon="5.66144">
        <ele>211</ele>
        <time>2017-04-24T16:07:06Z</time>
      </trkpt>
      <trkpt lat="45.63687" lon="5.66154">
        <ele>211</ele>
        <time>2017-04-24T16:07:06Z</time>
      </trkpt>
      <trkpt lat="45.63687" lon="5.66163">
        <ele>211</ele>
        <time>2017-04-24T16:07:06Z</time>
      </trkpt>
      <trkpt lat="45.63687" lon="5.66172">
        <ele>211</ele>
        <time>2017-04-24T16:07:22Z</time>
      </trkpt>
      <trkpt lat="45.63686" lon="5.66181">
        <ele>211</ele>
        <time>2017-04-24T16:07:22Z</time>
      </trkpt>
      <trkpt lat="45.63685" lon="5.6619">
        <ele>211</ele>
        <time>2017-04-24T16:07:22Z</time>
      </trkpt>
      <trkpt lat="45.63686" lon="5.662">
        <ele>211</ele>
        <time>2017-04-24T16:07:22Z</time>
      </trkpt>
      <trkpt lat="45.63686" lon="5.6621">
        <ele>211</ele>
        <time>2017-04-24T16:07:38Z</time>
      </trkpt>
      <trkpt lat="45.63685" lon="5.66221">
        <ele>211</ele>
        <time>2017-04-24T16:07:38Z</time>
      </trkpt>
      <trkpt lat="45.63683" lon="5.6623">
        <ele>211</ele>
        <time>2017-04-24T16:07:38Z</time>
      </trkpt>
      <trkpt lat="45.63683" lon="5.6624">
        <ele>211</ele>
        <time>2017-04-24T16:07:38Z</time>
      </trkpt>
      <trkpt lat="45.63683" lon="5.66249">
        <ele>211</ele>
        <time>2017-04-24T16:07:54Z</time>
      </trkpt>
      <trkpt lat="45.63682" lon="5.66252">
        <ele>211</ele>
        <time>2017-04-24T16:07:54Z</time>
      </trkpt>
      <trkpt lat="45.63683" lon="5.66262">
        <ele>211</ele>
        <time>2017-04-24T16:07:54Z</time>
      </trkpt>
      <trkpt lat="45.63682" lon="5.66272">
        <ele>211</ele>
        <time>2017-04-24T16:07:54Z</time>
      </trkpt>
      <trkpt lat="45.63682" lon="5.66281">
        <ele>211</ele>
        <time>2017-04-24T16:08:10Z</time>
      </trkpt>
      <trkpt lat="45.63681" lon="5.66291">
        <ele>211</ele>
        <time>2017-04-24T16:08:10Z</time>
      </trkpt>
      <trkpt lat="45.63681" lon="5.66302">
        <ele>211</ele>
        <time>2017-04-24T16:08:10Z</time>
      </trkpt>
      <trkpt lat="45.63681" lon="5.66312">
        <ele>211</ele>
        <time>2017-04-24T16:08:10Z</time>
      </trkpt>
      <trkpt lat="45.63682" lon="5.66322">
        <ele>211</ele>
        <time>2017-04-24T16:08:26Z</time>
      </trkpt>
      <trkpt lat="45.63682" lon="5.66332">
        <ele>211</ele>
        <time>2017-04-24T16:08:26Z</time>
      </trkpt>
      <trkpt lat="45.63681" lon="5.6634">
        <ele>211</ele>
        <time>2017-04-24T16:08:26Z</time>
      </trkpt>
      <trkpt lat="45.63681" lon="5.6635">
        <ele>211</ele>
        <time>2017-04-24T16:08:26Z</time>
      </trkpt>
      <trkpt lat="45.63681" lon="5.6637">
        <ele>211</ele>
        <time>2017-04-24T16:08:42Z</time>
      </trkpt>
      <trkpt lat="45.6368" lon="5.66394">
        <ele>211</ele>
        <time>2017-04-24T16:08:42Z</time>
      </trkpt>
      <trkpt lat="45.63679" lon="5.66418">
        <ele>211</ele>
        <time>2017-04-24T16:08:42Z</time>
      </trkpt>
      <trkpt lat="45.63678" lon="5.66441">
        <ele>211</ele>
        <time>2017-04-24T16:08:42Z</time>
      </trkpt>
      <trkpt lat="45.63677" lon="5.66464">
        <ele>211</ele>
        <time>2017-04-24T16:08:58Z</time>
      </trkpt>
      <trkpt lat="45.63676" lon="5.66487">
        <ele>211</ele>
        <time>2017-04-24T16:08:58Z</time>
      </trkpt>
      <trkpt lat="45.63675" lon="5.6651">
        <ele>211</ele>
        <time>2017-04-24T16:08:58Z</time>
      </trkpt>
      <trkpt lat="45.63675" lon="5.66525">
        <ele>211</ele>
        <time>2017-04-24T16:08:58Z</time>
      </trkpt>
      <trkpt lat="45.63675" lon="5.66533">
        <ele>211</ele>
        <time>2017-04-24T16:09:14Z</time>
      </trkpt>
      <trkpt lat="45.63674" lon="5.66542">
        <ele>211</ele>
        <time>2017-04-24T16:09:14Z</time>
      </trkpt>
      <trkpt lat="45.63673" lon="5.66551">
        <ele>211</ele>
        <time>2017-04-24T16:09:14Z</time>
      </trkpt>
      <trkpt lat="45.63673" lon="5.66559">
        <ele>211</ele>
        <time>2017-04-24T16:09:14Z</time>
      </trkpt>
      <trkpt lat="45.63673" lon="5.66567">
        <ele>211</ele>
        <time>2017-04-24T16:09:30Z</time>
      </trkpt>
      <trkpt lat="45.63672" lon="5.66575">
        <ele>211</ele>
        <time>2017-04-24T16:09:30Z</time>
      </trkpt>
      <trkpt lat="45.63673" lon="5.66583">
        <ele>211</ele>
        <time>2017-04-24T16:09:30Z</time>
      </trkpt>
      <trkpt lat="45.63673" lon="5.66592">
        <ele>211</ele>
        <time>2017-04-24T16:09:30Z</time>
      </trkpt>
      <trkpt lat="45.63673" lon="5.66601">
        <ele>211</ele>
        <time>2017-04-24T16:09:46Z</time>
      </trkpt>
      <trkpt lat="45.63672" lon="5.6661">
        <ele>211</ele>
        <time>2017-04-24T16:09:46Z</time>
      </trkpt>
      <trkpt lat="45.63673" lon="5.66619">
        <ele>211</ele>
        <time>2017-04-24T16:09:46Z</time>
      </trkpt>
      <trkpt lat="45.63671" lon="5.66628">
        <ele>211</ele>
        <time>2017-04-24T16:09:46Z</time>
      </trkpt>
      <trkpt lat="45.63672" lon="5.66636">
        <ele>211</ele>
        <time>2017-04-24T16:10:02Z</time>
      </trkpt>
      <trkpt lat="45.63673" lon="5.66645">
        <ele>211</ele>
        <time>2017-04-24T16:10:02Z</time>
      </trkpt>
      <trkpt lat="45.63673" lon="5.66654">
        <ele>211</ele>
        <time>2017-04-24T16:10:02Z</time>
      </trkpt>
      <trkpt lat="45.63676" lon="5.66663">
        <ele>211</ele>
        <time>2017-04-24T16:10:02Z</time>
      </trkpt>
      <trkpt lat="45.63676" lon="5.66671">
        <ele>211</ele>
        <time>2017-04-24T16:10:18Z</time>
      </trkpt>
      <trkpt lat="45.63674" lon="5.66679">
        <ele>211</ele>
        <time>2017-04-24T16:10:18Z</time>
      </trkpt>
      <trkpt lat="45.63673" lon="5.66688">
        <ele>211</ele>
        <time>2017-04-24T16:10:18Z</time>
      </trkpt>
      <trkpt lat="45.63672" lon="5.66696">
        <ele>211</ele>
        <time>2017-04-24T16:10:18Z</time>
      </trkpt>
      <trkpt lat="45.6367" lon="5.66704">
        <ele>211</ele>
        <time>2017-04-24T16:10:34Z</time>
      </trkpt>
      <trkpt lat="45.63671" lon="5.66712">
        <ele>211</ele>
        <time>2017-04-24T16:10:34Z</time>
      </trkpt>
      <trkpt lat="45.63672" lon="5.6672">
        <ele>211</ele>
        <time>2017-04-24T16:10:34Z</time>
      </trkpt>
      <trkpt lat="45.63673" lon="5.66729">
        <ele>211</ele>
        <time>2017-04-24T16:10:34Z</time>
      </trkpt>
      <trkpt lat="45.63672" lon="5.66738">
        <ele>211</ele>
        <time>2017-04-24T16:10:50Z</time>
      </trkpt>
      <trkpt lat="45.63673" lon="5.66747">
        <ele>211</ele>
        <time>2017-04-24T16:10:50Z</time>
      </trkpt>
      <trkpt lat="45.63672" lon="5.66755">
        <ele>211</ele>
        <time>2017-04-24T16:10:50Z</time>
      </trkpt>
      <trkpt lat="45.63672" lon="5.66763">
        <ele>211</ele>
        <time>2017-04-24T16:10:50Z</time>
      </trkpt>
      <trkpt lat="45.63672" lon="5.66772">
        <ele>211</ele>
        <time>2017-04-24T16:11:06Z</time>
      </trkpt>
      <trkpt lat="45.63671" lon="5.6678">
        <ele>211</ele>
        <time>2017-04-24T16:11:06Z</time>
      </trkpt>
      <trkpt lat="45.63672" lon="5.66788">
        <ele>211</ele>
        <time>2017-04-24T16:11:06Z</time>
      </trkpt>
      <trkpt lat="45.63671" lon="5.66797">
        <ele>211</ele>
        <time>2017-04-24T16:11:06Z</time>
      </trkpt>
      <trkpt lat="45.63669" lon="5.66806">
        <ele>211</ele>
        <time>2017-04-24T16:11:22Z</time>
      </trkpt>
      <trkpt lat="45.63668" lon="5.66815">
        <ele>211</ele>
        <time>2017-04-24T16:11:22Z</time>
      </trkpt>
      <trkpt lat="45.63668" lon="5.66824">
        <ele>211</ele>
        <time>2017-04-24T16:11:22Z</time>
      </trkpt>
      <trkpt lat="45.63669" lon="5.66832">
        <ele>211</ele>
        <time>2017-04-24T16:11:22Z</time>
      </trkpt>
      <trkpt lat="45.63668" lon="5.66841">
        <ele>211</ele>
        <time>2017-04-24T16:11:38Z</time>
      </trkpt>
      <trkpt lat="45.63666" lon="5.6685">
        <ele>211</ele>
        <time>2017-04-24T16:11:38Z</time>
      </trkpt>
      <trkpt lat="45.63666" lon="5.66858">
        <ele>211</ele>
        <time>2017-04-24T16:11:38Z</time>
      </trkpt>
      <trkpt lat="45.63665" lon="5.66866">
        <ele>211</ele>
        <time>2017-04-24T16:11:38Z</time>
      </trkpt>
      <trkpt lat="45.63665" lon="5.66875">
        <ele>211</ele>
        <time>2017-04-24T16:11:54Z</time>
      </trkpt>
      <trkpt lat="45.63665" lon="5.66883">
        <ele>211</ele>
        <time>2017-04-24T16:11:54Z</time>
      </trkpt>
      <trkpt lat="45.63665" lon="5.66892">
        <ele>211</ele>
        <time>2017-04-24T16:11:54Z</time>
      </trkpt>
      <trkpt lat="45.63666" lon="5.66901">
        <ele>211</ele>
        <time>2017-04-24T16:11:54Z</time>
      </trkpt>
      <trkpt lat="45.63665" lon="5.6691">
        <ele>211</ele>
        <time>2017-04-24T16:12:10Z</time>
      </trkpt>
      <trkpt lat="45.63665" lon="5.66919">
        <ele>211</ele>
        <time>2017-04-24T16:12:10Z</time>
      </trkpt>
      <trkpt lat="45.63665" lon="5.66926">
        <ele>211</ele>
        <time>2017-04-24T16:12:10Z</time>
      </trkpt>
      <trkpt lat="45.63664" lon="5.66935">
        <ele>211</ele>
        <time>2017-04-24T16:12:10Z</time>
      </trkpt>
      <trkpt lat="45.63664" lon="5.66943">
        <ele>211</ele>
        <time>2017-04-24T16:12:26Z</time>
      </trkpt>
      <trkpt lat="45.63664" lon="5.66952">
        <ele>211</ele>
        <time>2017-04-24T16:12:26Z</time>
      </trkpt>
      <trkpt lat="45.63663" lon="5.6696">
        <ele>211</ele>
        <time>2017-04-24T16:12:26Z</time>
      </trkpt>
      <trkpt lat="45.63663" lon="5.66969">
        <ele>211</ele>
        <time>2017-04-24T16:12:26Z</time>
      </trkpt>
      <trkpt lat="45.63662" lon="5.66977">
        <ele>211</ele>
        <time>2017-04-24T16:12:42Z</time>
      </trkpt>
      <trkpt lat="45.63662" lon="5.66985">
        <ele>211</ele>
        <time>2017-04-24T16:12:42Z</time>
      </trkpt>
      <trkpt lat="45.63662" lon="5.66994">
        <ele>211</ele>
        <time>2017-04-24T16:12:42Z</time>
      </trkpt>
      <trkpt lat="45.63662" lon="5.67003">
        <ele>211</ele>
        <time>2017-04-24T16:12:42Z</time>
      </trkpt>
      <trkpt lat="45.63662" lon="5.67012">
        <ele>211</ele>
        <time>2017-04-24T16:12:58Z</time>
      </trkpt>
      <trkpt lat="45.63662" lon="5.6702">
        <ele>211</ele>
        <time>2017-04-24T16:12:58Z</time>
      </trkpt>
      <trkpt lat="45.63662" lon="5.67029">
        <ele>211</ele>
        <time>2017-04-24T16:12:58Z</time>
      </trkpt>
      <trkpt lat="45.63661" lon="5.67037">
        <ele>211</ele>
        <time>2017-04-24T16:12:58Z</time>
      </trkpt>
      <trkpt lat="45.63661" lon="5.67046">
        <ele>211</ele>
        <time>2017-04-24T16:13:14Z</time>
      </trkpt>
      <trkpt lat="45.63661" lon="5.67054">
        <ele>211</ele>
        <time>2017-04-24T16:13:14Z</time>
      </trkpt>
      <trkpt lat="45.63661" lon="5.67063">
        <ele>211</ele>
        <time>2017-04-24T16:13:14Z</time>
      </trkpt>
      <trkpt lat="45.63661" lon="5.67071">
        <ele>211</ele>
        <time>2017-04-24T16:13:14Z</time>
      </trkpt>
      <trkpt lat="45.63661" lon="5.6708">
        <ele>211</ele>
        <time>2017-04-24T16:13:30Z</time>
      </trkpt>
      <trkpt lat="45.63661" lon="5.67088">
        <ele>211</ele>
        <time>2017-04-24T16:13:30Z</time>
      </trkpt>
      <trkpt lat="45.63662" lon="5.67096">
        <ele>211</ele>
        <time>2017-04-24T16:13:30Z</time>
      </trkpt>
      <trkpt lat="45.63664" lon="5.67104">
        <ele>211</ele>
        <time>2017-04-24T16:13:30Z</time>
      </trkpt>
      <trkpt lat="45.63664" lon="5.67112">
        <ele>211</ele>
        <time>2017-04-24T16:13:46Z</time>
      </trkpt>
      <trkpt lat="45.63663" lon="5.67119">
        <ele>211</ele>
        <time>2017-04-24T16:13:46Z</time>
      </trkpt>
      <trkpt lat="45.63664" lon="5.67127">
        <ele>211</ele>
        <time>2017-04-24T16:13:46Z</time>
      </trkpt>
      <trkpt lat="45.63665" lon="5.67134">
        <ele>211</ele>
        <time>2017-04-24T16:13:46Z</time>
      </trkpt>
      <trkpt lat="45.63665" lon="5.67142">
        <ele>211</ele>
        <time>2017-04-24T16:14:02Z</time>
      </trkpt>
      <trkpt lat="45.63665" lon="5.67151">
        <ele>211</ele>
        <time>2017-04-24T16:14:02Z</time>
      </trkpt>
      <trkpt lat="45.63664" lon="5.67159">
        <ele>211</ele>
        <time>2017-04-24T16:14:02Z</time>
      </trkpt>
      <trkpt lat="45.63665" lon="5.67167">
        <ele>211</ele>
        <time>2017-04-24T16:14:02Z</time>
      </trkpt>
      <trkpt lat="45.63664" lon="5.67175">
        <ele>211</ele>
        <time>2017-04-24T16:14:18Z</time>
      </trkpt>
      <trkpt lat="45.63662" lon="5.67183">
        <ele>211</ele>
        <time>2017-04-24T16:14:18Z</time>
      </trkpt>
      <trkpt lat="45.63663" lon="5.67191">
        <ele>211</ele>
        <time>2017-04-24T16:14:18Z</time>
      </trkpt>
      <trkpt lat="45.63664" lon="5.672">
        <ele>211</ele>
        <time>2017-04-24T16:14:18Z</time>
      </trkpt>
      <trkpt lat="45.63663" lon="5.67208">
        <ele>211</ele>
        <time>2017-04-24T16:14:34Z</time>
      </trkpt>
      <trkpt lat="45.63663" lon="5.67217">
        <ele>211</ele>
        <time>2017-04-24T16:14:34Z</time>
      </trkpt>
      <trkpt lat="45.63661" lon="5.67225">
        <ele>211</ele>
        <time>2017-04-24T16:14:34Z</time>
      </trkpt>
      <trkpt lat="45.63661" lon="5.67234">
        <ele>211</ele>
        <time>2017-04-24T16:14:34Z</time>
      </trkpt>
      <trkpt lat="45.63661" lon="5.67243">
        <ele>211</ele>
        <time>2017-04-24T16:14:50Z</time>
      </trkpt>
      <trkpt lat="45.63661" lon="5.67252">
        <ele>211</ele>
        <time>2017-04-24T16:14:50Z</time>
      </trkpt>
      <trkpt lat="45.63661" lon="5.6726">
        <ele>211</ele>
        <time>2017-04-24T16:14:50Z</time>
      </trkpt>
      <trkpt lat="45.6366" lon="5.6727">
        <ele>211</ele>
        <time>2017-04-24T16:14:50Z</time>
      </trkpt>
      <trkpt lat="45.63659" lon="5.67279">
        <ele>211</ele>
        <time>2017-04-24T16:15:06Z</time>
      </trkpt>
      <trkpt lat="45.63656" lon="5.67287">
        <ele>211</ele>
        <time>2017-04-24T16:15:06Z</time>
      </trkpt>
      <trkpt lat="45.63653" lon="5.67296">
        <ele>211</ele>
        <time>2017-04-24T16:15:06Z</time>
      </trkpt>
      <trkpt lat="45.63652" lon="5.67306">
        <ele>211</ele>
        <time>2017-04-24T16:15:06Z</time>
      </trkpt>
      <trkpt lat="45.63652" lon="5.67315">
        <ele>211</ele>
        <time>2017-04-24T16:15:22Z</time>
      </trkpt>
      <trkpt lat="45.63653" lon="5.67323">
        <ele>211</ele>
        <time>2017-04-24T16:15:22Z</time>
      </trkpt>
      <trkpt lat="45.63653" lon="5.67332">
        <ele>211</ele>
        <time>2017-04-24T16:15:22Z</time>
      </trkpt>
      <trkpt lat="45.63654" lon="5.67341">
        <ele>211</ele>
        <time>2017-04-24T16:15:22Z</time>
      </trkpt>
      <trkpt lat="45.63654" lon="5.6735">
        <ele>211</ele>
        <time>2017-04-24T16:15:38Z</time>
      </trkpt>
      <trkpt lat="45.63654" lon="5.67359">
        <ele>211</ele>
        <time>2017-04-24T16:15:38Z</time>
      </trkpt>
      <trkpt lat="45.63653" lon="5.67368">
        <ele>211</ele>
        <time>2017-04-24T16:15:38Z</time>
      </trkpt>
      <trkpt lat="45.63653" lon="5.67377">
        <ele>211</ele>
        <time>2017-04-24T16:15:38Z</time>
      </trkpt>
      <trkpt lat="45.63653" lon="5.67385">
        <ele>211</ele>
        <time>2017-04-24T16:15:54Z</time>
      </trkpt>
      <trkpt lat="45.63653" lon="5.67394">
        <ele>211</ele>
        <time>2017-04-24T16:15:54Z</time>
      </trkpt>
      <trkpt lat="45.63654" lon="5.67403">
        <ele>211</ele>
        <time>2017-04-24T16:15:54Z</time>
      </trkpt>
      <trkpt lat="45.63654" lon="5.67411">
        <ele>211</ele>
        <time>2017-04-24T16:15:54Z</time>
      </trkpt>
      <trkpt lat="45.63654" lon="5.6742">
        <ele>211</ele>
        <time>2017-04-24T16:16:10Z</time>
      </trkpt>
      <trkpt lat="45.63655" lon="5.67429">
        <ele>211</ele>
        <time>2017-04-24T16:16:10Z</time>
      </trkpt>
      <trkpt lat="45.63655" lon="5.67436">
        <ele>211</ele>
        <time>2017-04-24T16:16:10Z</time>
      </trkpt>
      <trkpt lat="45.63656" lon="5.67444">
        <ele>211</ele>
        <time>2017-04-24T16:16:10Z</time>
      </trkpt>
      <trkpt lat="45.63655" lon="5.67452">
        <ele>211</ele>
        <time>2017-04-24T16:16:26Z</time>
      </trkpt>
      <trkpt lat="45.63655" lon="5.6746">
        <ele>211</ele>
        <time>2017-04-24T16:16:26Z</time>
      </trkpt>
      <trkpt lat="45.63655" lon="5.67469">
        <ele>211</ele>
        <time>2017-04-24T16:16:26Z</time>
      </trkpt>
      <trkpt lat="45.63654" lon="5.67477">
        <ele>211</ele>
        <time>2017-04-24T16:16:26Z</time>
      </trkpt>
      <trkpt lat="45.63653" lon="5.67485">
        <ele>211</ele>
        <time>2017-04-24T16:16:42Z</time>
      </trkpt>
      <trkpt lat="45.63654" lon="5.67493">
        <ele>211</ele>
        <time>2017-04-24T16:16:42Z</time>
      </trkpt>
      <trkpt lat="45.63653" lon="5.67502">
        <ele>211</ele>
        <time>2017-04-24T16:16:42Z</time>
      </trkpt>
      <trkpt lat="45.63653" lon="5.67511">
        <ele>211</ele>
        <time>2017-04-24T16:16:42Z</time>
      </trkpt>
      <trkpt lat="45.63652" lon="5.67519">
        <ele>211</ele>
        <time>2017-04-24T16:16:58Z</time>
      </trkpt>
      <trkpt lat="45.63652" lon="5.67527">
        <ele>211</ele>
        <time>2017-04-24T16:16:58Z</time>
      </trkpt>
      <trkpt lat="45.63652" lon="5.67535">
        <ele>211</ele>
        <time>2017-04-24T16:16:58Z</time>
      </trkpt>
      <trkpt lat="45.63651" lon="5.67544">
        <ele>211</ele>
        <time>2017-04-24T16:16:58Z</time>
      </trkpt>
      <trkpt lat="45.63652" lon="5.67552">
        <ele>211</ele>
        <time>2017-04-24T16:17:14Z</time>
      </trkpt>
      <trkpt lat="45.63652" lon="5.67561">
        <ele>211</ele>
        <time>2017-04-24T16:17:14Z</time>
      </trkpt>
      <trkpt lat="45.63653" lon="5.67569">
        <ele>211</ele>
        <time>2017-04-24T16:17:14Z</time>
      </trkpt>
      <trkpt lat="45.63655" lon="5.67577">
        <ele>211</ele>
        <time>2017-04-24T16:17:14Z</time>
      </trkpt>
      <trkpt lat="45.63656" lon="5.67584">
        <ele>211</ele>
        <time>2017-04-24T16:17:30Z</time>
      </trkpt>
      <trkpt lat="45.63656" lon="5.67588">
        <ele>211</ele>
        <time>2017-04-24T16:17:30Z</time>
      </trkpt>
      <trkpt lat="45.63657" lon="5.67598">
        <ele>211</ele>
        <time>2017-04-24T16:17:30Z</time>
      </trkpt>
      <trkpt lat="45.63657" lon="5.67609">
        <ele>211</ele>
        <time>2017-04-24T16:17:30Z</time>
      </trkpt>
      <trkpt lat="45.63656" lon="5.67618">
        <ele>211</ele>
        <time>2017-04-24T16:17:46Z</time>
      </trkpt>
      <trkpt lat="45.63658" lon="5.67628">
        <ele>212</ele>
        <time>2017-04-24T16:17:46Z</time>
      </trkpt>
      <trkpt lat="45.63659" lon="5.67637">
        <ele>212</ele>
        <time>2017-04-24T16:17:46Z</time>
      </trkpt>
      <trkpt lat="45.63661" lon="5.67645">
        <ele>212</ele>
        <time>2017-04-24T16:17:46Z</time>
      </trkpt>
      <trkpt lat="45.63663" lon="5.67651">
        <ele>212</ele>
        <time>2017-04-24T16:18:02Z</time>
      </trkpt>
      <trkpt lat="45.63667" lon="5.67656">
        <ele>212</ele>
        <time>2017-04-24T16:18:02Z</time>
      </trkpt>
      <trkpt lat="45.63671" lon="5.67659">
        <ele>212</ele>
        <time>2017-04-24T16:18:02Z</time>
      </trkpt>
      <trkpt lat="45.63677" lon="5.6766">
        <ele>212</ele>
        <time>2017-04-24T16:18:02Z</time>
      </trkpt>
      <trkpt lat="45.63683" lon="5.67662">
        <ele>212</ele>
        <time>2017-04-24T16:18:18Z</time>
      </trkpt>
      <trkpt lat="45.6369" lon="5.67668">
        <ele>212</ele>
        <time>2017-04-24T16:18:18Z</time>
      </trkpt>
      <trkpt lat="45.63694" lon="5.67674">
        <ele>212</ele>
        <time>2017-04-24T16:18:18Z</time>
      </trkpt>
      <trkpt lat="45.63697" lon="5.67681">
        <ele>212</ele>
        <time>2017-04-24T16:18:18Z</time>
      </trkpt>
      <trkpt lat="45.63701" lon="5.67686">
        <ele>212</ele>
        <time>2017-04-24T16:18:34Z</time>
      </trkpt>
      <trkpt lat="45.63705" lon="5.6769">
        <ele>212</ele>
        <time>2017-04-24T16:18:34Z</time>
      </trkpt>
      <trkpt lat="45.63709" lon="5.67697">
        <ele>212</ele>
        <time>2017-04-24T16:18:34Z</time>
      </trkpt>
      <trkpt lat="45.63712" lon="5.67704">
        <ele>212</ele>
        <time>2017-04-24T16:18:34Z</time>
      </trkpt>
      <trkpt lat="45.63714" lon="5.67712">
        <ele>212</ele>
        <time>2017-04-24T16:18:50Z</time>
      </trkpt>
      <trkpt lat="45.63715" lon="5.6772">
        <ele>212</ele>
        <time>2017-04-24T16:18:50Z</time>
      </trkpt>
      <trkpt lat="45.63716" lon="5.67728">
        <ele>212</ele>
        <time>2017-04-24T16:18:50Z</time>
      </trkpt>
      <trkpt lat="45.63717" lon="5.67736">
        <ele>212</ele>
        <time>2017-04-24T16:18:50Z</time>
      </trkpt>
      <trkpt lat="45.63719" lon="5.67745">
        <ele>212</ele>
        <time>2017-04-24T16:19:06Z</time>
      </trkpt>
      <trkpt lat="45.63722" lon="5.67751">
        <ele>212</ele>
        <time>2017-04-24T16:19:06Z</time>
      </trkpt>
      <trkpt lat="45.63724" lon="5.67759">
        <ele>212</ele>
        <time>2017-04-24T16:19:06Z</time>
      </trkpt>
      <trkpt lat="45.63726" lon="5.67768">
        <ele>212</ele>
        <time>2017-04-24T16:19:06Z</time>
      </trkpt>
      <trkpt lat="45.63727" lon="5.67777">
        <ele>212</ele>
        <time>2017-04-24T16:19:22Z</time>
      </trkpt>
      <trkpt lat="45.63728" lon="5.67784">
        <ele>212</ele>
        <time>2017-04-24T16:19:22Z</time>
      </trkpt>
      <trkpt lat="45.63729" lon="5.67792">
        <ele>212</ele>
        <time>2017-04-24T16:19:22Z</time>
      </trkpt>
      <trkpt lat="45.63732" lon="5.678">
        <ele>212</ele>
        <time>2017-04-24T16:19:22Z</time>
      </trkpt>
      <trkpt lat="45.63736" lon="5.67808">
        <ele>212</ele>
        <time>2017-04-24T16:19:38Z</time>
      </trkpt>
      <trkpt lat="45.63739" lon="5.67816">
        <ele>212</ele>
        <time>2017-04-24T16:19:38Z</time>
      </trkpt>
      <trkpt lat="45.63742" lon="5.67823">
        <ele>212</ele>
        <time>2017-04-24T16:19:38Z</time>
      </trkpt>
      <trkpt lat="45.63744" lon="5.6783">
        <ele>212</ele>
        <time>2017-04-24T16:19:38Z</time>
      </trkpt>
      <trkpt lat="45.63746" lon="5.67838">
        <ele>212</ele>
        <time>2017-04-24T16:19:54Z</time>
      </trkpt>
      <trkpt lat="45.63749" lon="5.67846">
        <ele>212</ele>
        <time>2017-04-24T16:19:54Z</time>
      </trkpt>
      <trkpt lat="45.63751" lon="5.67854">
        <ele>212</ele>
        <time>2017-04-24T16:19:54Z</time>
      </trkpt>
      <trkpt lat="45.63753" lon="5.67863">
        <ele>212</ele>
        <time>2017-04-24T16:19:54Z</time>
      </trkpt>
      <trkpt lat="45.63756" lon="5.67871">
        <ele>212</ele>
        <time>2017-04-24T16:20:10Z</time>
      </trkpt>
      <trkpt lat="45.63758" lon="5.67879">
        <ele>212</ele>
        <time>2017-04-24T16:20:10Z</time>
      </trkpt>
      <trkpt lat="45.63762" lon="5.67885">
        <ele>212</ele>
        <time>2017-04-24T16:20:10Z</time>
      </trkpt>
      <trkpt lat="45.63766" lon="5.67893">
        <ele>212</ele>
        <time>2017-04-24T16:20:10Z</time>
      </trkpt>
      <trkpt lat="45.63771" lon="5.679">
        <ele>212</ele>
        <time>2017-04-24T16:20:26Z</time>
      </trkpt>
      <trkpt lat="45.63775" lon="5.67907">
        <ele>212</ele>
        <time>2017-04-24T16:20:26Z</time>
      </trkpt>
      <trkpt lat="45.63776" lon="5.67915">
        <ele>212</ele>
        <time>2017-04-24T16:20:26Z</time>
      </trkpt>
      <trkpt lat="45.63777" lon="5.67924">
        <ele>212</ele>
        <time>2017-04-24T16:20:26Z</time>
      </trkpt>
      <trkpt lat="45.63778" lon="5.67933">
        <ele>212</ele>
        <time>2017-04-24T16:20:42Z</time>
      </trkpt>
      <trkpt lat="45.6378" lon="5.67942">
        <ele>212</ele>
        <time>2017-04-24T16:20:42Z</time>
      </trkpt>
      <trkpt lat="45.63781" lon="5.6795">
        <ele>212</ele>
        <time>2017-04-24T16:20:42Z</time>
      </trkpt>
      <trkpt lat="45.63782" lon="5.67957">
        <ele>212</ele>
        <time>2017-04-24T16:20:42Z</time>
      </trkpt>
      <trkpt lat="45.63785" lon="5.67965">
        <ele>212</ele>
        <time>2017-04-24T16:20:58Z</time>
      </trkpt>
      <trkpt lat="45.63788" lon="5.67973">
        <ele>212</ele>
        <time>2017-04-24T16:20:58Z</time>
      </trkpt>
      <trkpt lat="45.63788" lon="5.67981">
        <ele>212</ele>
        <time>2017-04-24T16:20:58Z</time>
      </trkpt>
      <trkpt lat="45.63789" lon="5.67989">
        <ele>212</ele>
        <time>2017-04-24T16:20:58Z</time>
      </trkpt>
      <trkpt lat="45.63791" lon="5.67997">
        <ele>212</ele>
        <time>2017-04-24T16:21:14Z</time>
      </trkpt>
      <trkpt lat="45.63793" lon="5.68006">
        <ele>212</ele>
        <time>2017-04-24T16:21:14Z</time>
      </trkpt>
      <trkpt lat="45.63794" lon="5.68014">
        <ele>212</ele>
        <time>2017-04-24T16:21:14Z</time>
      </trkpt>
      <trkpt lat="45.63797" lon="5.68022">
        <ele>212</ele>
        <time>2017-04-24T16:21:14Z</time>
      </trkpt>
      <trkpt lat="45.63799" lon="5.68029">
        <ele>212</ele>
        <time>2017-04-24T16:21:30Z</time>
      </trkpt>
      <trkpt lat="45.63802" lon="5.68037">
        <ele>212</ele>
        <time>2017-04-24T16:21:30Z</time>
      </trkpt>
      <trkpt lat="45.63804" lon="5.68044">
        <ele>212</ele>
        <time>2017-04-24T16:21:30Z</time>
      </trkpt>
      <trkpt lat="45.63805" lon="5.68052">
        <ele>212</ele>
        <time>2017-04-24T16:21:30Z</time>
      </trkpt>
      <trkpt lat="45.63807" lon="5.68059">
        <ele>212</ele>
        <time>2017-04-24T16:21:46Z</time>
      </trkpt>
      <trkpt lat="45.6381" lon="5.68065">
        <ele>212</ele>
        <time>2017-04-24T16:21:46Z</time>
      </trkpt>
      <trkpt lat="45.63812" lon="5.68072">
        <ele>212</ele>
        <time>2017-04-24T16:21:46Z</time>
      </trkpt>
      <trkpt lat="45.63811" lon="5.6808">
        <ele>212</ele>
        <time>2017-04-24T16:21:46Z</time>
      </trkpt>
      <trkpt lat="45.6381" lon="5.68088">
        <ele>212</ele>
        <time>2017-04-24T16:22:02Z</time>
      </trkpt>
      <trkpt lat="45.63811" lon="5.68096">
        <ele>212</ele>
        <time>2017-04-24T16:22:02Z</time>
      </trkpt>
      <trkpt lat="45.63811" lon="5.68103">
        <ele>212</ele>
        <time>2017-04-24T16:22:02Z</time>
      </trkpt>
      <trkpt lat="45.6381" lon="5.68114">
        <ele>212</ele>
        <time>2017-04-24T16:22:02Z</time>
      </trkpt>
      <trkpt lat="45.63811" lon="5.68124">
        <ele>212</ele>
        <time>2017-04-24T16:22:18Z</time>
      </trkpt>
      <trkpt lat="45.63815" lon="5.68147">
        <ele>212</ele>
        <time>2017-04-24T16:22:18Z</time>
      </trkpt>
      <trkpt lat="45.63817" lon="5.68178">
        <ele>212</ele>
        <time>2017-04-24T16:22:18Z</time>
      </trkpt>
      <trkpt lat="45.6382" lon="5.68208">
        <ele>212</ele>
        <time>2017-04-24T16:22:18Z</time>
      </trkpt>
      <trkpt lat="45.6382" lon="5.68241">
        <ele>213</ele>
        <time>2017-04-24T16:22:34Z</time>
      </trkpt>
      <trkpt lat="45.6382" lon="5.68267">
        <ele>213</ele>
        <time>2017-04-24T16:22:34Z</time>
      </trkpt>
      <trkpt lat="45.63823" lon="5.68282">
        <ele>213</ele>
        <time>2017-04-24T16:22:34Z</time>
      </trkpt>
      <trkpt lat="45.6382" lon="5.68291">
        <ele>213</ele>
        <time>2017-04-24T16:22:34Z</time>
      </trkpt>
      <trkpt lat="45.63822" lon="5.683">
        <ele>213</ele>
        <time>2017-04-24T16:22:50Z</time>
      </trkpt>
      <trkpt lat="45.63823" lon="5.68309">
        <ele>213</ele>
        <time>2017-04-24T16:22:50Z</time>
      </trkpt>
      <trkpt lat="45.63825" lon="5.68318">
        <ele>213</ele>
        <time>2017-04-24T16:22:50Z</time>
      </trkpt>
      <trkpt lat="45.63828" lon="5.68327">
        <ele>213</ele>
        <time>2017-04-24T16:22:50Z</time>
      </trkpt>
      <trkpt lat="45.63828" lon="5.68336">
        <ele>213</ele>
        <time>2017-04-24T16:23:06Z</time>
      </trkpt>
      <trkpt lat="45.63827" lon="5.68345">
        <ele>213</ele>
        <time>2017-04-24T16:23:06Z</time>
      </trkpt>
      <trkpt lat="45.63827" lon="5.68354">
        <ele>213</ele>
        <time>2017-04-24T16:23:06Z</time>
      </trkpt>
      <trkpt lat="45.63828" lon="5.68363">
        <ele>213</ele>
        <time>2017-04-24T16:23:06Z</time>
      </trkpt>
      <trkpt lat="45.6383" lon="5.68373">
        <ele>213</ele>
        <time>2017-04-24T16:23:22Z</time>
      </trkpt>
      <trkpt lat="45.6383" lon="5.68383">
        <ele>215</ele>
        <time>2017-04-24T16:23:22Z</time>
      </trkpt>
      <trkpt lat="45.6383" lon="5.68393">
        <ele>215</ele>
        <time>2017-04-24T16:23:22Z</time>
      </trkpt>
      <trkpt lat="45.63829" lon="5.68404">
        <ele>215</ele>
        <time>2017-04-24T16:23:22Z</time>
      </trkpt>
      <trkpt lat="45.63831" lon="5.68413">
        <ele>215</ele>
        <time>2017-04-24T16:23:38Z</time>
      </trkpt>
      <trkpt lat="45.63834" lon="5.68422">
        <ele>215</ele>
        <time>2017-04-24T16:23:38Z</time>
      </trkpt>
      <trkpt lat="45.63833" lon="5.68431">
        <ele>215</ele>
        <time>2017-04-24T16:23:38Z</time>
      </trkpt>
      <trkpt lat="45.63833" lon="5.6844">
        <ele>215</ele>
        <time>2017-04-24T16:23:38Z</time>
      </trkpt>
      <trkpt lat="45.63836" lon="5.68449">
        <ele>215</ele>
        <time>2017-04-24T16:23:54Z</time>
      </trkpt>
      <trkpt lat="45.63836" lon="5.68458">
        <ele>215</ele>
        <time>2017-04-24T16:23:54Z</time>
      </trkpt>
      <trkpt lat="45.63836" lon="5.68466">
        <ele>216</ele>
        <time>2017-04-24T16:23:54Z</time>
      </trkpt>
      <trkpt lat="45.63836" lon="5.68475">
        <ele>216</ele>
        <time>2017-04-24T16:23:54Z</time>
      </trkpt>
      <trkpt lat="45.63837" lon="5.68484">
        <ele>216</ele>
        <time>2017-04-24T16:24:10Z</time>
      </trkpt>
      <trkpt lat="45.63838" lon="5.68492">
        <ele>216</ele>
        <time>2017-04-24T16:24:10Z</time>
      </trkpt>
      <trkpt lat="45.63838" lon="5.685">
        <ele>216</ele>
        <time>2017-04-24T16:24:10Z</time>
      </trkpt>
      <trkpt lat="45.63839" lon="5.68508">
        <ele>216</ele>
        <time>2017-04-24T16:24:10Z</time>
      </trkpt>
      <trkpt lat="45.63841" lon="5.68517">
        <ele>216</ele>
        <time>2017-04-24T16:24:26Z</time>
      </trkpt>
      <trkpt lat="45.63844" lon="5.68525">
        <ele>216</ele>
        <time>2017-04-24T16:24:26Z</time>
      </trkpt>
      <trkpt lat="45.63846" lon="5.68533">
        <ele>216</ele>
        <time>2017-04-24T16:24:26Z</time>
      </trkpt>
      <trkpt lat="45.63849" lon="5.68541">
        <ele>216</ele>
        <time>2017-04-24T16:24:26Z</time>
      </trkpt>
      <trkpt lat="45.63852" lon="5.68548">
        <ele>217</ele>
        <time>2017-04-24T16:24:42Z</time>
      </trkpt>
      <trkpt lat="45.63855" lon="5.68557">
        <ele>217</ele>
        <time>2017-04-24T16:24:42Z</time>
      </trkpt>
      <trkpt lat="45.63857" lon="5.68564">
        <ele>217</ele>
        <time>2017-04-24T16:24:42Z</time>
      </trkpt>
      <trkpt lat="45.6386" lon="5.68572">
        <ele>217</ele>
        <time>2017-04-24T16:24:42Z</time>
      </trkpt>
      <trkpt lat="45.63862" lon="5.68579">
        <ele>217</ele>
        <time>2017-04-24T16:24:58Z</time>
      </trkpt>
      <trkpt lat="45.63865" lon="5.68586">
        <ele>217</ele>
        <time>2017-04-24T16:24:58Z</time>
      </trkpt>
      <trkpt lat="45.63867" lon="5.68594">
        <ele>217</ele>
        <time>2017-04-24T16:24:58Z</time>
      </trkpt>
      <trkpt lat="45.6387" lon="5.68601">
        <ele>217</ele>
        <time>2017-04-24T16:24:58Z</time>
      </trkpt>
      <trkpt lat="45.63873" lon="5.68608">
        <ele>217</ele>
        <time>2017-04-24T16:25:14Z</time>
      </trkpt>
      <trkpt lat="45.63877" lon="5.68615">
        <ele>214</ele>
        <time>2017-04-24T16:25:14Z</time>
      </trkpt>
      <trkpt lat="45.63881" lon="5.68621">
        <ele>214</ele>
        <time>2017-04-24T16:25:14Z</time>
      </trkpt>
      <trkpt lat="45.63884" lon="5.68628">
        <ele>215</ele>
        <time>2017-04-24T16:25:14Z</time>
      </trkpt>
      <trkpt lat="45.63888" lon="5.68635">
        <ele>215</ele>
        <time>2017-04-24T16:25:30Z</time>
      </trkpt>
      <trkpt lat="45.6389" lon="5.68642">
        <ele>215</ele>
        <time>2017-04-24T16:25:30Z</time>
      </trkpt>
      <trkpt lat="45.63893" lon="5.68649">
        <ele>215</ele>
        <time>2017-04-24T16:25:30Z</time>
      </trkpt>
      <trkpt lat="45.63897" lon="5.68656">
        <ele>215</ele>
        <time>2017-04-24T16:25:30Z</time>
      </trkpt>
      <trkpt lat="45.63901" lon="5.68666">
        <ele>215</ele>
        <time>2017-04-24T16:25:46Z</time>
      </trkpt>
      <trkpt lat="45.63904" lon="5.68674">
        <ele>215</ele>
        <time>2017-04-24T16:25:46Z</time>
      </trkpt>
      <trkpt lat="45.63909" lon="5.6868">
        <ele>215</ele>
        <time>2017-04-24T16:25:46Z</time>
      </trkpt>
      <trkpt lat="45.63914" lon="5.68685">
        <ele>215</ele>
        <time>2017-04-24T16:25:46Z</time>
      </trkpt>
      <trkpt lat="45.63918" lon="5.68693">
        <ele>215</ele>
        <time>2017-04-24T16:26:02Z</time>
      </trkpt>
      <trkpt lat="45.63921" lon="5.68701">
        <ele>215</ele>
        <time>2017-04-24T16:26:02Z</time>
      </trkpt>
      <trkpt lat="45.63927" lon="5.68711">
        <ele>217</ele>
        <time>2017-04-24T16:26:02Z</time>
      </trkpt>
      <trkpt lat="45.63933" lon="5.68716">
        <ele>217</ele>
        <time>2017-04-24T16:26:02Z</time>
      </trkpt>
      <trkpt lat="45.63935" lon="5.6872">
        <ele>217</ele>
        <time>2017-04-24T16:26:18Z</time>
      </trkpt>
      <trkpt lat="45.63938" lon="5.68726">
        <ele>217</ele>
        <time>2017-04-24T16:26:18Z</time>
      </trkpt>
      <trkpt lat="45.63941" lon="5.68732">
        <ele>217</ele>
        <time>2017-04-24T16:26:18Z</time>
      </trkpt>
      <trkpt lat="45.63943" lon="5.68739">
        <ele>217</ele>
        <time>2017-04-24T16:26:18Z</time>
      </trkpt>
      <trkpt lat="45.63944" lon="5.68742">
        <ele>217</ele>
        <time>2017-04-24T16:26:34Z</time>
      </trkpt>
      <trkpt lat="45.63947" lon="5.68746">
        <ele>217</ele>
        <time>2017-04-24T16:26:34Z</time>
      </trkpt>
      <trkpt lat="45.63951" lon="5.68753">
        <ele>217</ele>
        <time>2017-04-24T16:26:34Z</time>
      </trkpt>
      <trkpt lat="45.63955" lon="5.6876">
        <ele>217</ele>
        <time>2017-04-24T16:26:34Z</time>
      </trkpt>
      <trkpt lat="45.63959" lon="5.68767">
        <ele>214</ele>
        <time>2017-04-24T16:26:50Z</time>
      </trkpt>
      <trkpt lat="45.63962" lon="5.68773">
        <ele>214</ele>
        <time>2017-04-24T16:26:50Z</time>
      </trkpt>
      <trkpt lat="45.63966" lon="5.68779">
        <ele>214</ele>
        <time>2017-04-24T16:26:50Z</time>
      </trkpt>
      <trkpt lat="45.6397" lon="5.68786">
        <ele>214</ele>
        <time>2017-04-24T16:26:50Z</time>
      </trkpt>
      <trkpt lat="45.63974" lon="5.68792">
        <ele>215</ele>
        <time>2017-04-24T16:27:06Z</time>
      </trkpt>
      <trkpt lat="45.63978" lon="5.68798">
        <ele>215</ele>
        <time>2017-04-24T16:27:06Z</time>
      </trkpt>
      <trkpt lat="45.63982" lon="5.68804">
        <ele>215</ele>
        <time>2017-04-24T16:27:06Z</time>
      </trkpt>
      <trkpt lat="45.63987" lon="5.6881">
        <ele>215</ele>
        <time>2017-04-24T16:27:06Z</time>
      </trkpt>
      <trkpt lat="45.63991" lon="5.68816">
        <ele>215</ele>
        <time>2017-04-24T16:27:22Z</time>
      </trkpt>
      <trkpt lat="45.63995" lon="5.68822">
        <ele>215</ele>
        <time>2017-04-24T16:27:22Z</time>
      </trkpt>
      <trkpt lat="45.63998" lon="5.68829">
        <ele>215</ele>
        <time>2017-04-24T16:27:22Z</time>
      </trkpt>
      <trkpt lat="45.64002" lon="5.68835">
        <ele>215</ele>
        <time>2017-04-24T16:27:22Z</time>
      </trkpt>
      <trkpt lat="45.64007" lon="5.68841">
        <ele>215</ele>
        <time>2017-04-24T16:27:42Z</time>
      </trkpt>
      <trkpt lat="45.6401" lon="5.68848">
        <ele>215</ele>
        <time>2017-04-24T16:27:42Z</time>
      </trkpt>
      <trkpt lat="45.6401" lon="5.68848">
        <ele>215</ele>
        <time>2017-04-24T16:27:42Z</time>
      </trkpt>
      <trkpt lat="45.64012" lon="5.6885">
        <ele>215</ele>
        <time>2017-04-24T16:27:42Z</time>
      </trkpt>
      <trkpt lat="45.64015" lon="5.68854">
        <ele>215</ele>
        <time>2017-04-24T16:27:42Z</time>
      </trkpt>
      <trkpt lat="45.64019" lon="5.68859">
        <ele>215</ele>
        <time>2017-04-24T16:27:58Z</time>
      </trkpt>
      <trkpt lat="45.64023" lon="5.68865">
        <ele>215</ele>
        <time>2017-04-24T16:27:58Z</time>
      </trkpt>
      <trkpt lat="45.64027" lon="5.6887">
        <ele>215</ele>
        <time>2017-04-24T16:27:58Z</time>
      </trkpt>
      <trkpt lat="45.64031" lon="5.68875">
        <ele>217</ele>
        <time>2017-04-24T16:27:58Z</time>
      </trkpt>
      <trkpt lat="45.64035" lon="5.68881">
        <ele>217</ele>
        <time>2017-04-24T16:28:14Z</time>
      </trkpt>
      <trkpt lat="45.64038" lon="5.68887">
        <ele>217</ele>
        <time>2017-04-24T16:28:14Z</time>
      </trkpt>
      <trkpt lat="45.64041" lon="5.68894">
        <ele>217</ele>
        <time>2017-04-24T16:28:14Z</time>
      </trkpt>
      <trkpt lat="45.64046" lon="5.689">
        <ele>215</ele>
        <time>2017-04-24T16:28:14Z</time>
      </trkpt>
      <trkpt lat="45.64051" lon="5.68905">
        <ele>215</ele>
        <time>2017-04-24T16:28:30Z</time>
      </trkpt>
      <trkpt lat="45.64055" lon="5.6891">
        <ele>215</ele>
        <time>2017-04-24T16:28:30Z</time>
      </trkpt>
      <trkpt lat="45.6406" lon="5.68915">
        <ele>215</ele>
        <time>2017-04-24T16:28:30Z</time>
      </trkpt>
      <trkpt lat="45.64065" lon="5.68921">
        <ele>215</ele>
        <time>2017-04-24T16:28:30Z</time>
      </trkpt>
      <trkpt lat="45.6407" lon="5.68927">
        <ele>215</ele>
        <time>2017-04-24T16:28:46Z</time>
      </trkpt>
      <trkpt lat="45.64075" lon="5.68933">
        <ele>215</ele>
        <time>2017-04-24T16:28:46Z</time>
      </trkpt>
      <trkpt lat="45.64079" lon="5.68939">
        <ele>215</ele>
        <time>2017-04-24T16:28:46Z</time>
      </trkpt>
      <trkpt lat="45.64084" lon="5.68943">
        <ele>215</ele>
        <time>2017-04-24T16:28:46Z</time>
      </trkpt>
      <trkpt lat="45.64088" lon="5.68947">
        <ele>215</ele>
        <time>2017-04-24T16:29:02Z</time>
      </trkpt>
      <trkpt lat="45.64093" lon="5.68952">
        <ele>215</ele>
        <time>2017-04-24T16:29:02Z</time>
      </trkpt>
      <trkpt lat="45.64098" lon="5.68957">
        <ele>215</ele>
        <time>2017-04-24T16:29:02Z</time>
      </trkpt>
      <trkpt lat="45.64102" lon="5.68962">
        <ele>216</ele>
        <time>2017-04-24T16:29:02Z</time>
      </trkpt>
      <trkpt lat="45.64106" lon="5.68968">
        <ele>216</ele>
        <time>2017-04-24T16:29:18Z</time>
      </trkpt>
      <trkpt lat="45.64111" lon="5.68973">
        <ele>216</ele>
        <time>2017-04-24T16:29:18Z</time>
      </trkpt>
      <trkpt lat="45.64116" lon="5.68977">
        <ele>216</ele>
        <time>2017-04-24T16:29:18Z</time>
      </trkpt>
      <trkpt lat="45.64122" lon="5.68982">
        <ele>216</ele>
        <time>2017-04-24T16:29:18Z</time>
      </trkpt>
      <trkpt lat="45.64126" lon="5.68987">
        <ele>214</ele>
        <time>2017-04-24T16:29:34Z</time>
      </trkpt>
      <trkpt lat="45.64131" lon="5.68992">
        <ele>214</ele>
        <time>2017-04-24T16:29:34Z</time>
      </trkpt>
      <trkpt lat="45.64136" lon="5.68996">
        <ele>214</ele>
        <time>2017-04-24T16:29:34Z</time>
      </trkpt>
      <trkpt lat="45.64141" lon="5.69001">
        <ele>214</ele>
        <time>2017-04-24T16:29:34Z</time>
      </trkpt>
      <trkpt lat="45.64147" lon="5.69006">
        <ele>214</ele>
        <time>2017-04-24T16:29:50Z</time>
      </trkpt>
      <trkpt lat="45.64152" lon="5.69011">
        <ele>214</ele>
        <time>2017-04-24T16:29:50Z</time>
      </trkpt>
      <trkpt lat="45.64158" lon="5.69016">
        <ele>214</ele>
        <time>2017-04-24T16:29:50Z</time>
      </trkpt>
      <trkpt lat="45.64165" lon="5.6902">
        <ele>214</ele>
        <time>2017-04-24T16:29:50Z</time>
      </trkpt>
      <trkpt lat="45.64173" lon="5.69025">
        <ele>214</ele>
        <time>2017-04-24T16:30:06Z</time>
      </trkpt>
      <trkpt lat="45.64181" lon="5.6903">
        <ele>214</ele>
        <time>2017-04-24T16:30:06Z</time>
      </trkpt>
      <trkpt lat="45.64187" lon="5.69035">
        <ele>214</ele>
        <time>2017-04-24T16:30:06Z</time>
      </trkpt>
      <trkpt lat="45.64192" lon="5.69039">
        <ele>214</ele>
        <time>2017-04-24T16:30:06Z</time>
      </trkpt>
      <trkpt lat="45.64197" lon="5.69044">
        <ele>215</ele>
        <time>2017-04-24T16:30:22Z</time>
      </trkpt>
      <trkpt lat="45.64202" lon="5.69048">
        <ele>215</ele>
        <time>2017-04-24T16:30:22Z</time>
      </trkpt>
      <trkpt lat="45.64208" lon="5.69053">
        <ele>215</ele>
        <time>2017-04-24T16:30:22Z</time>
      </trkpt>
      <trkpt lat="45.64214" lon="5.69055">
        <ele>214</ele>
        <time>2017-04-24T16:30:22Z</time>
      </trkpt>
      <trkpt lat="45.64219" lon="5.69057">
        <ele>214</ele>
        <time>2017-04-24T16:30:38Z</time>
      </trkpt>
      <trkpt lat="45.64225" lon="5.6906">
        <ele>214</ele>
        <time>2017-04-24T16:30:38Z</time>
      </trkpt>
      <trkpt lat="45.6423" lon="5.69064">
        <ele>214</ele>
        <time>2017-04-24T16:30:38Z</time>
      </trkpt>
      <trkpt lat="45.64236" lon="5.69068">
        <ele>214</ele>
        <time>2017-04-24T16:30:38Z</time>
      </trkpt>
      <trkpt lat="45.64241" lon="5.69072">
        <ele>214</ele>
        <time>2017-04-24T16:30:54Z</time>
      </trkpt>
      <trkpt lat="45.64247" lon="5.69075">
        <ele>214</ele>
        <time>2017-04-24T16:30:54Z</time>
      </trkpt>
      <trkpt lat="45.64252" lon="5.69079">
        <ele>214</ele>
        <time>2017-04-24T16:30:54Z</time>
      </trkpt>
      <trkpt lat="45.64257" lon="5.69083">
        <ele>214</ele>
        <time>2017-04-24T16:30:54Z</time>
      </trkpt>
      <trkpt lat="45.64264" lon="5.69086">
        <ele>214</ele>
        <time>2017-04-24T16:31:10Z</time>
      </trkpt>
      <trkpt lat="45.6427" lon="5.6909">
        <ele>214</ele>
        <time>2017-04-24T16:31:10Z</time>
      </trkpt>
      <trkpt lat="45.64276" lon="5.69094">
        <ele>214</ele>
        <time>2017-04-24T16:31:10Z</time>
      </trkpt>
      <trkpt lat="45.64281" lon="5.69097">
        <ele>214</ele>
        <time>2017-04-24T16:31:10Z</time>
      </trkpt>
      <trkpt lat="45.64287" lon="5.69101">
        <ele>214</ele>
        <time>2017-04-24T16:31:26Z</time>
      </trkpt>
      <trkpt lat="45.64293" lon="5.69105">
        <ele>213</ele>
        <time>2017-04-24T16:31:26Z</time>
      </trkpt>
      <trkpt lat="45.64299" lon="5.69108">
        <ele>213</ele>
        <time>2017-04-24T16:31:26Z</time>
      </trkpt>
      <trkpt lat="45.64304" lon="5.69113">
        <ele>213</ele>
        <time>2017-04-24T16:31:26Z</time>
      </trkpt>
      <trkpt lat="45.6431" lon="5.69116">
        <ele>213</ele>
        <time>2017-04-24T16:31:42Z</time>
      </trkpt>
      <trkpt lat="45.64316" lon="5.69119">
        <ele>213</ele>
        <time>2017-04-24T16:31:42Z</time>
      </trkpt>
      <trkpt lat="45.64322" lon="5.69122">
        <ele>213</ele>
        <time>2017-04-24T16:31:42Z</time>
      </trkpt>
      <trkpt lat="45.64328" lon="5.69125">
        <ele>215</ele>
        <time>2017-04-24T16:31:42Z</time>
      </trkpt>
      <trkpt lat="45.64334" lon="5.69128">
        <ele>215</ele>
        <time>2017-04-24T16:31:58Z</time>
      </trkpt>
      <trkpt lat="45.6434" lon="5.69132">
        <ele>215</ele>
        <time>2017-04-24T16:31:58Z</time>
      </trkpt>
      <trkpt lat="45.64345" lon="5.69137">
        <ele>215</ele>
        <time>2017-04-24T16:31:58Z</time>
      </trkpt>
      <trkpt lat="45.6435" lon="5.69143">
        <ele>215</ele>
        <time>2017-04-24T16:31:58Z</time>
      </trkpt>
      <trkpt lat="45.64354" lon="5.6915">
        <ele>215</ele>
        <time>2017-04-24T16:32:14Z</time>
      </trkpt>
      <trkpt lat="45.64357" lon="5.69157">
        <ele>215</ele>
        <time>2017-04-24T16:32:14Z</time>
      </trkpt>
      <trkpt lat="45.6436" lon="5.69165">
        <ele>215</ele>
        <time>2017-04-24T16:32:14Z</time>
      </trkpt>
      <trkpt lat="45.64363" lon="5.69172">
        <ele>215</ele>
        <time>2017-04-24T16:32:14Z</time>
      </trkpt>
      <trkpt lat="45.64367" lon="5.69179">
        <ele>215</ele>
        <time>2017-04-24T16:32:30Z</time>
      </trkpt>
      <trkpt lat="45.64372" lon="5.69186">
        <ele>215</ele>
        <time>2017-04-24T16:32:30Z</time>
      </trkpt>
      <trkpt lat="45.64376" lon="5.69194">
        <ele>214</ele>
        <time>2017-04-24T16:32:30Z</time>
      </trkpt>
      <trkpt lat="45.64379" lon="5.69201">
        <ele>214</ele>
        <time>2017-04-24T16:32:30Z</time>
      </trkpt>
      <trkpt lat="45.64383" lon="5.69209">
        <ele>215</ele>
        <time>2017-04-24T16:32:46Z</time>
      </trkpt>
      <trkpt lat="45.64386" lon="5.69216">
        <ele>215</ele>
        <time>2017-04-24T16:32:46Z</time>
      </trkpt>
      <trkpt lat="45.6439" lon="5.69222">
        <ele>215</ele>
        <time>2017-04-24T16:32:46Z</time>
      </trkpt>
      <trkpt lat="45.64394" lon="5.69229">
        <ele>215</ele>
        <time>2017-04-24T16:32:46Z</time>
      </trkpt>
      <trkpt lat="45.64399" lon="5.69236">
        <ele>215</ele>
        <time>2017-04-24T16:33:02Z</time>
      </trkpt>
      <trkpt lat="45.64402" lon="5.69241">
        <ele>215</ele>
        <time>2017-04-24T16:33:02Z</time>
      </trkpt>
      <trkpt lat="45.64408" lon="5.69243">
        <ele>215</ele>
        <time>2017-04-24T16:33:02Z</time>
      </trkpt>
      <trkpt lat="45.64412" lon="5.6925">
        <ele>215</ele>
        <time>2017-04-24T16:33:02Z</time>
      </trkpt>
      <trkpt lat="45.64418" lon="5.69257">
        <ele>215</ele>
        <time>2017-04-24T16:33:18Z</time>
      </trkpt>
      <trkpt lat="45.64422" lon="5.69264">
        <ele>215</ele>
        <time>2017-04-24T16:33:18Z</time>
      </trkpt>
      <trkpt lat="45.64428" lon="5.69271">
        <ele>215</ele>
        <time>2017-04-24T16:33:18Z</time>
      </trkpt>
      <trkpt lat="45.64434" lon="5.69278">
        <ele>215</ele>
        <time>2017-04-24T16:33:18Z</time>
      </trkpt>
      <trkpt lat="45.64439" lon="5.69285">
        <ele>215</ele>
        <time>2017-04-24T16:33:34Z</time>
      </trkpt>
      <trkpt lat="45.64443" lon="5.69291">
        <ele>215</ele>
        <time>2017-04-24T16:33:34Z</time>
      </trkpt>
      <trkpt lat="45.64447" lon="5.69296">
        <ele>216</ele>
        <time>2017-04-24T16:33:34Z</time>
      </trkpt>
      <trkpt lat="45.64451" lon="5.69297">
        <ele>216</ele>
        <time>2017-04-24T16:33:34Z</time>
      </trkpt>
      <trkpt lat="45.64456" lon="5.69299">
        <ele>216</ele>
        <time>2017-04-24T16:33:50Z</time>
      </trkpt>
      <trkpt lat="45.64462" lon="5.69301">
        <ele>216</ele>
        <time>2017-04-24T16:33:50Z</time>
      </trkpt>
      <trkpt lat="45.64467" lon="5.69303">
        <ele>216</ele>
        <time>2017-04-24T16:33:50Z</time>
      </trkpt>
      <trkpt lat="45.64472" lon="5.69306">
        <ele>216</ele>
        <time>2017-04-24T16:33:50Z</time>
      </trkpt>
      <trkpt lat="45.64475" lon="5.69314">
        <ele>216</ele>
        <time>2017-04-24T16:34:06Z</time>
      </trkpt>
      <trkpt lat="45.64479" lon="5.69323">
        <ele>216</ele>
        <time>2017-04-24T16:34:06Z</time>
      </trkpt>
      <trkpt lat="45.64485" lon="5.6933">
        <ele>216</ele>
        <time>2017-04-24T16:34:06Z</time>
      </trkpt>
      <trkpt lat="45.64491" lon="5.69335">
        <ele>216</ele>
        <time>2017-04-24T16:34:06Z</time>
      </trkpt>
      <trkpt lat="45.64497" lon="5.69339">
        <ele>216</ele>
        <time>2017-04-24T16:34:22Z</time>
      </trkpt>
      <trkpt lat="45.64502" lon="5.69342">
        <ele>216</ele>
        <time>2017-04-24T16:34:22Z</time>
      </trkpt>
      <trkpt lat="45.64505" lon="5.69343">
        <ele>216</ele>
        <time>2017-04-24T16:34:22Z</time>
      </trkpt>
      <trkpt lat="45.64507" lon="5.69345">
        <ele>216</ele>
        <time>2017-04-24T16:34:22Z</time>
      </trkpt>
      <trkpt lat="45.64514" lon="5.69346">
        <ele>216</ele>
        <time>2017-04-24T16:34:38Z</time>
      </trkpt>
      <trkpt lat="45.64519" lon="5.69346">
        <ele>216</ele>
        <time>2017-04-24T16:34:38Z</time>
      </trkpt>
      <trkpt lat="45.64525" lon="5.69345">
        <ele>216</ele>
        <time>2017-04-24T16:34:38Z</time>
      </trkpt>
      <trkpt lat="45.64531" lon="5.69344">
        <ele>216</ele>
        <time>2017-04-24T16:34:38Z</time>
      </trkpt>
      <trkpt lat="45.64535" lon="5.69342">
        <ele>216</ele>
        <time>2017-04-24T16:34:54Z</time>
      </trkpt>
      <trkpt lat="45.64542" lon="5.6934">
        <ele>216</ele>
        <time>2017-04-24T16:34:54Z</time>
      </trkpt>
      <trkpt lat="45.64548" lon="5.69339">
        <ele>216</ele>
        <time>2017-04-24T16:34:54Z</time>
      </trkpt>
      <trkpt lat="45.64554" lon="5.69335">
        <ele>216</ele>
        <time>2017-04-24T16:34:54Z</time>
      </trkpt>
      <trkpt lat="45.64561" lon="5.69331">
        <ele>216</ele>
        <time>2017-04-24T16:35:10Z</time>
      </trkpt>
      <trkpt lat="45.64566" lon="5.69326">
        <ele>216</ele>
        <time>2017-04-24T16:35:10Z</time>
      </trkpt>
      <trkpt lat="45.64573" lon="5.69323">
        <ele>216</ele>
        <time>2017-04-24T16:35:10Z</time>
      </trkpt>
      <trkpt lat="45.64578" lon="5.69319">
        <ele>216</ele>
        <time>2017-04-24T16:35:10Z</time>
      </trkpt>
      <trkpt lat="45.64582" lon="5.69314">
        <ele>216</ele>
        <time>2017-04-24T16:35:26Z</time>
      </trkpt>
      <trkpt lat="45.64587" lon="5.69311">
        <ele>216</ele>
        <time>2017-04-24T16:35:26Z</time>
      </trkpt>
      <trkpt lat="45.64591" lon="5.69309">
        <ele>216</ele>
        <time>2017-04-24T16:35:26Z</time>
      </trkpt>
      <trkpt lat="45.64595" lon="5.69305">
        <ele>216</ele>
        <time>2017-04-24T16:35:26Z</time>
      </trkpt>
      <trkpt lat="45.646" lon="5.69301">
        <ele>216</ele>
        <time>2017-04-24T16:35:42Z</time>
      </trkpt>
      <trkpt lat="45.64606" lon="5.69299">
        <ele>216</ele>
        <time>2017-04-24T16:35:42Z</time>
      </trkpt>
      <trkpt lat="45.64613" lon="5.69298">
        <ele>216</ele>
        <time>2017-04-24T16:35:42Z</time>
      </trkpt>
      <trkpt lat="45.64619" lon="5.69297">
        <ele>216</ele>
        <time>2017-04-24T16:35:42Z</time>
      </trkpt>
      <trkpt lat="45.64626" lon="5.693">
        <ele>215</ele>
        <time>2017-04-24T16:35:58Z</time>
      </trkpt>
      <trkpt lat="45.64633" lon="5.69303">
        <ele>215</ele>
        <time>2017-04-24T16:35:58Z</time>
      </trkpt>
      <trkpt lat="45.64639" lon="5.69307">
        <ele>215</ele>
        <time>2017-04-24T16:35:58Z</time>
      </trkpt>
      <trkpt lat="45.64644" lon="5.6931">
        <ele>215</ele>
        <time>2017-04-24T16:35:58Z</time>
      </trkpt>
      <trkpt lat="45.6465" lon="5.69313">
        <ele>215</ele>
        <time>2017-04-24T16:36:14Z</time>
      </trkpt>
      <trkpt lat="45.64656" lon="5.69316">
        <ele>215</ele>
        <time>2017-04-24T16:36:14Z</time>
      </trkpt>
      <trkpt lat="45.64661" lon="5.69319">
        <ele>215</ele>
        <time>2017-04-24T16:36:14Z</time>
      </trkpt>
      <trkpt lat="45.64666" lon="5.69323">
        <ele>215</ele>
        <time>2017-04-24T16:36:14Z</time>
      </trkpt>
      <trkpt lat="45.64671" lon="5.69327">
        <ele>215</ele>
        <time>2017-04-24T16:36:30Z</time>
      </trkpt>
      <trkpt lat="45.64676" lon="5.69332">
        <ele>215</ele>
        <time>2017-04-24T16:36:30Z</time>
      </trkpt>
      <trkpt lat="45.6468" lon="5.69336">
        <ele>215</ele>
        <time>2017-04-24T16:36:30Z</time>
      </trkpt>
      <trkpt lat="45.64685" lon="5.6934">
        <ele>215</ele>
        <time>2017-04-24T16:36:30Z</time>
      </trkpt>
      <trkpt lat="45.6469" lon="5.69344">
        <ele>215</ele>
        <time>2017-04-24T16:36:46Z</time>
      </trkpt>
      <trkpt lat="45.64692" lon="5.69346">
        <ele>215</ele>
        <time>2017-04-24T16:36:46Z</time>
      </trkpt>
      <trkpt lat="45.64698" lon="5.69349">
        <ele>215</ele>
        <time>2017-04-24T16:36:46Z</time>
      </trkpt>
      <trkpt lat="45.64704" lon="5.69352">
        <ele>215</ele>
        <time>2017-04-24T16:36:46Z</time>
      </trkpt>
      <trkpt lat="45.64712" lon="5.69355">
        <ele>215</ele>
        <time>2017-04-24T16:37:02Z</time>
      </trkpt>
      <trkpt lat="45.64719" lon="5.69358">
        <ele>215</ele>
        <time>2017-04-24T16:37:02Z</time>
      </trkpt>
      <trkpt lat="45.64726" lon="5.6936">
        <ele>215</ele>
        <time>2017-04-24T16:37:02Z</time>
      </trkpt>
      <trkpt lat="45.64733" lon="5.69364">
        <ele>215</ele>
        <time>2017-04-24T16:37:02Z</time>
      </trkpt>
      <trkpt lat="45.64738" lon="5.69368">
        <ele>215</ele>
        <time>2017-04-24T16:37:18Z</time>
      </trkpt>
      <trkpt lat="45.64743" lon="5.69372">
        <ele>215</ele>
        <time>2017-04-24T16:37:18Z</time>
      </trkpt>
      <trkpt lat="45.64748" lon="5.69376">
        <ele>216</ele>
        <time>2017-04-24T16:37:18Z</time>
      </trkpt>
      <trkpt lat="45.64753" lon="5.6938">
        <ele>216</ele>
        <time>2017-04-24T16:37:18Z</time>
      </trkpt>
      <trkpt lat="45.64759" lon="5.69383">
        <ele>216</ele>
        <time>2017-04-24T16:37:34Z</time>
      </trkpt>
      <trkpt lat="45.64765" lon="5.69386">
        <ele>216</ele>
        <time>2017-04-24T16:37:34Z</time>
      </trkpt>
      <trkpt lat="45.64771" lon="5.69389">
        <ele>216</ele>
        <time>2017-04-24T16:37:34Z</time>
      </trkpt>
      <trkpt lat="45.64777" lon="5.69392">
        <ele>216</ele>
        <time>2017-04-24T16:37:34Z</time>
      </trkpt>
      <trkpt lat="45.64778" lon="5.69392">
        <ele>216</ele>
        <time>2017-04-24T16:37:50Z</time>
      </trkpt>
      <trkpt lat="45.64785" lon="5.69395">
        <ele>216</ele>
        <time>2017-04-24T16:37:50Z</time>
      </trkpt>
      <trkpt lat="45.64791" lon="5.69397">
        <ele>216</ele>
        <time>2017-04-24T16:37:50Z</time>
      </trkpt>
      <trkpt lat="45.64795" lon="5.69399">
        <ele>216</ele>
        <time>2017-04-24T16:37:50Z</time>
      </trkpt>
      <trkpt lat="45.64804" lon="5.69401">
        <ele>216</ele>
        <time>2017-04-24T16:38:06Z</time>
      </trkpt>
      <trkpt lat="45.64812" lon="5.69401">
        <ele>216</ele>
        <time>2017-04-24T16:38:06Z</time>
      </trkpt>
      <trkpt lat="45.6482" lon="5.69401">
        <ele>216</ele>
        <time>2017-04-24T16:38:06Z</time>
      </trkpt>
      <trkpt lat="45.64826" lon="5.69402">
        <ele>216</ele>
        <time>2017-04-24T16:38:06Z</time>
      </trkpt>
      <trkpt lat="45.64832" lon="5.69402">
        <ele>216</ele>
        <time>2017-04-24T16:38:22Z</time>
      </trkpt>
      <trkpt lat="45.64839" lon="5.69401">
        <ele>216</ele>
        <time>2017-04-24T16:38:22Z</time>
      </trkpt>
      <trkpt lat="45.64846" lon="5.69402">
        <ele>216</ele>
        <time>2017-04-24T16:38:22Z</time>
      </trkpt>
      <trkpt lat="45.64852" lon="5.69401">
        <ele>216</ele>
        <time>2017-04-24T16:38:22Z</time>
      </trkpt>
      <trkpt lat="45.64859" lon="5.69401">
        <ele>216</ele>
        <time>2017-04-24T16:38:38Z</time>
      </trkpt>
      <trkpt lat="45.64865" lon="5.69402">
        <ele>216</ele>
        <time>2017-04-24T16:38:38Z</time>
      </trkpt>
      <trkpt lat="45.6487" lon="5.69402">
        <ele>216</ele>
        <time>2017-04-24T16:38:38Z</time>
      </trkpt>
      <trkpt lat="45.64876" lon="5.69402">
        <ele>216</ele>
        <time>2017-04-24T16:38:38Z</time>
      </trkpt>
      <trkpt lat="45.64882" lon="5.69403">
        <ele>216</ele>
        <time>2017-04-24T16:38:54Z</time>
      </trkpt>
      <trkpt lat="45.64886" lon="5.69403">
        <ele>216</ele>
        <time>2017-04-24T16:38:54Z</time>
      </trkpt>
      <trkpt lat="45.64889" lon="5.69402">
        <ele>216</ele>
        <time>2017-04-24T16:38:54Z</time>
      </trkpt>
      <trkpt lat="45.64892" lon="5.69401">
        <ele>216</ele>
        <time>2017-04-24T16:38:54Z</time>
      </trkpt>
      <trkpt lat="45.64894" lon="5.69401">
        <ele>216</ele>
        <time>2017-04-24T16:39:14Z</time>
      </trkpt>
      <trkpt lat="45.64895" lon="5.69401">
        <ele>216</ele>
        <time>2017-04-24T16:39:14Z</time>
      </trkpt>
      <trkpt lat="45.64896" lon="5.694">
        <ele>216</ele>
        <time>2017-04-24T16:39:14Z</time>
      </trkpt>
      <trkpt lat="45.649" lon="5.69401">
        <ele>216</ele>
        <time>2017-04-24T16:39:14Z</time>
      </trkpt>
      <trkpt lat="45.64908" lon="5.694">
        <ele>216</ele>
        <time>2017-04-24T16:39:14Z</time>
      </trkpt>
      <trkpt lat="45.64911" lon="5.69401">
        <ele>216</ele>
        <time>2017-04-24T16:39:30Z</time>
      </trkpt>
      <trkpt lat="45.64915" lon="5.69401">
        <ele>216</ele>
        <time>2017-04-24T16:39:30Z</time>
      </trkpt>
      <trkpt lat="45.64921" lon="5.69401">
        <ele>216</ele>
        <time>2017-04-24T16:39:30Z</time>
      </trkpt>
      <trkpt lat="45.64926" lon="5.69401">
        <ele>216</ele>
        <time>2017-04-24T16:39:30Z</time>
      </trkpt>
      <trkpt lat="45.64931" lon="5.69399">
        <ele>216</ele>
        <time>2017-04-24T16:39:46Z</time>
      </trkpt>
      <trkpt lat="45.64936" lon="5.69396">
        <ele>216</ele>
        <time>2017-04-24T16:39:46Z</time>
      </trkpt>
      <trkpt lat="45.64942" lon="5.69393">
        <ele>216</ele>
        <time>2017-04-24T16:39:46Z</time>
      </trkpt>
      <trkpt lat="45.64945" lon="5.69393">
        <ele>216</ele>
        <time>2017-04-24T16:39:46Z</time>
      </trkpt>
      <trkpt lat="45.64947" lon="5.69386">
        <ele>216</ele>
        <time>2017-04-24T16:40:38Z</time>
      </trkpt>
      <trkpt lat="45.6495" lon="5.69378">
        <ele>216</ele>
        <time>2017-04-24T16:40:38Z</time>
      </trkpt>
      <trkpt lat="45.64954" lon="5.69369">
        <ele>215</ele>
        <time>2017-04-24T16:40:38Z</time>
      </trkpt>
      <trkpt lat="45.6496" lon="5.69358">
        <ele>215</ele>
        <time>2017-04-24T16:40:38Z</time>
      </trkpt>
      <trkpt lat="45.64966" lon="5.69349">
        <ele>215</ele>
        <time>2017-04-24T16:40:38Z</time>
      </trkpt>
      <trkpt lat="45.64972" lon="5.69342">
        <ele>215</ele>
        <time>2017-04-24T16:40:54Z</time>
      </trkpt>
      <trkpt lat="45.64977" lon="5.69335">
        <ele>215</ele>
        <time>2017-04-24T16:40:54Z</time>
      </trkpt>
      <trkpt lat="45.64983" lon="5.69329">
        <ele>215</ele>
        <time>2017-04-24T16:40:54Z</time>
      </trkpt>
      <trkpt lat="45.64987" lon="5.69322">
        <ele>215</ele>
        <time>2017-04-24T16:40:54Z</time>
      </trkpt>
      <trkpt lat="45.64991" lon="5.69316">
        <ele>215</ele>
        <time>2017-04-24T16:41:10Z</time>
      </trkpt>
      <trkpt lat="45.64996" lon="5.6931">
        <ele>215</ele>
        <time>2017-04-24T16:41:10Z</time>
      </trkpt>
      <trkpt lat="45.65001" lon="5.69304">
        <ele>215</ele>
        <time>2017-04-24T16:41:10Z</time>
      </trkpt>
      <trkpt lat="45.65006" lon="5.69299">
        <ele>215</ele>
        <time>2017-04-24T16:41:10Z</time>
      </trkpt>
      <trkpt lat="45.6501" lon="5.69294">
        <ele>215</ele>
        <time>2017-04-24T16:41:26Z</time>
      </trkpt>
      <trkpt lat="45.65016" lon="5.69289">
        <ele>214</ele>
        <time>2017-04-24T16:41:26Z</time>
      </trkpt>
      <trkpt lat="45.65021" lon="5.69284">
        <ele>214</ele>
        <time>2017-04-24T16:41:26Z</time>
      </trkpt>
      <trkpt lat="45.65026" lon="5.69279">
        <ele>214</ele>
        <time>2017-04-24T16:41:26Z</time>
      </trkpt>
      <trkpt lat="45.65031" lon="5.69274">
        <ele>214</ele>
        <time>2017-04-24T16:41:42Z</time>
      </trkpt>
      <trkpt lat="45.65037" lon="5.69269">
        <ele>214</ele>
        <time>2017-04-24T16:41:42Z</time>
      </trkpt>
      <trkpt lat="45.65039" lon="5.69268">
        <ele>214</ele>
        <time>2017-04-24T16:41:42Z</time>
      </trkpt>
      <trkpt lat="45.6504" lon="5.69267">
        <ele>214</ele>
        <time>2017-04-24T16:41:42Z</time>
      </trkpt>
      <trkpt lat="45.65043" lon="5.69264">
        <ele>214</ele>
        <time>2017-04-24T16:41:58Z</time>
      </trkpt>
      <trkpt lat="45.65044" lon="5.69258">
        <ele>214</ele>
        <time>2017-04-24T16:41:58Z</time>
      </trkpt>
      <trkpt lat="45.65045" lon="5.69256">
        <ele>214</ele>
        <time>2017-04-24T16:41:58Z</time>
      </trkpt>
      <trkpt lat="45.65049" lon="5.69253">
        <ele>214</ele>
        <time>2017-04-24T16:41:58Z</time>
      </trkpt>
      <trkpt lat="45.65055" lon="5.69247">
        <ele>214</ele>
        <time>2017-04-24T16:42:14Z</time>
      </trkpt>
      <trkpt lat="45.65061" lon="5.69243">
        <ele>214</ele>
        <time>2017-04-24T16:42:14Z</time>
      </trkpt>
      <trkpt lat="45.65066" lon="5.6924">
        <ele>214</ele>
        <time>2017-04-24T16:42:14Z</time>
      </trkpt>
      <trkpt lat="45.65068" lon="5.69237">
        <ele>214</ele>
        <time>2017-04-24T16:42:14Z</time>
      </trkpt>
      <trkpt lat="45.65083" lon="5.69214">
        <ele>214</ele>
        <time>2017-04-24T16:42:46Z</time>
      </trkpt>
      <trkpt lat="45.65084" lon="5.69213">
        <ele>214</ele>
        <time>2017-04-24T16:42:46Z</time>
      </trkpt>
      <trkpt lat="45.65089" lon="5.69207">
        <ele>213</ele>
        <time>2017-04-24T16:42:46Z</time>
      </trkpt>
      <trkpt lat="45.65099" lon="5.69198">
        <ele>213</ele>
        <time>2017-04-24T16:42:46Z</time>
      </trkpt>
      <trkpt lat="45.65104" lon="5.69193">
        <ele>213</ele>
        <time>2017-04-24T16:42:46Z</time>
      </trkpt>
      <trkpt lat="45.65109" lon="5.69187">
        <ele>213</ele>
        <time>2017-04-24T16:43:02Z</time>
      </trkpt>
      <trkpt lat="45.65114" lon="5.69183">
        <ele>213</ele>
        <time>2017-04-24T16:43:02Z</time>
      </trkpt>
      <trkpt lat="45.65118" lon="5.69178">
        <ele>213</ele>
        <time>2017-04-24T16:43:02Z</time>
      </trkpt>
      <trkpt lat="45.65122" lon="5.69173">
        <ele>213</ele>
        <time>2017-04-24T16:43:02Z</time>
      </trkpt>
      <trkpt lat="45.65128" lon="5.69166">
        <ele>214</ele>
        <time>2017-04-24T16:43:18Z</time>
      </trkpt>
      <trkpt lat="45.65133" lon="5.69158">
        <ele>214</ele>
        <time>2017-04-24T16:43:18Z</time>
      </trkpt>
      <trkpt lat="45.65137" lon="5.6915">
        <ele>214</ele>
        <time>2017-04-24T16:43:18Z</time>
      </trkpt>
      <trkpt lat="45.65139" lon="5.69144">
        <ele>214</ele>
        <time>2017-04-24T16:43:18Z</time>
      </trkpt>
      <trkpt lat="45.65143" lon="5.69137">
        <ele>214</ele>
        <time>2017-04-24T16:43:34Z</time>
      </trkpt>
      <trkpt lat="45.65146" lon="5.69129">
        <ele>214</ele>
        <time>2017-04-24T16:43:34Z</time>
      </trkpt>
      <trkpt lat="45.65148" lon="5.69121">
        <ele>213</ele>
        <time>2017-04-24T16:43:34Z</time>
      </trkpt>
      <trkpt lat="45.65151" lon="5.69117">
        <ele>213</ele>
        <time>2017-04-24T16:43:34Z</time>
      </trkpt>
      <trkpt lat="45.65157" lon="5.69116">
        <ele>213</ele>
        <time>2017-04-24T16:43:50Z</time>
      </trkpt>
      <trkpt lat="45.65164" lon="5.69117">
        <ele>213</ele>
        <time>2017-04-24T16:43:50Z</time>
      </trkpt>
      <trkpt lat="45.65169" lon="5.69119">
        <ele>213</ele>
        <time>2017-04-24T16:43:50Z</time>
      </trkpt>
      <trkpt lat="45.65175" lon="5.69119">
        <ele>213</ele>
        <time>2017-04-24T16:43:50Z</time>
      </trkpt>
      <trkpt lat="45.65181" lon="5.6912">
        <ele>213</ele>
        <time>2017-04-24T16:44:06Z</time>
      </trkpt>
      <trkpt lat="45.65188" lon="5.6912">
        <ele>213</ele>
        <time>2017-04-24T16:44:06Z</time>
      </trkpt>
      <trkpt lat="45.65195" lon="5.6912">
        <ele>213</ele>
        <time>2017-04-24T16:44:06Z</time>
      </trkpt>
      <trkpt lat="45.65201" lon="5.6912">
        <ele>213</ele>
        <time>2017-04-24T16:44:06Z</time>
      </trkpt>
      <trkpt lat="45.65208" lon="5.69121">
        <ele>213</ele>
        <time>2017-04-24T16:44:22Z</time>
      </trkpt>
      <trkpt lat="45.65214" lon="5.6912">
        <ele>213</ele>
        <time>2017-04-24T16:44:22Z</time>
      </trkpt>
      <trkpt lat="45.6522" lon="5.69119">
        <ele>213</ele>
        <time>2017-04-24T16:44:22Z</time>
      </trkpt>
      <trkpt lat="45.65226" lon="5.69118">
        <ele>213</ele>
        <time>2017-04-24T16:44:22Z</time>
      </trkpt>
      <trkpt lat="45.65232" lon="5.69118">
        <ele>213</ele>
        <time>2017-04-24T16:44:38Z</time>
      </trkpt>
      <trkpt lat="45.65238" lon="5.69116">
        <ele>213</ele>
        <time>2017-04-24T16:44:38Z</time>
      </trkpt>
      <trkpt lat="45.65244" lon="5.69115">
        <ele>213</ele>
        <time>2017-04-24T16:44:38Z</time>
      </trkpt>
      <trkpt lat="45.65251" lon="5.69115">
        <ele>213</ele>
        <time>2017-04-24T16:44:38Z</time>
      </trkpt>
      <trkpt lat="45.65257" lon="5.69112">
        <ele>213</ele>
        <time>2017-04-24T16:44:54Z</time>
      </trkpt>
      <trkpt lat="45.65262" lon="5.69107">
        <ele>213</ele>
        <time>2017-04-24T16:44:54Z</time>
      </trkpt>
      <trkpt lat="45.65267" lon="5.69101">
        <ele>213</ele>
        <time>2017-04-24T16:44:54Z</time>
      </trkpt>
      <trkpt lat="45.65272" lon="5.69095">
        <ele>213</ele>
        <time>2017-04-24T16:44:54Z</time>
      </trkpt>
      <trkpt lat="45.65278" lon="5.69093">
        <ele>213</ele>
        <time>2017-04-24T16:45:10Z</time>
      </trkpt>
      <trkpt lat="45.65284" lon="5.69092">
        <ele>213</ele>
        <time>2017-04-24T16:45:10Z</time>
      </trkpt>
      <trkpt lat="45.6529" lon="5.69094">
        <ele>213</ele>
        <time>2017-04-24T16:45:10Z</time>
      </trkpt>
      <trkpt lat="45.65296" lon="5.69098">
        <ele>214</ele>
        <time>2017-04-24T16:45:10Z</time>
      </trkpt>
      <trkpt lat="45.65301" lon="5.69095">
        <ele>214</ele>
        <time>2017-04-24T16:45:26Z</time>
      </trkpt>
      <trkpt lat="45.65307" lon="5.69092">
        <ele>214</ele>
        <time>2017-04-24T16:45:26Z</time>
      </trkpt>
      <trkpt lat="45.65313" lon="5.69092">
        <ele>214</ele>
        <time>2017-04-24T16:45:26Z</time>
      </trkpt>
      <trkpt lat="45.65319" lon="5.69092">
        <ele>214</ele>
        <time>2017-04-24T16:45:26Z</time>
      </trkpt>
      <trkpt lat="45.65324" lon="5.69089">
        <ele>214</ele>
        <time>2017-04-24T16:45:42Z</time>
      </trkpt>
      <trkpt lat="45.6533" lon="5.69086">
        <ele>214</ele>
        <time>2017-04-24T16:45:42Z</time>
      </trkpt>
      <trkpt lat="45.65336" lon="5.69086">
        <ele>214</ele>
        <time>2017-04-24T16:45:42Z</time>
      </trkpt>
      <trkpt lat="45.65341" lon="5.69086">
        <ele>214</ele>
        <time>2017-04-24T16:45:42Z</time>
      </trkpt>
      <trkpt lat="45.65345" lon="5.69089">
        <ele>214</ele>
        <time>2017-04-24T16:45:58Z</time>
      </trkpt>
      <trkpt lat="45.65349" lon="5.69096">
        <ele>214</ele>
        <time>2017-04-24T16:45:58Z</time>
      </trkpt>
      <trkpt lat="45.65352" lon="5.69103">
        <ele>214</ele>
        <time>2017-04-24T16:45:58Z</time>
      </trkpt>
      <trkpt lat="45.65355" lon="5.69117">
        <ele>214</ele>
        <time>2017-04-24T16:45:58Z</time>
      </trkpt>
      <trkpt lat="45.65359" lon="5.6915">
        <ele>215</ele>
        <time>2017-04-24T16:46:14Z</time>
      </trkpt>
      <trkpt lat="45.65368" lon="5.6918">
        <ele>215</ele>
        <time>2017-04-24T16:46:14Z</time>
      </trkpt>
      <trkpt lat="45.65373" lon="5.69207">
        <ele>215</ele>
        <time>2017-04-24T16:46:14Z</time>
      </trkpt>
      <trkpt lat="45.65374" lon="5.69235">
        <ele>215</ele>
        <time>2017-04-24T16:46:14Z</time>
      </trkpt>
      <trkpt lat="45.65374" lon="5.6926">
        <ele>215</ele>
        <time>2017-04-24T16:46:30Z</time>
      </trkpt>
      <trkpt lat="45.65378" lon="5.6929">
        <ele>216</ele>
        <time>2017-04-24T16:46:30Z</time>
      </trkpt>
      <trkpt lat="45.65387" lon="5.69317">
        <ele>216</ele>
        <time>2017-04-24T16:46:30Z</time>
      </trkpt>
      <trkpt lat="45.65397" lon="5.69343">
        <ele>216</ele>
        <time>2017-04-24T16:46:30Z</time>
      </trkpt>
      <trkpt lat="45.65401" lon="5.69359">
        <ele>216</ele>
        <time>2017-04-24T16:46:46Z</time>
      </trkpt>
      <trkpt lat="45.65403" lon="5.69367">
        <ele>216</ele>
        <time>2017-04-24T16:46:46Z</time>
      </trkpt>
      <trkpt lat="45.65408" lon="5.69376">
        <ele>217</ele>
        <time>2017-04-24T16:46:46Z</time>
      </trkpt>
      <trkpt lat="45.6541" lon="5.69384">
        <ele>217</ele>
        <time>2017-04-24T16:46:46Z</time>
      </trkpt>
      <trkpt lat="45.65414" lon="5.69386">
        <ele>217</ele>
        <time>2017-04-24T16:47:22Z</time>
      </trkpt>
      <trkpt lat="45.65412" lon="5.69378">
        <ele>217</ele>
        <time>2017-04-24T16:47:22Z</time>
      </trkpt>
      <trkpt lat="45.65409" lon="5.69371">
        <ele>216</ele>
        <time>2017-04-24T16:47:22Z</time>
      </trkpt>
      <trkpt lat="45.65407" lon="5.69365">
        <ele>216</ele>
        <time>2017-04-24T16:47:22Z</time>
      </trkpt>
      <trkpt lat="45.65405" lon="5.69357">
        <ele>216</ele>
        <time>2017-04-24T16:47:22Z</time>
      </trkpt>
      <trkpt lat="45.65402" lon="5.69349">
        <ele>216</ele>
        <time>2017-04-24T16:47:38Z</time>
      </trkpt>
      <trkpt lat="45.65399" lon="5.69342">
        <ele>216</ele>
        <time>2017-04-24T16:47:38Z</time>
      </trkpt>
      <trkpt lat="45.65395" lon="5.69335">
        <ele>216</ele>
        <time>2017-04-24T16:47:38Z</time>
      </trkpt>
      <trkpt lat="45.65392" lon="5.69325">
        <ele>216</ele>
        <time>2017-04-24T16:47:38Z</time>
      </trkpt>
      <trkpt lat="45.6539" lon="5.69316">
        <ele>216</ele>
        <time>2017-04-24T16:47:54Z</time>
      </trkpt>
      <trkpt lat="45.65388" lon="5.69306">
        <ele>216</ele>
        <time>2017-04-24T16:47:54Z</time>
      </trkpt>
      <trkpt lat="45.65384" lon="5.69298">
        <ele>216</ele>
        <time>2017-04-24T16:47:54Z</time>
      </trkpt>
      <trkpt lat="45.65381" lon="5.69289">
        <ele>216</ele>
        <time>2017-04-24T16:47:54Z</time>
      </trkpt>
      <trkpt lat="45.65378" lon="5.69282">
        <ele>216</ele>
        <time>2017-04-24T16:48:10Z</time>
      </trkpt>
      <trkpt lat="45.65375" lon="5.69275">
        <ele>215</ele>
        <time>2017-04-24T16:48:10Z</time>
      </trkpt>
      <trkpt lat="45.65371" lon="5.69269">
        <ele>215</ele>
        <time>2017-04-24T16:48:10Z</time>
      </trkpt>
      <trkpt lat="45.65366" lon="5.69252">
        <ele>215</ele>
        <time>2017-04-24T16:48:10Z</time>
      </trkpt>
      <trkpt lat="45.65363" lon="5.69218">
        <ele>215</ele>
        <time>2017-04-24T16:48:26Z</time>
      </trkpt>
      <trkpt lat="45.65361" lon="5.69184">
        <ele>215</ele>
        <time>2017-04-24T16:48:26Z</time>
      </trkpt>
      <trkpt lat="45.65357" lon="5.6915">
        <ele>215</ele>
        <time>2017-04-24T16:48:26Z</time>
      </trkpt>
      <trkpt lat="45.65347" lon="5.69126">
        <ele>215</ele>
        <time>2017-04-24T16:48:26Z</time>
      </trkpt>
      <trkpt lat="45.6534" lon="5.69106">
        <ele>214</ele>
        <time>2017-04-24T16:48:42Z</time>
      </trkpt>
      <trkpt lat="45.65338" lon="5.69094">
        <ele>214</ele>
        <time>2017-04-24T16:48:42Z</time>
      </trkpt>
      <trkpt lat="45.65338" lon="5.6909">
        <ele>214</ele>
        <time>2017-04-24T16:48:42Z</time>
      </trkpt>
      <trkpt lat="45.65339" lon="5.69089">
        <ele>214</ele>
        <time>2017-04-24T16:48:42Z</time>
      </trkpt>
      <trkpt lat="45.65339" lon="5.69088">
        <ele>214</ele>
        <time>2017-04-24T16:48:58Z</time>
      </trkpt>
      <trkpt lat="45.65342" lon="5.69085">
        <ele>214</ele>
        <time>2017-04-24T16:48:58Z</time>
      </trkpt>
      <trkpt lat="45.65349" lon="5.69081">
        <ele>214</ele>
        <time>2017-04-24T16:48:58Z</time>
      </trkpt>
      <trkpt lat="45.65356" lon="5.69075">
        <ele>214</ele>
        <time>2017-04-24T16:48:58Z</time>
      </trkpt>
      <trkpt lat="45.65364" lon="5.69071">
        <ele>214</ele>
        <time>2017-04-24T16:49:14Z</time>
      </trkpt>
      <trkpt lat="45.65371" lon="5.6907">
        <ele>214</ele>
        <time>2017-04-24T16:49:14Z</time>
      </trkpt>
      <trkpt lat="45.65378" lon="5.69069">
        <ele>214</ele>
        <time>2017-04-24T16:49:14Z</time>
      </trkpt>
      <trkpt lat="45.65385" lon="5.6907">
        <ele>214</ele>
        <time>2017-04-24T16:49:14Z</time>
      </trkpt>
      <trkpt lat="45.65409" lon="5.69071">
        <ele>214</ele>
        <time>2017-04-24T16:49:30Z</time>
      </trkpt>
      <trkpt lat="45.6543" lon="5.69073">
        <ele>214</ele>
        <time>2017-04-24T16:49:30Z</time>
      </trkpt>
      <trkpt lat="45.6545" lon="5.69071">
        <ele>214</ele>
        <time>2017-04-24T16:49:30Z</time>
      </trkpt>
      <trkpt lat="45.65469" lon="5.69056">
        <ele>215</ele>
        <time>2017-04-24T16:49:30Z</time>
      </trkpt>
      <trkpt lat="45.65482" lon="5.69026">
        <ele>214</ele>
        <time>2017-04-24T16:49:46Z</time>
      </trkpt>
      <trkpt lat="45.65481" lon="5.68994">
        <ele>214</ele>
        <time>2017-04-24T16:49:46Z</time>
      </trkpt>
      <trkpt lat="45.65497" lon="5.68974">
        <ele>214</ele>
        <time>2017-04-24T16:49:46Z</time>
      </trkpt>
      <trkpt lat="45.65517" lon="5.6896">
        <ele>214</ele>
        <time>2017-04-24T16:49:46Z</time>
      </trkpt>
      <trkpt lat="45.6554" lon="5.68954">
        <ele>214</ele>
        <time>2017-04-24T16:50:02Z</time>
      </trkpt>
      <trkpt lat="45.65561" lon="5.6896">
        <ele>214</ele>
        <time>2017-04-24T16:50:02Z</time>
      </trkpt>
      <trkpt lat="45.65567" lon="5.68988">
        <ele>214</ele>
        <time>2017-04-24T16:50:02Z</time>
      </trkpt>
      <trkpt lat="45.65577" lon="5.69012">
        <ele>214</ele>
        <time>2017-04-24T16:50:02Z</time>
      </trkpt>
      <trkpt lat="45.65598" lon="5.69023">
        <ele>214</ele>
        <time>2017-04-24T16:50:18Z</time>
      </trkpt>
      <trkpt lat="45.65619" lon="5.6904">
        <ele>214</ele>
        <time>2017-04-24T16:50:18Z</time>
      </trkpt>
      <trkpt lat="45.65637" lon="5.69057">
        <ele>215</ele>
        <time>2017-04-24T16:50:18Z</time>
      </trkpt>
      <trkpt lat="45.65649" lon="5.69078">
        <ele>215</ele>
        <time>2017-04-24T16:50:18Z</time>
      </trkpt>
      <trkpt lat="45.6566" lon="5.69091">
        <ele>215</ele>
        <time>2017-04-24T16:50:34Z</time>
      </trkpt>
      <trkpt lat="45.65667" lon="5.69097">
        <ele>215</ele>
        <time>2017-04-24T16:50:34Z</time>
      </trkpt>
      <trkpt lat="45.65677" lon="5.69101">
        <ele>215</ele>
        <time>2017-04-24T16:50:34Z</time>
      </trkpt>
      <trkpt lat="45.65682" lon="5.69107">
        <ele>215</ele>
        <time>2017-04-24T16:50:34Z</time>
      </trkpt>
      <trkpt lat="45.65685" lon="5.69112">
        <ele>215</ele>
        <time>2017-04-24T16:50:50Z</time>
      </trkpt>
      <trkpt lat="45.6569" lon="5.69114">
        <ele>215</ele>
        <time>2017-04-24T16:50:50Z</time>
      </trkpt>
      <trkpt lat="45.65697" lon="5.69117">
        <ele>215</ele>
        <time>2017-04-24T16:50:50Z</time>
      </trkpt>
      <trkpt lat="45.65703" lon="5.69119">
        <ele>215</ele>
        <time>2017-04-24T16:50:50Z</time>
      </trkpt>
      <trkpt lat="45.65708" lon="5.69123">
        <ele>215</ele>
        <time>2017-04-24T16:51:06Z</time>
      </trkpt>
      <trkpt lat="45.65709" lon="5.6913">
        <ele>215</ele>
        <time>2017-04-24T16:51:06Z</time>
      </trkpt>
      <trkpt lat="45.65707" lon="5.69139">
        <ele>215</ele>
        <time>2017-04-24T16:51:06Z</time>
      </trkpt>
      <trkpt lat="45.65705" lon="5.69148">
        <ele>215</ele>
        <time>2017-04-24T16:51:06Z</time>
      </trkpt>
      <trkpt lat="45.65701" lon="5.69158">
        <ele>215</ele>
        <time>2017-04-24T16:51:22Z</time>
      </trkpt>
      <trkpt lat="45.657" lon="5.69167">
        <ele>215</ele>
        <time>2017-04-24T16:51:22Z</time>
      </trkpt>
      <trkpt lat="45.65698" lon="5.69177">
        <ele>215</ele>
        <time>2017-04-24T16:51:22Z</time>
      </trkpt>
      <trkpt lat="45.65695" lon="5.69185">
        <ele>215</ele>
        <time>2017-04-24T16:51:22Z</time>
      </trkpt>
      <trkpt lat="45.65691" lon="5.69193">
        <ele>215</ele>
        <time>2017-04-24T16:51:38Z</time>
      </trkpt>
      <trkpt lat="45.65688" lon="5.69201">
        <ele>215</ele>
        <time>2017-04-24T16:51:38Z</time>
      </trkpt>
      <trkpt lat="45.6569" lon="5.69211">
        <ele>216</ele>
        <time>2017-04-24T16:51:38Z</time>
      </trkpt>
      <trkpt lat="45.65697" lon="5.69219">
        <ele>216</ele>
        <time>2017-04-24T16:51:38Z</time>
      </trkpt>
      <trkpt lat="45.65704" lon="5.69224">
        <ele>216</ele>
        <time>2017-04-24T16:51:54Z</time>
      </trkpt>
      <trkpt lat="45.6571" lon="5.69229">
        <ele>216</ele>
        <time>2017-04-24T16:51:54Z</time>
      </trkpt>
      <trkpt lat="45.65715" lon="5.69236">
        <ele>216</ele>
        <time>2017-04-24T16:51:54Z</time>
      </trkpt>
      <trkpt lat="45.65721" lon="5.69242">
        <ele>216</ele>
        <time>2017-04-24T16:51:54Z</time>
      </trkpt>
      <trkpt lat="45.65726" lon="5.69248">
        <ele>216</ele>
        <time>2017-04-24T16:52:10Z</time>
      </trkpt>
      <trkpt lat="45.6573" lon="5.69254">
        <ele>216</ele>
        <time>2017-04-24T16:52:10Z</time>
      </trkpt>
      <trkpt lat="45.65735" lon="5.6926">
        <ele>216</ele>
        <time>2017-04-24T16:52:10Z</time>
      </trkpt>
      <trkpt lat="45.6574" lon="5.69266">
        <ele>216</ele>
        <time>2017-04-24T16:52:10Z</time>
      </trkpt>
      <trkpt lat="45.65745" lon="5.69271">
        <ele>216</ele>
        <time>2017-04-24T16:52:26Z</time>
      </trkpt>
      <trkpt lat="45.65749" lon="5.69277">
        <ele>216</ele>
        <time>2017-04-24T16:52:26Z</time>
      </trkpt>
      <trkpt lat="45.65751" lon="5.69281">
        <ele>216</ele>
        <time>2017-04-24T16:52:26Z</time>
      </trkpt>
      <trkpt lat="45.65755" lon="5.69285">
        <ele>216</ele>
        <time>2017-04-24T16:52:26Z</time>
      </trkpt>
      <trkpt lat="45.6576" lon="5.69291">
        <ele>216</ele>
        <time>2017-04-24T16:52:42Z</time>
      </trkpt>
      <trkpt lat="45.65765" lon="5.69297">
        <ele>216</ele>
        <time>2017-04-24T16:52:42Z</time>
      </trkpt>
      <trkpt lat="45.65769" lon="5.69305">
        <ele>216</ele>
        <time>2017-04-24T16:52:42Z</time>
      </trkpt>
      <trkpt lat="45.65774" lon="5.69311">
        <ele>216</ele>
        <time>2017-04-24T16:52:42Z</time>
      </trkpt>
      <trkpt lat="45.65779" lon="5.69317">
        <ele>216</ele>
        <time>2017-04-24T16:52:58Z</time>
      </trkpt>
      <trkpt lat="45.65784" lon="5.69322">
        <ele>216</ele>
        <time>2017-04-24T16:52:58Z</time>
      </trkpt>
      <trkpt lat="45.65788" lon="5.69328">
        <ele>216</ele>
        <time>2017-04-24T16:52:58Z</time>
      </trkpt>
      <trkpt lat="45.65794" lon="5.69335">
        <ele>216</ele>
        <time>2017-04-24T16:52:58Z</time>
      </trkpt>
      <trkpt lat="45.658" lon="5.69342">
        <ele>216</ele>
        <time>2017-04-24T16:53:14Z</time>
      </trkpt>
      <trkpt lat="45.65804" lon="5.69347">
        <ele>216</ele>
        <time>2017-04-24T16:53:14Z</time>
      </trkpt>
      <trkpt lat="45.6581" lon="5.69351">
        <ele>216</ele>
        <time>2017-04-24T16:53:14Z</time>
      </trkpt>
      <trkpt lat="45.65814" lon="5.69357">
        <ele>216</ele>
        <time>2017-04-24T16:53:14Z</time>
      </trkpt>
      <trkpt lat="45.65818" lon="5.69363">
        <ele>216</ele>
        <time>2017-04-24T16:53:30Z</time>
      </trkpt>
      <trkpt lat="45.65824" lon="5.69366">
        <ele>216</ele>
        <time>2017-04-24T16:53:30Z</time>
      </trkpt>
      <trkpt lat="45.6583" lon="5.69366">
        <ele>216</ele>
        <time>2017-04-24T16:53:30Z</time>
      </trkpt>
      <trkpt lat="45.65835" lon="5.69364">
        <ele>216</ele>
        <time>2017-04-24T16:53:30Z</time>
      </trkpt>
      <trkpt lat="45.65839" lon="5.69362">
        <ele>216</ele>
        <time>2017-04-24T16:53:46Z</time>
      </trkpt>
      <trkpt lat="45.65845" lon="5.69359">
        <ele>216</ele>
        <time>2017-04-24T16:53:46Z</time>
      </trkpt>
      <trkpt lat="45.65852" lon="5.69356">
        <ele>216</ele>
        <time>2017-04-24T16:53:46Z</time>
      </trkpt>
      <trkpt lat="45.65858" lon="5.69354">
        <ele>216</ele>
        <time>2017-04-24T16:53:46Z</time>
      </trkpt>
      <trkpt lat="45.65865" lon="5.69352">
        <ele>216</ele>
        <time>2017-04-24T16:54:02Z</time>
      </trkpt>
      <trkpt lat="45.65871" lon="5.69351">
        <ele>216</ele>
        <time>2017-04-24T16:54:02Z</time>
      </trkpt>
      <trkpt lat="45.65877" lon="5.69349">
        <ele>216</ele>
        <time>2017-04-24T16:54:02Z</time>
      </trkpt>
      <trkpt lat="45.65884" lon="5.6935">
        <ele>216</ele>
        <time>2017-04-24T16:54:02Z</time>
      </trkpt>
      <trkpt lat="45.6589" lon="5.69349">
        <ele>216</ele>
        <time>2017-04-24T16:54:18Z</time>
      </trkpt>
      <trkpt lat="45.65896" lon="5.69349">
        <ele>216</ele>
        <time>2017-04-24T16:54:18Z</time>
      </trkpt>
      <trkpt lat="45.65902" lon="5.69349">
        <ele>216</ele>
        <time>2017-04-24T16:54:18Z</time>
      </trkpt>
      <trkpt lat="45.65908" lon="5.69347">
        <ele>216</ele>
        <time>2017-04-24T16:54:18Z</time>
      </trkpt>
      <trkpt lat="45.65914" lon="5.69348">
        <ele>216</ele>
        <time>2017-04-24T16:54:34Z</time>
      </trkpt>
      <trkpt lat="45.65919" lon="5.69349">
        <ele>216</ele>
        <time>2017-04-24T16:54:34Z</time>
      </trkpt>
      <trkpt lat="45.65922" lon="5.69349">
        <ele>216</ele>
        <time>2017-04-24T16:54:34Z</time>
      </trkpt>
      <trkpt lat="45.65929" lon="5.6935">
        <ele>216</ele>
        <time>2017-04-24T16:54:34Z</time>
      </trkpt>
      <trkpt lat="45.65936" lon="5.69351">
        <ele>216</ele>
        <time>2017-04-24T16:54:50Z</time>
      </trkpt>
      <trkpt lat="45.65943" lon="5.69351">
        <ele>216</ele>
        <time>2017-04-24T16:54:50Z</time>
      </trkpt>
      <trkpt lat="45.6595" lon="5.69351">
        <ele>216</ele>
        <time>2017-04-24T16:54:50Z</time>
      </trkpt>
      <trkpt lat="45.65956" lon="5.6935">
        <ele>216</ele>
        <time>2017-04-24T16:54:50Z</time>
      </trkpt>
      <trkpt lat="45.65962" lon="5.6935">
        <ele>216</ele>
        <time>2017-04-24T16:55:06Z</time>
      </trkpt>
      <trkpt lat="45.65967" lon="5.69349">
        <ele>216</ele>
        <time>2017-04-24T16:55:06Z</time>
      </trkpt>
      <trkpt lat="45.65973" lon="5.69351">
        <ele>216</ele>
        <time>2017-04-24T16:55:06Z</time>
      </trkpt>
      <trkpt lat="45.65978" lon="5.69353">
        <ele>216</ele>
        <time>2017-04-24T16:55:06Z</time>
      </trkpt>
      <trkpt lat="45.65982" lon="5.69362">
        <ele>216</ele>
        <time>2017-04-24T16:55:22Z</time>
      </trkpt>
      <trkpt lat="45.65982" lon="5.69373">
        <ele>216</ele>
        <time>2017-04-24T16:55:22Z</time>
      </trkpt>
      <trkpt lat="45.65982" lon="5.69383">
        <ele>217</ele>
        <time>2017-04-24T16:55:22Z</time>
      </trkpt>
      <trkpt lat="45.65985" lon="5.6939">
        <ele>217</ele>
        <time>2017-04-24T16:55:22Z</time>
      </trkpt>
      <trkpt lat="45.65989" lon="5.69396">
        <ele>217</ele>
        <time>2017-04-24T16:55:38Z</time>
      </trkpt>
      <trkpt lat="45.65994" lon="5.69399">
        <ele>217</ele>
        <time>2017-04-24T16:55:38Z</time>
      </trkpt>
      <trkpt lat="45.66001" lon="5.69399">
        <ele>217</ele>
        <time>2017-04-24T16:55:38Z</time>
      </trkpt>
      <trkpt lat="45.66007" lon="5.69397">
        <ele>217</ele>
        <time>2017-04-24T16:55:38Z</time>
      </trkpt>
      <trkpt lat="45.66012" lon="5.69396">
        <ele>217</ele>
        <time>2017-04-24T16:55:54Z</time>
      </trkpt>
      <trkpt lat="45.66018" lon="5.69393">
        <ele>217</ele>
        <time>2017-04-24T16:55:54Z</time>
      </trkpt>
      <trkpt lat="45.66024" lon="5.69393">
        <ele>217</ele>
        <time>2017-04-24T16:55:54Z</time>
      </trkpt>
      <trkpt lat="45.66031" lon="5.69391">
        <ele>217</ele>
        <time>2017-04-24T16:55:54Z</time>
      </trkpt>
      <trkpt lat="45.66037" lon="5.6939">
        <ele>217</ele>
        <time>2017-04-24T16:56:10Z</time>
      </trkpt>
      <trkpt lat="45.66043" lon="5.69389">
        <ele>216</ele>
        <time>2017-04-24T16:56:10Z</time>
      </trkpt>
      <trkpt lat="45.6605" lon="5.6939">
        <ele>216</ele>
        <time>2017-04-24T16:56:10Z</time>
      </trkpt>
      <trkpt lat="45.66056" lon="5.6939">
        <ele>216</ele>
        <time>2017-04-24T16:56:10Z</time>
      </trkpt>
      <trkpt lat="45.66063" lon="5.69391">
        <ele>216</ele>
        <time>2017-04-24T16:56:26Z</time>
      </trkpt>
      <trkpt lat="45.66068" lon="5.69392">
        <ele>216</ele>
        <time>2017-04-24T16:56:26Z</time>
      </trkpt>
      <trkpt lat="45.66074" lon="5.69393">
        <ele>216</ele>
        <time>2017-04-24T16:56:26Z</time>
      </trkpt>
      <trkpt lat="45.6608" lon="5.69395">
        <ele>216</ele>
        <time>2017-04-24T16:56:26Z</time>
      </trkpt>
      <trkpt lat="45.66086" lon="5.69395">
        <ele>216</ele>
        <time>2017-04-24T16:56:42Z</time>
      </trkpt>
      <trkpt lat="45.66091" lon="5.69395">
        <ele>216</ele>
        <time>2017-04-24T16:56:42Z</time>
      </trkpt>
      <trkpt lat="45.66098" lon="5.69395">
        <ele>216</ele>
        <time>2017-04-24T16:56:42Z</time>
      </trkpt>
      <trkpt lat="45.66103" lon="5.69396">
        <ele>216</ele>
        <time>2017-04-24T16:56:42Z</time>
      </trkpt>
      <trkpt lat="45.66109" lon="5.69397">
        <ele>216</ele>
        <time>2017-04-24T16:56:58Z</time>
      </trkpt>
      <trkpt lat="45.66116" lon="5.69398">
        <ele>216</ele>
        <time>2017-04-24T16:56:58Z</time>
      </trkpt>
      <trkpt lat="45.66123" lon="5.69399">
        <ele>216</ele>
        <time>2017-04-24T16:56:58Z</time>
      </trkpt>
      <trkpt lat="45.66129" lon="5.694">
        <ele>216</ele>
        <time>2017-04-24T16:56:58Z</time>
      </trkpt>
      <trkpt lat="45.66136" lon="5.69401">
        <ele>216</ele>
        <time>2017-04-24T16:57:14Z</time>
      </trkpt>
      <trkpt lat="45.66141" lon="5.69401">
        <ele>216</ele>
        <time>2017-04-24T16:57:14Z</time>
      </trkpt>
      <trkpt lat="45.66147" lon="5.69402">
        <ele>216</ele>
        <time>2017-04-24T16:57:14Z</time>
      </trkpt>
      <trkpt lat="45.66154" lon="5.69406">
        <ele>216</ele>
        <time>2017-04-24T16:57:14Z</time>
      </trkpt>
      <trkpt lat="45.6616" lon="5.69411">
        <ele>216</ele>
        <time>2017-04-24T16:57:30Z</time>
      </trkpt>
      <trkpt lat="45.66167" lon="5.69412">
        <ele>216</ele>
        <time>2017-04-24T16:57:30Z</time>
      </trkpt>
      <trkpt lat="45.66174" lon="5.69412">
        <ele>216</ele>
        <time>2017-04-24T16:57:30Z</time>
      </trkpt>
      <trkpt lat="45.6618" lon="5.69412">
        <ele>216</ele>
        <time>2017-04-24T16:57:30Z</time>
      </trkpt>
      <trkpt lat="45.66187" lon="5.69411">
        <ele>216</ele>
        <time>2017-04-24T16:57:46Z</time>
      </trkpt>
      <trkpt lat="45.66192" lon="5.69411">
        <ele>216</ele>
        <time>2017-04-24T16:57:46Z</time>
      </trkpt>
      <trkpt lat="45.66198" lon="5.69411">
        <ele>216</ele>
        <time>2017-04-24T16:57:46Z</time>
      </trkpt>
      <trkpt lat="45.66205" lon="5.69412">
        <ele>216</ele>
        <time>2017-04-24T16:57:46Z</time>
      </trkpt>
      <trkpt lat="45.66211" lon="5.69415">
        <ele>216</ele>
        <time>2017-04-24T16:58:02Z</time>
      </trkpt>
      <trkpt lat="45.66217" lon="5.69417">
        <ele>216</ele>
        <time>2017-04-24T16:58:02Z</time>
      </trkpt>
      <trkpt lat="45.66223" lon="5.69418">
        <ele>216</ele>
        <time>2017-04-24T16:58:02Z</time>
      </trkpt>
      <trkpt lat="45.66229" lon="5.69419">
        <ele>216</ele>
        <time>2017-04-24T16:58:02Z</time>
      </trkpt>
      <trkpt lat="45.66236" lon="5.6942">
        <ele>216</ele>
        <time>2017-04-24T16:58:18Z</time>
      </trkpt>
      <trkpt lat="45.66242" lon="5.69423">
        <ele>216</ele>
        <time>2017-04-24T16:58:18Z</time>
      </trkpt>
      <trkpt lat="45.66246" lon="5.6943">
        <ele>216</ele>
        <time>2017-04-24T16:58:18Z</time>
      </trkpt>
      <trkpt lat="45.66248" lon="5.6944">
        <ele>216</ele>
        <time>2017-04-24T16:58:18Z</time>
      </trkpt>
      <trkpt lat="45.66248" lon="5.69449">
        <ele>216</ele>
        <time>2017-04-24T16:58:34Z</time>
      </trkpt>
      <trkpt lat="45.66246" lon="5.69459">
        <ele>216</ele>
        <time>2017-04-24T16:58:34Z</time>
      </trkpt>
      <trkpt lat="45.66243" lon="5.69468">
        <ele>216</ele>
        <time>2017-04-24T16:58:34Z</time>
      </trkpt>
      <trkpt lat="45.66239" lon="5.69476">
        <ele>216</ele>
        <time>2017-04-24T16:58:34Z</time>
      </trkpt>
      <trkpt lat="45.66234" lon="5.69483">
        <ele>216</ele>
        <time>2017-04-24T16:58:50Z</time>
      </trkpt>
      <trkpt lat="45.66228" lon="5.69487">
        <ele>216</ele>
        <time>2017-04-24T16:58:50Z</time>
      </trkpt>
      <trkpt lat="45.66221" lon="5.69491">
        <ele>216</ele>
        <time>2017-04-24T16:58:50Z</time>
      </trkpt>
      <trkpt lat="45.66215" lon="5.69497">
        <ele>216</ele>
        <time>2017-04-24T16:58:50Z</time>
      </trkpt>
      <trkpt lat="45.66209" lon="5.69504">
        <ele>216</ele>
        <time>2017-04-24T16:59:06Z</time>
      </trkpt>
      <trkpt lat="45.66204" lon="5.69513">
        <ele>217</ele>
        <time>2017-04-24T16:59:06Z</time>
      </trkpt>
      <trkpt lat="45.662" lon="5.69521">
        <ele>217</ele>
        <time>2017-04-24T16:59:06Z</time>
      </trkpt>
      <trkpt lat="45.66196" lon="5.69528">
        <ele>217</ele>
        <time>2017-04-24T16:59:06Z</time>
      </trkpt>
      <trkpt lat="45.66193" lon="5.69533">
        <ele>217</ele>
        <time>2017-04-24T16:59:22Z</time>
      </trkpt>
      <trkpt lat="45.6619" lon="5.6954">
        <ele>217</ele>
        <time>2017-04-24T16:59:22Z</time>
      </trkpt>
      <trkpt lat="45.66188" lon="5.69548">
        <ele>217</ele>
        <time>2017-04-24T16:59:22Z</time>
      </trkpt>
      <trkpt lat="45.66185" lon="5.69555">
        <ele>217</ele>
        <time>2017-04-24T16:59:22Z</time>
      </trkpt>
      <trkpt lat="45.66183" lon="5.69564">
        <ele>217</ele>
        <time>2017-04-24T16:59:38Z</time>
      </trkpt>
      <trkpt lat="45.66182" lon="5.69573">
        <ele>217</ele>
        <time>2017-04-24T16:59:38Z</time>
      </trkpt>
      <trkpt lat="45.6618" lon="5.69582">
        <ele>217</ele>
        <time>2017-04-24T16:59:38Z</time>
      </trkpt>
      <trkpt lat="45.66178" lon="5.6959">
        <ele>217</ele>
        <time>2017-04-24T16:59:38Z</time>
      </trkpt>
      <trkpt lat="45.66174" lon="5.69598">
        <ele>217</ele>
        <time>2017-04-24T16:59:54Z</time>
      </trkpt>
      <trkpt lat="45.6617" lon="5.69606">
        <ele>217</ele>
        <time>2017-04-24T16:59:54Z</time>
      </trkpt>
      <trkpt lat="45.66167" lon="5.69613">
        <ele>217</ele>
        <time>2017-04-24T16:59:54Z</time>
      </trkpt>
      <trkpt lat="45.66165" lon="5.69622">
        <ele>217</ele>
        <time>2017-04-24T16:59:54Z</time>
      </trkpt>
      <trkpt lat="45.66165" lon="5.6963">
        <ele>217</ele>
        <time>2017-04-24T17:00:10Z</time>
      </trkpt>
      <trkpt lat="45.66163" lon="5.69636">
        <ele>217</ele>
        <time>2017-04-24T17:00:10Z</time>
      </trkpt>
      <trkpt lat="45.6616" lon="5.69645">
        <ele>217</ele>
        <time>2017-04-24T17:00:10Z</time>
      </trkpt>
      <trkpt lat="45.66156" lon="5.69653">
        <ele>217</ele>
        <time>2017-04-24T17:00:10Z</time>
      </trkpt>
      <trkpt lat="45.66153" lon="5.69661">
        <ele>217</ele>
        <time>2017-04-24T17:00:26Z</time>
      </trkpt>
      <trkpt lat="45.6615" lon="5.6967">
        <ele>217</ele>
        <time>2017-04-24T17:00:26Z</time>
      </trkpt>
      <trkpt lat="45.66149" lon="5.6968">
        <ele>217</ele>
        <time>2017-04-24T17:00:26Z</time>
      </trkpt>
      <trkpt lat="45.66148" lon="5.69689">
        <ele>217</ele>
        <time>2017-04-24T17:00:26Z</time>
      </trkpt>
      <trkpt lat="45.66146" lon="5.69698">
        <ele>217</ele>
        <time>2017-04-24T17:00:42Z</time>
      </trkpt>
      <trkpt lat="45.66144" lon="5.69706">
        <ele>217</ele>
        <time>2017-04-24T17:00:42Z</time>
      </trkpt>
      <trkpt lat="45.66143" lon="5.69714">
        <ele>218</ele>
        <time>2017-04-24T17:00:42Z</time>
      </trkpt>
      <trkpt lat="45.6614" lon="5.69721">
        <ele>218</ele>
        <time>2017-04-24T17:00:42Z</time>
      </trkpt>
      <trkpt lat="45.66136" lon="5.69727">
        <ele>218</ele>
        <time>2017-04-24T17:00:58Z</time>
      </trkpt>
      <trkpt lat="45.66134" lon="5.69734">
        <ele>218</ele>
        <time>2017-04-24T17:00:58Z</time>
      </trkpt>
      <trkpt lat="45.66132" lon="5.69741">
        <ele>218</ele>
        <time>2017-04-24T17:00:58Z</time>
      </trkpt>
      <trkpt lat="45.66132" lon="5.69748">
        <ele>218</ele>
        <time>2017-04-24T17:00:58Z</time>
      </trkpt>
      <trkpt lat="45.66135" lon="5.69755">
        <ele>218</ele>
        <time>2017-04-24T17:01:14Z</time>
      </trkpt>
      <trkpt lat="45.66142" lon="5.69759">
        <ele>218</ele>
        <time>2017-04-24T17:01:14Z</time>
      </trkpt>
      <trkpt lat="45.66147" lon="5.69764">
        <ele>218</ele>
        <time>2017-04-24T17:01:14Z</time>
      </trkpt>
      <trkpt lat="45.66153" lon="5.69769">
        <ele>218</ele>
        <time>2017-04-24T17:01:14Z</time>
      </trkpt>
      <trkpt lat="45.66158" lon="5.69775">
        <ele>218</ele>
        <time>2017-04-24T17:01:30Z</time>
      </trkpt>
      <trkpt lat="45.66164" lon="5.69781">
        <ele>218</ele>
        <time>2017-04-24T17:01:30Z</time>
      </trkpt>
      <trkpt lat="45.66169" lon="5.69785">
        <ele>218</ele>
        <time>2017-04-24T17:01:30Z</time>
      </trkpt>
      <trkpt lat="45.66174" lon="5.69791">
        <ele>218</ele>
        <time>2017-04-24T17:01:30Z</time>
      </trkpt>
      <trkpt lat="45.66178" lon="5.69797">
        <ele>218</ele>
        <time>2017-04-24T17:01:46Z</time>
      </trkpt>
      <trkpt lat="45.66183" lon="5.69802">
        <ele>218</ele>
        <time>2017-04-24T17:01:46Z</time>
      </trkpt>
      <trkpt lat="45.66188" lon="5.69808">
        <ele>218</ele>
        <time>2017-04-24T17:01:46Z</time>
      </trkpt>
      <trkpt lat="45.66194" lon="5.69812">
        <ele>218</ele>
        <time>2017-04-24T17:01:46Z</time>
      </trkpt>
      <trkpt lat="45.66201" lon="5.69817">
        <ele>218</ele>
        <time>2017-04-24T17:02:02Z</time>
      </trkpt>
      <trkpt lat="45.66205" lon="5.69821">
        <ele>218</ele>
        <time>2017-04-24T17:02:02Z</time>
      </trkpt>
      <trkpt lat="45.6621" lon="5.69826">
        <ele>218</ele>
        <time>2017-04-24T17:02:02Z</time>
      </trkpt>
      <trkpt lat="45.66215" lon="5.69831">
        <ele>218</ele>
        <time>2017-04-24T17:02:02Z</time>
      </trkpt>
      <trkpt lat="45.6622" lon="5.69836">
        <ele>218</ele>
        <time>2017-04-24T17:02:18Z</time>
      </trkpt>
      <trkpt lat="45.66225" lon="5.6984">
        <ele>218</ele>
        <time>2017-04-24T17:02:18Z</time>
      </trkpt>
      <trkpt lat="45.6623" lon="5.69844">
        <ele>218</ele>
        <time>2017-04-24T17:02:18Z</time>
      </trkpt>
      <trkpt lat="45.66234" lon="5.69848">
        <ele>218</ele>
        <time>2017-04-24T17:02:18Z</time>
      </trkpt>
      <trkpt lat="45.66239" lon="5.69851">
        <ele>218</ele>
        <time>2017-04-24T17:02:34Z</time>
      </trkpt>
      <trkpt lat="45.66244" lon="5.69853">
        <ele>218</ele>
        <time>2017-04-24T17:02:34Z</time>
      </trkpt>
      <trkpt lat="45.66249" lon="5.69856">
        <ele>218</ele>
        <time>2017-04-24T17:02:34Z</time>
      </trkpt>
      <trkpt lat="45.66256" lon="5.69858">
        <ele>218</ele>
        <time>2017-04-24T17:02:34Z</time>
      </trkpt>
      <trkpt lat="45.66262" lon="5.69859">
        <ele>218</ele>
        <time>2017-04-24T17:02:50Z</time>
      </trkpt>
      <trkpt lat="45.66268" lon="5.69861">
        <ele>218</ele>
        <time>2017-04-24T17:02:50Z</time>
      </trkpt>
      <trkpt lat="45.66274" lon="5.69863">
        <ele>218</ele>
        <time>2017-04-24T17:02:50Z</time>
      </trkpt>
      <trkpt lat="45.66279" lon="5.69865">
        <ele>218</ele>
        <time>2017-04-24T17:02:50Z</time>
      </trkpt>
      <trkpt lat="45.66285" lon="5.69866">
        <ele>218</ele>
        <time>2017-04-24T17:03:06Z</time>
      </trkpt>
      <trkpt lat="45.66291" lon="5.69867">
        <ele>218</ele>
        <time>2017-04-24T17:03:06Z</time>
      </trkpt>
      <trkpt lat="45.66298" lon="5.69868">
        <ele>217</ele>
        <time>2017-04-24T17:03:06Z</time>
      </trkpt>
      <trkpt lat="45.66304" lon="5.69869">
        <ele>217</ele>
        <time>2017-04-24T17:03:06Z</time>
      </trkpt>
      <trkpt lat="45.66309" lon="5.6987">
        <ele>217</ele>
        <time>2017-04-24T17:03:22Z</time>
      </trkpt>
      <trkpt lat="45.66315" lon="5.69873">
        <ele>217</ele>
        <time>2017-04-24T17:03:22Z</time>
      </trkpt>
      <trkpt lat="45.6632" lon="5.69875">
        <ele>218</ele>
        <time>2017-04-24T17:03:22Z</time>
      </trkpt>
      <trkpt lat="45.66326" lon="5.69875">
        <ele>218</ele>
        <time>2017-04-24T17:03:22Z</time>
      </trkpt>
      <trkpt lat="45.6633" lon="5.69881">
        <ele>218</ele>
        <time>2017-04-24T17:03:38Z</time>
      </trkpt>
      <trkpt lat="45.66335" lon="5.69883">
        <ele>218</ele>
        <time>2017-04-24T17:03:38Z</time>
      </trkpt>
      <trkpt lat="45.66341" lon="5.6988">
        <ele>218</ele>
        <time>2017-04-24T17:03:38Z</time>
      </trkpt>
      <trkpt lat="45.66349" lon="5.69878">
        <ele>218</ele>
        <time>2017-04-24T17:03:38Z</time>
      </trkpt>
      <trkpt lat="45.66356" lon="5.69875">
        <ele>218</ele>
        <time>2017-04-24T17:03:54Z</time>
      </trkpt>
      <trkpt lat="45.66362" lon="5.69876">
        <ele>218</ele>
        <time>2017-04-24T17:03:54Z</time>
      </trkpt>
      <trkpt lat="45.66367" lon="5.69878">
        <ele>218</ele>
        <time>2017-04-24T17:03:54Z</time>
      </trkpt>
      <trkpt lat="45.66372" lon="5.69878">
        <ele>218</ele>
        <time>2017-04-24T17:03:54Z</time>
      </trkpt>
      <trkpt lat="45.66378" lon="5.6988">
        <ele>217</ele>
        <time>2017-04-24T17:04:10Z</time>
      </trkpt>
      <trkpt lat="45.66384" lon="5.6988">
        <ele>217</ele>
        <time>2017-04-24T17:04:10Z</time>
      </trkpt>
      <trkpt lat="45.66389" lon="5.6988">
        <ele>217</ele>
        <time>2017-04-24T17:04:10Z</time>
      </trkpt>
      <trkpt lat="45.66393" lon="5.69885">
        <ele>217</ele>
        <time>2017-04-24T17:04:10Z</time>
      </trkpt>
      <trkpt lat="45.66399" lon="5.6989">
        <ele>217</ele>
        <time>2017-04-24T17:04:26Z</time>
      </trkpt>
      <trkpt lat="45.66405" lon="5.69893">
        <ele>217</ele>
        <time>2017-04-24T17:04:26Z</time>
      </trkpt>
      <trkpt lat="45.66412" lon="5.69895">
        <ele>217</ele>
        <time>2017-04-24T17:04:26Z</time>
      </trkpt>
      <trkpt lat="45.66418" lon="5.69895">
        <ele>217</ele>
        <time>2017-04-24T17:04:26Z</time>
      </trkpt>
      <trkpt lat="45.66424" lon="5.69895">
        <ele>217</ele>
        <time>2017-04-24T17:04:42Z</time>
      </trkpt>
      <trkpt lat="45.66429" lon="5.69896">
        <ele>217</ele>
        <time>2017-04-24T17:04:42Z</time>
      </trkpt>
      <trkpt lat="45.66434" lon="5.69897">
        <ele>217</ele>
        <time>2017-04-24T17:04:42Z</time>
      </trkpt>
      <trkpt lat="45.6644" lon="5.69897">
        <ele>217</ele>
        <time>2017-04-24T17:04:42Z</time>
      </trkpt>
      <trkpt lat="45.66447" lon="5.69896">
        <ele>217</ele>
        <time>2017-04-24T17:04:58Z</time>
      </trkpt>
      <trkpt lat="45.66453" lon="5.69895">
        <ele>217</ele>
        <time>2017-04-24T17:04:58Z</time>
      </trkpt>
      <trkpt lat="45.6646" lon="5.69894">
        <ele>217</ele>
        <time>2017-04-24T17:04:58Z</time>
      </trkpt>
      <trkpt lat="45.66466" lon="5.69893">
        <ele>217</ele>
        <time>2017-04-24T17:04:58Z</time>
      </trkpt>
      <trkpt lat="45.66472" lon="5.69891">
        <ele>217</ele>
        <time>2017-04-24T17:05:14Z</time>
      </trkpt>
      <trkpt lat="45.66479" lon="5.6989">
        <ele>217</ele>
        <time>2017-04-24T17:05:14Z</time>
      </trkpt>
      <trkpt lat="45.66486" lon="5.69892">
        <ele>217</ele>
        <time>2017-04-24T17:05:14Z</time>
      </trkpt>
      <trkpt lat="45.66491" lon="5.69894">
        <ele>217</ele>
        <time>2017-04-24T17:05:14Z</time>
      </trkpt>
      <trkpt lat="45.66498" lon="5.69895">
        <ele>217</ele>
        <time>2017-04-24T17:05:30Z</time>
      </trkpt>
      <trkpt lat="45.66504" lon="5.69898">
        <ele>217</ele>
        <time>2017-04-24T17:05:30Z</time>
      </trkpt>
      <trkpt lat="45.6651" lon="5.69899">
        <ele>217</ele>
        <time>2017-04-24T17:05:30Z</time>
      </trkpt>
      <trkpt lat="45.66516" lon="5.699">
        <ele>217</ele>
        <time>2017-04-24T17:05:30Z</time>
      </trkpt>
      <trkpt lat="45.66522" lon="5.69901">
        <ele>217</ele>
        <time>2017-04-24T17:05:46Z</time>
      </trkpt>
      <trkpt lat="45.66527" lon="5.69901">
        <ele>217</ele>
        <time>2017-04-24T17:05:46Z</time>
      </trkpt>
      <trkpt lat="45.66534" lon="5.69902">
        <ele>217</ele>
        <time>2017-04-24T17:05:46Z</time>
      </trkpt>
      <trkpt lat="45.6654" lon="5.69904">
        <ele>217</ele>
        <time>2017-04-24T17:05:46Z</time>
      </trkpt>
      <trkpt lat="45.66546" lon="5.69907">
        <ele>217</ele>
        <time>2017-04-24T17:06:02Z</time>
      </trkpt>
      <trkpt lat="45.66551" lon="5.69909">
        <ele>217</ele>
        <time>2017-04-24T17:06:02Z</time>
      </trkpt>
      <trkpt lat="45.66556" lon="5.69913">
        <ele>217</ele>
        <time>2017-04-24T17:06:02Z</time>
      </trkpt>
      <trkpt lat="45.66562" lon="5.69916">
        <ele>217</ele>
        <time>2017-04-24T17:06:02Z</time>
      </trkpt>
      <trkpt lat="45.66568" lon="5.69919">
        <ele>217</ele>
        <time>2017-04-24T17:06:18Z</time>
      </trkpt>
      <trkpt lat="45.66573" lon="5.69924">
        <ele>217</ele>
        <time>2017-04-24T17:06:18Z</time>
      </trkpt>
      <trkpt lat="45.66578" lon="5.69928">
        <ele>217</ele>
        <time>2017-04-24T17:06:18Z</time>
      </trkpt>
      <trkpt lat="45.66586" lon="5.69932">
        <ele>217</ele>
        <time>2017-04-24T17:06:18Z</time>
      </trkpt>
      <trkpt lat="45.66591" lon="5.69939">
        <ele>217</ele>
        <time>2017-04-24T17:06:34Z</time>
      </trkpt>
      <trkpt lat="45.66596" lon="5.69942">
        <ele>217</ele>
        <time>2017-04-24T17:06:34Z</time>
      </trkpt>
      <trkpt lat="45.66601" lon="5.69946">
        <ele>217</ele>
        <time>2017-04-24T17:06:34Z</time>
      </trkpt>
      <trkpt lat="45.666" lon="5.69955">
        <ele>217</ele>
        <time>2017-04-24T17:06:34Z</time>
      </trkpt>
      <trkpt lat="45.66599" lon="5.69965">
        <ele>217</ele>
        <time>2017-04-24T17:06:50Z</time>
      </trkpt>
      <trkpt lat="45.666" lon="5.69975">
        <ele>217</ele>
        <time>2017-04-24T17:06:50Z</time>
      </trkpt>
      <trkpt lat="45.66599" lon="5.69985">
        <ele>217</ele>
        <time>2017-04-24T17:06:50Z</time>
      </trkpt>
      <trkpt lat="45.66597" lon="5.69994">
        <ele>217</ele>
        <time>2017-04-24T17:06:50Z</time>
      </trkpt>
      <trkpt lat="45.66598" lon="5.70004">
        <ele>217</ele>
        <time>2017-04-24T17:07:06Z</time>
      </trkpt>
      <trkpt lat="45.66599" lon="5.70014">
        <ele>217</ele>
        <time>2017-04-24T17:07:06Z</time>
      </trkpt>
      <trkpt lat="45.666" lon="5.70024">
        <ele>217</ele>
        <time>2017-04-24T17:07:06Z</time>
      </trkpt>
      <trkpt lat="45.66599" lon="5.70033">
        <ele>217</ele>
        <time>2017-04-24T17:07:06Z</time>
      </trkpt>
      <trkpt lat="45.66598" lon="5.70041">
        <ele>217</ele>
        <time>2017-04-24T17:07:22Z</time>
      </trkpt>
      <trkpt lat="45.66596" lon="5.70049">
        <ele>218</ele>
        <time>2017-04-24T17:07:22Z</time>
      </trkpt>
      <trkpt lat="45.66596" lon="5.70059">
        <ele>218</ele>
        <time>2017-04-24T17:07:22Z</time>
      </trkpt>
      <trkpt lat="45.66597" lon="5.70068">
        <ele>218</ele>
        <time>2017-04-24T17:07:22Z</time>
      </trkpt>
      <trkpt lat="45.66599" lon="5.70078">
        <ele>218</ele>
        <time>2017-04-24T17:07:38Z</time>
      </trkpt>
      <trkpt lat="45.66601" lon="5.70086">
        <ele>218</ele>
        <time>2017-04-24T17:07:38Z</time>
      </trkpt>
      <trkpt lat="45.66601" lon="5.70094">
        <ele>218</ele>
        <time>2017-04-24T17:07:38Z</time>
      </trkpt>
      <trkpt lat="45.66602" lon="5.70102">
        <ele>218</ele>
        <time>2017-04-24T17:07:38Z</time>
      </trkpt>
      <trkpt lat="45.66601" lon="5.70111">
        <ele>218</ele>
        <time>2017-04-24T17:07:54Z</time>
      </trkpt>
      <trkpt lat="45.66602" lon="5.7012">
        <ele>218</ele>
        <time>2017-04-24T17:07:54Z</time>
      </trkpt>
      <trkpt lat="45.66602" lon="5.7013">
        <ele>218</ele>
        <time>2017-04-24T17:07:54Z</time>
      </trkpt>
      <trkpt lat="45.66603" lon="5.70139">
        <ele>218</ele>
        <time>2017-04-24T17:07:54Z</time>
      </trkpt>
      <trkpt lat="45.66602" lon="5.70148">
        <ele>218</ele>
        <time>2017-04-24T17:08:10Z</time>
      </trkpt>
      <trkpt lat="45.66601" lon="5.70158">
        <ele>218</ele>
        <time>2017-04-24T17:08:10Z</time>
      </trkpt>
      <trkpt lat="45.666" lon="5.70167">
        <ele>218</ele>
        <time>2017-04-24T17:08:10Z</time>
      </trkpt>
      <trkpt lat="45.66595" lon="5.70173">
        <ele>218</ele>
        <time>2017-04-24T17:08:10Z</time>
      </trkpt>
      <trkpt lat="45.66589" lon="5.70178">
        <ele>218</ele>
        <time>2017-04-24T17:08:26Z</time>
      </trkpt>
      <trkpt lat="45.66583" lon="5.70181">
        <ele>218</ele>
        <time>2017-04-24T17:08:26Z</time>
      </trkpt>
      <trkpt lat="45.66576" lon="5.70182">
        <ele>218</ele>
        <time>2017-04-24T17:08:26Z</time>
      </trkpt>
      <trkpt lat="45.66571" lon="5.70185">
        <ele>218</ele>
        <time>2017-04-24T17:08:26Z</time>
      </trkpt>
      <trkpt lat="45.66565" lon="5.70187">
        <ele>218</ele>
        <time>2017-04-24T17:08:42Z</time>
      </trkpt>
      <trkpt lat="45.66558" lon="5.70189">
        <ele>218</ele>
        <time>2017-04-24T17:08:42Z</time>
      </trkpt>
      <trkpt lat="45.66551" lon="5.70191">
        <ele>218</ele>
        <time>2017-04-24T17:08:42Z</time>
      </trkpt>
      <trkpt lat="45.66545" lon="5.70197">
        <ele>218</ele>
        <time>2017-04-24T17:08:42Z</time>
      </trkpt>
      <trkpt lat="45.66539" lon="5.702">
        <ele>218</ele>
        <time>2017-04-24T17:08:58Z</time>
      </trkpt>
      <trkpt lat="45.66533" lon="5.70203">
        <ele>218</ele>
        <time>2017-04-24T17:08:58Z</time>
      </trkpt>
      <trkpt lat="45.66527" lon="5.70208">
        <ele>218</ele>
        <time>2017-04-24T17:08:58Z</time>
      </trkpt>
      <trkpt lat="45.66521" lon="5.70213">
        <ele>218</ele>
        <time>2017-04-24T17:08:58Z</time>
      </trkpt>
      <trkpt lat="45.66518" lon="5.70218">
        <ele>218</ele>
        <time>2017-04-24T17:09:14Z</time>
      </trkpt>
      <trkpt lat="45.66519" lon="5.70225">
        <ele>218</ele>
        <time>2017-04-24T17:09:14Z</time>
      </trkpt>
      <trkpt lat="45.66523" lon="5.70232">
        <ele>218</ele>
        <time>2017-04-24T17:09:14Z</time>
      </trkpt>
      <trkpt lat="45.66528" lon="5.70239">
        <ele>218</ele>
        <time>2017-04-24T17:09:14Z</time>
      </trkpt>
      <trkpt lat="45.66534" lon="5.70245">
        <ele>218</ele>
        <time>2017-04-24T17:09:30Z</time>
      </trkpt>
      <trkpt lat="45.66537" lon="5.70252">
        <ele>218</ele>
        <time>2017-04-24T17:09:30Z</time>
      </trkpt>
      <trkpt lat="45.66543" lon="5.7026">
        <ele>218</ele>
        <time>2017-04-24T17:09:30Z</time>
      </trkpt>
      <trkpt lat="45.66545" lon="5.70268">
        <ele>218</ele>
        <time>2017-04-24T17:09:30Z</time>
      </trkpt>
      <trkpt lat="45.66546" lon="5.70276">
        <ele>218</ele>
        <time>2017-04-24T17:09:46Z</time>
      </trkpt>
      <trkpt lat="45.66549" lon="5.70284">
        <ele>218</ele>
        <time>2017-04-24T17:09:46Z</time>
      </trkpt>
      <trkpt lat="45.66553" lon="5.70292">
        <ele>219</ele>
        <time>2017-04-24T17:09:46Z</time>
      </trkpt>
      <trkpt lat="45.66557" lon="5.703">
        <ele>219</ele>
        <time>2017-04-24T17:09:46Z</time>
      </trkpt>
      <trkpt lat="45.66561" lon="5.70307">
        <ele>219</ele>
        <time>2017-04-24T17:10:02Z</time>
      </trkpt>
      <trkpt lat="45.66566" lon="5.70314">
        <ele>219</ele>
        <time>2017-04-24T17:10:02Z</time>
      </trkpt>
      <trkpt lat="45.6657" lon="5.70323">
        <ele>219</ele>
        <time>2017-04-24T17:10:02Z</time>
      </trkpt>
      <trkpt lat="45.66575" lon="5.7033">
        <ele>219</ele>
        <time>2017-04-24T17:10:02Z</time>
      </trkpt>
      <trkpt lat="45.66579" lon="5.70337">
        <ele>219</ele>
        <time>2017-04-24T17:10:18Z</time>
      </trkpt>
      <trkpt lat="45.66583" lon="5.70345">
        <ele>219</ele>
        <time>2017-04-24T17:10:18Z</time>
      </trkpt>
      <trkpt lat="45.66588" lon="5.70352">
        <ele>219</ele>
        <time>2017-04-24T17:10:18Z</time>
      </trkpt>
      <trkpt lat="45.66591" lon="5.7036">
        <ele>219</ele>
        <time>2017-04-24T17:10:18Z</time>
      </trkpt>
      <trkpt lat="45.66592" lon="5.70367">
        <ele>219</ele>
        <time>2017-04-24T17:10:34Z</time>
      </trkpt>
      <trkpt lat="45.66594" lon="5.70374">
        <ele>219</ele>
        <time>2017-04-24T17:10:34Z</time>
      </trkpt>
      <trkpt lat="45.66597" lon="5.70381">
        <ele>219</ele>
        <time>2017-04-24T17:10:34Z</time>
      </trkpt>
      <trkpt lat="45.66597" lon="5.70389">
        <ele>219</ele>
        <time>2017-04-24T17:10:34Z</time>
      </trkpt>
      <trkpt lat="45.66595" lon="5.70398">
        <ele>219</ele>
        <time>2017-04-24T17:10:50Z</time>
      </trkpt>
      <trkpt lat="45.66595" lon="5.70406">
        <ele>219</ele>
        <time>2017-04-24T17:10:50Z</time>
      </trkpt>
      <trkpt lat="45.66593" lon="5.70414">
        <ele>219</ele>
        <time>2017-04-24T17:10:50Z</time>
      </trkpt>
      <trkpt lat="45.66594" lon="5.7042">
        <ele>219</ele>
        <time>2017-04-24T17:10:50Z</time>
      </trkpt>
      <trkpt lat="45.66593" lon="5.70427">
        <ele>219</ele>
        <time>2017-04-24T17:11:06Z</time>
      </trkpt>
      <trkpt lat="45.66595" lon="5.70434">
        <ele>219</ele>
        <time>2017-04-24T17:11:06Z</time>
      </trkpt>
      <trkpt lat="45.66596" lon="5.70442">
        <ele>219</ele>
        <time>2017-04-24T17:11:06Z</time>
      </trkpt>
      <trkpt lat="45.66598" lon="5.7045">
        <ele>219</ele>
        <time>2017-04-24T17:11:06Z</time>
      </trkpt>
      <trkpt lat="45.66601" lon="5.70458">
        <ele>219</ele>
        <time>2017-04-24T17:11:22Z</time>
      </trkpt>
      <trkpt lat="45.66594" lon="5.70463">
        <ele>219</ele>
        <time>2017-04-24T17:11:22Z</time>
      </trkpt>
      <trkpt lat="45.66592" lon="5.70467">
        <ele>219</ele>
        <time>2017-04-24T17:11:22Z</time>
      </trkpt>
      <trkpt lat="45.66593" lon="5.70476">
        <ele>219</ele>
        <time>2017-04-24T17:11:22Z</time>
      </trkpt>
      <trkpt lat="45.66593" lon="5.70486">
        <ele>219</ele>
        <time>2017-04-24T17:11:42Z</time>
      </trkpt>
      <trkpt lat="45.66592" lon="5.70488">
        <ele>219</ele>
        <time>2017-04-24T17:11:42Z</time>
      </trkpt>
      <trkpt lat="45.66592" lon="5.70489">
        <ele>219</ele>
        <time>2017-04-24T17:11:42Z</time>
      </trkpt>
      <trkpt lat="45.66593" lon="5.70495">
        <ele>219</ele>
        <time>2017-04-24T17:11:42Z</time>
      </trkpt>
      <trkpt lat="45.66593" lon="5.70502">
        <ele>219</ele>
        <time>2017-04-24T17:11:42Z</time>
      </trkpt>
      <trkpt lat="45.66597" lon="5.70527">
        <ele>219</ele>
        <time>2017-04-24T17:12:14Z</time>
      </trkpt>
      <trkpt lat="45.66597" lon="5.70527">
        <ele>219</ele>
        <time>2017-04-24T17:12:14Z</time>
      </trkpt>
      <trkpt lat="45.66596" lon="5.7053">
        <ele>219</ele>
        <time>2017-04-24T17:12:14Z</time>
      </trkpt>
      <trkpt lat="45.66594" lon="5.70534">
        <ele>219</ele>
        <time>2017-04-24T17:12:14Z</time>
      </trkpt>
      <trkpt lat="45.6659" lon="5.70545">
        <ele>220</ele>
        <time>2017-04-24T17:12:14Z</time>
      </trkpt>
      <trkpt lat="45.66587" lon="5.70556">
        <ele>220</ele>
        <time>2017-04-24T17:12:30Z</time>
      </trkpt>
      <trkpt lat="45.66585" lon="5.70567">
        <ele>220</ele>
        <time>2017-04-24T17:12:30Z</time>
      </trkpt>
      <trkpt lat="45.66578" lon="5.70575">
        <ele>220</ele>
        <time>2017-04-24T17:12:30Z</time>
      </trkpt>
      <trkpt lat="45.66558" lon="5.70577">
        <ele>220</ele>
        <time>2017-04-24T17:12:30Z</time>
      </trkpt>
      <trkpt lat="45.66533" lon="5.70574">
        <ele>231</ele>
        <time>2017-04-24T17:12:46Z</time>
      </trkpt>
      <trkpt lat="45.66523" lon="5.70573">
        <ele>231</ele>
        <time>2017-04-24T17:12:46Z</time>
      </trkpt>
      <trkpt lat="45.66517" lon="5.70571">
        <ele>231</ele>
        <time>2017-04-24T17:12:46Z</time>
      </trkpt>
      <trkpt lat="45.66511" lon="5.70572">
        <ele>231</ele>
        <time>2017-04-24T17:12:46Z</time>
      </trkpt>
      <trkpt lat="45.66501" lon="5.70578">
        <ele>231</ele>
        <time>2017-04-24T17:13:18Z</time>
      </trkpt>
      <trkpt lat="45.66508" lon="5.70581">
        <ele>231</ele>
        <time>2017-04-24T17:13:18Z</time>
      </trkpt>
      <trkpt lat="45.66514" lon="5.70583">
        <ele>231</ele>
        <time>2017-04-24T17:13:18Z</time>
      </trkpt>
      <trkpt lat="45.66519" lon="5.70587">
        <ele>231</ele>
        <time>2017-04-24T17:13:18Z</time>
      </trkpt>
      <trkpt lat="45.66524" lon="5.7059">
        <ele>231</ele>
        <time>2017-04-24T17:13:18Z</time>
      </trkpt>
      <trkpt lat="45.66528" lon="5.70592">
        <ele>231</ele>
        <time>2017-04-24T17:13:34Z</time>
      </trkpt>
      <trkpt lat="45.66528" lon="5.70592">
        <ele>231</ele>
        <time>2017-04-24T17:13:34Z</time>
      </trkpt>
      <trkpt lat="45.66532" lon="5.70595">
        <ele>231</ele>
        <time>2017-04-24T17:13:34Z</time>
      </trkpt>
      <trkpt lat="45.66536" lon="5.70598">
        <ele>231</ele>
        <time>2017-04-24T17:13:34Z</time>
      </trkpt>
      <trkpt lat="45.66541" lon="5.706">
        <ele>231</ele>
        <time>2017-04-24T17:13:50Z</time>
      </trkpt>
      <trkpt lat="45.66546" lon="5.70602">
        <ele>220</ele>
        <time>2017-04-24T17:13:50Z</time>
      </trkpt>
      <trkpt lat="45.66552" lon="5.70604">
        <ele>220</ele>
        <time>2017-04-24T17:13:50Z</time>
      </trkpt>
      <trkpt lat="45.66557" lon="5.70608">
        <ele>220</ele>
        <time>2017-04-24T17:13:50Z</time>
      </trkpt>
      <trkpt lat="45.66563" lon="5.70614">
        <ele>220</ele>
        <time>2017-04-24T17:14:06Z</time>
      </trkpt>
      <trkpt lat="45.66569" lon="5.70616">
        <ele>220</ele>
        <time>2017-04-24T17:14:06Z</time>
      </trkpt>
      <trkpt lat="45.66575" lon="5.70618">
        <ele>220</ele>
        <time>2017-04-24T17:14:06Z</time>
      </trkpt>
      <trkpt lat="45.66582" lon="5.70622">
        <ele>220</ele>
        <time>2017-04-24T17:14:06Z</time>
      </trkpt>
      <trkpt lat="45.66587" lon="5.70625">
        <ele>241</ele>
        <time>2017-04-24T17:14:22Z</time>
      </trkpt>
      <trkpt lat="45.66592" lon="5.7063">
        <ele>241</ele>
        <time>2017-04-24T17:14:22Z</time>
      </trkpt>
      <trkpt lat="45.66597" lon="5.70635">
        <ele>241</ele>
        <time>2017-04-24T17:14:22Z</time>
      </trkpt>
      <trkpt lat="45.66601" lon="5.70639">
        <ele>241</ele>
        <time>2017-04-24T17:14:22Z</time>
      </trkpt>
      <trkpt lat="45.66606" lon="5.70642">
        <ele>241</ele>
        <time>2017-04-24T17:14:38Z</time>
      </trkpt>
      <trkpt lat="45.66611" lon="5.70644">
        <ele>241</ele>
        <time>2017-04-24T17:14:38Z</time>
      </trkpt>
      <trkpt lat="45.66615" lon="5.70647">
        <ele>241</ele>
        <time>2017-04-24T17:14:38Z</time>
      </trkpt>
      <trkpt lat="45.6662" lon="5.70651">
        <ele>241</ele>
        <time>2017-04-24T17:14:38Z</time>
      </trkpt>
      <trkpt lat="45.66627" lon="5.70658">
        <ele>226</ele>
        <time>2017-04-24T17:14:54Z</time>
      </trkpt>
      <trkpt lat="45.66633" lon="5.70663">
        <ele>226</ele>
        <time>2017-04-24T17:14:54Z</time>
      </trkpt>
      <trkpt lat="45.66638" lon="5.70666">
        <ele>226</ele>
        <time>2017-04-24T17:14:54Z</time>
      </trkpt>
      <trkpt lat="45.66645" lon="5.70668">
        <ele>226</ele>
        <time>2017-04-24T17:14:54Z</time>
      </trkpt>
      <trkpt lat="45.66651" lon="5.70672">
        <ele>226</ele>
        <time>2017-04-24T17:15:10Z</time>
      </trkpt>
      <trkpt lat="45.66656" lon="5.70673">
        <ele>226</ele>
        <time>2017-04-24T17:15:10Z</time>
      </trkpt>
      <trkpt lat="45.66661" lon="5.70677">
        <ele>226</ele>
        <time>2017-04-24T17:15:10Z</time>
      </trkpt>
      <trkpt lat="45.66665" lon="5.7068">
        <ele>226</ele>
        <time>2017-04-24T17:15:10Z</time>
      </trkpt>
      <trkpt lat="45.66667" lon="5.70681">
        <ele>226</ele>
        <time>2017-04-24T17:15:26Z</time>
      </trkpt>
      <trkpt lat="45.66671" lon="5.70681">
        <ele>226</ele>
        <time>2017-04-24T17:15:26Z</time>
      </trkpt>
      <trkpt lat="45.66676" lon="5.7068">
        <ele>226</ele>
        <time>2017-04-24T17:15:26Z</time>
      </trkpt>
      <trkpt lat="45.66681" lon="5.7068">
        <ele>226</ele>
        <time>2017-04-24T17:15:26Z</time>
      </trkpt>
      <trkpt lat="45.66685" lon="5.70682">
        <ele>226</ele>
        <time>2017-04-24T17:15:42Z</time>
      </trkpt>
      <trkpt lat="45.66691" lon="5.70685">
        <ele>226</ele>
        <time>2017-04-24T17:15:42Z</time>
      </trkpt>
      <trkpt lat="45.66696" lon="5.70686">
        <ele>226</ele>
        <time>2017-04-24T17:15:42Z</time>
      </trkpt>
      <trkpt lat="45.66701" lon="5.70688">
        <ele>226</ele>
        <time>2017-04-24T17:15:42Z</time>
      </trkpt>
      <trkpt lat="45.66706" lon="5.70691">
        <ele>226</ele>
        <time>2017-04-24T17:15:58Z</time>
      </trkpt>
      <trkpt lat="45.66711" lon="5.70693">
        <ele>244</ele>
        <time>2017-04-24T17:15:58Z</time>
      </trkpt>
      <trkpt lat="45.66715" lon="5.70695">
        <ele>244</ele>
        <time>2017-04-24T17:15:58Z</time>
      </trkpt>
      <trkpt lat="45.6672" lon="5.70698">
        <ele>244</ele>
        <time>2017-04-24T17:15:58Z</time>
      </trkpt>
      <trkpt lat="45.66724" lon="5.707">
        <ele>244</ele>
        <time>2017-04-24T17:16:14Z</time>
      </trkpt>
      <trkpt lat="45.66728" lon="5.70702">
        <ele>244</ele>
        <time>2017-04-24T17:16:14Z</time>
      </trkpt>
      <trkpt lat="45.66734" lon="5.70705">
        <ele>244</ele>
        <time>2017-04-24T17:16:14Z</time>
      </trkpt>
      <trkpt lat="45.66738" lon="5.70706">
        <ele>244</ele>
        <time>2017-04-24T17:16:14Z</time>
      </trkpt>
      <trkpt lat="45.66743" lon="5.70708">
        <ele>244</ele>
        <time>2017-04-24T17:16:30Z</time>
      </trkpt>
      <trkpt lat="45.66748" lon="5.70712">
        <ele>277</ele>
        <time>2017-04-24T17:16:30Z</time>
      </trkpt>
      <trkpt lat="45.66753" lon="5.70716">
        <ele>277</ele>
        <time>2017-04-24T17:16:30Z</time>
      </trkpt>
      <trkpt lat="45.66758" lon="5.70719">
        <ele>277</ele>
        <time>2017-04-24T17:16:30Z</time>
      </trkpt>
      <trkpt lat="45.66763" lon="5.7072">
        <ele>277</ele>
        <time>2017-04-24T17:16:46Z</time>
      </trkpt>
      <trkpt lat="45.66768" lon="5.70721">
        <ele>277</ele>
        <time>2017-04-24T17:16:46Z</time>
      </trkpt>
      <trkpt lat="45.66772" lon="5.70726">
        <ele>277</ele>
        <time>2017-04-24T17:16:46Z</time>
      </trkpt>
      <trkpt lat="45.66775" lon="5.7073">
        <ele>277</ele>
        <time>2017-04-24T17:16:46Z</time>
      </trkpt>
      <trkpt lat="45.6678" lon="5.70733">
        <ele>277</ele>
        <time>2017-04-24T17:17:06Z</time>
      </trkpt>
      <trkpt lat="45.66783" lon="5.70734">
        <ele>277</ele>
        <time>2017-04-24T17:17:06Z</time>
      </trkpt>
      <trkpt lat="45.66785" lon="5.70735">
        <ele>277</ele>
        <time>2017-04-24T17:17:06Z</time>
      </trkpt>
      <trkpt lat="45.66788" lon="5.70736">
        <ele>277</ele>
        <time>2017-04-24T17:17:06Z</time>
      </trkpt>
      <trkpt lat="45.66792" lon="5.7074">
        <ele>272</ele>
        <time>2017-04-24T17:17:06Z</time>
      </trkpt>
      <trkpt lat="45.66798" lon="5.70745">
        <ele>272</ele>
        <time>2017-04-24T17:17:22Z</time>
      </trkpt>
      <trkpt lat="45.66804" lon="5.70746">
        <ele>272</ele>
        <time>2017-04-24T17:17:22Z</time>
      </trkpt>
      <trkpt lat="45.6681" lon="5.70752">
        <ele>272</ele>
        <time>2017-04-24T17:17:22Z</time>
      </trkpt>
      <trkpt lat="45.66816" lon="5.70758">
        <ele>272</ele>
        <time>2017-04-24T17:17:22Z</time>
      </trkpt>
      <trkpt lat="45.66823" lon="5.70759">
        <ele>272</ele>
        <time>2017-04-24T17:17:38Z</time>
      </trkpt>
      <trkpt lat="45.66827" lon="5.70758">
        <ele>272</ele>
        <time>2017-04-24T17:17:38Z</time>
      </trkpt>
      <trkpt lat="45.6683" lon="5.70758">
        <ele>272</ele>
        <time>2017-04-24T17:17:38Z</time>
      </trkpt>
      <trkpt lat="45.66835" lon="5.70759">
        <ele>272</ele>
        <time>2017-04-24T17:17:38Z</time>
      </trkpt>
      <trkpt lat="45.66837" lon="5.70761">
        <ele>272</ele>
        <time>2017-04-24T17:17:54Z</time>
      </trkpt>
      <trkpt lat="45.66841" lon="5.70761">
        <ele>272</ele>
        <time>2017-04-24T17:17:54Z</time>
      </trkpt>
      <trkpt lat="45.66847" lon="5.70766">
        <ele>272</ele>
        <time>2017-04-24T17:17:54Z</time>
      </trkpt>
      <trkpt lat="45.66853" lon="5.70772">
        <ele>272</ele>
        <time>2017-04-24T17:17:54Z</time>
      </trkpt>
      <trkpt lat="45.66858" lon="5.70776">
        <ele>272</ele>
        <time>2017-04-24T17:18:10Z</time>
      </trkpt>
      <trkpt lat="45.66864" lon="5.70784">
        <ele>272</ele>
        <time>2017-04-24T17:18:10Z</time>
      </trkpt>
      <trkpt lat="45.66869" lon="5.70789">
        <ele>272</ele>
        <time>2017-04-24T17:18:10Z</time>
      </trkpt>
      <trkpt lat="45.66873" lon="5.70793">
        <ele>307</ele>
        <time>2017-04-24T17:18:10Z</time>
      </trkpt>
      <trkpt lat="45.66877" lon="5.70799">
        <ele>296</ele>
        <time>2017-04-24T17:18:26Z</time>
      </trkpt>
      <trkpt lat="45.66882" lon="5.70804">
        <ele>296</ele>
        <time>2017-04-24T17:18:26Z</time>
      </trkpt>
      <trkpt lat="45.66888" lon="5.70808">
        <ele>296</ele>
        <time>2017-04-24T17:18:26Z</time>
      </trkpt>
      <trkpt lat="45.66892" lon="5.70811">
        <ele>296</ele>
        <time>2017-04-24T17:18:26Z</time>
      </trkpt>
      <trkpt lat="45.66897" lon="5.70815">
        <ele>296</ele>
        <time>2017-04-24T17:18:42Z</time>
      </trkpt>
      <trkpt lat="45.66902" lon="5.70817">
        <ele>296</ele>
        <time>2017-04-24T17:18:42Z</time>
      </trkpt>
      <trkpt lat="45.66908" lon="5.7082">
        <ele>296</ele>
        <time>2017-04-24T17:18:42Z</time>
      </trkpt>
      <trkpt lat="45.66914" lon="5.70823">
        <ele>296</ele>
        <time>2017-04-24T17:18:42Z</time>
      </trkpt>
      <trkpt lat="45.6692" lon="5.70827">
        <ele>296</ele>
        <time>2017-04-24T17:18:58Z</time>
      </trkpt>
      <trkpt lat="45.66925" lon="5.70831">
        <ele>296</ele>
        <time>2017-04-24T17:18:58Z</time>
      </trkpt>
      <trkpt lat="45.6693" lon="5.70833">
        <ele>296</ele>
        <time>2017-04-24T17:18:58Z</time>
      </trkpt>
      <trkpt lat="45.66936" lon="5.70833">
        <ele>296</ele>
        <time>2017-04-24T17:18:58Z</time>
      </trkpt>
      <trkpt lat="45.66942" lon="5.70835">
        <ele>296</ele>
        <time>2017-04-24T17:19:14Z</time>
      </trkpt>
      <trkpt lat="45.66947" lon="5.7084">
        <ele>296</ele>
        <time>2017-04-24T17:19:14Z</time>
      </trkpt>
      <trkpt lat="45.66953" lon="5.70844">
        <ele>296</ele>
        <time>2017-04-24T17:19:14Z</time>
      </trkpt>
      <trkpt lat="45.66958" lon="5.70848">
        <ele>296</ele>
        <time>2017-04-24T17:19:14Z</time>
      </trkpt>
      <trkpt lat="45.66963" lon="5.70852">
        <ele>278</ele>
        <time>2017-04-24T17:19:30Z</time>
      </trkpt>
      <trkpt lat="45.66966" lon="5.70857">
        <ele>278</ele>
        <time>2017-04-24T17:19:30Z</time>
      </trkpt>
      <trkpt lat="45.6697" lon="5.7086">
        <ele>278</ele>
        <time>2017-04-24T17:19:30Z</time>
      </trkpt>
      <trkpt lat="45.66975" lon="5.70859">
        <ele>278</ele>
        <time>2017-04-24T17:19:30Z</time>
      </trkpt>
      <trkpt lat="45.66978" lon="5.70863">
        <ele>278</ele>
        <time>2017-04-24T17:19:46Z</time>
      </trkpt>
      <trkpt lat="45.66984" lon="5.70866">
        <ele>278</ele>
        <time>2017-04-24T17:19:46Z</time>
      </trkpt>
      <trkpt lat="45.66989" lon="5.70867">
        <ele>278</ele>
        <time>2017-04-24T17:19:46Z</time>
      </trkpt>
      <trkpt lat="45.66995" lon="5.7087">
        <ele>278</ele>
        <time>2017-04-24T17:19:46Z</time>
      </trkpt>
      <trkpt lat="45.67001" lon="5.70871">
        <ele>278</ele>
        <time>2017-04-24T17:20:02Z</time>
      </trkpt>
      <trkpt lat="45.67006" lon="5.70873">
        <ele>278</ele>
        <time>2017-04-24T17:20:02Z</time>
      </trkpt>
      <trkpt lat="45.67011" lon="5.70876">
        <ele>320</ele>
        <time>2017-04-24T17:20:02Z</time>
      </trkpt>
      <trkpt lat="45.67018" lon="5.70879">
        <ele>320</ele>
        <time>2017-04-24T17:20:02Z</time>
      </trkpt>
      <trkpt lat="45.67024" lon="5.7088">
        <ele>320</ele>
        <time>2017-04-24T17:20:18Z</time>
      </trkpt>
      <trkpt lat="45.67029" lon="5.7088">
        <ele>320</ele>
        <time>2017-04-24T17:20:18Z</time>
      </trkpt>
      <trkpt lat="45.67033" lon="5.70884">
        <ele>320</ele>
        <time>2017-04-24T17:20:18Z</time>
      </trkpt>
      <trkpt lat="45.67037" lon="5.70887">
        <ele>320</ele>
        <time>2017-04-24T17:20:18Z</time>
      </trkpt>
      <trkpt lat="45.67041" lon="5.70889">
        <ele>320</ele>
        <time>2017-04-24T17:20:34Z</time>
      </trkpt>
      <trkpt lat="45.67044" lon="5.70888">
        <ele>310</ele>
        <time>2017-04-24T17:20:34Z</time>
      </trkpt>
      <trkpt lat="45.6705" lon="5.70892">
        <ele>310</ele>
        <time>2017-04-24T17:20:34Z</time>
      </trkpt>
      <trkpt lat="45.67058" lon="5.70895">
        <ele>310</ele>
        <time>2017-04-24T17:20:34Z</time>
      </trkpt>
      <trkpt lat="45.67063" lon="5.70898">
        <ele>310</ele>
        <time>2017-04-24T17:20:50Z</time>
      </trkpt>
      <trkpt lat="45.67068" lon="5.709">
        <ele>310</ele>
        <time>2017-04-24T17:20:50Z</time>
      </trkpt>
      <trkpt lat="45.67074" lon="5.70903">
        <ele>310</ele>
        <time>2017-04-24T17:20:50Z</time>
      </trkpt>
      <trkpt lat="45.67079" lon="5.70906">
        <ele>310</ele>
        <time>2017-04-24T17:20:50Z</time>
      </trkpt>
      <trkpt lat="45.67084" lon="5.7091">
        <ele>310</ele>
        <time>2017-04-24T17:21:06Z</time>
      </trkpt>
      <trkpt lat="45.67087" lon="5.70913">
        <ele>310</ele>
        <time>2017-04-24T17:21:06Z</time>
      </trkpt>
      <trkpt lat="45.67092" lon="5.70917">
        <ele>310</ele>
        <time>2017-04-24T17:21:06Z</time>
      </trkpt>
      <trkpt lat="45.67097" lon="5.70921">
        <ele>310</ele>
        <time>2017-04-24T17:21:06Z</time>
      </trkpt>
      <trkpt lat="45.67101" lon="5.70923">
        <ele>310</ele>
        <time>2017-04-24T17:21:22Z</time>
      </trkpt>
      <trkpt lat="45.67106" lon="5.70927">
        <ele>310</ele>
        <time>2017-04-24T17:21:22Z</time>
      </trkpt>
      <trkpt lat="45.67112" lon="5.70931">
        <ele>310</ele>
        <time>2017-04-24T17:21:22Z</time>
      </trkpt>
      <trkpt lat="45.67117" lon="5.70934">
        <ele>310</ele>
        <time>2017-04-24T17:21:22Z</time>
      </trkpt>
      <trkpt lat="45.67122" lon="5.70937">
        <ele>310</ele>
        <time>2017-04-24T17:21:38Z</time>
      </trkpt>
      <trkpt lat="45.67127" lon="5.70942">
        <ele>292</ele>
        <time>2017-04-24T17:21:38Z</time>
      </trkpt>
      <trkpt lat="45.67132" lon="5.70946">
        <ele>292</ele>
        <time>2017-04-24T17:21:38Z</time>
      </trkpt>
      <trkpt lat="45.67137" lon="5.70948">
        <ele>292</ele>
        <time>2017-04-24T17:21:38Z</time>
      </trkpt>
      <trkpt lat="45.6714" lon="5.70954">
        <ele>292</ele>
        <time>2017-04-24T17:21:54Z</time>
      </trkpt>
      <trkpt lat="45.67143" lon="5.7096">
        <ele>327</ele>
        <time>2017-04-24T17:21:54Z</time>
      </trkpt>
      <trkpt lat="45.67144" lon="5.70966">
        <ele>327</ele>
        <time>2017-04-24T17:21:54Z</time>
      </trkpt>
      <trkpt lat="45.67144" lon="5.70973">
        <ele>327</ele>
        <time>2017-04-24T17:21:54Z</time>
      </trkpt>
      <trkpt lat="45.67146" lon="5.70978">
        <ele>327</ele>
        <time>2017-04-24T17:22:10Z</time>
      </trkpt>
      <trkpt lat="45.67148" lon="5.70983">
        <ele>327</ele>
        <time>2017-04-24T17:22:10Z</time>
      </trkpt>
      <trkpt lat="45.67149" lon="5.70988">
        <ele>327</ele>
        <time>2017-04-24T17:22:10Z</time>
      </trkpt>
      <trkpt lat="45.67152" lon="5.70994">
        <ele>327</ele>
        <time>2017-04-24T17:22:10Z</time>
      </trkpt>
      <trkpt lat="45.67157" lon="5.70999">
        <ele>327</ele>
        <time>2017-04-24T17:22:26Z</time>
      </trkpt>
      <trkpt lat="45.67159" lon="5.71001">
        <ele>327</ele>
        <time>2017-04-24T17:22:26Z</time>
      </trkpt>
      <trkpt lat="45.67164" lon="5.71002">
        <ele>327</ele>
        <time>2017-04-24T17:22:26Z</time>
      </trkpt>
      <trkpt lat="45.67171" lon="5.71004">
        <ele>327</ele>
        <time>2017-04-24T17:22:26Z</time>
      </trkpt>
      <trkpt lat="45.67177" lon="5.71004">
        <ele>327</ele>
        <time>2017-04-24T17:22:42Z</time>
      </trkpt>
      <trkpt lat="45.67183" lon="5.71004">
        <ele>327</ele>
        <time>2017-04-24T17:22:42Z</time>
      </trkpt>
      <trkpt lat="45.67187" lon="5.71001">
        <ele>327</ele>
        <time>2017-04-24T17:22:42Z</time>
      </trkpt>
      <trkpt lat="45.6719" lon="5.70996">
        <ele>327</ele>
        <time>2017-04-24T17:22:42Z</time>
      </trkpt>
      <trkpt lat="45.67195" lon="5.70991">
        <ele>327</ele>
        <time>2017-04-24T17:22:58Z</time>
      </trkpt>
      <trkpt lat="45.672" lon="5.70988">
        <ele>327</ele>
        <time>2017-04-24T17:22:58Z</time>
      </trkpt>
      <trkpt lat="45.67206" lon="5.70987">
        <ele>327</ele>
        <time>2017-04-24T17:22:58Z</time>
      </trkpt>
      <trkpt lat="45.67211" lon="5.70988">
        <ele>334</ele>
        <time>2017-04-24T17:22:58Z</time>
      </trkpt>
      <trkpt lat="45.67218" lon="5.70991">
        <ele>334</ele>
        <time>2017-04-24T17:23:18Z</time>
      </trkpt>
      <trkpt lat="45.67223" lon="5.70993">
        <ele>334</ele>
        <time>2017-04-24T17:23:18Z</time>
      </trkpt>
      <trkpt lat="45.67225" lon="5.70992">
        <ele>334</ele>
        <time>2017-04-24T17:23:18Z</time>
      </trkpt>
      <trkpt lat="45.67226" lon="5.70991">
        <ele>334</ele>
        <time>2017-04-24T17:23:18Z</time>
      </trkpt>
      <trkpt lat="45.6723" lon="5.70991">
        <ele>334</ele>
        <time>2017-04-24T17:23:18Z</time>
      </trkpt>
      <trkpt lat="45.67234" lon="5.70992">
        <ele>334</ele>
        <time>2017-04-24T17:23:34Z</time>
      </trkpt>
      <trkpt lat="45.67237" lon="5.70993">
        <ele>334</ele>
        <time>2017-04-24T17:23:34Z</time>
      </trkpt>
      <trkpt lat="45.67242" lon="5.70995">
        <ele>334</ele>
        <time>2017-04-24T17:23:34Z</time>
      </trkpt>
      <trkpt lat="45.67246" lon="5.70995">
        <ele>334</ele>
        <time>2017-04-24T17:23:34Z</time>
      </trkpt>
      <trkpt lat="45.6725" lon="5.70996">
        <ele>334</ele>
        <time>2017-04-24T17:23:54Z</time>
      </trkpt>
      <trkpt lat="45.67253" lon="5.70995">
        <ele>334</ele>
        <time>2017-04-24T17:23:54Z</time>
      </trkpt>
      <trkpt lat="45.67256" lon="5.70996">
        <ele>334</ele>
        <time>2017-04-24T17:23:54Z</time>
      </trkpt>
      <trkpt lat="45.67259" lon="5.70996">
        <ele>334</ele>
        <time>2017-04-24T17:23:54Z</time>
      </trkpt>
      <trkpt lat="45.67263" lon="5.70995">
        <ele>334</ele>
        <time>2017-04-24T17:23:54Z</time>
      </trkpt>
      <trkpt lat="45.67269" lon="5.71001">
        <ele>334</ele>
        <time>2017-04-24T17:24:10Z</time>
      </trkpt>
      <trkpt lat="45.67275" lon="5.71005">
        <ele>334</ele>
        <time>2017-04-24T17:24:10Z</time>
      </trkpt>
      <trkpt lat="45.67281" lon="5.71009">
        <ele>334</ele>
        <time>2017-04-24T17:24:10Z</time>
      </trkpt>
      <trkpt lat="45.67287" lon="5.7101">
        <ele>334</ele>
        <time>2017-04-24T17:24:10Z</time>
      </trkpt>
      <trkpt lat="45.67292" lon="5.7101">
        <ele>341</ele>
        <time>2017-04-24T17:24:26Z</time>
      </trkpt>
      <trkpt lat="45.67296" lon="5.7101">
        <ele>341</ele>
        <time>2017-04-24T17:24:26Z</time>
      </trkpt>
      <trkpt lat="45.67303" lon="5.71015">
        <ele>341</ele>
        <time>2017-04-24T17:24:26Z</time>
      </trkpt>
      <trkpt lat="45.67311" lon="5.71022">
        <ele>341</ele>
        <time>2017-04-24T17:24:26Z</time>
      </trkpt>
      <trkpt lat="45.67315" lon="5.71027">
        <ele>341</ele>
        <time>2017-04-24T17:24:42Z</time>
      </trkpt>
      <trkpt lat="45.6732" lon="5.71031">
        <ele>341</ele>
        <time>2017-04-24T17:24:42Z</time>
      </trkpt>
      <trkpt lat="45.67325" lon="5.71033">
        <ele>341</ele>
        <time>2017-04-24T17:24:42Z</time>
      </trkpt>
      <trkpt lat="45.67328" lon="5.71035">
        <ele>341</ele>
        <time>2017-04-24T17:24:42Z</time>
      </trkpt>
      <trkpt lat="45.67335" lon="5.71037">
        <ele>341</ele>
        <time>2017-04-24T17:25:50Z</time>
      </trkpt>
      <trkpt lat="45.67335" lon="5.71038">
        <ele>341</ele>
        <time>2017-04-24T17:25:50Z</time>
      </trkpt>
      <trkpt lat="45.67335" lon="5.71038">
        <ele>341</ele>
        <time>2017-04-24T17:25:50Z</time>
      </trkpt>
      <trkpt lat="45.67335" lon="5.71038">
        <ele>341</ele>
        <time>2017-04-24T17:25:50Z</time>
      </trkpt>
      <trkpt lat="45.67342" lon="5.71039">
        <ele>341</ele>
        <time>2017-04-24T17:25:50Z</time>
      </trkpt>
      <trkpt lat="45.67348" lon="5.71043">
        <ele>376</ele>
        <time>2017-04-24T17:26:06Z</time>
      </trkpt>
      <trkpt lat="45.67357" lon="5.71046">
        <ele>376</ele>
        <time>2017-04-24T17:26:06Z</time>
      </trkpt>
      <trkpt lat="45.67362" lon="5.71048">
        <ele>376</ele>
        <time>2017-04-24T17:26:06Z</time>
      </trkpt>
      <trkpt lat="45.67368" lon="5.7105">
        <ele>376</ele>
        <time>2017-04-24T17:26:06Z</time>
      </trkpt>
      <trkpt lat="45.67371" lon="5.71055">
        <ele>376</ele>
        <time>2017-04-24T17:26:22Z</time>
      </trkpt>
      <trkpt lat="45.67376" lon="5.71058">
        <ele>373</ele>
        <time>2017-04-24T17:26:22Z</time>
      </trkpt>
      <trkpt lat="45.6738" lon="5.71061">
        <ele>373</ele>
        <time>2017-04-24T17:26:22Z</time>
      </trkpt>
      <trkpt lat="45.67383" lon="5.71063">
        <ele>373</ele>
        <time>2017-04-24T17:26:22Z</time>
      </trkpt>
      <trkpt lat="45.67386" lon="5.71065">
        <ele>373</ele>
        <time>2017-04-24T17:26:38Z</time>
      </trkpt>
      <trkpt lat="45.67391" lon="5.71067">
        <ele>373</ele>
        <time>2017-04-24T17:26:38Z</time>
      </trkpt>
      <trkpt lat="45.67396" lon="5.7107">
        <ele>373</ele>
        <time>2017-04-24T17:26:38Z</time>
      </trkpt>
      <trkpt lat="45.67401" lon="5.71075">
        <ele>373</ele>
        <time>2017-04-24T17:26:38Z</time>
      </trkpt>
      <trkpt lat="45.67405" lon="5.71077">
        <ele>373</ele>
        <time>2017-04-24T17:26:54Z</time>
      </trkpt>
      <trkpt lat="45.67411" lon="5.71079">
        <ele>373</ele>
        <time>2017-04-24T17:26:54Z</time>
      </trkpt>
      <trkpt lat="45.67416" lon="5.71081">
        <ele>373</ele>
        <time>2017-04-24T17:26:54Z</time>
      </trkpt>
      <trkpt lat="45.67419" lon="5.71084">
        <ele>373</ele>
        <time>2017-04-24T17:26:54Z</time>
      </trkpt>
      <trkpt lat="45.67423" lon="5.71086">
        <ele>373</ele>
        <time>2017-04-24T17:27:10Z</time>
      </trkpt>
      <trkpt lat="45.67425" lon="5.7109">
        <ele>373</ele>
        <time>2017-04-24T17:27:10Z</time>
      </trkpt>
      <trkpt lat="45.67429" lon="5.71093">
        <ele>373</ele>
        <time>2017-04-24T17:27:10Z</time>
      </trkpt>
      <trkpt lat="45.67432" lon="5.71098">
        <ele>373</ele>
        <time>2017-04-24T17:27:10Z</time>
      </trkpt>
      <trkpt lat="45.67437" lon="5.71101">
        <ele>373</ele>
        <time>2017-04-24T17:27:26Z</time>
      </trkpt>
      <trkpt lat="45.67441" lon="5.71104">
        <ele>373</ele>
        <time>2017-04-24T17:27:26Z</time>
      </trkpt>
      <trkpt lat="45.67446" lon="5.71108">
        <ele>373</ele>
        <time>2017-04-24T17:27:26Z</time>
      </trkpt>
      <trkpt lat="45.67451" lon="5.7111">
        <ele>373</ele>
        <time>2017-04-24T17:27:26Z</time>
      </trkpt>
      <trkpt lat="45.67457" lon="5.71111">
        <ele>373</ele>
        <time>2017-04-24T17:27:42Z</time>
      </trkpt>
      <trkpt lat="45.67462" lon="5.71112">
        <ele>377</ele>
        <time>2017-04-24T17:27:42Z</time>
      </trkpt>
      <trkpt lat="45.67466" lon="5.71115">
        <ele>377</ele>
        <time>2017-04-24T17:27:42Z</time>
      </trkpt>
      <trkpt lat="45.6747" lon="5.71121">
        <ele>377</ele>
        <time>2017-04-24T17:27:42Z</time>
      </trkpt>
      <trkpt lat="45.67473" lon="5.71125">
        <ele>377</ele>
        <time>2017-04-24T17:27:58Z</time>
      </trkpt>
      <trkpt lat="45.67475" lon="5.71126">
        <ele>405</ele>
        <time>2017-04-24T17:27:58Z</time>
      </trkpt>
      <trkpt lat="45.6748" lon="5.71129">
        <ele>405</ele>
        <time>2017-04-24T17:27:58Z</time>
      </trkpt>
      <trkpt lat="45.67486" lon="5.71134">
        <ele>405</ele>
        <time>2017-04-24T17:27:58Z</time>
      </trkpt>
      <trkpt lat="45.67491" lon="5.71137">
        <ele>405</ele>
        <time>2017-04-24T17:28:14Z</time>
      </trkpt>
      <trkpt lat="45.67495" lon="5.71138">
        <ele>405</ele>
        <time>2017-04-24T17:28:14Z</time>
      </trkpt>
      <trkpt lat="45.67499" lon="5.71141">
        <ele>405</ele>
        <time>2017-04-24T17:28:14Z</time>
      </trkpt>
      <trkpt lat="45.67504" lon="5.71143">
        <ele>405</ele>
        <time>2017-04-24T17:28:14Z</time>
      </trkpt>
      <trkpt lat="45.67513" lon="5.71145">
        <ele>405</ele>
        <time>2017-04-24T17:28:30Z</time>
      </trkpt>
      <trkpt lat="45.67518" lon="5.71151">
        <ele>405</ele>
        <time>2017-04-24T17:28:30Z</time>
      </trkpt>
      <trkpt lat="45.67522" lon="5.71153">
        <ele>405</ele>
        <time>2017-04-24T17:28:30Z</time>
      </trkpt>
      <trkpt lat="45.67526" lon="5.71154">
        <ele>405</ele>
        <time>2017-04-24T17:28:30Z</time>
      </trkpt>
      <trkpt lat="45.67534" lon="5.71163">
        <ele>405</ele>
        <time>2017-04-24T17:30:10Z</time>
      </trkpt>
      <trkpt lat="45.67534" lon="5.71163">
        <ele>405</ele>
        <time>2017-04-24T17:30:10Z</time>
      </trkpt>
      <trkpt lat="45.67534" lon="5.71164">
        <ele>405</ele>
        <time>2017-04-24T17:30:10Z</time>
      </trkpt>
      <trkpt lat="45.67539" lon="5.7117">
        <ele>405</ele>
        <time>2017-04-24T17:30:10Z</time>
      </trkpt>
      <trkpt lat="45.67544" lon="5.71172">
        <ele>407</ele>
        <time>2017-04-24T17:30:10Z</time>
      </trkpt>
      <trkpt lat="45.67554" lon="5.71176">
        <ele>407</ele>
        <time>2017-04-24T17:30:46Z</time>
      </trkpt>
      <trkpt lat="45.67557" lon="5.71177">
        <ele>407</ele>
        <time>2017-04-24T17:30:46Z</time>
      </trkpt>
      <trkpt lat="45.67562" lon="5.71176">
        <ele>407</ele>
        <time>2017-04-24T17:30:46Z</time>
      </trkpt>
      <trkpt lat="45.67576" lon="5.71179">
        <ele>407</ele>
        <time>2017-04-24T17:30:46Z</time>
      </trkpt>
      <trkpt lat="45.67583" lon="5.7118">
        <ele>407</ele>
        <time>2017-04-24T17:30:46Z</time>
      </trkpt>
      <trkpt lat="45.67587" lon="5.71178">
        <ele>407</ele>
        <time>2017-04-24T17:31:42Z</time>
      </trkpt>
      <trkpt lat="45.67587" lon="5.71178">
        <ele>407</ele>
        <time>2017-04-24T17:31:42Z</time>
      </trkpt>
      <trkpt lat="45.67588" lon="5.71178">
        <ele>407</ele>
        <time>2017-04-24T17:31:42Z</time>
      </trkpt>
      <trkpt lat="45.67588" lon="5.71178">
        <ele>407</ele>
        <time>2017-04-24T17:31:42Z</time>
      </trkpt>
      <trkpt lat="45.67595" lon="5.71184">
        <ele>407</ele>
        <time>2017-04-24T17:31:42Z</time>
      </trkpt>
      <trkpt lat="45.6761" lon="5.71192">
        <ele>407</ele>
        <time>2017-04-24T17:31:58Z</time>
      </trkpt>
      <trkpt lat="45.6762" lon="5.71195">
        <ele>407</ele>
        <time>2017-04-24T17:31:58Z</time>
      </trkpt>
      <trkpt lat="45.67626" lon="5.71194">
        <ele>408</ele>
        <time>2017-04-24T17:31:58Z</time>
      </trkpt>
      <trkpt lat="45.6763" lon="5.71195">
        <ele>408</ele>
        <time>2017-04-24T17:31:58Z</time>
      </trkpt>
      <trkpt lat="45.67632" lon="5.71199">
        <ele>408</ele>
        <time>2017-04-24T17:32:14Z</time>
      </trkpt>
      <trkpt lat="45.67634" lon="5.71207">
        <ele>408</ele>
        <time>2017-04-24T17:32:14Z</time>
      </trkpt>
      <trkpt lat="45.67634" lon="5.71214">
        <ele>417</ele>
        <time>2017-04-24T17:32:14Z</time>
      </trkpt>
      <trkpt lat="45.67637" lon="5.71221">
        <ele>417</ele>
        <time>2017-04-24T17:32:14Z</time>
      </trkpt>
      <trkpt lat="45.67642" lon="5.71228">
        <ele>417</ele>
        <time>2017-04-24T17:32:30Z</time>
      </trkpt>
      <trkpt lat="45.67649" lon="5.71234">
        <ele>417</ele>
        <time>2017-04-24T17:32:30Z</time>
      </trkpt>
      <trkpt lat="45.67653" lon="5.71241">
        <ele>417</ele>
        <time>2017-04-24T17:32:30Z</time>
      </trkpt>
      <trkpt lat="45.67656" lon="5.71247">
        <ele>417</ele>
        <time>2017-04-24T17:32:30Z</time>
      </trkpt>
      <trkpt lat="45.67662" lon="5.71251">
        <ele>417</ele>
        <time>2017-04-24T17:32:46Z</time>
      </trkpt>
      <trkpt lat="45.67667" lon="5.71255">
        <ele>417</ele>
        <time>2017-04-24T17:32:46Z</time>
      </trkpt>
      <trkpt lat="45.67672" lon="5.71259">
        <ele>417</ele>
        <time>2017-04-24T17:32:46Z</time>
      </trkpt>
      <trkpt lat="45.67676" lon="5.71262">
        <ele>417</ele>
        <time>2017-04-24T17:32:46Z</time>
      </trkpt>
      <trkpt lat="45.6768" lon="5.71267">
        <ele>417</ele>
        <time>2017-04-24T17:33:02Z</time>
      </trkpt>
      <trkpt lat="45.67685" lon="5.71273">
        <ele>417</ele>
        <time>2017-04-24T17:33:02Z</time>
      </trkpt>
      <trkpt lat="45.67689" lon="5.71277">
        <ele>417</ele>
        <time>2017-04-24T17:33:02Z</time>
      </trkpt>
      <trkpt lat="45.67694" lon="5.71279">
        <ele>417</ele>
        <time>2017-04-24T17:33:02Z</time>
      </trkpt>
      <trkpt lat="45.67698" lon="5.71282">
        <ele>417</ele>
        <time>2017-04-24T17:35:10Z</time>
      </trkpt>
      <trkpt lat="45.67698" lon="5.71283">
        <ele>417</ele>
        <time>2017-04-24T17:35:10Z</time>
      </trkpt>
      <trkpt lat="45.67682" lon="5.71284">
        <ele>417</ele>
        <time>2017-04-24T17:35:10Z</time>
      </trkpt>
      <trkpt lat="45.6768" lon="5.71284">
        <ele>417</ele>
        <time>2017-04-24T17:35:10Z</time>
      </trkpt>
      <trkpt lat="45.6768" lon="5.71284">
        <ele>417</ele>
        <time>2017-04-24T17:35:10Z</time>
      </trkpt>
      <trkpt lat="45.67681" lon="5.71285">
        <ele>417</ele>
        <time>2017-04-24T17:38:02Z</time>
      </trkpt>
      <trkpt lat="45.67681" lon="5.71285">
        <ele>417</ele>
        <time>2017-04-24T17:38:02Z</time>
      </trkpt>
      <trkpt lat="45.67683" lon="5.71288">
        <ele>417</ele>
        <time>2017-04-24T17:38:02Z</time>
      </trkpt>
      <trkpt lat="45.67687" lon="5.7129">
        <ele>417</ele>
        <time>2017-04-24T17:38:02Z</time>
      </trkpt>
      <trkpt lat="45.67693" lon="5.71292">
        <ele>417</ele>
        <time>2017-04-24T17:38:02Z</time>
      </trkpt>
      <trkpt lat="45.67698" lon="5.71293">
        <ele>443</ele>
        <time>2017-04-24T17:38:18Z</time>
      </trkpt>
      <trkpt lat="45.67703" lon="5.71294">
        <ele>443</ele>
        <time>2017-04-24T17:38:18Z</time>
      </trkpt>
      <trkpt lat="45.67708" lon="5.713">
        <ele>443</ele>
        <time>2017-04-24T17:38:18Z</time>
      </trkpt>
      <trkpt lat="45.67712" lon="5.71302">
        <ele>437</ele>
        <time>2017-04-24T17:38:18Z</time>
      </trkpt>
      <trkpt lat="45.67717" lon="5.71303">
        <ele>437</ele>
        <time>2017-04-24T17:38:46Z</time>
      </trkpt>
      <trkpt lat="45.67712" lon="5.71305">
        <ele>437</ele>
        <time>2017-04-24T17:38:46Z</time>
      </trkpt>
      <trkpt lat="45.67705" lon="5.71303">
        <ele>443</ele>
        <time>2017-04-24T17:38:46Z</time>
      </trkpt>
      <trkpt lat="45.67697" lon="5.71309">
        <ele>443</ele>
        <time>2017-04-24T17:38:46Z</time>
      </trkpt>
      <trkpt lat="45.6769" lon="5.71314">
        <ele>443</ele>
        <time>2017-04-24T17:38:46Z</time>
      </trkpt>
      <trkpt lat="45.67688" lon="5.71318">
        <ele>443</ele>
        <time>2017-04-24T17:39:18Z</time>
      </trkpt>
      <trkpt lat="45.67688" lon="5.71319">
        <ele>443</ele>
        <time>2017-04-24T17:39:18Z</time>
      </trkpt>
      <trkpt lat="45.67686" lon="5.71319">
        <ele>443</ele>
        <time>2017-04-24T17:39:18Z</time>
      </trkpt>
      <trkpt lat="45.67682" lon="5.71318">
        <ele>443</ele>
        <time>2017-04-24T17:39:18Z</time>
      </trkpt>
      <trkpt lat="45.67677" lon="5.71318">
        <ele>443</ele>
        <time>2017-04-24T17:39:18Z</time>
      </trkpt>
      <trkpt lat="45.67676" lon="5.71319">
        <ele>443</ele>
        <time>2017-04-24T17:39:38Z</time>
      </trkpt>
      <trkpt lat="45.67675" lon="5.71319">
        <ele>443</ele>
        <time>2017-04-24T17:39:38Z</time>
      </trkpt>
      <trkpt lat="45.67674" lon="5.71319">
        <ele>443</ele>
        <time>2017-04-24T17:39:38Z</time>
      </trkpt>
      <trkpt lat="45.67669" lon="5.7132">
        <ele>443</ele>
        <time>2017-04-24T17:39:38Z</time>
      </trkpt>
      <trkpt lat="45.67663" lon="5.7132">
        <ele>443</ele>
        <time>2017-04-24T17:39:38Z</time>
      </trkpt>
      <trkpt lat="45.67658" lon="5.71315">
        <ele>443</ele>
        <time>2017-04-24T17:39:54Z</time>
      </trkpt>
      <trkpt lat="45.6765" lon="5.71313">
        <ele>443</ele>
        <time>2017-04-24T17:39:54Z</time>
      </trkpt>
      <trkpt lat="45.67633" lon="5.7131">
        <ele>443</ele>
        <time>2017-04-24T17:39:54Z</time>
      </trkpt>
      <trkpt lat="45.6762" lon="5.71311">
        <ele>457</ele>
        <time>2017-04-24T17:39:54Z</time>
      </trkpt>
      <trkpt lat="45.67614" lon="5.71315">
        <ele>457</ele>
        <time>2017-04-24T17:40:10Z</time>
      </trkpt>
      <trkpt lat="45.67611" lon="5.71316">
        <ele>457</ele>
        <time>2017-04-24T17:40:10Z</time>
      </trkpt>
      <trkpt lat="45.67608" lon="5.71318">
        <ele>457</ele>
        <time>2017-04-24T17:40:10Z</time>
      </trkpt>
      <trkpt lat="45.67601" lon="5.71317">
        <ele>457</ele>
        <time>2017-04-24T17:40:10Z</time>
      </trkpt>
      <trkpt lat="45.67596" lon="5.7132">
        <ele>457</ele>
        <time>2017-04-24T17:40:26Z</time>
      </trkpt>
      <trkpt lat="45.6759" lon="5.71322">
        <ele>457</ele>
        <time>2017-04-24T17:40:26Z</time>
      </trkpt>
      <trkpt lat="45.67586" lon="5.71325">
        <ele>457</ele>
        <time>2017-04-24T17:40:26Z</time>
      </trkpt>
      <trkpt lat="45.67579" lon="5.71324">
        <ele>457</ele>
        <time>2017-04-24T17:40:26Z</time>
      </trkpt>
      <trkpt lat="45.67576" lon="5.71321">
        <ele>457</ele>
        <time>2017-04-24T17:40:50Z</time>
      </trkpt>
      <trkpt lat="45.67575" lon="5.71319">
        <ele>457</ele>
        <time>2017-04-24T17:40:50Z</time>
      </trkpt>
      <trkpt lat="45.67573" lon="5.71321">
        <ele>457</ele>
        <time>2017-04-24T17:40:50Z</time>
      </trkpt>
      <trkpt lat="45.67571" lon="5.71321">
        <ele>457</ele>
        <time>2017-04-24T17:40:50Z</time>
      </trkpt>
      <trkpt lat="45.67558" lon="5.71327">
        <ele>457</ele>
        <time>2017-04-24T17:40:50Z</time>
      </trkpt>
      <trkpt lat="45.67551" lon="5.71327">
        <ele>457</ele>
        <time>2017-04-24T17:41:10Z</time>
      </trkpt>
      <trkpt lat="45.6755" lon="5.71326">
        <ele>457</ele>
        <time>2017-04-24T17:41:10Z</time>
      </trkpt>
      <trkpt lat="45.67549" lon="5.71325">
        <ele>457</ele>
        <time>2017-04-24T17:41:10Z</time>
      </trkpt>
      <trkpt lat="45.67545" lon="5.71323">
        <ele>457</ele>
        <time>2017-04-24T17:41:10Z</time>
      </trkpt>
      <trkpt lat="45.67538" lon="5.71322">
        <ele>472</ele>
        <time>2017-04-24T17:41:10Z</time>
      </trkpt>
      <trkpt lat="45.67532" lon="5.71319">
        <ele>472</ele>
        <time>2017-04-24T17:41:26Z</time>
      </trkpt>
      <trkpt lat="45.67527" lon="5.71317">
        <ele>472</ele>
        <time>2017-04-24T17:41:26Z</time>
      </trkpt>
      <trkpt lat="45.67524" lon="5.71316">
        <ele>472</ele>
        <time>2017-04-24T17:41:26Z</time>
      </trkpt>
      <trkpt lat="45.6752" lon="5.71315">
        <ele>472</ele>
        <time>2017-04-24T17:41:26Z</time>
      </trkpt>
      <trkpt lat="45.67516" lon="5.71313">
        <ele>472</ele>
        <time>2017-04-24T17:41:42Z</time>
      </trkpt>
      <trkpt lat="45.67513" lon="5.7131">
        <ele>472</ele>
        <time>2017-04-24T17:41:42Z</time>
      </trkpt>
      <trkpt lat="45.67509" lon="5.71306">
        <ele>472</ele>
        <time>2017-04-24T17:41:42Z</time>
      </trkpt>
      <trkpt lat="45.67504" lon="5.71301">
        <ele>472</ele>
        <time>2017-04-24T17:41:42Z</time>
      </trkpt>
      <trkpt lat="45.675" lon="5.71297">
        <ele>472</ele>
        <time>2017-04-24T17:41:58Z</time>
      </trkpt>
      <trkpt lat="45.67495" lon="5.71294">
        <ele>472</ele>
        <time>2017-04-24T17:41:58Z</time>
      </trkpt>
      <trkpt lat="45.67491" lon="5.71291">
        <ele>447</ele>
        <time>2017-04-24T17:41:58Z</time>
      </trkpt>
      <trkpt lat="45.67488" lon="5.71289">
        <ele>447</ele>
        <time>2017-04-24T17:41:58Z</time>
      </trkpt>
      <trkpt lat="45.67485" lon="5.71289">
        <ele>447</ele>
        <time>2017-04-24T17:42:18Z</time>
      </trkpt>
      <trkpt lat="45.67484" lon="5.71288">
        <ele>447</ele>
        <time>2017-04-24T17:42:18Z</time>
      </trkpt>
      <trkpt lat="45.67483" lon="5.71288">
        <ele>447</ele>
        <time>2017-04-24T17:42:18Z</time>
      </trkpt>
      <trkpt lat="45.6748" lon="5.71286">
        <ele>447</ele>
        <time>2017-04-24T17:42:18Z</time>
      </trkpt>
      <trkpt lat="45.6747" lon="5.71287">
        <ele>447</ele>
        <time>2017-04-24T17:42:18Z</time>
      </trkpt>
      <trkpt lat="45.67464" lon="5.71284">
        <ele>447</ele>
        <time>2017-04-24T17:42:34Z</time>
      </trkpt>
      <trkpt lat="45.67459" lon="5.71285">
        <ele>447</ele>
        <time>2017-04-24T17:42:34Z</time>
      </trkpt>
      <trkpt lat="45.67454" lon="5.71285">
        <ele>460</ele>
        <time>2017-04-24T17:42:34Z</time>
      </trkpt>
      <trkpt lat="45.67454" lon="5.71288">
        <ele>460</ele>
        <time>2017-04-24T17:42:34Z</time>
      </trkpt>
      <trkpt lat="45.67451" lon="5.71291">
        <ele>460</ele>
        <time>2017-04-24T17:42:50Z</time>
      </trkpt>
      <trkpt lat="45.67445" lon="5.71295">
        <ele>475</ele>
        <time>2017-04-24T17:42:50Z</time>
      </trkpt>
      <trkpt lat="45.67439" lon="5.71303">
        <ele>475</ele>
        <time>2017-04-24T17:42:50Z</time>
      </trkpt>
      <trkpt lat="45.67435" lon="5.71309">
        <ele>475</ele>
        <time>2017-04-24T17:42:50Z</time>
      </trkpt>
      <trkpt lat="45.67428" lon="5.71312">
        <ele>475</ele>
        <time>2017-04-24T17:43:22Z</time>
      </trkpt>
      <trkpt lat="45.6743" lon="5.71316">
        <ele>475</ele>
        <time>2017-04-24T17:43:22Z</time>
      </trkpt>
      <trkpt lat="45.6743" lon="5.71318">
        <ele>475</ele>
        <time>2017-04-24T17:43:22Z</time>
      </trkpt>
      <trkpt lat="45.67434" lon="5.71318">
        <ele>475</ele>
        <time>2017-04-24T17:43:22Z</time>
      </trkpt>
      <trkpt lat="45.67437" lon="5.71318">
        <ele>475</ele>
        <time>2017-04-24T17:43:22Z</time>
      </trkpt>
      <trkpt lat="45.6744" lon="5.7132">
        <ele>475</ele>
        <time>2017-04-24T17:43:38Z</time>
      </trkpt>
      <trkpt lat="45.67445" lon="5.71324">
        <ele>475</ele>
        <time>2017-04-24T17:43:38Z</time>
      </trkpt>
      <trkpt lat="45.67447" lon="5.71327">
        <ele>475</ele>
        <time>2017-04-24T17:43:38Z</time>
      </trkpt>
      <trkpt lat="45.67451" lon="5.7133">
        <ele>475</ele>
        <time>2017-04-24T17:43:38Z</time>
      </trkpt>
      <trkpt lat="45.67455" lon="5.71331">
        <ele>475</ele>
        <time>2017-04-24T17:43:58Z</time>
      </trkpt>
      <trkpt lat="45.67457" lon="5.71332">
        <ele>475</ele>
        <time>2017-04-24T17:43:58Z</time>
      </trkpt>
      <trkpt lat="45.6746" lon="5.71332">
        <ele>472</ele>
        <time>2017-04-24T17:43:58Z</time>
      </trkpt>
      <trkpt lat="45.67462" lon="5.71335">
        <ele>472</ele>
        <time>2017-04-24T17:43:58Z</time>
      </trkpt>
      <trkpt lat="45.67466" lon="5.71337">
        <ele>472</ele>
        <time>2017-04-24T17:43:58Z</time>
      </trkpt>
      <trkpt lat="45.67467" lon="5.71338">
        <ele>472</ele>
        <time>2017-04-24T17:44:14Z</time>
      </trkpt>
      <trkpt lat="45.67472" lon="5.71338">
        <ele>472</ele>
        <time>2017-04-24T17:44:14Z</time>
      </trkpt>
      <trkpt lat="45.6748" lon="5.71343">
        <ele>472</ele>
        <time>2017-04-24T17:44:14Z</time>
      </trkpt>
      <trkpt lat="45.67485" lon="5.71348">
        <ele>472</ele>
        <time>2017-04-24T17:44:14Z</time>
      </trkpt>
      <trkpt lat="45.6749" lon="5.71354">
        <ele>472</ele>
        <time>2017-04-24T17:44:30Z</time>
      </trkpt>
      <trkpt lat="45.67494" lon="5.7136">
        <ele>472</ele>
        <time>2017-04-24T17:44:30Z</time>
      </trkpt>
      <trkpt lat="45.67497" lon="5.71362">
        <ele>472</ele>
        <time>2017-04-24T17:44:30Z</time>
      </trkpt>
      <trkpt lat="45.67498" lon="5.71363">
        <ele>472</ele>
        <time>2017-04-24T17:44:30Z</time>
      </trkpt>
      <trkpt lat="45.67499" lon="5.71365">
        <ele>472</ele>
        <time>2017-04-24T17:44:46Z</time>
      </trkpt>
      <trkpt lat="45.67506" lon="5.71368">
        <ele>472</ele>
        <time>2017-04-24T17:44:46Z</time>
      </trkpt>
      <trkpt lat="45.67508" lon="5.71369">
        <ele>472</ele>
        <time>2017-04-24T17:44:46Z</time>
      </trkpt>
      <trkpt lat="45.67513" lon="5.71372">
        <ele>472</ele>
        <time>2017-04-24T17:44:46Z</time>
      </trkpt>
      <trkpt lat="45.67519" lon="5.71376">
        <ele>494</ele>
        <time>2017-04-24T17:45:02Z</time>
      </trkpt>
      <trkpt lat="45.67524" lon="5.71379">
        <ele>494</ele>
        <time>2017-04-24T17:45:02Z</time>
      </trkpt>
      <trkpt lat="45.67527" lon="5.71384">
        <ele>494</ele>
        <time>2017-04-24T17:45:02Z</time>
      </trkpt>
      <trkpt lat="45.67532" lon="5.7139">
        <ele>494</ele>
        <time>2017-04-24T17:45:02Z</time>
      </trkpt>
      <trkpt lat="45.67532" lon="5.71395">
        <ele>494</ele>
        <time>2017-04-24T17:45:18Z</time>
      </trkpt>
      <trkpt lat="45.67537" lon="5.71402">
        <ele>494</ele>
        <time>2017-04-24T17:45:18Z</time>
      </trkpt>
      <trkpt lat="45.67542" lon="5.71406">
        <ele>481</ele>
        <time>2017-04-24T17:45:18Z</time>
      </trkpt>
      <trkpt lat="45.67547" lon="5.71409">
        <ele>481</ele>
        <time>2017-04-24T17:45:18Z</time>
      </trkpt>
      <trkpt lat="45.67551" lon="5.71411">
        <ele>481</ele>
        <time>2017-04-24T17:45:42Z</time>
      </trkpt>
      <trkpt lat="45.67553" lon="5.71412">
        <ele>481</ele>
        <time>2017-04-24T17:45:42Z</time>
      </trkpt>
      <trkpt lat="45.67554" lon="5.71413">
        <ele>481</ele>
        <time>2017-04-24T17:45:42Z</time>
      </trkpt>
      <trkpt lat="45.67557" lon="5.71415">
        <ele>481</ele>
        <time>2017-04-24T17:45:42Z</time>
      </trkpt>
      <trkpt lat="45.6756" lon="5.71419">
        <ele>481</ele>
        <time>2017-04-24T17:45:42Z</time>
      </trkpt>
      <trkpt lat="45.67566" lon="5.71423">
        <ele>481</ele>
        <time>2017-04-24T17:45:58Z</time>
      </trkpt>
      <trkpt lat="45.67574" lon="5.71428">
        <ele>481</ele>
        <time>2017-04-24T17:45:58Z</time>
      </trkpt>
      <trkpt lat="45.67581" lon="5.71432">
        <ele>481</ele>
        <time>2017-04-24T17:45:58Z</time>
      </trkpt>
      <trkpt lat="45.67591" lon="5.71436">
        <ele>481</ele>
        <time>2017-04-24T17:45:58Z</time>
      </trkpt>
      <trkpt lat="45.676" lon="5.71439">
        <ele>481</ele>
        <time>2017-04-24T17:46:14Z</time>
      </trkpt>
      <trkpt lat="45.67603" lon="5.71441">
        <ele>481</ele>
        <time>2017-04-24T17:46:14Z</time>
      </trkpt>
      <trkpt lat="45.6761" lon="5.71446">
        <ele>481</ele>
        <time>2017-04-24T17:46:14Z</time>
      </trkpt>
      <trkpt lat="45.67618" lon="5.71452">
        <ele>481</ele>
        <time>2017-04-24T17:46:14Z</time>
      </trkpt>
      <trkpt lat="45.67622" lon="5.71456">
        <ele>481</ele>
        <time>2017-04-24T17:46:30Z</time>
      </trkpt>
      <trkpt lat="45.67625" lon="5.71461">
        <ele>508</ele>
        <time>2017-04-24T17:46:30Z</time>
      </trkpt>
      <trkpt lat="45.67629" lon="5.71462">
        <ele>507</ele>
        <time>2017-04-24T17:46:30Z</time>
      </trkpt>
      <trkpt lat="45.6763" lon="5.71462">
        <ele>507</ele>
        <time>2017-04-24T17:46:30Z</time>
      </trkpt>
      <trkpt lat="45.6763" lon="5.71462">
        <ele>507</ele>
        <time>2017-04-24T17:46:46Z</time>
      </trkpt>
      <trkpt lat="45.67631" lon="5.71462">
        <ele>507</ele>
        <time>2017-04-24T17:46:46Z</time>
      </trkpt>
      <trkpt lat="45.67635" lon="5.71463">
        <ele>507</ele>
        <time>2017-04-24T17:46:46Z</time>
      </trkpt>
      <trkpt lat="45.67642" lon="5.71466">
        <ele>507</ele>
        <time>2017-04-24T17:46:46Z</time>
      </trkpt>
      <trkpt lat="45.67648" lon="5.71467">
        <ele>507</ele>
        <time>2017-04-24T17:47:02Z</time>
      </trkpt>
      <trkpt lat="45.67653" lon="5.71469">
        <ele>507</ele>
        <time>2017-04-24T17:47:02Z</time>
      </trkpt>
      <trkpt lat="45.67658" lon="5.7147">
        <ele>507</ele>
        <time>2017-04-24T17:47:02Z</time>
      </trkpt>
      <trkpt lat="45.67662" lon="5.71469">
        <ele>507</ele>
        <time>2017-04-24T17:47:02Z</time>
      </trkpt>
      <trkpt lat="45.67665" lon="5.71469">
        <ele>507</ele>
        <time>2017-04-24T17:47:18Z</time>
      </trkpt>
      <trkpt lat="45.67669" lon="5.71469">
        <ele>507</ele>
        <time>2017-04-24T17:47:18Z</time>
      </trkpt>
      <trkpt lat="45.67673" lon="5.71468">
        <ele>507</ele>
        <time>2017-04-24T17:47:18Z</time>
      </trkpt>
      <trkpt lat="45.67677" lon="5.71465">
        <ele>507</ele>
        <time>2017-04-24T17:47:18Z</time>
      </trkpt>
      <trkpt lat="45.67681" lon="5.71464">
        <ele>507</ele>
        <time>2017-04-24T17:47:34Z</time>
      </trkpt>
      <trkpt lat="45.67686" lon="5.71461">
        <ele>507</ele>
        <time>2017-04-24T17:47:34Z</time>
      </trkpt>
      <trkpt lat="45.67691" lon="5.71458">
        <ele>480</ele>
        <time>2017-04-24T17:47:34Z</time>
      </trkpt>
      <trkpt lat="45.67694" lon="5.71455">
        <ele>480</ele>
        <time>2017-04-24T17:47:34Z</time>
      </trkpt>
      <trkpt lat="45.67699" lon="5.71454">
        <ele>480</ele>
        <time>2017-04-24T17:47:50Z</time>
      </trkpt>
      <trkpt lat="45.67707" lon="5.71456">
        <ele>480</ele>
        <time>2017-04-24T17:47:50Z</time>
      </trkpt>
      <trkpt lat="45.67712" lon="5.7146">
        <ele>516</ele>
        <time>2017-04-24T17:47:50Z</time>
      </trkpt>
      <trkpt lat="45.67718" lon="5.71462">
        <ele>516</ele>
        <time>2017-04-24T17:47:50Z</time>
      </trkpt>
      <trkpt lat="45.67723" lon="5.71469">
        <ele>516</ele>
        <time>2017-04-24T17:48:06Z</time>
      </trkpt>
      <trkpt lat="45.67725" lon="5.71481">
        <ele>516</ele>
        <time>2017-04-24T17:48:06Z</time>
      </trkpt>
      <trkpt lat="45.67723" lon="5.71489">
        <ele>516</ele>
        <time>2017-04-24T17:48:06Z</time>
      </trkpt>
      <trkpt lat="45.67726" lon="5.71494">
        <ele>516</ele>
        <time>2017-04-24T17:48:06Z</time>
      </trkpt>
      <trkpt lat="45.67723" lon="5.71498">
        <ele>516</ele>
        <time>2017-04-24T17:48:22Z</time>
      </trkpt>
      <trkpt lat="45.67717" lon="5.715">
        <ele>516</ele>
        <time>2017-04-24T17:48:22Z</time>
      </trkpt>
      <trkpt lat="45.67706" lon="5.715">
        <ele>507</ele>
        <time>2017-04-24T17:48:22Z</time>
      </trkpt>
      <trkpt lat="45.67696" lon="5.71502">
        <ele>507</ele>
        <time>2017-04-24T17:48:22Z</time>
      </trkpt>
      <trkpt lat="45.67686" lon="5.71502">
        <ele>507</ele>
        <time>2017-04-24T17:48:38Z</time>
      </trkpt>
      <trkpt lat="45.67678" lon="5.71508">
        <ele>507</ele>
        <time>2017-04-24T17:48:38Z</time>
      </trkpt>
      <trkpt lat="45.67673" lon="5.71514">
        <ele>507</ele>
        <time>2017-04-24T17:48:38Z</time>
      </trkpt>
      <trkpt lat="45.6767" lon="5.71517">
        <ele>507</ele>
        <time>2017-04-24T17:48:38Z</time>
      </trkpt>
      <trkpt lat="45.67668" lon="5.71515">
        <ele>507</ele>
        <time>2017-04-24T17:48:54Z</time>
      </trkpt>
      <trkpt lat="45.67664" lon="5.71514">
        <ele>507</ele>
        <time>2017-04-24T17:48:54Z</time>
      </trkpt>
      <trkpt lat="45.6766" lon="5.71514">
        <ele>507</ele>
        <time>2017-04-24T17:48:54Z</time>
      </trkpt>
      <trkpt lat="45.6765" lon="5.71516">
        <ele>507</ele>
        <time>2017-04-24T17:48:54Z</time>
      </trkpt>
      <trkpt lat="45.67643" lon="5.71518">
        <ele>507</ele>
        <time>2017-04-24T17:49:10Z</time>
      </trkpt>
      <trkpt lat="45.67637" lon="5.71518">
        <ele>507</ele>
        <time>2017-04-24T17:49:10Z</time>
      </trkpt>
      <trkpt lat="45.67628" lon="5.71519">
        <ele>507</ele>
        <time>2017-04-24T17:49:10Z</time>
      </trkpt>
      <trkpt lat="45.67613" lon="5.71525">
        <ele>508</ele>
        <time>2017-04-24T17:49:10Z</time>
      </trkpt>
      <trkpt lat="45.67612" lon="5.7153">
        <ele>508</ele>
        <time>2017-04-24T17:49:26Z</time>
      </trkpt>
      <trkpt lat="45.67612" lon="5.71531">
        <ele>508</ele>
        <time>2017-04-24T17:49:26Z</time>
      </trkpt>
      <trkpt lat="45.67618" lon="5.71533">
        <ele>508</ele>
        <time>2017-04-24T17:49:26Z</time>
      </trkpt>
      <trkpt lat="45.67626" lon="5.71531">
        <ele>507</ele>
        <time>2017-04-24T17:49:26Z</time>
      </trkpt>
      <trkpt lat="45.67629" lon="5.71532">
        <ele>507</ele>
        <time>2017-04-24T17:49:42Z</time>
      </trkpt>
      <trkpt lat="45.67622" lon="5.71534">
        <ele>508</ele>
        <time>2017-04-24T17:49:42Z</time>
      </trkpt>
      <trkpt lat="45.67609" lon="5.71535">
        <ele>508</ele>
        <time>2017-04-24T17:49:42Z</time>
      </trkpt>
      <trkpt lat="45.67603" lon="5.71537">
        <ele>508</ele>
        <time>2017-04-24T17:49:42Z</time>
      </trkpt>
      <trkpt lat="45.67599" lon="5.71536">
        <ele>508</ele>
        <time>2017-04-24T17:49:58Z</time>
      </trkpt>
      <trkpt lat="45.67593" lon="5.71533">
        <ele>508</ele>
        <time>2017-04-24T17:49:58Z</time>
      </trkpt>
      <trkpt lat="45.67564" lon="5.71525">
        <ele>508</ele>
        <time>2017-04-24T17:49:58Z</time>
      </trkpt>
      <trkpt lat="45.67561" lon="5.71523">
        <ele>508</ele>
        <time>2017-04-24T17:49:58Z</time>
      </trkpt>
      <trkpt lat="45.67556" lon="5.71525">
        <ele>508</ele>
        <time>2017-04-24T17:50:30Z</time>
      </trkpt>
      <trkpt lat="45.67547" lon="5.71523">
        <ele>508</ele>
        <time>2017-04-24T17:50:30Z</time>
      </trkpt>
      <trkpt lat="45.67542" lon="5.71523">
        <ele>508</ele>
        <time>2017-04-24T17:50:30Z</time>
      </trkpt>
      <trkpt lat="45.6754" lon="5.71522">
        <ele>524</ele>
        <time>2017-04-24T17:50:30Z</time>
      </trkpt>
      <trkpt lat="45.67539" lon="5.71522">
        <ele>524</ele>
        <time>2017-04-24T17:50:30Z</time>
      </trkpt>
      <trkpt lat="45.67538" lon="5.71523">
        <ele>524</ele>
        <time>2017-04-24T17:50:50Z</time>
      </trkpt>
      <trkpt lat="45.67538" lon="5.71523">
        <ele>524</ele>
        <time>2017-04-24T17:50:50Z</time>
      </trkpt>
      <trkpt lat="45.67538" lon="5.71523">
        <ele>524</ele>
        <time>2017-04-24T17:50:50Z</time>
      </trkpt>
      <trkpt lat="45.67533" lon="5.71523">
        <ele>524</ele>
        <time>2017-04-24T17:50:50Z</time>
      </trkpt>
      <trkpt lat="45.67522" lon="5.71525">
        <ele>524</ele>
        <time>2017-04-24T17:50:50Z</time>
      </trkpt>
      <trkpt lat="45.67514" lon="5.71526">
        <ele>524</ele>
        <time>2017-04-24T17:51:06Z</time>
      </trkpt>
      <trkpt lat="45.67506" lon="5.71525">
        <ele>524</ele>
        <time>2017-04-24T17:51:06Z</time>
      </trkpt>
      <trkpt lat="45.67497" lon="5.71523">
        <ele>524</ele>
        <time>2017-04-24T17:51:06Z</time>
      </trkpt>
      <trkpt lat="45.67493" lon="5.71521">
        <ele>524</ele>
        <time>2017-04-24T17:51:06Z</time>
      </trkpt>
      <trkpt lat="45.67491" lon="5.71522">
        <ele>524</ele>
        <time>2017-04-24T17:51:26Z</time>
      </trkpt>
      <trkpt lat="45.67491" lon="5.71523">
        <ele>524</ele>
        <time>2017-04-24T17:51:26Z</time>
      </trkpt>
      <trkpt lat="45.67491" lon="5.71523">
        <ele>524</ele>
        <time>2017-04-24T17:51:26Z</time>
      </trkpt>
      <trkpt lat="45.67489" lon="5.71523">
        <ele>524</ele>
        <time>2017-04-24T17:51:26Z</time>
      </trkpt>
      <trkpt lat="45.67481" lon="5.71522">
        <ele>524</ele>
        <time>2017-04-24T17:51:26Z</time>
      </trkpt>
      <trkpt lat="45.67476" lon="5.71522">
        <ele>524</ele>
        <time>2017-04-24T17:51:42Z</time>
      </trkpt>
      <trkpt lat="45.67471" lon="5.71523">
        <ele>524</ele>
        <time>2017-04-24T17:51:42Z</time>
      </trkpt>
      <trkpt lat="45.67464" lon="5.71523">
        <ele>524</ele>
        <time>2017-04-24T17:51:42Z</time>
      </trkpt>
      <trkpt lat="45.67455" lon="5.71523">
        <ele>532</ele>
        <time>2017-04-24T17:51:42Z</time>
      </trkpt>
      <trkpt lat="45.67447" lon="5.71522">
        <ele>532</ele>
        <time>2017-04-24T17:51:58Z</time>
      </trkpt>
      <trkpt lat="45.67442" lon="5.71523">
        <ele>532</ele>
        <time>2017-04-24T17:51:58Z</time>
      </trkpt>
      <trkpt lat="45.67438" lon="5.71526">
        <ele>532</ele>
        <time>2017-04-24T17:51:58Z</time>
      </trkpt>
      <trkpt lat="45.67433" lon="5.71527">
        <ele>532</ele>
        <time>2017-04-24T17:51:58Z</time>
      </trkpt>
      <trkpt lat="45.6743" lon="5.71526">
        <ele>532</ele>
        <time>2017-04-24T17:52:14Z</time>
      </trkpt>
      <trkpt lat="45.67428" lon="5.71525">
        <ele>532</ele>
        <time>2017-04-24T17:52:14Z</time>
      </trkpt>
      <trkpt lat="45.67425" lon="5.71524">
        <ele>532</ele>
        <time>2017-04-24T17:52:14Z</time>
      </trkpt>
      <trkpt lat="45.67418" lon="5.71524">
        <ele>532</ele>
        <time>2017-04-24T17:52:14Z</time>
      </trkpt>
      <trkpt lat="45.67407" lon="5.71521">
        <ele>532</ele>
        <time>2017-04-24T17:52:30Z</time>
      </trkpt>
      <trkpt lat="45.67403" lon="5.71518">
        <ele>532</ele>
        <time>2017-04-24T17:52:30Z</time>
      </trkpt>
      <trkpt lat="45.674" lon="5.71519">
        <ele>532</ele>
        <time>2017-04-24T17:52:30Z</time>
      </trkpt>
      <trkpt lat="45.67392" lon="5.71519">
        <ele>532</ele>
        <time>2017-04-24T17:52:30Z</time>
      </trkpt>
      <trkpt lat="45.67383" lon="5.71519">
        <ele>532</ele>
        <time>2017-04-24T17:52:46Z</time>
      </trkpt>
      <trkpt lat="45.67378" lon="5.71521">
        <ele>532</ele>
        <time>2017-04-24T17:52:46Z</time>
      </trkpt>
      <trkpt lat="45.67373" lon="5.71524">
        <ele>527</ele>
        <time>2017-04-24T17:52:46Z</time>
      </trkpt>
      <trkpt lat="45.67369" lon="5.71524">
        <ele>527</ele>
        <time>2017-04-24T17:52:46Z</time>
      </trkpt>
      <trkpt lat="45.67352" lon="5.71537">
        <ele>527</ele>
        <time>2017-04-24T17:53:18Z</time>
      </trkpt>
      <trkpt lat="45.67355" lon="5.71544">
        <ele>542</ele>
        <time>2017-04-24T17:53:18Z</time>
      </trkpt>
      <trkpt lat="45.67358" lon="5.71552">
        <ele>542</ele>
        <time>2017-04-24T17:53:18Z</time>
      </trkpt>
      <trkpt lat="45.67358" lon="5.71558">
        <ele>542</ele>
        <time>2017-04-24T17:53:18Z</time>
      </trkpt>
      <trkpt lat="45.67358" lon="5.71564">
        <ele>542</ele>
        <time>2017-04-24T17:53:18Z</time>
      </trkpt>
      <trkpt lat="45.67361" lon="5.7157">
        <ele>542</ele>
        <time>2017-04-24T17:53:34Z</time>
      </trkpt>
      <trkpt lat="45.67361" lon="5.71578">
        <ele>542</ele>
        <time>2017-04-24T17:53:34Z</time>
      </trkpt>
      <trkpt lat="45.67362" lon="5.71586">
        <ele>542</ele>
        <time>2017-04-24T17:53:34Z</time>
      </trkpt>
      <trkpt lat="45.67361" lon="5.71593">
        <ele>542</ele>
        <time>2017-04-24T17:53:34Z</time>
      </trkpt>
      <trkpt lat="45.67362" lon="5.71598">
        <ele>542</ele>
        <time>2017-04-24T17:53:50Z</time>
      </trkpt>
      <trkpt lat="45.67366" lon="5.71601">
        <ele>542</ele>
        <time>2017-04-24T17:53:50Z</time>
      </trkpt>
      <trkpt lat="45.67368" lon="5.71607">
        <ele>542</ele>
        <time>2017-04-24T17:53:50Z</time>
      </trkpt>
      <trkpt lat="45.67369" lon="5.71614">
        <ele>542</ele>
        <time>2017-04-24T17:53:50Z</time>
      </trkpt>
      <trkpt lat="45.67372" lon="5.71619">
        <ele>542</ele>
        <time>2017-04-24T17:54:06Z</time>
      </trkpt>
      <trkpt lat="45.67372" lon="5.71628">
        <ele>544</ele>
        <time>2017-04-24T17:54:06Z</time>
      </trkpt>
      <trkpt lat="45.67374" lon="5.71637">
        <ele>544</ele>
        <time>2017-04-24T17:54:06Z</time>
      </trkpt>
      <trkpt lat="45.67373" lon="5.71645">
        <ele>544</ele>
        <time>2017-04-24T17:54:06Z</time>
      </trkpt>
      <trkpt lat="45.67373" lon="5.71654">
        <ele>544</ele>
        <time>2017-04-24T17:54:22Z</time>
      </trkpt>
      <trkpt lat="45.67374" lon="5.71663">
        <ele>544</ele>
        <time>2017-04-24T17:54:22Z</time>
      </trkpt>
      <trkpt lat="45.67373" lon="5.7167">
        <ele>544</ele>
        <time>2017-04-24T17:54:22Z</time>
      </trkpt>
      <trkpt lat="45.67373" lon="5.71674">
        <ele>544</ele>
        <time>2017-04-24T17:54:22Z</time>
      </trkpt>
      <trkpt lat="45.67369" lon="5.71677">
        <ele>544</ele>
        <time>2017-04-24T17:54:38Z</time>
      </trkpt>
      <trkpt lat="45.6737" lon="5.71683">
        <ele>544</ele>
        <time>2017-04-24T17:54:38Z</time>
      </trkpt>
      <trkpt lat="45.67367" lon="5.71689">
        <ele>544</ele>
        <time>2017-04-24T17:54:38Z</time>
      </trkpt>
      <trkpt lat="45.67364" lon="5.71699">
        <ele>544</ele>
        <time>2017-04-24T17:54:38Z</time>
      </trkpt>
      <trkpt lat="45.67365" lon="5.71708">
        <ele>549</ele>
        <time>2017-04-24T17:54:54Z</time>
      </trkpt>
      <trkpt lat="45.67366" lon="5.71717">
        <ele>549</ele>
        <time>2017-04-24T17:54:54Z</time>
      </trkpt>
      <trkpt lat="45.6736" lon="5.71723">
        <ele>549</ele>
        <time>2017-04-24T17:54:54Z</time>
      </trkpt>
      <trkpt lat="45.67353" lon="5.71732">
        <ele>549</ele>
        <time>2017-04-24T17:54:54Z</time>
      </trkpt>
      <trkpt lat="45.67352" lon="5.71744">
        <ele>549</ele>
        <time>2017-04-24T17:55:10Z</time>
      </trkpt>
      <trkpt lat="45.67351" lon="5.71753">
        <ele>549</ele>
        <time>2017-04-24T17:55:10Z</time>
      </trkpt>
      <trkpt lat="45.6735" lon="5.71761">
        <ele>549</ele>
        <time>2017-04-24T17:55:10Z</time>
      </trkpt>
      <trkpt lat="45.67345" lon="5.71764">
        <ele>549</ele>
        <time>2017-04-24T17:55:10Z</time>
      </trkpt>
      <trkpt lat="45.67333" lon="5.71765">
        <ele>549</ele>
        <time>2017-04-24T17:55:26Z</time>
      </trkpt>
      <trkpt lat="45.67326" lon="5.71768">
        <ele>549</ele>
        <time>2017-04-24T17:55:26Z</time>
      </trkpt>
      <trkpt lat="45.67326" lon="5.71774">
        <ele>549</ele>
        <time>2017-04-24T17:55:26Z</time>
      </trkpt>
      <trkpt lat="45.67323" lon="5.71778">
        <ele>549</ele>
        <time>2017-04-24T17:55:26Z</time>
      </trkpt>
      <trkpt lat="45.67319" lon="5.71782">
        <ele>549</ele>
        <time>2017-04-24T17:55:42Z</time>
      </trkpt>
      <trkpt lat="45.67317" lon="5.7179">
        <ele>549</ele>
        <time>2017-04-24T17:55:42Z</time>
      </trkpt>
      <trkpt lat="45.67311" lon="5.718">
        <ele>553</ele>
        <time>2017-04-24T17:55:42Z</time>
      </trkpt>
      <trkpt lat="45.6731" lon="5.71806">
        <ele>553</ele>
        <time>2017-04-24T17:55:42Z</time>
      </trkpt>
      <trkpt lat="45.6731" lon="5.71814">
        <ele>553</ele>
        <time>2017-04-24T17:55:58Z</time>
      </trkpt>
      <trkpt lat="45.67308" lon="5.71822">
        <ele>553</ele>
        <time>2017-04-24T17:55:58Z</time>
      </trkpt>
      <trkpt lat="45.67305" lon="5.7183">
        <ele>553</ele>
        <time>2017-04-24T17:55:58Z</time>
      </trkpt>
      <trkpt lat="45.67303" lon="5.71838">
        <ele>553</ele>
        <time>2017-04-24T17:55:58Z</time>
      </trkpt>
      <trkpt lat="45.67307" lon="5.71845">
        <ele>553</ele>
        <time>2017-04-24T17:56:18Z</time>
      </trkpt>
      <trkpt lat="45.67311" lon="5.71845">
        <ele>553</ele>
        <time>2017-04-24T17:56:18Z</time>
      </trkpt>
      <trkpt lat="45.67313" lon="5.71846">
        <ele>553</ele>
        <time>2017-04-24T17:56:18Z</time>
      </trkpt>
      <trkpt lat="45.67314" lon="5.71847">
        <ele>553</ele>
        <time>2017-04-24T17:56:18Z</time>
      </trkpt>
      <trkpt lat="45.67316" lon="5.7185">
        <ele>553</ele>
        <time>2017-04-24T17:56:18Z</time>
      </trkpt>
      <trkpt lat="45.6732" lon="5.71859">
        <ele>553</ele>
        <time>2017-04-24T17:56:34Z</time>
      </trkpt>
      <trkpt lat="45.67322" lon="5.71869">
        <ele>553</ele>
        <time>2017-04-24T17:56:34Z</time>
      </trkpt>
      <trkpt lat="45.67326" lon="5.71879">
        <ele>559</ele>
        <time>2017-04-24T17:56:34Z</time>
      </trkpt>
      <trkpt lat="45.67326" lon="5.71889">
        <ele>559</ele>
        <time>2017-04-24T17:56:34Z</time>
      </trkpt>
      <trkpt lat="45.67325" lon="5.719">
        <ele>559</ele>
        <time>2017-04-24T17:56:50Z</time>
      </trkpt>
      <trkpt lat="45.67328" lon="5.71913">
        <ele>559</ele>
        <time>2017-04-24T17:56:50Z</time>
      </trkpt>
      <trkpt lat="45.67328" lon="5.71923">
        <ele>559</ele>
        <time>2017-04-24T17:56:50Z</time>
      </trkpt>
      <trkpt lat="45.67327" lon="5.71927">
        <ele>559</ele>
        <time>2017-04-24T17:56:50Z</time>
      </trkpt>
      <trkpt lat="45.67328" lon="5.7193">
        <ele>559</ele>
        <time>2017-04-24T17:57:30Z</time>
      </trkpt>
      <trkpt lat="45.67325" lon="5.71926">
        <ele>559</ele>
        <time>2017-04-24T17:57:30Z</time>
      </trkpt>
      <trkpt lat="45.67314" lon="5.71918">
        <ele>559</ele>
        <time>2017-04-24T17:57:30Z</time>
      </trkpt>
      <trkpt lat="45.67301" lon="5.71907">
        <ele>559</ele>
        <time>2017-04-24T17:57:30Z</time>
      </trkpt>
      <trkpt lat="45.67291" lon="5.71902">
        <ele>560</ele>
        <time>2017-04-24T17:57:30Z</time>
      </trkpt>
      <trkpt lat="45.6729" lon="5.71898">
        <ele>560</ele>
        <time>2017-04-24T17:57:46Z</time>
      </trkpt>
      <trkpt lat="45.67287" lon="5.71895">
        <ele>560</ele>
        <time>2017-04-24T17:57:46Z</time>
      </trkpt>
      <trkpt lat="45.67281" lon="5.7189">
        <ele>560</ele>
        <time>2017-04-24T17:57:46Z</time>
      </trkpt>
      <trkpt lat="45.67277" lon="5.71882">
        <ele>560</ele>
        <time>2017-04-24T17:57:46Z</time>
      </trkpt>
      <trkpt lat="45.67276" lon="5.71873">
        <ele>554</ele>
        <time>2017-04-24T17:58:02Z</time>
      </trkpt>
      <trkpt lat="45.67275" lon="5.71864">
        <ele>554</ele>
        <time>2017-04-24T17:58:02Z</time>
      </trkpt>
      <trkpt lat="45.6727" lon="5.71857">
        <ele>554</ele>
        <time>2017-04-24T17:58:02Z</time>
      </trkpt>
      <trkpt lat="45.67267" lon="5.71853">
        <ele>554</ele>
        <time>2017-04-24T17:58:02Z</time>
      </trkpt>
      <trkpt lat="45.67261" lon="5.71854">
        <ele>554</ele>
        <time>2017-04-24T17:58:18Z</time>
      </trkpt>
      <trkpt lat="45.67247" lon="5.71858">
        <ele>554</ele>
        <time>2017-04-24T17:58:18Z</time>
      </trkpt>
      <trkpt lat="45.67225" lon="5.71859">
        <ele>554</ele>
        <time>2017-04-24T17:58:18Z</time>
      </trkpt>
      <trkpt lat="45.67195" lon="5.71847">
        <ele>558</ele>
        <time>2017-04-24T17:58:18Z</time>
      </trkpt>
      <trkpt lat="45.67184" lon="5.71844">
        <ele>558</ele>
        <time>2017-04-24T17:58:34Z</time>
      </trkpt>
      <trkpt lat="45.67168" lon="5.71839">
        <ele>558</ele>
        <time>2017-04-24T17:58:34Z</time>
      </trkpt>
      <trkpt lat="45.6715" lon="5.71835">
        <ele>558</ele>
        <time>2017-04-24T17:58:34Z</time>
      </trkpt>
      <trkpt lat="45.67127" lon="5.71832">
        <ele>558</ele>
        <time>2017-04-24T17:58:34Z</time>
      </trkpt>
      <trkpt lat="45.67116" lon="5.71832">
        <ele>566</ele>
        <time>2017-04-24T17:58:50Z</time>
      </trkpt>
      <trkpt lat="45.67097" lon="5.7183">
        <ele>566</ele>
        <time>2017-04-24T17:58:50Z</time>
      </trkpt>
      <trkpt lat="45.67082" lon="5.71833">
        <ele>566</ele>
        <time>2017-04-24T17:58:50Z</time>
      </trkpt>
      <trkpt lat="45.67073" lon="5.71832">
        <ele>566</ele>
        <time>2017-04-24T17:58:50Z</time>
      </trkpt>
      <trkpt lat="45.67066" lon="5.71833">
        <ele>566</ele>
        <time>2017-04-24T17:59:06Z</time>
      </trkpt>
      <trkpt lat="45.6706" lon="5.71831">
        <ele>566</ele>
        <time>2017-04-24T17:59:06Z</time>
      </trkpt>
      <trkpt lat="45.67057" lon="5.71833">
        <ele>566</ele>
        <time>2017-04-24T17:59:06Z</time>
      </trkpt>
      <trkpt lat="45.67055" lon="5.71832">
        <ele>566</ele>
        <time>2017-04-24T17:59:06Z</time>
      </trkpt>
      <trkpt lat="45.67049" lon="5.71832">
        <ele>566</ele>
        <time>2017-04-24T17:59:22Z</time>
      </trkpt>
      <trkpt lat="45.67043" lon="5.71833">
        <ele>566</ele>
        <time>2017-04-24T17:59:22Z</time>
      </trkpt>
      <trkpt lat="45.67036" lon="5.71832">
        <ele>567</ele>
        <time>2017-04-24T17:59:22Z</time>
      </trkpt>
      <trkpt lat="45.67022" lon="5.71829">
        <ele>567</ele>
        <time>2017-04-24T17:59:22Z</time>
      </trkpt>
      <trkpt lat="45.66987" lon="5.7182">
        <ele>567</ele>
        <time>2017-04-24T17:59:38Z</time>
      </trkpt>
      <trkpt lat="45.66965" lon="5.71822">
        <ele>567</ele>
        <time>2017-04-24T17:59:38Z</time>
      </trkpt>
      <trkpt lat="45.66949" lon="5.7182">
        <ele>573</ele>
        <time>2017-04-24T17:59:38Z</time>
      </trkpt>
      <trkpt lat="45.66934" lon="5.71823">
        <ele>573</ele>
        <time>2017-04-24T17:59:38Z</time>
      </trkpt>
      <trkpt lat="45.66917" lon="5.71825">
        <ele>573</ele>
        <time>2017-04-24T17:59:54Z</time>
      </trkpt>
      <trkpt lat="45.66907" lon="5.7183">
        <ele>573</ele>
        <time>2017-04-24T17:59:54Z</time>
      </trkpt>
      <trkpt lat="45.66896" lon="5.71835">
        <ele>573</ele>
        <time>2017-04-24T17:59:54Z</time>
      </trkpt>
      <trkpt lat="45.66887" lon="5.71835">
        <ele>573</ele>
        <time>2017-04-24T17:59:54Z</time>
      </trkpt>
      <trkpt lat="45.66881" lon="5.71832">
        <ele>573</ele>
        <time>2017-04-24T18:00:10Z</time>
      </trkpt>
      <trkpt lat="45.66873" lon="5.71836">
        <ele>573</ele>
        <time>2017-04-24T18:00:10Z</time>
      </trkpt>
      <trkpt lat="45.66868" lon="5.71833">
        <ele>573</ele>
        <time>2017-04-24T18:00:10Z</time>
      </trkpt>
      <trkpt lat="45.66863" lon="5.7183">
        <ele>573</ele>
        <time>2017-04-24T18:00:10Z</time>
      </trkpt>
      <trkpt lat="45.66863" lon="5.7183">
        <ele>573</ele>
        <time>2017-04-24T18:00:26Z</time>
      </trkpt>
      <trkpt lat="45.66855" lon="5.71827">
        <ele>573</ele>
        <time>2017-04-24T18:00:26Z</time>
      </trkpt>
      <trkpt lat="45.66845" lon="5.71824">
        <ele>573</ele>
        <time>2017-04-24T18:00:26Z</time>
      </trkpt>
      <trkpt lat="45.66839" lon="5.71822">
        <ele>573</ele>
        <time>2017-04-24T18:00:26Z</time>
      </trkpt>
      <trkpt lat="45.66837" lon="5.71819">
        <ele>573</ele>
        <time>2017-04-24T18:00:42Z</time>
      </trkpt>
      <trkpt lat="45.66828" lon="5.71814">
        <ele>573</ele>
        <time>2017-04-24T18:00:42Z</time>
      </trkpt>
      <trkpt lat="45.6682" lon="5.71809">
        <ele>573</ele>
        <time>2017-04-24T18:00:42Z</time>
      </trkpt>
      <trkpt lat="45.66813" lon="5.71807">
        <ele>573</ele>
        <time>2017-04-24T18:00:42Z</time>
      </trkpt>
      <trkpt lat="45.66806" lon="5.71802">
        <ele>573</ele>
        <time>2017-04-24T18:00:58Z</time>
      </trkpt>
      <trkpt lat="45.668" lon="5.71799">
        <ele>573</ele>
        <time>2017-04-24T18:00:58Z</time>
      </trkpt>
      <trkpt lat="45.66792" lon="5.71792">
        <ele>573</ele>
        <time>2017-04-24T18:00:58Z</time>
      </trkpt>
      <trkpt lat="45.66784" lon="5.71784">
        <ele>573</ele>
        <time>2017-04-24T18:00:58Z</time>
      </trkpt>
      <trkpt lat="45.66776" lon="5.71777">
        <ele>573</ele>
        <time>2017-04-24T18:01:18Z</time>
      </trkpt>
      <trkpt lat="45.66778" lon="5.71774">
        <ele>573</ele>
        <time>2017-04-24T18:01:18Z</time>
      </trkpt>
      <trkpt lat="45.66775" lon="5.7177">
        <ele>573</ele>
        <time>2017-04-24T18:01:18Z</time>
      </trkpt>
      <trkpt lat="45.6677" lon="5.71769">
        <ele>573</ele>
        <time>2017-04-24T18:01:18Z</time>
      </trkpt>
      <trkpt lat="45.66765" lon="5.71767">
        <ele>573</ele>
        <time>2017-04-24T18:01:18Z</time>
      </trkpt>
      <trkpt lat="45.6676" lon="5.71767">
        <ele>573</ele>
        <time>2017-04-24T18:01:34Z</time>
      </trkpt>
      <trkpt lat="45.66756" lon="5.71765">
        <ele>573</ele>
        <time>2017-04-24T18:01:34Z</time>
      </trkpt>
      <trkpt lat="45.66749" lon="5.71765">
        <ele>573</ele>
        <time>2017-04-24T18:01:34Z</time>
      </trkpt>
      <trkpt lat="45.66744" lon="5.71766">
        <ele>573</ele>
        <time>2017-04-24T18:01:34Z</time>
      </trkpt>
      <trkpt lat="45.66739" lon="5.71769">
        <ele>573</ele>
        <time>2017-04-24T18:01:50Z</time>
      </trkpt>
      <trkpt lat="45.66735" lon="5.71773">
        <ele>573</ele>
        <time>2017-04-24T18:01:50Z</time>
      </trkpt>
      <trkpt lat="45.66729" lon="5.71779">
        <ele>573</ele>
        <time>2017-04-24T18:01:50Z</time>
      </trkpt>
      <trkpt lat="45.6672" lon="5.71779">
        <ele>573</ele>
        <time>2017-04-24T18:01:50Z</time>
      </trkpt>
      <trkpt lat="45.66708" lon="5.7177">
        <ele>580</ele>
        <time>2017-04-24T18:02:06Z</time>
      </trkpt>
      <trkpt lat="45.66697" lon="5.71765">
        <ele>580</ele>
        <time>2017-04-24T18:02:06Z</time>
      </trkpt>
      <trkpt lat="45.66691" lon="5.71764">
        <ele>580</ele>
        <time>2017-04-24T18:02:06Z</time>
      </trkpt>
      <trkpt lat="45.66685" lon="5.71763">
        <ele>580</ele>
        <time>2017-04-24T18:02:06Z</time>
      </trkpt>
      <trkpt lat="45.66679" lon="5.7176">
        <ele>580</ele>
        <time>2017-04-24T18:02:22Z</time>
      </trkpt>
      <trkpt lat="45.66674" lon="5.71754">
        <ele>580</ele>
        <time>2017-04-24T18:02:22Z</time>
      </trkpt>
      <trkpt lat="45.66669" lon="5.71745">
        <ele>580</ele>
        <time>2017-04-24T18:02:22Z</time>
      </trkpt>
      <trkpt lat="45.66666" lon="5.71737">
        <ele>580</ele>
        <time>2017-04-24T18:02:22Z</time>
      </trkpt>
      <trkpt lat="45.6666" lon="5.71728">
        <ele>580</ele>
        <time>2017-04-24T18:02:38Z</time>
      </trkpt>
      <trkpt lat="45.66653" lon="5.71718">
        <ele>580</ele>
        <time>2017-04-24T18:02:38Z</time>
      </trkpt>
      <trkpt lat="45.66648" lon="5.71707">
        <ele>573</ele>
        <time>2017-04-24T18:02:38Z</time>
      </trkpt>
      <trkpt lat="45.66647" lon="5.71697">
        <ele>573</ele>
        <time>2017-04-24T18:02:38Z</time>
      </trkpt>
      <trkpt lat="45.6665" lon="5.71689">
        <ele>573</ele>
        <time>2017-04-24T18:02:54Z</time>
      </trkpt>
      <trkpt lat="45.66649" lon="5.71686">
        <ele>573</ele>
        <time>2017-04-24T18:02:54Z</time>
      </trkpt>
      <trkpt lat="45.66645" lon="5.71679">
        <ele>573</ele>
        <time>2017-04-24T18:02:54Z</time>
      </trkpt>
      <trkpt lat="45.66636" lon="5.71672">
        <ele>573</ele>
        <time>2017-04-24T18:02:54Z</time>
      </trkpt>
      <trkpt lat="45.66634" lon="5.71667">
        <ele>573</ele>
        <time>2017-04-24T18:03:10Z</time>
      </trkpt>
      <trkpt lat="45.66636" lon="5.7166">
        <ele>573</ele>
        <time>2017-04-24T18:03:10Z</time>
      </trkpt>
      <trkpt lat="45.66632" lon="5.7165">
        <ele>573</ele>
        <time>2017-04-24T18:03:10Z</time>
      </trkpt>
      <trkpt lat="45.6663" lon="5.71648">
        <ele>573</ele>
        <time>2017-04-24T18:03:10Z</time>
      </trkpt>
      <trkpt lat="45.66628" lon="5.71644">
        <ele>573</ele>
        <time>2017-04-24T18:03:26Z</time>
      </trkpt>
      <trkpt lat="45.66624" lon="5.71635">
        <ele>568</ele>
        <time>2017-04-24T18:03:26Z</time>
      </trkpt>
      <trkpt lat="45.66618" lon="5.71622">
        <ele>561</ele>
        <time>2017-04-24T18:03:26Z</time>
      </trkpt>
      <trkpt lat="45.66608" lon="5.71608">
        <ele>561</ele>
        <time>2017-04-24T18:03:26Z</time>
      </trkpt>
      <trkpt lat="45.66598" lon="5.71591">
        <ele>561</ele>
        <time>2017-04-24T18:03:42Z</time>
      </trkpt>
      <trkpt lat="45.66587" lon="5.71582">
        <ele>561</ele>
        <time>2017-04-24T18:03:42Z</time>
      </trkpt>
      <trkpt lat="45.66581" lon="5.71578">
        <ele>561</ele>
        <time>2017-04-24T18:03:42Z</time>
      </trkpt>
      <trkpt lat="45.66575" lon="5.71576">
        <ele>561</ele>
        <time>2017-04-24T18:03:42Z</time>
      </trkpt>
      <trkpt lat="45.66566" lon="5.7157">
        <ele>561</ele>
        <time>2017-04-24T18:03:58Z</time>
      </trkpt>
      <trkpt lat="45.66551" lon="5.71569">
        <ele>561</ele>
        <time>2017-04-24T18:03:58Z</time>
      </trkpt>
      <trkpt lat="45.66534" lon="5.71564">
        <ele>577</ele>
        <time>2017-04-24T18:03:58Z</time>
      </trkpt>
      <trkpt lat="45.66503" lon="5.71549">
        <ele>577</ele>
        <time>2017-04-24T18:03:58Z</time>
      </trkpt>
      <trkpt lat="45.66501" lon="5.71533">
        <ele>570</ele>
        <time>2017-04-24T18:04:14Z</time>
      </trkpt>
      <trkpt lat="45.66487" lon="5.71514">
        <ele>570</ele>
        <time>2017-04-24T18:04:14Z</time>
      </trkpt>
      <trkpt lat="45.66471" lon="5.715">
        <ele>570</ele>
        <time>2017-04-24T18:04:14Z</time>
      </trkpt>
      <trkpt lat="45.66454" lon="5.7149">
        <ele>593</ele>
        <time>2017-04-24T18:04:14Z</time>
      </trkpt>
      <trkpt lat="45.66425" lon="5.71488">
        <ele>593</ele>
        <time>2017-04-24T18:04:30Z</time>
      </trkpt>
      <trkpt lat="45.66404" lon="5.71469">
        <ele>593</ele>
        <time>2017-04-24T18:04:30Z</time>
      </trkpt>
      <trkpt lat="45.66395" lon="5.71463">
        <ele>593</ele>
        <time>2017-04-24T18:04:30Z</time>
      </trkpt>
      <trkpt lat="45.66387" lon="5.7146">
        <ele>593</ele>
        <time>2017-04-24T18:04:30Z</time>
      </trkpt>
      <trkpt lat="45.66383" lon="5.71449">
        <ele>582</ele>
        <time>2017-04-24T18:04:46Z</time>
      </trkpt>
      <trkpt lat="45.66378" lon="5.71442">
        <ele>582</ele>
        <time>2017-04-24T18:04:46Z</time>
      </trkpt>
      <trkpt lat="45.66373" lon="5.71439">
        <ele>593</ele>
        <time>2017-04-24T18:04:46Z</time>
      </trkpt>
      <trkpt lat="45.66368" lon="5.71436">
        <ele>593</ele>
        <time>2017-04-24T18:04:46Z</time>
      </trkpt>
      <trkpt lat="45.66361" lon="5.71435">
        <ele>593</ele>
        <time>2017-04-24T18:05:02Z</time>
      </trkpt>
      <trkpt lat="45.66355" lon="5.71432">
        <ele>593</ele>
        <time>2017-04-24T18:05:02Z</time>
      </trkpt>
      <trkpt lat="45.6635" lon="5.7143">
        <ele>593</ele>
        <time>2017-04-24T18:05:02Z</time>
      </trkpt>
      <trkpt lat="45.66349" lon="5.71435">
        <ele>593</ele>
        <time>2017-04-24T18:05:02Z</time>
      </trkpt>
      <trkpt lat="45.66342" lon="5.71432">
        <ele>593</ele>
        <time>2017-04-24T18:05:18Z</time>
      </trkpt>
      <trkpt lat="45.66338" lon="5.71431">
        <ele>593</ele>
        <time>2017-04-24T18:05:18Z</time>
      </trkpt>
      <trkpt lat="45.66334" lon="5.71429">
        <ele>593</ele>
        <time>2017-04-24T18:05:18Z</time>
      </trkpt>
      <trkpt lat="45.66302" lon="5.71419">
        <ele>593</ele>
        <time>2017-04-24T18:05:18Z</time>
      </trkpt>
      <trkpt lat="45.66292" lon="5.71406">
        <ele>593</ele>
        <time>2017-04-24T18:05:34Z</time>
      </trkpt>
      <trkpt lat="45.66277" lon="5.714">
        <ele>602</ele>
        <time>2017-04-24T18:05:34Z</time>
      </trkpt>
      <trkpt lat="45.66268" lon="5.71391">
        <ele>602</ele>
        <time>2017-04-24T18:05:34Z</time>
      </trkpt>
      <trkpt lat="45.66253" lon="5.7138">
        <ele>602</ele>
        <time>2017-04-24T18:05:34Z</time>
      </trkpt>
      <trkpt lat="45.66238" lon="5.71366">
        <ele>606</ele>
        <time>2017-04-24T18:05:50Z</time>
      </trkpt>
      <trkpt lat="45.66224" lon="5.71353">
        <ele>606</ele>
        <time>2017-04-24T18:05:50Z</time>
      </trkpt>
      <trkpt lat="45.66208" lon="5.71346">
        <ele>617</ele>
        <time>2017-04-24T18:05:50Z</time>
      </trkpt>
      <trkpt lat="45.66185" lon="5.71337">
        <ele>617</ele>
        <time>2017-04-24T18:05:50Z</time>
      </trkpt>
      <trkpt lat="45.66166" lon="5.7133">
        <ele>617</ele>
        <time>2017-04-24T18:06:06Z</time>
      </trkpt>
      <trkpt lat="45.66152" lon="5.71327">
        <ele>617</ele>
        <time>2017-04-24T18:06:06Z</time>
      </trkpt>
      <trkpt lat="45.6614" lon="5.71324">
        <ele>617</ele>
        <time>2017-04-24T18:06:06Z</time>
      </trkpt>
      <trkpt lat="45.66133" lon="5.71318">
        <ele>617</ele>
        <time>2017-04-24T18:06:06Z</time>
      </trkpt>
      <trkpt lat="45.66128" lon="5.71311">
        <ele>617</ele>
        <time>2017-04-24T18:06:22Z</time>
      </trkpt>
      <trkpt lat="45.6612" lon="5.71305">
        <ele>623</ele>
        <time>2017-04-24T18:06:22Z</time>
      </trkpt>
      <trkpt lat="45.66111" lon="5.713">
        <ele>623</ele>
        <time>2017-04-24T18:06:22Z</time>
      </trkpt>
      <trkpt lat="45.66103" lon="5.71297">
        <ele>623</ele>
        <time>2017-04-24T18:06:22Z</time>
      </trkpt>
      <trkpt lat="45.66094" lon="5.71296">
        <ele>623</ele>
        <time>2017-04-24T18:06:38Z</time>
      </trkpt>
      <trkpt lat="45.66085" lon="5.71292">
        <ele>623</ele>
        <time>2017-04-24T18:06:38Z</time>
      </trkpt>
      <trkpt lat="45.66078" lon="5.71286">
        <ele>623</ele>
        <time>2017-04-24T18:06:38Z</time>
      </trkpt>
      <trkpt lat="45.66074" lon="5.71282">
        <ele>623</ele>
        <time>2017-04-24T18:06:38Z</time>
      </trkpt>
      <trkpt lat="45.66074" lon="5.71283">
        <ele>623</ele>
        <time>2017-04-24T18:06:54Z</time>
      </trkpt>
      <trkpt lat="45.6607" lon="5.71287">
        <ele>623</ele>
        <time>2017-04-24T18:06:54Z</time>
      </trkpt>
      <trkpt lat="45.66066" lon="5.7129">
        <ele>623</ele>
        <time>2017-04-24T18:06:54Z</time>
      </trkpt>
      <trkpt lat="45.66061" lon="5.71293">
        <ele>623</ele>
        <time>2017-04-24T18:06:54Z</time>
      </trkpt>
      <trkpt lat="45.66059" lon="5.713">
        <ele>623</ele>
        <time>2017-04-24T18:07:10Z</time>
      </trkpt>
      <trkpt lat="45.66055" lon="5.71305">
        <ele>623</ele>
        <time>2017-04-24T18:07:10Z</time>
      </trkpt>
      <trkpt lat="45.6605" lon="5.71308">
        <ele>623</ele>
        <time>2017-04-24T18:07:10Z</time>
      </trkpt>
      <trkpt lat="45.66042" lon="5.71312">
        <ele>623</ele>
        <time>2017-04-24T18:07:10Z</time>
      </trkpt>
      <trkpt lat="45.66037" lon="5.71314">
        <ele>632</ele>
        <time>2017-04-24T18:07:26Z</time>
      </trkpt>
      <trkpt lat="45.6603" lon="5.71317">
        <ele>632</ele>
        <time>2017-04-24T18:07:26Z</time>
      </trkpt>
      <trkpt lat="45.66025" lon="5.71325">
        <ele>632</ele>
        <time>2017-04-24T18:07:26Z</time>
      </trkpt>
      <trkpt lat="45.66022" lon="5.71334">
        <ele>632</ele>
        <time>2017-04-24T18:07:26Z</time>
      </trkpt>
      <trkpt lat="45.6602" lon="5.71342">
        <ele>632</ele>
        <time>2017-04-24T18:07:42Z</time>
      </trkpt>
      <trkpt lat="45.66017" lon="5.71347">
        <ele>632</ele>
        <time>2017-04-24T18:07:42Z</time>
      </trkpt>
      <trkpt lat="45.6602" lon="5.71354">
        <ele>632</ele>
        <time>2017-04-24T18:07:42Z</time>
      </trkpt>
      <trkpt lat="45.6602" lon="5.7136">
        <ele>632</ele>
        <time>2017-04-24T18:07:42Z</time>
      </trkpt>
      <trkpt lat="45.66021" lon="5.71368">
        <ele>632</ele>
        <time>2017-04-24T18:07:58Z</time>
      </trkpt>
      <trkpt lat="45.6602" lon="5.71375">
        <ele>635</ele>
        <time>2017-04-24T18:07:58Z</time>
      </trkpt>
      <trkpt lat="45.66021" lon="5.71378">
        <ele>635</ele>
        <time>2017-04-24T18:07:58Z</time>
      </trkpt>
      <trkpt lat="45.6602" lon="5.71382">
        <ele>635</ele>
        <time>2017-04-24T18:07:58Z</time>
      </trkpt>
      <trkpt lat="45.6602" lon="5.71386">
        <ele>635</ele>
        <time>2017-04-24T18:08:14Z</time>
      </trkpt>
      <trkpt lat="45.66015" lon="5.71391">
        <ele>635</ele>
        <time>2017-04-24T18:08:14Z</time>
      </trkpt>
      <trkpt lat="45.6601" lon="5.71399">
        <ele>635</ele>
        <time>2017-04-24T18:08:14Z</time>
      </trkpt>
      <trkpt lat="45.66007" lon="5.71406">
        <ele>635</ele>
        <time>2017-04-24T18:08:14Z</time>
      </trkpt>
      <trkpt lat="45.66005" lon="5.71416">
        <ele>635</ele>
        <time>2017-04-24T18:08:30Z</time>
      </trkpt>
      <trkpt lat="45.66" lon="5.71422">
        <ele>635</ele>
        <time>2017-04-24T18:08:30Z</time>
      </trkpt>
      <trkpt lat="45.65993" lon="5.71422">
        <ele>635</ele>
        <time>2017-04-24T18:08:30Z</time>
      </trkpt>
      <trkpt lat="45.65988" lon="5.71418">
        <ele>635</ele>
        <time>2017-04-24T18:08:30Z</time>
      </trkpt>
      <trkpt lat="45.65986" lon="5.71414">
        <ele>635</ele>
        <time>2017-04-24T18:08:50Z</time>
      </trkpt>
      <trkpt lat="45.65986" lon="5.71415">
        <ele>635</ele>
        <time>2017-04-24T18:08:50Z</time>
      </trkpt>
      <trkpt lat="45.65983" lon="5.71411">
        <ele>635</ele>
        <time>2017-04-24T18:08:50Z</time>
      </trkpt>
      <trkpt lat="45.65981" lon="5.71407">
        <ele>635</ele>
        <time>2017-04-24T18:08:50Z</time>
      </trkpt>
      <trkpt lat="45.65973" lon="5.71388">
        <ele>635</ele>
        <time>2017-04-24T18:08:50Z</time>
      </trkpt>
      <trkpt lat="45.6597" lon="5.71375">
        <ele>632</ele>
        <time>2017-04-24T18:09:06Z</time>
      </trkpt>
      <trkpt lat="45.65968" lon="5.71368">
        <ele>632</ele>
        <time>2017-04-24T18:09:06Z</time>
      </trkpt>
      <trkpt lat="45.65955" lon="5.71352">
        <ele>640</ele>
        <time>2017-04-24T18:09:06Z</time>
      </trkpt>
      <trkpt lat="45.65936" lon="5.71324">
        <ele>640</ele>
        <time>2017-04-24T18:09:06Z</time>
      </trkpt>
      <trkpt lat="45.65925" lon="5.71297">
        <ele>640</ele>
        <time>2017-04-24T18:09:22Z</time>
      </trkpt>
      <trkpt lat="45.65912" lon="5.71272">
        <ele>640</ele>
        <time>2017-04-24T18:09:22Z</time>
      </trkpt>
      <trkpt lat="45.65903" lon="5.71255">
        <ele>640</ele>
        <time>2017-04-24T18:09:22Z</time>
      </trkpt>
      <trkpt lat="45.65895" lon="5.71245">
        <ele>640</ele>
        <time>2017-04-24T18:09:22Z</time>
      </trkpt>
      <trkpt lat="45.65889" lon="5.71244">
        <ele>640</ele>
        <time>2017-04-24T18:09:38Z</time>
      </trkpt>
      <trkpt lat="45.65884" lon="5.71242">
        <ele>640</ele>
        <time>2017-04-24T18:09:38Z</time>
      </trkpt>
      <trkpt lat="45.65876" lon="5.71236">
        <ele>640</ele>
        <time>2017-04-24T18:09:38Z</time>
      </trkpt>
      <trkpt lat="45.65867" lon="5.71229">
        <ele>650</ele>
        <time>2017-04-24T18:09:38Z</time>
      </trkpt>
      <trkpt lat="45.65857" lon="5.7122">
        <ele>650</ele>
        <time>2017-04-24T18:09:54Z</time>
      </trkpt>
      <trkpt lat="45.65847" lon="5.71212">
        <ele>650</ele>
        <time>2017-04-24T18:09:54Z</time>
      </trkpt>
      <trkpt lat="45.65838" lon="5.71206">
        <ele>647</ele>
        <time>2017-04-24T18:09:54Z</time>
      </trkpt>
      <trkpt lat="45.6583" lon="5.71206">
        <ele>647</ele>
        <time>2017-04-24T18:09:54Z</time>
      </trkpt>
      <trkpt lat="45.65823" lon="5.71214">
        <ele>650</ele>
        <time>2017-04-24T18:10:22Z</time>
      </trkpt>
      <trkpt lat="45.65824" lon="5.7122">
        <ele>650</ele>
        <time>2017-04-24T18:10:22Z</time>
      </trkpt>
      <trkpt lat="45.65824" lon="5.71228">
        <ele>650</ele>
        <time>2017-04-24T18:10:22Z</time>
      </trkpt>
      <trkpt lat="45.65823" lon="5.71234">
        <ele>650</ele>
        <time>2017-04-24T18:10:22Z</time>
      </trkpt>
      <trkpt lat="45.65824" lon="5.71241">
        <ele>650</ele>
        <time>2017-04-24T18:10:22Z</time>
      </trkpt>
      <trkpt lat="45.65824" lon="5.71249">
        <ele>650</ele>
        <time>2017-04-24T18:10:38Z</time>
      </trkpt>
      <trkpt lat="45.65824" lon="5.71256">
        <ele>650</ele>
        <time>2017-04-24T18:10:38Z</time>
      </trkpt>
      <trkpt lat="45.65828" lon="5.71264">
        <ele>650</ele>
        <time>2017-04-24T18:10:38Z</time>
      </trkpt>
      <trkpt lat="45.65832" lon="5.71274">
        <ele>650</ele>
        <time>2017-04-24T18:10:38Z</time>
      </trkpt>
      <trkpt lat="45.65838" lon="5.71281">
        <ele>650</ele>
        <time>2017-04-24T18:10:54Z</time>
      </trkpt>
      <trkpt lat="45.6584" lon="5.71286">
        <ele>650</ele>
        <time>2017-04-24T18:10:54Z</time>
      </trkpt>
      <trkpt lat="45.65841" lon="5.71291">
        <ele>650</ele>
        <time>2017-04-24T18:10:54Z</time>
      </trkpt>
      <trkpt lat="45.65845" lon="5.71295">
        <ele>654</ele>
        <time>2017-04-24T18:10:54Z</time>
      </trkpt>
      <trkpt lat="45.65849" lon="5.71301">
        <ele>654</ele>
        <time>2017-04-24T18:11:10Z</time>
      </trkpt>
      <trkpt lat="45.65853" lon="5.71307">
        <ele>654</ele>
        <time>2017-04-24T18:11:10Z</time>
      </trkpt>
      <trkpt lat="45.65857" lon="5.71315">
        <ele>654</ele>
        <time>2017-04-24T18:11:10Z</time>
      </trkpt>
      <trkpt lat="45.65856" lon="5.71324">
        <ele>654</ele>
        <time>2017-04-24T18:11:10Z</time>
      </trkpt>
      <trkpt lat="45.6586" lon="5.71333">
        <ele>654</ele>
        <time>2017-04-24T18:11:26Z</time>
      </trkpt>
      <trkpt lat="45.65864" lon="5.71343">
        <ele>654</ele>
        <time>2017-04-24T18:11:26Z</time>
      </trkpt>
      <trkpt lat="45.65868" lon="5.7135">
        <ele>654</ele>
        <time>2017-04-24T18:11:26Z</time>
      </trkpt>
      <trkpt lat="45.6587" lon="5.71352">
        <ele>654</ele>
        <time>2017-04-24T18:11:26Z</time>
      </trkpt>
      <trkpt lat="45.65869" lon="5.7136">
        <ele>654</ele>
        <time>2017-04-24T18:11:42Z</time>
      </trkpt>
      <trkpt lat="45.6587" lon="5.71367">
        <ele>654</ele>
        <time>2017-04-24T18:11:42Z</time>
      </trkpt>
      <trkpt lat="45.65872" lon="5.71372">
        <ele>654</ele>
        <time>2017-04-24T18:11:42Z</time>
      </trkpt>
      <trkpt lat="45.65878" lon="5.71378">
        <ele>647</ele>
        <time>2017-04-24T18:11:42Z</time>
      </trkpt>
      <trkpt lat="45.65885" lon="5.71381">
        <ele>647</ele>
        <time>2017-04-24T18:11:58Z</time>
      </trkpt>
      <trkpt lat="45.65891" lon="5.71381">
        <ele>647</ele>
        <time>2017-04-24T18:11:58Z</time>
      </trkpt>
      <trkpt lat="45.65896" lon="5.71383">
        <ele>647</ele>
        <time>2017-04-24T18:11:58Z</time>
      </trkpt>
      <trkpt lat="45.659" lon="5.71388">
        <ele>647</ele>
        <time>2017-04-24T18:11:58Z</time>
      </trkpt>
      <trkpt lat="45.65903" lon="5.71397">
        <ele>647</ele>
        <time>2017-04-24T18:12:14Z</time>
      </trkpt>
      <trkpt lat="45.65904" lon="5.71407">
        <ele>647</ele>
        <time>2017-04-24T18:12:14Z</time>
      </trkpt>
      <trkpt lat="45.65907" lon="5.71417">
        <ele>647</ele>
        <time>2017-04-24T18:12:14Z</time>
      </trkpt>
      <trkpt lat="45.65905" lon="5.71425">
        <ele>647</ele>
        <time>2017-04-24T18:12:14Z</time>
      </trkpt>
      <trkpt lat="45.65902" lon="5.7143">
        <ele>647</ele>
        <time>2017-04-24T18:12:30Z</time>
      </trkpt>
      <trkpt lat="45.65896" lon="5.71433">
        <ele>647</ele>
        <time>2017-04-24T18:12:30Z</time>
      </trkpt>
      <trkpt lat="45.65892" lon="5.71436">
        <ele>647</ele>
        <time>2017-04-24T18:12:30Z</time>
      </trkpt>
      <trkpt lat="45.65889" lon="5.71441">
        <ele>647</ele>
        <time>2017-04-24T18:12:30Z</time>
      </trkpt>
      <trkpt lat="45.65885" lon="5.71449">
        <ele>647</ele>
        <time>2017-04-24T18:12:46Z</time>
      </trkpt>
      <trkpt lat="45.65885" lon="5.71456">
        <ele>647</ele>
        <time>2017-04-24T18:12:46Z</time>
      </trkpt>
      <trkpt lat="45.65888" lon="5.71464">
        <ele>656</ele>
        <time>2017-04-24T18:12:46Z</time>
      </trkpt>
      <trkpt lat="45.65888" lon="5.7147">
        <ele>656</ele>
        <time>2017-04-24T18:12:46Z</time>
      </trkpt>
      <trkpt lat="45.65891" lon="5.71476">
        <ele>656</ele>
        <time>2017-04-24T18:13:02Z</time>
      </trkpt>
      <trkpt lat="45.65893" lon="5.71484">
        <ele>656</ele>
        <time>2017-04-24T18:13:02Z</time>
      </trkpt>
      <trkpt lat="45.65896" lon="5.71492">
        <ele>656</ele>
        <time>2017-04-24T18:13:02Z</time>
      </trkpt>
      <trkpt lat="45.65899" lon="5.71498">
        <ele>656</ele>
        <time>2017-04-24T18:13:02Z</time>
      </trkpt>
      <trkpt lat="45.65903" lon="5.71503">
        <ele>656</ele>
        <time>2017-04-24T18:13:18Z</time>
      </trkpt>
      <trkpt lat="45.65904" lon="5.71509">
        <ele>656</ele>
        <time>2017-04-24T18:13:18Z</time>
      </trkpt>
      <trkpt lat="45.65906" lon="5.71513">
        <ele>656</ele>
        <time>2017-04-24T18:13:18Z</time>
      </trkpt>
      <trkpt lat="45.65909" lon="5.71517">
        <ele>656</ele>
        <time>2017-04-24T18:13:18Z</time>
      </trkpt>
      <trkpt lat="45.65911" lon="5.71519">
        <ele>656</ele>
        <time>2017-04-24T18:13:34Z</time>
      </trkpt>
      <trkpt lat="45.65916" lon="5.71525">
        <ele>656</ele>
        <time>2017-04-24T18:13:34Z</time>
      </trkpt>
      <trkpt lat="45.65921" lon="5.71532">
        <ele>656</ele>
        <time>2017-04-24T18:13:34Z</time>
      </trkpt>
      <trkpt lat="45.65921" lon="5.7154">
        <ele>656</ele>
        <time>2017-04-24T18:13:34Z</time>
      </trkpt>
      <trkpt lat="45.65912" lon="5.71538">
        <ele>656</ele>
        <time>2017-04-24T18:13:50Z</time>
      </trkpt>
      <trkpt lat="45.65895" lon="5.71527">
        <ele>656</ele>
        <time>2017-04-24T18:13:50Z</time>
      </trkpt>
      <trkpt lat="45.65879" lon="5.71521">
        <ele>656</ele>
        <time>2017-04-24T18:13:50Z</time>
      </trkpt>
      <trkpt lat="45.65863" lon="5.71516">
        <ele>673</ele>
        <time>2017-04-24T18:13:50Z</time>
      </trkpt>
      <trkpt lat="45.65838" lon="5.71491">
        <ele>673</ele>
        <time>2017-04-24T18:14:06Z</time>
      </trkpt>
      <trkpt lat="45.65818" lon="5.71469">
        <ele>673</ele>
        <time>2017-04-24T18:14:06Z</time>
      </trkpt>
      <trkpt lat="45.65808" lon="5.71451">
        <ele>663</ele>
        <time>2017-04-24T18:14:06Z</time>
      </trkpt>
      <trkpt lat="45.65792" lon="5.71437">
        <ele>663</ele>
        <time>2017-04-24T18:14:06Z</time>
      </trkpt>
      <trkpt lat="45.65772" lon="5.71421">
        <ele>680</ele>
        <time>2017-04-24T18:14:22Z</time>
      </trkpt>
      <trkpt lat="45.65753" lon="5.71408">
        <ele>680</ele>
        <time>2017-04-24T18:14:22Z</time>
      </trkpt>
      <trkpt lat="45.65736" lon="5.71396">
        <ele>680</ele>
        <time>2017-04-24T18:14:22Z</time>
      </trkpt>
      <trkpt lat="45.65734" lon="5.71388">
        <ele>680</ele>
        <time>2017-04-24T18:14:22Z</time>
      </trkpt>
      <trkpt lat="45.65731" lon="5.71382">
        <ele>680</ele>
        <time>2017-04-24T18:14:38Z</time>
      </trkpt>
      <trkpt lat="45.65728" lon="5.71378">
        <ele>680</ele>
        <time>2017-04-24T18:14:38Z</time>
      </trkpt>
      <trkpt lat="45.65721" lon="5.7137">
        <ele>670</ele>
        <time>2017-04-24T18:14:38Z</time>
      </trkpt>
      <trkpt lat="45.65694" lon="5.71342">
        <ele>690</ele>
        <time>2017-04-24T18:14:38Z</time>
      </trkpt>
      <trkpt lat="45.65677" lon="5.71319">
        <ele>690</ele>
        <time>2017-04-24T18:14:54Z</time>
      </trkpt>
      <trkpt lat="45.65658" lon="5.71304">
        <ele>690</ele>
        <time>2017-04-24T18:14:54Z</time>
      </trkpt>
      <trkpt lat="45.65639" lon="5.71283">
        <ele>682</ele>
        <time>2017-04-24T18:14:54Z</time>
      </trkpt>
      <trkpt lat="45.65623" lon="5.71266">
        <ele>700</ele>
        <time>2017-04-24T18:14:54Z</time>
      </trkpt>
      <trkpt lat="45.6561" lon="5.7126">
        <ele>700</ele>
        <time>2017-04-24T18:15:10Z</time>
      </trkpt>
      <trkpt lat="45.65603" lon="5.71252">
        <ele>700</ele>
        <time>2017-04-24T18:15:10Z</time>
      </trkpt>
      <trkpt lat="45.65596" lon="5.71249">
        <ele>700</ele>
        <time>2017-04-24T18:15:10Z</time>
      </trkpt>
      <trkpt lat="45.65591" lon="5.71248">
        <ele>700</ele>
        <time>2017-04-24T18:15:10Z</time>
      </trkpt>
      <trkpt lat="45.65587" lon="5.71248">
        <ele>700</ele>
        <time>2017-04-24T18:15:30Z</time>
      </trkpt>
      <trkpt lat="45.65586" lon="5.71248">
        <ele>700</ele>
        <time>2017-04-24T18:15:30Z</time>
      </trkpt>
      <trkpt lat="45.65584" lon="5.71247">
        <ele>700</ele>
        <time>2017-04-24T18:15:30Z</time>
      </trkpt>
      <trkpt lat="45.65578" lon="5.71247">
        <ele>700</ele>
        <time>2017-04-24T18:15:30Z</time>
      </trkpt>
      <trkpt lat="45.65572" lon="5.71248">
        <ele>700</ele>
        <time>2017-04-24T18:15:30Z</time>
      </trkpt>
      <trkpt lat="45.65567" lon="5.7125">
        <ele>700</ele>
        <time>2017-04-24T18:15:46Z</time>
      </trkpt>
      <trkpt lat="45.65563" lon="5.71252">
        <ele>700</ele>
        <time>2017-04-24T18:15:46Z</time>
      </trkpt>
      <trkpt lat="45.65556" lon="5.71253">
        <ele>700</ele>
        <time>2017-04-24T18:15:46Z</time>
      </trkpt>
      <trkpt lat="45.65552" lon="5.71253">
        <ele>700</ele>
        <time>2017-04-24T18:15:46Z</time>
      </trkpt>
      <trkpt lat="45.65546" lon="5.71253">
        <ele>700</ele>
        <time>2017-04-24T18:16:02Z</time>
      </trkpt>
      <trkpt lat="45.65539" lon="5.71254">
        <ele>716</ele>
        <time>2017-04-24T18:16:02Z</time>
      </trkpt>
      <trkpt lat="45.65531" lon="5.71255">
        <ele>716</ele>
        <time>2017-04-24T18:16:02Z</time>
      </trkpt>
      <trkpt lat="45.65523" lon="5.71256">
        <ele>716</ele>
        <time>2017-04-24T18:16:02Z</time>
      </trkpt>
      <trkpt lat="45.65515" lon="5.71253">
        <ele>716</ele>
        <time>2017-04-24T18:16:18Z</time>
      </trkpt>
      <trkpt lat="45.6551" lon="5.71254">
        <ele>716</ele>
        <time>2017-04-24T18:16:18Z</time>
      </trkpt>
      <trkpt lat="45.65508" lon="5.71258">
        <ele>716</ele>
        <time>2017-04-24T18:16:18Z</time>
      </trkpt>
      <trkpt lat="45.65506" lon="5.71262">
        <ele>716</ele>
        <time>2017-04-24T18:16:18Z</time>
      </trkpt>
      <trkpt lat="45.655" lon="5.71264">
        <ele>716</ele>
        <time>2017-04-24T18:16:34Z</time>
      </trkpt>
      <trkpt lat="45.65496" lon="5.71269">
        <ele>716</ele>
        <time>2017-04-24T18:16:34Z</time>
      </trkpt>
      <trkpt lat="45.6549" lon="5.71268">
        <ele>716</ele>
        <time>2017-04-24T18:16:34Z</time>
      </trkpt>
      <trkpt lat="45.65481" lon="5.7126">
        <ele>716</ele>
        <time>2017-04-24T18:16:34Z</time>
      </trkpt>
      <trkpt lat="45.65475" lon="5.71258">
        <ele>716</ele>
        <time>2017-04-24T18:16:50Z</time>
      </trkpt>
      <trkpt lat="45.65471" lon="5.71256">
        <ele>716</ele>
        <time>2017-04-24T18:16:50Z</time>
      </trkpt>
      <trkpt lat="45.65468" lon="5.71248">
        <ele>716</ele>
        <time>2017-04-24T18:16:50Z</time>
      </trkpt>
      <trkpt lat="45.65455" lon="5.71244">
        <ele>739</ele>
        <time>2017-04-24T18:16:50Z</time>
      </trkpt>
      <trkpt lat="45.6544" lon="5.71243">
        <ele>739</ele>
        <time>2017-04-24T18:17:06Z</time>
      </trkpt>
      <trkpt lat="45.65424" lon="5.71244">
        <ele>739</ele>
        <time>2017-04-24T18:17:06Z</time>
      </trkpt>
      <trkpt lat="45.65414" lon="5.71243">
        <ele>739</ele>
        <time>2017-04-24T18:17:06Z</time>
      </trkpt>
      <trkpt lat="45.65408" lon="5.71246">
        <ele>739</ele>
        <time>2017-04-24T18:17:06Z</time>
      </trkpt>
      <trkpt lat="45.654" lon="5.71248">
        <ele>739</ele>
        <time>2017-04-24T18:17:22Z</time>
      </trkpt>
      <trkpt lat="45.65393" lon="5.71249">
        <ele>739</ele>
        <time>2017-04-24T18:17:22Z</time>
      </trkpt>
      <trkpt lat="45.6539" lon="5.71251">
        <ele>739</ele>
        <time>2017-04-24T18:17:22Z</time>
      </trkpt>
      <trkpt lat="45.65389" lon="5.71251">
        <ele>739</ele>
        <time>2017-04-24T18:17:22Z</time>
      </trkpt>
      <trkpt lat="45.65388" lon="5.71252">
        <ele>739</ele>
        <time>2017-04-24T18:17:42Z</time>
      </trkpt>
      <trkpt lat="45.65388" lon="5.71252">
        <ele>739</ele>
        <time>2017-04-24T18:17:42Z</time>
      </trkpt>
      <trkpt lat="45.65388" lon="5.71252">
        <ele>739</ele>
        <time>2017-04-24T18:17:42Z</time>
      </trkpt>
      <trkpt lat="45.65384" lon="5.71252">
        <ele>739</ele>
        <time>2017-04-24T18:17:42Z</time>
      </trkpt>
      <trkpt lat="45.65377" lon="5.71251">
        <ele>739</ele>
        <time>2017-04-24T18:17:42Z</time>
      </trkpt>
      <trkpt lat="45.65365" lon="5.71252">
        <ele>746</ele>
        <time>2017-04-24T18:17:58Z</time>
      </trkpt>
      <trkpt lat="45.65351" lon="5.71253">
        <ele>746</ele>
        <time>2017-04-24T18:17:58Z</time>
      </trkpt>
      <trkpt lat="45.65344" lon="5.71254">
        <ele>746</ele>
        <time>2017-04-24T18:17:58Z</time>
      </trkpt>
      <trkpt lat="45.6534" lon="5.71255">
        <ele>746</ele>
        <time>2017-04-24T18:17:58Z</time>
      </trkpt>
      <trkpt lat="45.65336" lon="5.71257">
        <ele>746</ele>
        <time>2017-04-24T18:18:14Z</time>
      </trkpt>
      <trkpt lat="45.65333" lon="5.71261">
        <ele>746</ele>
        <time>2017-04-24T18:18:14Z</time>
      </trkpt>
      <trkpt lat="45.65328" lon="5.71265">
        <ele>746</ele>
        <time>2017-04-24T18:18:14Z</time>
      </trkpt>
      <trkpt lat="45.65323" lon="5.71267">
        <ele>746</ele>
        <time>2017-04-24T18:18:14Z</time>
      </trkpt>
      <trkpt lat="45.65314" lon="5.71267">
        <ele>746</ele>
        <time>2017-04-24T18:18:30Z</time>
      </trkpt>
      <trkpt lat="45.6531" lon="5.71271">
        <ele>746</ele>
        <time>2017-04-24T18:18:30Z</time>
      </trkpt>
      <trkpt lat="45.65303" lon="5.71274">
        <ele>746</ele>
        <time>2017-04-24T18:18:30Z</time>
      </trkpt>
      <trkpt lat="45.65297" lon="5.71274">
        <ele>746</ele>
        <time>2017-04-24T18:18:30Z</time>
      </trkpt>
      <trkpt lat="45.65291" lon="5.71275">
        <ele>741</ele>
        <time>2017-04-24T18:18:46Z</time>
      </trkpt>
      <trkpt lat="45.65287" lon="5.71277">
        <ele>741</ele>
        <time>2017-04-24T18:18:46Z</time>
      </trkpt>
      <trkpt lat="45.65283" lon="5.71279">
        <ele>741</ele>
        <time>2017-04-24T18:18:46Z</time>
      </trkpt>
      <trkpt lat="45.65278" lon="5.71284">
        <ele>741</ele>
        <time>2017-04-24T18:18:46Z</time>
      </trkpt>
      <trkpt lat="45.65274" lon="5.71286">
        <ele>741</ele>
        <time>2017-04-24T18:19:02Z</time>
      </trkpt>
      <trkpt lat="45.65268" lon="5.7129">
        <ele>741</ele>
        <time>2017-04-24T18:19:02Z</time>
      </trkpt>
      <trkpt lat="45.65262" lon="5.71292">
        <ele>743</ele>
        <time>2017-04-24T18:19:02Z</time>
      </trkpt>
      <trkpt lat="45.65257" lon="5.71298">
        <ele>743</ele>
        <time>2017-04-24T18:19:02Z</time>
      </trkpt>
      <trkpt lat="45.65252" lon="5.71298">
        <ele>743</ele>
        <time>2017-04-24T18:19:18Z</time>
      </trkpt>
      <trkpt lat="45.65247" lon="5.71297">
        <ele>743</ele>
        <time>2017-04-24T18:19:18Z</time>
      </trkpt>
      <trkpt lat="45.65239" lon="5.71295">
        <ele>743</ele>
        <time>2017-04-24T18:19:18Z</time>
      </trkpt>
      <trkpt lat="45.65232" lon="5.71297">
        <ele>743</ele>
        <time>2017-04-24T18:19:18Z</time>
      </trkpt>
      <trkpt lat="45.65226" lon="5.71298">
        <ele>743</ele>
        <time>2017-04-24T18:19:34Z</time>
      </trkpt>
      <trkpt lat="45.6522" lon="5.71303">
        <ele>743</ele>
        <time>2017-04-24T18:19:34Z</time>
      </trkpt>
      <trkpt lat="45.65217" lon="5.71305">
        <ele>743</ele>
        <time>2017-04-24T18:19:34Z</time>
      </trkpt>
      <trkpt lat="45.65213" lon="5.7131">
        <ele>743</ele>
        <time>2017-04-24T18:19:34Z</time>
      </trkpt>
      <trkpt lat="45.65207" lon="5.71316">
        <ele>740</ele>
        <time>2017-04-24T18:19:50Z</time>
      </trkpt>
      <trkpt lat="45.65199" lon="5.71327">
        <ele>740</ele>
        <time>2017-04-24T18:19:50Z</time>
      </trkpt>
      <trkpt lat="45.65195" lon="5.7133">
        <ele>740</ele>
        <time>2017-04-24T18:19:50Z</time>
      </trkpt>
      <trkpt lat="45.65188" lon="5.71326">
        <ele>740</ele>
        <time>2017-04-24T18:19:50Z</time>
      </trkpt>
      <trkpt lat="45.65184" lon="5.71323">
        <ele>740</ele>
        <time>2017-04-24T18:20:06Z</time>
      </trkpt>
      <trkpt lat="45.65182" lon="5.71316">
        <ele>740</ele>
        <time>2017-04-24T18:20:06Z</time>
      </trkpt>
      <trkpt lat="45.65179" lon="5.7131">
        <ele>740</ele>
        <time>2017-04-24T18:20:06Z</time>
      </trkpt>
      <trkpt lat="45.65178" lon="5.713">
        <ele>740</ele>
        <time>2017-04-24T18:20:06Z</time>
      </trkpt>
      <trkpt lat="45.65178" lon="5.7129">
        <ele>740</ele>
        <time>2017-04-24T18:20:22Z</time>
      </trkpt>
      <trkpt lat="45.65173" lon="5.71283">
        <ele>740</ele>
        <time>2017-04-24T18:20:22Z</time>
      </trkpt>
      <trkpt lat="45.65167" lon="5.71276">
        <ele>740</ele>
        <time>2017-04-24T18:20:22Z</time>
      </trkpt>
      <trkpt lat="45.65162" lon="5.71271">
        <ele>740</ele>
        <time>2017-04-24T18:20:22Z</time>
      </trkpt>
      <trkpt lat="45.6516" lon="5.71272">
        <ele>740</ele>
        <time>2017-04-24T18:20:38Z</time>
      </trkpt>
      <trkpt lat="45.65158" lon="5.71275">
        <ele>740</ele>
        <time>2017-04-24T18:20:38Z</time>
      </trkpt>
      <trkpt lat="45.65157" lon="5.71279">
        <ele>740</ele>
        <time>2017-04-24T18:20:38Z</time>
      </trkpt>
      <trkpt lat="45.65156" lon="5.71285">
        <ele>740</ele>
        <time>2017-04-24T18:20:38Z</time>
      </trkpt>
      <trkpt lat="45.65155" lon="5.71292">
        <ele>740</ele>
        <time>2017-04-24T18:20:54Z</time>
      </trkpt>
      <trkpt lat="45.65156" lon="5.713">
        <ele>740</ele>
        <time>2017-04-24T18:20:54Z</time>
      </trkpt>
      <trkpt lat="45.6516" lon="5.7131">
        <ele>740</ele>
        <time>2017-04-24T18:20:54Z</time>
      </trkpt>
      <trkpt lat="45.65159" lon="5.71317">
        <ele>740</ele>
        <time>2017-04-24T18:20:54Z</time>
      </trkpt>
      <trkpt lat="45.65159" lon="5.71323">
        <ele>740</ele>
        <time>2017-04-24T18:21:10Z</time>
      </trkpt>
      <trkpt lat="45.65161" lon="5.71331">
        <ele>740</ele>
        <time>2017-04-24T18:21:10Z</time>
      </trkpt>
      <trkpt lat="45.65163" lon="5.71339">
        <ele>740</ele>
        <time>2017-04-24T18:21:10Z</time>
      </trkpt>
      <trkpt lat="45.65163" lon="5.7135">
        <ele>740</ele>
        <time>2017-04-24T18:21:10Z</time>
      </trkpt>
      <trkpt lat="45.65159" lon="5.71359">
        <ele>740</ele>
        <time>2017-04-24T18:21:26Z</time>
      </trkpt>
      <trkpt lat="45.65155" lon="5.71367">
        <ele>740</ele>
        <time>2017-04-24T18:21:26Z</time>
      </trkpt>
      <trkpt lat="45.65153" lon="5.71377">
        <ele>740</ele>
        <time>2017-04-24T18:21:26Z</time>
      </trkpt>
      <trkpt lat="45.6515" lon="5.71385">
        <ele>740</ele>
        <time>2017-04-24T18:21:26Z</time>
      </trkpt>
      <trkpt lat="45.65145" lon="5.71394">
        <ele>740</ele>
        <time>2017-04-24T18:21:42Z</time>
      </trkpt>
      <trkpt lat="45.65139" lon="5.71405">
        <ele>740</ele>
        <time>2017-04-24T18:21:42Z</time>
      </trkpt>
      <trkpt lat="45.65135" lon="5.71414">
        <ele>740</ele>
        <time>2017-04-24T18:21:42Z</time>
      </trkpt>
      <trkpt lat="45.65133" lon="5.71422">
        <ele>740</ele>
        <time>2017-04-24T18:21:42Z</time>
      </trkpt>
      <trkpt lat="45.65131" lon="5.7143">
        <ele>740</ele>
        <time>2017-04-24T18:21:58Z</time>
      </trkpt>
      <trkpt lat="45.65127" lon="5.71438">
        <ele>740</ele>
        <time>2017-04-24T18:21:58Z</time>
      </trkpt>
      <trkpt lat="45.65124" lon="5.71447">
        <ele>739</ele>
        <time>2017-04-24T18:21:58Z</time>
      </trkpt>
      <trkpt lat="45.6512" lon="5.71454">
        <ele>739</ele>
        <time>2017-04-24T18:21:58Z</time>
      </trkpt>
      <trkpt lat="45.65115" lon="5.71461">
        <ele>740</ele>
        <time>2017-04-24T18:22:14Z</time>
      </trkpt>
      <trkpt lat="45.65111" lon="5.71466">
        <ele>740</ele>
        <time>2017-04-24T18:22:14Z</time>
      </trkpt>
      <trkpt lat="45.65108" lon="5.71475">
        <ele>740</ele>
        <time>2017-04-24T18:22:14Z</time>
      </trkpt>
      <trkpt lat="45.65105" lon="5.71482">
        <ele>740</ele>
        <time>2017-04-24T18:22:14Z</time>
      </trkpt>
      <trkpt lat="45.65101" lon="5.71489">
        <ele>740</ele>
        <time>2017-04-24T18:22:30Z</time>
      </trkpt>
      <trkpt lat="45.65097" lon="5.71495">
        <ele>740</ele>
        <time>2017-04-24T18:22:30Z</time>
      </trkpt>
      <trkpt lat="45.65093" lon="5.715">
        <ele>740</ele>
        <time>2017-04-24T18:22:30Z</time>
      </trkpt>
      <trkpt lat="45.6509" lon="5.71508">
        <ele>740</ele>
        <time>2017-04-24T18:22:30Z</time>
      </trkpt>
      <trkpt lat="45.65084" lon="5.71515">
        <ele>740</ele>
        <time>2017-04-24T18:22:46Z</time>
      </trkpt>
      <trkpt lat="45.65078" lon="5.7152">
        <ele>740</ele>
        <time>2017-04-24T18:22:46Z</time>
      </trkpt>
      <trkpt lat="45.65073" lon="5.71526">
        <ele>740</ele>
        <time>2017-04-24T18:22:46Z</time>
      </trkpt>
      <trkpt lat="45.6507" lon="5.7153">
        <ele>740</ele>
        <time>2017-04-24T18:22:46Z</time>
      </trkpt>
      <trkpt lat="45.65067" lon="5.7154">
        <ele>740</ele>
        <time>2017-04-24T18:23:02Z</time>
      </trkpt>
      <trkpt lat="45.65064" lon="5.71551">
        <ele>741</ele>
        <time>2017-04-24T18:23:02Z</time>
      </trkpt>
      <trkpt lat="45.65067" lon="5.71563">
        <ele>741</ele>
        <time>2017-04-24T18:23:02Z</time>
      </trkpt>
      <trkpt lat="45.6507" lon="5.71571">
        <ele>741</ele>
        <time>2017-04-24T18:23:02Z</time>
      </trkpt>
      <trkpt lat="45.6507" lon="5.71578">
        <ele>741</ele>
        <time>2017-04-24T18:23:18Z</time>
      </trkpt>
      <trkpt lat="45.65065" lon="5.71584">
        <ele>741</ele>
        <time>2017-04-24T18:23:18Z</time>
      </trkpt>
      <trkpt lat="45.65061" lon="5.71591">
        <ele>741</ele>
        <time>2017-04-24T18:23:18Z</time>
      </trkpt>
      <trkpt lat="45.65058" lon="5.71596">
        <ele>741</ele>
        <time>2017-04-24T18:23:18Z</time>
      </trkpt>
      <trkpt lat="45.65054" lon="5.71601">
        <ele>741</ele>
        <time>2017-04-24T18:23:34Z</time>
      </trkpt>
      <trkpt lat="45.65044" lon="5.71606">
        <ele>741</ele>
        <time>2017-04-24T18:23:34Z</time>
      </trkpt>
      <trkpt lat="45.65039" lon="5.71612">
        <ele>742</ele>
        <time>2017-04-24T18:23:34Z</time>
      </trkpt>
      <trkpt lat="45.65034" lon="5.71618">
        <ele>742</ele>
        <time>2017-04-24T18:23:34Z</time>
      </trkpt>
      <trkpt lat="45.65028" lon="5.71624">
        <ele>742</ele>
        <time>2017-04-24T18:23:50Z</time>
      </trkpt>
      <trkpt lat="45.65021" lon="5.7163">
        <ele>740</ele>
        <time>2017-04-24T18:23:50Z</time>
      </trkpt>
      <trkpt lat="45.65013" lon="5.71635">
        <ele>740</ele>
        <time>2017-04-24T18:23:50Z</time>
      </trkpt>
      <trkpt lat="45.65006" lon="5.71642">
        <ele>740</ele>
        <time>2017-04-24T18:23:50Z</time>
      </trkpt>
      <trkpt lat="45.65001" lon="5.71646">
        <ele>740</ele>
        <time>2017-04-24T18:24:06Z</time>
      </trkpt>
      <trkpt lat="45.64997" lon="5.71651">
        <ele>740</ele>
        <time>2017-04-24T18:24:06Z</time>
      </trkpt>
      <trkpt lat="45.64992" lon="5.71657">
        <ele>740</ele>
        <time>2017-04-24T18:24:06Z</time>
      </trkpt>
      <trkpt lat="45.64988" lon="5.71663">
        <ele>740</ele>
        <time>2017-04-24T18:24:06Z</time>
      </trkpt>
      <trkpt lat="45.64984" lon="5.71669">
        <ele>740</ele>
        <time>2017-04-24T18:24:22Z</time>
      </trkpt>
      <trkpt lat="45.64981" lon="5.71675">
        <ele>740</ele>
        <time>2017-04-24T18:24:22Z</time>
      </trkpt>
      <trkpt lat="45.6498" lon="5.71682">
        <ele>740</ele>
        <time>2017-04-24T18:24:22Z</time>
      </trkpt>
      <trkpt lat="45.64976" lon="5.71686">
        <ele>740</ele>
        <time>2017-04-24T18:24:22Z</time>
      </trkpt>
      <trkpt lat="45.64972" lon="5.71693">
        <ele>740</ele>
        <time>2017-04-24T18:24:38Z</time>
      </trkpt>
      <trkpt lat="45.64968" lon="5.71697">
        <ele>740</ele>
        <time>2017-04-24T18:24:38Z</time>
      </trkpt>
      <trkpt lat="45.64965" lon="5.71703">
        <ele>740</ele>
        <time>2017-04-24T18:24:38Z</time>
      </trkpt>
      <trkpt lat="45.64962" lon="5.7171">
        <ele>734</ele>
        <time>2017-04-24T18:24:38Z</time>
      </trkpt>
      <trkpt lat="45.64959" lon="5.71717">
        <ele>734</ele>
        <time>2017-04-24T18:24:54Z</time>
      </trkpt>
      <trkpt lat="45.64956" lon="5.71723">
        <ele>727</ele>
        <time>2017-04-24T18:24:54Z</time>
      </trkpt>
      <trkpt lat="45.64951" lon="5.71729">
        <ele>727</ele>
        <time>2017-04-24T18:24:54Z</time>
      </trkpt>
      <trkpt lat="45.64947" lon="5.71733">
        <ele>727</ele>
        <time>2017-04-24T18:24:54Z</time>
      </trkpt>
      <trkpt lat="45.64946" lon="5.71741">
        <ele>727</ele>
        <time>2017-04-24T18:25:10Z</time>
      </trkpt>
      <trkpt lat="45.64943" lon="5.71748">
        <ele>727</ele>
        <time>2017-04-24T18:25:10Z</time>
      </trkpt>
      <trkpt lat="45.6494" lon="5.71753">
        <ele>727</ele>
        <time>2017-04-24T18:25:10Z</time>
      </trkpt>
      <trkpt lat="45.64936" lon="5.71757">
        <ele>727</ele>
        <time>2017-04-24T18:25:10Z</time>
      </trkpt>
      <trkpt lat="45.64938" lon="5.71764">
        <ele>727</ele>
        <time>2017-04-24T18:25:26Z</time>
      </trkpt>
      <trkpt lat="45.64939" lon="5.71772">
        <ele>727</ele>
        <time>2017-04-24T18:25:26Z</time>
      </trkpt>
      <trkpt lat="45.64938" lon="5.7178">
        <ele>727</ele>
        <time>2017-04-24T18:25:26Z</time>
      </trkpt>
      <trkpt lat="45.64932" lon="5.71788">
        <ele>727</ele>
        <time>2017-04-24T18:25:26Z</time>
      </trkpt>
      <trkpt lat="45.64924" lon="5.71796">
        <ele>721</ele>
        <time>2017-04-24T18:25:42Z</time>
      </trkpt>
      <trkpt lat="45.64924" lon="5.71804">
        <ele>721</ele>
        <time>2017-04-24T18:25:42Z</time>
      </trkpt>
      <trkpt lat="45.64925" lon="5.71809">
        <ele>721</ele>
        <time>2017-04-24T18:25:42Z</time>
      </trkpt>
      <trkpt lat="45.64924" lon="5.7181">
        <ele>721</ele>
        <time>2017-04-24T18:25:42Z</time>
      </trkpt>
      <trkpt lat="45.64917" lon="5.71809">
        <ele>721</ele>
        <time>2017-04-24T18:25:58Z</time>
      </trkpt>
      <trkpt lat="45.64906" lon="5.71799">
        <ele>721</ele>
        <time>2017-04-24T18:25:58Z</time>
      </trkpt>
      <trkpt lat="45.64905" lon="5.71783">
        <ele>727</ele>
        <time>2017-04-24T18:25:58Z</time>
      </trkpt>
      <trkpt lat="45.64901" lon="5.71747">
        <ele>727</ele>
        <time>2017-04-24T18:25:58Z</time>
      </trkpt>
      <trkpt lat="45.64894" lon="5.71718">
        <ele>727</ele>
        <time>2017-04-24T18:26:14Z</time>
      </trkpt>
      <trkpt lat="45.64893" lon="5.71692">
        <ele>732</ele>
        <time>2017-04-24T18:26:14Z</time>
      </trkpt>
      <trkpt lat="45.64895" lon="5.7168">
        <ele>732</ele>
        <time>2017-04-24T18:26:14Z</time>
      </trkpt>
      <trkpt lat="45.64893" lon="5.71678">
        <ele>732</ele>
        <time>2017-04-24T18:26:14Z</time>
      </trkpt>
      <trkpt lat="45.64888" lon="5.71678">
        <ele>732</ele>
        <time>2017-04-24T18:26:30Z</time>
      </trkpt>
      <trkpt lat="45.64883" lon="5.71683">
        <ele>732</ele>
        <time>2017-04-24T18:26:30Z</time>
      </trkpt>
      <trkpt lat="45.64879" lon="5.71689">
        <ele>732</ele>
        <time>2017-04-24T18:26:30Z</time>
      </trkpt>
      <trkpt lat="45.64876" lon="5.71693">
        <ele>732</ele>
        <time>2017-04-24T18:26:30Z</time>
      </trkpt>
      <trkpt lat="45.64874" lon="5.71698">
        <ele>734</ele>
        <time>2017-04-24T18:26:46Z</time>
      </trkpt>
      <trkpt lat="45.64872" lon="5.71705">
        <ele>734</ele>
        <time>2017-04-24T18:26:46Z</time>
      </trkpt>
      <trkpt lat="45.64871" lon="5.71711">
        <ele>722</ele>
        <time>2017-04-24T18:26:46Z</time>
      </trkpt>
      <trkpt lat="45.64869" lon="5.71718">
        <ele>722</ele>
        <time>2017-04-24T18:26:46Z</time>
      </trkpt>
      <trkpt lat="45.64866" lon="5.71723">
        <ele>722</ele>
        <time>2017-04-24T18:27:02Z</time>
      </trkpt>
      <trkpt lat="45.64863" lon="5.71727">
        <ele>722</ele>
        <time>2017-04-24T18:27:02Z</time>
      </trkpt>
      <trkpt lat="45.6486" lon="5.71732">
        <ele>722</ele>
        <time>2017-04-24T18:27:02Z</time>
      </trkpt>
      <trkpt lat="45.64854" lon="5.71741">
        <ele>722</ele>
        <time>2017-04-24T18:27:02Z</time>
      </trkpt>
      <trkpt lat="45.64845" lon="5.71758">
        <ele>722</ele>
        <time>2017-04-24T18:27:18Z</time>
      </trkpt>
      <trkpt lat="45.64841" lon="5.71764">
        <ele>722</ele>
        <time>2017-04-24T18:27:18Z</time>
      </trkpt>
      <trkpt lat="45.64837" lon="5.71767">
        <ele>722</ele>
        <time>2017-04-24T18:27:18Z</time>
      </trkpt>
      <trkpt lat="45.64833" lon="5.71773">
        <ele>722</ele>
        <time>2017-04-24T18:27:18Z</time>
      </trkpt>
      <trkpt lat="45.64828" lon="5.71779">
        <ele>722</ele>
        <time>2017-04-24T18:27:34Z</time>
      </trkpt>
      <trkpt lat="45.64825" lon="5.71787">
        <ele>722</ele>
        <time>2017-04-24T18:27:34Z</time>
      </trkpt>
      <trkpt lat="45.64823" lon="5.71795">
        <ele>715</ele>
        <time>2017-04-24T18:27:34Z</time>
      </trkpt>
      <trkpt lat="45.64812" lon="5.71804">
        <ele>715</ele>
        <time>2017-04-24T18:27:34Z</time>
      </trkpt>
      <trkpt lat="45.64806" lon="5.71808">
        <ele>715</ele>
        <time>2017-04-24T18:27:50Z</time>
      </trkpt>
      <trkpt lat="45.64796" lon="5.71806">
        <ele>715</ele>
        <time>2017-04-24T18:27:50Z</time>
      </trkpt>
      <trkpt lat="45.64795" lon="5.7181">
        <ele>715</ele>
        <time>2017-04-24T18:27:50Z</time>
      </trkpt>
      <trkpt lat="45.64794" lon="5.71815">
        <ele>715</ele>
        <time>2017-04-24T18:27:50Z</time>
      </trkpt>
      <trkpt lat="45.6479" lon="5.7182">
        <ele>720</ele>
        <time>2017-04-24T18:28:06Z</time>
      </trkpt>
      <trkpt lat="45.64787" lon="5.71824">
        <ele>720</ele>
        <time>2017-04-24T18:28:06Z</time>
      </trkpt>
      <trkpt lat="45.64785" lon="5.7183">
        <ele>720</ele>
        <time>2017-04-24T18:28:06Z</time>
      </trkpt>
      <trkpt lat="45.64782" lon="5.71833">
        <ele>720</ele>
        <time>2017-04-24T18:28:06Z</time>
      </trkpt>
      <trkpt lat="45.64779" lon="5.71837">
        <ele>720</ele>
        <time>2017-04-24T18:28:22Z</time>
      </trkpt>
      <trkpt lat="45.64775" lon="5.71843">
        <ele>720</ele>
        <time>2017-04-24T18:28:22Z</time>
      </trkpt>
      <trkpt lat="45.6477" lon="5.71846">
        <ele>720</ele>
        <time>2017-04-24T18:28:22Z</time>
      </trkpt>
      <trkpt lat="45.64764" lon="5.71851">
        <ele>720</ele>
        <time>2017-04-24T18:28:22Z</time>
      </trkpt>
      <trkpt lat="45.64759" lon="5.71856">
        <ele>720</ele>
        <time>2017-04-24T18:28:38Z</time>
      </trkpt>
      <trkpt lat="45.64755" lon="5.71862">
        <ele>720</ele>
        <time>2017-04-24T18:28:38Z</time>
      </trkpt>
      <trkpt lat="45.64751" lon="5.71869">
        <ele>720</ele>
        <time>2017-04-24T18:28:38Z</time>
      </trkpt>
      <trkpt lat="45.64746" lon="5.71876">
        <ele>712</ele>
        <time>2017-04-24T18:28:38Z</time>
      </trkpt>
      <trkpt lat="45.64741" lon="5.71881">
        <ele>712</ele>
        <time>2017-04-24T18:28:54Z</time>
      </trkpt>
      <trkpt lat="45.64735" lon="5.71884">
        <ele>712</ele>
        <time>2017-04-24T18:28:54Z</time>
      </trkpt>
      <trkpt lat="45.64729" lon="5.71886">
        <ele>712</ele>
        <time>2017-04-24T18:28:54Z</time>
      </trkpt>
      <trkpt lat="45.64723" lon="5.71888">
        <ele>712</ele>
        <time>2017-04-24T18:28:54Z</time>
      </trkpt>
      <trkpt lat="45.64716" lon="5.71888">
        <ele>712</ele>
        <time>2017-04-24T18:29:10Z</time>
      </trkpt>
      <trkpt lat="45.64709" lon="5.71884">
        <ele>712</ele>
        <time>2017-04-24T18:29:10Z</time>
      </trkpt>
      <trkpt lat="45.64703" lon="5.71881">
        <ele>716</ele>
        <time>2017-04-24T18:29:10Z</time>
      </trkpt>
      <trkpt lat="45.64697" lon="5.71875">
        <ele>716</ele>
        <time>2017-04-24T18:29:10Z</time>
      </trkpt>
      <trkpt lat="45.64691" lon="5.71872">
        <ele>730</ele>
        <time>2017-04-24T18:29:26Z</time>
      </trkpt>
      <trkpt lat="45.64685" lon="5.71872">
        <ele>730</ele>
        <time>2017-04-24T18:29:26Z</time>
      </trkpt>
      <trkpt lat="45.64679" lon="5.71874">
        <ele>730</ele>
        <time>2017-04-24T18:29:26Z</time>
      </trkpt>
      <trkpt lat="45.64673" lon="5.7188">
        <ele>716</ele>
        <time>2017-04-24T18:29:26Z</time>
      </trkpt>
      <trkpt lat="45.64668" lon="5.71884">
        <ele>716</ele>
        <time>2017-04-24T18:29:42Z</time>
      </trkpt>
      <trkpt lat="45.64663" lon="5.71887">
        <ele>716</ele>
        <time>2017-04-24T18:29:42Z</time>
      </trkpt>
      <trkpt lat="45.64658" lon="5.71889">
        <ele>716</ele>
        <time>2017-04-24T18:29:42Z</time>
      </trkpt>
      <trkpt lat="45.64652" lon="5.71889">
        <ele>716</ele>
        <time>2017-04-24T18:29:42Z</time>
      </trkpt>
      <trkpt lat="45.64647" lon="5.71891">
        <ele>716</ele>
        <time>2017-04-24T18:29:58Z</time>
      </trkpt>
      <trkpt lat="45.64642" lon="5.71895">
        <ele>716</ele>
        <time>2017-04-24T18:29:58Z</time>
      </trkpt>
      <trkpt lat="45.64636" lon="5.71898">
        <ele>716</ele>
        <time>2017-04-24T18:29:58Z</time>
      </trkpt>
      <trkpt lat="45.6463" lon="5.719">
        <ele>716</ele>
        <time>2017-04-24T18:29:58Z</time>
      </trkpt>
      <trkpt lat="45.64624" lon="5.71902">
        <ele>723</ele>
        <time>2017-04-24T18:30:14Z</time>
      </trkpt>
      <trkpt lat="45.6462" lon="5.71903">
        <ele>723</ele>
        <time>2017-04-24T18:30:14Z</time>
      </trkpt>
      <trkpt lat="45.64615" lon="5.71902">
        <ele>723</ele>
        <time>2017-04-24T18:30:14Z</time>
      </trkpt>
      <trkpt lat="45.64609" lon="5.71902">
        <ele>723</ele>
        <time>2017-04-24T18:30:14Z</time>
      </trkpt>
      <trkpt lat="45.64603" lon="5.71904">
        <ele>723</ele>
        <time>2017-04-24T18:30:30Z</time>
      </trkpt>
      <trkpt lat="45.64597" lon="5.71908">
        <ele>723</ele>
        <time>2017-04-24T18:30:30Z</time>
      </trkpt>
      <trkpt lat="45.64593" lon="5.71913">
        <ele>723</ele>
        <time>2017-04-24T18:30:30Z</time>
      </trkpt>
      <trkpt lat="45.6459" lon="5.71916">
        <ele>723</ele>
        <time>2017-04-24T18:30:30Z</time>
      </trkpt>
      <trkpt lat="45.64587" lon="5.71923">
        <ele>723</ele>
        <time>2017-04-24T18:30:46Z</time>
      </trkpt>
      <trkpt lat="45.64581" lon="5.71929">
        <ele>723</ele>
        <time>2017-04-24T18:30:46Z</time>
      </trkpt>
      <trkpt lat="45.64575" lon="5.71934">
        <ele>723</ele>
        <time>2017-04-24T18:30:46Z</time>
      </trkpt>
      <trkpt lat="45.64569" lon="5.71937">
        <ele>723</ele>
        <time>2017-04-24T18:30:46Z</time>
      </trkpt>
      <trkpt lat="45.64564" lon="5.71936">
        <ele>723</ele>
        <time>2017-04-24T18:31:02Z</time>
      </trkpt>
      <trkpt lat="45.64557" lon="5.71936">
        <ele>723</ele>
        <time>2017-04-24T18:31:02Z</time>
      </trkpt>
      <trkpt lat="45.64551" lon="5.71936">
        <ele>723</ele>
        <time>2017-04-24T18:31:02Z</time>
      </trkpt>
      <trkpt lat="45.64544" lon="5.71938">
        <ele>723</ele>
        <time>2017-04-24T18:31:02Z</time>
      </trkpt>
      <trkpt lat="45.64539" lon="5.7194">
        <ele>730</ele>
        <time>2017-04-24T18:31:18Z</time>
      </trkpt>
      <trkpt lat="45.64532" lon="5.71942">
        <ele>730</ele>
        <time>2017-04-24T18:31:18Z</time>
      </trkpt>
      <trkpt lat="45.64526" lon="5.71944">
        <ele>730</ele>
        <time>2017-04-24T18:31:18Z</time>
      </trkpt>
      <trkpt lat="45.64519" lon="5.71946">
        <ele>730</ele>
        <time>2017-04-24T18:31:18Z</time>
      </trkpt>
      <trkpt lat="45.64513" lon="5.71948">
        <ele>730</ele>
        <time>2017-04-24T18:31:34Z</time>
      </trkpt>
      <trkpt lat="45.64506" lon="5.71949">
        <ele>730</ele>
        <time>2017-04-24T18:31:34Z</time>
      </trkpt>
      <trkpt lat="45.645" lon="5.71948">
        <ele>730</ele>
        <time>2017-04-24T18:31:34Z</time>
      </trkpt>
      <trkpt lat="45.64494" lon="5.71949">
        <ele>730</ele>
        <time>2017-04-24T18:31:34Z</time>
      </trkpt>
      <trkpt lat="45.64488" lon="5.71953">
        <ele>730</ele>
        <time>2017-04-24T18:31:50Z</time>
      </trkpt>
      <trkpt lat="45.64483" lon="5.71955">
        <ele>730</ele>
        <time>2017-04-24T18:31:50Z</time>
      </trkpt>
      <trkpt lat="45.64478" lon="5.71956">
        <ele>730</ele>
        <time>2017-04-24T18:31:50Z</time>
      </trkpt>
      <trkpt lat="45.64473" lon="5.71957">
        <ele>730</ele>
        <time>2017-04-24T18:31:50Z</time>
      </trkpt>
      <trkpt lat="45.64468" lon="5.71958">
        <ele>716</ele>
        <time>2017-04-24T18:32:06Z</time>
      </trkpt>
      <trkpt lat="45.64463" lon="5.71957">
        <ele>730</ele>
        <time>2017-04-24T18:32:06Z</time>
      </trkpt>
      <trkpt lat="45.64457" lon="5.71958">
        <ele>732</ele>
        <time>2017-04-24T18:32:06Z</time>
      </trkpt>
      <trkpt lat="45.64453" lon="5.71958">
        <ele>732</ele>
        <time>2017-04-24T18:32:06Z</time>
      </trkpt>
      <trkpt lat="45.64448" lon="5.71959">
        <ele>719</ele>
        <time>2017-04-24T18:32:22Z</time>
      </trkpt>
      <trkpt lat="45.64444" lon="5.7196">
        <ele>719</ele>
        <time>2017-04-24T18:32:22Z</time>
      </trkpt>
      <trkpt lat="45.6444" lon="5.71961">
        <ele>719</ele>
        <time>2017-04-24T18:32:22Z</time>
      </trkpt>
      <trkpt lat="45.64434" lon="5.71962">
        <ele>719</ele>
        <time>2017-04-24T18:32:22Z</time>
      </trkpt>
      <trkpt lat="45.64428" lon="5.71962">
        <ele>719</ele>
        <time>2017-04-24T18:32:38Z</time>
      </trkpt>
      <trkpt lat="45.64421" lon="5.71964">
        <ele>719</ele>
        <time>2017-04-24T18:32:38Z</time>
      </trkpt>
      <trkpt lat="45.64413" lon="5.71964">
        <ele>719</ele>
        <time>2017-04-24T18:32:38Z</time>
      </trkpt>
      <trkpt lat="45.64407" lon="5.71965">
        <ele>719</ele>
        <time>2017-04-24T18:32:38Z</time>
      </trkpt>
      <trkpt lat="45.64402" lon="5.71967">
        <ele>719</ele>
        <time>2017-04-24T18:32:54Z</time>
      </trkpt>
      <trkpt lat="45.64397" lon="5.7197">
        <ele>719</ele>
        <time>2017-04-24T18:32:54Z</time>
      </trkpt>
      <trkpt lat="45.64392" lon="5.71971">
        <ele>719</ele>
        <time>2017-04-24T18:32:54Z</time>
      </trkpt>
      <trkpt lat="45.64386" lon="5.71974">
        <ele>719</ele>
        <time>2017-04-24T18:32:54Z</time>
      </trkpt>
      <trkpt lat="45.6438" lon="5.71973">
        <ele>719</ele>
        <time>2017-04-24T18:33:10Z</time>
      </trkpt>
      <trkpt lat="45.64375" lon="5.71969">
        <ele>720</ele>
        <time>2017-04-24T18:33:10Z</time>
      </trkpt>
      <trkpt lat="45.64372" lon="5.71963">
        <ele>720</ele>
        <time>2017-04-24T18:33:10Z</time>
      </trkpt>
      <trkpt lat="45.64368" lon="5.7196">
        <ele>720</ele>
        <time>2017-04-24T18:33:10Z</time>
      </trkpt>
      <trkpt lat="45.64366" lon="5.71958">
        <ele>730</ele>
        <time>2017-04-24T18:33:26Z</time>
      </trkpt>
      <trkpt lat="45.64363" lon="5.71952">
        <ele>730</ele>
        <time>2017-04-24T18:33:26Z</time>
      </trkpt>
      <trkpt lat="45.64358" lon="5.71947">
        <ele>730</ele>
        <time>2017-04-24T18:33:26Z</time>
      </trkpt>
      <trkpt lat="45.64353" lon="5.71945">
        <ele>730</ele>
        <time>2017-04-24T18:33:26Z</time>
      </trkpt>
      <trkpt lat="45.64347" lon="5.71943">
        <ele>730</ele>
        <time>2017-04-24T18:33:42Z</time>
      </trkpt>
      <trkpt lat="45.64343" lon="5.71936">
        <ele>730</ele>
        <time>2017-04-24T18:33:42Z</time>
      </trkpt>
      <trkpt lat="45.64339" lon="5.71928">
        <ele>730</ele>
        <time>2017-04-24T18:33:42Z</time>
      </trkpt>
      <trkpt lat="45.64338" lon="5.71918">
        <ele>730</ele>
        <time>2017-04-24T18:33:42Z</time>
      </trkpt>
      <trkpt lat="45.6434" lon="5.71911">
        <ele>730</ele>
        <time>2017-04-24T18:33:58Z</time>
      </trkpt>
      <trkpt lat="45.64342" lon="5.71911">
        <ele>730</ele>
        <time>2017-04-24T18:33:58Z</time>
      </trkpt>
      <trkpt lat="45.64339" lon="5.71905">
        <ele>730</ele>
        <time>2017-04-24T18:33:58Z</time>
      </trkpt>
      <trkpt lat="45.64335" lon="5.71899">
        <ele>730</ele>
        <time>2017-04-24T18:33:58Z</time>
      </trkpt>
      <trkpt lat="45.64329" lon="5.71893">
        <ele>730</ele>
        <time>2017-04-24T18:34:14Z</time>
      </trkpt>
      <trkpt lat="45.64322" lon="5.71889">
        <ele>730</ele>
        <time>2017-04-24T18:34:14Z</time>
      </trkpt>
      <trkpt lat="45.64315" lon="5.71882">
        <ele>730</ele>
        <time>2017-04-24T18:34:14Z</time>
      </trkpt>
      <trkpt lat="45.6431" lon="5.71876">
        <ele>730</ele>
        <time>2017-04-24T18:34:14Z</time>
      </trkpt>
      <trkpt lat="45.64306" lon="5.71871">
        <ele>739</ele>
        <time>2017-04-24T18:34:30Z</time>
      </trkpt>
      <trkpt lat="45.64305" lon="5.71867">
        <ele>739</ele>
        <time>2017-04-24T18:34:30Z</time>
      </trkpt>
      <trkpt lat="45.64302" lon="5.71864">
        <ele>739</ele>
        <time>2017-04-24T18:34:30Z</time>
      </trkpt>
      <trkpt lat="45.64296" lon="5.71861">
        <ele>739</ele>
        <time>2017-04-24T18:34:30Z</time>
      </trkpt>
      <trkpt lat="45.64288" lon="5.71861">
        <ele>737</ele>
        <time>2017-04-24T18:34:46Z</time>
      </trkpt>
      <trkpt lat="45.64283" lon="5.71865">
        <ele>737</ele>
        <time>2017-04-24T18:34:46Z</time>
      </trkpt>
      <trkpt lat="45.6428" lon="5.71868">
        <ele>737</ele>
        <time>2017-04-24T18:34:46Z</time>
      </trkpt>
      <trkpt lat="45.64276" lon="5.71868">
        <ele>737</ele>
        <time>2017-04-24T18:34:46Z</time>
      </trkpt>
      <trkpt lat="45.64273" lon="5.71869">
        <ele>737</ele>
        <time>2017-04-24T18:35:06Z</time>
      </trkpt>
      <trkpt lat="45.64272" lon="5.71872">
        <ele>737</ele>
        <time>2017-04-24T18:35:06Z</time>
      </trkpt>
      <trkpt lat="45.64271" lon="5.71873">
        <ele>737</ele>
        <time>2017-04-24T18:35:06Z</time>
      </trkpt>
      <trkpt lat="45.64267" lon="5.71873">
        <ele>737</ele>
        <time>2017-04-24T18:35:06Z</time>
      </trkpt>
      <trkpt lat="45.64263" lon="5.71871">
        <ele>737</ele>
        <time>2017-04-24T18:35:06Z</time>
      </trkpt>
      <trkpt lat="45.6426" lon="5.71874">
        <ele>737</ele>
        <time>2017-04-24T18:35:22Z</time>
      </trkpt>
      <trkpt lat="45.64252" lon="5.71878">
        <ele>727</ele>
        <time>2017-04-24T18:35:22Z</time>
      </trkpt>
      <trkpt lat="45.64245" lon="5.7188">
        <ele>727</ele>
        <time>2017-04-24T18:35:22Z</time>
      </trkpt>
      <trkpt lat="45.64237" lon="5.71882">
        <ele>727</ele>
        <time>2017-04-24T18:35:22Z</time>
      </trkpt>
      <trkpt lat="45.6423" lon="5.71883">
        <ele>727</ele>
        <time>2017-04-24T18:35:38Z</time>
      </trkpt>
      <trkpt lat="45.64226" lon="5.71884">
        <ele>727</ele>
        <time>2017-04-24T18:35:38Z</time>
      </trkpt>
      <trkpt lat="45.64221" lon="5.71884">
        <ele>727</ele>
        <time>2017-04-24T18:35:38Z</time>
      </trkpt>
      <trkpt lat="45.64212" lon="5.71884">
        <ele>727</ele>
        <time>2017-04-24T18:35:38Z</time>
      </trkpt>
      <trkpt lat="45.64204" lon="5.71886">
        <ele>724</ele>
        <time>2017-04-24T18:35:54Z</time>
      </trkpt>
      <trkpt lat="45.64197" lon="5.71888">
        <ele>724</ele>
        <time>2017-04-24T18:35:54Z</time>
      </trkpt>
      <trkpt lat="45.64193" lon="5.71892">
        <ele>724</ele>
        <time>2017-04-24T18:35:54Z</time>
      </trkpt>
      <trkpt lat="45.64173" lon="5.71888">
        <ele>724</ele>
        <time>2017-04-24T18:35:54Z</time>
      </trkpt>
      <trkpt lat="45.64146" lon="5.71888">
        <ele>724</ele>
        <time>2017-04-24T18:36:10Z</time>
      </trkpt>
      <trkpt lat="45.64128" lon="5.71884">
        <ele>724</ele>
        <time>2017-04-24T18:36:10Z</time>
      </trkpt>
      <trkpt lat="45.64118" lon="5.71877">
        <ele>725</ele>
        <time>2017-04-24T18:36:10Z</time>
      </trkpt>
      <trkpt lat="45.64112" lon="5.71877">
        <ele>725</ele>
        <time>2017-04-24T18:36:10Z</time>
      </trkpt>
      <trkpt lat="45.64105" lon="5.71873">
        <ele>737</ele>
        <time>2017-04-24T18:36:26Z</time>
      </trkpt>
      <trkpt lat="45.64099" lon="5.71869">
        <ele>737</ele>
        <time>2017-04-24T18:36:26Z</time>
      </trkpt>
      <trkpt lat="45.64093" lon="5.71864">
        <ele>737</ele>
        <time>2017-04-24T18:36:26Z</time>
      </trkpt>
      <trkpt lat="45.64085" lon="5.7186">
        <ele>737</ele>
        <time>2017-04-24T18:36:26Z</time>
      </trkpt>
      <trkpt lat="45.64079" lon="5.7186">
        <ele>737</ele>
        <time>2017-04-24T18:36:42Z</time>
      </trkpt>
      <trkpt lat="45.64073" lon="5.71858">
        <ele>737</ele>
        <time>2017-04-24T18:36:42Z</time>
      </trkpt>
      <trkpt lat="45.64068" lon="5.71858">
        <ele>737</ele>
        <time>2017-04-24T18:36:42Z</time>
      </trkpt>
      <trkpt lat="45.64061" lon="5.71859">
        <ele>737</ele>
        <time>2017-04-24T18:36:42Z</time>
      </trkpt>
      <trkpt lat="45.64057" lon="5.71858">
        <ele>737</ele>
        <time>2017-04-24T18:36:58Z</time>
      </trkpt>
      <trkpt lat="45.64051" lon="5.71859">
        <ele>737</ele>
        <time>2017-04-24T18:36:58Z</time>
      </trkpt>
      <trkpt lat="45.64045" lon="5.71859">
        <ele>737</ele>
        <time>2017-04-24T18:36:58Z</time>
      </trkpt>
      <trkpt lat="45.64038" lon="5.71859">
        <ele>736</ele>
        <time>2017-04-24T18:36:58Z</time>
      </trkpt>
      <trkpt lat="45.64032" lon="5.71856">
        <ele>736</ele>
        <time>2017-04-24T18:37:14Z</time>
      </trkpt>
      <trkpt lat="45.64029" lon="5.71848">
        <ele>736</ele>
        <time>2017-04-24T18:37:14Z</time>
      </trkpt>
      <trkpt lat="45.64027" lon="5.71839">
        <ele>736</ele>
        <time>2017-04-24T18:37:14Z</time>
      </trkpt>
      <trkpt lat="45.64025" lon="5.71831">
        <ele>736</ele>
        <time>2017-04-24T18:37:14Z</time>
      </trkpt>
      <trkpt lat="45.64022" lon="5.71824">
        <ele>736</ele>
        <time>2017-04-24T18:37:30Z</time>
      </trkpt>
      <trkpt lat="45.64021" lon="5.71817">
        <ele>736</ele>
        <time>2017-04-24T18:37:30Z</time>
      </trkpt>
      <trkpt lat="45.64019" lon="5.7181">
        <ele>736</ele>
        <time>2017-04-24T18:37:30Z</time>
      </trkpt>
      <trkpt lat="45.64017" lon="5.71801">
        <ele>736</ele>
        <time>2017-04-24T18:37:30Z</time>
      </trkpt>
      <trkpt lat="45.64015" lon="5.71793">
        <ele>736</ele>
        <time>2017-04-24T18:37:46Z</time>
      </trkpt>
      <trkpt lat="45.6401" lon="5.71788">
        <ele>747</ele>
        <time>2017-04-24T18:37:46Z</time>
      </trkpt>
      <trkpt lat="45.64005" lon="5.71782">
        <ele>747</ele>
        <time>2017-04-24T18:37:46Z</time>
      </trkpt>
      <trkpt lat="45.64" lon="5.71777">
        <ele>747</ele>
        <time>2017-04-24T18:37:46Z</time>
      </trkpt>
      <trkpt lat="45.63996" lon="5.71772">
        <ele>747</ele>
        <time>2017-04-24T18:38:02Z</time>
      </trkpt>
      <trkpt lat="45.63991" lon="5.71767">
        <ele>747</ele>
        <time>2017-04-24T18:38:02Z</time>
      </trkpt>
      <trkpt lat="45.63987" lon="5.71761">
        <ele>747</ele>
        <time>2017-04-24T18:38:02Z</time>
      </trkpt>
      <trkpt lat="45.63982" lon="5.71755">
        <ele>747</ele>
        <time>2017-04-24T18:38:02Z</time>
      </trkpt>
      <trkpt lat="45.63976" lon="5.71752">
        <ele>747</ele>
        <time>2017-04-24T18:38:18Z</time>
      </trkpt>
      <trkpt lat="45.63971" lon="5.71748">
        <ele>747</ele>
        <time>2017-04-24T18:38:18Z</time>
      </trkpt>
      <trkpt lat="45.63966" lon="5.71742">
        <ele>747</ele>
        <time>2017-04-24T18:38:18Z</time>
      </trkpt>
      <trkpt lat="45.63962" lon="5.71736">
        <ele>747</ele>
        <time>2017-04-24T18:38:18Z</time>
      </trkpt>
      <trkpt lat="45.63957" lon="5.71731">
        <ele>746</ele>
        <time>2017-04-24T18:38:34Z</time>
      </trkpt>
      <trkpt lat="45.63952" lon="5.71725">
        <ele>746</ele>
        <time>2017-04-24T18:38:34Z</time>
      </trkpt>
      <trkpt lat="45.63947" lon="5.7172">
        <ele>746</ele>
        <time>2017-04-24T18:38:34Z</time>
      </trkpt>
      <trkpt lat="45.63942" lon="5.71714">
        <ele>746</ele>
        <time>2017-04-24T18:38:34Z</time>
      </trkpt>
      <trkpt lat="45.63937" lon="5.71709">
        <ele>746</ele>
        <time>2017-04-24T18:38:50Z</time>
      </trkpt>
      <trkpt lat="45.63931" lon="5.71705">
        <ele>757</ele>
        <time>2017-04-24T18:38:50Z</time>
      </trkpt>
      <trkpt lat="45.63925" lon="5.71703">
        <ele>757</ele>
        <time>2017-04-24T18:38:50Z</time>
      </trkpt>
      <trkpt lat="45.6392" lon="5.717">
        <ele>757</ele>
        <time>2017-04-24T18:38:50Z</time>
      </trkpt>
      <trkpt lat="45.63915" lon="5.71697">
        <ele>757</ele>
        <time>2017-04-24T18:39:06Z</time>
      </trkpt>
      <trkpt lat="45.63911" lon="5.71691">
        <ele>757</ele>
        <time>2017-04-24T18:39:06Z</time>
      </trkpt>
      <trkpt lat="45.63906" lon="5.71688">
        <ele>757</ele>
        <time>2017-04-24T18:39:06Z</time>
      </trkpt>
      <trkpt lat="45.63901" lon="5.71684">
        <ele>757</ele>
        <time>2017-04-24T18:39:06Z</time>
      </trkpt>
      <trkpt lat="45.63897" lon="5.7168">
        <ele>757</ele>
        <time>2017-04-24T18:39:22Z</time>
      </trkpt>
      <trkpt lat="45.63892" lon="5.71676">
        <ele>757</ele>
        <time>2017-04-24T18:39:22Z</time>
      </trkpt>
      <trkpt lat="45.63888" lon="5.71673">
        <ele>757</ele>
        <time>2017-04-24T18:39:22Z</time>
      </trkpt>
      <trkpt lat="45.63882" lon="5.71671">
        <ele>757</ele>
        <time>2017-04-24T18:39:22Z</time>
      </trkpt>
      <trkpt lat="45.63877" lon="5.71672">
        <ele>757</ele>
        <time>2017-04-24T18:39:38Z</time>
      </trkpt>
      <trkpt lat="45.63871" lon="5.71672">
        <ele>760</ele>
        <time>2017-04-24T18:39:38Z</time>
      </trkpt>
      <trkpt lat="45.63867" lon="5.71672">
        <ele>760</ele>
        <time>2017-04-24T18:39:38Z</time>
      </trkpt>
      <trkpt lat="45.63862" lon="5.71676">
        <ele>760</ele>
        <time>2017-04-24T18:39:38Z</time>
      </trkpt>
      <trkpt lat="45.63857" lon="5.71679">
        <ele>760</ele>
        <time>2017-04-24T18:39:54Z</time>
      </trkpt>
      <trkpt lat="45.6385" lon="5.71681">
        <ele>760</ele>
        <time>2017-04-24T18:39:54Z</time>
      </trkpt>
      <trkpt lat="45.63845" lon="5.71678">
        <ele>760</ele>
        <time>2017-04-24T18:39:54Z</time>
      </trkpt>
      <trkpt lat="45.6384" lon="5.71674">
        <ele>760</ele>
        <time>2017-04-24T18:39:54Z</time>
      </trkpt>
      <trkpt lat="45.63834" lon="5.71669">
        <ele>760</ele>
        <time>2017-04-24T18:40:10Z</time>
      </trkpt>
      <trkpt lat="45.63831" lon="5.71661">
        <ele>760</ele>
        <time>2017-04-24T18:40:10Z</time>
      </trkpt>
      <trkpt lat="45.63829" lon="5.71652">
        <ele>760</ele>
        <time>2017-04-24T18:40:10Z</time>
      </trkpt>
      <trkpt lat="45.63828" lon="5.71644">
        <ele>760</ele>
        <time>2017-04-24T18:40:10Z</time>
      </trkpt>
      <trkpt lat="45.63828" lon="5.71636">
        <ele>760</ele>
        <time>2017-04-24T18:40:26Z</time>
      </trkpt>
      <trkpt lat="45.63826" lon="5.7163">
        <ele>760</ele>
        <time>2017-04-24T18:40:26Z</time>
      </trkpt>
      <trkpt lat="45.63824" lon="5.71622">
        <ele>768</ele>
        <time>2017-04-24T18:40:26Z</time>
      </trkpt>
      <trkpt lat="45.63825" lon="5.71614">
        <ele>768</ele>
        <time>2017-04-24T18:40:26Z</time>
      </trkpt>
      <trkpt lat="45.63824" lon="5.71606">
        <ele>768</ele>
        <time>2017-04-24T18:40:42Z</time>
      </trkpt>
      <trkpt lat="45.63821" lon="5.71598">
        <ele>768</ele>
        <time>2017-04-24T18:40:42Z</time>
      </trkpt>
      <trkpt lat="45.63816" lon="5.71594">
        <ele>768</ele>
        <time>2017-04-24T18:40:42Z</time>
      </trkpt>
      <trkpt lat="45.63816" lon="5.71595">
        <ele>768</ele>
        <time>2017-04-24T18:40:42Z</time>
      </trkpt>
      <trkpt lat="45.63818" lon="5.71597">
        <ele>768</ele>
        <time>2017-04-24T18:41:02Z</time>
      </trkpt>
      <trkpt lat="45.63816" lon="5.71599">
        <ele>768</ele>
        <time>2017-04-24T18:41:02Z</time>
      </trkpt>
      <trkpt lat="45.63813" lon="5.71598">
        <ele>768</ele>
        <time>2017-04-24T18:41:02Z</time>
      </trkpt>
      <trkpt lat="45.6381" lon="5.71598">
        <ele>768</ele>
        <time>2017-04-24T18:41:02Z</time>
      </trkpt>
      <trkpt lat="45.63806" lon="5.71601">
        <ele>768</ele>
        <time>2017-04-24T18:41:02Z</time>
      </trkpt>
      <trkpt lat="45.63801" lon="5.71603">
        <ele>768</ele>
        <time>2017-04-24T18:41:18Z</time>
      </trkpt>
      <trkpt lat="45.63793" lon="5.71602">
        <ele>768</ele>
        <time>2017-04-24T18:41:18Z</time>
      </trkpt>
      <trkpt lat="45.63788" lon="5.71596">
        <ele>766</ele>
        <time>2017-04-24T18:41:18Z</time>
      </trkpt>
      <trkpt lat="45.63782" lon="5.71592">
        <ele>766</ele>
        <time>2017-04-24T18:41:18Z</time>
      </trkpt>
      <trkpt lat="45.63777" lon="5.71586">
        <ele>766</ele>
        <time>2017-04-24T18:41:34Z</time>
      </trkpt>
      <trkpt lat="45.63772" lon="5.71585">
        <ele>766</ele>
        <time>2017-04-24T18:41:34Z</time>
      </trkpt>
      <trkpt lat="45.63767" lon="5.71588">
        <ele>766</ele>
        <time>2017-04-24T18:41:34Z</time>
      </trkpt>
      <trkpt lat="45.63762" lon="5.71592">
        <ele>766</ele>
        <time>2017-04-24T18:41:34Z</time>
      </trkpt>
      <trkpt lat="45.63756" lon="5.71594">
        <ele>766</ele>
        <time>2017-04-24T18:41:50Z</time>
      </trkpt>
      <trkpt lat="45.63751" lon="5.716">
        <ele>766</ele>
        <time>2017-04-24T18:41:50Z</time>
      </trkpt>
      <trkpt lat="45.63747" lon="5.71603">
        <ele>766</ele>
        <time>2017-04-24T18:41:50Z</time>
      </trkpt>
      <trkpt lat="45.63741" lon="5.7161">
        <ele>766</ele>
        <time>2017-04-24T18:41:50Z</time>
      </trkpt>
      <trkpt lat="45.63739" lon="5.71614">
        <ele>766</ele>
        <time>2017-04-24T18:42:06Z</time>
      </trkpt>
      <trkpt lat="45.63738" lon="5.71618">
        <ele>766</ele>
        <time>2017-04-24T18:42:06Z</time>
      </trkpt>
      <trkpt lat="45.63737" lon="5.71623">
        <ele>766</ele>
        <time>2017-04-24T18:42:06Z</time>
      </trkpt>
      <trkpt lat="45.63735" lon="5.71628">
        <ele>760</ele>
        <time>2017-04-24T18:42:06Z</time>
      </trkpt>
      <trkpt lat="45.63733" lon="5.71632">
        <ele>760</ele>
        <time>2017-04-24T18:42:22Z</time>
      </trkpt>
      <trkpt lat="45.6373" lon="5.71639">
        <ele>760</ele>
        <time>2017-04-24T18:42:22Z</time>
      </trkpt>
      <trkpt lat="45.63725" lon="5.71647">
        <ele>760</ele>
        <time>2017-04-24T18:42:22Z</time>
      </trkpt>
      <trkpt lat="45.63719" lon="5.71653">
        <ele>760</ele>
        <time>2017-04-24T18:42:22Z</time>
      </trkpt>
      <trkpt lat="45.63713" lon="5.71659">
        <ele>760</ele>
        <time>2017-04-24T18:42:38Z</time>
      </trkpt>
      <trkpt lat="45.6371" lon="5.71667">
        <ele>760</ele>
        <time>2017-04-24T18:42:38Z</time>
      </trkpt>
      <trkpt lat="45.63706" lon="5.71673">
        <ele>755</ele>
        <time>2017-04-24T18:42:38Z</time>
      </trkpt>
      <trkpt lat="45.63702" lon="5.71679">
        <ele>755</ele>
        <time>2017-04-24T18:42:38Z</time>
      </trkpt>
      <trkpt lat="45.63699" lon="5.7169">
        <ele>755</ele>
        <time>2017-04-24T18:42:54Z</time>
      </trkpt>
      <trkpt lat="45.63696" lon="5.71698">
        <ele>755</ele>
        <time>2017-04-24T18:42:54Z</time>
      </trkpt>
      <trkpt lat="45.63692" lon="5.71706">
        <ele>755</ele>
        <time>2017-04-24T18:42:54Z</time>
      </trkpt>
      <trkpt lat="45.63687" lon="5.71712">
        <ele>748</ele>
        <time>2017-04-24T18:42:54Z</time>
      </trkpt>
      <trkpt lat="45.63683" lon="5.71718">
        <ele>748</ele>
        <time>2017-04-24T18:43:10Z</time>
      </trkpt>
      <trkpt lat="45.63678" lon="5.71722">
        <ele>748</ele>
        <time>2017-04-24T18:43:10Z</time>
      </trkpt>
      <trkpt lat="45.63673" lon="5.71726">
        <ele>748</ele>
        <time>2017-04-24T18:43:10Z</time>
      </trkpt>
      <trkpt lat="45.63669" lon="5.71733">
        <ele>748</ele>
        <time>2017-04-24T18:43:10Z</time>
      </trkpt>
      <trkpt lat="45.63666" lon="5.71739">
        <ele>748</ele>
        <time>2017-04-24T18:43:26Z</time>
      </trkpt>
      <trkpt lat="45.63662" lon="5.71744">
        <ele>748</ele>
        <time>2017-04-24T18:43:26Z</time>
      </trkpt>
      <trkpt lat="45.63657" lon="5.71749">
        <ele>748</ele>
        <time>2017-04-24T18:43:26Z</time>
      </trkpt>
      <trkpt lat="45.63652" lon="5.71755">
        <ele>748</ele>
        <time>2017-04-24T18:43:26Z</time>
      </trkpt>
      <trkpt lat="45.63648" lon="5.71761">
        <ele>748</ele>
        <time>2017-04-24T18:43:42Z</time>
      </trkpt>
      <trkpt lat="45.63644" lon="5.71767">
        <ele>748</ele>
        <time>2017-04-24T18:43:42Z</time>
      </trkpt>
      <trkpt lat="45.6364" lon="5.71771">
        <ele>748</ele>
        <time>2017-04-24T18:43:42Z</time>
      </trkpt>
      <trkpt lat="45.63637" lon="5.71776">
        <ele>748</ele>
        <time>2017-04-24T18:43:42Z</time>
      </trkpt>
      <trkpt lat="45.63634" lon="5.71782">
        <ele>748</ele>
        <time>2017-04-24T18:43:58Z</time>
      </trkpt>
      <trkpt lat="45.63631" lon="5.71789">
        <ele>748</ele>
        <time>2017-04-24T18:43:58Z</time>
      </trkpt>
      <trkpt lat="45.63627" lon="5.71796">
        <ele>739</ele>
        <time>2017-04-24T18:43:58Z</time>
      </trkpt>
      <trkpt lat="45.63624" lon="5.71801">
        <ele>740</ele>
        <time>2017-04-24T18:43:58Z</time>
      </trkpt>
      <trkpt lat="45.63622" lon="5.71805">
        <ele>740</ele>
        <time>2017-04-24T18:44:14Z</time>
      </trkpt>
      <trkpt lat="45.63619" lon="5.71809">
        <ele>740</ele>
        <time>2017-04-24T18:44:14Z</time>
      </trkpt>
      <trkpt lat="45.63615" lon="5.71815">
        <ele>740</ele>
        <time>2017-04-24T18:44:14Z</time>
      </trkpt>
      <trkpt lat="45.63609" lon="5.71825">
        <ele>740</ele>
        <time>2017-04-24T18:44:14Z</time>
      </trkpt>
      <trkpt lat="45.63607" lon="5.71834">
        <ele>740</ele>
        <time>2017-04-24T18:44:30Z</time>
      </trkpt>
      <trkpt lat="45.63602" lon="5.71841">
        <ele>740</ele>
        <time>2017-04-24T18:44:30Z</time>
      </trkpt>
      <trkpt lat="45.63599" lon="5.71844">
        <ele>740</ele>
        <time>2017-04-24T18:44:30Z</time>
      </trkpt>
      <trkpt lat="45.63595" lon="5.71848">
        <ele>740</ele>
        <time>2017-04-24T18:44:30Z</time>
      </trkpt>
      <trkpt lat="45.63591" lon="5.71854">
        <ele>740</ele>
        <time>2017-04-24T18:44:46Z</time>
      </trkpt>
      <trkpt lat="45.63587" lon="5.71859">
        <ele>740</ele>
        <time>2017-04-24T18:44:46Z</time>
      </trkpt>
      <trkpt lat="45.63582" lon="5.71864">
        <ele>740</ele>
        <time>2017-04-24T18:44:46Z</time>
      </trkpt>
      <trkpt lat="45.63579" lon="5.71871">
        <ele>740</ele>
        <time>2017-04-24T18:44:46Z</time>
      </trkpt>
      <trkpt lat="45.6358" lon="5.71878">
        <ele>728</ele>
        <time>2017-04-24T18:45:02Z</time>
      </trkpt>
      <trkpt lat="45.63581" lon="5.71885">
        <ele>728</ele>
        <time>2017-04-24T18:45:02Z</time>
      </trkpt>
      <trkpt lat="45.63583" lon="5.7189">
        <ele>728</ele>
        <time>2017-04-24T18:45:02Z</time>
      </trkpt>
      <trkpt lat="45.63588" lon="5.71895">
        <ele>728</ele>
        <time>2017-04-24T18:45:02Z</time>
      </trkpt>
      <trkpt lat="45.63594" lon="5.71899">
        <ele>728</ele>
        <time>2017-04-24T18:45:18Z</time>
      </trkpt>
      <trkpt lat="45.63599" lon="5.71901">
        <ele>728</ele>
        <time>2017-04-24T18:45:18Z</time>
      </trkpt>
      <trkpt lat="45.63605" lon="5.71901">
        <ele>728</ele>
        <time>2017-04-24T18:45:18Z</time>
      </trkpt>
      <trkpt lat="45.63611" lon="5.71899">
        <ele>728</ele>
        <time>2017-04-24T18:45:18Z</time>
      </trkpt>
      <trkpt lat="45.63616" lon="5.719">
        <ele>728</ele>
        <time>2017-04-24T18:45:34Z</time>
      </trkpt>
      <trkpt lat="45.63621" lon="5.71903">
        <ele>728</ele>
        <time>2017-04-24T18:45:34Z</time>
      </trkpt>
      <trkpt lat="45.63626" lon="5.71906">
        <ele>724</ele>
        <time>2017-04-24T18:45:34Z</time>
      </trkpt>
      <trkpt lat="45.63631" lon="5.71911">
        <ele>724</ele>
        <time>2017-04-24T18:45:34Z</time>
      </trkpt>
      <trkpt lat="45.63637" lon="5.71918">
        <ele>724</ele>
        <time>2017-04-24T18:45:50Z</time>
      </trkpt>
      <trkpt lat="45.63638" lon="5.71926">
        <ele>724</ele>
        <time>2017-04-24T18:45:50Z</time>
      </trkpt>
      <trkpt lat="45.6364" lon="5.71932">
        <ele>724</ele>
        <time>2017-04-24T18:45:50Z</time>
      </trkpt>
      <trkpt lat="45.63644" lon="5.71938">
        <ele>724</ele>
        <time>2017-04-24T18:45:50Z</time>
      </trkpt>
      <trkpt lat="45.63646" lon="5.71946">
        <ele>724</ele>
        <time>2017-04-24T18:46:06Z</time>
      </trkpt>
      <trkpt lat="45.63648" lon="5.71953">
        <ele>724</ele>
        <time>2017-04-24T18:46:06Z</time>
      </trkpt>
      <trkpt lat="45.63653" lon="5.71958">
        <ele>724</ele>
        <time>2017-04-24T18:46:06Z</time>
      </trkpt>
      <trkpt lat="45.63657" lon="5.71961">
        <ele>710</ele>
        <time>2017-04-24T18:46:06Z</time>
      </trkpt>
      <trkpt lat="45.63663" lon="5.71961">
        <ele>710</ele>
        <time>2017-04-24T18:46:22Z</time>
      </trkpt>
      <trkpt lat="45.63666" lon="5.71961">
        <ele>710</ele>
        <time>2017-04-24T18:46:22Z</time>
      </trkpt>
      <trkpt lat="45.63669" lon="5.71959">
        <ele>710</ele>
        <time>2017-04-24T18:46:22Z</time>
      </trkpt>
      <trkpt lat="45.63673" lon="5.71956">
        <ele>724</ele>
        <time>2017-04-24T18:46:22Z</time>
      </trkpt>
      <trkpt lat="45.63678" lon="5.71955">
        <ele>724</ele>
        <time>2017-04-24T18:46:38Z</time>
      </trkpt>
      <trkpt lat="45.63683" lon="5.71953">
        <ele>724</ele>
        <time>2017-04-24T18:46:38Z</time>
      </trkpt>
      <trkpt lat="45.63688" lon="5.71951">
        <ele>724</ele>
        <time>2017-04-24T18:46:38Z</time>
      </trkpt>
      <trkpt lat="45.63693" lon="5.71948">
        <ele>724</ele>
        <time>2017-04-24T18:46:38Z</time>
      </trkpt>
      <trkpt lat="45.63698" lon="5.71948">
        <ele>724</ele>
        <time>2017-04-24T18:46:54Z</time>
      </trkpt>
      <trkpt lat="45.63703" lon="5.71946">
        <ele>724</ele>
        <time>2017-04-24T18:46:54Z</time>
      </trkpt>
      <trkpt lat="45.63708" lon="5.71947">
        <ele>724</ele>
        <time>2017-04-24T18:46:54Z</time>
      </trkpt>
      <trkpt lat="45.63712" lon="5.71947">
        <ele>724</ele>
        <time>2017-04-24T18:46:54Z</time>
      </trkpt>
      <trkpt lat="45.63716" lon="5.71947">
        <ele>724</ele>
        <time>2017-04-24T18:47:10Z</time>
      </trkpt>
      <trkpt lat="45.63721" lon="5.71947">
        <ele>724</ele>
        <time>2017-04-24T18:47:10Z</time>
      </trkpt>
      <trkpt lat="45.63726" lon="5.71943">
        <ele>724</ele>
        <time>2017-04-24T18:47:10Z</time>
      </trkpt>
      <trkpt lat="45.63732" lon="5.71938">
        <ele>724</ele>
        <time>2017-04-24T18:47:10Z</time>
      </trkpt>
      <trkpt lat="45.63738" lon="5.71933">
        <ele>724</ele>
        <time>2017-04-24T18:47:26Z</time>
      </trkpt>
      <trkpt lat="45.63742" lon="5.71929">
        <ele>724</ele>
        <time>2017-04-24T18:47:26Z</time>
      </trkpt>
      <trkpt lat="45.63746" lon="5.71925">
        <ele>724</ele>
        <time>2017-04-24T18:47:26Z</time>
      </trkpt>
      <trkpt lat="45.63752" lon="5.71924">
        <ele>724</ele>
        <time>2017-04-24T18:47:26Z</time>
      </trkpt>
      <trkpt lat="45.63757" lon="5.71922">
        <ele>724</ele>
        <time>2017-04-24T18:47:42Z</time>
      </trkpt>
      <trkpt lat="45.63762" lon="5.71918">
        <ele>724</ele>
        <time>2017-04-24T18:47:42Z</time>
      </trkpt>
      <trkpt lat="45.63767" lon="5.71914">
        <ele>724</ele>
        <time>2017-04-24T18:47:42Z</time>
      </trkpt>
      <trkpt lat="45.6377" lon="5.71908">
        <ele>724</ele>
        <time>2017-04-24T18:47:42Z</time>
      </trkpt>
      <trkpt lat="45.63775" lon="5.71902">
        <ele>724</ele>
        <time>2017-04-24T18:47:58Z</time>
      </trkpt>
      <trkpt lat="45.6378" lon="5.71902">
        <ele>724</ele>
        <time>2017-04-24T18:47:58Z</time>
      </trkpt>
      <trkpt lat="45.63784" lon="5.71905">
        <ele>724</ele>
        <time>2017-04-24T18:47:58Z</time>
      </trkpt>
      <trkpt lat="45.63787" lon="5.71911">
        <ele>724</ele>
        <time>2017-04-24T18:47:58Z</time>
      </trkpt>
      <trkpt lat="45.63791" lon="5.71911">
        <ele>724</ele>
        <time>2017-04-24T18:48:14Z</time>
      </trkpt>
      <trkpt lat="45.63795" lon="5.71911">
        <ele>724</ele>
        <time>2017-04-24T18:48:14Z</time>
      </trkpt>
      <trkpt lat="45.638" lon="5.71917">
        <ele>724</ele>
        <time>2017-04-24T18:48:14Z</time>
      </trkpt>
      <trkpt lat="45.63797" lon="5.71926">
        <ele>724</ele>
        <time>2017-04-24T18:48:14Z</time>
      </trkpt>
      <trkpt lat="45.63795" lon="5.71932">
        <ele>724</ele>
        <time>2017-04-24T18:48:30Z</time>
      </trkpt>
      <trkpt lat="45.63793" lon="5.71938">
        <ele>724</ele>
        <time>2017-04-24T18:48:30Z</time>
      </trkpt>
      <trkpt lat="45.6379" lon="5.71943">
        <ele>724</ele>
        <time>2017-04-24T18:48:30Z</time>
      </trkpt>
      <trkpt lat="45.63789" lon="5.71951">
        <ele>724</ele>
        <time>2017-04-24T18:48:30Z</time>
      </trkpt>
      <trkpt lat="45.63786" lon="5.71959">
        <ele>713</ele>
        <time>2017-04-24T18:48:46Z</time>
      </trkpt>
      <trkpt lat="45.63784" lon="5.71969">
        <ele>713</ele>
        <time>2017-04-24T18:48:46Z</time>
      </trkpt>
      <trkpt lat="45.63781" lon="5.71977">
        <ele>713</ele>
        <time>2017-04-24T18:48:46Z</time>
      </trkpt>
      <trkpt lat="45.63779" lon="5.71984">
        <ele>713</ele>
        <time>2017-04-24T18:48:46Z</time>
      </trkpt>
      <trkpt lat="45.6378" lon="5.71991">
        <ele>713</ele>
        <time>2017-04-24T18:49:02Z</time>
      </trkpt>
      <trkpt lat="45.63783" lon="5.72001">
        <ele>713</ele>
        <time>2017-04-24T18:49:02Z</time>
      </trkpt>
      <trkpt lat="45.63776" lon="5.72001">
        <ele>713</ele>
        <time>2017-04-24T18:49:02Z</time>
      </trkpt>
      <trkpt lat="45.6377" lon="5.72009">
        <ele>713</ele>
        <time>2017-04-24T18:49:02Z</time>
      </trkpt>
      <trkpt lat="45.63764" lon="5.72015">
        <ele>713</ele>
        <time>2017-04-24T18:49:18Z</time>
      </trkpt>
      <trkpt lat="45.6376" lon="5.72019">
        <ele>713</ele>
        <time>2017-04-24T18:49:18Z</time>
      </trkpt>
      <trkpt lat="45.63755" lon="5.72023">
        <ele>713</ele>
        <time>2017-04-24T18:49:18Z</time>
      </trkpt>
      <trkpt lat="45.63751" lon="5.72027">
        <ele>713</ele>
        <time>2017-04-24T18:49:18Z</time>
      </trkpt>
      <trkpt lat="45.63745" lon="5.7203">
        <ele>713</ele>
        <time>2017-04-24T18:49:34Z</time>
      </trkpt>
      <trkpt lat="45.63737" lon="5.72036">
        <ele>713</ele>
        <time>2017-04-24T18:49:34Z</time>
      </trkpt>
      <trkpt lat="45.63729" lon="5.72039">
        <ele>713</ele>
        <time>2017-04-24T18:49:34Z</time>
      </trkpt>
      <trkpt lat="45.63724" lon="5.72041">
        <ele>713</ele>
        <time>2017-04-24T18:49:34Z</time>
      </trkpt>
      <trkpt lat="45.63721" lon="5.72045">
        <ele>700</ele>
        <time>2017-04-24T18:49:50Z</time>
      </trkpt>
      <trkpt lat="45.63717" lon="5.72046">
        <ele>700</ele>
        <time>2017-04-24T18:49:50Z</time>
      </trkpt>
      <trkpt lat="45.63712" lon="5.72045">
        <ele>700</ele>
        <time>2017-04-24T18:49:50Z</time>
      </trkpt>
      <trkpt lat="45.63708" lon="5.72049">
        <ele>696</ele>
        <time>2017-04-24T18:49:50Z</time>
      </trkpt>
      <trkpt lat="45.63706" lon="5.72053">
        <ele>696</ele>
        <time>2017-04-24T18:50:06Z</time>
      </trkpt>
      <trkpt lat="45.63703" lon="5.7206">
        <ele>696</ele>
        <time>2017-04-24T18:50:06Z</time>
      </trkpt>
      <trkpt lat="45.637" lon="5.72067">
        <ele>696</ele>
        <time>2017-04-24T18:50:06Z</time>
      </trkpt>
      <trkpt lat="45.63695" lon="5.72072">
        <ele>696</ele>
        <time>2017-04-24T18:50:06Z</time>
      </trkpt>
      <trkpt lat="45.63689" lon="5.72079">
        <ele>696</ele>
        <time>2017-04-24T18:50:22Z</time>
      </trkpt>
      <trkpt lat="45.63683" lon="5.72086">
        <ele>696</ele>
        <time>2017-04-24T18:50:22Z</time>
      </trkpt>
      <trkpt lat="45.63676" lon="5.72092">
        <ele>696</ele>
        <time>2017-04-24T18:50:22Z</time>
      </trkpt>
      <trkpt lat="45.63671" lon="5.72098">
        <ele>696</ele>
        <time>2017-04-24T18:50:22Z</time>
      </trkpt>
      <trkpt lat="45.63665" lon="5.72102">
        <ele>696</ele>
        <time>2017-04-24T18:50:38Z</time>
      </trkpt>
      <trkpt lat="45.63661" lon="5.72107">
        <ele>696</ele>
        <time>2017-04-24T18:50:38Z</time>
      </trkpt>
      <trkpt lat="45.63657" lon="5.72109">
        <ele>696</ele>
        <time>2017-04-24T18:50:38Z</time>
      </trkpt>
      <trkpt lat="45.63654" lon="5.72113">
        <ele>696</ele>
        <time>2017-04-24T18:50:38Z</time>
      </trkpt>
      <trkpt lat="45.63649" lon="5.72117">
        <ele>696</ele>
        <time>2017-04-24T18:50:54Z</time>
      </trkpt>
      <trkpt lat="45.63645" lon="5.72126">
        <ele>683</ele>
        <time>2017-04-24T18:50:54Z</time>
      </trkpt>
      <trkpt lat="45.6364" lon="5.72133">
        <ele>683</ele>
        <time>2017-04-24T18:50:54Z</time>
      </trkpt>
      <trkpt lat="45.63635" lon="5.7214">
        <ele>683</ele>
        <time>2017-04-24T18:50:54Z</time>
      </trkpt>
      <trkpt lat="45.63632" lon="5.72146">
        <ele>683</ele>
        <time>2017-04-24T18:51:10Z</time>
      </trkpt>
      <trkpt lat="45.63628" lon="5.72151">
        <ele>683</ele>
        <time>2017-04-24T18:51:10Z</time>
      </trkpt>
      <trkpt lat="45.63623" lon="5.72155">
        <ele>687</ele>
        <time>2017-04-24T18:51:10Z</time>
      </trkpt>
      <trkpt lat="45.63618" lon="5.72159">
        <ele>687</ele>
        <time>2017-04-24T18:51:10Z</time>
      </trkpt>
      <trkpt lat="45.63613" lon="5.72165">
        <ele>687</ele>
        <time>2017-04-24T18:51:26Z</time>
      </trkpt>
      <trkpt lat="45.63608" lon="5.72169">
        <ele>687</ele>
        <time>2017-04-24T18:51:26Z</time>
      </trkpt>
      <trkpt lat="45.63604" lon="5.72175">
        <ele>687</ele>
        <time>2017-04-24T18:51:26Z</time>
      </trkpt>
      <trkpt lat="45.63602" lon="5.72177">
        <ele>687</ele>
        <time>2017-04-24T18:51:26Z</time>
      </trkpt>
      <trkpt lat="45.63601" lon="5.72177">
        <ele>687</ele>
        <time>2017-04-24T18:51:46Z</time>
      </trkpt>
      <trkpt lat="45.63601" lon="5.72178">
        <ele>687</ele>
        <time>2017-04-24T18:51:46Z</time>
      </trkpt>
      <trkpt lat="45.636" lon="5.72179">
        <ele>687</ele>
        <time>2017-04-24T18:51:46Z</time>
      </trkpt>
      <trkpt lat="45.636" lon="5.72179">
        <ele>687</ele>
        <time>2017-04-24T18:51:46Z</time>
      </trkpt>
      <trkpt lat="45.63594" lon="5.72186">
        <ele>687</ele>
        <time>2017-04-24T18:51:46Z</time>
      </trkpt>
      <trkpt lat="45.63589" lon="5.72191">
        <ele>687</ele>
        <time>2017-04-24T18:52:02Z</time>
      </trkpt>
      <trkpt lat="45.63584" lon="5.72197">
        <ele>687</ele>
        <time>2017-04-24T18:52:02Z</time>
      </trkpt>
      <trkpt lat="45.63578" lon="5.72205">
        <ele>687</ele>
        <time>2017-04-24T18:52:02Z</time>
      </trkpt>
      <trkpt lat="45.63573" lon="5.72212">
        <ele>670</ele>
        <time>2017-04-24T18:52:02Z</time>
      </trkpt>
      <trkpt lat="45.63568" lon="5.72217">
        <ele>670</ele>
        <time>2017-04-24T18:52:18Z</time>
      </trkpt>
      <trkpt lat="45.63562" lon="5.72221">
        <ele>670</ele>
        <time>2017-04-24T18:52:18Z</time>
      </trkpt>
      <trkpt lat="45.6356" lon="5.72222">
        <ele>670</ele>
        <time>2017-04-24T18:52:18Z</time>
      </trkpt>
      <trkpt lat="45.63557" lon="5.72226">
        <ele>670</ele>
        <time>2017-04-24T18:52:18Z</time>
      </trkpt>
      <trkpt lat="45.63554" lon="5.72232">
        <ele>670</ele>
        <time>2017-04-24T18:52:34Z</time>
      </trkpt>
      <trkpt lat="45.63549" lon="5.72237">
        <ele>670</ele>
        <time>2017-04-24T18:52:34Z</time>
      </trkpt>
      <trkpt lat="45.63544" lon="5.72238">
        <ele>670</ele>
        <time>2017-04-24T18:52:34Z</time>
      </trkpt>
      <trkpt lat="45.63542" lon="5.72239">
        <ele>670</ele>
        <time>2017-04-24T18:52:34Z</time>
      </trkpt>
      <trkpt lat="45.6354" lon="5.7224">
        <ele>668</ele>
        <time>2017-04-24T18:52:50Z</time>
      </trkpt>
      <trkpt lat="45.63536" lon="5.72241">
        <ele>668</ele>
        <time>2017-04-24T18:52:50Z</time>
      </trkpt>
      <trkpt lat="45.63534" lon="5.72242">
        <ele>668</ele>
        <time>2017-04-24T18:52:50Z</time>
      </trkpt>
      <trkpt lat="45.63531" lon="5.72244">
        <ele>668</ele>
        <time>2017-04-24T18:52:50Z</time>
      </trkpt>
      <trkpt lat="45.63522" lon="5.72249">
        <ele>668</ele>
        <time>2017-04-24T18:53:18Z</time>
      </trkpt>
      <trkpt lat="45.63522" lon="5.72249">
        <ele>668</ele>
        <time>2017-04-24T18:53:18Z</time>
      </trkpt>
      <trkpt lat="45.63521" lon="5.72249">
        <ele>668</ele>
        <time>2017-04-24T18:53:18Z</time>
      </trkpt>
      <trkpt lat="45.63521" lon="5.7225">
        <ele>668</ele>
        <time>2017-04-24T18:53:18Z</time>
      </trkpt>
      <trkpt lat="45.63518" lon="5.7225">
        <ele>668</ele>
        <time>2017-04-24T18:53:18Z</time>
      </trkpt>
      <trkpt lat="45.63514" lon="5.72252">
        <ele>668</ele>
        <time>2017-04-24T18:53:34Z</time>
      </trkpt>
      <trkpt lat="45.63509" lon="5.7225">
        <ele>668</ele>
        <time>2017-04-24T18:53:34Z</time>
      </trkpt>
      <trkpt lat="45.63503" lon="5.72249">
        <ele>668</ele>
        <time>2017-04-24T18:53:34Z</time>
      </trkpt>
      <trkpt lat="45.63501" lon="5.7225">
        <ele>668</ele>
        <time>2017-04-24T18:53:34Z</time>
      </trkpt>
      <trkpt lat="45.63497" lon="5.72252">
        <ele>668</ele>
        <time>2017-04-24T18:53:50Z</time>
      </trkpt>
      <trkpt lat="45.63494" lon="5.72256">
        <ele>668</ele>
        <time>2017-04-24T18:53:50Z</time>
      </trkpt>
      <trkpt lat="45.63494" lon="5.72261">
        <ele>668</ele>
        <time>2017-04-24T18:53:50Z</time>
      </trkpt>
      <trkpt lat="45.63496" lon="5.72265">
        <ele>668</ele>
        <time>2017-04-24T18:53:50Z</time>
      </trkpt>
      <trkpt lat="45.63499" lon="5.72269">
        <ele>668</ele>
        <time>2017-04-24T18:54:06Z</time>
      </trkpt>
      <trkpt lat="45.63499" lon="5.72275">
        <ele>668</ele>
        <time>2017-04-24T18:54:06Z</time>
      </trkpt>
      <trkpt lat="45.63494" lon="5.72275">
        <ele>668</ele>
        <time>2017-04-24T18:54:06Z</time>
      </trkpt>
      <trkpt lat="45.6349" lon="5.72269">
        <ele>668</ele>
        <time>2017-04-24T18:54:06Z</time>
      </trkpt>
      <trkpt lat="45.63484" lon="5.72265">
        <ele>668</ele>
        <time>2017-04-24T18:54:22Z</time>
      </trkpt>
      <trkpt lat="45.63478" lon="5.72265">
        <ele>668</ele>
        <time>2017-04-24T18:54:22Z</time>
      </trkpt>
      <trkpt lat="45.63472" lon="5.72267">
        <ele>668</ele>
        <time>2017-04-24T18:54:22Z</time>
      </trkpt>
      <trkpt lat="45.63467" lon="5.72269">
        <ele>668</ele>
        <time>2017-04-24T18:54:22Z</time>
      </trkpt>
      <trkpt lat="45.63461" lon="5.72271">
        <ele>668</ele>
        <time>2017-04-24T18:54:38Z</time>
      </trkpt>
      <trkpt lat="45.63456" lon="5.72271">
        <ele>658</ele>
        <time>2017-04-24T18:54:38Z</time>
      </trkpt>
      <trkpt lat="45.63451" lon="5.72271">
        <ele>658</ele>
        <time>2017-04-24T18:54:38Z</time>
      </trkpt>
      <trkpt lat="45.63446" lon="5.72272">
        <ele>658</ele>
        <time>2017-04-24T18:54:38Z</time>
      </trkpt>
      <trkpt lat="45.63442" lon="5.72271">
        <ele>658</ele>
        <time>2017-04-24T18:54:54Z</time>
      </trkpt>
      <trkpt lat="45.63438" lon="5.72268">
        <ele>658</ele>
        <time>2017-04-24T18:54:54Z</time>
      </trkpt>
      <trkpt lat="45.63436" lon="5.72261">
        <ele>658</ele>
        <time>2017-04-24T18:54:54Z</time>
      </trkpt>
      <trkpt lat="45.63434" lon="5.72254">
        <ele>658</ele>
        <time>2017-04-24T18:54:54Z</time>
      </trkpt>
      <trkpt lat="45.63431" lon="5.72248">
        <ele>658</ele>
        <time>2017-04-24T18:55:10Z</time>
      </trkpt>
      <trkpt lat="45.63428" lon="5.72245">
        <ele>658</ele>
        <time>2017-04-24T18:55:10Z</time>
      </trkpt>
      <trkpt lat="45.63425" lon="5.72243">
        <ele>658</ele>
        <time>2017-04-24T18:55:10Z</time>
      </trkpt>
      <trkpt lat="45.63424" lon="5.72238">
        <ele>658</ele>
        <time>2017-04-24T18:55:10Z</time>
      </trkpt>
      <trkpt lat="45.63423" lon="5.72233">
        <ele>658</ele>
        <time>2017-04-24T18:55:26Z</time>
      </trkpt>
      <trkpt lat="45.63418" lon="5.72225">
        <ele>658</ele>
        <time>2017-04-24T18:55:26Z</time>
      </trkpt>
      <trkpt lat="45.63408" lon="5.72218">
        <ele>658</ele>
        <time>2017-04-24T18:55:26Z</time>
      </trkpt>
      <trkpt lat="45.63404" lon="5.72229">
        <ele>658</ele>
        <time>2017-04-24T18:55:26Z</time>
      </trkpt>
      <trkpt lat="45.63397" lon="5.72242">
        <ele>658</ele>
        <time>2017-04-24T18:55:42Z</time>
      </trkpt>
      <trkpt lat="45.63391" lon="5.72247">
        <ele>658</ele>
        <time>2017-04-24T18:55:42Z</time>
      </trkpt>
      <trkpt lat="45.63385" lon="5.72248">
        <ele>658</ele>
        <time>2017-04-24T18:55:42Z</time>
      </trkpt>
      <trkpt lat="45.6338" lon="5.72251">
        <ele>658</ele>
        <time>2017-04-24T18:55:42Z</time>
      </trkpt>
      <trkpt lat="45.63378" lon="5.72256">
        <ele>658</ele>
        <time>2017-04-24T18:55:58Z</time>
      </trkpt>
      <trkpt lat="45.63377" lon="5.72261">
        <ele>658</ele>
        <time>2017-04-24T18:55:58Z</time>
      </trkpt>
      <trkpt lat="45.63373" lon="5.72263">
        <ele>662</ele>
        <time>2017-04-24T18:55:58Z</time>
      </trkpt>
      <trkpt lat="45.63368" lon="5.72264">
        <ele>662</ele>
        <time>2017-04-24T18:55:58Z</time>
      </trkpt>
      <trkpt lat="45.63362" lon="5.72263">
        <ele>662</ele>
        <time>2017-04-24T18:56:14Z</time>
      </trkpt>
      <trkpt lat="45.63355" lon="5.72264">
        <ele>662</ele>
        <time>2017-04-24T18:56:14Z</time>
      </trkpt>
      <trkpt lat="45.63351" lon="5.72271">
        <ele>662</ele>
        <time>2017-04-24T18:56:14Z</time>
      </trkpt>
      <trkpt lat="45.63347" lon="5.72277">
        <ele>662</ele>
        <time>2017-04-24T18:56:14Z</time>
      </trkpt>
      <trkpt lat="45.6334" lon="5.72283">
        <ele>662</ele>
        <time>2017-04-24T18:56:30Z</time>
      </trkpt>
      <trkpt lat="45.63334" lon="5.72284">
        <ele>662</ele>
        <time>2017-04-24T18:56:30Z</time>
      </trkpt>
      <trkpt lat="45.63329" lon="5.72286">
        <ele>662</ele>
        <time>2017-04-24T18:56:30Z</time>
      </trkpt>
      <trkpt lat="45.63322" lon="5.72289">
        <ele>662</ele>
        <time>2017-04-24T18:56:30Z</time>
      </trkpt>
      <trkpt lat="45.63316" lon="5.72289">
        <ele>662</ele>
        <time>2017-04-24T18:56:46Z</time>
      </trkpt>
      <trkpt lat="45.63309" lon="5.72289">
        <ele>662</ele>
        <time>2017-04-24T18:56:46Z</time>
      </trkpt>
      <trkpt lat="45.63303" lon="5.72287">
        <ele>662</ele>
        <time>2017-04-24T18:56:46Z</time>
      </trkpt>
      <trkpt lat="45.63297" lon="5.72287">
        <ele>662</ele>
        <time>2017-04-24T18:56:46Z</time>
      </trkpt>
      <trkpt lat="45.63292" lon="5.72291">
        <ele>662</ele>
        <time>2017-04-24T18:57:02Z</time>
      </trkpt>
      <trkpt lat="45.63287" lon="5.72294">
        <ele>657</ele>
        <time>2017-04-24T18:57:02Z</time>
      </trkpt>
      <trkpt lat="45.63281" lon="5.72296">
        <ele>657</ele>
        <time>2017-04-24T18:57:02Z</time>
      </trkpt>
      <trkpt lat="45.63276" lon="5.72296">
        <ele>657</ele>
        <time>2017-04-24T18:57:02Z</time>
      </trkpt>
      <trkpt lat="45.6327" lon="5.72297">
        <ele>657</ele>
        <time>2017-04-24T18:57:18Z</time>
      </trkpt>
      <trkpt lat="45.63265" lon="5.72299">
        <ele>657</ele>
        <time>2017-04-24T18:57:18Z</time>
      </trkpt>
      <trkpt lat="45.6326" lon="5.723">
        <ele>657</ele>
        <time>2017-04-24T18:57:18Z</time>
      </trkpt>
      <trkpt lat="45.63255" lon="5.72302">
        <ele>657</ele>
        <time>2017-04-24T18:57:18Z</time>
      </trkpt>
      <trkpt lat="45.6325" lon="5.72305">
        <ele>657</ele>
        <time>2017-04-24T18:57:34Z</time>
      </trkpt>
      <trkpt lat="45.63244" lon="5.72307">
        <ele>657</ele>
        <time>2017-04-24T18:57:34Z</time>
      </trkpt>
      <trkpt lat="45.63236" lon="5.7231">
        <ele>657</ele>
        <time>2017-04-24T18:57:34Z</time>
      </trkpt>
      <trkpt lat="45.63228" lon="5.72305">
        <ele>657</ele>
        <time>2017-04-24T18:57:34Z</time>
      </trkpt>
      <trkpt lat="45.63222" lon="5.72301">
        <ele>657</ele>
        <time>2017-04-24T18:57:50Z</time>
      </trkpt>
      <trkpt lat="45.63217" lon="5.72302">
        <ele>657</ele>
        <time>2017-04-24T18:57:50Z</time>
      </trkpt>
      <trkpt lat="45.63211" lon="5.72303">
        <ele>657</ele>
        <time>2017-04-24T18:57:50Z</time>
      </trkpt>
      <trkpt lat="45.63204" lon="5.72302">
        <ele>662</ele>
        <time>2017-04-24T18:57:50Z</time>
      </trkpt>
      <trkpt lat="45.63199" lon="5.72302">
        <ele>662</ele>
        <time>2017-04-24T18:58:06Z</time>
      </trkpt>
      <trkpt lat="45.63194" lon="5.72303">
        <ele>662</ele>
        <time>2017-04-24T18:58:06Z</time>
      </trkpt>
      <trkpt lat="45.63189" lon="5.72302">
        <ele>662</ele>
        <time>2017-04-24T18:58:06Z</time>
      </trkpt>
      <trkpt lat="45.63183" lon="5.72301">
        <ele>662</ele>
        <time>2017-04-24T18:58:06Z</time>
      </trkpt>
      <trkpt lat="45.63178" lon="5.723">
        <ele>662</ele>
        <time>2017-04-24T18:58:22Z</time>
      </trkpt>
      <trkpt lat="45.63172" lon="5.72299">
        <ele>662</ele>
        <time>2017-04-24T18:58:22Z</time>
      </trkpt>
      <trkpt lat="45.63167" lon="5.723">
        <ele>662</ele>
        <time>2017-04-24T18:58:22Z</time>
      </trkpt>
      <trkpt lat="45.63161" lon="5.723">
        <ele>662</ele>
        <time>2017-04-24T18:58:22Z</time>
      </trkpt>
      <trkpt lat="45.63156" lon="5.72299">
        <ele>662</ele>
        <time>2017-04-24T18:58:38Z</time>
      </trkpt>
      <trkpt lat="45.63152" lon="5.72297">
        <ele>662</ele>
        <time>2017-04-24T18:58:38Z</time>
      </trkpt>
      <trkpt lat="45.63147" lon="5.72297">
        <ele>662</ele>
        <time>2017-04-24T18:58:38Z</time>
      </trkpt>
      <trkpt lat="45.63141" lon="5.72295">
        <ele>662</ele>
        <time>2017-04-24T18:58:38Z</time>
      </trkpt>
      <trkpt lat="45.63136" lon="5.72296">
        <ele>662</ele>
        <time>2017-04-24T18:58:54Z</time>
      </trkpt>
      <trkpt lat="45.63133" lon="5.723">
        <ele>662</ele>
        <time>2017-04-24T18:58:54Z</time>
      </trkpt>
      <trkpt lat="45.63128" lon="5.72303">
        <ele>662</ele>
        <time>2017-04-24T18:58:54Z</time>
      </trkpt>
      <trkpt lat="45.63124" lon="5.72305">
        <ele>665</ele>
        <time>2017-04-24T18:58:54Z</time>
      </trkpt>
      <trkpt lat="45.63118" lon="5.72306">
        <ele>665</ele>
        <time>2017-04-24T18:59:10Z</time>
      </trkpt>
      <trkpt lat="45.63113" lon="5.72306">
        <ele>665</ele>
        <time>2017-04-24T18:59:10Z</time>
      </trkpt>
      <trkpt lat="45.63107" lon="5.72306">
        <ele>665</ele>
        <time>2017-04-24T18:59:10Z</time>
      </trkpt>
      <trkpt lat="45.631" lon="5.72309">
        <ele>665</ele>
        <time>2017-04-24T18:59:10Z</time>
      </trkpt>
      <trkpt lat="45.63094" lon="5.72311">
        <ele>665</ele>
        <time>2017-04-24T18:59:26Z</time>
      </trkpt>
      <trkpt lat="45.63089" lon="5.72312">
        <ele>665</ele>
        <time>2017-04-24T18:59:26Z</time>
      </trkpt>
      <trkpt lat="45.63084" lon="5.72313">
        <ele>665</ele>
        <time>2017-04-24T18:59:26Z</time>
      </trkpt>
      <trkpt lat="45.63079" lon="5.72312">
        <ele>665</ele>
        <time>2017-04-24T18:59:26Z</time>
      </trkpt>
      <trkpt lat="45.63075" lon="5.72311">
        <ele>665</ele>
        <time>2017-04-24T18:59:42Z</time>
      </trkpt>
      <trkpt lat="45.6307" lon="5.72311">
        <ele>665</ele>
        <time>2017-04-24T18:59:42Z</time>
      </trkpt>
      <trkpt lat="45.63064" lon="5.7231">
        <ele>665</ele>
        <time>2017-04-24T18:59:42Z</time>
      </trkpt>
      <trkpt lat="45.63059" lon="5.7231">
        <ele>665</ele>
        <time>2017-04-24T18:59:42Z</time>
      </trkpt>
      <trkpt lat="45.63052" lon="5.72311">
        <ele>665</ele>
        <time>2017-04-24T19:00:02Z</time>
      </trkpt>
      <trkpt lat="45.63047" lon="5.72312">
        <ele>665</ele>
        <time>2017-04-24T19:00:02Z</time>
      </trkpt>
      <trkpt lat="45.63045" lon="5.72312">
        <ele>665</ele>
        <time>2017-04-24T19:00:02Z</time>
      </trkpt>
      <trkpt lat="45.63043" lon="5.72313">
        <ele>665</ele>
        <time>2017-04-24T19:00:02Z</time>
      </trkpt>
      <trkpt lat="45.63042" lon="5.72314">
        <ele>665</ele>
        <time>2017-04-24T19:00:02Z</time>
      </trkpt>
      <trkpt lat="45.63041" lon="5.72315">
        <ele>671</ele>
        <time>2017-04-24T19:00:18Z</time>
      </trkpt>
      <trkpt lat="45.63038" lon="5.72318">
        <ele>671</ele>
        <time>2017-04-24T19:00:18Z</time>
      </trkpt>
      <trkpt lat="45.63032" lon="5.72326">
        <ele>671</ele>
        <time>2017-04-24T19:00:18Z</time>
      </trkpt>
      <trkpt lat="45.6302" lon="5.72336">
        <ele>671</ele>
        <time>2017-04-24T19:00:18Z</time>
      </trkpt>
      <trkpt lat="45.6301" lon="5.72343">
        <ele>671</ele>
        <time>2017-04-24T19:00:34Z</time>
      </trkpt>
      <trkpt lat="45.63003" lon="5.72348">
        <ele>671</ele>
        <time>2017-04-24T19:00:34Z</time>
      </trkpt>
      <trkpt lat="45.62988" lon="5.72351">
        <ele>671</ele>
        <time>2017-04-24T19:00:34Z</time>
      </trkpt>
      <trkpt lat="45.62955" lon="5.72346">
        <ele>680</ele>
        <time>2017-04-24T19:00:34Z</time>
      </trkpt>
      <trkpt lat="45.62931" lon="5.72343">
        <ele>680</ele>
        <time>2017-04-24T19:00:50Z</time>
      </trkpt>
      <trkpt lat="45.62914" lon="5.7234">
        <ele>680</ele>
        <time>2017-04-24T19:00:50Z</time>
      </trkpt>
      <trkpt lat="45.62906" lon="5.72342">
        <ele>680</ele>
        <time>2017-04-24T19:00:50Z</time>
      </trkpt>
      <trkpt lat="45.62901" lon="5.72346">
        <ele>680</ele>
        <time>2017-04-24T19:00:50Z</time>
      </trkpt>
      <trkpt lat="45.62896" lon="5.72351">
        <ele>680</ele>
        <time>2017-04-24T19:01:06Z</time>
      </trkpt>
      <trkpt lat="45.62891" lon="5.72356">
        <ele>680</ele>
        <time>2017-04-24T19:01:06Z</time>
      </trkpt>
      <trkpt lat="45.62885" lon="5.7236">
        <ele>680</ele>
        <time>2017-04-24T19:01:06Z</time>
      </trkpt>
      <trkpt lat="45.6288" lon="5.72365">
        <ele>680</ele>
        <time>2017-04-24T19:01:06Z</time>
      </trkpt>
      <trkpt lat="45.62875" lon="5.7237">
        <ele>691</ele>
        <time>2017-04-24T19:01:22Z</time>
      </trkpt>
      <trkpt lat="45.62871" lon="5.72377">
        <ele>677</ele>
        <time>2017-04-24T19:01:22Z</time>
      </trkpt>
      <trkpt lat="45.62869" lon="5.7238">
        <ele>677</ele>
        <time>2017-04-24T19:01:22Z</time>
      </trkpt>
      <trkpt lat="45.62866" lon="5.72383">
        <ele>677</ele>
        <time>2017-04-24T19:01:22Z</time>
      </trkpt>
      <trkpt lat="45.62861" lon="5.72388">
        <ele>677</ele>
        <time>2017-04-24T19:01:38Z</time>
      </trkpt>
      <trkpt lat="45.62856" lon="5.72396">
        <ele>677</ele>
        <time>2017-04-24T19:01:38Z</time>
      </trkpt>
      <trkpt lat="45.62851" lon="5.72405">
        <ele>677</ele>
        <time>2017-04-24T19:01:38Z</time>
      </trkpt>
      <trkpt lat="45.62847" lon="5.72413">
        <ele>677</ele>
        <time>2017-04-24T19:01:38Z</time>
      </trkpt>
      <trkpt lat="45.62842" lon="5.72419">
        <ele>677</ele>
        <time>2017-04-24T19:01:54Z</time>
      </trkpt>
      <trkpt lat="45.6284" lon="5.72421">
        <ele>677</ele>
        <time>2017-04-24T19:01:54Z</time>
      </trkpt>
      <trkpt lat="45.62835" lon="5.72425">
        <ele>677</ele>
        <time>2017-04-24T19:01:54Z</time>
      </trkpt>
      <trkpt lat="45.62829" lon="5.72428">
        <ele>677</ele>
        <time>2017-04-24T19:01:54Z</time>
      </trkpt>
      <trkpt lat="45.62824" lon="5.72432">
        <ele>677</ele>
        <time>2017-04-24T19:02:10Z</time>
      </trkpt>
      <trkpt lat="45.62819" lon="5.72435">
        <ele>677</ele>
        <time>2017-04-24T19:02:10Z</time>
      </trkpt>
      <trkpt lat="45.62816" lon="5.72438">
        <ele>677</ele>
        <time>2017-04-24T19:02:10Z</time>
      </trkpt>
      <trkpt lat="45.62812" lon="5.7244">
        <ele>677</ele>
        <time>2017-04-24T19:02:10Z</time>
      </trkpt>
      <trkpt lat="45.62806" lon="5.72442">
        <ele>677</ele>
        <time>2017-04-24T19:02:26Z</time>
      </trkpt>
      <trkpt lat="45.62799" lon="5.72446">
        <ele>677</ele>
        <time>2017-04-24T19:02:26Z</time>
      </trkpt>
      <trkpt lat="45.62792" lon="5.72452">
        <ele>677</ele>
        <time>2017-04-24T19:02:26Z</time>
      </trkpt>
      <trkpt lat="45.62783" lon="5.72457">
        <ele>689</ele>
        <time>2017-04-24T19:02:26Z</time>
      </trkpt>
      <trkpt lat="45.62776" lon="5.72463">
        <ele>675</ele>
        <time>2017-04-24T19:02:42Z</time>
      </trkpt>
      <trkpt lat="45.62769" lon="5.72466">
        <ele>675</ele>
        <time>2017-04-24T19:02:42Z</time>
      </trkpt>
      <trkpt lat="45.62762" lon="5.7247">
        <ele>675</ele>
        <time>2017-04-24T19:02:42Z</time>
      </trkpt>
      <trkpt lat="45.62756" lon="5.72474">
        <ele>675</ele>
        <time>2017-04-24T19:02:42Z</time>
      </trkpt>
      <trkpt lat="45.6275" lon="5.72478">
        <ele>675</ele>
        <time>2017-04-24T19:02:58Z</time>
      </trkpt>
      <trkpt lat="45.62744" lon="5.72479">
        <ele>675</ele>
        <time>2017-04-24T19:02:58Z</time>
      </trkpt>
      <trkpt lat="45.62738" lon="5.72483">
        <ele>675</ele>
        <time>2017-04-24T19:02:58Z</time>
      </trkpt>
      <trkpt lat="45.62732" lon="5.72485">
        <ele>675</ele>
        <time>2017-04-24T19:02:58Z</time>
      </trkpt>
      <trkpt lat="45.62727" lon="5.72485">
        <ele>675</ele>
        <time>2017-04-24T19:03:14Z</time>
      </trkpt>
      <trkpt lat="45.62722" lon="5.72488">
        <ele>675</ele>
        <time>2017-04-24T19:03:14Z</time>
      </trkpt>
      <trkpt lat="45.62717" lon="5.72494">
        <ele>675</ele>
        <time>2017-04-24T19:03:14Z</time>
      </trkpt>
      <trkpt lat="45.62712" lon="5.72497">
        <ele>675</ele>
        <time>2017-04-24T19:03:14Z</time>
      </trkpt>
      <trkpt lat="45.62705" lon="5.72502">
        <ele>686</ele>
        <time>2017-04-24T19:03:30Z</time>
      </trkpt>
      <trkpt lat="45.62698" lon="5.72506">
        <ele>686</ele>
        <time>2017-04-24T19:03:30Z</time>
      </trkpt>
      <trkpt lat="45.62694" lon="5.72511">
        <ele>686</ele>
        <time>2017-04-24T19:03:30Z</time>
      </trkpt>
      <trkpt lat="45.62693" lon="5.72514">
        <ele>686</ele>
        <time>2017-04-24T19:03:30Z</time>
      </trkpt>
      <trkpt lat="45.62689" lon="5.72517">
        <ele>686</ele>
        <time>2017-04-24T19:03:46Z</time>
      </trkpt>
      <trkpt lat="45.62684" lon="5.72522">
        <ele>686</ele>
        <time>2017-04-24T19:03:46Z</time>
      </trkpt>
      <trkpt lat="45.6268" lon="5.72525">
        <ele>686</ele>
        <time>2017-04-24T19:03:46Z</time>
      </trkpt>
      <trkpt lat="45.62678" lon="5.72529">
        <ele>686</ele>
        <time>2017-04-24T19:03:46Z</time>
      </trkpt>
      <trkpt lat="45.62673" lon="5.72533">
        <ele>686</ele>
        <time>2017-04-24T19:04:02Z</time>
      </trkpt>
      <trkpt lat="45.62666" lon="5.72539">
        <ele>686</ele>
        <time>2017-04-24T19:04:02Z</time>
      </trkpt>
      <trkpt lat="45.62659" lon="5.72545">
        <ele>669</ele>
        <time>2017-04-24T19:04:02Z</time>
      </trkpt>
      <trkpt lat="45.62654" lon="5.7255">
        <ele>669</ele>
        <time>2017-04-24T19:04:02Z</time>
      </trkpt>
      <trkpt lat="45.6265" lon="5.72557">
        <ele>669</ele>
        <time>2017-04-24T19:04:18Z</time>
      </trkpt>
      <trkpt lat="45.62648" lon="5.72565">
        <ele>669</ele>
        <time>2017-04-24T19:04:18Z</time>
      </trkpt>
      <trkpt lat="45.62644" lon="5.7257">
        <ele>669</ele>
        <time>2017-04-24T19:04:18Z</time>
      </trkpt>
      <trkpt lat="45.62641" lon="5.72571">
        <ele>669</ele>
        <time>2017-04-24T19:04:18Z</time>
      </trkpt>
      <trkpt lat="45.6264" lon="5.72575">
        <ele>669</ele>
        <time>2017-04-24T19:04:34Z</time>
      </trkpt>
      <trkpt lat="45.62634" lon="5.72579">
        <ele>669</ele>
        <time>2017-04-24T19:04:34Z</time>
      </trkpt>
      <trkpt lat="45.62626" lon="5.72581">
        <ele>669</ele>
        <time>2017-04-24T19:04:34Z</time>
      </trkpt>
      <trkpt lat="45.62617" lon="5.72584">
        <ele>679</ele>
        <time>2017-04-24T19:04:34Z</time>
      </trkpt>
      <trkpt lat="45.62612" lon="5.72589">
        <ele>679</ele>
        <time>2017-04-24T19:04:54Z</time>
      </trkpt>
      <trkpt lat="45.62607" lon="5.72596">
        <ele>679</ele>
        <time>2017-04-24T19:04:54Z</time>
      </trkpt>
      <trkpt lat="45.62606" lon="5.72597">
        <ele>679</ele>
        <time>2017-04-24T19:04:54Z</time>
      </trkpt>
      <trkpt lat="45.62605" lon="5.72597">
        <ele>679</ele>
        <time>2017-04-24T19:04:54Z</time>
      </trkpt>
      <trkpt lat="45.62605" lon="5.72599">
        <ele>679</ele>
        <time>2017-04-24T19:04:54Z</time>
      </trkpt>
      <trkpt lat="45.62599" lon="5.72599">
        <ele>679</ele>
        <time>2017-04-24T19:05:50Z</time>
      </trkpt>
      <trkpt lat="45.62598" lon="5.726">
        <ele>679</ele>
        <time>2017-04-24T19:05:50Z</time>
      </trkpt>
      <trkpt lat="45.62598" lon="5.726">
        <ele>679</ele>
        <time>2017-04-24T19:05:50Z</time>
      </trkpt>
      <trkpt lat="45.62597" lon="5.726">
        <ele>679</ele>
        <time>2017-04-24T19:05:50Z</time>
      </trkpt>
      <trkpt lat="45.62596" lon="5.72601">
        <ele>679</ele>
        <time>2017-04-24T19:05:50Z</time>
      </trkpt>
      <trkpt lat="45.62596" lon="5.72599">
        <ele>679</ele>
        <time>2017-04-24T19:06:14Z</time>
      </trkpt>
      <trkpt lat="45.62595" lon="5.72599">
        <ele>679</ele>
        <time>2017-04-24T19:06:14Z</time>
      </trkpt>
      <trkpt lat="45.62594" lon="5.72599">
        <ele>679</ele>
        <time>2017-04-24T19:06:14Z</time>
      </trkpt>
      <trkpt lat="45.6259" lon="5.72602">
        <ele>679</ele>
        <time>2017-04-24T19:06:14Z</time>
      </trkpt>
      <trkpt lat="45.62586" lon="5.72605">
        <ele>679</ele>
        <time>2017-04-24T19:06:14Z</time>
      </trkpt>
      <trkpt lat="45.62583" lon="5.72607">
        <ele>679</ele>
        <time>2017-04-24T19:06:42Z</time>
      </trkpt>
      <trkpt lat="45.62582" lon="5.72608">
        <ele>679</ele>
        <time>2017-04-24T19:06:42Z</time>
      </trkpt>
      <trkpt lat="45.62581" lon="5.72608">
        <ele>679</ele>
        <time>2017-04-24T19:06:42Z</time>
      </trkpt>
      <trkpt lat="45.62579" lon="5.7261">
        <ele>679</ele>
        <time>2017-04-24T19:06:42Z</time>
      </trkpt>
      <trkpt lat="45.62575" lon="5.72614">
        <ele>679</ele>
        <time>2017-04-24T19:06:42Z</time>
      </trkpt>
      <trkpt lat="45.62571" lon="5.72627">
        <ele>659</ele>
        <time>2017-04-24T19:07:18Z</time>
      </trkpt>
      <trkpt lat="45.62576" lon="5.72625">
        <ele>659</ele>
        <time>2017-04-24T19:07:18Z</time>
      </trkpt>
      <trkpt lat="45.62581" lon="5.72623">
        <ele>679</ele>
        <time>2017-04-24T19:07:18Z</time>
      </trkpt>
      <trkpt lat="45.62585" lon="5.72621">
        <ele>679</ele>
        <time>2017-04-24T19:07:18Z</time>
      </trkpt>
      <trkpt lat="45.62588" lon="5.72621">
        <ele>679</ele>
        <time>2017-04-24T19:07:18Z</time>
      </trkpt>
      <trkpt lat="45.62593" lon="5.72621">
        <ele>679</ele>
        <time>2017-04-24T19:07:34Z</time>
      </trkpt>
      <trkpt lat="45.62598" lon="5.7262">
        <ele>679</ele>
        <time>2017-04-24T19:07:34Z</time>
      </trkpt>
      <trkpt lat="45.62604" lon="5.72619">
        <ele>679</ele>
        <time>2017-04-24T19:07:34Z</time>
      </trkpt>
      <trkpt lat="45.6261" lon="5.72617">
        <ele>679</ele>
        <time>2017-04-24T19:07:34Z</time>
      </trkpt>
      <trkpt lat="45.62617" lon="5.72617">
        <ele>679</ele>
        <time>2017-04-24T19:07:50Z</time>
      </trkpt>
      <trkpt lat="45.62621" lon="5.72618">
        <ele>679</ele>
        <time>2017-04-24T19:07:50Z</time>
      </trkpt>
      <trkpt lat="45.62625" lon="5.72618">
        <ele>669</ele>
        <time>2017-04-24T19:07:50Z</time>
      </trkpt>
      <trkpt lat="45.62631" lon="5.72617">
        <ele>669</ele>
        <time>2017-04-24T19:07:50Z</time>
      </trkpt>
      <trkpt lat="45.62636" lon="5.72617">
        <ele>669</ele>
        <time>2017-04-24T19:08:06Z</time>
      </trkpt>
      <trkpt lat="45.62641" lon="5.72615">
        <ele>669</ele>
        <time>2017-04-24T19:08:06Z</time>
      </trkpt>
      <trkpt lat="45.62646" lon="5.72615">
        <ele>669</ele>
        <time>2017-04-24T19:08:06Z</time>
      </trkpt>
      <trkpt lat="45.62652" lon="5.72615">
        <ele>669</ele>
        <time>2017-04-24T19:08:06Z</time>
      </trkpt>
      <trkpt lat="45.62654" lon="5.72625">
        <ele>669</ele>
        <time>2017-04-24T19:09:02Z</time>
      </trkpt>
      <trkpt lat="45.62653" lon="5.72625">
        <ele>669</ele>
        <time>2017-04-24T19:09:02Z</time>
      </trkpt>
      <trkpt lat="45.62653" lon="5.72625">
        <ele>653</ele>
        <time>2017-04-24T19:09:02Z</time>
      </trkpt>
      <trkpt lat="45.62651" lon="5.72626">
        <ele>653</ele>
        <time>2017-04-24T19:09:02Z</time>
      </trkpt>
      <trkpt lat="45.62647" lon="5.72629">
        <ele>653</ele>
        <time>2017-04-24T19:09:02Z</time>
      </trkpt>
      <trkpt lat="45.62642" lon="5.72635">
        <ele>653</ele>
        <time>2017-04-24T19:09:18Z</time>
      </trkpt>
      <trkpt lat="45.62639" lon="5.7264">
        <ele>653</ele>
        <time>2017-04-24T19:09:18Z</time>
      </trkpt>
      <trkpt lat="45.62635" lon="5.72645">
        <ele>653</ele>
        <time>2017-04-24T19:09:18Z</time>
      </trkpt>
      <trkpt lat="45.62631" lon="5.72646">
        <ele>653</ele>
        <time>2017-04-24T19:09:18Z</time>
      </trkpt>
      <trkpt lat="45.62633" lon="5.72648">
        <ele>653</ele>
        <time>2017-04-24T19:09:46Z</time>
      </trkpt>
      <trkpt lat="45.62633" lon="5.72648">
        <ele>653</ele>
        <time>2017-04-24T19:09:46Z</time>
      </trkpt>
      <trkpt lat="45.62635" lon="5.72648">
        <ele>653</ele>
        <time>2017-04-24T19:09:46Z</time>
      </trkpt>
      <trkpt lat="45.62639" lon="5.72654">
        <ele>653</ele>
        <time>2017-04-24T19:09:46Z</time>
      </trkpt>
      <trkpt lat="45.62639" lon="5.72657">
        <ele>653</ele>
        <time>2017-04-24T19:09:46Z</time>
      </trkpt>
    </trkseg>
  </trk>
</gpx>